﻿<?xml version="1.0" encoding="utf-8"?><gpx creator="Garmin Desktop App" version="1.1" xsi:schemaLocation="http://www.topografix.com/GPX/1/1 http://www.topografix.com/GPX/1/1/gpx.xsd http://www.garmin.com/xmlschemas/WaypointExtension/v1 http://www8.garmin.com/xmlschemas/WaypointExtensionv1.xsd http://www.garmin.com/xmlschemas/TrackPointExtension/v1 http://www.garmin.com/xmlschemas/TrackPointExtensionv1.xsd http://www.garmin.com/xmlschemas/GpxExtensions/v3 http://www8.garmin.com/xmlschemas/GpxExtensionsv3.xsd http://www.garmin.com/xmlschemas/ActivityExtension/v1 http://www8.garmin.com/xmlschemas/ActivityExtensionv1.xsd http://www.garmin.com/xmlschemas/AdventuresExtensions/v1 http://www8.garmin.com/xmlschemas/AdventuresExtensionv1.xsd http://www.garmin.com/xmlschemas/PressureExtension/v1 http://www.garmin.com/xmlschemas/PressureExtensionv1.xsd http://www.garmin.com/xmlschemas/TripExtensions/v1 http://www.garmin.com/xmlschemas/TripExtensionsv1.xsd http://www.garmin.com/xmlschemas/TripMetaDataExtensions/v1 http://www.garmin.com/xmlschemas/TripMetaDataExtensionsv1.xsd http://www.garmin.com/xmlschemas/ViaPointTransportationModeExtensions/v1 http://www.garmin.com/xmlschemas/ViaPointTransportationModeExtensionsv1.xsd http://www.garmin.com/xmlschemas/CreationTimeExtension/v1 http://www.garmin.com/xmlschemas/CreationTimeExtensionsv1.xsd http://www.garmin.com/xmlschemas/AccelerationExtension/v1 http://www.garmin.com/xmlschemas/AccelerationExtensionv1.xsd http://www.garmin.com/xmlschemas/PowerExtension/v1 http://www.garmin.com/xmlschemas/PowerExtensionv1.xsd http://www.garmin.com/xmlschemas/VideoExtension/v1 http://www.garmin.com/xmlschemas/VideoExtensionv1.xsd" xmlns="http://www.topografix.com/GPX/1/1" xmlns:xsi="http://www.w3.org/2001/XMLSchema-instance" xmlns:wptx1="http://www.garmin.com/xmlschemas/WaypointExtension/v1" xmlns:gpxtrx="http://www.garmin.com/xmlschemas/GpxExtensions/v3" xmlns:gpxtpx="http://www.garmin.com/xmlschemas/TrackPointExtension/v1" xmlns:gpxx="http://www.garmin.com/xmlschemas/GpxExtensions/v3" xmlns:trp="http://www.garmin.com/xmlschemas/TripExtensions/v1" xmlns:adv="http://www.garmin.com/xmlschemas/AdventuresExtensions/v1" xmlns:prs="http://www.garmin.com/xmlschemas/PressureExtension/v1" xmlns:tmd="http://www.garmin.com/xmlschemas/TripMetaDataExtensions/v1" xmlns:vptm="http://www.garmin.com/xmlschemas/ViaPointTransportationModeExtensions/v1" xmlns:ctx="http://www.garmin.com/xmlschemas/CreationTimeExtension/v1" xmlns:gpxacc="http://www.garmin.com/xmlschemas/AccelerationExtension/v1" xmlns:gpxpx="http://www.garmin.com/xmlschemas/PowerExtension/v1" xmlns:vidx1="http://www.garmin.com/xmlschemas/VideoExtension/v1">

  <metadata>
    <link href="http://www.garmin.com">
      <text>Garmin International</text>
    </link>
    <time>2026-08-20T15:45:01Z</time>
    <bounds maxlat="59.878749847412109" maxlon="30.493133068084717" minlat="59.107754230499268" minlon="29.29105281829834" />
  </metadata>

  <trk>
    <name>Ханечка</name>
    <extensions>
      <gpxx:TrackExtension>
        <gpxx:DisplayColor>DarkGreen</gpxx:DisplayColor>
      </gpxx:TrackExtension>
    </extensions>
    <trkseg>
      <trkpt lat="59.87673282623291" lon="29.291117191314697">
        <time>2026-07-26T13:24:37Z</time>
      </trkpt>
      <trkpt lat="59.87673282623291" lon="29.291117191314697">
        <time>2026-07-26T13:24:39Z</time>
      </trkpt>
      <trkpt lat="59.87673282623291" lon="29.291117191314697">
        <time>2026-07-26T13:24:42Z</time>
      </trkpt>
      <trkpt lat="59.87673282623291" lon="29.291117191314697">
        <time>2026-07-26T13:24:44Z</time>
      </trkpt>
      <trkpt lat="59.87673282623291" lon="29.291138648986816">
        <time>2026-07-26T13:24:47Z</time>
      </trkpt>
      <trkpt lat="59.87673282623291" lon="29.291160106658936">
        <time>2026-07-26T13:24:49Z</time>
      </trkpt>
      <trkpt lat="59.87673282623291" lon="29.291203022003174">
        <time>2026-07-26T13:24:52Z</time>
      </trkpt>
      <trkpt lat="59.87673282623291" lon="29.291245937347412">
        <time>2026-07-26T13:24:54Z</time>
      </trkpt>
      <trkpt lat="59.87673282623291" lon="29.291267395019531">
        <time>2026-07-26T13:24:57Z</time>
      </trkpt>
      <trkpt lat="59.876711368560791" lon="29.29128885269165">
        <time>2026-07-26T13:24:59Z</time>
      </trkpt>
      <trkpt lat="59.876689910888672" lon="29.29128885269165">
        <time>2026-07-26T13:25:02Z</time>
      </trkpt>
      <trkpt lat="59.876711368560791" lon="29.29128885269165">
        <time>2026-07-26T13:25:04Z</time>
      </trkpt>
      <trkpt lat="59.876711368560791" lon="29.29128885269165">
        <time>2026-07-26T13:25:07Z</time>
      </trkpt>
      <trkpt lat="59.87673282623291" lon="29.291181564331055">
        <time>2026-07-26T13:25:09Z</time>
      </trkpt>
      <trkpt lat="59.87673282623291" lon="29.291117191314697">
        <time>2026-07-26T13:25:12Z</time>
      </trkpt>
      <trkpt lat="59.876754283905029" lon="29.291160106658936">
        <time>2026-07-26T13:25:14Z</time>
      </trkpt>
      <trkpt lat="59.87673282623291" lon="29.291203022003174">
        <time>2026-07-26T13:25:17Z</time>
      </trkpt>
      <trkpt lat="59.87673282623291" lon="29.291245937347412">
        <time>2026-07-26T13:25:19Z</time>
      </trkpt>
      <trkpt lat="59.876711368560791" lon="29.291203022003174">
        <time>2026-07-26T13:25:22Z</time>
      </trkpt>
      <trkpt lat="59.876711368560791" lon="29.291224479675293">
        <time>2026-07-26T13:25:24Z</time>
      </trkpt>
      <trkpt lat="59.876711368560791" lon="29.291245937347412">
        <time>2026-07-26T13:25:27Z</time>
      </trkpt>
      <trkpt lat="59.876754283905029" lon="29.291203022003174">
        <time>2026-07-26T13:25:29Z</time>
      </trkpt>
      <trkpt lat="59.876754283905029" lon="29.291138648986816">
        <time>2026-07-26T13:25:32Z</time>
      </trkpt>
      <trkpt lat="59.876754283905029" lon="29.291074275970459">
        <time>2026-07-26T13:25:34Z</time>
      </trkpt>
      <trkpt lat="59.876754283905029" lon="29.29105281829834">
        <time>2026-07-26T13:25:37Z</time>
      </trkpt>
      <trkpt lat="59.876754283905029" lon="29.291117191314697">
        <time>2026-07-26T13:25:39Z</time>
      </trkpt>
      <trkpt lat="59.876754283905029" lon="29.291181564331055">
        <time>2026-07-26T13:25:42Z</time>
      </trkpt>
      <trkpt lat="59.87673282623291" lon="29.291245937347412">
        <time>2026-07-26T13:25:44Z</time>
      </trkpt>
      <trkpt lat="59.876711368560791" lon="29.291245937347412">
        <time>2026-07-26T13:25:47Z</time>
      </trkpt>
      <trkpt lat="59.87673282623291" lon="29.291267395019531">
        <time>2026-07-26T13:25:49Z</time>
      </trkpt>
      <trkpt lat="59.87673282623291" lon="29.291267395019531">
        <time>2026-07-26T13:25:52Z</time>
      </trkpt>
      <trkpt lat="59.876689910888672" lon="29.29128885269165">
        <time>2026-07-26T13:25:54Z</time>
      </trkpt>
      <trkpt lat="59.876689910888672" lon="29.29128885269165">
        <time>2026-07-26T13:25:57Z</time>
      </trkpt>
      <trkpt lat="59.876646995544434" lon="29.29128885269165">
        <time>2026-07-26T13:25:59Z</time>
      </trkpt>
      <trkpt lat="59.876646995544434" lon="29.29128885269165">
        <time>2026-07-26T13:26:02Z</time>
      </trkpt>
      <trkpt lat="59.876646995544434" lon="29.29128885269165">
        <time>2026-07-26T13:26:04Z</time>
      </trkpt>
      <trkpt lat="59.876646995544434" lon="29.29131031036377">
        <time>2026-07-26T13:26:07Z</time>
      </trkpt>
      <trkpt lat="59.876646995544434" lon="29.291267395019531">
        <time>2026-07-26T13:26:09Z</time>
      </trkpt>
      <trkpt lat="59.876646995544434" lon="29.291224479675293">
        <time>2026-07-26T13:26:12Z</time>
      </trkpt>
      <trkpt lat="59.876646995544434" lon="29.291160106658936">
        <time>2026-07-26T13:26:14Z</time>
      </trkpt>
      <trkpt lat="59.876646995544434" lon="29.291181564331055">
        <time>2026-07-26T13:26:17Z</time>
      </trkpt>
      <trkpt lat="59.876668453216553" lon="29.291224479675293">
        <time>2026-07-26T13:26:19Z</time>
      </trkpt>
      <trkpt lat="59.876689910888672" lon="29.291245937347412">
        <time>2026-07-26T13:26:22Z</time>
      </trkpt>
      <trkpt lat="59.876689910888672" lon="29.29128885269165">
        <time>2026-07-26T13:26:24Z</time>
      </trkpt>
      <trkpt lat="59.876689910888672" lon="29.29128885269165">
        <time>2026-07-26T13:26:27Z</time>
      </trkpt>
      <trkpt lat="59.876689910888672" lon="29.29131031036377">
        <time>2026-07-26T13:26:29Z</time>
      </trkpt>
      <trkpt lat="59.876711368560791" lon="29.291331768035889">
        <time>2026-07-26T13:26:32Z</time>
      </trkpt>
      <trkpt lat="59.87673282623291" lon="29.29131031036377">
        <time>2026-07-26T13:26:34Z</time>
      </trkpt>
      <trkpt lat="59.87673282623291" lon="29.291267395019531">
        <time>2026-07-26T13:26:37Z</time>
      </trkpt>
      <trkpt lat="59.876754283905029" lon="29.291267395019531">
        <time>2026-07-26T13:26:39Z</time>
      </trkpt>
      <trkpt lat="59.876754283905029" lon="29.29128885269165">
        <time>2026-07-26T13:26:42Z</time>
      </trkpt>
      <trkpt lat="59.876711368560791" lon="29.29131031036377">
        <time>2026-07-26T13:26:44Z</time>
      </trkpt>
      <trkpt lat="59.876689910888672" lon="29.291331768035889">
        <time>2026-07-26T13:26:47Z</time>
      </trkpt>
      <trkpt lat="59.876668453216553" lon="29.291331768035889">
        <time>2026-07-26T13:26:49Z</time>
      </trkpt>
      <trkpt lat="59.876668453216553" lon="29.291331768035889">
        <time>2026-07-26T13:26:52Z</time>
      </trkpt>
      <trkpt lat="59.876646995544434" lon="29.29131031036377">
        <time>2026-07-26T13:26:54Z</time>
      </trkpt>
      <trkpt lat="59.876625537872314" lon="29.29131031036377">
        <time>2026-07-26T13:26:57Z</time>
      </trkpt>
      <trkpt lat="59.876625537872314" lon="29.291331768035889">
        <time>2026-07-26T13:26:59Z</time>
      </trkpt>
      <trkpt lat="59.876646995544434" lon="29.291331768035889">
        <time>2026-07-26T13:27:02Z</time>
      </trkpt>
      <trkpt lat="59.876646995544434" lon="29.291353225708008">
        <time>2026-07-26T13:27:04Z</time>
      </trkpt>
      <trkpt lat="59.876646995544434" lon="29.291353225708008">
        <time>2026-07-26T13:27:07Z</time>
      </trkpt>
      <trkpt lat="59.876604080200195" lon="29.291460514068604">
        <time>2026-07-26T13:27:09Z</time>
      </trkpt>
      <trkpt lat="59.876604080200195" lon="29.29154634475708">
        <time>2026-07-26T13:27:12Z</time>
      </trkpt>
      <trkpt lat="59.876604080200195" lon="29.291675090789795">
        <time>2026-07-26T13:27:14Z</time>
      </trkpt>
      <trkpt lat="59.876604080200195" lon="29.291675090789795">
        <time>2026-07-26T13:27:17Z</time>
      </trkpt>
      <trkpt lat="59.876625537872314" lon="29.291610717773438">
        <time>2026-07-26T13:27:19Z</time>
      </trkpt>
      <trkpt lat="59.876646995544434" lon="29.291589260101318">
        <time>2026-07-26T13:27:22Z</time>
      </trkpt>
      <trkpt lat="59.876625537872314" lon="29.291632175445557">
        <time>2026-07-26T13:27:24Z</time>
      </trkpt>
      <trkpt lat="59.876625537872314" lon="29.291653633117676">
        <time>2026-07-26T13:27:27Z</time>
      </trkpt>
      <trkpt lat="59.876646995544434" lon="29.291696548461914">
        <time>2026-07-26T13:27:29Z</time>
      </trkpt>
      <trkpt lat="59.876646995544434" lon="29.291718006134033">
        <time>2026-07-26T13:27:32Z</time>
      </trkpt>
      <trkpt lat="59.876646995544434" lon="29.291739463806152">
        <time>2026-07-26T13:27:34Z</time>
      </trkpt>
      <trkpt lat="59.876646995544434" lon="29.291739463806152">
        <time>2026-07-26T13:27:37Z</time>
      </trkpt>
      <trkpt lat="59.876625537872314" lon="29.291739463806152">
        <time>2026-07-26T13:27:39Z</time>
      </trkpt>
      <trkpt lat="59.876625537872314" lon="29.291760921478271">
        <time>2026-07-26T13:27:42Z</time>
      </trkpt>
      <trkpt lat="59.876646995544434" lon="29.291675090789795">
        <time>2026-07-26T13:27:44Z</time>
      </trkpt>
      <trkpt lat="59.876646995544434" lon="29.291524887084961">
        <time>2026-07-26T13:27:47Z</time>
      </trkpt>
      <trkpt lat="59.876668453216553" lon="29.291353225708008">
        <time>2026-07-26T13:27:49Z</time>
      </trkpt>
      <trkpt lat="59.876646995544434" lon="29.291417598724365">
        <time>2026-07-26T13:27:52Z</time>
      </trkpt>
      <trkpt lat="59.876625537872314" lon="29.291610717773438">
        <time>2026-07-26T13:27:54Z</time>
      </trkpt>
      <trkpt lat="59.876625537872314" lon="29.291696548461914">
        <time>2026-07-26T13:27:57Z</time>
      </trkpt>
      <trkpt lat="59.876625537872314" lon="29.291696548461914">
        <time>2026-07-26T13:27:59Z</time>
      </trkpt>
      <trkpt lat="59.876625537872314" lon="29.291696548461914">
        <time>2026-07-26T13:28:02Z</time>
      </trkpt>
      <trkpt lat="59.876625537872314" lon="29.291696548461914">
        <time>2026-07-26T13:28:07Z</time>
      </trkpt>
      <trkpt lat="59.876625537872314" lon="29.291696548461914">
        <time>2026-07-26T13:28:09Z</time>
      </trkpt>
      <trkpt lat="59.876625537872314" lon="29.291675090789795">
        <time>2026-07-26T13:28:12Z</time>
      </trkpt>
      <trkpt lat="59.876646995544434" lon="29.291481971740723">
        <time>2026-07-26T13:28:14Z</time>
      </trkpt>
      <trkpt lat="59.876668453216553" lon="29.291353225708008">
        <time>2026-07-26T13:28:17Z</time>
      </trkpt>
      <trkpt lat="59.876668453216553" lon="29.291417598724365">
        <time>2026-07-26T13:28:19Z</time>
      </trkpt>
      <trkpt lat="59.876646995544434" lon="29.29154634475708">
        <time>2026-07-26T13:28:22Z</time>
      </trkpt>
      <trkpt lat="59.876604080200195" lon="29.291696548461914">
        <time>2026-07-26T13:28:24Z</time>
      </trkpt>
      <trkpt lat="59.876582622528076" lon="29.291718006134033">
        <time>2026-07-26T13:28:27Z</time>
      </trkpt>
      <trkpt lat="59.876561164855957" lon="29.291696548461914">
        <time>2026-07-26T13:28:29Z</time>
      </trkpt>
      <trkpt lat="59.876539707183838" lon="29.291653633117676">
        <time>2026-07-26T13:28:32Z</time>
      </trkpt>
      <trkpt lat="59.876518249511719" lon="29.291632175445557">
        <time>2026-07-26T13:28:34Z</time>
      </trkpt>
      <trkpt lat="59.876518249511719" lon="29.291589260101318">
        <time>2026-07-26T13:28:37Z</time>
      </trkpt>
      <trkpt lat="59.8764967918396" lon="29.291524887084961">
        <time>2026-07-26T13:28:39Z</time>
      </trkpt>
      <trkpt lat="59.8764967918396" lon="29.291524887084961">
        <time>2026-07-26T13:28:42Z</time>
      </trkpt>
      <trkpt lat="59.87647533416748" lon="29.291481971740723">
        <time>2026-07-26T13:28:44Z</time>
      </trkpt>
      <trkpt lat="59.876453876495361" lon="29.291460514068604">
        <time>2026-07-26T13:28:47Z</time>
      </trkpt>
      <trkpt lat="59.876410961151123" lon="29.291460514068604">
        <time>2026-07-26T13:28:49Z</time>
      </trkpt>
      <trkpt lat="59.876389503479004" lon="29.291481971740723">
        <time>2026-07-26T13:28:52Z</time>
      </trkpt>
      <trkpt lat="59.876389503479004" lon="29.291481971740723">
        <time>2026-07-26T13:28:54Z</time>
      </trkpt>
      <trkpt lat="59.876389503479004" lon="29.291481971740723">
        <time>2026-07-26T13:28:57Z</time>
      </trkpt>
      <trkpt lat="59.876410961151123" lon="29.291481971740723">
        <time>2026-07-26T13:28:59Z</time>
      </trkpt>
      <trkpt lat="59.876432418823242" lon="29.291524887084961">
        <time>2026-07-26T13:29:02Z</time>
      </trkpt>
      <trkpt lat="59.876453876495361" lon="29.291610717773438">
        <time>2026-07-26T13:29:04Z</time>
      </trkpt>
      <trkpt lat="59.87647533416748" lon="29.291653633117676">
        <time>2026-07-26T13:29:07Z</time>
      </trkpt>
      <trkpt lat="59.87647533416748" lon="29.291653633117676">
        <time>2026-07-26T13:29:09Z</time>
      </trkpt>
      <trkpt lat="59.87647533416748" lon="29.291632175445557">
        <time>2026-07-26T13:29:12Z</time>
      </trkpt>
      <trkpt lat="59.876432418823242" lon="29.29154634475708">
        <time>2026-07-26T13:29:14Z</time>
      </trkpt>
      <trkpt lat="59.876432418823242" lon="29.291460514068604">
        <time>2026-07-26T13:29:17Z</time>
      </trkpt>
      <trkpt lat="59.876432418823242" lon="29.291396141052246">
        <time>2026-07-26T13:29:19Z</time>
      </trkpt>
      <trkpt lat="59.876432418823242" lon="29.291353225708008">
        <time>2026-07-26T13:29:22Z</time>
      </trkpt>
      <trkpt lat="59.876410961151123" lon="29.29128885269165">
        <time>2026-07-26T13:29:24Z</time>
      </trkpt>
      <trkpt lat="59.876410961151123" lon="29.291245937347412">
        <time>2026-07-26T13:29:27Z</time>
      </trkpt>
      <trkpt lat="59.876389503479004" lon="29.291224479675293">
        <time>2026-07-26T13:29:29Z</time>
      </trkpt>
      <trkpt lat="59.876368045806885" lon="29.291203022003174">
        <time>2026-07-26T13:29:32Z</time>
      </trkpt>
      <trkpt lat="59.876346588134766" lon="29.291160106658936">
        <time>2026-07-26T13:29:34Z</time>
      </trkpt>
      <trkpt lat="59.876325130462646" lon="29.291160106658936">
        <time>2026-07-26T13:29:37Z</time>
      </trkpt>
      <trkpt lat="59.876325130462646" lon="29.291160106658936">
        <time>2026-07-26T13:29:39Z</time>
      </trkpt>
      <trkpt lat="59.876325130462646" lon="29.291224479675293">
        <time>2026-07-26T13:29:42Z</time>
      </trkpt>
      <trkpt lat="59.876303672790527" lon="29.291331768035889">
        <time>2026-07-26T13:29:44Z</time>
      </trkpt>
      <trkpt lat="59.876303672790527" lon="29.291374683380127">
        <time>2026-07-26T13:29:47Z</time>
      </trkpt>
      <trkpt lat="59.876282215118408" lon="29.291481971740723">
        <time>2026-07-26T13:29:49Z</time>
      </trkpt>
      <trkpt lat="59.876260757446289" lon="29.291567802429199">
        <time>2026-07-26T13:29:52Z</time>
      </trkpt>
      <trkpt lat="59.876260757446289" lon="29.291696548461914">
        <time>2026-07-26T13:29:54Z</time>
      </trkpt>
      <trkpt lat="59.87623929977417" lon="29.291760921478271">
        <time>2026-07-26T13:29:57Z</time>
      </trkpt>
      <trkpt lat="59.876260757446289" lon="29.29180383682251">
        <time>2026-07-26T13:29:59Z</time>
      </trkpt>
      <trkpt lat="59.876260757446289" lon="29.29180383682251">
        <time>2026-07-26T13:30:02Z</time>
      </trkpt>
      <trkpt lat="59.87623929977417" lon="29.291825294494629">
        <time>2026-07-26T13:30:04Z</time>
      </trkpt>
      <trkpt lat="59.87623929977417" lon="29.291825294494629">
        <time>2026-07-26T13:30:07Z</time>
      </trkpt>
      <trkpt lat="59.87623929977417" lon="29.291846752166748">
        <time>2026-07-26T13:30:09Z</time>
      </trkpt>
      <trkpt lat="59.876260757446289" lon="29.291932582855225">
        <time>2026-07-26T13:30:12Z</time>
      </trkpt>
      <trkpt lat="59.876282215118408" lon="29.291996955871582">
        <time>2026-07-26T13:30:14Z</time>
      </trkpt>
      <trkpt lat="59.876282215118408" lon="29.292018413543701">
        <time>2026-07-26T13:30:17Z</time>
      </trkpt>
      <trkpt lat="59.876282215118408" lon="29.292018413543701">
        <time>2026-07-26T13:30:19Z</time>
      </trkpt>
      <trkpt lat="59.876282215118408" lon="29.292018413543701">
        <time>2026-07-26T13:30:22Z</time>
      </trkpt>
      <trkpt lat="59.876282215118408" lon="29.291996955871582">
        <time>2026-07-26T13:30:24Z</time>
      </trkpt>
      <trkpt lat="59.876282215118408" lon="29.291954040527344">
        <time>2026-07-26T13:30:27Z</time>
      </trkpt>
      <trkpt lat="59.876260757446289" lon="29.291932582855225">
        <time>2026-07-26T13:30:29Z</time>
      </trkpt>
      <trkpt lat="59.876260757446289" lon="29.291975498199463">
        <time>2026-07-26T13:30:32Z</time>
      </trkpt>
      <trkpt lat="59.876260757446289" lon="29.291996955871582">
        <time>2026-07-26T13:30:34Z</time>
      </trkpt>
      <trkpt lat="59.876282215118408" lon="29.292061328887939">
        <time>2026-07-26T13:30:37Z</time>
      </trkpt>
      <trkpt lat="59.876260757446289" lon="29.292104244232178">
        <time>2026-07-26T13:30:39Z</time>
      </trkpt>
      <trkpt lat="59.876260757446289" lon="29.292125701904297">
        <time>2026-07-26T13:30:42Z</time>
      </trkpt>
      <trkpt lat="59.87623929977417" lon="29.292147159576416">
        <time>2026-07-26T13:30:44Z</time>
      </trkpt>
      <trkpt lat="59.876217842102051" lon="29.292190074920654">
        <time>2026-07-26T13:30:47Z</time>
      </trkpt>
      <trkpt lat="59.876174926757812" lon="29.292275905609131">
        <time>2026-07-26T13:30:49Z</time>
      </trkpt>
      <trkpt lat="59.876153469085693" lon="29.29229736328125">
        <time>2026-07-26T13:30:52Z</time>
      </trkpt>
      <trkpt lat="59.876153469085693" lon="29.292318820953369">
        <time>2026-07-26T13:30:54Z</time>
      </trkpt>
      <trkpt lat="59.876174926757812" lon="29.292340278625488">
        <time>2026-07-26T13:30:57Z</time>
      </trkpt>
      <trkpt lat="59.876196384429932" lon="29.292340278625488">
        <time>2026-07-26T13:30:59Z</time>
      </trkpt>
      <trkpt lat="59.876217842102051" lon="29.29229736328125">
        <time>2026-07-26T13:31:02Z</time>
      </trkpt>
      <trkpt lat="59.87623929977417" lon="29.292211532592773">
        <time>2026-07-26T13:31:04Z</time>
      </trkpt>
      <trkpt lat="59.876260757446289" lon="29.292168617248535">
        <time>2026-07-26T13:31:07Z</time>
      </trkpt>
      <trkpt lat="59.87623929977417" lon="29.292211532592773">
        <time>2026-07-26T13:31:09Z</time>
      </trkpt>
      <trkpt lat="59.87623929977417" lon="29.292232990264893">
        <time>2026-07-26T13:31:12Z</time>
      </trkpt>
      <trkpt lat="59.87623929977417" lon="29.29229736328125">
        <time>2026-07-26T13:31:14Z</time>
      </trkpt>
      <trkpt lat="59.87623929977417" lon="29.29229736328125">
        <time>2026-07-26T13:31:17Z</time>
      </trkpt>
      <trkpt lat="59.87623929977417" lon="29.292318820953369">
        <time>2026-07-26T13:31:19Z</time>
      </trkpt>
      <trkpt lat="59.87623929977417" lon="29.292361736297607">
        <time>2026-07-26T13:31:22Z</time>
      </trkpt>
      <trkpt lat="59.876217842102051" lon="29.292404651641846">
        <time>2026-07-26T13:31:24Z</time>
      </trkpt>
      <trkpt lat="59.876217842102051" lon="29.292426109313965">
        <time>2026-07-26T13:31:27Z</time>
      </trkpt>
      <trkpt lat="59.87623929977417" lon="29.292469024658203">
        <time>2026-07-26T13:31:29Z</time>
      </trkpt>
      <trkpt lat="59.876260757446289" lon="29.292469024658203">
        <time>2026-07-26T13:31:32Z</time>
      </trkpt>
      <trkpt lat="59.876282215118408" lon="29.292469024658203">
        <time>2026-07-26T13:31:34Z</time>
      </trkpt>
      <trkpt lat="59.876260757446289" lon="29.292490482330322">
        <time>2026-07-26T13:31:37Z</time>
      </trkpt>
      <trkpt lat="59.876260757446289" lon="29.292490482330322">
        <time>2026-07-26T13:31:39Z</time>
      </trkpt>
      <trkpt lat="59.876260757446289" lon="29.292490482330322">
        <time>2026-07-26T13:31:42Z</time>
      </trkpt>
      <trkpt lat="59.876260757446289" lon="29.292490482330322">
        <time>2026-07-26T13:31:44Z</time>
      </trkpt>
      <trkpt lat="59.876260757446289" lon="29.292490482330322">
        <time>2026-07-26T13:31:47Z</time>
      </trkpt>
      <trkpt lat="59.876282215118408" lon="29.292533397674561">
        <time>2026-07-26T13:31:49Z</time>
      </trkpt>
      <trkpt lat="59.876282215118408" lon="29.292576313018799">
        <time>2026-07-26T13:31:52Z</time>
      </trkpt>
      <trkpt lat="59.876303672790527" lon="29.292619228363037">
        <time>2026-07-26T13:31:54Z</time>
      </trkpt>
      <trkpt lat="59.876325130462646" lon="29.292683601379395">
        <time>2026-07-26T13:31:57Z</time>
      </trkpt>
      <trkpt lat="59.876325130462646" lon="29.292683601379395">
        <time>2026-07-26T13:31:59Z</time>
      </trkpt>
      <trkpt lat="59.876325130462646" lon="29.292683601379395">
        <time>2026-07-26T13:32:02Z</time>
      </trkpt>
      <trkpt lat="59.876325130462646" lon="29.292683601379395">
        <time>2026-07-26T13:32:04Z</time>
      </trkpt>
      <trkpt lat="59.876325130462646" lon="29.292683601379395">
        <time>2026-07-26T13:32:07Z</time>
      </trkpt>
      <trkpt lat="59.876325130462646" lon="29.292683601379395">
        <time>2026-07-26T13:32:09Z</time>
      </trkpt>
      <trkpt lat="59.876325130462646" lon="29.292683601379395">
        <time>2026-07-26T13:32:12Z</time>
      </trkpt>
      <trkpt lat="59.876346588134766" lon="29.292683601379395">
        <time>2026-07-26T13:32:14Z</time>
      </trkpt>
      <trkpt lat="59.876389503479004" lon="29.292683601379395">
        <time>2026-07-26T13:32:17Z</time>
      </trkpt>
      <trkpt lat="59.876432418823242" lon="29.292726516723633">
        <time>2026-07-26T13:32:19Z</time>
      </trkpt>
      <trkpt lat="59.876432418823242" lon="29.292726516723633">
        <time>2026-07-26T13:32:22Z</time>
      </trkpt>
      <trkpt lat="59.876432418823242" lon="29.292747974395752">
        <time>2026-07-26T13:32:24Z</time>
      </trkpt>
      <trkpt lat="59.876410961151123" lon="29.292726516723633">
        <time>2026-07-26T13:32:27Z</time>
      </trkpt>
      <trkpt lat="59.876368045806885" lon="29.292683601379395">
        <time>2026-07-26T13:32:29Z</time>
      </trkpt>
      <trkpt lat="59.876346588134766" lon="29.292640686035156">
        <time>2026-07-26T13:32:32Z</time>
      </trkpt>
      <trkpt lat="59.876325130462646" lon="29.292640686035156">
        <time>2026-07-26T13:32:34Z</time>
      </trkpt>
      <trkpt lat="59.876346588134766" lon="29.292705059051514">
        <time>2026-07-26T13:32:37Z</time>
      </trkpt>
      <trkpt lat="59.876389503479004" lon="29.292726516723633">
        <time>2026-07-26T13:32:39Z</time>
      </trkpt>
      <trkpt lat="59.876389503479004" lon="29.292726516723633">
        <time>2026-07-26T13:32:42Z</time>
      </trkpt>
      <trkpt lat="59.876389503479004" lon="29.292726516723633">
        <time>2026-07-26T13:32:44Z</time>
      </trkpt>
      <trkpt lat="59.876410961151123" lon="29.292726516723633">
        <time>2026-07-26T13:32:47Z</time>
      </trkpt>
      <trkpt lat="59.876410961151123" lon="29.292726516723633">
        <time>2026-07-26T13:32:49Z</time>
      </trkpt>
      <trkpt lat="59.876410961151123" lon="29.292726516723633">
        <time>2026-07-26T13:32:52Z</time>
      </trkpt>
      <trkpt lat="59.876410961151123" lon="29.292726516723633">
        <time>2026-07-26T13:32:54Z</time>
      </trkpt>
      <trkpt lat="59.876410961151123" lon="29.292726516723633">
        <time>2026-07-26T13:32:57Z</time>
      </trkpt>
      <trkpt lat="59.876410961151123" lon="29.292726516723633">
        <time>2026-07-26T13:32:59Z</time>
      </trkpt>
      <trkpt lat="59.876410961151123" lon="29.292726516723633">
        <time>2026-07-26T13:33:02Z</time>
      </trkpt>
      <trkpt lat="59.876410961151123" lon="29.292726516723633">
        <time>2026-07-26T13:33:04Z</time>
      </trkpt>
      <trkpt lat="59.876410961151123" lon="29.292726516723633">
        <time>2026-07-26T13:33:07Z</time>
      </trkpt>
      <trkpt lat="59.876410961151123" lon="29.292726516723633">
        <time>2026-07-26T13:33:09Z</time>
      </trkpt>
      <trkpt lat="59.876410961151123" lon="29.292726516723633">
        <time>2026-07-26T13:33:12Z</time>
      </trkpt>
      <trkpt lat="59.876410961151123" lon="29.292726516723633">
        <time>2026-07-26T13:33:14Z</time>
      </trkpt>
      <trkpt lat="59.876410961151123" lon="29.292726516723633">
        <time>2026-07-26T13:33:17Z</time>
      </trkpt>
      <trkpt lat="59.876410961151123" lon="29.292726516723633">
        <time>2026-07-26T13:33:19Z</time>
      </trkpt>
      <trkpt lat="59.876410961151123" lon="29.292726516723633">
        <time>2026-07-26T13:33:22Z</time>
      </trkpt>
      <trkpt lat="59.876410961151123" lon="29.292726516723633">
        <time>2026-07-26T13:33:24Z</time>
      </trkpt>
      <trkpt lat="59.876410961151123" lon="29.292705059051514">
        <time>2026-07-26T13:33:27Z</time>
      </trkpt>
      <trkpt lat="59.876389503479004" lon="29.292705059051514">
        <time>2026-07-26T13:33:29Z</time>
      </trkpt>
      <trkpt lat="59.876389503479004" lon="29.292683601379395">
        <time>2026-07-26T13:33:32Z</time>
      </trkpt>
      <trkpt lat="59.876346588134766" lon="29.292619228363037">
        <time>2026-07-26T13:33:34Z</time>
      </trkpt>
      <trkpt lat="59.876325130462646" lon="29.292640686035156">
        <time>2026-07-26T13:33:37Z</time>
      </trkpt>
      <trkpt lat="59.876389503479004" lon="29.292726516723633">
        <time>2026-07-26T13:33:39Z</time>
      </trkpt>
      <trkpt lat="59.876432418823242" lon="29.292747974395752">
        <time>2026-07-26T13:33:42Z</time>
      </trkpt>
      <trkpt lat="59.876432418823242" lon="29.292747974395752">
        <time>2026-07-26T13:33:44Z</time>
      </trkpt>
      <trkpt lat="59.876410961151123" lon="29.292747974395752">
        <time>2026-07-26T13:33:47Z</time>
      </trkpt>
      <trkpt lat="59.876368045806885" lon="29.292683601379395">
        <time>2026-07-26T13:33:49Z</time>
      </trkpt>
      <trkpt lat="59.876325130462646" lon="29.292619228363037">
        <time>2026-07-26T13:33:52Z</time>
      </trkpt>
      <trkpt lat="59.876346588134766" lon="29.292640686035156">
        <time>2026-07-26T13:33:54Z</time>
      </trkpt>
      <trkpt lat="59.876368045806885" lon="29.292705059051514">
        <time>2026-07-26T13:33:57Z</time>
      </trkpt>
      <trkpt lat="59.876410961151123" lon="29.292747974395752">
        <time>2026-07-26T13:33:59Z</time>
      </trkpt>
      <trkpt lat="59.876432418823242" lon="29.292747974395752">
        <time>2026-07-26T13:34:02Z</time>
      </trkpt>
      <trkpt lat="59.876410961151123" lon="29.292726516723633">
        <time>2026-07-26T13:34:04Z</time>
      </trkpt>
      <trkpt lat="59.876368045806885" lon="29.292683601379395">
        <time>2026-07-26T13:34:07Z</time>
      </trkpt>
      <trkpt lat="59.876325130462646" lon="29.292597770690918">
        <time>2026-07-26T13:34:09Z</time>
      </trkpt>
      <trkpt lat="59.876325130462646" lon="29.292619228363037">
        <time>2026-07-26T13:34:12Z</time>
      </trkpt>
      <trkpt lat="59.876368045806885" lon="29.292705059051514">
        <time>2026-07-26T13:34:14Z</time>
      </trkpt>
      <trkpt lat="59.876346588134766" lon="29.292812347412109">
        <time>2026-07-26T13:34:17Z</time>
      </trkpt>
      <trkpt lat="59.876325130462646" lon="29.292876720428467">
        <time>2026-07-26T13:34:19Z</time>
      </trkpt>
      <trkpt lat="59.876325130462646" lon="29.292941093444824">
        <time>2026-07-26T13:34:22Z</time>
      </trkpt>
      <trkpt lat="59.876325130462646" lon="29.29304838180542">
        <time>2026-07-26T13:34:24Z</time>
      </trkpt>
      <trkpt lat="59.876346588134766" lon="29.293112754821777">
        <time>2026-07-26T13:34:27Z</time>
      </trkpt>
      <trkpt lat="59.876346588134766" lon="29.293134212493896">
        <time>2026-07-26T13:34:29Z</time>
      </trkpt>
      <trkpt lat="59.876368045806885" lon="29.293069839477539">
        <time>2026-07-26T13:34:32Z</time>
      </trkpt>
      <trkpt lat="59.876346588134766" lon="29.293026924133301">
        <time>2026-07-26T13:34:34Z</time>
      </trkpt>
      <trkpt lat="59.876346588134766" lon="29.293026924133301">
        <time>2026-07-26T13:34:37Z</time>
      </trkpt>
      <trkpt lat="59.876325130462646" lon="29.293091297149658">
        <time>2026-07-26T13:34:39Z</time>
      </trkpt>
      <trkpt lat="59.876346588134766" lon="29.293134212493896">
        <time>2026-07-26T13:34:42Z</time>
      </trkpt>
      <trkpt lat="59.876368045806885" lon="29.293177127838135">
        <time>2026-07-26T13:34:44Z</time>
      </trkpt>
      <trkpt lat="59.876368045806885" lon="29.293177127838135">
        <time>2026-07-26T13:34:47Z</time>
      </trkpt>
      <trkpt lat="59.876389503479004" lon="29.293155670166016">
        <time>2026-07-26T13:34:49Z</time>
      </trkpt>
      <trkpt lat="59.876410961151123" lon="29.293134212493896">
        <time>2026-07-26T13:34:52Z</time>
      </trkpt>
      <trkpt lat="59.876389503479004" lon="29.293177127838135">
        <time>2026-07-26T13:34:54Z</time>
      </trkpt>
      <trkpt lat="59.876389503479004" lon="29.293177127838135">
        <time>2026-07-26T13:34:57Z</time>
      </trkpt>
      <trkpt lat="59.876410961151123" lon="29.293241500854492">
        <time>2026-07-26T13:34:59Z</time>
      </trkpt>
      <trkpt lat="59.876432418823242" lon="29.293262958526611">
        <time>2026-07-26T13:35:02Z</time>
      </trkpt>
      <trkpt lat="59.876432418823242" lon="29.293262958526611">
        <time>2026-07-26T13:35:04Z</time>
      </trkpt>
      <trkpt lat="59.876432418823242" lon="29.293262958526611">
        <time>2026-07-26T13:35:07Z</time>
      </trkpt>
      <trkpt lat="59.876432418823242" lon="29.293262958526611">
        <time>2026-07-26T13:35:09Z</time>
      </trkpt>
      <trkpt lat="59.876432418823242" lon="29.293262958526611">
        <time>2026-07-26T13:35:12Z</time>
      </trkpt>
      <trkpt lat="59.876432418823242" lon="29.293262958526611">
        <time>2026-07-26T13:35:14Z</time>
      </trkpt>
      <trkpt lat="59.876432418823242" lon="29.293262958526611">
        <time>2026-07-26T13:35:17Z</time>
      </trkpt>
      <trkpt lat="59.876432418823242" lon="29.293262958526611">
        <time>2026-07-26T13:35:19Z</time>
      </trkpt>
      <trkpt lat="59.876432418823242" lon="29.293262958526611">
        <time>2026-07-26T13:35:22Z</time>
      </trkpt>
      <trkpt lat="59.876432418823242" lon="29.293262958526611">
        <time>2026-07-26T13:35:24Z</time>
      </trkpt>
      <trkpt lat="59.876432418823242" lon="29.29328441619873">
        <time>2026-07-26T13:35:27Z</time>
      </trkpt>
      <trkpt lat="59.876432418823242" lon="29.29328441619873">
        <time>2026-07-26T13:35:29Z</time>
      </trkpt>
      <trkpt lat="59.876432418823242" lon="29.29328441619873">
        <time>2026-07-26T13:35:32Z</time>
      </trkpt>
      <trkpt lat="59.876432418823242" lon="29.29328441619873">
        <time>2026-07-26T13:35:34Z</time>
      </trkpt>
      <trkpt lat="59.876432418823242" lon="29.29328441619873">
        <time>2026-07-26T13:35:37Z</time>
      </trkpt>
      <trkpt lat="59.876432418823242" lon="29.29328441619873">
        <time>2026-07-26T13:35:39Z</time>
      </trkpt>
      <trkpt lat="59.876432418823242" lon="29.29328441619873">
        <time>2026-07-26T13:35:42Z</time>
      </trkpt>
      <trkpt lat="59.876432418823242" lon="29.29328441619873">
        <time>2026-07-26T13:35:44Z</time>
      </trkpt>
      <trkpt lat="59.876432418823242" lon="29.29328441619873">
        <time>2026-07-26T13:35:47Z</time>
      </trkpt>
      <trkpt lat="59.876432418823242" lon="29.29328441619873">
        <time>2026-07-26T13:35:49Z</time>
      </trkpt>
      <trkpt lat="59.876410961151123" lon="29.293262958526611">
        <time>2026-07-26T13:35:52Z</time>
      </trkpt>
      <trkpt lat="59.876389503479004" lon="29.293241500854492">
        <time>2026-07-26T13:35:54Z</time>
      </trkpt>
      <trkpt lat="59.876410961151123" lon="29.293262958526611">
        <time>2026-07-26T13:35:57Z</time>
      </trkpt>
      <trkpt lat="59.876410961151123" lon="29.29328441619873">
        <time>2026-07-26T13:35:59Z</time>
      </trkpt>
      <trkpt lat="59.876410961151123" lon="29.29328441619873">
        <time>2026-07-26T13:36:02Z</time>
      </trkpt>
      <trkpt lat="59.876410961151123" lon="29.293241500854492">
        <time>2026-07-26T13:36:04Z</time>
      </trkpt>
      <trkpt lat="59.876410961151123" lon="29.293241500854492">
        <time>2026-07-26T13:36:07Z</time>
      </trkpt>
      <trkpt lat="59.876410961151123" lon="29.29328441619873">
        <time>2026-07-26T13:36:09Z</time>
      </trkpt>
      <trkpt lat="59.876410961151123" lon="29.29330587387085">
        <time>2026-07-26T13:36:12Z</time>
      </trkpt>
      <trkpt lat="59.876453876495361" lon="29.293370246887207">
        <time>2026-07-26T13:36:14Z</time>
      </trkpt>
      <trkpt lat="59.876453876495361" lon="29.293413162231445">
        <time>2026-07-26T13:36:17Z</time>
      </trkpt>
      <trkpt lat="59.876453876495361" lon="29.293477535247803">
        <time>2026-07-26T13:36:19Z</time>
      </trkpt>
      <trkpt lat="59.87647533416748" lon="29.293434619903564">
        <time>2026-07-26T13:36:22Z</time>
      </trkpt>
      <trkpt lat="59.87647533416748" lon="29.293391704559326">
        <time>2026-07-26T13:36:24Z</time>
      </trkpt>
      <trkpt lat="59.876453876495361" lon="29.293348789215088">
        <time>2026-07-26T13:36:27Z</time>
      </trkpt>
      <trkpt lat="59.876453876495361" lon="29.293348789215088">
        <time>2026-07-26T13:36:29Z</time>
      </trkpt>
      <trkpt lat="59.876453876495361" lon="29.293370246887207">
        <time>2026-07-26T13:36:32Z</time>
      </trkpt>
      <trkpt lat="59.87647533416748" lon="29.293434619903564">
        <time>2026-07-26T13:36:34Z</time>
      </trkpt>
      <trkpt lat="59.8764967918396" lon="29.293498992919922">
        <time>2026-07-26T13:36:37Z</time>
      </trkpt>
      <trkpt lat="59.876518249511719" lon="29.293498992919922">
        <time>2026-07-26T13:36:39Z</time>
      </trkpt>
      <trkpt lat="59.876539707183838" lon="29.293498992919922">
        <time>2026-07-26T13:36:42Z</time>
      </trkpt>
      <trkpt lat="59.876561164855957" lon="29.293498992919922">
        <time>2026-07-26T13:36:44Z</time>
      </trkpt>
      <trkpt lat="59.876582622528076" lon="29.293456077575684">
        <time>2026-07-26T13:36:47Z</time>
      </trkpt>
      <trkpt lat="59.876582622528076" lon="29.293434619903564">
        <time>2026-07-26T13:36:49Z</time>
      </trkpt>
      <trkpt lat="59.876582622528076" lon="29.293434619903564">
        <time>2026-07-26T13:36:52Z</time>
      </trkpt>
      <trkpt lat="59.876561164855957" lon="29.293391704559326">
        <time>2026-07-26T13:36:54Z</time>
      </trkpt>
      <trkpt lat="59.876539707183838" lon="29.293413162231445">
        <time>2026-07-26T13:36:57Z</time>
      </trkpt>
      <trkpt lat="59.876561164855957" lon="29.293413162231445">
        <time>2026-07-26T13:36:59Z</time>
      </trkpt>
      <trkpt lat="59.876582622528076" lon="29.293434619903564">
        <time>2026-07-26T13:37:02Z</time>
      </trkpt>
      <trkpt lat="59.876582622528076" lon="29.293520450592041">
        <time>2026-07-26T13:37:04Z</time>
      </trkpt>
      <trkpt lat="59.876561164855957" lon="29.293520450592041">
        <time>2026-07-26T13:37:07Z</time>
      </trkpt>
      <trkpt lat="59.876561164855957" lon="29.293520450592041">
        <time>2026-07-26T13:37:09Z</time>
      </trkpt>
      <trkpt lat="59.876561164855957" lon="29.29354190826416">
        <time>2026-07-26T13:37:12Z</time>
      </trkpt>
      <trkpt lat="59.876582622528076" lon="29.293520450592041">
        <time>2026-07-26T13:37:14Z</time>
      </trkpt>
      <trkpt lat="59.876582622528076" lon="29.293477535247803">
        <time>2026-07-26T13:37:17Z</time>
      </trkpt>
      <trkpt lat="59.876561164855957" lon="29.293456077575684">
        <time>2026-07-26T13:37:19Z</time>
      </trkpt>
      <trkpt lat="59.876561164855957" lon="29.293477535247803">
        <time>2026-07-26T13:37:22Z</time>
      </trkpt>
      <trkpt lat="59.876561164855957" lon="29.293498992919922">
        <time>2026-07-26T13:37:24Z</time>
      </trkpt>
      <trkpt lat="59.876561164855957" lon="29.29354190826416">
        <time>2026-07-26T13:37:27Z</time>
      </trkpt>
      <trkpt lat="59.876561164855957" lon="29.29354190826416">
        <time>2026-07-26T13:37:29Z</time>
      </trkpt>
      <trkpt lat="59.876539707183838" lon="29.293563365936279">
        <time>2026-07-26T13:37:32Z</time>
      </trkpt>
      <trkpt lat="59.876539707183838" lon="29.293649196624756">
        <time>2026-07-26T13:37:34Z</time>
      </trkpt>
      <trkpt lat="59.876539707183838" lon="29.293692111968994">
        <time>2026-07-26T13:37:37Z</time>
      </trkpt>
      <trkpt lat="59.876539707183838" lon="29.293713569641113">
        <time>2026-07-26T13:37:39Z</time>
      </trkpt>
      <trkpt lat="59.876539707183838" lon="29.293713569641113">
        <time>2026-07-26T13:37:42Z</time>
      </trkpt>
      <trkpt lat="59.876539707183838" lon="29.293713569641113">
        <time>2026-07-26T13:37:44Z</time>
      </trkpt>
      <trkpt lat="59.876518249511719" lon="29.293735027313232">
        <time>2026-07-26T13:37:47Z</time>
      </trkpt>
      <trkpt lat="59.876518249511719" lon="29.293777942657471">
        <time>2026-07-26T13:37:49Z</time>
      </trkpt>
      <trkpt lat="59.876518249511719" lon="29.29379940032959">
        <time>2026-07-26T13:37:52Z</time>
      </trkpt>
      <trkpt lat="59.876518249511719" lon="29.29379940032959">
        <time>2026-07-26T13:37:54Z</time>
      </trkpt>
      <trkpt lat="59.8764967918396" lon="29.293820858001709">
        <time>2026-07-26T13:37:57Z</time>
      </trkpt>
      <trkpt lat="59.8764967918396" lon="29.293820858001709">
        <time>2026-07-26T13:37:59Z</time>
      </trkpt>
      <trkpt lat="59.8764967918396" lon="29.293820858001709">
        <time>2026-07-26T13:38:02Z</time>
      </trkpt>
      <trkpt lat="59.8764967918396" lon="29.293756484985352">
        <time>2026-07-26T13:38:04Z</time>
      </trkpt>
      <trkpt lat="59.8764967918396" lon="29.293756484985352">
        <time>2026-07-26T13:38:07Z</time>
      </trkpt>
      <trkpt lat="59.8764967918396" lon="29.293756484985352">
        <time>2026-07-26T13:38:09Z</time>
      </trkpt>
      <trkpt lat="59.8764967918396" lon="29.293756484985352">
        <time>2026-07-26T13:38:12Z</time>
      </trkpt>
      <trkpt lat="59.8764967918396" lon="29.293756484985352">
        <time>2026-07-26T13:38:14Z</time>
      </trkpt>
      <trkpt lat="59.8764967918396" lon="29.293756484985352">
        <time>2026-07-26T13:38:17Z</time>
      </trkpt>
      <trkpt lat="59.876518249511719" lon="29.293756484985352">
        <time>2026-07-26T13:38:19Z</time>
      </trkpt>
      <trkpt lat="59.876518249511719" lon="29.293756484985352">
        <time>2026-07-26T13:38:22Z</time>
      </trkpt>
      <trkpt lat="59.876518249511719" lon="29.293756484985352">
        <time>2026-07-26T13:38:24Z</time>
      </trkpt>
      <trkpt lat="59.876518249511719" lon="29.293777942657471">
        <time>2026-07-26T13:38:27Z</time>
      </trkpt>
      <trkpt lat="59.876518249511719" lon="29.293777942657471">
        <time>2026-07-26T13:38:29Z</time>
      </trkpt>
      <trkpt lat="59.876518249511719" lon="29.293777942657471">
        <time>2026-07-26T13:38:32Z</time>
      </trkpt>
      <trkpt lat="59.876518249511719" lon="29.293777942657471">
        <time>2026-07-26T13:38:34Z</time>
      </trkpt>
      <trkpt lat="59.876518249511719" lon="29.293777942657471">
        <time>2026-07-26T13:38:37Z</time>
      </trkpt>
      <trkpt lat="59.876518249511719" lon="29.293777942657471">
        <time>2026-07-26T13:38:39Z</time>
      </trkpt>
      <trkpt lat="59.876518249511719" lon="29.293756484985352">
        <time>2026-07-26T13:38:42Z</time>
      </trkpt>
      <trkpt lat="59.876518249511719" lon="29.293670654296875">
        <time>2026-07-26T13:38:44Z</time>
      </trkpt>
      <trkpt lat="59.876518249511719" lon="29.293692111968994">
        <time>2026-07-26T13:38:47Z</time>
      </trkpt>
      <trkpt lat="59.876518249511719" lon="29.293713569641113">
        <time>2026-07-26T13:38:49Z</time>
      </trkpt>
      <trkpt lat="59.876518249511719" lon="29.293713569641113">
        <time>2026-07-26T13:38:52Z</time>
      </trkpt>
      <trkpt lat="59.876518249511719" lon="29.293713569641113">
        <time>2026-07-26T13:38:54Z</time>
      </trkpt>
      <trkpt lat="59.876518249511719" lon="29.293735027313232">
        <time>2026-07-26T13:38:57Z</time>
      </trkpt>
      <trkpt lat="59.876518249511719" lon="29.293735027313232">
        <time>2026-07-26T13:38:59Z</time>
      </trkpt>
      <trkpt lat="59.876518249511719" lon="29.293735027313232">
        <time>2026-07-26T13:39:02Z</time>
      </trkpt>
      <trkpt lat="59.876518249511719" lon="29.293735027313232">
        <time>2026-07-26T13:39:04Z</time>
      </trkpt>
      <trkpt lat="59.876518249511719" lon="29.293735027313232">
        <time>2026-07-26T13:39:07Z</time>
      </trkpt>
      <trkpt lat="59.876539707183838" lon="29.293606281280518">
        <time>2026-07-26T13:39:09Z</time>
      </trkpt>
      <trkpt lat="59.876518249511719" lon="29.29354190826416">
        <time>2026-07-26T13:39:12Z</time>
      </trkpt>
      <trkpt lat="59.876561164855957" lon="29.293606281280518">
        <time>2026-07-26T13:39:14Z</time>
      </trkpt>
      <trkpt lat="59.876539707183838" lon="29.293692111968994">
        <time>2026-07-26T13:39:17Z</time>
      </trkpt>
      <trkpt lat="59.876539707183838" lon="29.29379940032959">
        <time>2026-07-26T13:39:19Z</time>
      </trkpt>
      <trkpt lat="59.876539707183838" lon="29.29379940032959">
        <time>2026-07-26T13:39:22Z</time>
      </trkpt>
      <trkpt lat="59.876518249511719" lon="29.293863773345947">
        <time>2026-07-26T13:39:24Z</time>
      </trkpt>
      <trkpt lat="59.876518249511719" lon="29.293928146362305">
        <time>2026-07-26T13:39:27Z</time>
      </trkpt>
      <trkpt lat="59.8764967918396" lon="29.293971061706543">
        <time>2026-07-26T13:39:29Z</time>
      </trkpt>
      <trkpt lat="59.87647533416748" lon="29.293992519378662">
        <time>2026-07-26T13:39:32Z</time>
      </trkpt>
      <trkpt lat="59.87647533416748" lon="29.29405689239502">
        <time>2026-07-26T13:39:34Z</time>
      </trkpt>
      <trkpt lat="59.87647533416748" lon="29.29405689239502">
        <time>2026-07-26T13:39:37Z</time>
      </trkpt>
      <trkpt lat="59.87647533416748" lon="29.294013977050781">
        <time>2026-07-26T13:39:39Z</time>
      </trkpt>
      <trkpt lat="59.87647533416748" lon="29.2940354347229">
        <time>2026-07-26T13:39:42Z</time>
      </trkpt>
      <trkpt lat="59.8764967918396" lon="29.294013977050781">
        <time>2026-07-26T13:39:44Z</time>
      </trkpt>
      <trkpt lat="59.8764967918396" lon="29.293971061706543">
        <time>2026-07-26T13:39:47Z</time>
      </trkpt>
      <trkpt lat="59.876518249511719" lon="29.293906688690186">
        <time>2026-07-26T13:39:49Z</time>
      </trkpt>
      <trkpt lat="59.876518249511719" lon="29.293906688690186">
        <time>2026-07-26T13:39:52Z</time>
      </trkpt>
      <trkpt lat="59.8764967918396" lon="29.293949604034424">
        <time>2026-07-26T13:39:54Z</time>
      </trkpt>
      <trkpt lat="59.8764967918396" lon="29.293928146362305">
        <time>2026-07-26T13:39:57Z</time>
      </trkpt>
      <trkpt lat="59.8764967918396" lon="29.293885231018066">
        <time>2026-07-26T13:39:59Z</time>
      </trkpt>
      <trkpt lat="59.8764967918396" lon="29.293906688690186">
        <time>2026-07-26T13:40:02Z</time>
      </trkpt>
      <trkpt lat="59.87647533416748" lon="29.293971061706543">
        <time>2026-07-26T13:40:04Z</time>
      </trkpt>
      <trkpt lat="59.876453876495361" lon="29.294013977050781">
        <time>2026-07-26T13:40:07Z</time>
      </trkpt>
      <trkpt lat="59.87647533416748" lon="29.293992519378662">
        <time>2026-07-26T13:40:09Z</time>
      </trkpt>
      <trkpt lat="59.8764967918396" lon="29.294013977050781">
        <time>2026-07-26T13:40:12Z</time>
      </trkpt>
      <trkpt lat="59.876518249511719" lon="29.2940354347229">
        <time>2026-07-26T13:40:14Z</time>
      </trkpt>
      <trkpt lat="59.8764967918396" lon="29.29405689239502">
        <time>2026-07-26T13:40:17Z</time>
      </trkpt>
      <trkpt lat="59.8764967918396" lon="29.294078350067139">
        <time>2026-07-26T13:40:19Z</time>
      </trkpt>
      <trkpt lat="59.8764967918396" lon="29.294078350067139">
        <time>2026-07-26T13:40:22Z</time>
      </trkpt>
      <trkpt lat="59.876518249511719" lon="29.29405689239502">
        <time>2026-07-26T13:40:24Z</time>
      </trkpt>
      <trkpt lat="59.876518249511719" lon="29.294013977050781">
        <time>2026-07-26T13:40:27Z</time>
      </trkpt>
      <trkpt lat="59.876539707183838" lon="29.294013977050781">
        <time>2026-07-26T13:40:29Z</time>
      </trkpt>
      <trkpt lat="59.876539707183838" lon="29.294013977050781">
        <time>2026-07-26T13:40:32Z</time>
      </trkpt>
      <trkpt lat="59.876561164855957" lon="29.294013977050781">
        <time>2026-07-26T13:40:34Z</time>
      </trkpt>
      <trkpt lat="59.876561164855957" lon="29.293971061706543">
        <time>2026-07-26T13:40:37Z</time>
      </trkpt>
      <trkpt lat="59.876604080200195" lon="29.293928146362305">
        <time>2026-07-26T13:40:39Z</time>
      </trkpt>
      <trkpt lat="59.876625537872314" lon="29.293928146362305">
        <time>2026-07-26T13:40:42Z</time>
      </trkpt>
      <trkpt lat="59.876625537872314" lon="29.293971061706543">
        <time>2026-07-26T13:40:44Z</time>
      </trkpt>
      <trkpt lat="59.876604080200195" lon="29.294013977050781">
        <time>2026-07-26T13:40:47Z</time>
      </trkpt>
      <trkpt lat="59.876582622528076" lon="29.294121265411377">
        <time>2026-07-26T13:40:49Z</time>
      </trkpt>
      <trkpt lat="59.876582622528076" lon="29.294121265411377">
        <time>2026-07-26T13:40:52Z</time>
      </trkpt>
      <trkpt lat="59.876604080200195" lon="29.294121265411377">
        <time>2026-07-26T13:40:54Z</time>
      </trkpt>
      <trkpt lat="59.876604080200195" lon="29.294078350067139">
        <time>2026-07-26T13:40:57Z</time>
      </trkpt>
      <trkpt lat="59.876625537872314" lon="29.2940354347229">
        <time>2026-07-26T13:40:59Z</time>
      </trkpt>
      <trkpt lat="59.876625537872314" lon="29.293992519378662">
        <time>2026-07-26T13:41:02Z</time>
      </trkpt>
      <trkpt lat="59.876625537872314" lon="29.293971061706543">
        <time>2026-07-26T13:41:04Z</time>
      </trkpt>
      <trkpt lat="59.876625537872314" lon="29.293971061706543">
        <time>2026-07-26T13:41:07Z</time>
      </trkpt>
      <trkpt lat="59.876625537872314" lon="29.2940354347229">
        <time>2026-07-26T13:41:09Z</time>
      </trkpt>
      <trkpt lat="59.876604080200195" lon="29.294078350067139">
        <time>2026-07-26T13:41:12Z</time>
      </trkpt>
      <trkpt lat="59.876561164855957" lon="29.294121265411377">
        <time>2026-07-26T13:41:14Z</time>
      </trkpt>
      <trkpt lat="59.876561164855957" lon="29.294142723083496">
        <time>2026-07-26T13:41:17Z</time>
      </trkpt>
      <trkpt lat="59.876539707183838" lon="29.294164180755615">
        <time>2026-07-26T13:41:19Z</time>
      </trkpt>
      <trkpt lat="59.876539707183838" lon="29.294164180755615">
        <time>2026-07-26T13:41:22Z</time>
      </trkpt>
      <trkpt lat="59.876561164855957" lon="29.294164180755615">
        <time>2026-07-26T13:41:24Z</time>
      </trkpt>
      <trkpt lat="59.876561164855957" lon="29.294207096099854">
        <time>2026-07-26T13:41:27Z</time>
      </trkpt>
      <trkpt lat="59.876582622528076" lon="29.294185638427734">
        <time>2026-07-26T13:41:29Z</time>
      </trkpt>
      <trkpt lat="59.876625537872314" lon="29.294185638427734">
        <time>2026-07-26T13:41:32Z</time>
      </trkpt>
      <trkpt lat="59.876625537872314" lon="29.294250011444092">
        <time>2026-07-26T13:41:34Z</time>
      </trkpt>
      <trkpt lat="59.876625537872314" lon="29.294250011444092">
        <time>2026-07-26T13:41:37Z</time>
      </trkpt>
      <trkpt lat="59.876646995544434" lon="29.294207096099854">
        <time>2026-07-26T13:41:39Z</time>
      </trkpt>
      <trkpt lat="59.876625537872314" lon="29.294164180755615">
        <time>2026-07-26T13:41:42Z</time>
      </trkpt>
      <trkpt lat="59.876625537872314" lon="29.294164180755615">
        <time>2026-07-26T13:41:44Z</time>
      </trkpt>
      <trkpt lat="59.876625537872314" lon="29.294185638427734">
        <time>2026-07-26T13:41:47Z</time>
      </trkpt>
      <trkpt lat="59.876646995544434" lon="29.294250011444092">
        <time>2026-07-26T13:41:49Z</time>
      </trkpt>
      <trkpt lat="59.876625537872314" lon="29.294250011444092">
        <time>2026-07-26T13:41:52Z</time>
      </trkpt>
      <trkpt lat="59.876646995544434" lon="29.294228553771973">
        <time>2026-07-26T13:41:54Z</time>
      </trkpt>
      <trkpt lat="59.876646995544434" lon="29.294207096099854">
        <time>2026-07-26T13:41:57Z</time>
      </trkpt>
      <trkpt lat="59.876668453216553" lon="29.294207096099854">
        <time>2026-07-26T13:41:59Z</time>
      </trkpt>
      <trkpt lat="59.876668453216553" lon="29.294271469116211">
        <time>2026-07-26T13:42:02Z</time>
      </trkpt>
      <trkpt lat="59.876646995544434" lon="29.29429292678833">
        <time>2026-07-26T13:42:04Z</time>
      </trkpt>
      <trkpt lat="59.876646995544434" lon="29.29429292678833">
        <time>2026-07-26T13:42:07Z</time>
      </trkpt>
      <trkpt lat="59.876646995544434" lon="29.294250011444092">
        <time>2026-07-26T13:42:09Z</time>
      </trkpt>
      <trkpt lat="59.876646995544434" lon="29.294185638427734">
        <time>2026-07-26T13:42:12Z</time>
      </trkpt>
      <trkpt lat="59.876625537872314" lon="29.294164180755615">
        <time>2026-07-26T13:42:14Z</time>
      </trkpt>
      <trkpt lat="59.876604080200195" lon="29.294185638427734">
        <time>2026-07-26T13:42:17Z</time>
      </trkpt>
      <trkpt lat="59.876604080200195" lon="29.294207096099854">
        <time>2026-07-26T13:42:19Z</time>
      </trkpt>
      <trkpt lat="59.876582622528076" lon="29.294207096099854">
        <time>2026-07-26T13:42:22Z</time>
      </trkpt>
      <trkpt lat="59.876582622528076" lon="29.294185638427734">
        <time>2026-07-26T13:42:24Z</time>
      </trkpt>
      <trkpt lat="59.876604080200195" lon="29.294164180755615">
        <time>2026-07-26T13:42:27Z</time>
      </trkpt>
      <trkpt lat="59.876604080200195" lon="29.294142723083496">
        <time>2026-07-26T13:42:29Z</time>
      </trkpt>
      <trkpt lat="59.876582622528076" lon="29.294121265411377">
        <time>2026-07-26T13:42:32Z</time>
      </trkpt>
      <trkpt lat="59.876582622528076" lon="29.294142723083496">
        <time>2026-07-26T13:42:34Z</time>
      </trkpt>
      <trkpt lat="59.876582622528076" lon="29.294164180755615">
        <time>2026-07-26T13:42:37Z</time>
      </trkpt>
      <trkpt lat="59.876582622528076" lon="29.294185638427734">
        <time>2026-07-26T13:42:39Z</time>
      </trkpt>
      <trkpt lat="59.876604080200195" lon="29.294207096099854">
        <time>2026-07-26T13:42:42Z</time>
      </trkpt>
      <trkpt lat="59.876604080200195" lon="29.294228553771973">
        <time>2026-07-26T13:42:44Z</time>
      </trkpt>
      <trkpt lat="59.876604080200195" lon="29.294250011444092">
        <time>2026-07-26T13:42:47Z</time>
      </trkpt>
      <trkpt lat="59.876604080200195" lon="29.294335842132568">
        <time>2026-07-26T13:42:49Z</time>
      </trkpt>
      <trkpt lat="59.876604080200195" lon="29.294400215148926">
        <time>2026-07-26T13:42:52Z</time>
      </trkpt>
      <trkpt lat="59.876604080200195" lon="29.294486045837402">
        <time>2026-07-26T13:42:54Z</time>
      </trkpt>
      <trkpt lat="59.876604080200195" lon="29.29455041885376">
        <time>2026-07-26T13:42:57Z</time>
      </trkpt>
      <trkpt lat="59.876604080200195" lon="29.294636249542236">
        <time>2026-07-26T13:42:59Z</time>
      </trkpt>
      <trkpt lat="59.876604080200195" lon="29.294657707214355">
        <time>2026-07-26T13:43:02Z</time>
      </trkpt>
      <trkpt lat="59.876604080200195" lon="29.294657707214355">
        <time>2026-07-26T13:43:04Z</time>
      </trkpt>
      <trkpt lat="59.876604080200195" lon="29.294636249542236">
        <time>2026-07-26T13:43:07Z</time>
      </trkpt>
      <trkpt lat="59.876604080200195" lon="29.294657707214355">
        <time>2026-07-26T13:43:09Z</time>
      </trkpt>
      <trkpt lat="59.876604080200195" lon="29.294700622558594">
        <time>2026-07-26T13:43:12Z</time>
      </trkpt>
      <trkpt lat="59.876604080200195" lon="29.294743537902832">
        <time>2026-07-26T13:43:14Z</time>
      </trkpt>
      <trkpt lat="59.876604080200195" lon="29.294764995574951">
        <time>2026-07-26T13:43:17Z</time>
      </trkpt>
      <trkpt lat="59.876604080200195" lon="29.294807910919189">
        <time>2026-07-26T13:43:19Z</time>
      </trkpt>
      <trkpt lat="59.876604080200195" lon="29.294829368591309">
        <time>2026-07-26T13:43:22Z</time>
      </trkpt>
      <trkpt lat="59.876604080200195" lon="29.294829368591309">
        <time>2026-07-26T13:43:24Z</time>
      </trkpt>
      <trkpt lat="59.876604080200195" lon="29.294829368591309">
        <time>2026-07-26T13:43:27Z</time>
      </trkpt>
      <trkpt lat="59.876604080200195" lon="29.294829368591309">
        <time>2026-07-26T13:43:29Z</time>
      </trkpt>
      <trkpt lat="59.876625537872314" lon="29.294850826263428">
        <time>2026-07-26T13:43:32Z</time>
      </trkpt>
      <trkpt lat="59.876625537872314" lon="29.294936656951904">
        <time>2026-07-26T13:43:34Z</time>
      </trkpt>
      <trkpt lat="59.876625537872314" lon="29.294979572296143">
        <time>2026-07-26T13:43:37Z</time>
      </trkpt>
      <trkpt lat="59.876625537872314" lon="29.2950439453125">
        <time>2026-07-26T13:43:39Z</time>
      </trkpt>
      <trkpt lat="59.876625537872314" lon="29.295086860656738">
        <time>2026-07-26T13:43:42Z</time>
      </trkpt>
      <trkpt lat="59.876625537872314" lon="29.295108318328857">
        <time>2026-07-26T13:43:44Z</time>
      </trkpt>
      <trkpt lat="59.876625537872314" lon="29.295108318328857">
        <time>2026-07-26T13:43:47Z</time>
      </trkpt>
      <trkpt lat="59.876625537872314" lon="29.295086860656738">
        <time>2026-07-26T13:43:49Z</time>
      </trkpt>
      <trkpt lat="59.876625537872314" lon="29.295108318328857">
        <time>2026-07-26T13:43:52Z</time>
      </trkpt>
      <trkpt lat="59.876625537872314" lon="29.295086860656738">
        <time>2026-07-26T13:43:54Z</time>
      </trkpt>
      <trkpt lat="59.876625537872314" lon="29.295086860656738">
        <time>2026-07-26T13:43:57Z</time>
      </trkpt>
      <trkpt lat="59.876625537872314" lon="29.295129776000977">
        <time>2026-07-26T13:43:59Z</time>
      </trkpt>
      <trkpt lat="59.876625537872314" lon="29.295172691345215">
        <time>2026-07-26T13:44:02Z</time>
      </trkpt>
      <trkpt lat="59.876646995544434" lon="29.295215606689453">
        <time>2026-07-26T13:44:04Z</time>
      </trkpt>
      <trkpt lat="59.876646995544434" lon="29.295215606689453">
        <time>2026-07-26T13:44:07Z</time>
      </trkpt>
      <trkpt lat="59.876646995544434" lon="29.295215606689453">
        <time>2026-07-26T13:44:09Z</time>
      </trkpt>
      <trkpt lat="59.876646995544434" lon="29.295215606689453">
        <time>2026-07-26T13:44:12Z</time>
      </trkpt>
      <trkpt lat="59.876646995544434" lon="29.295215606689453">
        <time>2026-07-26T13:44:14Z</time>
      </trkpt>
      <trkpt lat="59.876646995544434" lon="29.295237064361572">
        <time>2026-07-26T13:44:17Z</time>
      </trkpt>
      <trkpt lat="59.876646995544434" lon="29.295237064361572">
        <time>2026-07-26T13:44:19Z</time>
      </trkpt>
      <trkpt lat="59.876646995544434" lon="29.295258522033691">
        <time>2026-07-26T13:44:22Z</time>
      </trkpt>
      <trkpt lat="59.876668453216553" lon="29.295194149017334">
        <time>2026-07-26T13:44:24Z</time>
      </trkpt>
      <trkpt lat="59.876646995544434" lon="29.295086860656738">
        <time>2026-07-26T13:44:27Z</time>
      </trkpt>
      <trkpt lat="59.876646995544434" lon="29.2950439453125">
        <time>2026-07-26T13:44:29Z</time>
      </trkpt>
      <trkpt lat="59.876625537872314" lon="29.295129776000977">
        <time>2026-07-26T13:44:32Z</time>
      </trkpt>
      <trkpt lat="59.876625537872314" lon="29.295237064361572">
        <time>2026-07-26T13:44:34Z</time>
      </trkpt>
      <trkpt lat="59.876625537872314" lon="29.29530143737793">
        <time>2026-07-26T13:44:37Z</time>
      </trkpt>
      <trkpt lat="59.876625537872314" lon="29.295387268066406">
        <time>2026-07-26T13:44:39Z</time>
      </trkpt>
      <trkpt lat="59.876625537872314" lon="29.295451641082764">
        <time>2026-07-26T13:44:42Z</time>
      </trkpt>
      <trkpt lat="59.876625537872314" lon="29.295516014099121">
        <time>2026-07-26T13:44:44Z</time>
      </trkpt>
      <trkpt lat="59.876625537872314" lon="29.295580387115479">
        <time>2026-07-26T13:44:47Z</time>
      </trkpt>
      <trkpt lat="59.876604080200195" lon="29.295666217803955">
        <time>2026-07-26T13:44:49Z</time>
      </trkpt>
      <trkpt lat="59.876582622528076" lon="29.295687675476074">
        <time>2026-07-26T13:44:52Z</time>
      </trkpt>
      <trkpt lat="59.876582622528076" lon="29.295730590820313">
        <time>2026-07-26T13:44:54Z</time>
      </trkpt>
      <trkpt lat="59.876582622528076" lon="29.295752048492432">
        <time>2026-07-26T13:44:57Z</time>
      </trkpt>
      <trkpt lat="59.876604080200195" lon="29.295773506164551">
        <time>2026-07-26T13:44:59Z</time>
      </trkpt>
      <trkpt lat="59.876604080200195" lon="29.295730590820313">
        <time>2026-07-26T13:45:02Z</time>
      </trkpt>
      <trkpt lat="59.876582622528076" lon="29.295666217803955">
        <time>2026-07-26T13:45:04Z</time>
      </trkpt>
      <trkpt lat="59.876582622528076" lon="29.295666217803955">
        <time>2026-07-26T13:45:07Z</time>
      </trkpt>
      <trkpt lat="59.876582622528076" lon="29.295666217803955">
        <time>2026-07-26T13:45:09Z</time>
      </trkpt>
      <trkpt lat="59.876582622528076" lon="29.295644760131836">
        <time>2026-07-26T13:45:12Z</time>
      </trkpt>
      <trkpt lat="59.876604080200195" lon="29.295666217803955">
        <time>2026-07-26T13:45:14Z</time>
      </trkpt>
      <trkpt lat="59.876604080200195" lon="29.295687675476074">
        <time>2026-07-26T13:45:17Z</time>
      </trkpt>
      <trkpt lat="59.876625537872314" lon="29.295752048492432">
        <time>2026-07-26T13:45:19Z</time>
      </trkpt>
      <trkpt lat="59.876625537872314" lon="29.295816421508789">
        <time>2026-07-26T13:45:22Z</time>
      </trkpt>
      <trkpt lat="59.876625537872314" lon="29.295816421508789">
        <time>2026-07-26T13:45:24Z</time>
      </trkpt>
      <trkpt lat="59.876625537872314" lon="29.295816421508789">
        <time>2026-07-26T13:45:27Z</time>
      </trkpt>
      <trkpt lat="59.876668453216553" lon="29.295880794525146">
        <time>2026-07-26T13:45:29Z</time>
      </trkpt>
      <trkpt lat="59.876689910888672" lon="29.295902252197266">
        <time>2026-07-26T13:45:32Z</time>
      </trkpt>
      <trkpt lat="59.876711368560791" lon="29.295945167541504">
        <time>2026-07-26T13:45:34Z</time>
      </trkpt>
      <trkpt lat="59.876711368560791" lon="29.295923709869385">
        <time>2026-07-26T13:45:37Z</time>
      </trkpt>
      <trkpt lat="59.876689910888672" lon="29.295902252197266">
        <time>2026-07-26T13:45:39Z</time>
      </trkpt>
      <trkpt lat="59.876689910888672" lon="29.295859336853027">
        <time>2026-07-26T13:45:42Z</time>
      </trkpt>
      <trkpt lat="59.876689910888672" lon="29.295859336853027">
        <time>2026-07-26T13:45:44Z</time>
      </trkpt>
      <trkpt lat="59.876689910888672" lon="29.295902252197266">
        <time>2026-07-26T13:45:47Z</time>
      </trkpt>
      <trkpt lat="59.876754283905029" lon="29.295923709869385">
        <time>2026-07-26T13:45:49Z</time>
      </trkpt>
      <trkpt lat="59.876797199249268" lon="29.295902252197266">
        <time>2026-07-26T13:45:52Z</time>
      </trkpt>
      <trkpt lat="59.876797199249268" lon="29.295902252197266">
        <time>2026-07-26T13:45:54Z</time>
      </trkpt>
      <trkpt lat="59.876775741577148" lon="29.295923709869385">
        <time>2026-07-26T13:45:57Z</time>
      </trkpt>
      <trkpt lat="59.87673282623291" lon="29.295902252197266">
        <time>2026-07-26T13:45:59Z</time>
      </trkpt>
      <trkpt lat="59.87673282623291" lon="29.295880794525146">
        <time>2026-07-26T13:46:02Z</time>
      </trkpt>
      <trkpt lat="59.87673282623291" lon="29.295880794525146">
        <time>2026-07-26T13:46:04Z</time>
      </trkpt>
      <trkpt lat="59.87673282623291" lon="29.295880794525146">
        <time>2026-07-26T13:46:07Z</time>
      </trkpt>
      <trkpt lat="59.87673282623291" lon="29.295880794525146">
        <time>2026-07-26T13:46:09Z</time>
      </trkpt>
      <trkpt lat="59.87673282623291" lon="29.295880794525146">
        <time>2026-07-26T13:46:12Z</time>
      </trkpt>
      <trkpt lat="59.87673282623291" lon="29.295880794525146">
        <time>2026-07-26T13:46:14Z</time>
      </trkpt>
      <trkpt lat="59.87673282623291" lon="29.295880794525146">
        <time>2026-07-26T13:46:17Z</time>
      </trkpt>
      <trkpt lat="59.87673282623291" lon="29.295880794525146">
        <time>2026-07-26T13:46:19Z</time>
      </trkpt>
      <trkpt lat="59.876711368560791" lon="29.295859336853027">
        <time>2026-07-26T13:46:22Z</time>
      </trkpt>
      <trkpt lat="59.876711368560791" lon="29.295880794525146">
        <time>2026-07-26T13:46:24Z</time>
      </trkpt>
      <trkpt lat="59.87673282623291" lon="29.295902252197266">
        <time>2026-07-26T13:46:27Z</time>
      </trkpt>
      <trkpt lat="59.87673282623291" lon="29.295902252197266">
        <time>2026-07-26T13:46:29Z</time>
      </trkpt>
      <trkpt lat="59.876711368560791" lon="29.295880794525146">
        <time>2026-07-26T13:46:32Z</time>
      </trkpt>
      <trkpt lat="59.876711368560791" lon="29.295880794525146">
        <time>2026-07-26T13:46:34Z</time>
      </trkpt>
      <trkpt lat="59.876689910888672" lon="29.295923709869385">
        <time>2026-07-26T13:46:37Z</time>
      </trkpt>
      <trkpt lat="59.876689910888672" lon="29.295923709869385">
        <time>2026-07-26T13:46:39Z</time>
      </trkpt>
      <trkpt lat="59.876711368560791" lon="29.295923709869385">
        <time>2026-07-26T13:46:42Z</time>
      </trkpt>
      <trkpt lat="59.876711368560791" lon="29.295880794525146">
        <time>2026-07-26T13:46:44Z</time>
      </trkpt>
      <trkpt lat="59.876711368560791" lon="29.295859336853027">
        <time>2026-07-26T13:46:47Z</time>
      </trkpt>
      <trkpt lat="59.87673282623291" lon="29.295902252197266">
        <time>2026-07-26T13:46:49Z</time>
      </trkpt>
      <trkpt lat="59.876775741577148" lon="29.295902252197266">
        <time>2026-07-26T13:46:52Z</time>
      </trkpt>
      <trkpt lat="59.876797199249268" lon="29.295837879180908">
        <time>2026-07-26T13:46:54Z</time>
      </trkpt>
      <trkpt lat="59.876797199249268" lon="29.295859336853027">
        <time>2026-07-26T13:46:57Z</time>
      </trkpt>
      <trkpt lat="59.876754283905029" lon="29.295902252197266">
        <time>2026-07-26T13:46:59Z</time>
      </trkpt>
      <trkpt lat="59.876711368560791" lon="29.295880794525146">
        <time>2026-07-26T13:47:02Z</time>
      </trkpt>
      <trkpt lat="59.876668453216553" lon="29.295816421508789">
        <time>2026-07-26T13:47:04Z</time>
      </trkpt>
      <trkpt lat="59.876668453216553" lon="29.295773506164551">
        <time>2026-07-26T13:47:07Z</time>
      </trkpt>
      <trkpt lat="59.876668453216553" lon="29.295816421508789">
        <time>2026-07-26T13:47:09Z</time>
      </trkpt>
      <trkpt lat="59.876668453216553" lon="29.295859336853027">
        <time>2026-07-26T13:47:12Z</time>
      </trkpt>
      <trkpt lat="59.87673282623291" lon="29.295902252197266">
        <time>2026-07-26T13:47:14Z</time>
      </trkpt>
      <trkpt lat="59.876775741577148" lon="29.295880794525146">
        <time>2026-07-26T13:47:17Z</time>
      </trkpt>
      <trkpt lat="59.876840114593506" lon="29.29579496383667">
        <time>2026-07-26T13:47:19Z</time>
      </trkpt>
      <trkpt lat="59.876861572265625" lon="29.295752048492432">
        <time>2026-07-26T13:47:22Z</time>
      </trkpt>
      <trkpt lat="59.876818656921387" lon="29.295816421508789">
        <time>2026-07-26T13:47:24Z</time>
      </trkpt>
      <trkpt lat="59.876775741577148" lon="29.295880794525146">
        <time>2026-07-26T13:47:27Z</time>
      </trkpt>
      <trkpt lat="59.87673282623291" lon="29.295859336853027">
        <time>2026-07-26T13:47:29Z</time>
      </trkpt>
      <trkpt lat="59.876711368560791" lon="29.29579496383667">
        <time>2026-07-26T13:47:32Z</time>
      </trkpt>
      <trkpt lat="59.876689910888672" lon="29.295752048492432">
        <time>2026-07-26T13:47:34Z</time>
      </trkpt>
      <trkpt lat="59.876668453216553" lon="29.295730590820313">
        <time>2026-07-26T13:47:37Z</time>
      </trkpt>
      <trkpt lat="59.876689910888672" lon="29.295773506164551">
        <time>2026-07-26T13:47:39Z</time>
      </trkpt>
      <trkpt lat="59.876689910888672" lon="29.295816421508789">
        <time>2026-07-26T13:47:42Z</time>
      </trkpt>
      <trkpt lat="59.876754283905029" lon="29.295859336853027">
        <time>2026-07-26T13:47:44Z</time>
      </trkpt>
      <trkpt lat="59.876797199249268" lon="29.295837879180908">
        <time>2026-07-26T13:47:47Z</time>
      </trkpt>
      <trkpt lat="59.876818656921387" lon="29.295837879180908">
        <time>2026-07-26T13:47:49Z</time>
      </trkpt>
      <trkpt lat="59.876775741577148" lon="29.295859336853027">
        <time>2026-07-26T13:47:52Z</time>
      </trkpt>
      <trkpt lat="59.876711368560791" lon="29.295859336853027">
        <time>2026-07-26T13:47:54Z</time>
      </trkpt>
      <trkpt lat="59.876711368560791" lon="29.29579496383667">
        <time>2026-07-26T13:47:57Z</time>
      </trkpt>
      <trkpt lat="59.876689910888672" lon="29.295709133148193">
        <time>2026-07-26T13:47:59Z</time>
      </trkpt>
      <trkpt lat="59.876668453216553" lon="29.295730590820313">
        <time>2026-07-26T13:48:02Z</time>
      </trkpt>
      <trkpt lat="59.876689910888672" lon="29.29579496383667">
        <time>2026-07-26T13:48:04Z</time>
      </trkpt>
      <trkpt lat="59.876668453216553" lon="29.295859336853027">
        <time>2026-07-26T13:48:07Z</time>
      </trkpt>
      <trkpt lat="59.876668453216553" lon="29.295966625213623">
        <time>2026-07-26T13:48:09Z</time>
      </trkpt>
      <trkpt lat="59.876646995544434" lon="29.296009540557861">
        <time>2026-07-26T13:48:12Z</time>
      </trkpt>
      <trkpt lat="59.876625537872314" lon="29.296073913574219">
        <time>2026-07-26T13:48:14Z</time>
      </trkpt>
      <trkpt lat="59.876625537872314" lon="29.296095371246338">
        <time>2026-07-26T13:48:17Z</time>
      </trkpt>
      <trkpt lat="59.876625537872314" lon="29.296095371246338">
        <time>2026-07-26T13:48:19Z</time>
      </trkpt>
      <trkpt lat="59.876646995544434" lon="29.296116828918457">
        <time>2026-07-26T13:48:22Z</time>
      </trkpt>
      <trkpt lat="59.876689910888672" lon="29.29603099822998">
        <time>2026-07-26T13:48:24Z</time>
      </trkpt>
      <trkpt lat="59.876711368560791" lon="29.295966625213623">
        <time>2026-07-26T13:48:27Z</time>
      </trkpt>
      <trkpt lat="59.876689910888672" lon="29.296009540557861">
        <time>2026-07-26T13:48:29Z</time>
      </trkpt>
      <trkpt lat="59.876668453216553" lon="29.296073913574219">
        <time>2026-07-26T13:48:32Z</time>
      </trkpt>
      <trkpt lat="59.876625537872314" lon="29.296159744262695">
        <time>2026-07-26T13:48:34Z</time>
      </trkpt>
      <trkpt lat="59.876604080200195" lon="29.296224117279053">
        <time>2026-07-26T13:48:37Z</time>
      </trkpt>
      <trkpt lat="59.876582622528076" lon="29.296267032623291">
        <time>2026-07-26T13:48:39Z</time>
      </trkpt>
      <trkpt lat="59.876561164855957" lon="29.296267032623291">
        <time>2026-07-26T13:48:42Z</time>
      </trkpt>
      <trkpt lat="59.876518249511719" lon="29.29628849029541">
        <time>2026-07-26T13:48:44Z</time>
      </trkpt>
      <trkpt lat="59.87647533416748" lon="29.29628849029541">
        <time>2026-07-26T13:48:47Z</time>
      </trkpt>
      <trkpt lat="59.876432418823242" lon="29.29628849029541">
        <time>2026-07-26T13:48:49Z</time>
      </trkpt>
      <trkpt lat="59.876389503479004" lon="29.296331405639648">
        <time>2026-07-26T13:48:52Z</time>
      </trkpt>
      <trkpt lat="59.876368045806885" lon="29.296374320983887">
        <time>2026-07-26T13:48:54Z</time>
      </trkpt>
      <trkpt lat="59.876368045806885" lon="29.296395778656006">
        <time>2026-07-26T13:48:57Z</time>
      </trkpt>
      <trkpt lat="59.876368045806885" lon="29.296395778656006">
        <time>2026-07-26T13:48:59Z</time>
      </trkpt>
      <trkpt lat="59.876368045806885" lon="29.296395778656006">
        <time>2026-07-26T13:49:02Z</time>
      </trkpt>
      <trkpt lat="59.876368045806885" lon="29.296395778656006">
        <time>2026-07-26T13:49:04Z</time>
      </trkpt>
      <trkpt lat="59.876368045806885" lon="29.296395778656006">
        <time>2026-07-26T13:49:07Z</time>
      </trkpt>
      <trkpt lat="59.876368045806885" lon="29.296395778656006">
        <time>2026-07-26T13:49:09Z</time>
      </trkpt>
      <trkpt lat="59.876368045806885" lon="29.296395778656006">
        <time>2026-07-26T13:49:12Z</time>
      </trkpt>
      <trkpt lat="59.876368045806885" lon="29.296395778656006">
        <time>2026-07-26T13:49:14Z</time>
      </trkpt>
      <trkpt lat="59.876368045806885" lon="29.296395778656006">
        <time>2026-07-26T13:49:17Z</time>
      </trkpt>
      <trkpt lat="59.876368045806885" lon="29.296395778656006">
        <time>2026-07-26T13:49:19Z</time>
      </trkpt>
      <trkpt lat="59.876368045806885" lon="29.296395778656006">
        <time>2026-07-26T13:49:22Z</time>
      </trkpt>
      <trkpt lat="59.876368045806885" lon="29.296395778656006">
        <time>2026-07-26T13:49:24Z</time>
      </trkpt>
      <trkpt lat="59.876368045806885" lon="29.296395778656006">
        <time>2026-07-26T13:49:27Z</time>
      </trkpt>
      <trkpt lat="59.876368045806885" lon="29.296395778656006">
        <time>2026-07-26T13:49:29Z</time>
      </trkpt>
      <trkpt lat="59.876346588134766" lon="29.296438694000244">
        <time>2026-07-26T13:49:32Z</time>
      </trkpt>
      <trkpt lat="59.876346588134766" lon="29.296460151672363">
        <time>2026-07-26T13:49:34Z</time>
      </trkpt>
      <trkpt lat="59.876346588134766" lon="29.296460151672363">
        <time>2026-07-26T13:49:37Z</time>
      </trkpt>
      <trkpt lat="59.876346588134766" lon="29.296460151672363">
        <time>2026-07-26T13:49:39Z</time>
      </trkpt>
      <trkpt lat="59.876346588134766" lon="29.296460151672363">
        <time>2026-07-26T13:49:42Z</time>
      </trkpt>
      <trkpt lat="59.876346588134766" lon="29.296438694000244">
        <time>2026-07-26T13:49:44Z</time>
      </trkpt>
      <trkpt lat="59.876346588134766" lon="29.296460151672363">
        <time>2026-07-26T13:49:47Z</time>
      </trkpt>
      <trkpt lat="59.876368045806885" lon="29.296438694000244">
        <time>2026-07-26T13:49:49Z</time>
      </trkpt>
      <trkpt lat="59.876368045806885" lon="29.296395778656006">
        <time>2026-07-26T13:49:52Z</time>
      </trkpt>
      <trkpt lat="59.876368045806885" lon="29.296438694000244">
        <time>2026-07-26T13:49:54Z</time>
      </trkpt>
      <trkpt lat="59.876368045806885" lon="29.296481609344482">
        <time>2026-07-26T13:49:57Z</time>
      </trkpt>
      <trkpt lat="59.876346588134766" lon="29.296588897705078">
        <time>2026-07-26T13:49:59Z</time>
      </trkpt>
      <trkpt lat="59.876325130462646" lon="29.296696186065674">
        <time>2026-07-26T13:50:02Z</time>
      </trkpt>
      <trkpt lat="59.876325130462646" lon="29.296846389770508">
        <time>2026-07-26T13:50:04Z</time>
      </trkpt>
      <trkpt lat="59.876303672790527" lon="29.296867847442627">
        <time>2026-07-26T13:50:09Z</time>
      </trkpt>
      <trkpt lat="59.876325130462646" lon="29.29680347442627">
        <time>2026-07-26T13:50:12Z</time>
      </trkpt>
      <trkpt lat="59.876346588134766" lon="29.296674728393555">
        <time>2026-07-26T13:50:14Z</time>
      </trkpt>
      <trkpt lat="59.876346588134766" lon="29.296674728393555">
        <time>2026-07-26T13:50:17Z</time>
      </trkpt>
      <trkpt lat="59.876325130462646" lon="29.29678201675415">
        <time>2026-07-26T13:50:19Z</time>
      </trkpt>
      <trkpt lat="59.876325130462646" lon="29.296846389770508">
        <time>2026-07-26T13:50:22Z</time>
      </trkpt>
      <trkpt lat="59.876325130462646" lon="29.296846389770508">
        <time>2026-07-26T13:50:24Z</time>
      </trkpt>
      <trkpt lat="59.876325130462646" lon="29.296846389770508">
        <time>2026-07-26T13:50:27Z</time>
      </trkpt>
      <trkpt lat="59.876325130462646" lon="29.296846389770508">
        <time>2026-07-26T13:50:29Z</time>
      </trkpt>
      <trkpt lat="59.876325130462646" lon="29.296910762786865">
        <time>2026-07-26T13:50:32Z</time>
      </trkpt>
      <trkpt lat="59.876303672790527" lon="29.296910762786865">
        <time>2026-07-26T13:50:34Z</time>
      </trkpt>
      <trkpt lat="59.876303672790527" lon="29.296910762786865">
        <time>2026-07-26T13:50:37Z</time>
      </trkpt>
      <trkpt lat="59.876303672790527" lon="29.296932220458984">
        <time>2026-07-26T13:50:39Z</time>
      </trkpt>
      <trkpt lat="59.876303672790527" lon="29.296932220458984">
        <time>2026-07-26T13:50:42Z</time>
      </trkpt>
      <trkpt lat="59.876303672790527" lon="29.296975135803223">
        <time>2026-07-26T13:50:44Z</time>
      </trkpt>
      <trkpt lat="59.876303672790527" lon="29.29703950881958">
        <time>2026-07-26T13:50:47Z</time>
      </trkpt>
      <trkpt lat="59.876282215118408" lon="29.297103881835938">
        <time>2026-07-26T13:50:49Z</time>
      </trkpt>
      <trkpt lat="59.876282215118408" lon="29.297168254852295">
        <time>2026-07-26T13:50:52Z</time>
      </trkpt>
      <trkpt lat="59.876260757446289" lon="29.297232627868652">
        <time>2026-07-26T13:50:54Z</time>
      </trkpt>
      <trkpt lat="59.876260757446289" lon="29.297254085540771">
        <time>2026-07-26T13:50:57Z</time>
      </trkpt>
      <trkpt lat="59.876260757446289" lon="29.297254085540771">
        <time>2026-07-26T13:50:59Z</time>
      </trkpt>
      <trkpt lat="59.876260757446289" lon="29.297254085540771">
        <time>2026-07-26T13:51:02Z</time>
      </trkpt>
      <trkpt lat="59.876260757446289" lon="29.29729700088501">
        <time>2026-07-26T13:51:04Z</time>
      </trkpt>
      <trkpt lat="59.876260757446289" lon="29.297361373901367">
        <time>2026-07-26T13:51:07Z</time>
      </trkpt>
      <trkpt lat="59.876260757446289" lon="29.297404289245605">
        <time>2026-07-26T13:51:09Z</time>
      </trkpt>
      <trkpt lat="59.876260757446289" lon="29.297425746917725">
        <time>2026-07-26T13:51:12Z</time>
      </trkpt>
      <trkpt lat="59.876260757446289" lon="29.297447204589844">
        <time>2026-07-26T13:51:14Z</time>
      </trkpt>
      <trkpt lat="59.87623929977417" lon="29.297447204589844">
        <time>2026-07-26T13:51:17Z</time>
      </trkpt>
      <trkpt lat="59.87623929977417" lon="29.297468662261963">
        <time>2026-07-26T13:51:19Z</time>
      </trkpt>
      <trkpt lat="59.87623929977417" lon="29.297554492950439">
        <time>2026-07-26T13:51:24Z</time>
      </trkpt>
      <trkpt lat="59.87623929977417" lon="29.297683238983154">
        <time>2026-07-26T13:51:27Z</time>
      </trkpt>
      <trkpt lat="59.87623929977417" lon="29.297726154327393">
        <time>2026-07-26T13:51:29Z</time>
      </trkpt>
      <trkpt lat="59.87623929977417" lon="29.297769069671631">
        <time>2026-07-26T13:51:32Z</time>
      </trkpt>
      <trkpt lat="59.87623929977417" lon="29.29779052734375">
        <time>2026-07-26T13:51:34Z</time>
      </trkpt>
      <trkpt lat="59.87623929977417" lon="29.29779052734375">
        <time>2026-07-26T13:51:37Z</time>
      </trkpt>
      <trkpt lat="59.876260757446289" lon="29.297747611999512">
        <time>2026-07-26T13:51:39Z</time>
      </trkpt>
      <trkpt lat="59.87623929977417" lon="29.297618865966797">
        <time>2026-07-26T13:51:42Z</time>
      </trkpt>
      <trkpt lat="59.876260757446289" lon="29.297597408294678">
        <time>2026-07-26T13:51:44Z</time>
      </trkpt>
      <trkpt lat="59.876260757446289" lon="29.297661781311035">
        <time>2026-07-26T13:51:47Z</time>
      </trkpt>
      <trkpt lat="59.876260757446289" lon="29.297683238983154">
        <time>2026-07-26T13:51:49Z</time>
      </trkpt>
      <trkpt lat="59.876260757446289" lon="29.297554492950439">
        <time>2026-07-26T13:51:52Z</time>
      </trkpt>
      <trkpt lat="59.876260757446289" lon="29.297404289245605">
        <time>2026-07-26T13:51:54Z</time>
      </trkpt>
      <trkpt lat="59.876282215118408" lon="29.297425746917725">
        <time>2026-07-26T13:51:57Z</time>
      </trkpt>
      <trkpt lat="59.876260757446289" lon="29.297554492950439">
        <time>2026-07-26T13:51:59Z</time>
      </trkpt>
      <trkpt lat="59.876260757446289" lon="29.297661781311035">
        <time>2026-07-26T13:52:02Z</time>
      </trkpt>
      <trkpt lat="59.876260757446289" lon="29.297575950622559">
        <time>2026-07-26T13:52:04Z</time>
      </trkpt>
      <trkpt lat="59.876303672790527" lon="29.297318458557129">
        <time>2026-07-26T13:52:07Z</time>
      </trkpt>
      <trkpt lat="59.876303672790527" lon="29.29729700088501">
        <time>2026-07-26T13:52:09Z</time>
      </trkpt>
      <trkpt lat="59.876282215118408" lon="29.297575950622559">
        <time>2026-07-26T13:52:14Z</time>
      </trkpt>
      <trkpt lat="59.876282215118408" lon="29.297769069671631">
        <time>2026-07-26T13:52:17Z</time>
      </trkpt>
      <trkpt lat="59.876282215118408" lon="29.297876358032227">
        <time>2026-07-26T13:52:19Z</time>
      </trkpt>
      <trkpt lat="59.876303672790527" lon="29.297919273376465">
        <time>2026-07-26T13:52:22Z</time>
      </trkpt>
      <trkpt lat="59.876325130462646" lon="29.29779052734375">
        <time>2026-07-26T13:52:24Z</time>
      </trkpt>
      <trkpt lat="59.876325130462646" lon="29.297661781311035">
        <time>2026-07-26T13:52:27Z</time>
      </trkpt>
      <trkpt lat="59.876346588134766" lon="29.297575950622559">
        <time>2026-07-26T13:52:29Z</time>
      </trkpt>
      <trkpt lat="59.876346588134766" lon="29.297597408294678">
        <time>2026-07-26T13:52:32Z</time>
      </trkpt>
      <trkpt lat="59.876325130462646" lon="29.297811985015869">
        <time>2026-07-26T13:52:34Z</time>
      </trkpt>
      <trkpt lat="59.876325130462646" lon="29.297962188720703">
        <time>2026-07-26T13:52:37Z</time>
      </trkpt>
      <trkpt lat="59.876303672790527" lon="29.298133850097656">
        <time>2026-07-26T13:52:39Z</time>
      </trkpt>
      <trkpt lat="59.876282215118408" lon="29.298198223114014">
        <time>2026-07-26T13:52:42Z</time>
      </trkpt>
      <trkpt lat="59.876260757446289" lon="29.298219680786133">
        <time>2026-07-26T13:52:44Z</time>
      </trkpt>
      <trkpt lat="59.876260757446289" lon="29.298219680786133">
        <time>2026-07-26T13:52:47Z</time>
      </trkpt>
      <trkpt lat="59.876260757446289" lon="29.298219680786133">
        <time>2026-07-26T13:52:49Z</time>
      </trkpt>
      <trkpt lat="59.876260757446289" lon="29.298241138458252">
        <time>2026-07-26T13:52:52Z</time>
      </trkpt>
      <trkpt lat="59.87623929977417" lon="29.298326969146729">
        <time>2026-07-26T13:52:54Z</time>
      </trkpt>
      <trkpt lat="59.876196384429932" lon="29.298348426818848">
        <time>2026-07-26T13:52:57Z</time>
      </trkpt>
      <trkpt lat="59.876174926757812" lon="29.298369884490967">
        <time>2026-07-26T13:52:59Z</time>
      </trkpt>
      <trkpt lat="59.876174926757812" lon="29.298369884490967">
        <time>2026-07-26T13:53:02Z</time>
      </trkpt>
      <trkpt lat="59.876174926757812" lon="29.298391342163086">
        <time>2026-07-26T13:53:04Z</time>
      </trkpt>
      <trkpt lat="59.876153469085693" lon="29.298391342163086">
        <time>2026-07-26T13:53:07Z</time>
      </trkpt>
      <trkpt lat="59.876153469085693" lon="29.298412799835205">
        <time>2026-07-26T13:53:09Z</time>
      </trkpt>
      <trkpt lat="59.876153469085693" lon="29.298455715179443">
        <time>2026-07-26T13:53:12Z</time>
      </trkpt>
      <trkpt lat="59.876174926757812" lon="29.298520088195801">
        <time>2026-07-26T13:53:14Z</time>
      </trkpt>
      <trkpt lat="59.876174926757812" lon="29.29854154586792">
        <time>2026-07-26T13:53:17Z</time>
      </trkpt>
      <trkpt lat="59.876196384429932" lon="29.298584461212158">
        <time>2026-07-26T13:53:19Z</time>
      </trkpt>
      <trkpt lat="59.876196384429932" lon="29.298584461212158">
        <time>2026-07-26T13:53:22Z</time>
      </trkpt>
      <trkpt lat="59.876196384429932" lon="29.298584461212158">
        <time>2026-07-26T13:53:24Z</time>
      </trkpt>
      <trkpt lat="59.876196384429932" lon="29.298584461212158">
        <time>2026-07-26T13:53:27Z</time>
      </trkpt>
      <trkpt lat="59.876196384429932" lon="29.298584461212158">
        <time>2026-07-26T13:53:29Z</time>
      </trkpt>
      <trkpt lat="59.876196384429932" lon="29.298584461212158">
        <time>2026-07-26T13:53:32Z</time>
      </trkpt>
      <trkpt lat="59.876196384429932" lon="29.298584461212158">
        <time>2026-07-26T13:53:34Z</time>
      </trkpt>
      <trkpt lat="59.876196384429932" lon="29.298584461212158">
        <time>2026-07-26T13:53:37Z</time>
      </trkpt>
      <trkpt lat="59.876196384429932" lon="29.298584461212158">
        <time>2026-07-26T13:53:39Z</time>
      </trkpt>
      <trkpt lat="59.876196384429932" lon="29.298584461212158">
        <time>2026-07-26T13:53:42Z</time>
      </trkpt>
      <trkpt lat="59.876196384429932" lon="29.298584461212158">
        <time>2026-07-26T13:53:44Z</time>
      </trkpt>
      <trkpt lat="59.876196384429932" lon="29.298584461212158">
        <time>2026-07-26T13:53:47Z</time>
      </trkpt>
      <trkpt lat="59.876217842102051" lon="29.298670291900635">
        <time>2026-07-26T13:53:49Z</time>
      </trkpt>
      <trkpt lat="59.876217842102051" lon="29.298691749572754">
        <time>2026-07-26T13:53:52Z</time>
      </trkpt>
      <trkpt lat="59.876217842102051" lon="29.298691749572754">
        <time>2026-07-26T13:53:54Z</time>
      </trkpt>
      <trkpt lat="59.87623929977417" lon="29.298691749572754">
        <time>2026-07-26T13:53:57Z</time>
      </trkpt>
      <trkpt lat="59.87623929977417" lon="29.298563003540039">
        <time>2026-07-26T13:53:59Z</time>
      </trkpt>
      <trkpt lat="59.876217842102051" lon="29.298584461212158">
        <time>2026-07-26T13:54:02Z</time>
      </trkpt>
      <trkpt lat="59.876217842102051" lon="29.298627376556396">
        <time>2026-07-26T13:54:04Z</time>
      </trkpt>
      <trkpt lat="59.876217842102051" lon="29.298627376556396">
        <time>2026-07-26T13:54:07Z</time>
      </trkpt>
      <trkpt lat="59.876260757446289" lon="29.298477172851563">
        <time>2026-07-26T13:54:12Z</time>
      </trkpt>
      <trkpt lat="59.87623929977417" lon="29.298563003540039">
        <time>2026-07-26T13:54:14Z</time>
      </trkpt>
      <trkpt lat="59.87623929977417" lon="29.298670291900635">
        <time>2026-07-26T13:54:17Z</time>
      </trkpt>
      <trkpt lat="59.876217842102051" lon="29.298820495605469">
        <time>2026-07-26T13:54:19Z</time>
      </trkpt>
      <trkpt lat="59.876196384429932" lon="29.298863410949707">
        <time>2026-07-26T13:54:22Z</time>
      </trkpt>
      <trkpt lat="59.876196384429932" lon="29.298884868621826">
        <time>2026-07-26T13:54:24Z</time>
      </trkpt>
      <trkpt lat="59.876196384429932" lon="29.298906326293945">
        <time>2026-07-26T13:54:27Z</time>
      </trkpt>
      <trkpt lat="59.876217842102051" lon="29.298884868621826">
        <time>2026-07-26T13:54:29Z</time>
      </trkpt>
      <trkpt lat="59.876217842102051" lon="29.298927783966064">
        <time>2026-07-26T13:54:32Z</time>
      </trkpt>
      <trkpt lat="59.876217842102051" lon="29.298841953277588">
        <time>2026-07-26T13:54:34Z</time>
      </trkpt>
      <trkpt lat="59.87623929977417" lon="29.298691749572754">
        <time>2026-07-26T13:54:37Z</time>
      </trkpt>
      <trkpt lat="59.876260757446289" lon="29.298584461212158">
        <time>2026-07-26T13:54:39Z</time>
      </trkpt>
      <trkpt lat="59.876260757446289" lon="29.298584461212158">
        <time>2026-07-26T13:54:42Z</time>
      </trkpt>
      <trkpt lat="59.876260757446289" lon="29.298563003540039">
        <time>2026-07-26T13:54:44Z</time>
      </trkpt>
      <trkpt lat="59.876282215118408" lon="29.298563003540039">
        <time>2026-07-26T13:54:47Z</time>
      </trkpt>
      <trkpt lat="59.876282215118408" lon="29.298563003540039">
        <time>2026-07-26T13:54:49Z</time>
      </trkpt>
      <trkpt lat="59.876303672790527" lon="29.298584461212158">
        <time>2026-07-26T13:54:52Z</time>
      </trkpt>
      <trkpt lat="59.876368045806885" lon="29.298584461212158">
        <time>2026-07-26T13:54:54Z</time>
      </trkpt>
      <trkpt lat="59.876410961151123" lon="29.298563003540039">
        <time>2026-07-26T13:54:57Z</time>
      </trkpt>
      <trkpt lat="59.876432418823242" lon="29.298563003540039">
        <time>2026-07-26T13:54:59Z</time>
      </trkpt>
      <trkpt lat="59.876453876495361" lon="29.29854154586792">
        <time>2026-07-26T13:55:02Z</time>
      </trkpt>
      <trkpt lat="59.8764967918396" lon="29.298477172851563">
        <time>2026-07-26T13:55:04Z</time>
      </trkpt>
      <trkpt lat="59.8764967918396" lon="29.298477172851563">
        <time>2026-07-26T13:55:07Z</time>
      </trkpt>
      <trkpt lat="59.8764967918396" lon="29.298498630523682">
        <time>2026-07-26T13:55:09Z</time>
      </trkpt>
      <trkpt lat="59.876453876495361" lon="29.298498630523682">
        <time>2026-07-26T13:55:12Z</time>
      </trkpt>
      <trkpt lat="59.876410961151123" lon="29.29854154586792">
        <time>2026-07-26T13:55:14Z</time>
      </trkpt>
      <trkpt lat="59.876368045806885" lon="29.29854154586792">
        <time>2026-07-26T13:55:17Z</time>
      </trkpt>
      <trkpt lat="59.876325130462646" lon="29.298477172851563">
        <time>2026-07-26T13:55:19Z</time>
      </trkpt>
      <trkpt lat="59.876325130462646" lon="29.298434257507324">
        <time>2026-07-26T13:55:22Z</time>
      </trkpt>
      <trkpt lat="59.876260757446289" lon="29.29854154586792">
        <time>2026-07-26T13:55:24Z</time>
      </trkpt>
      <trkpt lat="59.876282215118408" lon="29.29854154586792">
        <time>2026-07-26T13:55:27Z</time>
      </trkpt>
      <trkpt lat="59.876368045806885" lon="29.29854154586792">
        <time>2026-07-26T13:55:29Z</time>
      </trkpt>
      <trkpt lat="59.876389503479004" lon="29.29854154586792">
        <time>2026-07-26T13:55:32Z</time>
      </trkpt>
      <trkpt lat="59.876453876495361" lon="29.29854154586792">
        <time>2026-07-26T13:55:34Z</time>
      </trkpt>
      <trkpt lat="59.876518249511719" lon="29.298563003540039">
        <time>2026-07-26T13:55:37Z</time>
      </trkpt>
      <trkpt lat="59.876604080200195" lon="29.298648834228516">
        <time>2026-07-26T13:55:39Z</time>
      </trkpt>
      <trkpt lat="59.876625537872314" lon="29.298691749572754">
        <time>2026-07-26T13:55:42Z</time>
      </trkpt>
      <trkpt lat="59.876689910888672" lon="29.298648834228516">
        <time>2026-07-26T13:55:44Z</time>
      </trkpt>
      <trkpt lat="59.87673282623291" lon="29.298648834228516">
        <time>2026-07-26T13:55:47Z</time>
      </trkpt>
      <trkpt lat="59.876754283905029" lon="29.298691749572754">
        <time>2026-07-26T13:55:49Z</time>
      </trkpt>
      <trkpt lat="59.876754283905029" lon="29.298691749572754">
        <time>2026-07-26T13:55:52Z</time>
      </trkpt>
      <trkpt lat="59.876775741577148" lon="29.298713207244873">
        <time>2026-07-26T13:55:54Z</time>
      </trkpt>
      <trkpt lat="59.876797199249268" lon="29.298734664916992">
        <time>2026-07-26T13:55:57Z</time>
      </trkpt>
      <trkpt lat="59.876818656921387" lon="29.29877758026123">
        <time>2026-07-26T13:55:59Z</time>
      </trkpt>
      <trkpt lat="59.876840114593506" lon="29.298820495605469">
        <time>2026-07-26T13:56:02Z</time>
      </trkpt>
      <trkpt lat="59.876861572265625" lon="29.298863410949707">
        <time>2026-07-26T13:56:04Z</time>
      </trkpt>
      <trkpt lat="59.876883029937744" lon="29.298906326293945">
        <time>2026-07-26T13:56:07Z</time>
      </trkpt>
      <trkpt lat="59.876904487609863" lon="29.298884868621826">
        <time>2026-07-26T13:56:09Z</time>
      </trkpt>
      <trkpt lat="59.876904487609863" lon="29.298884868621826">
        <time>2026-07-26T13:56:12Z</time>
      </trkpt>
      <trkpt lat="59.876904487609863" lon="29.298884868621826">
        <time>2026-07-26T13:56:14Z</time>
      </trkpt>
      <trkpt lat="59.876925945281982" lon="29.298927783966064">
        <time>2026-07-26T13:56:17Z</time>
      </trkpt>
      <trkpt lat="59.876968860626221" lon="29.298927783966064">
        <time>2026-07-26T13:56:19Z</time>
      </trkpt>
      <trkpt lat="59.877011775970459" lon="29.298927783966064">
        <time>2026-07-26T13:56:22Z</time>
      </trkpt>
      <trkpt lat="59.877033233642578" lon="29.298949241638184">
        <time>2026-07-26T13:56:24Z</time>
      </trkpt>
      <trkpt lat="59.877033233642578" lon="29.298949241638184">
        <time>2026-07-26T13:56:27Z</time>
      </trkpt>
      <trkpt lat="59.877033233642578" lon="29.298949241638184">
        <time>2026-07-26T13:56:29Z</time>
      </trkpt>
      <trkpt lat="59.877033233642578" lon="29.298949241638184">
        <time>2026-07-26T13:56:32Z</time>
      </trkpt>
      <trkpt lat="59.877033233642578" lon="29.298949241638184">
        <time>2026-07-26T13:56:34Z</time>
      </trkpt>
      <trkpt lat="59.877033233642578" lon="29.298949241638184">
        <time>2026-07-26T13:56:37Z</time>
      </trkpt>
      <trkpt lat="59.877097606658936" lon="29.298970699310303">
        <time>2026-07-26T13:56:39Z</time>
      </trkpt>
      <trkpt lat="59.877119064331055" lon="29.298970699310303">
        <time>2026-07-26T13:56:42Z</time>
      </trkpt>
      <trkpt lat="59.877140522003174" lon="29.298970699310303">
        <time>2026-07-26T13:56:44Z</time>
      </trkpt>
      <trkpt lat="59.877140522003174" lon="29.298970699310303">
        <time>2026-07-26T13:56:47Z</time>
      </trkpt>
      <trkpt lat="59.877161979675293" lon="29.298992156982422">
        <time>2026-07-26T13:56:49Z</time>
      </trkpt>
      <trkpt lat="59.877183437347412" lon="29.298992156982422">
        <time>2026-07-26T13:56:52Z</time>
      </trkpt>
      <trkpt lat="59.877204895019531" lon="29.298992156982422">
        <time>2026-07-26T13:56:54Z</time>
      </trkpt>
      <trkpt lat="59.877204895019531" lon="29.298970699310303">
        <time>2026-07-26T13:56:57Z</time>
      </trkpt>
      <trkpt lat="59.87722635269165" lon="29.298970699310303">
        <time>2026-07-26T13:56:59Z</time>
      </trkpt>
      <trkpt lat="59.87722635269165" lon="29.298970699310303">
        <time>2026-07-26T13:57:02Z</time>
      </trkpt>
      <trkpt lat="59.87724781036377" lon="29.298970699310303">
        <time>2026-07-26T13:57:04Z</time>
      </trkpt>
      <trkpt lat="59.877269268035889" lon="29.298949241638184">
        <time>2026-07-26T13:57:07Z</time>
      </trkpt>
      <trkpt lat="59.877290725708008" lon="29.298906326293945">
        <time>2026-07-26T13:57:09Z</time>
      </trkpt>
      <trkpt lat="59.877269268035889" lon="29.298906326293945">
        <time>2026-07-26T13:57:12Z</time>
      </trkpt>
      <trkpt lat="59.87722635269165" lon="29.298927783966064">
        <time>2026-07-26T13:57:14Z</time>
      </trkpt>
      <trkpt lat="59.877204895019531" lon="29.298906326293945">
        <time>2026-07-26T13:57:17Z</time>
      </trkpt>
      <trkpt lat="59.877204895019531" lon="29.298906326293945">
        <time>2026-07-26T13:57:19Z</time>
      </trkpt>
      <trkpt lat="59.877204895019531" lon="29.298906326293945">
        <time>2026-07-26T13:57:22Z</time>
      </trkpt>
      <trkpt lat="59.877204895019531" lon="29.298906326293945">
        <time>2026-07-26T13:57:24Z</time>
      </trkpt>
      <trkpt lat="59.877204895019531" lon="29.298906326293945">
        <time>2026-07-26T13:57:27Z</time>
      </trkpt>
      <trkpt lat="59.877204895019531" lon="29.298906326293945">
        <time>2026-07-26T13:57:29Z</time>
      </trkpt>
      <trkpt lat="59.877204895019531" lon="29.298906326293945">
        <time>2026-07-26T13:57:32Z</time>
      </trkpt>
      <trkpt lat="59.877204895019531" lon="29.298906326293945">
        <time>2026-07-26T13:57:34Z</time>
      </trkpt>
      <trkpt lat="59.877204895019531" lon="29.298906326293945">
        <time>2026-07-26T13:57:37Z</time>
      </trkpt>
      <trkpt lat="59.877204895019531" lon="29.298884868621826">
        <time>2026-07-26T13:57:39Z</time>
      </trkpt>
      <trkpt lat="59.877183437347412" lon="29.298884868621826">
        <time>2026-07-26T13:57:42Z</time>
      </trkpt>
      <trkpt lat="59.877204895019531" lon="29.298927783966064">
        <time>2026-07-26T13:57:44Z</time>
      </trkpt>
      <trkpt lat="59.877204895019531" lon="29.298949241638184">
        <time>2026-07-26T13:57:47Z</time>
      </trkpt>
      <trkpt lat="59.877204895019531" lon="29.298927783966064">
        <time>2026-07-26T13:57:49Z</time>
      </trkpt>
      <trkpt lat="59.877183437347412" lon="29.298927783966064">
        <time>2026-07-26T13:57:52Z</time>
      </trkpt>
      <trkpt lat="59.877183437347412" lon="29.298927783966064">
        <time>2026-07-26T13:57:54Z</time>
      </trkpt>
      <trkpt lat="59.877183437347412" lon="29.298927783966064">
        <time>2026-07-26T13:57:57Z</time>
      </trkpt>
      <trkpt lat="59.877183437347412" lon="29.298927783966064">
        <time>2026-07-26T13:57:59Z</time>
      </trkpt>
      <trkpt lat="59.877183437347412" lon="29.298927783966064">
        <time>2026-07-26T13:58:02Z</time>
      </trkpt>
      <trkpt lat="59.877183437347412" lon="29.298927783966064">
        <time>2026-07-26T13:58:04Z</time>
      </trkpt>
      <trkpt lat="59.877183437347412" lon="29.298927783966064">
        <time>2026-07-26T13:58:07Z</time>
      </trkpt>
      <trkpt lat="59.877183437347412" lon="29.298927783966064">
        <time>2026-07-26T13:58:09Z</time>
      </trkpt>
      <trkpt lat="59.877183437347412" lon="29.298927783966064">
        <time>2026-07-26T13:58:12Z</time>
      </trkpt>
      <trkpt lat="59.877183437347412" lon="29.298927783966064">
        <time>2026-07-26T13:58:14Z</time>
      </trkpt>
      <trkpt lat="59.877183437347412" lon="29.298949241638184">
        <time>2026-07-26T13:58:17Z</time>
      </trkpt>
      <trkpt lat="59.877183437347412" lon="29.298927783966064">
        <time>2026-07-26T13:58:19Z</time>
      </trkpt>
      <trkpt lat="59.877183437347412" lon="29.298927783966064">
        <time>2026-07-26T13:58:22Z</time>
      </trkpt>
      <trkpt lat="59.877183437347412" lon="29.298949241638184">
        <time>2026-07-26T13:58:24Z</time>
      </trkpt>
      <trkpt lat="59.877183437347412" lon="29.298906326293945">
        <time>2026-07-26T13:58:27Z</time>
      </trkpt>
      <trkpt lat="59.877161979675293" lon="29.298841953277588">
        <time>2026-07-26T13:58:29Z</time>
      </trkpt>
      <trkpt lat="59.877183437347412" lon="29.298841953277588">
        <time>2026-07-26T13:58:32Z</time>
      </trkpt>
      <trkpt lat="59.877183437347412" lon="29.298906326293945">
        <time>2026-07-26T13:58:34Z</time>
      </trkpt>
      <trkpt lat="59.877183437347412" lon="29.298906326293945">
        <time>2026-07-26T13:58:37Z</time>
      </trkpt>
      <trkpt lat="59.87722635269165" lon="29.298927783966064">
        <time>2026-07-26T13:58:39Z</time>
      </trkpt>
      <trkpt lat="59.87724781036377" lon="29.298906326293945">
        <time>2026-07-26T13:58:42Z</time>
      </trkpt>
      <trkpt lat="59.877290725708008" lon="29.298906326293945">
        <time>2026-07-26T13:58:44Z</time>
      </trkpt>
      <trkpt lat="59.877333641052246" lon="29.298906326293945">
        <time>2026-07-26T13:58:47Z</time>
      </trkpt>
      <trkpt lat="59.877355098724365" lon="29.298884868621826">
        <time>2026-07-26T13:58:49Z</time>
      </trkpt>
      <trkpt lat="59.877398014068604" lon="29.298841953277588">
        <time>2026-07-26T13:58:52Z</time>
      </trkpt>
      <trkpt lat="59.877398014068604" lon="29.29879903793335">
        <time>2026-07-26T13:58:54Z</time>
      </trkpt>
      <trkpt lat="59.877419471740723" lon="29.29879903793335">
        <time>2026-07-26T13:58:57Z</time>
      </trkpt>
      <trkpt lat="59.877419471740723" lon="29.29879903793335">
        <time>2026-07-26T13:58:59Z</time>
      </trkpt>
      <trkpt lat="59.877419471740723" lon="29.29879903793335">
        <time>2026-07-26T13:59:02Z</time>
      </trkpt>
      <trkpt lat="59.877419471740723" lon="29.29879903793335">
        <time>2026-07-26T13:59:04Z</time>
      </trkpt>
      <trkpt lat="59.877419471740723" lon="29.29879903793335">
        <time>2026-07-26T13:59:07Z</time>
      </trkpt>
      <trkpt lat="59.877419471740723" lon="29.29879903793335">
        <time>2026-07-26T13:59:09Z</time>
      </trkpt>
      <trkpt lat="59.877419471740723" lon="29.298841953277588">
        <time>2026-07-26T13:59:12Z</time>
      </trkpt>
      <trkpt lat="59.877440929412842" lon="29.298906326293945">
        <time>2026-07-26T13:59:14Z</time>
      </trkpt>
      <trkpt lat="59.877462387084961" lon="29.298906326293945">
        <time>2026-07-26T13:59:17Z</time>
      </trkpt>
      <trkpt lat="59.877462387084961" lon="29.298949241638184">
        <time>2026-07-26T13:59:19Z</time>
      </trkpt>
      <trkpt lat="59.87748384475708" lon="29.299013614654541">
        <time>2026-07-26T13:59:22Z</time>
      </trkpt>
      <trkpt lat="59.877462387084961" lon="29.299056529998779">
        <time>2026-07-26T13:59:24Z</time>
      </trkpt>
      <trkpt lat="59.877462387084961" lon="29.299077987670898">
        <time>2026-07-26T13:59:27Z</time>
      </trkpt>
      <trkpt lat="59.877462387084961" lon="29.299056529998779">
        <time>2026-07-26T13:59:29Z</time>
      </trkpt>
      <trkpt lat="59.877440929412842" lon="29.299056529998779">
        <time>2026-07-26T13:59:32Z</time>
      </trkpt>
      <trkpt lat="59.877376556396484" lon="29.299056529998779">
        <time>2026-07-26T13:59:34Z</time>
      </trkpt>
      <trkpt lat="59.877355098724365" lon="29.299056529998779">
        <time>2026-07-26T13:59:37Z</time>
      </trkpt>
      <trkpt lat="59.877312183380127" lon="29.299013614654541">
        <time>2026-07-26T13:59:39Z</time>
      </trkpt>
      <trkpt lat="59.877290725708008" lon="29.298970699310303">
        <time>2026-07-26T13:59:42Z</time>
      </trkpt>
      <trkpt lat="59.877290725708008" lon="29.298970699310303">
        <time>2026-07-26T13:59:44Z</time>
      </trkpt>
      <trkpt lat="59.877290725708008" lon="29.299013614654541">
        <time>2026-07-26T13:59:47Z</time>
      </trkpt>
      <trkpt lat="59.877355098724365" lon="29.299056529998779">
        <time>2026-07-26T13:59:49Z</time>
      </trkpt>
      <trkpt lat="59.877398014068604" lon="29.299099445343018">
        <time>2026-07-26T13:59:52Z</time>
      </trkpt>
      <trkpt lat="59.877440929412842" lon="29.299142360687256">
        <time>2026-07-26T13:59:54Z</time>
      </trkpt>
      <trkpt lat="59.877462387084961" lon="29.299120903015137">
        <time>2026-07-26T13:59:57Z</time>
      </trkpt>
      <trkpt lat="59.87748384475708" lon="29.299077987670898">
        <time>2026-07-26T13:59:59Z</time>
      </trkpt>
      <trkpt lat="59.87748384475708" lon="29.299013614654541">
        <time>2026-07-26T14:00:02Z</time>
      </trkpt>
      <trkpt lat="59.877505302429199" lon="29.299056529998779">
        <time>2026-07-26T14:00:04Z</time>
      </trkpt>
      <trkpt lat="59.877505302429199" lon="29.299099445343018">
        <time>2026-07-26T14:00:07Z</time>
      </trkpt>
      <trkpt lat="59.87748384475708" lon="29.299142360687256">
        <time>2026-07-26T14:00:09Z</time>
      </trkpt>
      <trkpt lat="59.877462387084961" lon="29.299077987670898">
        <time>2026-07-26T14:00:12Z</time>
      </trkpt>
      <trkpt lat="59.877462387084961" lon="29.299013614654541">
        <time>2026-07-26T14:00:14Z</time>
      </trkpt>
      <trkpt lat="59.87748384475708" lon="29.298949241638184">
        <time>2026-07-26T14:00:17Z</time>
      </trkpt>
      <trkpt lat="59.87748384475708" lon="29.298906326293945">
        <time>2026-07-26T14:00:19Z</time>
      </trkpt>
      <trkpt lat="59.877462387084961" lon="29.298906326293945">
        <time>2026-07-26T14:00:22Z</time>
      </trkpt>
      <trkpt lat="59.877462387084961" lon="29.298884868621826">
        <time>2026-07-26T14:00:24Z</time>
      </trkpt>
      <trkpt lat="59.87748384475708" lon="29.298841953277588">
        <time>2026-07-26T14:00:27Z</time>
      </trkpt>
      <trkpt lat="59.87748384475708" lon="29.29877758026123">
        <time>2026-07-26T14:00:29Z</time>
      </trkpt>
      <trkpt lat="59.877505302429199" lon="29.29877758026123">
        <time>2026-07-26T14:00:32Z</time>
      </trkpt>
      <trkpt lat="59.877526760101318" lon="29.29879903793335">
        <time>2026-07-26T14:00:34Z</time>
      </trkpt>
      <trkpt lat="59.877548217773438" lon="29.298841953277588">
        <time>2026-07-26T14:00:37Z</time>
      </trkpt>
      <trkpt lat="59.877569675445557" lon="29.298884868621826">
        <time>2026-07-26T14:00:39Z</time>
      </trkpt>
      <trkpt lat="59.877591133117676" lon="29.298884868621826">
        <time>2026-07-26T14:00:42Z</time>
      </trkpt>
      <trkpt lat="59.877591133117676" lon="29.298906326293945">
        <time>2026-07-26T14:00:44Z</time>
      </trkpt>
      <trkpt lat="59.877569675445557" lon="29.298927783966064">
        <time>2026-07-26T14:00:47Z</time>
      </trkpt>
      <trkpt lat="59.877548217773438" lon="29.298863410949707">
        <time>2026-07-26T14:00:49Z</time>
      </trkpt>
      <trkpt lat="59.877526760101318" lon="29.298841953277588">
        <time>2026-07-26T14:00:52Z</time>
      </trkpt>
      <trkpt lat="59.877548217773438" lon="29.298820495605469">
        <time>2026-07-26T14:00:54Z</time>
      </trkpt>
      <trkpt lat="59.877548217773438" lon="29.29877758026123">
        <time>2026-07-26T14:00:57Z</time>
      </trkpt>
      <trkpt lat="59.877548217773438" lon="29.29877758026123">
        <time>2026-07-26T14:00:59Z</time>
      </trkpt>
      <trkpt lat="59.877526760101318" lon="29.29879903793335">
        <time>2026-07-26T14:01:02Z</time>
      </trkpt>
      <trkpt lat="59.877548217773438" lon="29.298863410949707">
        <time>2026-07-26T14:01:04Z</time>
      </trkpt>
      <trkpt lat="59.877569675445557" lon="29.298927783966064">
        <time>2026-07-26T14:01:07Z</time>
      </trkpt>
      <trkpt lat="59.877634048461914" lon="29.298992156982422">
        <time>2026-07-26T14:01:09Z</time>
      </trkpt>
      <trkpt lat="59.877655506134033" lon="29.29903507232666">
        <time>2026-07-26T14:01:12Z</time>
      </trkpt>
      <trkpt lat="59.877655506134033" lon="29.299077987670898">
        <time>2026-07-26T14:01:14Z</time>
      </trkpt>
      <trkpt lat="59.877655506134033" lon="29.299056529998779">
        <time>2026-07-26T14:01:17Z</time>
      </trkpt>
      <trkpt lat="59.877634048461914" lon="29.299013614654541">
        <time>2026-07-26T14:01:19Z</time>
      </trkpt>
      <trkpt lat="59.877612590789795" lon="29.298970699310303">
        <time>2026-07-26T14:01:22Z</time>
      </trkpt>
      <trkpt lat="59.877612590789795" lon="29.298927783966064">
        <time>2026-07-26T14:01:24Z</time>
      </trkpt>
      <trkpt lat="59.877612590789795" lon="29.298906326293945">
        <time>2026-07-26T14:01:27Z</time>
      </trkpt>
      <trkpt lat="59.877634048461914" lon="29.298841953277588">
        <time>2026-07-26T14:01:29Z</time>
      </trkpt>
      <trkpt lat="59.877634048461914" lon="29.298820495605469">
        <time>2026-07-26T14:01:32Z</time>
      </trkpt>
      <trkpt lat="59.877655506134033" lon="29.29879903793335">
        <time>2026-07-26T14:01:34Z</time>
      </trkpt>
      <trkpt lat="59.877676963806152" lon="29.29879903793335">
        <time>2026-07-26T14:01:37Z</time>
      </trkpt>
      <trkpt lat="59.87774133682251" lon="29.298820495605469">
        <time>2026-07-26T14:01:39Z</time>
      </trkpt>
      <trkpt lat="59.877784252166748" lon="29.29879903793335">
        <time>2026-07-26T14:01:42Z</time>
      </trkpt>
      <trkpt lat="59.877827167510986" lon="29.298820495605469">
        <time>2026-07-26T14:01:44Z</time>
      </trkpt>
      <trkpt lat="59.877891540527344" lon="29.298820495605469">
        <time>2026-07-26T14:01:47Z</time>
      </trkpt>
      <trkpt lat="59.877955913543701" lon="29.298841953277588">
        <time>2026-07-26T14:01:49Z</time>
      </trkpt>
      <trkpt lat="59.877955913543701" lon="29.298820495605469">
        <time>2026-07-26T14:01:52Z</time>
      </trkpt>
      <trkpt lat="59.87797737121582" lon="29.298841953277588">
        <time>2026-07-26T14:01:54Z</time>
      </trkpt>
      <trkpt lat="59.878020286560059" lon="29.298820495605469">
        <time>2026-07-26T14:01:57Z</time>
      </trkpt>
      <trkpt lat="59.878063201904297" lon="29.29879903793335">
        <time>2026-07-26T14:01:59Z</time>
      </trkpt>
      <trkpt lat="59.878063201904297" lon="29.29879903793335">
        <time>2026-07-26T14:02:02Z</time>
      </trkpt>
      <trkpt lat="59.878127574920654" lon="29.298820495605469">
        <time>2026-07-26T14:02:04Z</time>
      </trkpt>
      <trkpt lat="59.878149032592773" lon="29.298820495605469">
        <time>2026-07-26T14:02:07Z</time>
      </trkpt>
      <trkpt lat="59.878191947937012" lon="29.29879903793335">
        <time>2026-07-26T14:02:09Z</time>
      </trkpt>
      <trkpt lat="59.878191947937012" lon="29.29879903793335">
        <time>2026-07-26T14:02:12Z</time>
      </trkpt>
      <trkpt lat="59.878149032592773" lon="29.298820495605469">
        <time>2026-07-26T14:02:14Z</time>
      </trkpt>
      <trkpt lat="59.878127574920654" lon="29.29877758026123">
        <time>2026-07-26T14:02:17Z</time>
      </trkpt>
      <trkpt lat="59.878127574920654" lon="29.298734664916992">
        <time>2026-07-26T14:02:19Z</time>
      </trkpt>
      <trkpt lat="59.878127574920654" lon="29.298756122589111">
        <time>2026-07-26T14:02:22Z</time>
      </trkpt>
      <trkpt lat="59.878170490264893" lon="29.29879903793335">
        <time>2026-07-26T14:02:24Z</time>
      </trkpt>
      <trkpt lat="59.878213405609131" lon="29.29879903793335">
        <time>2026-07-26T14:02:27Z</time>
      </trkpt>
      <trkpt lat="59.87823486328125" lon="29.298841953277588">
        <time>2026-07-26T14:02:29Z</time>
      </trkpt>
      <trkpt lat="59.878277778625488" lon="29.298884868621826">
        <time>2026-07-26T14:02:32Z</time>
      </trkpt>
      <trkpt lat="59.878299236297607" lon="29.298906326293945">
        <time>2026-07-26T14:02:34Z</time>
      </trkpt>
      <trkpt lat="59.878299236297607" lon="29.298906326293945">
        <time>2026-07-26T14:02:37Z</time>
      </trkpt>
      <trkpt lat="59.878299236297607" lon="29.298906326293945">
        <time>2026-07-26T14:02:39Z</time>
      </trkpt>
      <trkpt lat="59.878299236297607" lon="29.298906326293945">
        <time>2026-07-26T14:02:42Z</time>
      </trkpt>
      <trkpt lat="59.878299236297607" lon="29.298906326293945">
        <time>2026-07-26T14:02:44Z</time>
      </trkpt>
      <trkpt lat="59.878299236297607" lon="29.298906326293945">
        <time>2026-07-26T14:02:47Z</time>
      </trkpt>
      <trkpt lat="59.878320693969727" lon="29.298927783966064">
        <time>2026-07-26T14:02:49Z</time>
      </trkpt>
      <trkpt lat="59.878320693969727" lon="29.298927783966064">
        <time>2026-07-26T14:02:52Z</time>
      </trkpt>
      <trkpt lat="59.878320693969727" lon="29.298927783966064">
        <time>2026-07-26T14:02:54Z</time>
      </trkpt>
      <trkpt lat="59.878320693969727" lon="29.298927783966064">
        <time>2026-07-26T14:02:57Z</time>
      </trkpt>
      <trkpt lat="59.878320693969727" lon="29.298884868621826">
        <time>2026-07-26T14:02:59Z</time>
      </trkpt>
      <trkpt lat="59.878320693969727" lon="29.298884868621826">
        <time>2026-07-26T14:03:02Z</time>
      </trkpt>
      <trkpt lat="59.878342151641846" lon="29.298863410949707">
        <time>2026-07-26T14:03:04Z</time>
      </trkpt>
      <trkpt lat="59.878342151641846" lon="29.298841953277588">
        <time>2026-07-26T14:03:07Z</time>
      </trkpt>
      <trkpt lat="59.878342151641846" lon="29.298863410949707">
        <time>2026-07-26T14:03:09Z</time>
      </trkpt>
      <trkpt lat="59.878320693969727" lon="29.298863410949707">
        <time>2026-07-26T14:03:12Z</time>
      </trkpt>
      <trkpt lat="59.878299236297607" lon="29.298884868621826">
        <time>2026-07-26T14:03:14Z</time>
      </trkpt>
      <trkpt lat="59.878299236297607" lon="29.298884868621826">
        <time>2026-07-26T14:03:17Z</time>
      </trkpt>
      <trkpt lat="59.878277778625488" lon="29.298863410949707">
        <time>2026-07-26T14:03:19Z</time>
      </trkpt>
      <trkpt lat="59.87823486328125" lon="29.298841953277588">
        <time>2026-07-26T14:03:22Z</time>
      </trkpt>
      <trkpt lat="59.878213405609131" lon="29.29879903793335">
        <time>2026-07-26T14:03:24Z</time>
      </trkpt>
      <trkpt lat="59.878256320953369" lon="29.298863410949707">
        <time>2026-07-26T14:03:27Z</time>
      </trkpt>
      <trkpt lat="59.878320693969727" lon="29.298906326293945">
        <time>2026-07-26T14:03:29Z</time>
      </trkpt>
      <trkpt lat="59.878320693969727" lon="29.298906326293945">
        <time>2026-07-26T14:03:32Z</time>
      </trkpt>
      <trkpt lat="59.878320693969727" lon="29.298906326293945">
        <time>2026-07-26T14:03:34Z</time>
      </trkpt>
      <trkpt lat="59.878342151641846" lon="29.298906326293945">
        <time>2026-07-26T14:03:37Z</time>
      </trkpt>
      <trkpt lat="59.878363609313965" lon="29.298884868621826">
        <time>2026-07-26T14:03:39Z</time>
      </trkpt>
      <trkpt lat="59.878385066986084" lon="29.298884868621826">
        <time>2026-07-26T14:03:42Z</time>
      </trkpt>
      <trkpt lat="59.878406524658203" lon="29.298884868621826">
        <time>2026-07-26T14:03:44Z</time>
      </trkpt>
      <trkpt lat="59.878427982330322" lon="29.298906326293945">
        <time>2026-07-26T14:03:47Z</time>
      </trkpt>
      <trkpt lat="59.878449440002441" lon="29.298884868621826">
        <time>2026-07-26T14:03:49Z</time>
      </trkpt>
      <trkpt lat="59.878449440002441" lon="29.298906326293945">
        <time>2026-07-26T14:03:52Z</time>
      </trkpt>
      <trkpt lat="59.878406524658203" lon="29.298884868621826">
        <time>2026-07-26T14:03:54Z</time>
      </trkpt>
      <trkpt lat="59.878406524658203" lon="29.298863410949707">
        <time>2026-07-26T14:03:57Z</time>
      </trkpt>
      <trkpt lat="59.878406524658203" lon="29.298841953277588">
        <time>2026-07-26T14:03:59Z</time>
      </trkpt>
      <trkpt lat="59.878406524658203" lon="29.298841953277588">
        <time>2026-07-26T14:04:02Z</time>
      </trkpt>
      <trkpt lat="59.878406524658203" lon="29.298820495605469">
        <time>2026-07-26T14:04:04Z</time>
      </trkpt>
      <trkpt lat="59.878406524658203" lon="29.298820495605469">
        <time>2026-07-26T14:04:07Z</time>
      </trkpt>
      <trkpt lat="59.878406524658203" lon="29.298820495605469">
        <time>2026-07-26T14:04:09Z</time>
      </trkpt>
      <trkpt lat="59.878406524658203" lon="29.298820495605469">
        <time>2026-07-26T14:04:12Z</time>
      </trkpt>
      <trkpt lat="59.878406524658203" lon="29.298820495605469">
        <time>2026-07-26T14:04:14Z</time>
      </trkpt>
      <trkpt lat="59.878406524658203" lon="29.298820495605469">
        <time>2026-07-26T14:04:17Z</time>
      </trkpt>
      <trkpt lat="59.878406524658203" lon="29.298820495605469">
        <time>2026-07-26T14:04:19Z</time>
      </trkpt>
      <trkpt lat="59.878406524658203" lon="29.298820495605469">
        <time>2026-07-26T14:04:22Z</time>
      </trkpt>
      <trkpt lat="59.878406524658203" lon="29.298841953277588">
        <time>2026-07-26T14:04:24Z</time>
      </trkpt>
      <trkpt lat="59.878406524658203" lon="29.298884868621826">
        <time>2026-07-26T14:04:27Z</time>
      </trkpt>
      <trkpt lat="59.878385066986084" lon="29.298927783966064">
        <time>2026-07-26T14:04:29Z</time>
      </trkpt>
      <trkpt lat="59.878385066986084" lon="29.298949241638184">
        <time>2026-07-26T14:04:32Z</time>
      </trkpt>
      <trkpt lat="59.878385066986084" lon="29.298970699310303">
        <time>2026-07-26T14:04:34Z</time>
      </trkpt>
      <trkpt lat="59.878385066986084" lon="29.298970699310303">
        <time>2026-07-26T14:04:37Z</time>
      </trkpt>
      <trkpt lat="59.878406524658203" lon="29.29903507232666">
        <time>2026-07-26T14:04:39Z</time>
      </trkpt>
      <trkpt lat="59.878406524658203" lon="29.29903507232666">
        <time>2026-07-26T14:04:42Z</time>
      </trkpt>
      <trkpt lat="59.878406524658203" lon="29.29903507232666">
        <time>2026-07-26T14:04:44Z</time>
      </trkpt>
      <trkpt lat="59.878406524658203" lon="29.298992156982422">
        <time>2026-07-26T14:04:47Z</time>
      </trkpt>
      <trkpt lat="59.878385066986084" lon="29.298970699310303">
        <time>2026-07-26T14:04:49Z</time>
      </trkpt>
      <trkpt lat="59.878385066986084" lon="29.298992156982422">
        <time>2026-07-26T14:04:52Z</time>
      </trkpt>
      <trkpt lat="59.878406524658203" lon="29.29903507232666">
        <time>2026-07-26T14:04:54Z</time>
      </trkpt>
      <trkpt lat="59.878406524658203" lon="29.299077987670898">
        <time>2026-07-26T14:04:57Z</time>
      </trkpt>
      <trkpt lat="59.878406524658203" lon="29.299077987670898">
        <time>2026-07-26T14:04:59Z</time>
      </trkpt>
      <trkpt lat="59.878406524658203" lon="29.299077987670898">
        <time>2026-07-26T14:05:02Z</time>
      </trkpt>
      <trkpt lat="59.878406524658203" lon="29.299077987670898">
        <time>2026-07-26T14:05:04Z</time>
      </trkpt>
      <trkpt lat="59.878406524658203" lon="29.299077987670898">
        <time>2026-07-26T14:05:07Z</time>
      </trkpt>
      <trkpt lat="59.878406524658203" lon="29.299077987670898">
        <time>2026-07-26T14:05:09Z</time>
      </trkpt>
      <trkpt lat="59.878406524658203" lon="29.299077987670898">
        <time>2026-07-26T14:05:12Z</time>
      </trkpt>
      <trkpt lat="59.878406524658203" lon="29.299077987670898">
        <time>2026-07-26T14:05:14Z</time>
      </trkpt>
      <trkpt lat="59.878406524658203" lon="29.299077987670898">
        <time>2026-07-26T14:05:17Z</time>
      </trkpt>
      <trkpt lat="59.878406524658203" lon="29.299077987670898">
        <time>2026-07-26T14:05:19Z</time>
      </trkpt>
      <trkpt lat="59.878406524658203" lon="29.299077987670898">
        <time>2026-07-26T14:05:22Z</time>
      </trkpt>
      <trkpt lat="59.878406524658203" lon="29.299077987670898">
        <time>2026-07-26T14:05:24Z</time>
      </trkpt>
      <trkpt lat="59.878406524658203" lon="29.299077987670898">
        <time>2026-07-26T14:05:27Z</time>
      </trkpt>
      <trkpt lat="59.878406524658203" lon="29.299077987670898">
        <time>2026-07-26T14:05:29Z</time>
      </trkpt>
      <trkpt lat="59.878406524658203" lon="29.299077987670898">
        <time>2026-07-26T14:05:32Z</time>
      </trkpt>
      <trkpt lat="59.878406524658203" lon="29.299077987670898">
        <time>2026-07-26T14:05:34Z</time>
      </trkpt>
      <trkpt lat="59.878406524658203" lon="29.299077987670898">
        <time>2026-07-26T14:05:37Z</time>
      </trkpt>
      <trkpt lat="59.878406524658203" lon="29.299077987670898">
        <time>2026-07-26T14:05:39Z</time>
      </trkpt>
      <trkpt lat="59.878406524658203" lon="29.299077987670898">
        <time>2026-07-26T14:05:42Z</time>
      </trkpt>
      <trkpt lat="59.878406524658203" lon="29.299077987670898">
        <time>2026-07-26T14:05:44Z</time>
      </trkpt>
      <trkpt lat="59.878406524658203" lon="29.299077987670898">
        <time>2026-07-26T14:05:47Z</time>
      </trkpt>
      <trkpt lat="59.878406524658203" lon="29.299077987670898">
        <time>2026-07-26T14:05:49Z</time>
      </trkpt>
      <trkpt lat="59.878406524658203" lon="29.299077987670898">
        <time>2026-07-26T14:05:52Z</time>
      </trkpt>
      <trkpt lat="59.878427982330322" lon="29.299056529998779">
        <time>2026-07-26T14:05:54Z</time>
      </trkpt>
      <trkpt lat="59.878449440002441" lon="29.299013614654541">
        <time>2026-07-26T14:05:57Z</time>
      </trkpt>
      <trkpt lat="59.878470897674561" lon="29.298970699310303">
        <time>2026-07-26T14:05:59Z</time>
      </trkpt>
      <trkpt lat="59.878449440002441" lon="29.299013614654541">
        <time>2026-07-26T14:06:02Z</time>
      </trkpt>
      <trkpt lat="59.878449440002441" lon="29.299056529998779">
        <time>2026-07-26T14:06:04Z</time>
      </trkpt>
      <trkpt lat="59.878449440002441" lon="29.299056529998779">
        <time>2026-07-26T14:06:07Z</time>
      </trkpt>
      <trkpt lat="59.878427982330322" lon="29.299056529998779">
        <time>2026-07-26T14:06:09Z</time>
      </trkpt>
      <trkpt lat="59.878449440002441" lon="29.299120903015137">
        <time>2026-07-26T14:06:12Z</time>
      </trkpt>
      <trkpt lat="59.878470897674561" lon="29.299142360687256">
        <time>2026-07-26T14:06:14Z</time>
      </trkpt>
      <trkpt lat="59.87849235534668" lon="29.299163818359375">
        <time>2026-07-26T14:06:17Z</time>
      </trkpt>
      <trkpt lat="59.87849235534668" lon="29.299163818359375">
        <time>2026-07-26T14:06:19Z</time>
      </trkpt>
      <trkpt lat="59.878470897674561" lon="29.299163818359375">
        <time>2026-07-26T14:06:22Z</time>
      </trkpt>
      <trkpt lat="59.878470897674561" lon="29.299120903015137">
        <time>2026-07-26T14:06:24Z</time>
      </trkpt>
      <trkpt lat="59.878427982330322" lon="29.299056529998779">
        <time>2026-07-26T14:06:27Z</time>
      </trkpt>
      <trkpt lat="59.878406524658203" lon="29.298992156982422">
        <time>2026-07-26T14:06:29Z</time>
      </trkpt>
      <trkpt lat="59.878406524658203" lon="29.298992156982422">
        <time>2026-07-26T14:06:32Z</time>
      </trkpt>
      <trkpt lat="59.878385066986084" lon="29.298949241638184">
        <time>2026-07-26T14:06:34Z</time>
      </trkpt>
      <trkpt lat="59.878406524658203" lon="29.298970699310303">
        <time>2026-07-26T14:06:37Z</time>
      </trkpt>
      <trkpt lat="59.878406524658203" lon="29.299013614654541">
        <time>2026-07-26T14:06:39Z</time>
      </trkpt>
      <trkpt lat="59.878406524658203" lon="29.299120903015137">
        <time>2026-07-26T14:06:42Z</time>
      </trkpt>
      <trkpt lat="59.878406524658203" lon="29.299185276031494">
        <time>2026-07-26T14:06:44Z</time>
      </trkpt>
      <trkpt lat="59.878406524658203" lon="29.29929256439209">
        <time>2026-07-26T14:06:47Z</time>
      </trkpt>
      <trkpt lat="59.878427982330322" lon="29.299485683441162">
        <time>2026-07-26T14:06:52Z</time>
      </trkpt>
      <trkpt lat="59.878449440002441" lon="29.299507141113281">
        <time>2026-07-26T14:06:54Z</time>
      </trkpt>
      <trkpt lat="59.878470897674561" lon="29.299485683441162">
        <time>2026-07-26T14:06:57Z</time>
      </trkpt>
      <trkpt lat="59.878470897674561" lon="29.299507141113281">
        <time>2026-07-26T14:06:59Z</time>
      </trkpt>
      <trkpt lat="59.878470897674561" lon="29.299485683441162">
        <time>2026-07-26T14:07:02Z</time>
      </trkpt>
      <trkpt lat="59.878449440002441" lon="29.299378395080566">
        <time>2026-07-26T14:07:04Z</time>
      </trkpt>
      <trkpt lat="59.878449440002441" lon="29.299421310424805">
        <time>2026-07-26T14:07:07Z</time>
      </trkpt>
      <trkpt lat="59.878427982330322" lon="29.2995285987854">
        <time>2026-07-26T14:07:09Z</time>
      </trkpt>
      <trkpt lat="59.878427982330322" lon="29.299614429473877">
        <time>2026-07-26T14:07:12Z</time>
      </trkpt>
      <trkpt lat="59.878449440002441" lon="29.299721717834473">
        <time>2026-07-26T14:07:14Z</time>
      </trkpt>
      <trkpt lat="59.87849235534668" lon="29.299764633178711">
        <time>2026-07-26T14:07:17Z</time>
      </trkpt>
      <trkpt lat="59.878513813018799" lon="29.299807548522949">
        <time>2026-07-26T14:07:19Z</time>
      </trkpt>
      <trkpt lat="59.878535270690918" lon="29.299829006195068">
        <time>2026-07-26T14:07:22Z</time>
      </trkpt>
      <trkpt lat="59.878578186035156" lon="29.299850463867188">
        <time>2026-07-26T14:07:24Z</time>
      </trkpt>
      <trkpt lat="59.878599643707275" lon="29.299871921539307">
        <time>2026-07-26T14:07:27Z</time>
      </trkpt>
      <trkpt lat="59.878621101379395" lon="29.299893379211426">
        <time>2026-07-26T14:07:29Z</time>
      </trkpt>
      <trkpt lat="59.878621101379395" lon="29.299893379211426">
        <time>2026-07-26T14:07:32Z</time>
      </trkpt>
      <trkpt lat="59.878621101379395" lon="29.299893379211426">
        <time>2026-07-26T14:07:34Z</time>
      </trkpt>
      <trkpt lat="59.878621101379395" lon="29.299893379211426">
        <time>2026-07-26T14:07:37Z</time>
      </trkpt>
      <trkpt lat="59.878642559051514" lon="29.299893379211426">
        <time>2026-07-26T14:07:39Z</time>
      </trkpt>
      <trkpt lat="59.878664016723633" lon="29.299893379211426">
        <time>2026-07-26T14:07:42Z</time>
      </trkpt>
      <trkpt lat="59.878664016723633" lon="29.299893379211426">
        <time>2026-07-26T14:07:44Z</time>
      </trkpt>
      <trkpt lat="59.878664016723633" lon="29.299893379211426">
        <time>2026-07-26T14:07:47Z</time>
      </trkpt>
      <trkpt lat="59.878664016723633" lon="29.299936294555664">
        <time>2026-07-26T14:07:49Z</time>
      </trkpt>
      <trkpt lat="59.878664016723633" lon="29.299957752227783">
        <time>2026-07-26T14:07:52Z</time>
      </trkpt>
      <trkpt lat="59.878685474395752" lon="29.300022125244141">
        <time>2026-07-26T14:07:54Z</time>
      </trkpt>
      <trkpt lat="59.878706932067871" lon="29.30004358291626">
        <time>2026-07-26T14:07:57Z</time>
      </trkpt>
      <trkpt lat="59.87872838973999" lon="29.300107955932617">
        <time>2026-07-26T14:07:59Z</time>
      </trkpt>
      <trkpt lat="59.87872838973999" lon="29.300129413604736">
        <time>2026-07-26T14:08:02Z</time>
      </trkpt>
      <trkpt lat="59.87872838973999" lon="29.300129413604736">
        <time>2026-07-26T14:08:04Z</time>
      </trkpt>
      <trkpt lat="59.878749847412109" lon="29.300129413604736">
        <time>2026-07-26T14:08:07Z</time>
      </trkpt>
      <trkpt lat="59.87872838973999" lon="29.300150871276855">
        <time>2026-07-26T14:08:09Z</time>
      </trkpt>
      <trkpt lat="59.878706932067871" lon="29.300129413604736">
        <time>2026-07-26T14:08:12Z</time>
      </trkpt>
      <trkpt lat="59.878664016723633" lon="29.300107955932617">
        <time>2026-07-26T14:08:14Z</time>
      </trkpt>
      <trkpt lat="59.878642559051514" lon="29.300129413604736">
        <time>2026-07-26T14:08:17Z</time>
      </trkpt>
      <trkpt lat="59.878599643707275" lon="29.300107955932617">
        <time>2026-07-26T14:08:19Z</time>
      </trkpt>
      <trkpt lat="59.878578186035156" lon="29.300107955932617">
        <time>2026-07-26T14:08:22Z</time>
      </trkpt>
      <trkpt lat="59.878578186035156" lon="29.300129413604736">
        <time>2026-07-26T14:08:24Z</time>
      </trkpt>
      <trkpt lat="59.878578186035156" lon="29.300172328948975">
        <time>2026-07-26T14:08:27Z</time>
      </trkpt>
      <trkpt lat="59.878621101379395" lon="29.300215244293213">
        <time>2026-07-26T14:08:29Z</time>
      </trkpt>
      <trkpt lat="59.878642559051514" lon="29.30027961730957">
        <time>2026-07-26T14:08:32Z</time>
      </trkpt>
      <trkpt lat="59.878642559051514" lon="29.300343990325928">
        <time>2026-07-26T14:08:34Z</time>
      </trkpt>
      <trkpt lat="59.878642559051514" lon="29.300343990325928">
        <time>2026-07-26T14:08:37Z</time>
      </trkpt>
      <trkpt lat="59.878642559051514" lon="29.300343990325928">
        <time>2026-07-26T14:08:39Z</time>
      </trkpt>
      <trkpt lat="59.878642559051514" lon="29.300343990325928">
        <time>2026-07-26T14:08:42Z</time>
      </trkpt>
      <trkpt lat="59.878642559051514" lon="29.300343990325928">
        <time>2026-07-26T14:08:44Z</time>
      </trkpt>
      <trkpt lat="59.878642559051514" lon="29.300343990325928">
        <time>2026-07-26T14:08:47Z</time>
      </trkpt>
      <trkpt lat="59.878642559051514" lon="29.300343990325928">
        <time>2026-07-26T14:08:52Z</time>
      </trkpt>
      <trkpt lat="59.878642559051514" lon="29.300343990325928">
        <time>2026-07-26T14:08:54Z</time>
      </trkpt>
      <trkpt lat="59.878642559051514" lon="29.300343990325928">
        <time>2026-07-26T14:08:57Z</time>
      </trkpt>
      <trkpt lat="59.878642559051514" lon="29.300343990325928">
        <time>2026-07-26T14:08:59Z</time>
      </trkpt>
      <trkpt lat="59.878642559051514" lon="29.300343990325928">
        <time>2026-07-26T14:09:02Z</time>
      </trkpt>
      <trkpt lat="59.878642559051514" lon="29.300343990325928">
        <time>2026-07-26T14:09:07Z</time>
      </trkpt>
      <trkpt lat="59.878642559051514" lon="29.300343990325928">
        <time>2026-07-26T14:09:09Z</time>
      </trkpt>
      <trkpt lat="59.878642559051514" lon="29.300343990325928">
        <time>2026-07-26T14:09:12Z</time>
      </trkpt>
      <trkpt lat="59.878642559051514" lon="29.300343990325928">
        <time>2026-07-26T14:09:14Z</time>
      </trkpt>
      <trkpt lat="59.878642559051514" lon="29.300322532653809">
        <time>2026-07-26T14:09:17Z</time>
      </trkpt>
      <trkpt lat="59.878642559051514" lon="29.300322532653809">
        <time>2026-07-26T14:09:19Z</time>
      </trkpt>
      <trkpt lat="59.878642559051514" lon="29.300322532653809">
        <time>2026-07-26T14:09:22Z</time>
      </trkpt>
      <trkpt lat="59.878642559051514" lon="29.300322532653809">
        <time>2026-07-26T14:09:24Z</time>
      </trkpt>
      <trkpt lat="59.878642559051514" lon="29.300322532653809">
        <time>2026-07-26T14:09:27Z</time>
      </trkpt>
      <trkpt lat="59.878642559051514" lon="29.300322532653809">
        <time>2026-07-26T14:09:29Z</time>
      </trkpt>
      <trkpt lat="59.878642559051514" lon="29.300322532653809">
        <time>2026-07-26T14:09:32Z</time>
      </trkpt>
      <trkpt lat="59.878642559051514" lon="29.300322532653809">
        <time>2026-07-26T14:09:34Z</time>
      </trkpt>
      <trkpt lat="59.878642559051514" lon="29.300322532653809">
        <time>2026-07-26T14:09:37Z</time>
      </trkpt>
      <trkpt lat="59.878642559051514" lon="29.300322532653809">
        <time>2026-07-26T14:09:39Z</time>
      </trkpt>
      <trkpt lat="59.878642559051514" lon="29.300322532653809">
        <time>2026-07-26T14:09:42Z</time>
      </trkpt>
      <trkpt lat="59.878642559051514" lon="29.300322532653809">
        <time>2026-07-26T14:09:44Z</time>
      </trkpt>
      <trkpt lat="59.878642559051514" lon="29.300322532653809">
        <time>2026-07-26T14:09:47Z</time>
      </trkpt>
      <trkpt lat="59.878642559051514" lon="29.300301074981689">
        <time>2026-07-26T14:09:49Z</time>
      </trkpt>
      <trkpt lat="59.878664016723633" lon="29.300322532653809">
        <time>2026-07-26T14:09:52Z</time>
      </trkpt>
      <trkpt lat="59.878664016723633" lon="29.300343990325928">
        <time>2026-07-26T14:09:54Z</time>
      </trkpt>
      <trkpt lat="59.878664016723633" lon="29.300343990325928">
        <time>2026-07-26T14:09:57Z</time>
      </trkpt>
      <trkpt lat="59.878685474395752" lon="29.30027961730957">
        <time>2026-07-26T14:09:59Z</time>
      </trkpt>
      <trkpt lat="59.878685474395752" lon="29.300301074981689">
        <time>2026-07-26T14:10:02Z</time>
      </trkpt>
      <trkpt lat="59.878642559051514" lon="29.300301074981689">
        <time>2026-07-26T14:10:04Z</time>
      </trkpt>
      <trkpt lat="59.878642559051514" lon="29.300236701965332">
        <time>2026-07-26T14:10:07Z</time>
      </trkpt>
      <trkpt lat="59.878642559051514" lon="29.300236701965332">
        <time>2026-07-26T14:10:09Z</time>
      </trkpt>
      <trkpt lat="59.878642559051514" lon="29.30027961730957">
        <time>2026-07-26T14:10:12Z</time>
      </trkpt>
      <trkpt lat="59.878642559051514" lon="29.300343990325928">
        <time>2026-07-26T14:10:14Z</time>
      </trkpt>
      <trkpt lat="59.878642559051514" lon="29.300301074981689">
        <time>2026-07-26T14:10:17Z</time>
      </trkpt>
      <trkpt lat="59.878706932067871" lon="29.300215244293213">
        <time>2026-07-26T14:10:19Z</time>
      </trkpt>
      <trkpt lat="59.87872838973999" lon="29.300172328948975">
        <time>2026-07-26T14:10:22Z</time>
      </trkpt>
      <trkpt lat="59.878706932067871" lon="29.300258159637451">
        <time>2026-07-26T14:10:24Z</time>
      </trkpt>
      <trkpt lat="59.878706932067871" lon="29.30027961730957">
        <time>2026-07-26T14:10:27Z</time>
      </trkpt>
      <trkpt lat="59.878685474395752" lon="29.300301074981689">
        <time>2026-07-26T14:10:29Z</time>
      </trkpt>
      <trkpt lat="59.878664016723633" lon="29.300343990325928">
        <time>2026-07-26T14:10:32Z</time>
      </trkpt>
      <trkpt lat="59.878599643707275" lon="29.300386905670166">
        <time>2026-07-26T14:10:34Z</time>
      </trkpt>
      <trkpt lat="59.878578186035156" lon="29.300365447998047">
        <time>2026-07-26T14:10:37Z</time>
      </trkpt>
      <trkpt lat="59.878578186035156" lon="29.300365447998047">
        <time>2026-07-26T14:10:39Z</time>
      </trkpt>
      <trkpt lat="59.878578186035156" lon="29.300365447998047">
        <time>2026-07-26T14:10:42Z</time>
      </trkpt>
      <trkpt lat="59.878578186035156" lon="29.300365447998047">
        <time>2026-07-26T14:10:44Z</time>
      </trkpt>
      <trkpt lat="59.878556728363037" lon="29.300386905670166">
        <time>2026-07-26T14:10:47Z</time>
      </trkpt>
      <trkpt lat="59.878513813018799" lon="29.300365447998047">
        <time>2026-07-26T14:10:49Z</time>
      </trkpt>
      <trkpt lat="59.878513813018799" lon="29.300386905670166">
        <time>2026-07-26T14:10:52Z</time>
      </trkpt>
      <trkpt lat="59.878578186035156" lon="29.300451278686523">
        <time>2026-07-26T14:10:54Z</time>
      </trkpt>
      <trkpt lat="59.878599643707275" lon="29.300408363342285">
        <time>2026-07-26T14:10:57Z</time>
      </trkpt>
      <trkpt lat="59.878599643707275" lon="29.300429821014404">
        <time>2026-07-26T14:10:59Z</time>
      </trkpt>
      <trkpt lat="59.878578186035156" lon="29.300472736358643">
        <time>2026-07-26T14:11:02Z</time>
      </trkpt>
      <trkpt lat="59.878513813018799" lon="29.300494194030762">
        <time>2026-07-26T14:11:04Z</time>
      </trkpt>
      <trkpt lat="59.87849235534668" lon="29.300537109375">
        <time>2026-07-26T14:11:07Z</time>
      </trkpt>
      <trkpt lat="59.878449440002441" lon="29.300580024719238">
        <time>2026-07-26T14:11:09Z</time>
      </trkpt>
      <trkpt lat="59.878427982330322" lon="29.300622940063477">
        <time>2026-07-26T14:11:12Z</time>
      </trkpt>
      <trkpt lat="59.878406524658203" lon="29.300644397735596">
        <time>2026-07-26T14:11:14Z</time>
      </trkpt>
      <trkpt lat="59.878406524658203" lon="29.300665855407715">
        <time>2026-07-26T14:11:17Z</time>
      </trkpt>
      <trkpt lat="59.878406524658203" lon="29.300665855407715">
        <time>2026-07-26T14:11:19Z</time>
      </trkpt>
      <trkpt lat="59.878406524658203" lon="29.300687313079834">
        <time>2026-07-26T14:11:22Z</time>
      </trkpt>
      <trkpt lat="59.878406524658203" lon="29.300751686096191">
        <time>2026-07-26T14:11:24Z</time>
      </trkpt>
      <trkpt lat="59.878406524658203" lon="29.300751686096191">
        <time>2026-07-26T14:11:27Z</time>
      </trkpt>
      <trkpt lat="59.878406524658203" lon="29.300751686096191">
        <time>2026-07-26T14:11:29Z</time>
      </trkpt>
      <trkpt lat="59.878385066986084" lon="29.300773143768311">
        <time>2026-07-26T14:11:32Z</time>
      </trkpt>
      <trkpt lat="59.878342151641846" lon="29.300816059112549">
        <time>2026-07-26T14:11:34Z</time>
      </trkpt>
      <trkpt lat="59.878320693969727" lon="29.300816059112549">
        <time>2026-07-26T14:11:37Z</time>
      </trkpt>
      <trkpt lat="59.878320693969727" lon="29.300816059112549">
        <time>2026-07-26T14:11:39Z</time>
      </trkpt>
      <trkpt lat="59.878320693969727" lon="29.30079460144043">
        <time>2026-07-26T14:11:42Z</time>
      </trkpt>
      <trkpt lat="59.878320693969727" lon="29.30079460144043">
        <time>2026-07-26T14:11:44Z</time>
      </trkpt>
      <trkpt lat="59.878320693969727" lon="29.300816059112549">
        <time>2026-07-26T14:11:47Z</time>
      </trkpt>
      <trkpt lat="59.878363609313965" lon="29.300773143768311">
        <time>2026-07-26T14:11:49Z</time>
      </trkpt>
      <trkpt lat="59.878363609313965" lon="29.300751686096191">
        <time>2026-07-26T14:11:52Z</time>
      </trkpt>
      <trkpt lat="59.878363609313965" lon="29.300773143768311">
        <time>2026-07-26T14:11:54Z</time>
      </trkpt>
      <trkpt lat="59.878342151641846" lon="29.300816059112549">
        <time>2026-07-26T14:11:57Z</time>
      </trkpt>
      <trkpt lat="59.878320693969727" lon="29.300858974456787">
        <time>2026-07-26T14:11:59Z</time>
      </trkpt>
      <trkpt lat="59.878299236297607" lon="29.300858974456787">
        <time>2026-07-26T14:12:02Z</time>
      </trkpt>
      <trkpt lat="59.878299236297607" lon="29.300858974456787">
        <time>2026-07-26T14:12:04Z</time>
      </trkpt>
      <trkpt lat="59.878277778625488" lon="29.300901889801025">
        <time>2026-07-26T14:12:07Z</time>
      </trkpt>
      <trkpt lat="59.87823486328125" lon="29.300944805145264">
        <time>2026-07-26T14:12:09Z</time>
      </trkpt>
      <trkpt lat="59.87823486328125" lon="29.300944805145264">
        <time>2026-07-26T14:12:12Z</time>
      </trkpt>
      <trkpt lat="59.878213405609131" lon="29.300987720489502">
        <time>2026-07-26T14:12:14Z</time>
      </trkpt>
      <trkpt lat="59.878191947937012" lon="29.301009178161621">
        <time>2026-07-26T14:12:17Z</time>
      </trkpt>
      <trkpt lat="59.878191947937012" lon="29.300987720489502">
        <time>2026-07-26T14:12:19Z</time>
      </trkpt>
      <trkpt lat="59.878191947937012" lon="29.300966262817383">
        <time>2026-07-26T14:12:22Z</time>
      </trkpt>
      <trkpt lat="59.878149032592773" lon="29.300966262817383">
        <time>2026-07-26T14:12:24Z</time>
      </trkpt>
      <trkpt lat="59.878149032592773" lon="29.300987720489502">
        <time>2026-07-26T14:12:27Z</time>
      </trkpt>
      <trkpt lat="59.878127574920654" lon="29.30103063583374">
        <time>2026-07-26T14:12:29Z</time>
      </trkpt>
      <trkpt lat="59.878127574920654" lon="29.30103063583374">
        <time>2026-07-26T14:12:32Z</time>
      </trkpt>
      <trkpt lat="59.878149032592773" lon="29.30103063583374">
        <time>2026-07-26T14:12:34Z</time>
      </trkpt>
      <trkpt lat="59.878127574920654" lon="29.301052093505859">
        <time>2026-07-26T14:12:37Z</time>
      </trkpt>
      <trkpt lat="59.878127574920654" lon="29.301052093505859">
        <time>2026-07-26T14:12:39Z</time>
      </trkpt>
      <trkpt lat="59.878127574920654" lon="29.301052093505859">
        <time>2026-07-26T14:12:42Z</time>
      </trkpt>
      <trkpt lat="59.878149032592773" lon="29.301052093505859">
        <time>2026-07-26T14:12:44Z</time>
      </trkpt>
      <trkpt lat="59.878170490264893" lon="29.301052093505859">
        <time>2026-07-26T14:12:47Z</time>
      </trkpt>
      <trkpt lat="59.878170490264893" lon="29.30103063583374">
        <time>2026-07-26T14:12:49Z</time>
      </trkpt>
      <trkpt lat="59.878170490264893" lon="29.301052093505859">
        <time>2026-07-26T14:12:52Z</time>
      </trkpt>
      <trkpt lat="59.878149032592773" lon="29.301052093505859">
        <time>2026-07-26T14:12:54Z</time>
      </trkpt>
      <trkpt lat="59.878127574920654" lon="29.301052093505859">
        <time>2026-07-26T14:12:57Z</time>
      </trkpt>
      <trkpt lat="59.878127574920654" lon="29.301009178161621">
        <time>2026-07-26T14:12:59Z</time>
      </trkpt>
      <trkpt lat="59.878127574920654" lon="29.300987720489502">
        <time>2026-07-26T14:13:02Z</time>
      </trkpt>
      <trkpt lat="59.878127574920654" lon="29.301009178161621">
        <time>2026-07-26T14:13:04Z</time>
      </trkpt>
      <trkpt lat="59.878149032592773" lon="29.301052093505859">
        <time>2026-07-26T14:13:07Z</time>
      </trkpt>
      <trkpt lat="59.878127574920654" lon="29.301116466522217">
        <time>2026-07-26T14:13:09Z</time>
      </trkpt>
      <trkpt lat="59.878106117248535" lon="29.301137924194336">
        <time>2026-07-26T14:13:12Z</time>
      </trkpt>
      <trkpt lat="59.878084659576416" lon="29.301159381866455">
        <time>2026-07-26T14:13:14Z</time>
      </trkpt>
      <trkpt lat="59.878084659576416" lon="29.301159381866455">
        <time>2026-07-26T14:13:17Z</time>
      </trkpt>
      <trkpt lat="59.878084659576416" lon="29.301159381866455">
        <time>2026-07-26T14:13:19Z</time>
      </trkpt>
      <trkpt lat="59.878063201904297" lon="29.301202297210693">
        <time>2026-07-26T14:13:22Z</time>
      </trkpt>
      <trkpt lat="59.878063201904297" lon="29.301202297210693">
        <time>2026-07-26T14:13:24Z</time>
      </trkpt>
      <trkpt lat="59.878063201904297" lon="29.301223754882812">
        <time>2026-07-26T14:13:27Z</time>
      </trkpt>
      <trkpt lat="59.878041744232178" lon="29.301245212554932">
        <time>2026-07-26T14:13:29Z</time>
      </trkpt>
      <trkpt lat="59.878041744232178" lon="29.301245212554932">
        <time>2026-07-26T14:13:32Z</time>
      </trkpt>
      <trkpt lat="59.878041744232178" lon="29.301266670227051">
        <time>2026-07-26T14:13:34Z</time>
      </trkpt>
      <trkpt lat="59.878041744232178" lon="29.301266670227051">
        <time>2026-07-26T14:13:37Z</time>
      </trkpt>
      <trkpt lat="59.878041744232178" lon="29.30128812789917">
        <time>2026-07-26T14:13:39Z</time>
      </trkpt>
      <trkpt lat="59.878041744232178" lon="29.30128812789917">
        <time>2026-07-26T14:13:42Z</time>
      </trkpt>
      <trkpt lat="59.878041744232178" lon="29.30128812789917">
        <time>2026-07-26T14:13:44Z</time>
      </trkpt>
      <trkpt lat="59.878041744232178" lon="29.301309585571289">
        <time>2026-07-26T14:13:47Z</time>
      </trkpt>
      <trkpt lat="59.878041744232178" lon="29.301309585571289">
        <time>2026-07-26T14:13:49Z</time>
      </trkpt>
      <trkpt lat="59.878041744232178" lon="29.301309585571289">
        <time>2026-07-26T14:13:52Z</time>
      </trkpt>
      <trkpt lat="59.878041744232178" lon="29.301309585571289">
        <time>2026-07-26T14:13:54Z</time>
      </trkpt>
      <trkpt lat="59.878041744232178" lon="29.301309585571289">
        <time>2026-07-26T14:13:57Z</time>
      </trkpt>
      <trkpt lat="59.878020286560059" lon="29.301352500915527">
        <time>2026-07-26T14:13:59Z</time>
      </trkpt>
      <trkpt lat="59.878020286560059" lon="29.301352500915527">
        <time>2026-07-26T14:14:02Z</time>
      </trkpt>
      <trkpt lat="59.878020286560059" lon="29.301352500915527">
        <time>2026-07-26T14:14:04Z</time>
      </trkpt>
      <trkpt lat="59.878020286560059" lon="29.301352500915527">
        <time>2026-07-26T14:14:07Z</time>
      </trkpt>
      <trkpt lat="59.878020286560059" lon="29.301352500915527">
        <time>2026-07-26T14:14:09Z</time>
      </trkpt>
      <trkpt lat="59.878020286560059" lon="29.301373958587646">
        <time>2026-07-26T14:14:12Z</time>
      </trkpt>
      <trkpt lat="59.878020286560059" lon="29.301373958587646">
        <time>2026-07-26T14:14:14Z</time>
      </trkpt>
      <trkpt lat="59.878020286560059" lon="29.301373958587646">
        <time>2026-07-26T14:14:17Z</time>
      </trkpt>
      <trkpt lat="59.878020286560059" lon="29.301416873931885">
        <time>2026-07-26T14:14:19Z</time>
      </trkpt>
      <trkpt lat="59.877998828887939" lon="29.301459789276123">
        <time>2026-07-26T14:14:22Z</time>
      </trkpt>
      <trkpt lat="59.87797737121582" lon="29.301481246948242">
        <time>2026-07-26T14:14:24Z</time>
      </trkpt>
      <trkpt lat="59.877955913543701" lon="29.301481246948242">
        <time>2026-07-26T14:14:27Z</time>
      </trkpt>
      <trkpt lat="59.877934455871582" lon="29.301481246948242">
        <time>2026-07-26T14:14:29Z</time>
      </trkpt>
      <trkpt lat="59.877912998199463" lon="29.30152416229248">
        <time>2026-07-26T14:14:32Z</time>
      </trkpt>
      <trkpt lat="59.877912998199463" lon="29.301567077636719">
        <time>2026-07-26T14:14:34Z</time>
      </trkpt>
      <trkpt lat="59.877912998199463" lon="29.301567077636719">
        <time>2026-07-26T14:14:37Z</time>
      </trkpt>
      <trkpt lat="59.877912998199463" lon="29.301588535308838">
        <time>2026-07-26T14:14:39Z</time>
      </trkpt>
      <trkpt lat="59.877891540527344" lon="29.301631450653076">
        <time>2026-07-26T14:14:42Z</time>
      </trkpt>
      <trkpt lat="59.877870082855225" lon="29.301652908325195">
        <time>2026-07-26T14:14:44Z</time>
      </trkpt>
      <trkpt lat="59.877870082855225" lon="29.301695823669434">
        <time>2026-07-26T14:14:47Z</time>
      </trkpt>
      <trkpt lat="59.877848625183105" lon="29.301738739013672">
        <time>2026-07-26T14:14:49Z</time>
      </trkpt>
      <trkpt lat="59.877827167510986" lon="29.301738739013672">
        <time>2026-07-26T14:14:52Z</time>
      </trkpt>
      <trkpt lat="59.877805709838867" lon="29.30178165435791">
        <time>2026-07-26T14:14:54Z</time>
      </trkpt>
      <trkpt lat="59.877805709838867" lon="29.301846027374268">
        <time>2026-07-26T14:14:57Z</time>
      </trkpt>
      <trkpt lat="59.877784252166748" lon="29.301910400390625">
        <time>2026-07-26T14:14:59Z</time>
      </trkpt>
      <trkpt lat="59.87774133682251" lon="29.301910400390625">
        <time>2026-07-26T14:15:02Z</time>
      </trkpt>
      <trkpt lat="59.877719879150391" lon="29.301974773406982">
        <time>2026-07-26T14:15:04Z</time>
      </trkpt>
      <trkpt lat="59.877698421478271" lon="29.301996231079102">
        <time>2026-07-26T14:15:07Z</time>
      </trkpt>
      <trkpt lat="59.877676963806152" lon="29.301996231079102">
        <time>2026-07-26T14:15:09Z</time>
      </trkpt>
      <trkpt lat="59.877634048461914" lon="29.302017688751221">
        <time>2026-07-26T14:15:12Z</time>
      </trkpt>
      <trkpt lat="59.877591133117676" lon="29.302017688751221">
        <time>2026-07-26T14:15:14Z</time>
      </trkpt>
      <trkpt lat="59.877569675445557" lon="29.302060604095459">
        <time>2026-07-26T14:15:17Z</time>
      </trkpt>
      <trkpt lat="59.877526760101318" lon="29.302082061767578">
        <time>2026-07-26T14:15:19Z</time>
      </trkpt>
      <trkpt lat="59.877505302429199" lon="29.302082061767578">
        <time>2026-07-26T14:15:22Z</time>
      </trkpt>
      <trkpt lat="59.87748384475708" lon="29.302103519439697">
        <time>2026-07-26T14:15:24Z</time>
      </trkpt>
      <trkpt lat="59.877440929412842" lon="29.302124977111816">
        <time>2026-07-26T14:15:27Z</time>
      </trkpt>
      <trkpt lat="59.877419471740723" lon="29.302103519439697">
        <time>2026-07-26T14:15:29Z</time>
      </trkpt>
      <trkpt lat="59.877419471740723" lon="29.302103519439697">
        <time>2026-07-26T14:15:32Z</time>
      </trkpt>
      <trkpt lat="59.877505302429199" lon="29.302103519439697">
        <time>2026-07-26T14:15:34Z</time>
      </trkpt>
      <trkpt lat="59.877569675445557" lon="29.302146434783936">
        <time>2026-07-26T14:15:37Z</time>
      </trkpt>
      <trkpt lat="59.877634048461914" lon="29.302189350128174">
        <time>2026-07-26T14:15:39Z</time>
      </trkpt>
      <trkpt lat="59.877634048461914" lon="29.302167892456055">
        <time>2026-07-26T14:15:42Z</time>
      </trkpt>
      <trkpt lat="59.877676963806152" lon="29.302124977111816">
        <time>2026-07-26T14:15:44Z</time>
      </trkpt>
      <trkpt lat="59.877698421478271" lon="29.302082061767578">
        <time>2026-07-26T14:15:47Z</time>
      </trkpt>
      <trkpt lat="59.87774133682251" lon="29.302017688751221">
        <time>2026-07-26T14:15:49Z</time>
      </trkpt>
      <trkpt lat="59.877784252166748" lon="29.301974773406982">
        <time>2026-07-26T14:15:52Z</time>
      </trkpt>
      <trkpt lat="59.877848625183105" lon="29.301888942718506">
        <time>2026-07-26T14:15:54Z</time>
      </trkpt>
      <trkpt lat="59.877891540527344" lon="29.301824569702148">
        <time>2026-07-26T14:15:57Z</time>
      </trkpt>
      <trkpt lat="59.877891540527344" lon="29.301824569702148">
        <time>2026-07-26T14:15:59Z</time>
      </trkpt>
      <trkpt lat="59.877891540527344" lon="29.301824569702148">
        <time>2026-07-26T14:16:02Z</time>
      </trkpt>
      <trkpt lat="59.877891540527344" lon="29.301738739013672">
        <time>2026-07-26T14:16:04Z</time>
      </trkpt>
      <trkpt lat="59.877891540527344" lon="29.301674365997314">
        <time>2026-07-26T14:16:07Z</time>
      </trkpt>
      <trkpt lat="59.877912998199463" lon="29.301567077636719">
        <time>2026-07-26T14:16:09Z</time>
      </trkpt>
      <trkpt lat="59.877912998199463" lon="29.301502704620361">
        <time>2026-07-26T14:16:12Z</time>
      </trkpt>
      <trkpt lat="59.877912998199463" lon="29.301459789276123">
        <time>2026-07-26T14:16:14Z</time>
      </trkpt>
      <trkpt lat="59.877870082855225" lon="29.301416873931885">
        <time>2026-07-26T14:16:17Z</time>
      </trkpt>
      <trkpt lat="59.877827167510986" lon="29.301438331604004">
        <time>2026-07-26T14:16:19Z</time>
      </trkpt>
      <trkpt lat="59.877827167510986" lon="29.301459789276123">
        <time>2026-07-26T14:16:22Z</time>
      </trkpt>
      <trkpt lat="59.877805709838867" lon="29.301481246948242">
        <time>2026-07-26T14:16:24Z</time>
      </trkpt>
      <trkpt lat="59.877784252166748" lon="29.301502704620361">
        <time>2026-07-26T14:16:27Z</time>
      </trkpt>
      <trkpt lat="59.877784252166748" lon="29.301502704620361">
        <time>2026-07-26T14:16:29Z</time>
      </trkpt>
      <trkpt lat="59.877784252166748" lon="29.301502704620361">
        <time>2026-07-26T14:16:32Z</time>
      </trkpt>
      <trkpt lat="59.877784252166748" lon="29.301502704620361">
        <time>2026-07-26T14:16:34Z</time>
      </trkpt>
      <trkpt lat="59.877784252166748" lon="29.301502704620361">
        <time>2026-07-26T14:16:37Z</time>
      </trkpt>
      <trkpt lat="59.877784252166748" lon="29.301502704620361">
        <time>2026-07-26T14:16:39Z</time>
      </trkpt>
      <trkpt lat="59.877805709838867" lon="29.301502704620361">
        <time>2026-07-26T14:16:42Z</time>
      </trkpt>
      <trkpt lat="59.877827167510986" lon="29.301438331604004">
        <time>2026-07-26T14:16:44Z</time>
      </trkpt>
      <trkpt lat="59.877827167510986" lon="29.301438331604004">
        <time>2026-07-26T14:16:47Z</time>
      </trkpt>
      <trkpt lat="59.877784252166748" lon="29.301438331604004">
        <time>2026-07-26T14:16:49Z</time>
      </trkpt>
      <trkpt lat="59.877762794494629" lon="29.301459789276123">
        <time>2026-07-26T14:16:52Z</time>
      </trkpt>
      <trkpt lat="59.877762794494629" lon="29.301459789276123">
        <time>2026-07-26T14:16:54Z</time>
      </trkpt>
      <trkpt lat="59.877762794494629" lon="29.301459789276123">
        <time>2026-07-26T14:16:57Z</time>
      </trkpt>
      <trkpt lat="59.877762794494629" lon="29.301459789276123">
        <time>2026-07-26T14:16:59Z</time>
      </trkpt>
      <trkpt lat="59.877762794494629" lon="29.301459789276123">
        <time>2026-07-26T14:17:02Z</time>
      </trkpt>
      <trkpt lat="59.877762794494629" lon="29.301459789276123">
        <time>2026-07-26T14:17:04Z</time>
      </trkpt>
      <trkpt lat="59.877762794494629" lon="29.301459789276123">
        <time>2026-07-26T14:17:07Z</time>
      </trkpt>
      <trkpt lat="59.877762794494629" lon="29.301459789276123">
        <time>2026-07-26T14:17:09Z</time>
      </trkpt>
      <trkpt lat="59.877762794494629" lon="29.301459789276123">
        <time>2026-07-26T14:17:12Z</time>
      </trkpt>
      <trkpt lat="59.877762794494629" lon="29.301459789276123">
        <time>2026-07-26T14:17:14Z</time>
      </trkpt>
      <trkpt lat="59.87774133682251" lon="29.301481246948242">
        <time>2026-07-26T14:17:17Z</time>
      </trkpt>
      <trkpt lat="59.87774133682251" lon="29.301481246948242">
        <time>2026-07-26T14:17:19Z</time>
      </trkpt>
      <trkpt lat="59.87774133682251" lon="29.301481246948242">
        <time>2026-07-26T14:17:22Z</time>
      </trkpt>
      <trkpt lat="59.87774133682251" lon="29.301481246948242">
        <time>2026-07-26T14:17:24Z</time>
      </trkpt>
      <trkpt lat="59.87774133682251" lon="29.301481246948242">
        <time>2026-07-26T14:17:27Z</time>
      </trkpt>
      <trkpt lat="59.87774133682251" lon="29.301481246948242">
        <time>2026-07-26T14:17:29Z</time>
      </trkpt>
      <trkpt lat="59.87774133682251" lon="29.301481246948242">
        <time>2026-07-26T14:17:34Z</time>
      </trkpt>
      <trkpt lat="59.87774133682251" lon="29.301481246948242">
        <time>2026-07-26T14:17:37Z</time>
      </trkpt>
      <trkpt lat="59.87774133682251" lon="29.301481246948242">
        <time>2026-07-26T14:17:39Z</time>
      </trkpt>
      <trkpt lat="59.87774133682251" lon="29.301481246948242">
        <time>2026-07-26T14:17:42Z</time>
      </trkpt>
      <trkpt lat="59.87774133682251" lon="29.301481246948242">
        <time>2026-07-26T14:17:44Z</time>
      </trkpt>
      <trkpt lat="59.87774133682251" lon="29.301481246948242">
        <time>2026-07-26T14:17:47Z</time>
      </trkpt>
      <trkpt lat="59.87774133682251" lon="29.301481246948242">
        <time>2026-07-26T14:17:49Z</time>
      </trkpt>
      <trkpt lat="59.87774133682251" lon="29.301481246948242">
        <time>2026-07-26T14:17:52Z</time>
      </trkpt>
      <trkpt lat="59.87774133682251" lon="29.301481246948242">
        <time>2026-07-26T14:17:54Z</time>
      </trkpt>
      <trkpt lat="59.87774133682251" lon="29.301459789276123">
        <time>2026-07-26T14:17:57Z</time>
      </trkpt>
      <trkpt lat="59.87774133682251" lon="29.301459789276123">
        <time>2026-07-26T14:17:59Z</time>
      </trkpt>
      <trkpt lat="59.87774133682251" lon="29.301459789276123">
        <time>2026-07-26T14:18:02Z</time>
      </trkpt>
      <trkpt lat="59.87774133682251" lon="29.301459789276123">
        <time>2026-07-26T14:18:04Z</time>
      </trkpt>
      <trkpt lat="59.87774133682251" lon="29.301459789276123">
        <time>2026-07-26T14:18:07Z</time>
      </trkpt>
      <trkpt lat="59.87774133682251" lon="29.301459789276123">
        <time>2026-07-26T14:18:09Z</time>
      </trkpt>
      <trkpt lat="59.87774133682251" lon="29.301459789276123">
        <time>2026-07-26T14:18:12Z</time>
      </trkpt>
      <trkpt lat="59.87774133682251" lon="29.301459789276123">
        <time>2026-07-26T14:18:14Z</time>
      </trkpt>
      <trkpt lat="59.87774133682251" lon="29.301459789276123">
        <time>2026-07-26T14:18:17Z</time>
      </trkpt>
      <trkpt lat="59.87774133682251" lon="29.301459789276123">
        <time>2026-07-26T14:18:19Z</time>
      </trkpt>
      <trkpt lat="59.87774133682251" lon="29.301459789276123">
        <time>2026-07-26T14:18:22Z</time>
      </trkpt>
      <trkpt lat="59.87774133682251" lon="29.301459789276123">
        <time>2026-07-26T14:18:24Z</time>
      </trkpt>
      <trkpt lat="59.87774133682251" lon="29.301459789276123">
        <time>2026-07-26T14:18:27Z</time>
      </trkpt>
      <trkpt lat="59.87774133682251" lon="29.301459789276123">
        <time>2026-07-26T14:18:29Z</time>
      </trkpt>
      <trkpt lat="59.87774133682251" lon="29.301459789276123">
        <time>2026-07-26T14:18:32Z</time>
      </trkpt>
      <trkpt lat="59.87774133682251" lon="29.301459789276123">
        <time>2026-07-26T14:18:34Z</time>
      </trkpt>
      <trkpt lat="59.87774133682251" lon="29.301481246948242">
        <time>2026-07-26T14:18:37Z</time>
      </trkpt>
      <trkpt lat="59.87774133682251" lon="29.301438331604004">
        <time>2026-07-26T14:18:39Z</time>
      </trkpt>
      <trkpt lat="59.87774133682251" lon="29.301459789276123">
        <time>2026-07-26T14:18:42Z</time>
      </trkpt>
      <trkpt lat="59.87774133682251" lon="29.301502704620361">
        <time>2026-07-26T14:18:44Z</time>
      </trkpt>
      <trkpt lat="59.877762794494629" lon="29.301481246948242">
        <time>2026-07-26T14:18:47Z</time>
      </trkpt>
      <trkpt lat="59.877784252166748" lon="29.301416873931885">
        <time>2026-07-26T14:18:49Z</time>
      </trkpt>
      <trkpt lat="59.877762794494629" lon="29.301459789276123">
        <time>2026-07-26T14:18:52Z</time>
      </trkpt>
      <trkpt lat="59.877762794494629" lon="29.301459789276123">
        <time>2026-07-26T14:18:54Z</time>
      </trkpt>
      <trkpt lat="59.877762794494629" lon="29.301395416259766">
        <time>2026-07-26T14:18:57Z</time>
      </trkpt>
      <trkpt lat="59.877762794494629" lon="29.301331043243408">
        <time>2026-07-26T14:18:59Z</time>
      </trkpt>
      <trkpt lat="59.877762794494629" lon="29.301352500915527">
        <time>2026-07-26T14:19:02Z</time>
      </trkpt>
      <trkpt lat="59.87774133682251" lon="29.301416873931885">
        <time>2026-07-26T14:19:04Z</time>
      </trkpt>
      <trkpt lat="59.877762794494629" lon="29.301438331604004">
        <time>2026-07-26T14:19:07Z</time>
      </trkpt>
      <trkpt lat="59.877784252166748" lon="29.301309585571289">
        <time>2026-07-26T14:19:09Z</time>
      </trkpt>
      <trkpt lat="59.877805709838867" lon="29.301266670227051">
        <time>2026-07-26T14:19:12Z</time>
      </trkpt>
      <trkpt lat="59.877805709838867" lon="29.30128812789917">
        <time>2026-07-26T14:19:14Z</time>
      </trkpt>
      <trkpt lat="59.877784252166748" lon="29.301373958587646">
        <time>2026-07-26T14:19:17Z</time>
      </trkpt>
      <trkpt lat="59.877762794494629" lon="29.301416873931885">
        <time>2026-07-26T14:19:19Z</time>
      </trkpt>
      <trkpt lat="59.877762794494629" lon="29.301373958587646">
        <time>2026-07-26T14:19:22Z</time>
      </trkpt>
      <trkpt lat="59.87774133682251" lon="29.301331043243408">
        <time>2026-07-26T14:19:24Z</time>
      </trkpt>
      <trkpt lat="59.87774133682251" lon="29.301309585571289">
        <time>2026-07-26T14:19:27Z</time>
      </trkpt>
      <trkpt lat="59.87774133682251" lon="29.301331043243408">
        <time>2026-07-26T14:19:29Z</time>
      </trkpt>
      <trkpt lat="59.87774133682251" lon="29.301331043243408">
        <time>2026-07-26T14:19:32Z</time>
      </trkpt>
      <trkpt lat="59.877762794494629" lon="29.301331043243408">
        <time>2026-07-26T14:19:34Z</time>
      </trkpt>
      <trkpt lat="59.877784252166748" lon="29.301331043243408">
        <time>2026-07-26T14:19:37Z</time>
      </trkpt>
      <trkpt lat="59.877805709838867" lon="29.301309585571289">
        <time>2026-07-26T14:19:39Z</time>
      </trkpt>
      <trkpt lat="59.877805709838867" lon="29.301309585571289">
        <time>2026-07-26T14:19:42Z</time>
      </trkpt>
      <trkpt lat="59.877827167510986" lon="29.301309585571289">
        <time>2026-07-26T14:19:44Z</time>
      </trkpt>
      <trkpt lat="59.877827167510986" lon="29.301331043243408">
        <time>2026-07-26T14:19:47Z</time>
      </trkpt>
      <trkpt lat="59.877827167510986" lon="29.301331043243408">
        <time>2026-07-26T14:19:49Z</time>
      </trkpt>
      <trkpt lat="59.877827167510986" lon="29.301331043243408">
        <time>2026-07-26T14:19:52Z</time>
      </trkpt>
      <trkpt lat="59.877848625183105" lon="29.301309585571289">
        <time>2026-07-26T14:19:54Z</time>
      </trkpt>
      <trkpt lat="59.877805709838867" lon="29.301331043243408">
        <time>2026-07-26T14:19:57Z</time>
      </trkpt>
      <trkpt lat="59.877784252166748" lon="29.301331043243408">
        <time>2026-07-26T14:19:59Z</time>
      </trkpt>
      <trkpt lat="59.877762794494629" lon="29.301331043243408">
        <time>2026-07-26T14:20:02Z</time>
      </trkpt>
      <trkpt lat="59.877784252166748" lon="29.301331043243408">
        <time>2026-07-26T14:20:04Z</time>
      </trkpt>
      <trkpt lat="59.877784252166748" lon="29.301331043243408">
        <time>2026-07-26T14:20:07Z</time>
      </trkpt>
      <trkpt lat="59.877784252166748" lon="29.301331043243408">
        <time>2026-07-26T14:20:09Z</time>
      </trkpt>
      <trkpt lat="59.877784252166748" lon="29.301352500915527">
        <time>2026-07-26T14:20:12Z</time>
      </trkpt>
      <trkpt lat="59.877805709838867" lon="29.301352500915527">
        <time>2026-07-26T14:20:14Z</time>
      </trkpt>
      <trkpt lat="59.877805709838867" lon="29.301352500915527">
        <time>2026-07-26T14:20:17Z</time>
      </trkpt>
      <trkpt lat="59.877805709838867" lon="29.301352500915527">
        <time>2026-07-26T14:20:19Z</time>
      </trkpt>
      <trkpt lat="59.877805709838867" lon="29.301352500915527">
        <time>2026-07-26T14:20:22Z</time>
      </trkpt>
      <trkpt lat="59.877805709838867" lon="29.301352500915527">
        <time>2026-07-26T14:20:24Z</time>
      </trkpt>
      <trkpt lat="59.877805709838867" lon="29.301352500915527">
        <time>2026-07-26T14:20:27Z</time>
      </trkpt>
      <trkpt lat="59.877805709838867" lon="29.301352500915527">
        <time>2026-07-26T14:20:29Z</time>
      </trkpt>
      <trkpt lat="59.877805709838867" lon="29.301352500915527">
        <time>2026-07-26T14:20:32Z</time>
      </trkpt>
      <trkpt lat="59.877805709838867" lon="29.301352500915527">
        <time>2026-07-26T14:20:34Z</time>
      </trkpt>
      <trkpt lat="59.877762794494629" lon="29.301331043243408">
        <time>2026-07-26T14:20:37Z</time>
      </trkpt>
      <trkpt lat="59.87774133682251" lon="29.301395416259766">
        <time>2026-07-26T14:20:39Z</time>
      </trkpt>
      <trkpt lat="59.87774133682251" lon="29.301438331604004">
        <time>2026-07-26T14:20:42Z</time>
      </trkpt>
      <trkpt lat="59.877719879150391" lon="29.301481246948242">
        <time>2026-07-26T14:20:44Z</time>
      </trkpt>
      <trkpt lat="59.877698421478271" lon="29.301502704620361">
        <time>2026-07-26T14:20:47Z</time>
      </trkpt>
      <trkpt lat="59.877676963806152" lon="29.301502704620361">
        <time>2026-07-26T14:20:49Z</time>
      </trkpt>
      <trkpt lat="59.877676963806152" lon="29.30152416229248">
        <time>2026-07-26T14:20:52Z</time>
      </trkpt>
      <trkpt lat="59.877698421478271" lon="29.301502704620361">
        <time>2026-07-26T14:20:54Z</time>
      </trkpt>
      <trkpt lat="59.877719879150391" lon="29.301438331604004">
        <time>2026-07-26T14:20:57Z</time>
      </trkpt>
      <trkpt lat="59.877719879150391" lon="29.301459789276123">
        <time>2026-07-26T14:20:59Z</time>
      </trkpt>
      <trkpt lat="59.877698421478271" lon="29.301481246948242">
        <time>2026-07-26T14:21:02Z</time>
      </trkpt>
      <trkpt lat="59.877655506134033" lon="29.301502704620361">
        <time>2026-07-26T14:21:04Z</time>
      </trkpt>
      <trkpt lat="59.877655506134033" lon="29.301459789276123">
        <time>2026-07-26T14:21:07Z</time>
      </trkpt>
      <trkpt lat="59.877655506134033" lon="29.301502704620361">
        <time>2026-07-26T14:21:09Z</time>
      </trkpt>
      <trkpt lat="59.877676963806152" lon="29.3015456199646">
        <time>2026-07-26T14:21:12Z</time>
      </trkpt>
      <trkpt lat="59.87774133682251" lon="29.30152416229248">
        <time>2026-07-26T14:21:14Z</time>
      </trkpt>
      <trkpt lat="59.877762794494629" lon="29.301481246948242">
        <time>2026-07-26T14:21:17Z</time>
      </trkpt>
      <trkpt lat="59.877762794494629" lon="29.301481246948242">
        <time>2026-07-26T14:21:19Z</time>
      </trkpt>
      <trkpt lat="59.87774133682251" lon="29.301481246948242">
        <time>2026-07-26T14:21:22Z</time>
      </trkpt>
      <trkpt lat="59.877698421478271" lon="29.301502704620361">
        <time>2026-07-26T14:21:24Z</time>
      </trkpt>
      <trkpt lat="59.877698421478271" lon="29.301481246948242">
        <time>2026-07-26T14:21:27Z</time>
      </trkpt>
      <trkpt lat="59.877655506134033" lon="29.301416873931885">
        <time>2026-07-26T14:21:29Z</time>
      </trkpt>
      <trkpt lat="59.877655506134033" lon="29.301395416259766">
        <time>2026-07-26T14:21:32Z</time>
      </trkpt>
      <trkpt lat="59.877655506134033" lon="29.301352500915527">
        <time>2026-07-26T14:21:34Z</time>
      </trkpt>
      <trkpt lat="59.877655506134033" lon="29.301331043243408">
        <time>2026-07-26T14:21:37Z</time>
      </trkpt>
      <trkpt lat="59.877634048461914" lon="29.301266670227051">
        <time>2026-07-26T14:21:39Z</time>
      </trkpt>
      <trkpt lat="59.877634048461914" lon="29.301245212554932">
        <time>2026-07-26T14:21:42Z</time>
      </trkpt>
      <trkpt lat="59.877634048461914" lon="29.301223754882812">
        <time>2026-07-26T14:21:44Z</time>
      </trkpt>
      <trkpt lat="59.877634048461914" lon="29.301223754882812">
        <time>2026-07-26T14:21:47Z</time>
      </trkpt>
      <trkpt lat="59.877612590789795" lon="29.301223754882812">
        <time>2026-07-26T14:21:49Z</time>
      </trkpt>
      <trkpt lat="59.877591133117676" lon="29.301223754882812">
        <time>2026-07-26T14:21:52Z</time>
      </trkpt>
      <trkpt lat="59.877591133117676" lon="29.301223754882812">
        <time>2026-07-26T14:21:54Z</time>
      </trkpt>
      <trkpt lat="59.877569675445557" lon="29.301223754882812">
        <time>2026-07-26T14:21:57Z</time>
      </trkpt>
      <trkpt lat="59.877569675445557" lon="29.301266670227051">
        <time>2026-07-26T14:21:59Z</time>
      </trkpt>
      <trkpt lat="59.877569675445557" lon="29.30128812789917">
        <time>2026-07-26T14:22:02Z</time>
      </trkpt>
      <trkpt lat="59.877569675445557" lon="29.30128812789917">
        <time>2026-07-26T14:22:04Z</time>
      </trkpt>
      <trkpt lat="59.877569675445557" lon="29.30128812789917">
        <time>2026-07-26T14:22:07Z</time>
      </trkpt>
      <trkpt lat="59.877569675445557" lon="29.30128812789917">
        <time>2026-07-26T14:22:09Z</time>
      </trkpt>
      <trkpt lat="59.877569675445557" lon="29.30128812789917">
        <time>2026-07-26T14:22:12Z</time>
      </trkpt>
      <trkpt lat="59.877548217773438" lon="29.301331043243408">
        <time>2026-07-26T14:22:14Z</time>
      </trkpt>
      <trkpt lat="59.877526760101318" lon="29.301373958587646">
        <time>2026-07-26T14:22:17Z</time>
      </trkpt>
      <trkpt lat="59.877526760101318" lon="29.301373958587646">
        <time>2026-07-26T14:22:19Z</time>
      </trkpt>
      <trkpt lat="59.877526760101318" lon="29.301373958587646">
        <time>2026-07-26T14:22:22Z</time>
      </trkpt>
      <trkpt lat="59.877526760101318" lon="29.301352500915527">
        <time>2026-07-26T14:22:24Z</time>
      </trkpt>
      <trkpt lat="59.877548217773438" lon="29.301352500915527">
        <time>2026-07-26T14:22:27Z</time>
      </trkpt>
      <trkpt lat="59.877569675445557" lon="29.301331043243408">
        <time>2026-07-26T14:22:29Z</time>
      </trkpt>
      <trkpt lat="59.877591133117676" lon="29.30128812789917">
        <time>2026-07-26T14:22:32Z</time>
      </trkpt>
      <trkpt lat="59.877569675445557" lon="29.30128812789917">
        <time>2026-07-26T14:22:34Z</time>
      </trkpt>
      <trkpt lat="59.877548217773438" lon="29.30128812789917">
        <time>2026-07-26T14:22:37Z</time>
      </trkpt>
      <trkpt lat="59.877548217773438" lon="29.30128812789917">
        <time>2026-07-26T14:22:39Z</time>
      </trkpt>
      <trkpt lat="59.877548217773438" lon="29.301245212554932">
        <time>2026-07-26T14:22:42Z</time>
      </trkpt>
      <trkpt lat="59.877548217773438" lon="29.301223754882812">
        <time>2026-07-26T14:22:44Z</time>
      </trkpt>
      <trkpt lat="59.877526760101318" lon="29.301309585571289">
        <time>2026-07-26T14:22:47Z</time>
      </trkpt>
      <trkpt lat="59.877505302429199" lon="29.301331043243408">
        <time>2026-07-26T14:22:49Z</time>
      </trkpt>
      <trkpt lat="59.87748384475708" lon="29.301373958587646">
        <time>2026-07-26T14:22:52Z</time>
      </trkpt>
      <trkpt lat="59.877462387084961" lon="29.301395416259766">
        <time>2026-07-26T14:22:54Z</time>
      </trkpt>
      <trkpt lat="59.877419471740723" lon="29.301438331604004">
        <time>2026-07-26T14:22:57Z</time>
      </trkpt>
      <trkpt lat="59.877419471740723" lon="29.301481246948242">
        <time>2026-07-26T14:22:59Z</time>
      </trkpt>
      <trkpt lat="59.877419471740723" lon="29.301481246948242">
        <time>2026-07-26T14:23:02Z</time>
      </trkpt>
      <trkpt lat="59.877419471740723" lon="29.301481246948242">
        <time>2026-07-26T14:23:04Z</time>
      </trkpt>
      <trkpt lat="59.877419471740723" lon="29.301481246948242">
        <time>2026-07-26T14:23:07Z</time>
      </trkpt>
      <trkpt lat="59.877419471740723" lon="29.301502704620361">
        <time>2026-07-26T14:23:09Z</time>
      </trkpt>
      <trkpt lat="59.877398014068604" lon="29.3015456199646">
        <time>2026-07-26T14:23:12Z</time>
      </trkpt>
      <trkpt lat="59.877355098724365" lon="29.301567077636719">
        <time>2026-07-26T14:23:14Z</time>
      </trkpt>
      <trkpt lat="59.877355098724365" lon="29.301567077636719">
        <time>2026-07-26T14:23:17Z</time>
      </trkpt>
      <trkpt lat="59.877312183380127" lon="29.301567077636719">
        <time>2026-07-26T14:23:19Z</time>
      </trkpt>
      <trkpt lat="59.877269268035889" lon="29.301588535308838">
        <time>2026-07-26T14:23:22Z</time>
      </trkpt>
      <trkpt lat="59.87724781036377" lon="29.301609992980957">
        <time>2026-07-26T14:23:24Z</time>
      </trkpt>
      <trkpt lat="59.87722635269165" lon="29.301609992980957">
        <time>2026-07-26T14:23:27Z</time>
      </trkpt>
      <trkpt lat="59.87722635269165" lon="29.301631450653076">
        <time>2026-07-26T14:23:29Z</time>
      </trkpt>
      <trkpt lat="59.877204895019531" lon="29.301652908325195">
        <time>2026-07-26T14:23:32Z</time>
      </trkpt>
      <trkpt lat="59.877204895019531" lon="29.301695823669434">
        <time>2026-07-26T14:23:34Z</time>
      </trkpt>
      <trkpt lat="59.877183437347412" lon="29.301717281341553">
        <time>2026-07-26T14:23:37Z</time>
      </trkpt>
      <trkpt lat="59.877161979675293" lon="29.301717281341553">
        <time>2026-07-26T14:23:39Z</time>
      </trkpt>
      <trkpt lat="59.877161979675293" lon="29.301738739013672">
        <time>2026-07-26T14:23:42Z</time>
      </trkpt>
      <trkpt lat="59.877161979675293" lon="29.301760196685791">
        <time>2026-07-26T14:23:44Z</time>
      </trkpt>
      <trkpt lat="59.877161979675293" lon="29.301760196685791">
        <time>2026-07-26T14:23:47Z</time>
      </trkpt>
      <trkpt lat="59.877140522003174" lon="29.301738739013672">
        <time>2026-07-26T14:23:49Z</time>
      </trkpt>
      <trkpt lat="59.877119064331055" lon="29.301717281341553">
        <time>2026-07-26T14:23:52Z</time>
      </trkpt>
      <trkpt lat="59.877076148986816" lon="29.301738739013672">
        <time>2026-07-26T14:23:54Z</time>
      </trkpt>
      <trkpt lat="59.877033233642578" lon="29.301760196685791">
        <time>2026-07-26T14:23:57Z</time>
      </trkpt>
      <trkpt lat="59.87699031829834" lon="29.30178165435791">
        <time>2026-07-26T14:23:59Z</time>
      </trkpt>
      <trkpt lat="59.87699031829834" lon="29.30178165435791">
        <time>2026-07-26T14:24:02Z</time>
      </trkpt>
      <trkpt lat="59.87699031829834" lon="29.30178165435791">
        <time>2026-07-26T14:24:04Z</time>
      </trkpt>
      <trkpt lat="59.876968860626221" lon="29.30178165435791">
        <time>2026-07-26T14:24:07Z</time>
      </trkpt>
      <trkpt lat="59.87699031829834" lon="29.301803112030029">
        <time>2026-07-26T14:24:09Z</time>
      </trkpt>
      <trkpt lat="59.87699031829834" lon="29.301824569702148">
        <time>2026-07-26T14:24:12Z</time>
      </trkpt>
      <trkpt lat="59.87699031829834" lon="29.301824569702148">
        <time>2026-07-26T14:24:14Z</time>
      </trkpt>
      <trkpt lat="59.87699031829834" lon="29.301867485046387">
        <time>2026-07-26T14:24:17Z</time>
      </trkpt>
      <trkpt lat="59.87699031829834" lon="29.301867485046387">
        <time>2026-07-26T14:24:19Z</time>
      </trkpt>
      <trkpt lat="59.877011775970459" lon="29.301867485046387">
        <time>2026-07-26T14:24:22Z</time>
      </trkpt>
      <trkpt lat="59.877011775970459" lon="29.301910400390625">
        <time>2026-07-26T14:24:24Z</time>
      </trkpt>
      <trkpt lat="59.877011775970459" lon="29.301931858062744">
        <time>2026-07-26T14:24:27Z</time>
      </trkpt>
      <trkpt lat="59.877033233642578" lon="29.301974773406982">
        <time>2026-07-26T14:24:29Z</time>
      </trkpt>
      <trkpt lat="59.877054691314697" lon="29.302017688751221">
        <time>2026-07-26T14:24:32Z</time>
      </trkpt>
      <trkpt lat="59.877054691314697" lon="29.30203914642334">
        <time>2026-07-26T14:24:34Z</time>
      </trkpt>
      <trkpt lat="59.877054691314697" lon="29.302060604095459">
        <time>2026-07-26T14:24:37Z</time>
      </trkpt>
      <trkpt lat="59.877054691314697" lon="29.302060604095459">
        <time>2026-07-26T14:24:39Z</time>
      </trkpt>
      <trkpt lat="59.877076148986816" lon="29.302082061767578">
        <time>2026-07-26T14:24:42Z</time>
      </trkpt>
      <trkpt lat="59.877076148986816" lon="29.302082061767578">
        <time>2026-07-26T14:24:44Z</time>
      </trkpt>
      <trkpt lat="59.877076148986816" lon="29.302103519439697">
        <time>2026-07-26T14:24:47Z</time>
      </trkpt>
      <trkpt lat="59.877054691314697" lon="29.302124977111816">
        <time>2026-07-26T14:24:49Z</time>
      </trkpt>
      <trkpt lat="59.877033233642578" lon="29.302103519439697">
        <time>2026-07-26T14:24:52Z</time>
      </trkpt>
      <trkpt lat="59.877011775970459" lon="29.302103519439697">
        <time>2026-07-26T14:24:54Z</time>
      </trkpt>
      <trkpt lat="59.877011775970459" lon="29.302103519439697">
        <time>2026-07-26T14:24:57Z</time>
      </trkpt>
      <trkpt lat="59.877011775970459" lon="29.302103519439697">
        <time>2026-07-26T14:24:59Z</time>
      </trkpt>
      <trkpt lat="59.877011775970459" lon="29.302082061767578">
        <time>2026-07-26T14:25:02Z</time>
      </trkpt>
      <trkpt lat="59.876968860626221" lon="29.302060604095459">
        <time>2026-07-26T14:25:04Z</time>
      </trkpt>
      <trkpt lat="59.876947402954102" lon="29.302060604095459">
        <time>2026-07-26T14:25:07Z</time>
      </trkpt>
      <trkpt lat="59.876925945281982" lon="29.30203914642334">
        <time>2026-07-26T14:25:09Z</time>
      </trkpt>
      <trkpt lat="59.876904487609863" lon="29.30203914642334">
        <time>2026-07-26T14:25:12Z</time>
      </trkpt>
      <trkpt lat="59.876904487609863" lon="29.30203914642334">
        <time>2026-07-26T14:25:14Z</time>
      </trkpt>
      <trkpt lat="59.876904487609863" lon="29.302017688751221">
        <time>2026-07-26T14:25:17Z</time>
      </trkpt>
      <trkpt lat="59.876904487609863" lon="29.301996231079102">
        <time>2026-07-26T14:25:19Z</time>
      </trkpt>
      <trkpt lat="59.876904487609863" lon="29.302017688751221">
        <time>2026-07-26T14:25:22Z</time>
      </trkpt>
      <trkpt lat="59.876904487609863" lon="29.30203914642334">
        <time>2026-07-26T14:25:24Z</time>
      </trkpt>
      <trkpt lat="59.876904487609863" lon="29.302103519439697">
        <time>2026-07-26T14:25:27Z</time>
      </trkpt>
      <trkpt lat="59.876883029937744" lon="29.302167892456055">
        <time>2026-07-26T14:25:29Z</time>
      </trkpt>
      <trkpt lat="59.876861572265625" lon="29.302210807800293">
        <time>2026-07-26T14:25:32Z</time>
      </trkpt>
      <trkpt lat="59.876840114593506" lon="29.302253723144531">
        <time>2026-07-26T14:25:34Z</time>
      </trkpt>
      <trkpt lat="59.876818656921387" lon="29.30227518081665">
        <time>2026-07-26T14:25:37Z</time>
      </trkpt>
      <trkpt lat="59.876818656921387" lon="29.30229663848877">
        <time>2026-07-26T14:25:39Z</time>
      </trkpt>
      <trkpt lat="59.876818656921387" lon="29.302339553833008">
        <time>2026-07-26T14:25:42Z</time>
      </trkpt>
      <trkpt lat="59.876818656921387" lon="29.302382469177246">
        <time>2026-07-26T14:25:44Z</time>
      </trkpt>
      <trkpt lat="59.876797199249268" lon="29.302403926849365">
        <time>2026-07-26T14:25:47Z</time>
      </trkpt>
      <trkpt lat="59.876797199249268" lon="29.302425384521484">
        <time>2026-07-26T14:25:49Z</time>
      </trkpt>
      <trkpt lat="59.876797199249268" lon="29.302425384521484">
        <time>2026-07-26T14:25:52Z</time>
      </trkpt>
      <trkpt lat="59.876797199249268" lon="29.302468299865723">
        <time>2026-07-26T14:25:54Z</time>
      </trkpt>
      <trkpt lat="59.876797199249268" lon="29.302468299865723">
        <time>2026-07-26T14:25:57Z</time>
      </trkpt>
      <trkpt lat="59.876775741577148" lon="29.302403926849365">
        <time>2026-07-26T14:25:59Z</time>
      </trkpt>
      <trkpt lat="59.876754283905029" lon="29.302382469177246">
        <time>2026-07-26T14:26:02Z</time>
      </trkpt>
      <trkpt lat="59.876754283905029" lon="29.302361011505127">
        <time>2026-07-26T14:26:04Z</time>
      </trkpt>
      <trkpt lat="59.876754283905029" lon="29.302339553833008">
        <time>2026-07-26T14:26:07Z</time>
      </trkpt>
      <trkpt lat="59.87673282623291" lon="29.302318096160889">
        <time>2026-07-26T14:26:09Z</time>
      </trkpt>
      <trkpt lat="59.87673282623291" lon="29.302253723144531">
        <time>2026-07-26T14:26:12Z</time>
      </trkpt>
      <trkpt lat="59.876711368560791" lon="29.302210807800293">
        <time>2026-07-26T14:26:14Z</time>
      </trkpt>
      <trkpt lat="59.876689910888672" lon="29.302232265472412">
        <time>2026-07-26T14:26:17Z</time>
      </trkpt>
      <trkpt lat="59.876646995544434" lon="29.302253723144531">
        <time>2026-07-26T14:26:19Z</time>
      </trkpt>
      <trkpt lat="59.876625537872314" lon="29.302232265472412">
        <time>2026-07-26T14:26:22Z</time>
      </trkpt>
      <trkpt lat="59.876625537872314" lon="29.302189350128174">
        <time>2026-07-26T14:26:24Z</time>
      </trkpt>
      <trkpt lat="59.876625537872314" lon="29.302146434783936">
        <time>2026-07-26T14:26:27Z</time>
      </trkpt>
      <trkpt lat="59.876582622528076" lon="29.302103519439697">
        <time>2026-07-26T14:26:29Z</time>
      </trkpt>
      <trkpt lat="59.876561164855957" lon="29.302124977111816">
        <time>2026-07-26T14:26:32Z</time>
      </trkpt>
      <trkpt lat="59.876561164855957" lon="29.302103519439697">
        <time>2026-07-26T14:26:34Z</time>
      </trkpt>
      <trkpt lat="59.876582622528076" lon="29.302103519439697">
        <time>2026-07-26T14:26:37Z</time>
      </trkpt>
      <trkpt lat="59.876582622528076" lon="29.302146434783936">
        <time>2026-07-26T14:26:39Z</time>
      </trkpt>
      <trkpt lat="59.876582622528076" lon="29.302210807800293">
        <time>2026-07-26T14:26:42Z</time>
      </trkpt>
      <trkpt lat="59.876582622528076" lon="29.30229663848877">
        <time>2026-07-26T14:26:44Z</time>
      </trkpt>
      <trkpt lat="59.876582622528076" lon="29.302361011505127">
        <time>2026-07-26T14:26:47Z</time>
      </trkpt>
      <trkpt lat="59.876646995544434" lon="29.302382469177246">
        <time>2026-07-26T14:26:49Z</time>
      </trkpt>
      <trkpt lat="59.876668453216553" lon="29.302403926849365">
        <time>2026-07-26T14:26:52Z</time>
      </trkpt>
      <trkpt lat="59.87673282623291" lon="29.302446842193604">
        <time>2026-07-26T14:26:54Z</time>
      </trkpt>
      <trkpt lat="59.876754283905029" lon="29.302425384521484">
        <time>2026-07-26T14:26:57Z</time>
      </trkpt>
      <trkpt lat="59.876775741577148" lon="29.302403926849365">
        <time>2026-07-26T14:26:59Z</time>
      </trkpt>
      <trkpt lat="59.876797199249268" lon="29.302382469177246">
        <time>2026-07-26T14:27:02Z</time>
      </trkpt>
      <trkpt lat="59.876797199249268" lon="29.302382469177246">
        <time>2026-07-26T14:27:04Z</time>
      </trkpt>
      <trkpt lat="59.876797199249268" lon="29.302361011505127">
        <time>2026-07-26T14:27:07Z</time>
      </trkpt>
      <trkpt lat="59.876818656921387" lon="29.302339553833008">
        <time>2026-07-26T14:27:09Z</time>
      </trkpt>
      <trkpt lat="59.876818656921387" lon="29.302339553833008">
        <time>2026-07-26T14:27:12Z</time>
      </trkpt>
      <trkpt lat="59.876818656921387" lon="29.302339553833008">
        <time>2026-07-26T14:27:14Z</time>
      </trkpt>
      <trkpt lat="59.876818656921387" lon="29.302318096160889">
        <time>2026-07-26T14:27:17Z</time>
      </trkpt>
      <trkpt lat="59.876818656921387" lon="29.30227518081665">
        <time>2026-07-26T14:27:19Z</time>
      </trkpt>
      <trkpt lat="59.876797199249268" lon="29.30227518081665">
        <time>2026-07-26T14:27:22Z</time>
      </trkpt>
      <trkpt lat="59.876775741577148" lon="29.302232265472412">
        <time>2026-07-26T14:27:24Z</time>
      </trkpt>
      <trkpt lat="59.876754283905029" lon="29.302232265472412">
        <time>2026-07-26T14:27:27Z</time>
      </trkpt>
      <trkpt lat="59.876775741577148" lon="29.302253723144531">
        <time>2026-07-26T14:27:29Z</time>
      </trkpt>
      <trkpt lat="59.876775741577148" lon="29.30227518081665">
        <time>2026-07-26T14:27:32Z</time>
      </trkpt>
      <trkpt lat="59.876775741577148" lon="29.302232265472412">
        <time>2026-07-26T14:27:34Z</time>
      </trkpt>
      <trkpt lat="59.876775741577148" lon="29.302210807800293">
        <time>2026-07-26T14:27:37Z</time>
      </trkpt>
      <trkpt lat="59.876775741577148" lon="29.30227518081665">
        <time>2026-07-26T14:27:39Z</time>
      </trkpt>
      <trkpt lat="59.876775741577148" lon="29.30229663848877">
        <time>2026-07-26T14:27:42Z</time>
      </trkpt>
      <trkpt lat="59.876775741577148" lon="29.302318096160889">
        <time>2026-07-26T14:27:44Z</time>
      </trkpt>
      <trkpt lat="59.876797199249268" lon="29.302318096160889">
        <time>2026-07-26T14:27:47Z</time>
      </trkpt>
      <trkpt lat="59.876818656921387" lon="29.302382469177246">
        <time>2026-07-26T14:27:49Z</time>
      </trkpt>
      <trkpt lat="59.876818656921387" lon="29.302382469177246">
        <time>2026-07-26T14:27:52Z</time>
      </trkpt>
      <trkpt lat="59.876797199249268" lon="29.302446842193604">
        <time>2026-07-26T14:27:54Z</time>
      </trkpt>
      <trkpt lat="59.876775741577148" lon="29.302446842193604">
        <time>2026-07-26T14:27:57Z</time>
      </trkpt>
      <trkpt lat="59.876775741577148" lon="29.302446842193604">
        <time>2026-07-26T14:27:59Z</time>
      </trkpt>
      <trkpt lat="59.876775741577148" lon="29.302446842193604">
        <time>2026-07-26T14:28:02Z</time>
      </trkpt>
      <trkpt lat="59.876818656921387" lon="29.302382469177246">
        <time>2026-07-26T14:28:04Z</time>
      </trkpt>
      <trkpt lat="59.876818656921387" lon="29.302361011505127">
        <time>2026-07-26T14:28:07Z</time>
      </trkpt>
      <trkpt lat="59.876797199249268" lon="29.302361011505127">
        <time>2026-07-26T14:28:09Z</time>
      </trkpt>
      <trkpt lat="59.876797199249268" lon="29.302425384521484">
        <time>2026-07-26T14:28:12Z</time>
      </trkpt>
      <trkpt lat="59.876775741577148" lon="29.302446842193604">
        <time>2026-07-26T14:28:14Z</time>
      </trkpt>
      <trkpt lat="59.876754283905029" lon="29.302403926849365">
        <time>2026-07-26T14:28:17Z</time>
      </trkpt>
      <trkpt lat="59.876711368560791" lon="29.302361011505127">
        <time>2026-07-26T14:28:19Z</time>
      </trkpt>
      <trkpt lat="59.876689910888672" lon="29.302339553833008">
        <time>2026-07-26T14:28:22Z</time>
      </trkpt>
      <trkpt lat="59.876711368560791" lon="29.30229663848877">
        <time>2026-07-26T14:28:24Z</time>
      </trkpt>
      <trkpt lat="59.876711368560791" lon="29.30229663848877">
        <time>2026-07-26T14:28:27Z</time>
      </trkpt>
      <trkpt lat="59.876689910888672" lon="29.30229663848877">
        <time>2026-07-26T14:28:29Z</time>
      </trkpt>
      <trkpt lat="59.876689910888672" lon="29.302361011505127">
        <time>2026-07-26T14:28:32Z</time>
      </trkpt>
      <trkpt lat="59.876711368560791" lon="29.302403926849365">
        <time>2026-07-26T14:28:34Z</time>
      </trkpt>
      <trkpt lat="59.876754283905029" lon="29.302403926849365">
        <time>2026-07-26T14:28:37Z</time>
      </trkpt>
      <trkpt lat="59.876797199249268" lon="29.302339553833008">
        <time>2026-07-26T14:28:39Z</time>
      </trkpt>
      <trkpt lat="59.876797199249268" lon="29.302318096160889">
        <time>2026-07-26T14:28:42Z</time>
      </trkpt>
      <trkpt lat="59.876840114593506" lon="29.302253723144531">
        <time>2026-07-26T14:28:44Z</time>
      </trkpt>
      <trkpt lat="59.876818656921387" lon="29.302167892456055">
        <time>2026-07-26T14:28:47Z</time>
      </trkpt>
      <trkpt lat="59.876797199249268" lon="29.302146434783936">
        <time>2026-07-26T14:28:49Z</time>
      </trkpt>
      <trkpt lat="59.876797199249268" lon="29.302232265472412">
        <time>2026-07-26T14:28:52Z</time>
      </trkpt>
      <trkpt lat="59.876775741577148" lon="29.302339553833008">
        <time>2026-07-26T14:28:54Z</time>
      </trkpt>
      <trkpt lat="59.87673282623291" lon="29.302339553833008">
        <time>2026-07-26T14:28:57Z</time>
      </trkpt>
      <trkpt lat="59.876711368560791" lon="29.302339553833008">
        <time>2026-07-26T14:28:59Z</time>
      </trkpt>
      <trkpt lat="59.876689910888672" lon="29.302361011505127">
        <time>2026-07-26T14:29:02Z</time>
      </trkpt>
      <trkpt lat="59.876625537872314" lon="29.302382469177246">
        <time>2026-07-26T14:29:04Z</time>
      </trkpt>
      <trkpt lat="59.876604080200195" lon="29.302382469177246">
        <time>2026-07-26T14:29:07Z</time>
      </trkpt>
      <trkpt lat="59.876561164855957" lon="29.302361011505127">
        <time>2026-07-26T14:29:09Z</time>
      </trkpt>
      <trkpt lat="59.876561164855957" lon="29.302361011505127">
        <time>2026-07-26T14:29:12Z</time>
      </trkpt>
      <trkpt lat="59.876518249511719" lon="29.302339553833008">
        <time>2026-07-26T14:29:14Z</time>
      </trkpt>
      <trkpt lat="59.8764967918396" lon="29.302339553833008">
        <time>2026-07-26T14:29:17Z</time>
      </trkpt>
      <trkpt lat="59.87647533416748" lon="29.302339553833008">
        <time>2026-07-26T14:29:19Z</time>
      </trkpt>
      <trkpt lat="59.876453876495361" lon="29.302339553833008">
        <time>2026-07-26T14:29:22Z</time>
      </trkpt>
      <trkpt lat="59.876432418823242" lon="29.302339553833008">
        <time>2026-07-26T14:29:24Z</time>
      </trkpt>
      <trkpt lat="59.876432418823242" lon="29.302318096160889">
        <time>2026-07-26T14:29:27Z</time>
      </trkpt>
      <trkpt lat="59.876410961151123" lon="29.30229663848877">
        <time>2026-07-26T14:29:29Z</time>
      </trkpt>
      <trkpt lat="59.876410961151123" lon="29.302318096160889">
        <time>2026-07-26T14:29:32Z</time>
      </trkpt>
      <trkpt lat="59.876410961151123" lon="29.30229663848877">
        <time>2026-07-26T14:29:34Z</time>
      </trkpt>
      <trkpt lat="59.876410961151123" lon="29.30227518081665">
        <time>2026-07-26T14:29:37Z</time>
      </trkpt>
      <trkpt lat="59.876389503479004" lon="29.302253723144531">
        <time>2026-07-26T14:29:39Z</time>
      </trkpt>
      <trkpt lat="59.876410961151123" lon="29.30229663848877">
        <time>2026-07-26T14:29:42Z</time>
      </trkpt>
      <trkpt lat="59.876346588134766" lon="29.302318096160889">
        <time>2026-07-26T14:29:44Z</time>
      </trkpt>
      <trkpt lat="59.876325130462646" lon="29.30229663848877">
        <time>2026-07-26T14:29:47Z</time>
      </trkpt>
      <trkpt lat="59.876303672790527" lon="29.30227518081665">
        <time>2026-07-26T14:29:49Z</time>
      </trkpt>
      <trkpt lat="59.876303672790527" lon="29.30229663848877">
        <time>2026-07-26T14:29:52Z</time>
      </trkpt>
      <trkpt lat="59.876325130462646" lon="29.30227518081665">
        <time>2026-07-26T14:29:54Z</time>
      </trkpt>
      <trkpt lat="59.876325130462646" lon="29.30227518081665">
        <time>2026-07-26T14:29:57Z</time>
      </trkpt>
      <trkpt lat="59.876325130462646" lon="29.30227518081665">
        <time>2026-07-26T14:29:59Z</time>
      </trkpt>
      <trkpt lat="59.876325130462646" lon="29.30227518081665">
        <time>2026-07-26T14:30:02Z</time>
      </trkpt>
      <trkpt lat="59.876325130462646" lon="29.30227518081665">
        <time>2026-07-26T14:30:04Z</time>
      </trkpt>
      <trkpt lat="59.876325130462646" lon="29.30227518081665">
        <time>2026-07-26T14:30:07Z</time>
      </trkpt>
      <trkpt lat="59.876282215118408" lon="29.30229663848877">
        <time>2026-07-26T14:30:09Z</time>
      </trkpt>
      <trkpt lat="59.876260757446289" lon="29.30229663848877">
        <time>2026-07-26T14:30:12Z</time>
      </trkpt>
      <trkpt lat="59.876260757446289" lon="29.302318096160889">
        <time>2026-07-26T14:30:14Z</time>
      </trkpt>
      <trkpt lat="59.876260757446289" lon="29.302318096160889">
        <time>2026-07-26T14:30:17Z</time>
      </trkpt>
      <trkpt lat="59.876282215118408" lon="29.302232265472412">
        <time>2026-07-26T14:30:19Z</time>
      </trkpt>
      <trkpt lat="59.876282215118408" lon="29.302210807800293">
        <time>2026-07-26T14:30:22Z</time>
      </trkpt>
      <trkpt lat="59.876282215118408" lon="29.302253723144531">
        <time>2026-07-26T14:30:24Z</time>
      </trkpt>
      <trkpt lat="59.876282215118408" lon="29.30227518081665">
        <time>2026-07-26T14:30:27Z</time>
      </trkpt>
      <trkpt lat="59.876282215118408" lon="29.30229663848877">
        <time>2026-07-26T14:30:29Z</time>
      </trkpt>
      <trkpt lat="59.876303672790527" lon="29.30229663848877">
        <time>2026-07-26T14:30:32Z</time>
      </trkpt>
      <trkpt lat="59.876325130462646" lon="29.30227518081665">
        <time>2026-07-26T14:30:34Z</time>
      </trkpt>
      <trkpt lat="59.876325130462646" lon="29.30227518081665">
        <time>2026-07-26T14:30:37Z</time>
      </trkpt>
      <trkpt lat="59.876260757446289" lon="29.302253723144531">
        <time>2026-07-26T14:30:39Z</time>
      </trkpt>
      <trkpt lat="59.876260757446289" lon="29.30227518081665">
        <time>2026-07-26T14:30:42Z</time>
      </trkpt>
      <trkpt lat="59.876260757446289" lon="29.30227518081665">
        <time>2026-07-26T14:30:44Z</time>
      </trkpt>
      <trkpt lat="59.876260757446289" lon="29.30229663848877">
        <time>2026-07-26T14:30:47Z</time>
      </trkpt>
      <trkpt lat="59.876260757446289" lon="29.30229663848877">
        <time>2026-07-26T14:30:49Z</time>
      </trkpt>
      <trkpt lat="59.876260757446289" lon="29.30229663848877">
        <time>2026-07-26T14:30:52Z</time>
      </trkpt>
      <trkpt lat="59.876260757446289" lon="29.30229663848877">
        <time>2026-07-26T14:30:54Z</time>
      </trkpt>
      <trkpt lat="59.876260757446289" lon="29.30229663848877">
        <time>2026-07-26T14:30:57Z</time>
      </trkpt>
      <trkpt lat="59.876260757446289" lon="29.30229663848877">
        <time>2026-07-26T14:30:59Z</time>
      </trkpt>
      <trkpt lat="59.876260757446289" lon="29.30229663848877">
        <time>2026-07-26T14:31:02Z</time>
      </trkpt>
      <trkpt lat="59.876260757446289" lon="29.30229663848877">
        <time>2026-07-26T14:31:04Z</time>
      </trkpt>
      <trkpt lat="59.876260757446289" lon="29.302318096160889">
        <time>2026-07-26T14:31:07Z</time>
      </trkpt>
      <trkpt lat="59.876260757446289" lon="29.302318096160889">
        <time>2026-07-26T14:31:09Z</time>
      </trkpt>
      <trkpt lat="59.876260757446289" lon="29.302318096160889">
        <time>2026-07-26T14:31:12Z</time>
      </trkpt>
      <trkpt lat="59.876260757446289" lon="29.302318096160889">
        <time>2026-07-26T14:31:14Z</time>
      </trkpt>
      <trkpt lat="59.876260757446289" lon="29.302318096160889">
        <time>2026-07-26T14:31:17Z</time>
      </trkpt>
      <trkpt lat="59.876260757446289" lon="29.302318096160889">
        <time>2026-07-26T14:31:19Z</time>
      </trkpt>
      <trkpt lat="59.876260757446289" lon="29.302318096160889">
        <time>2026-07-26T14:31:22Z</time>
      </trkpt>
      <trkpt lat="59.876260757446289" lon="29.302318096160889">
        <time>2026-07-26T14:31:24Z</time>
      </trkpt>
      <trkpt lat="59.876260757446289" lon="29.302318096160889">
        <time>2026-07-26T14:31:27Z</time>
      </trkpt>
      <trkpt lat="59.876260757446289" lon="29.302318096160889">
        <time>2026-07-26T14:31:29Z</time>
      </trkpt>
      <trkpt lat="59.876282215118408" lon="29.30227518081665">
        <time>2026-07-26T14:31:32Z</time>
      </trkpt>
      <trkpt lat="59.876282215118408" lon="29.302318096160889">
        <time>2026-07-26T14:31:34Z</time>
      </trkpt>
      <trkpt lat="59.876282215118408" lon="29.30229663848877">
        <time>2026-07-26T14:31:37Z</time>
      </trkpt>
      <trkpt lat="59.876260757446289" lon="29.30227518081665">
        <time>2026-07-26T14:31:39Z</time>
      </trkpt>
      <trkpt lat="59.87623929977417" lon="29.30227518081665">
        <time>2026-07-26T14:31:42Z</time>
      </trkpt>
      <trkpt lat="59.87623929977417" lon="29.30227518081665">
        <time>2026-07-26T14:31:44Z</time>
      </trkpt>
      <trkpt lat="59.87623929977417" lon="29.302318096160889">
        <time>2026-07-26T14:31:47Z</time>
      </trkpt>
      <trkpt lat="59.876217842102051" lon="29.302361011505127">
        <time>2026-07-26T14:31:49Z</time>
      </trkpt>
      <trkpt lat="59.876196384429932" lon="29.302403926849365">
        <time>2026-07-26T14:31:52Z</time>
      </trkpt>
      <trkpt lat="59.876153469085693" lon="29.302403926849365">
        <time>2026-07-26T14:31:54Z</time>
      </trkpt>
      <trkpt lat="59.876132011413574" lon="29.302468299865723">
        <time>2026-07-26T14:31:57Z</time>
      </trkpt>
      <trkpt lat="59.876110553741455" lon="29.302489757537842">
        <time>2026-07-26T14:31:59Z</time>
      </trkpt>
      <trkpt lat="59.876132011413574" lon="29.302511215209961">
        <time>2026-07-26T14:32:02Z</time>
      </trkpt>
      <trkpt lat="59.876153469085693" lon="29.302511215209961">
        <time>2026-07-26T14:32:04Z</time>
      </trkpt>
      <trkpt lat="59.876174926757812" lon="29.302446842193604">
        <time>2026-07-26T14:32:07Z</time>
      </trkpt>
      <trkpt lat="59.876132011413574" lon="29.302446842193604">
        <time>2026-07-26T14:32:09Z</time>
      </trkpt>
      <trkpt lat="59.876110553741455" lon="29.302446842193604">
        <time>2026-07-26T14:32:12Z</time>
      </trkpt>
      <trkpt lat="59.876067638397217" lon="29.302468299865723">
        <time>2026-07-26T14:32:14Z</time>
      </trkpt>
      <trkpt lat="59.876067638397217" lon="29.302446842193604">
        <time>2026-07-26T14:32:17Z</time>
      </trkpt>
      <trkpt lat="59.876046180725098" lon="29.302446842193604">
        <time>2026-07-26T14:32:19Z</time>
      </trkpt>
      <trkpt lat="59.876067638397217" lon="29.302468299865723">
        <time>2026-07-26T14:32:22Z</time>
      </trkpt>
      <trkpt lat="59.876132011413574" lon="29.302446842193604">
        <time>2026-07-26T14:32:24Z</time>
      </trkpt>
      <trkpt lat="59.876174926757812" lon="29.302446842193604">
        <time>2026-07-26T14:32:27Z</time>
      </trkpt>
      <trkpt lat="59.876153469085693" lon="29.302554130554199">
        <time>2026-07-26T14:32:29Z</time>
      </trkpt>
      <trkpt lat="59.876110553741455" lon="29.302575588226318">
        <time>2026-07-26T14:32:32Z</time>
      </trkpt>
      <trkpt lat="59.876067638397217" lon="29.302661418914795">
        <time>2026-07-26T14:32:34Z</time>
      </trkpt>
      <trkpt lat="59.876046180725098" lon="29.302704334259033">
        <time>2026-07-26T14:32:37Z</time>
      </trkpt>
      <trkpt lat="59.876003265380859" lon="29.302768707275391">
        <time>2026-07-26T14:32:39Z</time>
      </trkpt>
      <trkpt lat="59.87598180770874" lon="29.302768707275391">
        <time>2026-07-26T14:32:42Z</time>
      </trkpt>
      <trkpt lat="59.876003265380859" lon="29.30279016494751">
        <time>2026-07-26T14:32:44Z</time>
      </trkpt>
      <trkpt lat="59.876024723052979" lon="29.302768707275391">
        <time>2026-07-26T14:32:47Z</time>
      </trkpt>
      <trkpt lat="59.876003265380859" lon="29.302811622619629">
        <time>2026-07-26T14:32:49Z</time>
      </trkpt>
      <trkpt lat="59.876003265380859" lon="29.302833080291748">
        <time>2026-07-26T14:32:52Z</time>
      </trkpt>
      <trkpt lat="59.876003265380859" lon="29.302833080291748">
        <time>2026-07-26T14:32:54Z</time>
      </trkpt>
      <trkpt lat="59.876003265380859" lon="29.302833080291748">
        <time>2026-07-26T14:32:57Z</time>
      </trkpt>
      <trkpt lat="59.876003265380859" lon="29.302833080291748">
        <time>2026-07-26T14:32:59Z</time>
      </trkpt>
      <trkpt lat="59.876003265380859" lon="29.302854537963867">
        <time>2026-07-26T14:33:02Z</time>
      </trkpt>
      <trkpt lat="59.876003265380859" lon="29.302875995635986">
        <time>2026-07-26T14:33:04Z</time>
      </trkpt>
      <trkpt lat="59.876003265380859" lon="29.302897453308105">
        <time>2026-07-26T14:33:07Z</time>
      </trkpt>
      <trkpt lat="59.876003265380859" lon="29.302983283996582">
        <time>2026-07-26T14:33:09Z</time>
      </trkpt>
      <trkpt lat="59.876003265380859" lon="29.303047657012939">
        <time>2026-07-26T14:33:12Z</time>
      </trkpt>
      <trkpt lat="59.87598180770874" lon="29.303154945373535">
        <time>2026-07-26T14:33:14Z</time>
      </trkpt>
      <trkpt lat="59.875960350036621" lon="29.303197860717773">
        <time>2026-07-26T14:33:17Z</time>
      </trkpt>
      <trkpt lat="59.87598180770874" lon="29.303219318389893">
        <time>2026-07-26T14:33:19Z</time>
      </trkpt>
      <trkpt lat="59.87598180770874" lon="29.30328369140625">
        <time>2026-07-26T14:33:22Z</time>
      </trkpt>
      <trkpt lat="59.875960350036621" lon="29.303348064422607">
        <time>2026-07-26T14:33:24Z</time>
      </trkpt>
      <trkpt lat="59.875938892364502" lon="29.303390979766846">
        <time>2026-07-26T14:33:27Z</time>
      </trkpt>
      <trkpt lat="59.875938892364502" lon="29.303433895111084">
        <time>2026-07-26T14:33:29Z</time>
      </trkpt>
      <trkpt lat="59.875917434692383" lon="29.303455352783203">
        <time>2026-07-26T14:33:32Z</time>
      </trkpt>
      <trkpt lat="59.875917434692383" lon="29.303498268127441">
        <time>2026-07-26T14:33:34Z</time>
      </trkpt>
      <trkpt lat="59.875917434692383" lon="29.30354118347168">
        <time>2026-07-26T14:33:37Z</time>
      </trkpt>
      <trkpt lat="59.875917434692383" lon="29.303605556488037">
        <time>2026-07-26T14:33:39Z</time>
      </trkpt>
      <trkpt lat="59.875917434692383" lon="29.303627014160156">
        <time>2026-07-26T14:33:42Z</time>
      </trkpt>
      <trkpt lat="59.875917434692383" lon="29.303712844848633">
        <time>2026-07-26T14:33:44Z</time>
      </trkpt>
      <trkpt lat="59.875917434692383" lon="29.303734302520752">
        <time>2026-07-26T14:33:47Z</time>
      </trkpt>
      <trkpt lat="59.875895977020264" lon="29.303755760192871">
        <time>2026-07-26T14:33:49Z</time>
      </trkpt>
      <trkpt lat="59.875895977020264" lon="29.303755760192871">
        <time>2026-07-26T14:33:52Z</time>
      </trkpt>
      <trkpt lat="59.875895977020264" lon="29.303755760192871">
        <time>2026-07-26T14:33:54Z</time>
      </trkpt>
      <trkpt lat="59.875895977020264" lon="29.303755760192871">
        <time>2026-07-26T14:33:57Z</time>
      </trkpt>
      <trkpt lat="59.875895977020264" lon="29.303755760192871">
        <time>2026-07-26T14:33:59Z</time>
      </trkpt>
      <trkpt lat="59.875895977020264" lon="29.303755760192871">
        <time>2026-07-26T14:34:02Z</time>
      </trkpt>
      <trkpt lat="59.875895977020264" lon="29.303755760192871">
        <time>2026-07-26T14:34:04Z</time>
      </trkpt>
      <trkpt lat="59.875895977020264" lon="29.303755760192871">
        <time>2026-07-26T14:34:07Z</time>
      </trkpt>
      <trkpt lat="59.875917434692383" lon="29.303798675537109">
        <time>2026-07-26T14:34:09Z</time>
      </trkpt>
      <trkpt lat="59.875917434692383" lon="29.303820133209229">
        <time>2026-07-26T14:34:12Z</time>
      </trkpt>
      <trkpt lat="59.875895977020264" lon="29.303884506225586">
        <time>2026-07-26T14:34:14Z</time>
      </trkpt>
      <trkpt lat="59.875895977020264" lon="29.303927421569824">
        <time>2026-07-26T14:34:17Z</time>
      </trkpt>
      <trkpt lat="59.875895977020264" lon="29.303948879241943">
        <time>2026-07-26T14:34:19Z</time>
      </trkpt>
      <trkpt lat="59.875895977020264" lon="29.303948879241943">
        <time>2026-07-26T14:34:22Z</time>
      </trkpt>
      <trkpt lat="59.875874519348145" lon="29.303991794586182">
        <time>2026-07-26T14:34:24Z</time>
      </trkpt>
      <trkpt lat="59.875874519348145" lon="29.30403470993042">
        <time>2026-07-26T14:34:27Z</time>
      </trkpt>
      <trkpt lat="59.875874519348145" lon="29.30403470993042">
        <time>2026-07-26T14:34:29Z</time>
      </trkpt>
      <trkpt lat="59.875874519348145" lon="29.304056167602539">
        <time>2026-07-26T14:34:32Z</time>
      </trkpt>
      <trkpt lat="59.875874519348145" lon="29.304056167602539">
        <time>2026-07-26T14:34:34Z</time>
      </trkpt>
      <trkpt lat="59.875874519348145" lon="29.304056167602539">
        <time>2026-07-26T14:34:37Z</time>
      </trkpt>
      <trkpt lat="59.875874519348145" lon="29.304099082946777">
        <time>2026-07-26T14:34:39Z</time>
      </trkpt>
      <trkpt lat="59.875874519348145" lon="29.304120540618896">
        <time>2026-07-26T14:34:42Z</time>
      </trkpt>
      <trkpt lat="59.875874519348145" lon="29.304120540618896">
        <time>2026-07-26T14:34:44Z</time>
      </trkpt>
      <trkpt lat="59.875874519348145" lon="29.304120540618896">
        <time>2026-07-26T14:34:47Z</time>
      </trkpt>
      <trkpt lat="59.875874519348145" lon="29.304227828979492">
        <time>2026-07-26T14:34:49Z</time>
      </trkpt>
      <trkpt lat="59.875853061676025" lon="29.30429220199585">
        <time>2026-07-26T14:34:52Z</time>
      </trkpt>
      <trkpt lat="59.875831604003906" lon="29.304420948028564">
        <time>2026-07-26T14:34:54Z</time>
      </trkpt>
      <trkpt lat="59.875810146331787" lon="29.304506778717041">
        <time>2026-07-26T14:34:57Z</time>
      </trkpt>
      <trkpt lat="59.875853061676025" lon="29.304571151733398">
        <time>2026-07-26T14:34:59Z</time>
      </trkpt>
      <trkpt lat="59.875853061676025" lon="29.304592609405518">
        <time>2026-07-26T14:35:02Z</time>
      </trkpt>
      <trkpt lat="59.875831604003906" lon="29.304678440093994">
        <time>2026-07-26T14:35:04Z</time>
      </trkpt>
      <trkpt lat="59.875831604003906" lon="29.304742813110352">
        <time>2026-07-26T14:35:07Z</time>
      </trkpt>
      <trkpt lat="59.875831604003906" lon="29.304807186126709">
        <time>2026-07-26T14:35:09Z</time>
      </trkpt>
      <trkpt lat="59.875831604003906" lon="29.304807186126709">
        <time>2026-07-26T14:35:12Z</time>
      </trkpt>
      <trkpt lat="59.875831604003906" lon="29.304807186126709">
        <time>2026-07-26T14:35:14Z</time>
      </trkpt>
      <trkpt lat="59.875831604003906" lon="29.304807186126709">
        <time>2026-07-26T14:35:17Z</time>
      </trkpt>
      <trkpt lat="59.875810146331787" lon="29.304914474487305">
        <time>2026-07-26T14:35:19Z</time>
      </trkpt>
      <trkpt lat="59.875788688659668" lon="29.304978847503662">
        <time>2026-07-26T14:35:22Z</time>
      </trkpt>
      <trkpt lat="59.875788688659668" lon="29.30504322052002">
        <time>2026-07-26T14:35:24Z</time>
      </trkpt>
      <trkpt lat="59.875788688659668" lon="29.305086135864258">
        <time>2026-07-26T14:35:27Z</time>
      </trkpt>
      <trkpt lat="59.875788688659668" lon="29.305129051208496">
        <time>2026-07-26T14:35:29Z</time>
      </trkpt>
      <trkpt lat="59.875767230987549" lon="29.305129051208496">
        <time>2026-07-26T14:35:32Z</time>
      </trkpt>
      <trkpt lat="59.87574577331543" lon="29.305107593536377">
        <time>2026-07-26T14:35:34Z</time>
      </trkpt>
      <trkpt lat="59.875724315643311" lon="29.305086135864258">
        <time>2026-07-26T14:35:37Z</time>
      </trkpt>
      <trkpt lat="59.875724315643311" lon="29.305064678192139">
        <time>2026-07-26T14:35:39Z</time>
      </trkpt>
      <trkpt lat="59.875724315643311" lon="29.305064678192139">
        <time>2026-07-26T14:35:42Z</time>
      </trkpt>
      <trkpt lat="59.875702857971191" lon="29.305086135864258">
        <time>2026-07-26T14:35:44Z</time>
      </trkpt>
      <trkpt lat="59.875702857971191" lon="29.305150508880615">
        <time>2026-07-26T14:35:47Z</time>
      </trkpt>
      <trkpt lat="59.87574577331543" lon="29.305193424224854">
        <time>2026-07-26T14:35:49Z</time>
      </trkpt>
      <trkpt lat="59.875788688659668" lon="29.305171966552734">
        <time>2026-07-26T14:35:52Z</time>
      </trkpt>
      <trkpt lat="59.875831604003906" lon="29.305086135864258">
        <time>2026-07-26T14:35:54Z</time>
      </trkpt>
      <trkpt lat="59.875853061676025" lon="29.305000305175781">
        <time>2026-07-26T14:35:57Z</time>
      </trkpt>
      <trkpt lat="59.875853061676025" lon="29.304957389831543">
        <time>2026-07-26T14:35:59Z</time>
      </trkpt>
      <trkpt lat="59.875853061676025" lon="29.304978847503662">
        <time>2026-07-26T14:36:02Z</time>
      </trkpt>
      <trkpt lat="59.875853061676025" lon="29.304978847503662">
        <time>2026-07-26T14:36:04Z</time>
      </trkpt>
      <trkpt lat="59.875853061676025" lon="29.3050217628479">
        <time>2026-07-26T14:36:07Z</time>
      </trkpt>
      <trkpt lat="59.875853061676025" lon="29.305107593536377">
        <time>2026-07-26T14:36:09Z</time>
      </trkpt>
      <trkpt lat="59.875853061676025" lon="29.305150508880615">
        <time>2026-07-26T14:36:12Z</time>
      </trkpt>
      <trkpt lat="59.875853061676025" lon="29.305171966552734">
        <time>2026-07-26T14:36:14Z</time>
      </trkpt>
      <trkpt lat="59.875853061676025" lon="29.305171966552734">
        <time>2026-07-26T14:36:17Z</time>
      </trkpt>
      <trkpt lat="59.875831604003906" lon="29.305193424224854">
        <time>2026-07-26T14:36:19Z</time>
      </trkpt>
      <trkpt lat="59.875831604003906" lon="29.305193424224854">
        <time>2026-07-26T14:36:22Z</time>
      </trkpt>
      <trkpt lat="59.875831604003906" lon="29.305193424224854">
        <time>2026-07-26T14:36:24Z</time>
      </trkpt>
      <trkpt lat="59.875831604003906" lon="29.305214881896973">
        <time>2026-07-26T14:36:27Z</time>
      </trkpt>
      <trkpt lat="59.875853061676025" lon="29.305236339569092">
        <time>2026-07-26T14:36:29Z</time>
      </trkpt>
      <trkpt lat="59.875874519348145" lon="29.305236339569092">
        <time>2026-07-26T14:36:32Z</time>
      </trkpt>
      <trkpt lat="59.875874519348145" lon="29.305236339569092">
        <time>2026-07-26T14:36:34Z</time>
      </trkpt>
      <trkpt lat="59.875874519348145" lon="29.305236339569092">
        <time>2026-07-26T14:36:37Z</time>
      </trkpt>
      <trkpt lat="59.875874519348145" lon="29.305236339569092">
        <time>2026-07-26T14:36:39Z</time>
      </trkpt>
      <trkpt lat="59.875853061676025" lon="29.305257797241211">
        <time>2026-07-26T14:36:42Z</time>
      </trkpt>
      <trkpt lat="59.875810146331787" lon="29.30527925491333">
        <time>2026-07-26T14:36:44Z</time>
      </trkpt>
      <trkpt lat="59.875810146331787" lon="29.305322170257568">
        <time>2026-07-26T14:36:47Z</time>
      </trkpt>
      <trkpt lat="59.875788688659668" lon="29.305343627929688">
        <time>2026-07-26T14:36:49Z</time>
      </trkpt>
      <trkpt lat="59.875810146331787" lon="29.305365085601807">
        <time>2026-07-26T14:36:52Z</time>
      </trkpt>
      <trkpt lat="59.875810146331787" lon="29.305365085601807">
        <time>2026-07-26T14:36:54Z</time>
      </trkpt>
      <trkpt lat="59.875788688659668" lon="29.305386543273926">
        <time>2026-07-26T14:36:57Z</time>
      </trkpt>
      <trkpt lat="59.875788688659668" lon="29.305386543273926">
        <time>2026-07-26T14:36:59Z</time>
      </trkpt>
      <trkpt lat="59.875810146331787" lon="29.305429458618164">
        <time>2026-07-26T14:37:02Z</time>
      </trkpt>
      <trkpt lat="59.875810146331787" lon="29.305472373962402">
        <time>2026-07-26T14:37:04Z</time>
      </trkpt>
      <trkpt lat="59.875810146331787" lon="29.305472373962402">
        <time>2026-07-26T14:37:07Z</time>
      </trkpt>
      <trkpt lat="59.875831604003906" lon="29.305515289306641">
        <time>2026-07-26T14:37:09Z</time>
      </trkpt>
      <trkpt lat="59.875831604003906" lon="29.305515289306641">
        <time>2026-07-26T14:37:12Z</time>
      </trkpt>
      <trkpt lat="59.875831604003906" lon="29.305472373962402">
        <time>2026-07-26T14:37:14Z</time>
      </trkpt>
      <trkpt lat="59.875831604003906" lon="29.305493831634521">
        <time>2026-07-26T14:37:17Z</time>
      </trkpt>
      <trkpt lat="59.875831604003906" lon="29.305579662322998">
        <time>2026-07-26T14:37:19Z</time>
      </trkpt>
      <trkpt lat="59.875831604003906" lon="29.305601119995117">
        <time>2026-07-26T14:37:22Z</time>
      </trkpt>
      <trkpt lat="59.875831604003906" lon="29.305601119995117">
        <time>2026-07-26T14:37:24Z</time>
      </trkpt>
      <trkpt lat="59.875810146331787" lon="29.305644035339355">
        <time>2026-07-26T14:37:27Z</time>
      </trkpt>
      <trkpt lat="59.875810146331787" lon="29.305665493011475">
        <time>2026-07-26T14:37:29Z</time>
      </trkpt>
      <trkpt lat="59.875810146331787" lon="29.305665493011475">
        <time>2026-07-26T14:37:32Z</time>
      </trkpt>
      <trkpt lat="59.875810146331787" lon="29.305665493011475">
        <time>2026-07-26T14:37:34Z</time>
      </trkpt>
      <trkpt lat="59.875810146331787" lon="29.305665493011475">
        <time>2026-07-26T14:37:37Z</time>
      </trkpt>
      <trkpt lat="59.875810146331787" lon="29.305665493011475">
        <time>2026-07-26T14:37:39Z</time>
      </trkpt>
      <trkpt lat="59.875810146331787" lon="29.305665493011475">
        <time>2026-07-26T14:37:42Z</time>
      </trkpt>
      <trkpt lat="59.875810146331787" lon="29.305665493011475">
        <time>2026-07-26T14:37:44Z</time>
      </trkpt>
      <trkpt lat="59.875810146331787" lon="29.305665493011475">
        <time>2026-07-26T14:37:47Z</time>
      </trkpt>
      <trkpt lat="59.875810146331787" lon="29.305665493011475">
        <time>2026-07-26T14:37:49Z</time>
      </trkpt>
      <trkpt lat="59.875810146331787" lon="29.305665493011475">
        <time>2026-07-26T14:37:52Z</time>
      </trkpt>
      <trkpt lat="59.875810146331787" lon="29.305665493011475">
        <time>2026-07-26T14:37:54Z</time>
      </trkpt>
      <trkpt lat="59.875810146331787" lon="29.305665493011475">
        <time>2026-07-26T14:37:57Z</time>
      </trkpt>
      <trkpt lat="59.875810146331787" lon="29.305665493011475">
        <time>2026-07-26T14:37:59Z</time>
      </trkpt>
      <trkpt lat="59.875810146331787" lon="29.305665493011475">
        <time>2026-07-26T14:38:02Z</time>
      </trkpt>
      <trkpt lat="59.875810146331787" lon="29.305665493011475">
        <time>2026-07-26T14:38:04Z</time>
      </trkpt>
      <trkpt lat="59.875810146331787" lon="29.305665493011475">
        <time>2026-07-26T14:38:07Z</time>
      </trkpt>
      <trkpt lat="59.875831604003906" lon="29.305665493011475">
        <time>2026-07-26T14:38:09Z</time>
      </trkpt>
      <trkpt lat="59.875831604003906" lon="29.305665493011475">
        <time>2026-07-26T14:38:12Z</time>
      </trkpt>
      <trkpt lat="59.875831604003906" lon="29.305665493011475">
        <time>2026-07-26T14:38:14Z</time>
      </trkpt>
      <trkpt lat="59.875831604003906" lon="29.305665493011475">
        <time>2026-07-26T14:38:17Z</time>
      </trkpt>
      <trkpt lat="59.875831604003906" lon="29.305644035339355">
        <time>2026-07-26T14:38:19Z</time>
      </trkpt>
      <trkpt lat="59.875831604003906" lon="29.305622577667236">
        <time>2026-07-26T14:38:22Z</time>
      </trkpt>
      <trkpt lat="59.875831604003906" lon="29.305622577667236">
        <time>2026-07-26T14:38:24Z</time>
      </trkpt>
      <trkpt lat="59.875831604003906" lon="29.305622577667236">
        <time>2026-07-26T14:38:27Z</time>
      </trkpt>
      <trkpt lat="59.875853061676025" lon="29.305601119995117">
        <time>2026-07-26T14:38:29Z</time>
      </trkpt>
      <trkpt lat="59.875874519348145" lon="29.305558204650879">
        <time>2026-07-26T14:38:32Z</time>
      </trkpt>
      <trkpt lat="59.875853061676025" lon="29.305622577667236">
        <time>2026-07-26T14:38:34Z</time>
      </trkpt>
      <trkpt lat="59.875831604003906" lon="29.305708408355713">
        <time>2026-07-26T14:38:37Z</time>
      </trkpt>
      <trkpt lat="59.875810146331787" lon="29.305815696716309">
        <time>2026-07-26T14:38:39Z</time>
      </trkpt>
      <trkpt lat="59.875788688659668" lon="29.305880069732666">
        <time>2026-07-26T14:38:42Z</time>
      </trkpt>
      <trkpt lat="59.875788688659668" lon="29.305922985076904">
        <time>2026-07-26T14:38:44Z</time>
      </trkpt>
      <trkpt lat="59.875788688659668" lon="29.305944442749023">
        <time>2026-07-26T14:38:47Z</time>
      </trkpt>
      <trkpt lat="59.875788688659668" lon="29.305965900421143">
        <time>2026-07-26T14:38:49Z</time>
      </trkpt>
      <trkpt lat="59.875767230987549" lon="29.306008815765381">
        <time>2026-07-26T14:38:52Z</time>
      </trkpt>
      <trkpt lat="59.87574577331543" lon="29.306094646453857">
        <time>2026-07-26T14:38:54Z</time>
      </trkpt>
      <trkpt lat="59.87574577331543" lon="29.306159019470215">
        <time>2026-07-26T14:38:57Z</time>
      </trkpt>
      <trkpt lat="59.87574577331543" lon="29.306266307830811">
        <time>2026-07-26T14:38:59Z</time>
      </trkpt>
      <trkpt lat="59.875767230987549" lon="29.306330680847168">
        <time>2026-07-26T14:39:02Z</time>
      </trkpt>
      <trkpt lat="59.875767230987549" lon="29.306437969207764">
        <time>2026-07-26T14:39:04Z</time>
      </trkpt>
      <trkpt lat="59.875767230987549" lon="29.306502342224121">
        <time>2026-07-26T14:39:07Z</time>
      </trkpt>
      <trkpt lat="59.875788688659668" lon="29.306588172912598">
        <time>2026-07-26T14:39:09Z</time>
      </trkpt>
      <trkpt lat="59.875788688659668" lon="29.306631088256836">
        <time>2026-07-26T14:39:12Z</time>
      </trkpt>
      <trkpt lat="59.875788688659668" lon="29.306716918945313">
        <time>2026-07-26T14:39:14Z</time>
      </trkpt>
      <trkpt lat="59.875810146331787" lon="29.306759834289551">
        <time>2026-07-26T14:39:17Z</time>
      </trkpt>
      <trkpt lat="59.875831604003906" lon="29.30678129196167">
        <time>2026-07-26T14:39:19Z</time>
      </trkpt>
      <trkpt lat="59.875831604003906" lon="29.306802749633789">
        <time>2026-07-26T14:39:22Z</time>
      </trkpt>
      <trkpt lat="59.875831604003906" lon="29.30678129196167">
        <time>2026-07-26T14:39:24Z</time>
      </trkpt>
      <trkpt lat="59.875831604003906" lon="29.306759834289551">
        <time>2026-07-26T14:39:27Z</time>
      </trkpt>
      <trkpt lat="59.875788688659668" lon="29.306759834289551">
        <time>2026-07-26T14:39:29Z</time>
      </trkpt>
      <trkpt lat="59.875810146331787" lon="29.306759834289551">
        <time>2026-07-26T14:39:32Z</time>
      </trkpt>
      <trkpt lat="59.875810146331787" lon="29.306695461273193">
        <time>2026-07-26T14:39:34Z</time>
      </trkpt>
      <trkpt lat="59.875831604003906" lon="29.306652545928955">
        <time>2026-07-26T14:39:37Z</time>
      </trkpt>
      <trkpt lat="59.875810146331787" lon="29.306609630584717">
        <time>2026-07-26T14:39:39Z</time>
      </trkpt>
      <trkpt lat="59.875788688659668" lon="29.306631088256836">
        <time>2026-07-26T14:39:42Z</time>
      </trkpt>
      <trkpt lat="59.87574577331543" lon="29.306716918945313">
        <time>2026-07-26T14:39:44Z</time>
      </trkpt>
      <trkpt lat="59.87574577331543" lon="29.30678129196167">
        <time>2026-07-26T14:39:47Z</time>
      </trkpt>
      <trkpt lat="59.875724315643311" lon="29.306845664978027">
        <time>2026-07-26T14:39:49Z</time>
      </trkpt>
      <trkpt lat="59.875724315643311" lon="29.306845664978027">
        <time>2026-07-26T14:39:52Z</time>
      </trkpt>
      <trkpt lat="59.875724315643311" lon="29.306910037994385">
        <time>2026-07-26T14:39:54Z</time>
      </trkpt>
      <trkpt lat="59.875702857971191" lon="29.306995868682861">
        <time>2026-07-26T14:39:57Z</time>
      </trkpt>
      <trkpt lat="59.875702857971191" lon="29.30701732635498">
        <time>2026-07-26T14:39:59Z</time>
      </trkpt>
      <trkpt lat="59.875702857971191" lon="29.30701732635498">
        <time>2026-07-26T14:40:02Z</time>
      </trkpt>
      <trkpt lat="59.875702857971191" lon="29.307060241699219">
        <time>2026-07-26T14:40:04Z</time>
      </trkpt>
      <trkpt lat="59.875702857971191" lon="29.307124614715576">
        <time>2026-07-26T14:40:07Z</time>
      </trkpt>
      <trkpt lat="59.875681400299072" lon="29.307188987731934">
        <time>2026-07-26T14:40:09Z</time>
      </trkpt>
      <trkpt lat="59.875681400299072" lon="29.307188987731934">
        <time>2026-07-26T14:40:12Z</time>
      </trkpt>
      <trkpt lat="59.875724315643311" lon="29.307167530059814">
        <time>2026-07-26T14:40:14Z</time>
      </trkpt>
      <trkpt lat="59.87574577331543" lon="29.307124614715576">
        <time>2026-07-26T14:40:17Z</time>
      </trkpt>
      <trkpt lat="59.875767230987549" lon="29.306995868682861">
        <time>2026-07-26T14:40:19Z</time>
      </trkpt>
      <trkpt lat="59.875767230987549" lon="29.3070387840271">
        <time>2026-07-26T14:40:22Z</time>
      </trkpt>
      <trkpt lat="59.875724315643311" lon="29.307146072387695">
        <time>2026-07-26T14:40:24Z</time>
      </trkpt>
      <trkpt lat="59.875724315643311" lon="29.307146072387695">
        <time>2026-07-26T14:40:27Z</time>
      </trkpt>
      <trkpt lat="59.875724315643311" lon="29.307146072387695">
        <time>2026-07-26T14:40:29Z</time>
      </trkpt>
      <trkpt lat="59.875724315643311" lon="29.307146072387695">
        <time>2026-07-26T14:40:32Z</time>
      </trkpt>
      <trkpt lat="59.875724315643311" lon="29.307210445404053">
        <time>2026-07-26T14:40:34Z</time>
      </trkpt>
      <trkpt lat="59.875702857971191" lon="29.30727481842041">
        <time>2026-07-26T14:40:37Z</time>
      </trkpt>
      <trkpt lat="59.875681400299072" lon="29.307403564453125">
        <time>2026-07-26T14:40:42Z</time>
      </trkpt>
      <trkpt lat="59.875681400299072" lon="29.307489395141602">
        <time>2026-07-26T14:40:44Z</time>
      </trkpt>
      <trkpt lat="59.875681400299072" lon="29.307553768157959">
        <time>2026-07-26T14:40:47Z</time>
      </trkpt>
      <trkpt lat="59.875681400299072" lon="29.307553768157959">
        <time>2026-07-26T14:40:49Z</time>
      </trkpt>
      <trkpt lat="59.875681400299072" lon="29.307553768157959">
        <time>2026-07-26T14:40:52Z</time>
      </trkpt>
      <trkpt lat="59.875659942626953" lon="29.307639598846436">
        <time>2026-07-26T14:40:54Z</time>
      </trkpt>
      <trkpt lat="59.875659942626953" lon="29.307661056518555">
        <time>2026-07-26T14:40:57Z</time>
      </trkpt>
      <trkpt lat="59.875659942626953" lon="29.307661056518555">
        <time>2026-07-26T14:40:59Z</time>
      </trkpt>
      <trkpt lat="59.875659942626953" lon="29.307703971862793">
        <time>2026-07-26T14:41:02Z</time>
      </trkpt>
      <trkpt lat="59.875659942626953" lon="29.307703971862793">
        <time>2026-07-26T14:41:04Z</time>
      </trkpt>
      <trkpt lat="59.875681400299072" lon="29.30776834487915">
        <time>2026-07-26T14:41:07Z</time>
      </trkpt>
      <trkpt lat="59.875681400299072" lon="29.307811260223389">
        <time>2026-07-26T14:41:09Z</time>
      </trkpt>
      <trkpt lat="59.875681400299072" lon="29.307811260223389">
        <time>2026-07-26T14:41:12Z</time>
      </trkpt>
      <trkpt lat="59.875681400299072" lon="29.307811260223389">
        <time>2026-07-26T14:41:14Z</time>
      </trkpt>
      <trkpt lat="59.875681400299072" lon="29.307854175567627">
        <time>2026-07-26T14:41:17Z</time>
      </trkpt>
      <trkpt lat="59.875659942626953" lon="29.307961463928223">
        <time>2026-07-26T14:41:19Z</time>
      </trkpt>
      <trkpt lat="59.875659942626953" lon="29.308004379272461">
        <time>2026-07-26T14:41:22Z</time>
      </trkpt>
      <trkpt lat="59.875659942626953" lon="29.308090209960937">
        <time>2026-07-26T14:41:24Z</time>
      </trkpt>
      <trkpt lat="59.875681400299072" lon="29.308176040649414">
        <time>2026-07-26T14:41:27Z</time>
      </trkpt>
      <trkpt lat="59.875638484954834" lon="29.308261871337891">
        <time>2026-07-26T14:41:29Z</time>
      </trkpt>
      <trkpt lat="59.875638484954834" lon="29.308304786682129">
        <time>2026-07-26T14:41:32Z</time>
      </trkpt>
      <trkpt lat="59.875659942626953" lon="29.308326244354248">
        <time>2026-07-26T14:41:34Z</time>
      </trkpt>
      <trkpt lat="59.875659942626953" lon="29.308347702026367">
        <time>2026-07-26T14:41:37Z</time>
      </trkpt>
      <trkpt lat="59.875638484954834" lon="29.308412075042725">
        <time>2026-07-26T14:41:39Z</time>
      </trkpt>
      <trkpt lat="59.875638484954834" lon="29.308433532714844">
        <time>2026-07-26T14:41:42Z</time>
      </trkpt>
      <trkpt lat="59.875638484954834" lon="29.308497905731201">
        <time>2026-07-26T14:41:44Z</time>
      </trkpt>
      <trkpt lat="59.875617027282715" lon="29.30851936340332">
        <time>2026-07-26T14:41:47Z</time>
      </trkpt>
      <trkpt lat="59.875617027282715" lon="29.308562278747559">
        <time>2026-07-26T14:41:49Z</time>
      </trkpt>
      <trkpt lat="59.875617027282715" lon="29.308583736419678">
        <time>2026-07-26T14:41:52Z</time>
      </trkpt>
      <trkpt lat="59.875617027282715" lon="29.308605194091797">
        <time>2026-07-26T14:41:54Z</time>
      </trkpt>
      <trkpt lat="59.875617027282715" lon="29.308648109436035">
        <time>2026-07-26T14:41:57Z</time>
      </trkpt>
      <trkpt lat="59.875638484954834" lon="29.308733940124512">
        <time>2026-07-26T14:41:59Z</time>
      </trkpt>
      <trkpt lat="59.875638484954834" lon="29.30877685546875">
        <time>2026-07-26T14:42:02Z</time>
      </trkpt>
      <trkpt lat="59.875638484954834" lon="29.308841228485107">
        <time>2026-07-26T14:42:04Z</time>
      </trkpt>
      <trkpt lat="59.875638484954834" lon="29.308884143829346">
        <time>2026-07-26T14:42:07Z</time>
      </trkpt>
      <trkpt lat="59.875617027282715" lon="29.308905601501465">
        <time>2026-07-26T14:42:09Z</time>
      </trkpt>
      <trkpt lat="59.875617027282715" lon="29.308948516845703">
        <time>2026-07-26T14:42:12Z</time>
      </trkpt>
      <trkpt lat="59.875595569610596" lon="29.309012889862061">
        <time>2026-07-26T14:42:14Z</time>
      </trkpt>
      <trkpt lat="59.875595569610596" lon="29.309077262878418">
        <time>2026-07-26T14:42:17Z</time>
      </trkpt>
      <trkpt lat="59.875574111938477" lon="29.309141635894775">
        <time>2026-07-26T14:42:19Z</time>
      </trkpt>
      <trkpt lat="59.875574111938477" lon="29.309184551239014">
        <time>2026-07-26T14:42:22Z</time>
      </trkpt>
      <trkpt lat="59.875574111938477" lon="29.309248924255371">
        <time>2026-07-26T14:42:24Z</time>
      </trkpt>
      <trkpt lat="59.875595569610596" lon="29.309248924255371">
        <time>2026-07-26T14:42:27Z</time>
      </trkpt>
      <trkpt lat="59.875595569610596" lon="29.309248924255371">
        <time>2026-07-26T14:42:29Z</time>
      </trkpt>
      <trkpt lat="59.875595569610596" lon="29.309227466583252">
        <time>2026-07-26T14:42:32Z</time>
      </trkpt>
      <trkpt lat="59.875595569610596" lon="29.309227466583252">
        <time>2026-07-26T14:42:34Z</time>
      </trkpt>
      <trkpt lat="59.875595569610596" lon="29.309227466583252">
        <time>2026-07-26T14:42:37Z</time>
      </trkpt>
      <trkpt lat="59.875574111938477" lon="29.30927038192749">
        <time>2026-07-26T14:42:39Z</time>
      </trkpt>
      <trkpt lat="59.875574111938477" lon="29.309334754943848">
        <time>2026-07-26T14:42:42Z</time>
      </trkpt>
      <trkpt lat="59.875552654266357" lon="29.309463500976563">
        <time>2026-07-26T14:42:44Z</time>
      </trkpt>
      <trkpt lat="59.875531196594238" lon="29.30952787399292">
        <time>2026-07-26T14:42:47Z</time>
      </trkpt>
      <trkpt lat="59.875531196594238" lon="29.309592247009277">
        <time>2026-07-26T14:42:49Z</time>
      </trkpt>
      <trkpt lat="59.875531196594238" lon="29.309592247009277">
        <time>2026-07-26T14:42:52Z</time>
      </trkpt>
      <trkpt lat="59.875552654266357" lon="29.309613704681396">
        <time>2026-07-26T14:42:54Z</time>
      </trkpt>
      <trkpt lat="59.875574111938477" lon="29.309613704681396">
        <time>2026-07-26T14:42:57Z</time>
      </trkpt>
      <trkpt lat="59.875552654266357" lon="29.309678077697754">
        <time>2026-07-26T14:42:59Z</time>
      </trkpt>
      <trkpt lat="59.875531196594238" lon="29.309720993041992">
        <time>2026-07-26T14:43:02Z</time>
      </trkpt>
      <trkpt lat="59.875509738922119" lon="29.30978536605835">
        <time>2026-07-26T14:43:04Z</time>
      </trkpt>
      <trkpt lat="59.87548828125" lon="29.309828281402588">
        <time>2026-07-26T14:43:07Z</time>
      </trkpt>
      <trkpt lat="59.87548828125" lon="29.309849739074707">
        <time>2026-07-26T14:43:09Z</time>
      </trkpt>
      <trkpt lat="59.87548828125" lon="29.309914112091064">
        <time>2026-07-26T14:43:12Z</time>
      </trkpt>
      <trkpt lat="59.87548828125" lon="29.309978485107422">
        <time>2026-07-26T14:43:14Z</time>
      </trkpt>
      <trkpt lat="59.87548828125" lon="29.310042858123779">
        <time>2026-07-26T14:43:17Z</time>
      </trkpt>
      <trkpt lat="59.875466823577881" lon="29.310150146484375">
        <time>2026-07-26T14:43:19Z</time>
      </trkpt>
      <trkpt lat="59.875466823577881" lon="29.310171604156494">
        <time>2026-07-26T14:43:22Z</time>
      </trkpt>
      <trkpt lat="59.875509738922119" lon="29.310128688812256">
        <time>2026-07-26T14:43:24Z</time>
      </trkpt>
      <trkpt lat="59.875552654266357" lon="29.309978485107422">
        <time>2026-07-26T14:43:27Z</time>
      </trkpt>
      <trkpt lat="59.875574111938477" lon="29.309892654418945">
        <time>2026-07-26T14:43:29Z</time>
      </trkpt>
      <trkpt lat="59.875552654266357" lon="29.309957027435303">
        <time>2026-07-26T14:43:32Z</time>
      </trkpt>
      <trkpt lat="59.875509738922119" lon="29.310064315795898">
        <time>2026-07-26T14:43:34Z</time>
      </trkpt>
      <trkpt lat="59.87548828125" lon="29.310064315795898">
        <time>2026-07-26T14:43:37Z</time>
      </trkpt>
      <trkpt lat="59.875509738922119" lon="29.310042858123779">
        <time>2026-07-26T14:43:39Z</time>
      </trkpt>
      <trkpt lat="59.875552654266357" lon="29.309914112091064">
        <time>2026-07-26T14:43:42Z</time>
      </trkpt>
      <trkpt lat="59.875574111938477" lon="29.30976390838623">
        <time>2026-07-26T14:43:44Z</time>
      </trkpt>
      <trkpt lat="59.875531196594238" lon="29.309871196746826">
        <time>2026-07-26T14:43:47Z</time>
      </trkpt>
      <trkpt lat="59.87548828125" lon="29.310085773468018">
        <time>2026-07-26T14:43:49Z</time>
      </trkpt>
      <trkpt lat="59.875445365905762" lon="29.310235977172852">
        <time>2026-07-26T14:43:52Z</time>
      </trkpt>
      <trkpt lat="59.875445365905762" lon="29.310321807861328">
        <time>2026-07-26T14:43:54Z</time>
      </trkpt>
      <trkpt lat="59.875445365905762" lon="29.310364723205566">
        <time>2026-07-26T14:43:57Z</time>
      </trkpt>
      <trkpt lat="59.875445365905762" lon="29.310364723205566">
        <time>2026-07-26T14:43:59Z</time>
      </trkpt>
      <trkpt lat="59.875445365905762" lon="29.310407638549805">
        <time>2026-07-26T14:44:02Z</time>
      </trkpt>
      <trkpt lat="59.875423908233643" lon="29.31053638458252">
        <time>2026-07-26T14:44:04Z</time>
      </trkpt>
      <trkpt lat="59.875423908233643" lon="29.310600757598877">
        <time>2026-07-26T14:44:07Z</time>
      </trkpt>
      <trkpt lat="59.875402450561523" lon="29.310729503631592">
        <time>2026-07-26T14:44:09Z</time>
      </trkpt>
      <trkpt lat="59.875402450561523" lon="29.310815334320068">
        <time>2026-07-26T14:44:12Z</time>
      </trkpt>
      <trkpt lat="59.875423908233643" lon="29.310858249664307">
        <time>2026-07-26T14:44:14Z</time>
      </trkpt>
      <trkpt lat="59.875423908233643" lon="29.310858249664307">
        <time>2026-07-26T14:44:17Z</time>
      </trkpt>
      <trkpt lat="59.875423908233643" lon="29.310858249664307">
        <time>2026-07-26T14:44:19Z</time>
      </trkpt>
      <trkpt lat="59.875423908233643" lon="29.310858249664307">
        <time>2026-07-26T14:44:22Z</time>
      </trkpt>
      <trkpt lat="59.875423908233643" lon="29.310858249664307">
        <time>2026-07-26T14:44:24Z</time>
      </trkpt>
      <trkpt lat="59.875423908233643" lon="29.310858249664307">
        <time>2026-07-26T14:44:27Z</time>
      </trkpt>
      <trkpt lat="59.875423908233643" lon="29.310858249664307">
        <time>2026-07-26T14:44:29Z</time>
      </trkpt>
      <trkpt lat="59.875423908233643" lon="29.310858249664307">
        <time>2026-07-26T14:44:32Z</time>
      </trkpt>
      <trkpt lat="59.875423908233643" lon="29.310858249664307">
        <time>2026-07-26T14:44:34Z</time>
      </trkpt>
      <trkpt lat="59.875423908233643" lon="29.310858249664307">
        <time>2026-07-26T14:44:37Z</time>
      </trkpt>
      <trkpt lat="59.875423908233643" lon="29.310858249664307">
        <time>2026-07-26T14:44:39Z</time>
      </trkpt>
      <trkpt lat="59.875423908233643" lon="29.310858249664307">
        <time>2026-07-26T14:44:42Z</time>
      </trkpt>
      <trkpt lat="59.875423908233643" lon="29.310858249664307">
        <time>2026-07-26T14:44:44Z</time>
      </trkpt>
      <trkpt lat="59.875423908233643" lon="29.310858249664307">
        <time>2026-07-26T14:44:47Z</time>
      </trkpt>
      <trkpt lat="59.875423908233643" lon="29.310858249664307">
        <time>2026-07-26T14:44:49Z</time>
      </trkpt>
      <trkpt lat="59.875423908233643" lon="29.310858249664307">
        <time>2026-07-26T14:44:52Z</time>
      </trkpt>
      <trkpt lat="59.875423908233643" lon="29.310858249664307">
        <time>2026-07-26T14:44:54Z</time>
      </trkpt>
      <trkpt lat="59.875423908233643" lon="29.310858249664307">
        <time>2026-07-26T14:44:57Z</time>
      </trkpt>
      <trkpt lat="59.875423908233643" lon="29.310858249664307">
        <time>2026-07-26T14:44:59Z</time>
      </trkpt>
      <trkpt lat="59.875423908233643" lon="29.310858249664307">
        <time>2026-07-26T14:45:02Z</time>
      </trkpt>
      <trkpt lat="59.875423908233643" lon="29.310858249664307">
        <time>2026-07-26T14:45:04Z</time>
      </trkpt>
      <trkpt lat="59.875423908233643" lon="29.310858249664307">
        <time>2026-07-26T14:45:07Z</time>
      </trkpt>
      <trkpt lat="59.875402450561523" lon="29.310901165008545">
        <time>2026-07-26T14:45:09Z</time>
      </trkpt>
      <trkpt lat="59.875423908233643" lon="29.310944080352783">
        <time>2026-07-26T14:45:12Z</time>
      </trkpt>
      <trkpt lat="59.875445365905762" lon="29.310986995697021">
        <time>2026-07-26T14:45:14Z</time>
      </trkpt>
      <trkpt lat="59.875445365905762" lon="29.310986995697021">
        <time>2026-07-26T14:45:17Z</time>
      </trkpt>
      <trkpt lat="59.875445365905762" lon="29.310986995697021">
        <time>2026-07-26T14:45:19Z</time>
      </trkpt>
      <trkpt lat="59.875445365905762" lon="29.311072826385498">
        <time>2026-07-26T14:45:22Z</time>
      </trkpt>
      <trkpt lat="59.875423908233643" lon="29.311180114746094">
        <time>2026-07-26T14:45:24Z</time>
      </trkpt>
      <trkpt lat="59.875423908233643" lon="29.31126594543457">
        <time>2026-07-26T14:45:27Z</time>
      </trkpt>
      <trkpt lat="59.875402450561523" lon="29.311330318450928">
        <time>2026-07-26T14:45:29Z</time>
      </trkpt>
      <trkpt lat="59.875402450561523" lon="29.311351776123047">
        <time>2026-07-26T14:45:32Z</time>
      </trkpt>
      <trkpt lat="59.875402450561523" lon="29.311394691467285">
        <time>2026-07-26T14:45:34Z</time>
      </trkpt>
      <trkpt lat="59.875402450561523" lon="29.311459064483643">
        <time>2026-07-26T14:45:37Z</time>
      </trkpt>
      <trkpt lat="59.875423908233643" lon="29.311544895172119">
        <time>2026-07-26T14:45:39Z</time>
      </trkpt>
      <trkpt lat="59.875445365905762" lon="29.311609268188477">
        <time>2026-07-26T14:45:42Z</time>
      </trkpt>
      <trkpt lat="59.875423908233643" lon="29.311716556549072">
        <time>2026-07-26T14:45:44Z</time>
      </trkpt>
      <trkpt lat="59.875423908233643" lon="29.311759471893311">
        <time>2026-07-26T14:45:47Z</time>
      </trkpt>
      <trkpt lat="59.875423908233643" lon="29.31178092956543">
        <time>2026-07-26T14:45:49Z</time>
      </trkpt>
      <trkpt lat="59.875423908233643" lon="29.311823844909668">
        <time>2026-07-26T14:45:52Z</time>
      </trkpt>
      <trkpt lat="59.875423908233643" lon="29.311845302581787">
        <time>2026-07-26T14:45:54Z</time>
      </trkpt>
      <trkpt lat="59.875423908233643" lon="29.311823844909668">
        <time>2026-07-26T14:45:57Z</time>
      </trkpt>
      <trkpt lat="59.875402450561523" lon="29.311802387237549">
        <time>2026-07-26T14:45:59Z</time>
      </trkpt>
      <trkpt lat="59.875402450561523" lon="29.311802387237549">
        <time>2026-07-26T14:46:02Z</time>
      </trkpt>
      <trkpt lat="59.875402450561523" lon="29.311802387237549">
        <time>2026-07-26T14:46:04Z</time>
      </trkpt>
      <trkpt lat="59.875402450561523" lon="29.311802387237549">
        <time>2026-07-26T14:46:07Z</time>
      </trkpt>
      <trkpt lat="59.875402450561523" lon="29.311802387237549">
        <time>2026-07-26T14:46:09Z</time>
      </trkpt>
      <trkpt lat="59.875402450561523" lon="29.311823844909668">
        <time>2026-07-26T14:46:12Z</time>
      </trkpt>
      <trkpt lat="59.875402450561523" lon="29.311845302581787">
        <time>2026-07-26T14:46:14Z</time>
      </trkpt>
      <trkpt lat="59.875402450561523" lon="29.311888217926025">
        <time>2026-07-26T14:46:17Z</time>
      </trkpt>
      <trkpt lat="59.875380992889404" lon="29.311974048614502">
        <time>2026-07-26T14:46:19Z</time>
      </trkpt>
      <trkpt lat="59.875380992889404" lon="29.31201696395874">
        <time>2026-07-26T14:46:22Z</time>
      </trkpt>
      <trkpt lat="59.875359535217285" lon="29.312102794647217">
        <time>2026-07-26T14:46:24Z</time>
      </trkpt>
      <trkpt lat="59.875359535217285" lon="29.312145709991455">
        <time>2026-07-26T14:46:27Z</time>
      </trkpt>
      <trkpt lat="59.875359535217285" lon="29.312231540679932">
        <time>2026-07-26T14:46:32Z</time>
      </trkpt>
      <trkpt lat="59.875359535217285" lon="29.312252998352051">
        <time>2026-07-26T14:46:34Z</time>
      </trkpt>
      <trkpt lat="59.875359535217285" lon="29.312295913696289">
        <time>2026-07-26T14:46:37Z</time>
      </trkpt>
      <trkpt lat="59.875380992889404" lon="29.312360286712646">
        <time>2026-07-26T14:46:39Z</time>
      </trkpt>
      <trkpt lat="59.875380992889404" lon="29.312403202056885">
        <time>2026-07-26T14:46:42Z</time>
      </trkpt>
      <trkpt lat="59.875380992889404" lon="29.312489032745361">
        <time>2026-07-26T14:46:44Z</time>
      </trkpt>
      <trkpt lat="59.875380992889404" lon="29.312489032745361">
        <time>2026-07-26T14:46:47Z</time>
      </trkpt>
      <trkpt lat="59.875402450561523" lon="29.31251049041748">
        <time>2026-07-26T14:46:49Z</time>
      </trkpt>
      <trkpt lat="59.875423908233643" lon="29.312489032745361">
        <time>2026-07-26T14:46:52Z</time>
      </trkpt>
      <trkpt lat="59.875445365905762" lon="29.312446117401123">
        <time>2026-07-26T14:46:54Z</time>
      </trkpt>
      <trkpt lat="59.875445365905762" lon="29.312446117401123">
        <time>2026-07-26T14:46:57Z</time>
      </trkpt>
      <trkpt lat="59.875423908233643" lon="29.312467575073242">
        <time>2026-07-26T14:46:59Z</time>
      </trkpt>
      <trkpt lat="59.875402450561523" lon="29.312553405761719">
        <time>2026-07-26T14:47:02Z</time>
      </trkpt>
      <trkpt lat="59.875380992889404" lon="29.312617778778076">
        <time>2026-07-26T14:47:04Z</time>
      </trkpt>
      <trkpt lat="59.875359535217285" lon="29.312703609466553">
        <time>2026-07-26T14:47:07Z</time>
      </trkpt>
      <trkpt lat="59.875359535217285" lon="29.31276798248291">
        <time>2026-07-26T14:47:09Z</time>
      </trkpt>
      <trkpt lat="59.875359535217285" lon="29.312853813171387">
        <time>2026-07-26T14:47:12Z</time>
      </trkpt>
      <trkpt lat="59.875338077545166" lon="29.312875270843506">
        <time>2026-07-26T14:47:14Z</time>
      </trkpt>
      <trkpt lat="59.875338077545166" lon="29.312853813171387">
        <time>2026-07-26T14:47:17Z</time>
      </trkpt>
      <trkpt lat="59.875359535217285" lon="29.312875270843506">
        <time>2026-07-26T14:47:19Z</time>
      </trkpt>
      <trkpt lat="59.875402450561523" lon="29.312789440155029">
        <time>2026-07-26T14:47:22Z</time>
      </trkpt>
      <trkpt lat="59.875423908233643" lon="29.312617778778076">
        <time>2026-07-26T14:47:24Z</time>
      </trkpt>
      <trkpt lat="59.875466823577881" lon="29.312424659729004">
        <time>2026-07-26T14:47:27Z</time>
      </trkpt>
      <trkpt lat="59.875423908233643" lon="29.31251049041748">
        <time>2026-07-26T14:47:29Z</time>
      </trkpt>
      <trkpt lat="59.875402450561523" lon="29.312810897827148">
        <time>2026-07-26T14:47:32Z</time>
      </trkpt>
      <trkpt lat="59.875380992889404" lon="29.312982559204102">
        <time>2026-07-26T14:47:34Z</time>
      </trkpt>
      <trkpt lat="59.875359535217285" lon="29.313046932220459">
        <time>2026-07-26T14:47:37Z</time>
      </trkpt>
      <trkpt lat="59.875338077545166" lon="29.313068389892578">
        <time>2026-07-26T14:47:39Z</time>
      </trkpt>
      <trkpt lat="59.875338077545166" lon="29.313089847564697">
        <time>2026-07-26T14:47:42Z</time>
      </trkpt>
      <trkpt lat="59.875338077545166" lon="29.313132762908936">
        <time>2026-07-26T14:47:44Z</time>
      </trkpt>
      <trkpt lat="59.875316619873047" lon="29.313218593597412">
        <time>2026-07-26T14:47:47Z</time>
      </trkpt>
      <trkpt lat="59.875338077545166" lon="29.313304424285889">
        <time>2026-07-26T14:47:49Z</time>
      </trkpt>
      <trkpt lat="59.875338077545166" lon="29.313368797302246">
        <time>2026-07-26T14:47:52Z</time>
      </trkpt>
      <trkpt lat="59.875359535217285" lon="29.313411712646484">
        <time>2026-07-26T14:47:54Z</time>
      </trkpt>
      <trkpt lat="59.875402450561523" lon="29.313433170318604">
        <time>2026-07-26T14:47:57Z</time>
      </trkpt>
      <trkpt lat="59.875402450561523" lon="29.313433170318604">
        <time>2026-07-26T14:47:59Z</time>
      </trkpt>
      <trkpt lat="59.875402450561523" lon="29.313433170318604">
        <time>2026-07-26T14:48:02Z</time>
      </trkpt>
      <trkpt lat="59.875402450561523" lon="29.313454627990723">
        <time>2026-07-26T14:48:07Z</time>
      </trkpt>
      <trkpt lat="59.875423908233643" lon="29.313454627990723">
        <time>2026-07-26T14:48:09Z</time>
      </trkpt>
      <trkpt lat="59.875423908233643" lon="29.313497543334961">
        <time>2026-07-26T14:48:12Z</time>
      </trkpt>
      <trkpt lat="59.875445365905762" lon="29.31351900100708">
        <time>2026-07-26T14:48:14Z</time>
      </trkpt>
      <trkpt lat="59.875445365905762" lon="29.313561916351318">
        <time>2026-07-26T14:48:17Z</time>
      </trkpt>
      <trkpt lat="59.875466823577881" lon="29.313626289367676">
        <time>2026-07-26T14:48:19Z</time>
      </trkpt>
      <trkpt lat="59.875466823577881" lon="29.313669204711914">
        <time>2026-07-26T14:48:22Z</time>
      </trkpt>
      <trkpt lat="59.875509738922119" lon="29.313733577728271">
        <time>2026-07-26T14:48:24Z</time>
      </trkpt>
      <trkpt lat="59.875531196594238" lon="29.313797950744629">
        <time>2026-07-26T14:48:27Z</time>
      </trkpt>
      <trkpt lat="59.875531196594238" lon="29.313862323760986">
        <time>2026-07-26T14:48:29Z</time>
      </trkpt>
      <trkpt lat="59.875552654266357" lon="29.313862323760986">
        <time>2026-07-26T14:48:32Z</time>
      </trkpt>
      <trkpt lat="59.875574111938477" lon="29.313883781433105">
        <time>2026-07-26T14:48:34Z</time>
      </trkpt>
      <trkpt lat="59.875574111938477" lon="29.313883781433105">
        <time>2026-07-26T14:48:37Z</time>
      </trkpt>
      <trkpt lat="59.875574111938477" lon="29.313883781433105">
        <time>2026-07-26T14:48:39Z</time>
      </trkpt>
      <trkpt lat="59.875595569610596" lon="29.313905239105225">
        <time>2026-07-26T14:48:42Z</time>
      </trkpt>
      <trkpt lat="59.875617027282715" lon="29.313948154449463">
        <time>2026-07-26T14:48:44Z</time>
      </trkpt>
      <trkpt lat="59.875617027282715" lon="29.313991069793701">
        <time>2026-07-26T14:48:47Z</time>
      </trkpt>
      <trkpt lat="59.875638484954834" lon="29.313991069793701">
        <time>2026-07-26T14:48:49Z</time>
      </trkpt>
      <trkpt lat="59.875638484954834" lon="29.313991069793701">
        <time>2026-07-26T14:48:52Z</time>
      </trkpt>
      <trkpt lat="59.875638484954834" lon="29.313991069793701">
        <time>2026-07-26T14:48:54Z</time>
      </trkpt>
      <trkpt lat="59.875638484954834" lon="29.313991069793701">
        <time>2026-07-26T14:48:57Z</time>
      </trkpt>
      <trkpt lat="59.875638484954834" lon="29.313991069793701">
        <time>2026-07-26T14:48:59Z</time>
      </trkpt>
      <trkpt lat="59.875638484954834" lon="29.313991069793701">
        <time>2026-07-26T14:49:02Z</time>
      </trkpt>
      <trkpt lat="59.875638484954834" lon="29.313991069793701">
        <time>2026-07-26T14:49:04Z</time>
      </trkpt>
      <trkpt lat="59.875638484954834" lon="29.313991069793701">
        <time>2026-07-26T14:49:07Z</time>
      </trkpt>
      <trkpt lat="59.875638484954834" lon="29.313991069793701">
        <time>2026-07-26T14:49:09Z</time>
      </trkpt>
      <trkpt lat="59.875638484954834" lon="29.313991069793701">
        <time>2026-07-26T14:49:12Z</time>
      </trkpt>
      <trkpt lat="59.875638484954834" lon="29.313991069793701">
        <time>2026-07-26T14:49:14Z</time>
      </trkpt>
      <trkpt lat="59.875638484954834" lon="29.313991069793701">
        <time>2026-07-26T14:49:17Z</time>
      </trkpt>
      <trkpt lat="59.875659942626953" lon="29.313969612121582">
        <time>2026-07-26T14:49:19Z</time>
      </trkpt>
      <trkpt lat="59.875659942626953" lon="29.313948154449463">
        <time>2026-07-26T14:49:22Z</time>
      </trkpt>
      <trkpt lat="59.875659942626953" lon="29.313926696777344">
        <time>2026-07-26T14:49:24Z</time>
      </trkpt>
      <trkpt lat="59.875681400299072" lon="29.313926696777344">
        <time>2026-07-26T14:49:27Z</time>
      </trkpt>
      <trkpt lat="59.875681400299072" lon="29.313926696777344">
        <time>2026-07-26T14:49:29Z</time>
      </trkpt>
      <trkpt lat="59.875681400299072" lon="29.313926696777344">
        <time>2026-07-26T14:49:32Z</time>
      </trkpt>
      <trkpt lat="59.875681400299072" lon="29.313926696777344">
        <time>2026-07-26T14:49:34Z</time>
      </trkpt>
      <trkpt lat="59.875659942626953" lon="29.313926696777344">
        <time>2026-07-26T14:49:37Z</time>
      </trkpt>
      <trkpt lat="59.875659942626953" lon="29.313926696777344">
        <time>2026-07-26T14:49:39Z</time>
      </trkpt>
      <trkpt lat="59.875659942626953" lon="29.313926696777344">
        <time>2026-07-26T14:49:42Z</time>
      </trkpt>
      <trkpt lat="59.875659942626953" lon="29.313926696777344">
        <time>2026-07-26T14:49:44Z</time>
      </trkpt>
      <trkpt lat="59.875659942626953" lon="29.313926696777344">
        <time>2026-07-26T14:49:47Z</time>
      </trkpt>
      <trkpt lat="59.875659942626953" lon="29.313926696777344">
        <time>2026-07-26T14:49:49Z</time>
      </trkpt>
      <trkpt lat="59.875659942626953" lon="29.313926696777344">
        <time>2026-07-26T14:49:52Z</time>
      </trkpt>
      <trkpt lat="59.875659942626953" lon="29.313926696777344">
        <time>2026-07-26T14:49:54Z</time>
      </trkpt>
      <trkpt lat="59.875659942626953" lon="29.313926696777344">
        <time>2026-07-26T14:49:57Z</time>
      </trkpt>
      <trkpt lat="59.875659942626953" lon="29.313926696777344">
        <time>2026-07-26T14:49:59Z</time>
      </trkpt>
      <trkpt lat="59.875659942626953" lon="29.313926696777344">
        <time>2026-07-26T14:50:02Z</time>
      </trkpt>
      <trkpt lat="59.875659942626953" lon="29.313926696777344">
        <time>2026-07-26T14:50:04Z</time>
      </trkpt>
      <trkpt lat="59.875659942626953" lon="29.313926696777344">
        <time>2026-07-26T14:50:07Z</time>
      </trkpt>
      <trkpt lat="59.875659942626953" lon="29.313926696777344">
        <time>2026-07-26T14:50:09Z</time>
      </trkpt>
      <trkpt lat="59.875659942626953" lon="29.313926696777344">
        <time>2026-07-26T14:50:12Z</time>
      </trkpt>
      <trkpt lat="59.875659942626953" lon="29.313926696777344">
        <time>2026-07-26T14:50:14Z</time>
      </trkpt>
      <trkpt lat="59.875659942626953" lon="29.313926696777344">
        <time>2026-07-26T14:50:17Z</time>
      </trkpt>
      <trkpt lat="59.875659942626953" lon="29.313926696777344">
        <time>2026-07-26T14:50:19Z</time>
      </trkpt>
      <trkpt lat="59.875681400299072" lon="29.313926696777344">
        <time>2026-07-26T14:50:22Z</time>
      </trkpt>
      <trkpt lat="59.875702857971191" lon="29.313969612121582">
        <time>2026-07-26T14:50:24Z</time>
      </trkpt>
      <trkpt lat="59.875702857971191" lon="29.313991069793701">
        <time>2026-07-26T14:50:27Z</time>
      </trkpt>
      <trkpt lat="59.875702857971191" lon="29.314033985137939">
        <time>2026-07-26T14:50:29Z</time>
      </trkpt>
      <trkpt lat="59.875702857971191" lon="29.31401252746582">
        <time>2026-07-26T14:50:32Z</time>
      </trkpt>
      <trkpt lat="59.875681400299072" lon="29.31401252746582">
        <time>2026-07-26T14:50:34Z</time>
      </trkpt>
      <trkpt lat="59.875702857971191" lon="29.314033985137939">
        <time>2026-07-26T14:50:37Z</time>
      </trkpt>
      <trkpt lat="59.875702857971191" lon="29.314033985137939">
        <time>2026-07-26T14:50:39Z</time>
      </trkpt>
      <trkpt lat="59.875681400299072" lon="29.314076900482178">
        <time>2026-07-26T14:50:42Z</time>
      </trkpt>
      <trkpt lat="59.875681400299072" lon="29.314098358154297">
        <time>2026-07-26T14:50:44Z</time>
      </trkpt>
      <trkpt lat="59.875681400299072" lon="29.314098358154297">
        <time>2026-07-26T14:50:47Z</time>
      </trkpt>
      <trkpt lat="59.875702857971191" lon="29.314076900482178">
        <time>2026-07-26T14:50:49Z</time>
      </trkpt>
      <trkpt lat="59.875702857971191" lon="29.314076900482178">
        <time>2026-07-26T14:50:52Z</time>
      </trkpt>
      <trkpt lat="59.875702857971191" lon="29.314055442810059">
        <time>2026-07-26T14:50:54Z</time>
      </trkpt>
      <trkpt lat="59.875702857971191" lon="29.314076900482178">
        <time>2026-07-26T14:50:57Z</time>
      </trkpt>
      <trkpt lat="59.875702857971191" lon="29.314076900482178">
        <time>2026-07-26T14:50:59Z</time>
      </trkpt>
      <trkpt lat="59.875681400299072" lon="29.314055442810059">
        <time>2026-07-26T14:51:02Z</time>
      </trkpt>
      <trkpt lat="59.875659942626953" lon="29.314033985137939">
        <time>2026-07-26T14:51:04Z</time>
      </trkpt>
      <trkpt lat="59.875638484954834" lon="29.31401252746582">
        <time>2026-07-26T14:51:07Z</time>
      </trkpt>
      <trkpt lat="59.875638484954834" lon="29.31401252746582">
        <time>2026-07-26T14:51:09Z</time>
      </trkpt>
      <trkpt lat="59.875638484954834" lon="29.31401252746582">
        <time>2026-07-26T14:51:12Z</time>
      </trkpt>
      <trkpt lat="59.875638484954834" lon="29.31401252746582">
        <time>2026-07-26T14:51:14Z</time>
      </trkpt>
      <trkpt lat="59.875638484954834" lon="29.31401252746582">
        <time>2026-07-26T14:51:17Z</time>
      </trkpt>
      <trkpt lat="59.875617027282715" lon="29.314098358154297">
        <time>2026-07-26T14:51:19Z</time>
      </trkpt>
      <trkpt lat="59.875595569610596" lon="29.314119815826416">
        <time>2026-07-26T14:51:22Z</time>
      </trkpt>
      <trkpt lat="59.875574111938477" lon="29.314162731170654">
        <time>2026-07-26T14:51:24Z</time>
      </trkpt>
      <trkpt lat="59.875574111938477" lon="29.314184188842773">
        <time>2026-07-26T14:51:27Z</time>
      </trkpt>
      <trkpt lat="59.875552654266357" lon="29.314227104187012">
        <time>2026-07-26T14:51:29Z</time>
      </trkpt>
      <trkpt lat="59.875552654266357" lon="29.314227104187012">
        <time>2026-07-26T14:51:32Z</time>
      </trkpt>
      <trkpt lat="59.875552654266357" lon="29.314227104187012">
        <time>2026-07-26T14:51:34Z</time>
      </trkpt>
      <trkpt lat="59.875552654266357" lon="29.314248561859131">
        <time>2026-07-26T14:51:37Z</time>
      </trkpt>
      <trkpt lat="59.875531196594238" lon="29.31427001953125">
        <time>2026-07-26T14:51:39Z</time>
      </trkpt>
      <trkpt lat="59.875552654266357" lon="29.31427001953125">
        <time>2026-07-26T14:51:42Z</time>
      </trkpt>
      <trkpt lat="59.875552654266357" lon="29.31427001953125">
        <time>2026-07-26T14:51:44Z</time>
      </trkpt>
      <trkpt lat="59.875574111938477" lon="29.31427001953125">
        <time>2026-07-26T14:51:47Z</time>
      </trkpt>
      <trkpt lat="59.875617027282715" lon="29.314291477203369">
        <time>2026-07-26T14:51:49Z</time>
      </trkpt>
      <trkpt lat="59.875638484954834" lon="29.31427001953125">
        <time>2026-07-26T14:51:52Z</time>
      </trkpt>
      <trkpt lat="59.875638484954834" lon="29.314248561859131">
        <time>2026-07-26T14:51:54Z</time>
      </trkpt>
      <trkpt lat="59.875638484954834" lon="29.314248561859131">
        <time>2026-07-26T14:51:57Z</time>
      </trkpt>
      <trkpt lat="59.875595569610596" lon="29.314227104187012">
        <time>2026-07-26T14:51:59Z</time>
      </trkpt>
      <trkpt lat="59.875595569610596" lon="29.314227104187012">
        <time>2026-07-26T14:52:02Z</time>
      </trkpt>
      <trkpt lat="59.875531196594238" lon="29.314184188842773">
        <time>2026-07-26T14:52:04Z</time>
      </trkpt>
      <trkpt lat="59.87548828125" lon="29.314227104187012">
        <time>2026-07-26T14:52:07Z</time>
      </trkpt>
      <trkpt lat="59.87548828125" lon="29.314248561859131">
        <time>2026-07-26T14:52:09Z</time>
      </trkpt>
      <trkpt lat="59.87548828125" lon="29.314248561859131">
        <time>2026-07-26T14:52:12Z</time>
      </trkpt>
      <trkpt lat="59.87548828125" lon="29.31427001953125">
        <time>2026-07-26T14:52:14Z</time>
      </trkpt>
      <trkpt lat="59.87548828125" lon="29.314312934875488">
        <time>2026-07-26T14:52:17Z</time>
      </trkpt>
      <trkpt lat="59.875466823577881" lon="29.314334392547607">
        <time>2026-07-26T14:52:19Z</time>
      </trkpt>
      <trkpt lat="59.875466823577881" lon="29.314355850219727">
        <time>2026-07-26T14:52:22Z</time>
      </trkpt>
      <trkpt lat="59.875466823577881" lon="29.314420223236084">
        <time>2026-07-26T14:52:24Z</time>
      </trkpt>
      <trkpt lat="59.875466823577881" lon="29.314420223236084">
        <time>2026-07-26T14:52:27Z</time>
      </trkpt>
      <trkpt lat="59.875445365905762" lon="29.314441680908203">
        <time>2026-07-26T14:52:29Z</time>
      </trkpt>
      <trkpt lat="59.875445365905762" lon="29.314463138580322">
        <time>2026-07-26T14:52:32Z</time>
      </trkpt>
      <trkpt lat="59.875402450561523" lon="29.314463138580322">
        <time>2026-07-26T14:52:34Z</time>
      </trkpt>
      <trkpt lat="59.875380992889404" lon="29.314463138580322">
        <time>2026-07-26T14:52:37Z</time>
      </trkpt>
      <trkpt lat="59.875359535217285" lon="29.314463138580322">
        <time>2026-07-26T14:52:39Z</time>
      </trkpt>
      <trkpt lat="59.875359535217285" lon="29.314463138580322">
        <time>2026-07-26T14:52:42Z</time>
      </trkpt>
      <trkpt lat="59.875359535217285" lon="29.314484596252441">
        <time>2026-07-26T14:52:44Z</time>
      </trkpt>
      <trkpt lat="59.875359535217285" lon="29.314484596252441">
        <time>2026-07-26T14:52:47Z</time>
      </trkpt>
      <trkpt lat="59.875359535217285" lon="29.314463138580322">
        <time>2026-07-26T14:52:49Z</time>
      </trkpt>
      <trkpt lat="59.875359535217285" lon="29.314506053924561">
        <time>2026-07-26T14:52:52Z</time>
      </trkpt>
      <trkpt lat="59.875338077545166" lon="29.314506053924561">
        <time>2026-07-26T14:52:54Z</time>
      </trkpt>
      <trkpt lat="59.875338077545166" lon="29.314506053924561">
        <time>2026-07-26T14:52:57Z</time>
      </trkpt>
      <trkpt lat="59.875338077545166" lon="29.314506053924561">
        <time>2026-07-26T14:52:59Z</time>
      </trkpt>
      <trkpt lat="59.875338077545166" lon="29.314484596252441">
        <time>2026-07-26T14:53:02Z</time>
      </trkpt>
      <trkpt lat="59.875338077545166" lon="29.314441680908203">
        <time>2026-07-26T14:53:04Z</time>
      </trkpt>
      <trkpt lat="59.875316619873047" lon="29.314463138580322">
        <time>2026-07-26T14:53:07Z</time>
      </trkpt>
      <trkpt lat="59.875338077545166" lon="29.31452751159668">
        <time>2026-07-26T14:53:09Z</time>
      </trkpt>
      <trkpt lat="59.875316619873047" lon="29.314548969268799">
        <time>2026-07-26T14:53:12Z</time>
      </trkpt>
      <trkpt lat="59.875295162200928" lon="29.314570426940918">
        <time>2026-07-26T14:53:14Z</time>
      </trkpt>
      <trkpt lat="59.875316619873047" lon="29.314570426940918">
        <time>2026-07-26T14:53:17Z</time>
      </trkpt>
      <trkpt lat="59.875359535217285" lon="29.314570426940918">
        <time>2026-07-26T14:53:19Z</time>
      </trkpt>
      <trkpt lat="59.875359535217285" lon="29.314570426940918">
        <time>2026-07-26T14:53:22Z</time>
      </trkpt>
      <trkpt lat="59.875359535217285" lon="29.314570426940918">
        <time>2026-07-26T14:53:24Z</time>
      </trkpt>
      <trkpt lat="59.875316619873047" lon="29.314591884613037">
        <time>2026-07-26T14:53:29Z</time>
      </trkpt>
      <trkpt lat="59.875316619873047" lon="29.314613342285156">
        <time>2026-07-26T14:53:32Z</time>
      </trkpt>
      <trkpt lat="59.875316619873047" lon="29.314591884613037">
        <time>2026-07-26T14:53:34Z</time>
      </trkpt>
      <trkpt lat="59.875316619873047" lon="29.314591884613037">
        <time>2026-07-26T14:53:37Z</time>
      </trkpt>
      <trkpt lat="59.875316619873047" lon="29.314591884613037">
        <time>2026-07-26T14:53:39Z</time>
      </trkpt>
      <trkpt lat="59.875295162200928" lon="29.314591884613037">
        <time>2026-07-26T14:53:42Z</time>
      </trkpt>
      <trkpt lat="59.875295162200928" lon="29.31452751159668">
        <time>2026-07-26T14:53:44Z</time>
      </trkpt>
      <trkpt lat="59.875295162200928" lon="29.314484596252441">
        <time>2026-07-26T14:53:47Z</time>
      </trkpt>
      <trkpt lat="59.875295162200928" lon="29.314441680908203">
        <time>2026-07-26T14:53:49Z</time>
      </trkpt>
      <trkpt lat="59.875273704528809" lon="29.314398765563965">
        <time>2026-07-26T14:53:52Z</time>
      </trkpt>
      <trkpt lat="59.875252246856689" lon="29.314312934875488">
        <time>2026-07-26T14:53:54Z</time>
      </trkpt>
      <trkpt lat="59.875273704528809" lon="29.314355850219727">
        <time>2026-07-26T14:53:57Z</time>
      </trkpt>
      <trkpt lat="59.875273704528809" lon="29.314420223236084">
        <time>2026-07-26T14:53:59Z</time>
      </trkpt>
      <trkpt lat="59.875252246856689" lon="29.314441680908203">
        <time>2026-07-26T14:54:02Z</time>
      </trkpt>
      <trkpt lat="59.875252246856689" lon="29.314441680908203">
        <time>2026-07-26T14:54:04Z</time>
      </trkpt>
      <trkpt lat="59.875252246856689" lon="29.314441680908203">
        <time>2026-07-26T14:54:07Z</time>
      </trkpt>
      <trkpt lat="59.875252246856689" lon="29.314441680908203">
        <time>2026-07-26T14:54:09Z</time>
      </trkpt>
      <trkpt lat="59.875252246856689" lon="29.314441680908203">
        <time>2026-07-26T14:54:12Z</time>
      </trkpt>
      <trkpt lat="59.875252246856689" lon="29.314441680908203">
        <time>2026-07-26T14:54:14Z</time>
      </trkpt>
      <trkpt lat="59.875252246856689" lon="29.314441680908203">
        <time>2026-07-26T14:54:17Z</time>
      </trkpt>
      <trkpt lat="59.875252246856689" lon="29.314441680908203">
        <time>2026-07-26T14:54:19Z</time>
      </trkpt>
      <trkpt lat="59.875252246856689" lon="29.314441680908203">
        <time>2026-07-26T14:54:22Z</time>
      </trkpt>
      <trkpt lat="59.875252246856689" lon="29.314441680908203">
        <time>2026-07-26T14:54:24Z</time>
      </trkpt>
      <trkpt lat="59.875252246856689" lon="29.314441680908203">
        <time>2026-07-26T14:54:27Z</time>
      </trkpt>
      <trkpt lat="59.875252246856689" lon="29.314441680908203">
        <time>2026-07-26T14:54:29Z</time>
      </trkpt>
      <trkpt lat="59.875252246856689" lon="29.314441680908203">
        <time>2026-07-26T14:54:32Z</time>
      </trkpt>
      <trkpt lat="59.875252246856689" lon="29.314441680908203">
        <time>2026-07-26T14:54:34Z</time>
      </trkpt>
      <trkpt lat="59.875252246856689" lon="29.314441680908203">
        <time>2026-07-26T14:54:37Z</time>
      </trkpt>
      <trkpt lat="59.875252246856689" lon="29.314441680908203">
        <time>2026-07-26T14:54:39Z</time>
      </trkpt>
      <trkpt lat="59.875273704528809" lon="29.314420223236084">
        <time>2026-07-26T14:54:42Z</time>
      </trkpt>
      <trkpt lat="59.875295162200928" lon="29.314377307891846">
        <time>2026-07-26T14:54:44Z</time>
      </trkpt>
      <trkpt lat="59.875295162200928" lon="29.314377307891846">
        <time>2026-07-26T14:54:47Z</time>
      </trkpt>
      <trkpt lat="59.875273704528809" lon="29.314420223236084">
        <time>2026-07-26T14:54:49Z</time>
      </trkpt>
      <trkpt lat="59.875252246856689" lon="29.314441680908203">
        <time>2026-07-26T14:54:52Z</time>
      </trkpt>
      <trkpt lat="59.875273704528809" lon="29.31452751159668">
        <time>2026-07-26T14:54:54Z</time>
      </trkpt>
      <trkpt lat="59.875359535217285" lon="29.314506053924561">
        <time>2026-07-26T14:54:57Z</time>
      </trkpt>
      <trkpt lat="59.875380992889404" lon="29.314506053924561">
        <time>2026-07-26T14:54:59Z</time>
      </trkpt>
      <trkpt lat="59.875359535217285" lon="29.314506053924561">
        <time>2026-07-26T14:55:02Z</time>
      </trkpt>
      <trkpt lat="59.875359535217285" lon="29.31452751159668">
        <time>2026-07-26T14:55:04Z</time>
      </trkpt>
      <trkpt lat="59.875316619873047" lon="29.314484596252441">
        <time>2026-07-26T14:55:07Z</time>
      </trkpt>
      <trkpt lat="59.875316619873047" lon="29.314441680908203">
        <time>2026-07-26T14:55:09Z</time>
      </trkpt>
      <trkpt lat="59.875295162200928" lon="29.314398765563965">
        <time>2026-07-26T14:55:12Z</time>
      </trkpt>
      <trkpt lat="59.875295162200928" lon="29.314398765563965">
        <time>2026-07-26T14:55:14Z</time>
      </trkpt>
      <trkpt lat="59.875273704528809" lon="29.314355850219727">
        <time>2026-07-26T14:55:17Z</time>
      </trkpt>
      <trkpt lat="59.87523078918457" lon="29.314227104187012">
        <time>2026-07-26T14:55:19Z</time>
      </trkpt>
      <trkpt lat="59.875209331512451" lon="29.314184188842773">
        <time>2026-07-26T14:55:22Z</time>
      </trkpt>
      <trkpt lat="59.875166416168213" lon="29.314184188842773">
        <time>2026-07-26T14:55:24Z</time>
      </trkpt>
      <trkpt lat="59.875144958496094" lon="29.314184188842773">
        <time>2026-07-26T14:55:27Z</time>
      </trkpt>
      <trkpt lat="59.875080585479736" lon="29.314184188842773">
        <time>2026-07-26T14:55:29Z</time>
      </trkpt>
      <trkpt lat="59.875059127807617" lon="29.314141273498535">
        <time>2026-07-26T14:55:32Z</time>
      </trkpt>
      <trkpt lat="59.875080585479736" lon="29.314141273498535">
        <time>2026-07-26T14:55:34Z</time>
      </trkpt>
      <trkpt lat="59.875059127807617" lon="29.314119815826416">
        <time>2026-07-26T14:55:37Z</time>
      </trkpt>
      <trkpt lat="59.875059127807617" lon="29.314162731170654">
        <time>2026-07-26T14:55:39Z</time>
      </trkpt>
      <trkpt lat="59.875102043151855" lon="29.314162731170654">
        <time>2026-07-26T14:55:42Z</time>
      </trkpt>
      <trkpt lat="59.875123500823975" lon="29.314033985137939">
        <time>2026-07-26T14:55:44Z</time>
      </trkpt>
      <trkpt lat="59.875144958496094" lon="29.313948154449463">
        <time>2026-07-26T14:55:47Z</time>
      </trkpt>
      <trkpt lat="59.875123500823975" lon="29.313926696777344">
        <time>2026-07-26T14:55:49Z</time>
      </trkpt>
      <trkpt lat="59.875080585479736" lon="29.313948154449463">
        <time>2026-07-26T14:55:52Z</time>
      </trkpt>
      <trkpt lat="59.875037670135498" lon="29.314033985137939">
        <time>2026-07-26T14:55:54Z</time>
      </trkpt>
      <trkpt lat="59.875016212463379" lon="29.31401252746582">
        <time>2026-07-26T14:55:57Z</time>
      </trkpt>
      <trkpt lat="59.87499475479126" lon="29.313991069793701">
        <time>2026-07-26T14:55:59Z</time>
      </trkpt>
      <trkpt lat="59.874973297119141" lon="29.31401252746582">
        <time>2026-07-26T14:56:02Z</time>
      </trkpt>
      <trkpt lat="59.874930381774902" lon="29.314033985137939">
        <time>2026-07-26T14:56:04Z</time>
      </trkpt>
      <trkpt lat="59.874887466430664" lon="29.31401252746582">
        <time>2026-07-26T14:56:07Z</time>
      </trkpt>
      <trkpt lat="59.874844551086426" lon="29.31401252746582">
        <time>2026-07-26T14:56:09Z</time>
      </trkpt>
      <trkpt lat="59.874844551086426" lon="29.314033985137939">
        <time>2026-07-26T14:56:12Z</time>
      </trkpt>
      <trkpt lat="59.874908924102783" lon="29.314055442810059">
        <time>2026-07-26T14:56:14Z</time>
      </trkpt>
      <trkpt lat="59.874908924102783" lon="29.314055442810059">
        <time>2026-07-26T14:56:17Z</time>
      </trkpt>
      <trkpt lat="59.874887466430664" lon="29.314055442810059">
        <time>2026-07-26T14:56:19Z</time>
      </trkpt>
      <trkpt lat="59.874887466430664" lon="29.314055442810059">
        <time>2026-07-26T14:56:22Z</time>
      </trkpt>
      <trkpt lat="59.874887466430664" lon="29.314033985137939">
        <time>2026-07-26T14:56:24Z</time>
      </trkpt>
      <trkpt lat="59.874887466430664" lon="29.314033985137939">
        <time>2026-07-26T14:56:27Z</time>
      </trkpt>
      <trkpt lat="59.874887466430664" lon="29.314033985137939">
        <time>2026-07-26T14:56:29Z</time>
      </trkpt>
      <trkpt lat="59.874887466430664" lon="29.314033985137939">
        <time>2026-07-26T14:56:32Z</time>
      </trkpt>
      <trkpt lat="59.874887466430664" lon="29.314033985137939">
        <time>2026-07-26T14:56:34Z</time>
      </trkpt>
      <trkpt lat="59.874887466430664" lon="29.314033985137939">
        <time>2026-07-26T14:56:37Z</time>
      </trkpt>
      <trkpt lat="59.874887466430664" lon="29.314033985137939">
        <time>2026-07-26T14:56:39Z</time>
      </trkpt>
      <trkpt lat="59.874887466430664" lon="29.314033985137939">
        <time>2026-07-26T14:56:42Z</time>
      </trkpt>
      <trkpt lat="59.874887466430664" lon="29.314033985137939">
        <time>2026-07-26T14:56:44Z</time>
      </trkpt>
      <trkpt lat="59.874887466430664" lon="29.314033985137939">
        <time>2026-07-26T14:56:47Z</time>
      </trkpt>
      <trkpt lat="59.874887466430664" lon="29.314033985137939">
        <time>2026-07-26T14:56:49Z</time>
      </trkpt>
      <trkpt lat="59.874887466430664" lon="29.314033985137939">
        <time>2026-07-26T14:56:52Z</time>
      </trkpt>
      <trkpt lat="59.874887466430664" lon="29.314033985137939">
        <time>2026-07-26T14:56:54Z</time>
      </trkpt>
      <trkpt lat="59.874887466430664" lon="29.314033985137939">
        <time>2026-07-26T14:56:57Z</time>
      </trkpt>
      <trkpt lat="59.874887466430664" lon="29.314033985137939">
        <time>2026-07-26T14:56:59Z</time>
      </trkpt>
      <trkpt lat="59.874887466430664" lon="29.314033985137939">
        <time>2026-07-26T14:57:02Z</time>
      </trkpt>
      <trkpt lat="59.874887466430664" lon="29.314033985137939">
        <time>2026-07-26T14:57:04Z</time>
      </trkpt>
      <trkpt lat="59.874887466430664" lon="29.314033985137939">
        <time>2026-07-26T14:57:07Z</time>
      </trkpt>
      <trkpt lat="59.874887466430664" lon="29.314033985137939">
        <time>2026-07-26T14:57:09Z</time>
      </trkpt>
      <trkpt lat="59.874908924102783" lon="29.313991069793701">
        <time>2026-07-26T14:57:12Z</time>
      </trkpt>
      <trkpt lat="59.874908924102783" lon="29.313969612121582">
        <time>2026-07-26T14:57:14Z</time>
      </trkpt>
      <trkpt lat="59.874908924102783" lon="29.314033985137939">
        <time>2026-07-26T14:57:17Z</time>
      </trkpt>
      <trkpt lat="59.874908924102783" lon="29.313991069793701">
        <time>2026-07-26T14:57:19Z</time>
      </trkpt>
      <trkpt lat="59.874951839447021" lon="29.313840866088867">
        <time>2026-07-26T14:57:22Z</time>
      </trkpt>
      <trkpt lat="59.874973297119141" lon="29.313819408416748">
        <time>2026-07-26T14:57:24Z</time>
      </trkpt>
      <trkpt lat="59.874951839447021" lon="29.313948154449463">
        <time>2026-07-26T14:57:27Z</time>
      </trkpt>
      <trkpt lat="59.874951839447021" lon="29.313991069793701">
        <time>2026-07-26T14:57:29Z</time>
      </trkpt>
      <trkpt lat="59.87499475479126" lon="29.313797950744629">
        <time>2026-07-26T14:57:32Z</time>
      </trkpt>
      <trkpt lat="59.875016212463379" lon="29.313497543334961">
        <time>2026-07-26T14:57:34Z</time>
      </trkpt>
      <trkpt lat="59.875016212463379" lon="29.313454627990723">
        <time>2026-07-26T14:57:37Z</time>
      </trkpt>
      <trkpt lat="59.87499475479126" lon="29.313690662384033">
        <time>2026-07-26T14:57:39Z</time>
      </trkpt>
      <trkpt lat="59.874973297119141" lon="29.313883781433105">
        <time>2026-07-26T14:57:42Z</time>
      </trkpt>
      <trkpt lat="59.874887466430664" lon="29.313948154449463">
        <time>2026-07-26T14:57:44Z</time>
      </trkpt>
      <trkpt lat="59.874844551086426" lon="29.313991069793701">
        <time>2026-07-26T14:57:47Z</time>
      </trkpt>
      <trkpt lat="59.874801635742188" lon="29.314076900482178">
        <time>2026-07-26T14:57:49Z</time>
      </trkpt>
      <trkpt lat="59.874801635742188" lon="29.314076900482178">
        <time>2026-07-26T14:57:52Z</time>
      </trkpt>
      <trkpt lat="59.874801635742188" lon="29.314055442810059">
        <time>2026-07-26T14:57:54Z</time>
      </trkpt>
      <trkpt lat="59.874801635742188" lon="29.314076900482178">
        <time>2026-07-26T14:57:57Z</time>
      </trkpt>
      <trkpt lat="59.874866008758545" lon="29.314033985137939">
        <time>2026-07-26T14:57:59Z</time>
      </trkpt>
      <trkpt lat="59.874866008758545" lon="29.314033985137939">
        <time>2026-07-26T14:58:02Z</time>
      </trkpt>
      <trkpt lat="59.874844551086426" lon="29.314033985137939">
        <time>2026-07-26T14:58:04Z</time>
      </trkpt>
      <trkpt lat="59.874823093414307" lon="29.313969612121582">
        <time>2026-07-26T14:58:07Z</time>
      </trkpt>
      <trkpt lat="59.874801635742188" lon="29.313991069793701">
        <time>2026-07-26T14:58:09Z</time>
      </trkpt>
      <trkpt lat="59.874801635742188" lon="29.314055442810059">
        <time>2026-07-26T14:58:12Z</time>
      </trkpt>
      <trkpt lat="59.87473726272583" lon="29.314055442810059">
        <time>2026-07-26T14:58:14Z</time>
      </trkpt>
      <trkpt lat="59.874715805053711" lon="29.313991069793701">
        <time>2026-07-26T14:58:17Z</time>
      </trkpt>
      <trkpt lat="59.874694347381592" lon="29.314033985137939">
        <time>2026-07-26T14:58:19Z</time>
      </trkpt>
      <trkpt lat="59.874715805053711" lon="29.314055442810059">
        <time>2026-07-26T14:58:22Z</time>
      </trkpt>
      <trkpt lat="59.874694347381592" lon="29.314098358154297">
        <time>2026-07-26T14:58:24Z</time>
      </trkpt>
      <trkpt lat="59.874672889709473" lon="29.314076900482178">
        <time>2026-07-26T14:58:27Z</time>
      </trkpt>
      <trkpt lat="59.874651432037354" lon="29.314055442810059">
        <time>2026-07-26T14:58:29Z</time>
      </trkpt>
      <trkpt lat="59.874651432037354" lon="29.314055442810059">
        <time>2026-07-26T14:58:32Z</time>
      </trkpt>
      <trkpt lat="59.874651432037354" lon="29.314033985137939">
        <time>2026-07-26T14:58:34Z</time>
      </trkpt>
      <trkpt lat="59.874608516693115" lon="29.31401252746582">
        <time>2026-07-26T14:58:37Z</time>
      </trkpt>
      <trkpt lat="59.874522686004639" lon="29.31401252746582">
        <time>2026-07-26T14:58:39Z</time>
      </trkpt>
      <trkpt lat="59.8744797706604" lon="29.313969612121582">
        <time>2026-07-26T14:58:42Z</time>
      </trkpt>
      <trkpt lat="59.874436855316162" lon="29.313905239105225">
        <time>2026-07-26T14:58:44Z</time>
      </trkpt>
      <trkpt lat="59.874393939971924" lon="29.313926696777344">
        <time>2026-07-26T14:58:47Z</time>
      </trkpt>
      <trkpt lat="59.874372482299805" lon="29.313926696777344">
        <time>2026-07-26T14:58:49Z</time>
      </trkpt>
      <trkpt lat="59.874329566955566" lon="29.313883781433105">
        <time>2026-07-26T14:58:52Z</time>
      </trkpt>
      <trkpt lat="59.874308109283447" lon="29.313840866088867">
        <time>2026-07-26T14:58:54Z</time>
      </trkpt>
      <trkpt lat="59.874286651611328" lon="29.313797950744629">
        <time>2026-07-26T14:58:57Z</time>
      </trkpt>
      <trkpt lat="59.874265193939209" lon="29.313712120056152">
        <time>2026-07-26T14:58:59Z</time>
      </trkpt>
      <trkpt lat="59.874265193939209" lon="29.313733577728271">
        <time>2026-07-26T14:59:02Z</time>
      </trkpt>
      <trkpt lat="59.874265193939209" lon="29.313797950744629">
        <time>2026-07-26T14:59:04Z</time>
      </trkpt>
      <trkpt lat="59.87424373626709" lon="29.313819408416748">
        <time>2026-07-26T14:59:07Z</time>
      </trkpt>
      <trkpt lat="59.87424373626709" lon="29.313712120056152">
        <time>2026-07-26T14:59:09Z</time>
      </trkpt>
      <trkpt lat="59.87424373626709" lon="29.313626289367676">
        <time>2026-07-26T14:59:12Z</time>
      </trkpt>
      <trkpt lat="59.87424373626709" lon="29.313583374023438">
        <time>2026-07-26T14:59:14Z</time>
      </trkpt>
      <trkpt lat="59.87424373626709" lon="29.313583374023438">
        <time>2026-07-26T14:59:17Z</time>
      </trkpt>
      <trkpt lat="59.87424373626709" lon="29.313604831695557">
        <time>2026-07-26T14:59:19Z</time>
      </trkpt>
      <trkpt lat="59.874222278594971" lon="29.313626289367676">
        <time>2026-07-26T14:59:22Z</time>
      </trkpt>
      <trkpt lat="59.87424373626709" lon="29.313540458679199">
        <time>2026-07-26T14:59:24Z</time>
      </trkpt>
      <trkpt lat="59.87424373626709" lon="29.313454627990723">
        <time>2026-07-26T14:59:27Z</time>
      </trkpt>
      <trkpt lat="59.87424373626709" lon="29.313476085662842">
        <time>2026-07-26T14:59:29Z</time>
      </trkpt>
      <trkpt lat="59.874222278594971" lon="29.313497543334961">
        <time>2026-07-26T14:59:32Z</time>
      </trkpt>
      <trkpt lat="59.87424373626709" lon="29.313454627990723">
        <time>2026-07-26T14:59:34Z</time>
      </trkpt>
      <trkpt lat="59.87424373626709" lon="29.313390254974365">
        <time>2026-07-26T14:59:37Z</time>
      </trkpt>
      <trkpt lat="59.874222278594971" lon="29.313390254974365">
        <time>2026-07-26T14:59:39Z</time>
      </trkpt>
      <trkpt lat="59.874222278594971" lon="29.313433170318604">
        <time>2026-07-26T14:59:42Z</time>
      </trkpt>
      <trkpt lat="59.874200820922852" lon="29.313604831695557">
        <time>2026-07-26T14:59:44Z</time>
      </trkpt>
      <trkpt lat="59.874200820922852" lon="29.313626289367676">
        <time>2026-07-26T14:59:47Z</time>
      </trkpt>
      <trkpt lat="59.87424373626709" lon="29.313497543334961">
        <time>2026-07-26T14:59:49Z</time>
      </trkpt>
      <trkpt lat="59.874286651611328" lon="29.313368797302246">
        <time>2026-07-26T14:59:52Z</time>
      </trkpt>
      <trkpt lat="59.874308109283447" lon="29.313368797302246">
        <time>2026-07-26T14:59:54Z</time>
      </trkpt>
      <trkpt lat="59.874308109283447" lon="29.313347339630127">
        <time>2026-07-26T14:59:57Z</time>
      </trkpt>
      <trkpt lat="59.874286651611328" lon="29.313325881958008">
        <time>2026-07-26T14:59:59Z</time>
      </trkpt>
      <trkpt lat="59.87424373626709" lon="29.313325881958008">
        <time>2026-07-26T15:00:02Z</time>
      </trkpt>
      <trkpt lat="59.874179363250732" lon="29.313325881958008">
        <time>2026-07-26T15:00:04Z</time>
      </trkpt>
      <trkpt lat="59.874136447906494" lon="29.313304424285889">
        <time>2026-07-26T15:00:07Z</time>
      </trkpt>
      <trkpt lat="59.874093532562256" lon="29.31328296661377">
        <time>2026-07-26T15:00:09Z</time>
      </trkpt>
      <trkpt lat="59.874093532562256" lon="29.31326150894165">
        <time>2026-07-26T15:00:12Z</time>
      </trkpt>
      <trkpt lat="59.874093532562256" lon="29.313240051269531">
        <time>2026-07-26T15:00:14Z</time>
      </trkpt>
      <trkpt lat="59.874093532562256" lon="29.313240051269531">
        <time>2026-07-26T15:00:17Z</time>
      </trkpt>
      <trkpt lat="59.874093532562256" lon="29.313240051269531">
        <time>2026-07-26T15:00:19Z</time>
      </trkpt>
      <trkpt lat="59.874093532562256" lon="29.313240051269531">
        <time>2026-07-26T15:00:22Z</time>
      </trkpt>
      <trkpt lat="59.874072074890137" lon="29.313218593597412">
        <time>2026-07-26T15:00:24Z</time>
      </trkpt>
      <trkpt lat="59.874050617218018" lon="29.313175678253174">
        <time>2026-07-26T15:00:27Z</time>
      </trkpt>
      <trkpt lat="59.874029159545898" lon="29.313175678253174">
        <time>2026-07-26T15:00:29Z</time>
      </trkpt>
      <trkpt lat="59.874029159545898" lon="29.313154220581055">
        <time>2026-07-26T15:00:32Z</time>
      </trkpt>
      <trkpt lat="59.874007701873779" lon="29.313068389892578">
        <time>2026-07-26T15:00:34Z</time>
      </trkpt>
      <trkpt lat="59.874007701873779" lon="29.313046932220459">
        <time>2026-07-26T15:00:37Z</time>
      </trkpt>
      <trkpt lat="59.874007701873779" lon="29.313046932220459">
        <time>2026-07-26T15:00:39Z</time>
      </trkpt>
      <trkpt lat="59.874007701873779" lon="29.313068389892578">
        <time>2026-07-26T15:00:42Z</time>
      </trkpt>
      <trkpt lat="59.87398624420166" lon="29.313132762908936">
        <time>2026-07-26T15:00:44Z</time>
      </trkpt>
      <trkpt lat="59.873964786529541" lon="29.313175678253174">
        <time>2026-07-26T15:00:47Z</time>
      </trkpt>
      <trkpt lat="59.873943328857422" lon="29.31326150894165">
        <time>2026-07-26T15:00:49Z</time>
      </trkpt>
      <trkpt lat="59.873921871185303" lon="29.31326150894165">
        <time>2026-07-26T15:00:52Z</time>
      </trkpt>
      <trkpt lat="59.873921871185303" lon="29.31326150894165">
        <time>2026-07-26T15:00:54Z</time>
      </trkpt>
      <trkpt lat="59.873900413513184" lon="29.31326150894165">
        <time>2026-07-26T15:00:57Z</time>
      </trkpt>
      <trkpt lat="59.873900413513184" lon="29.31326150894165">
        <time>2026-07-26T15:00:59Z</time>
      </trkpt>
      <trkpt lat="59.873900413513184" lon="29.31326150894165">
        <time>2026-07-26T15:01:02Z</time>
      </trkpt>
      <trkpt lat="59.873900413513184" lon="29.31328296661377">
        <time>2026-07-26T15:01:04Z</time>
      </trkpt>
      <trkpt lat="59.873900413513184" lon="29.31328296661377">
        <time>2026-07-26T15:01:07Z</time>
      </trkpt>
      <trkpt lat="59.873900413513184" lon="29.31328296661377">
        <time>2026-07-26T15:01:09Z</time>
      </trkpt>
      <trkpt lat="59.873900413513184" lon="29.31328296661377">
        <time>2026-07-26T15:01:12Z</time>
      </trkpt>
      <trkpt lat="59.873900413513184" lon="29.31328296661377">
        <time>2026-07-26T15:01:14Z</time>
      </trkpt>
      <trkpt lat="59.873900413513184" lon="29.313304424285889">
        <time>2026-07-26T15:01:17Z</time>
      </trkpt>
      <trkpt lat="59.873900413513184" lon="29.313304424285889">
        <time>2026-07-26T15:01:19Z</time>
      </trkpt>
      <trkpt lat="59.873900413513184" lon="29.31328296661377">
        <time>2026-07-26T15:01:22Z</time>
      </trkpt>
      <trkpt lat="59.873900413513184" lon="29.313304424285889">
        <time>2026-07-26T15:01:24Z</time>
      </trkpt>
      <trkpt lat="59.873878955841064" lon="29.313325881958008">
        <time>2026-07-26T15:01:27Z</time>
      </trkpt>
      <trkpt lat="59.873857498168945" lon="29.313304424285889">
        <time>2026-07-26T15:01:29Z</time>
      </trkpt>
      <trkpt lat="59.873836040496826" lon="29.313304424285889">
        <time>2026-07-26T15:01:32Z</time>
      </trkpt>
      <trkpt lat="59.873836040496826" lon="29.313304424285889">
        <time>2026-07-26T15:01:34Z</time>
      </trkpt>
      <trkpt lat="59.873857498168945" lon="29.313325881958008">
        <time>2026-07-26T15:01:37Z</time>
      </trkpt>
      <trkpt lat="59.873878955841064" lon="29.313325881958008">
        <time>2026-07-26T15:01:39Z</time>
      </trkpt>
      <trkpt lat="59.873878955841064" lon="29.31328296661377">
        <time>2026-07-26T15:01:42Z</time>
      </trkpt>
      <trkpt lat="59.873878955841064" lon="29.313304424285889">
        <time>2026-07-26T15:01:44Z</time>
      </trkpt>
      <trkpt lat="59.873878955841064" lon="29.313325881958008">
        <time>2026-07-26T15:01:47Z</time>
      </trkpt>
      <trkpt lat="59.873836040496826" lon="29.313347339630127">
        <time>2026-07-26T15:01:49Z</time>
      </trkpt>
      <trkpt lat="59.873814582824707" lon="29.313304424285889">
        <time>2026-07-26T15:01:52Z</time>
      </trkpt>
      <trkpt lat="59.873793125152588" lon="29.313304424285889">
        <time>2026-07-26T15:01:54Z</time>
      </trkpt>
      <trkpt lat="59.873814582824707" lon="29.313325881958008">
        <time>2026-07-26T15:01:57Z</time>
      </trkpt>
      <trkpt lat="59.873814582824707" lon="29.31328296661377">
        <time>2026-07-26T15:01:59Z</time>
      </trkpt>
      <trkpt lat="59.873814582824707" lon="29.313218593597412">
        <time>2026-07-26T15:02:02Z</time>
      </trkpt>
      <trkpt lat="59.873814582824707" lon="29.313197135925293">
        <time>2026-07-26T15:02:04Z</time>
      </trkpt>
      <trkpt lat="59.873793125152588" lon="29.313240051269531">
        <time>2026-07-26T15:02:07Z</time>
      </trkpt>
      <trkpt lat="59.873771667480469" lon="29.313304424285889">
        <time>2026-07-26T15:02:09Z</time>
      </trkpt>
      <trkpt lat="59.87375020980835" lon="29.313304424285889">
        <time>2026-07-26T15:02:12Z</time>
      </trkpt>
      <trkpt lat="59.87372875213623" lon="29.31328296661377">
        <time>2026-07-26T15:02:14Z</time>
      </trkpt>
      <trkpt lat="59.873707294464111" lon="29.313240051269531">
        <time>2026-07-26T15:02:17Z</time>
      </trkpt>
      <trkpt lat="59.873707294464111" lon="29.313240051269531">
        <time>2026-07-26T15:02:19Z</time>
      </trkpt>
      <trkpt lat="59.873707294464111" lon="29.313197135925293">
        <time>2026-07-26T15:02:22Z</time>
      </trkpt>
      <trkpt lat="59.873685836791992" lon="29.313154220581055">
        <time>2026-07-26T15:02:24Z</time>
      </trkpt>
      <trkpt lat="59.873685836791992" lon="29.313132762908936">
        <time>2026-07-26T15:02:27Z</time>
      </trkpt>
      <trkpt lat="59.873664379119873" lon="29.313089847564697">
        <time>2026-07-26T15:02:32Z</time>
      </trkpt>
      <trkpt lat="59.873642921447754" lon="29.313046932220459">
        <time>2026-07-26T15:02:34Z</time>
      </trkpt>
      <trkpt lat="59.873621463775635" lon="29.313004016876221">
        <time>2026-07-26T15:02:37Z</time>
      </trkpt>
      <trkpt lat="59.873621463775635" lon="29.312961101531982">
        <time>2026-07-26T15:02:39Z</time>
      </trkpt>
      <trkpt lat="59.873621463775635" lon="29.312961101531982">
        <time>2026-07-26T15:02:42Z</time>
      </trkpt>
      <trkpt lat="59.873600006103516" lon="29.312982559204102">
        <time>2026-07-26T15:02:44Z</time>
      </trkpt>
      <trkpt lat="59.873578548431396" lon="29.312982559204102">
        <time>2026-07-26T15:02:47Z</time>
      </trkpt>
      <trkpt lat="59.873535633087158" lon="29.312961101531982">
        <time>2026-07-26T15:02:49Z</time>
      </trkpt>
      <trkpt lat="59.873514175415039" lon="29.312961101531982">
        <time>2026-07-26T15:02:52Z</time>
      </trkpt>
      <trkpt lat="59.87349271774292" lon="29.312939643859863">
        <time>2026-07-26T15:02:54Z</time>
      </trkpt>
      <trkpt lat="59.87349271774292" lon="29.312961101531982">
        <time>2026-07-26T15:02:57Z</time>
      </trkpt>
      <trkpt lat="59.87349271774292" lon="29.312939643859863">
        <time>2026-07-26T15:02:59Z</time>
      </trkpt>
      <trkpt lat="59.87349271774292" lon="29.312961101531982">
        <time>2026-07-26T15:03:02Z</time>
      </trkpt>
      <trkpt lat="59.873514175415039" lon="29.312939643859863">
        <time>2026-07-26T15:03:04Z</time>
      </trkpt>
      <trkpt lat="59.873514175415039" lon="29.312918186187744">
        <time>2026-07-26T15:03:07Z</time>
      </trkpt>
      <trkpt lat="59.873514175415039" lon="29.312982559204102">
        <time>2026-07-26T15:03:09Z</time>
      </trkpt>
      <trkpt lat="59.873514175415039" lon="29.312961101531982">
        <time>2026-07-26T15:03:12Z</time>
      </trkpt>
      <trkpt lat="59.873514175415039" lon="29.312918186187744">
        <time>2026-07-26T15:03:14Z</time>
      </trkpt>
      <trkpt lat="59.873514175415039" lon="29.312853813171387">
        <time>2026-07-26T15:03:17Z</time>
      </trkpt>
      <trkpt lat="59.873514175415039" lon="29.312832355499268">
        <time>2026-07-26T15:03:19Z</time>
      </trkpt>
      <trkpt lat="59.873514175415039" lon="29.312853813171387">
        <time>2026-07-26T15:03:22Z</time>
      </trkpt>
      <trkpt lat="59.873514175415039" lon="29.312896728515625">
        <time>2026-07-26T15:03:24Z</time>
      </trkpt>
      <trkpt lat="59.873535633087158" lon="29.312875270843506">
        <time>2026-07-26T15:03:27Z</time>
      </trkpt>
      <trkpt lat="59.873557090759277" lon="29.312832355499268">
        <time>2026-07-26T15:03:29Z</time>
      </trkpt>
      <trkpt lat="59.873535633087158" lon="29.312746524810791">
        <time>2026-07-26T15:03:32Z</time>
      </trkpt>
      <trkpt lat="59.873514175415039" lon="29.312639236450195">
        <time>2026-07-26T15:03:34Z</time>
      </trkpt>
      <trkpt lat="59.873514175415039" lon="29.312639236450195">
        <time>2026-07-26T15:03:37Z</time>
      </trkpt>
      <trkpt lat="59.873535633087158" lon="29.312789440155029">
        <time>2026-07-26T15:03:39Z</time>
      </trkpt>
      <trkpt lat="59.873535633087158" lon="29.312896728515625">
        <time>2026-07-26T15:03:42Z</time>
      </trkpt>
      <trkpt lat="59.873514175415039" lon="29.312875270843506">
        <time>2026-07-26T15:03:44Z</time>
      </trkpt>
      <trkpt lat="59.873535633087158" lon="29.312832355499268">
        <time>2026-07-26T15:03:47Z</time>
      </trkpt>
      <trkpt lat="59.873535633087158" lon="29.312832355499268">
        <time>2026-07-26T15:03:49Z</time>
      </trkpt>
      <trkpt lat="59.873535633087158" lon="29.312853813171387">
        <time>2026-07-26T15:03:52Z</time>
      </trkpt>
      <trkpt lat="59.87349271774292" lon="29.312810897827148">
        <time>2026-07-26T15:03:54Z</time>
      </trkpt>
      <trkpt lat="59.87349271774292" lon="29.312789440155029">
        <time>2026-07-26T15:03:57Z</time>
      </trkpt>
      <trkpt lat="59.873449802398682" lon="29.312746524810791">
        <time>2026-07-26T15:03:59Z</time>
      </trkpt>
      <trkpt lat="59.873449802398682" lon="29.31276798248291">
        <time>2026-07-26T15:04:02Z</time>
      </trkpt>
      <trkpt lat="59.873449802398682" lon="29.312746524810791">
        <time>2026-07-26T15:04:04Z</time>
      </trkpt>
      <trkpt lat="59.873428344726563" lon="29.312746524810791">
        <time>2026-07-26T15:04:07Z</time>
      </trkpt>
      <trkpt lat="59.873406887054443" lon="29.31276798248291">
        <time>2026-07-26T15:04:09Z</time>
      </trkpt>
      <trkpt lat="59.873406887054443" lon="29.31276798248291">
        <time>2026-07-26T15:04:12Z</time>
      </trkpt>
      <trkpt lat="59.873406887054443" lon="29.31276798248291">
        <time>2026-07-26T15:04:14Z</time>
      </trkpt>
      <trkpt lat="59.873385429382324" lon="29.312746524810791">
        <time>2026-07-26T15:04:17Z</time>
      </trkpt>
      <trkpt lat="59.873342514038086" lon="29.312682151794434">
        <time>2026-07-26T15:04:19Z</time>
      </trkpt>
      <trkpt lat="59.873342514038086" lon="29.312682151794434">
        <time>2026-07-26T15:04:22Z</time>
      </trkpt>
      <trkpt lat="59.873299598693848" lon="29.312703609466553">
        <time>2026-07-26T15:04:24Z</time>
      </trkpt>
      <trkpt lat="59.873256683349609" lon="29.312725067138672">
        <time>2026-07-26T15:04:27Z</time>
      </trkpt>
      <trkpt lat="59.873213768005371" lon="29.31276798248291">
        <time>2026-07-26T15:04:29Z</time>
      </trkpt>
      <trkpt lat="59.873192310333252" lon="29.312789440155029">
        <time>2026-07-26T15:04:32Z</time>
      </trkpt>
      <trkpt lat="59.873170852661133" lon="29.312789440155029">
        <time>2026-07-26T15:04:34Z</time>
      </trkpt>
      <trkpt lat="59.873170852661133" lon="29.312789440155029">
        <time>2026-07-26T15:04:37Z</time>
      </trkpt>
      <trkpt lat="59.873149394989014" lon="29.312832355499268">
        <time>2026-07-26T15:04:39Z</time>
      </trkpt>
      <trkpt lat="59.873149394989014" lon="29.312832355499268">
        <time>2026-07-26T15:04:42Z</time>
      </trkpt>
      <trkpt lat="59.873149394989014" lon="29.312832355499268">
        <time>2026-07-26T15:04:44Z</time>
      </trkpt>
      <trkpt lat="59.873149394989014" lon="29.312832355499268">
        <time>2026-07-26T15:04:47Z</time>
      </trkpt>
      <trkpt lat="59.873149394989014" lon="29.312832355499268">
        <time>2026-07-26T15:04:49Z</time>
      </trkpt>
      <trkpt lat="59.873149394989014" lon="29.312832355499268">
        <time>2026-07-26T15:04:52Z</time>
      </trkpt>
      <trkpt lat="59.873149394989014" lon="29.312832355499268">
        <time>2026-07-26T15:04:54Z</time>
      </trkpt>
      <trkpt lat="59.873149394989014" lon="29.312832355499268">
        <time>2026-07-26T15:04:57Z</time>
      </trkpt>
      <trkpt lat="59.873149394989014" lon="29.312832355499268">
        <time>2026-07-26T15:04:59Z</time>
      </trkpt>
      <trkpt lat="59.873149394989014" lon="29.312832355499268">
        <time>2026-07-26T15:05:02Z</time>
      </trkpt>
      <trkpt lat="59.873149394989014" lon="29.312832355499268">
        <time>2026-07-26T15:05:04Z</time>
      </trkpt>
      <trkpt lat="59.873149394989014" lon="29.312832355499268">
        <time>2026-07-26T15:05:07Z</time>
      </trkpt>
      <trkpt lat="59.873149394989014" lon="29.312832355499268">
        <time>2026-07-26T15:05:09Z</time>
      </trkpt>
      <trkpt lat="59.873149394989014" lon="29.312832355499268">
        <time>2026-07-26T15:05:12Z</time>
      </trkpt>
      <trkpt lat="59.873149394989014" lon="29.312832355499268">
        <time>2026-07-26T15:05:14Z</time>
      </trkpt>
      <trkpt lat="59.873149394989014" lon="29.312832355499268">
        <time>2026-07-26T15:05:17Z</time>
      </trkpt>
      <trkpt lat="59.873127937316895" lon="29.312832355499268">
        <time>2026-07-26T15:05:19Z</time>
      </trkpt>
      <trkpt lat="59.873106479644775" lon="29.312810897827148">
        <time>2026-07-26T15:05:22Z</time>
      </trkpt>
      <trkpt lat="59.873085021972656" lon="29.31276798248291">
        <time>2026-07-26T15:05:24Z</time>
      </trkpt>
      <trkpt lat="59.873085021972656" lon="29.312746524810791">
        <time>2026-07-26T15:05:27Z</time>
      </trkpt>
      <trkpt lat="59.873085021972656" lon="29.312789440155029">
        <time>2026-07-26T15:05:29Z</time>
      </trkpt>
      <trkpt lat="59.873106479644775" lon="29.312810897827148">
        <time>2026-07-26T15:05:32Z</time>
      </trkpt>
      <trkpt lat="59.873127937316895" lon="29.312789440155029">
        <time>2026-07-26T15:05:34Z</time>
      </trkpt>
      <trkpt lat="59.873170852661133" lon="29.312746524810791">
        <time>2026-07-26T15:05:37Z</time>
      </trkpt>
      <trkpt lat="59.873192310333252" lon="29.312703609466553">
        <time>2026-07-26T15:05:39Z</time>
      </trkpt>
      <trkpt lat="59.873170852661133" lon="29.312703609466553">
        <time>2026-07-26T15:05:42Z</time>
      </trkpt>
      <trkpt lat="59.873149394989014" lon="29.312725067138672">
        <time>2026-07-26T15:05:44Z</time>
      </trkpt>
      <trkpt lat="59.873106479644775" lon="29.31276798248291">
        <time>2026-07-26T15:05:47Z</time>
      </trkpt>
      <trkpt lat="59.873085021972656" lon="29.312789440155029">
        <time>2026-07-26T15:05:49Z</time>
      </trkpt>
      <trkpt lat="59.873020648956299" lon="29.312703609466553">
        <time>2026-07-26T15:05:52Z</time>
      </trkpt>
      <trkpt lat="59.87299919128418" lon="29.312660694122314">
        <time>2026-07-26T15:05:54Z</time>
      </trkpt>
      <trkpt lat="59.872956275939941" lon="29.312639236450195">
        <time>2026-07-26T15:05:57Z</time>
      </trkpt>
      <trkpt lat="59.872934818267822" lon="29.312617778778076">
        <time>2026-07-26T15:05:59Z</time>
      </trkpt>
      <trkpt lat="59.872934818267822" lon="29.312617778778076">
        <time>2026-07-26T15:06:02Z</time>
      </trkpt>
      <trkpt lat="59.872913360595703" lon="29.312617778778076">
        <time>2026-07-26T15:06:04Z</time>
      </trkpt>
      <trkpt lat="59.872891902923584" lon="29.312596321105957">
        <time>2026-07-26T15:06:07Z</time>
      </trkpt>
      <trkpt lat="59.872848987579346" lon="29.3125319480896">
        <time>2026-07-26T15:06:09Z</time>
      </trkpt>
      <trkpt lat="59.872848987579346" lon="29.3125319480896">
        <time>2026-07-26T15:06:12Z</time>
      </trkpt>
      <trkpt lat="59.872827529907227" lon="29.3125319480896">
        <time>2026-07-26T15:06:14Z</time>
      </trkpt>
      <trkpt lat="59.872806072235107" lon="29.3125319480896">
        <time>2026-07-26T15:06:17Z</time>
      </trkpt>
      <trkpt lat="59.872806072235107" lon="29.3125319480896">
        <time>2026-07-26T15:06:19Z</time>
      </trkpt>
      <trkpt lat="59.872784614562988" lon="29.312489032745361">
        <time>2026-07-26T15:06:22Z</time>
      </trkpt>
      <trkpt lat="59.87274169921875" lon="29.312338829040527">
        <time>2026-07-26T15:06:27Z</time>
      </trkpt>
      <trkpt lat="59.872720241546631" lon="29.312338829040527">
        <time>2026-07-26T15:06:29Z</time>
      </trkpt>
      <trkpt lat="59.872720241546631" lon="29.312381744384766">
        <time>2026-07-26T15:06:32Z</time>
      </trkpt>
      <trkpt lat="59.872698783874512" lon="29.312403202056885">
        <time>2026-07-26T15:06:34Z</time>
      </trkpt>
      <trkpt lat="59.872698783874512" lon="29.312381744384766">
        <time>2026-07-26T15:06:37Z</time>
      </trkpt>
      <trkpt lat="59.872698783874512" lon="29.312252998352051">
        <time>2026-07-26T15:06:39Z</time>
      </trkpt>
      <trkpt lat="59.872720241546631" lon="29.312210083007813">
        <time>2026-07-26T15:06:42Z</time>
      </trkpt>
      <trkpt lat="59.872720241546631" lon="29.312188625335693">
        <time>2026-07-26T15:06:44Z</time>
      </trkpt>
      <trkpt lat="59.872720241546631" lon="29.312188625335693">
        <time>2026-07-26T15:06:47Z</time>
      </trkpt>
      <trkpt lat="59.872720241546631" lon="29.312188625335693">
        <time>2026-07-26T15:06:49Z</time>
      </trkpt>
      <trkpt lat="59.87274169921875" lon="29.312210083007813">
        <time>2026-07-26T15:06:52Z</time>
      </trkpt>
      <trkpt lat="59.872720241546631" lon="29.312210083007813">
        <time>2026-07-26T15:06:54Z</time>
      </trkpt>
      <trkpt lat="59.872720241546631" lon="29.312210083007813">
        <time>2026-07-26T15:06:57Z</time>
      </trkpt>
      <trkpt lat="59.872720241546631" lon="29.312145709991455">
        <time>2026-07-26T15:06:59Z</time>
      </trkpt>
      <trkpt lat="59.872720241546631" lon="29.312124252319336">
        <time>2026-07-26T15:07:03Z</time>
      </trkpt>
      <trkpt lat="59.872720241546631" lon="29.312145709991455">
        <time>2026-07-26T15:07:04Z</time>
      </trkpt>
      <trkpt lat="59.872677326202393" lon="29.312210083007813">
        <time>2026-07-26T15:07:07Z</time>
      </trkpt>
      <trkpt lat="59.872677326202393" lon="29.31227445602417">
        <time>2026-07-26T15:07:09Z</time>
      </trkpt>
      <trkpt lat="59.872677326202393" lon="29.312295913696289">
        <time>2026-07-26T15:07:12Z</time>
      </trkpt>
      <trkpt lat="59.872677326202393" lon="29.312231540679932">
        <time>2026-07-26T15:07:17Z</time>
      </trkpt>
      <trkpt lat="59.872698783874512" lon="29.312167167663574">
        <time>2026-07-26T15:07:19Z</time>
      </trkpt>
      <trkpt lat="59.872698783874512" lon="29.312188625335693">
        <time>2026-07-26T15:07:22Z</time>
      </trkpt>
      <trkpt lat="59.872698783874512" lon="29.312188625335693">
        <time>2026-07-26T15:07:24Z</time>
      </trkpt>
      <trkpt lat="59.872698783874512" lon="29.312231540679932">
        <time>2026-07-26T15:07:27Z</time>
      </trkpt>
      <trkpt lat="59.872698783874512" lon="29.312317371368408">
        <time>2026-07-26T15:07:29Z</time>
      </trkpt>
      <trkpt lat="59.872698783874512" lon="29.312338829040527">
        <time>2026-07-26T15:07:32Z</time>
      </trkpt>
      <trkpt lat="59.872698783874512" lon="29.312338829040527">
        <time>2026-07-26T15:07:34Z</time>
      </trkpt>
      <trkpt lat="59.872698783874512" lon="29.312317371368408">
        <time>2026-07-26T15:07:37Z</time>
      </trkpt>
      <trkpt lat="59.872655868530273" lon="29.312252998352051">
        <time>2026-07-26T15:07:39Z</time>
      </trkpt>
      <trkpt lat="59.872634410858154" lon="29.312295913696289">
        <time>2026-07-26T15:07:42Z</time>
      </trkpt>
      <trkpt lat="59.872591495513916" lon="29.31227445602417">
        <time>2026-07-26T15:07:44Z</time>
      </trkpt>
      <trkpt lat="59.872591495513916" lon="29.31227445602417">
        <time>2026-07-26T15:07:47Z</time>
      </trkpt>
      <trkpt lat="59.872591495513916" lon="29.31227445602417">
        <time>2026-07-26T15:07:49Z</time>
      </trkpt>
      <trkpt lat="59.872570037841797" lon="29.31227445602417">
        <time>2026-07-26T15:07:52Z</time>
      </trkpt>
      <trkpt lat="59.872591495513916" lon="29.312295913696289">
        <time>2026-07-26T15:07:54Z</time>
      </trkpt>
      <trkpt lat="59.872591495513916" lon="29.312252998352051">
        <time>2026-07-26T15:07:57Z</time>
      </trkpt>
      <trkpt lat="59.872591495513916" lon="29.312210083007813">
        <time>2026-07-26T15:07:59Z</time>
      </trkpt>
      <trkpt lat="59.872591495513916" lon="29.312252998352051">
        <time>2026-07-26T15:08:02Z</time>
      </trkpt>
      <trkpt lat="59.872548580169678" lon="29.312295913696289">
        <time>2026-07-26T15:08:04Z</time>
      </trkpt>
      <trkpt lat="59.872527122497559" lon="29.31227445602417">
        <time>2026-07-26T15:08:07Z</time>
      </trkpt>
      <trkpt lat="59.87248420715332" lon="29.312317371368408">
        <time>2026-07-26T15:08:09Z</time>
      </trkpt>
      <trkpt lat="59.872462749481201" lon="29.312317371368408">
        <time>2026-07-26T15:08:12Z</time>
      </trkpt>
      <trkpt lat="59.872419834136963" lon="29.312295913696289">
        <time>2026-07-26T15:08:14Z</time>
      </trkpt>
      <trkpt lat="59.872441291809082" lon="29.312317371368408">
        <time>2026-07-26T15:08:17Z</time>
      </trkpt>
      <trkpt lat="59.872419834136963" lon="29.31227445602417">
        <time>2026-07-26T15:08:19Z</time>
      </trkpt>
      <trkpt lat="59.872419834136963" lon="29.312231540679932">
        <time>2026-07-26T15:08:22Z</time>
      </trkpt>
      <trkpt lat="59.872398376464844" lon="29.312167167663574">
        <time>2026-07-26T15:08:24Z</time>
      </trkpt>
      <trkpt lat="59.872398376464844" lon="29.312167167663574">
        <time>2026-07-26T15:08:27Z</time>
      </trkpt>
      <trkpt lat="59.872398376464844" lon="29.312167167663574">
        <time>2026-07-26T15:08:29Z</time>
      </trkpt>
      <trkpt lat="59.872398376464844" lon="29.312167167663574">
        <time>2026-07-26T15:08:32Z</time>
      </trkpt>
      <trkpt lat="59.872398376464844" lon="29.312167167663574">
        <time>2026-07-26T15:08:34Z</time>
      </trkpt>
      <trkpt lat="59.872398376464844" lon="29.312124252319336">
        <time>2026-07-26T15:08:37Z</time>
      </trkpt>
      <trkpt lat="59.872398376464844" lon="29.312102794647217">
        <time>2026-07-26T15:08:39Z</time>
      </trkpt>
      <trkpt lat="59.872398376464844" lon="29.312145709991455">
        <time>2026-07-26T15:08:42Z</time>
      </trkpt>
      <trkpt lat="59.872376918792725" lon="29.312167167663574">
        <time>2026-07-26T15:08:44Z</time>
      </trkpt>
      <trkpt lat="59.872355461120605" lon="29.312167167663574">
        <time>2026-07-26T15:08:47Z</time>
      </trkpt>
      <trkpt lat="59.872355461120605" lon="29.312167167663574">
        <time>2026-07-26T15:08:49Z</time>
      </trkpt>
      <trkpt lat="59.872355461120605" lon="29.312167167663574">
        <time>2026-07-26T15:08:52Z</time>
      </trkpt>
      <trkpt lat="59.872376918792725" lon="29.312124252319336">
        <time>2026-07-26T15:08:54Z</time>
      </trkpt>
      <trkpt lat="59.872355461120605" lon="29.312124252319336">
        <time>2026-07-26T15:08:57Z</time>
      </trkpt>
      <trkpt lat="59.872334003448486" lon="29.312167167663574">
        <time>2026-07-26T15:08:59Z</time>
      </trkpt>
      <trkpt lat="59.872312545776367" lon="29.312188625335693">
        <time>2026-07-26T15:09:02Z</time>
      </trkpt>
      <trkpt lat="59.872269630432129" lon="29.312167167663574">
        <time>2026-07-26T15:09:04Z</time>
      </trkpt>
      <trkpt lat="59.87224817276001" lon="29.312124252319336">
        <time>2026-07-26T15:09:07Z</time>
      </trkpt>
      <trkpt lat="59.87224817276001" lon="29.312145709991455">
        <time>2026-07-26T15:09:09Z</time>
      </trkpt>
      <trkpt lat="59.87224817276001" lon="29.312145709991455">
        <time>2026-07-26T15:09:12Z</time>
      </trkpt>
      <trkpt lat="59.872226715087891" lon="29.312124252319336">
        <time>2026-07-26T15:09:14Z</time>
      </trkpt>
      <trkpt lat="59.872205257415771" lon="29.312102794647217">
        <time>2026-07-26T15:09:17Z</time>
      </trkpt>
      <trkpt lat="59.872226715087891" lon="29.312081336975098">
        <time>2026-07-26T15:09:19Z</time>
      </trkpt>
      <trkpt lat="59.872226715087891" lon="29.312081336975098">
        <time>2026-07-26T15:09:22Z</time>
      </trkpt>
      <trkpt lat="59.872205257415771" lon="29.31201696395874">
        <time>2026-07-26T15:09:24Z</time>
      </trkpt>
      <trkpt lat="59.872205257415771" lon="29.311974048614502">
        <time>2026-07-26T15:09:27Z</time>
      </trkpt>
      <trkpt lat="59.872183799743652" lon="29.311952590942383">
        <time>2026-07-26T15:09:29Z</time>
      </trkpt>
      <trkpt lat="59.872140884399414" lon="29.311909675598145">
        <time>2026-07-26T15:09:32Z</time>
      </trkpt>
      <trkpt lat="59.872097969055176" lon="29.311866760253906">
        <time>2026-07-26T15:09:34Z</time>
      </trkpt>
      <trkpt lat="59.872076511383057" lon="29.311823844909668">
        <time>2026-07-26T15:09:37Z</time>
      </trkpt>
      <trkpt lat="59.872076511383057" lon="29.311823844909668">
        <time>2026-07-26T15:09:39Z</time>
      </trkpt>
      <trkpt lat="59.872076511383057" lon="29.311866760253906">
        <time>2026-07-26T15:09:42Z</time>
      </trkpt>
      <trkpt lat="59.872119426727295" lon="29.311952590942383">
        <time>2026-07-26T15:09:44Z</time>
      </trkpt>
      <trkpt lat="59.872162342071533" lon="29.311995506286621">
        <time>2026-07-26T15:09:47Z</time>
      </trkpt>
      <trkpt lat="59.872162342071533" lon="29.312038421630859">
        <time>2026-07-26T15:09:49Z</time>
      </trkpt>
      <trkpt lat="59.872162342071533" lon="29.312081336975098">
        <time>2026-07-26T15:09:52Z</time>
      </trkpt>
      <trkpt lat="59.872162342071533" lon="29.312145709991455">
        <time>2026-07-26T15:09:54Z</time>
      </trkpt>
      <trkpt lat="59.872140884399414" lon="29.312167167663574">
        <time>2026-07-26T15:09:57Z</time>
      </trkpt>
      <trkpt lat="59.872119426727295" lon="29.312145709991455">
        <time>2026-07-26T15:09:59Z</time>
      </trkpt>
      <trkpt lat="59.872076511383057" lon="29.312145709991455">
        <time>2026-07-26T15:10:02Z</time>
      </trkpt>
      <trkpt lat="59.872033596038818" lon="29.312145709991455">
        <time>2026-07-26T15:10:04Z</time>
      </trkpt>
      <trkpt lat="59.872033596038818" lon="29.312145709991455">
        <time>2026-07-26T15:10:07Z</time>
      </trkpt>
      <trkpt lat="59.872033596038818" lon="29.312124252319336">
        <time>2026-07-26T15:10:09Z</time>
      </trkpt>
      <trkpt lat="59.872033596038818" lon="29.312102794647217">
        <time>2026-07-26T15:10:12Z</time>
      </trkpt>
      <trkpt lat="59.872012138366699" lon="29.312145709991455">
        <time>2026-07-26T15:10:14Z</time>
      </trkpt>
      <trkpt lat="59.872012138366699" lon="29.312167167663574">
        <time>2026-07-26T15:10:17Z</time>
      </trkpt>
      <trkpt lat="59.872012138366699" lon="29.312188625335693">
        <time>2026-07-26T15:10:19Z</time>
      </trkpt>
      <trkpt lat="59.872012138366699" lon="29.312188625335693">
        <time>2026-07-26T15:10:22Z</time>
      </trkpt>
      <trkpt lat="59.871969223022461" lon="29.312188625335693">
        <time>2026-07-26T15:10:24Z</time>
      </trkpt>
      <trkpt lat="59.871947765350342" lon="29.312167167663574">
        <time>2026-07-26T15:10:27Z</time>
      </trkpt>
      <trkpt lat="59.871926307678223" lon="29.312145709991455">
        <time>2026-07-26T15:10:29Z</time>
      </trkpt>
      <trkpt lat="59.871926307678223" lon="29.312145709991455">
        <time>2026-07-26T15:10:32Z</time>
      </trkpt>
      <trkpt lat="59.871926307678223" lon="29.312145709991455">
        <time>2026-07-26T15:10:34Z</time>
      </trkpt>
      <trkpt lat="59.871926307678223" lon="29.312145709991455">
        <time>2026-07-26T15:10:37Z</time>
      </trkpt>
      <trkpt lat="59.871926307678223" lon="29.312145709991455">
        <time>2026-07-26T15:10:39Z</time>
      </trkpt>
      <trkpt lat="59.871926307678223" lon="29.312145709991455">
        <time>2026-07-26T15:10:42Z</time>
      </trkpt>
      <trkpt lat="59.871926307678223" lon="29.312145709991455">
        <time>2026-07-26T15:10:44Z</time>
      </trkpt>
      <trkpt lat="59.871926307678223" lon="29.312145709991455">
        <time>2026-07-26T15:10:47Z</time>
      </trkpt>
      <trkpt lat="59.871926307678223" lon="29.312145709991455">
        <time>2026-07-26T15:10:49Z</time>
      </trkpt>
      <trkpt lat="59.871926307678223" lon="29.312145709991455">
        <time>2026-07-26T15:10:52Z</time>
      </trkpt>
      <trkpt lat="59.871926307678223" lon="29.312145709991455">
        <time>2026-07-26T15:10:54Z</time>
      </trkpt>
      <trkpt lat="59.871926307678223" lon="29.312145709991455">
        <time>2026-07-26T15:10:57Z</time>
      </trkpt>
      <trkpt lat="59.871926307678223" lon="29.312145709991455">
        <time>2026-07-26T15:10:59Z</time>
      </trkpt>
      <trkpt lat="59.871926307678223" lon="29.312145709991455">
        <time>2026-07-26T15:11:02Z</time>
      </trkpt>
      <trkpt lat="59.871926307678223" lon="29.312145709991455">
        <time>2026-07-26T15:11:04Z</time>
      </trkpt>
      <trkpt lat="59.871926307678223" lon="29.312145709991455">
        <time>2026-07-26T15:11:07Z</time>
      </trkpt>
      <trkpt lat="59.871926307678223" lon="29.312145709991455">
        <time>2026-07-26T15:11:09Z</time>
      </trkpt>
      <trkpt lat="59.871926307678223" lon="29.312145709991455">
        <time>2026-07-26T15:11:12Z</time>
      </trkpt>
      <trkpt lat="59.871926307678223" lon="29.312145709991455">
        <time>2026-07-26T15:11:14Z</time>
      </trkpt>
      <trkpt lat="59.871926307678223" lon="29.312145709991455">
        <time>2026-07-26T15:11:17Z</time>
      </trkpt>
      <trkpt lat="59.871926307678223" lon="29.312145709991455">
        <time>2026-07-26T15:11:22Z</time>
      </trkpt>
      <trkpt lat="59.871926307678223" lon="29.312145709991455">
        <time>2026-07-26T15:11:24Z</time>
      </trkpt>
      <trkpt lat="59.871926307678223" lon="29.312145709991455">
        <time>2026-07-26T15:11:27Z</time>
      </trkpt>
      <trkpt lat="59.871926307678223" lon="29.312145709991455">
        <time>2026-07-26T15:11:29Z</time>
      </trkpt>
      <trkpt lat="59.871904850006104" lon="29.312167167663574">
        <time>2026-07-26T15:11:32Z</time>
      </trkpt>
      <trkpt lat="59.871883392333984" lon="29.312145709991455">
        <time>2026-07-26T15:11:34Z</time>
      </trkpt>
      <trkpt lat="59.871883392333984" lon="29.312145709991455">
        <time>2026-07-26T15:11:37Z</time>
      </trkpt>
      <trkpt lat="59.871883392333984" lon="29.312124252319336">
        <time>2026-07-26T15:11:39Z</time>
      </trkpt>
      <trkpt lat="59.871861934661865" lon="29.312124252319336">
        <time>2026-07-26T15:11:42Z</time>
      </trkpt>
      <trkpt lat="59.871883392333984" lon="29.312167167663574">
        <time>2026-07-26T15:11:44Z</time>
      </trkpt>
      <trkpt lat="59.871883392333984" lon="29.312081336975098">
        <time>2026-07-26T15:11:49Z</time>
      </trkpt>
      <trkpt lat="59.871861934661865" lon="29.312167167663574">
        <time>2026-07-26T15:11:52Z</time>
      </trkpt>
      <trkpt lat="59.871840476989746" lon="29.312188625335693">
        <time>2026-07-26T15:11:54Z</time>
      </trkpt>
      <trkpt lat="59.871797561645508" lon="29.312188625335693">
        <time>2026-07-26T15:11:57Z</time>
      </trkpt>
      <trkpt lat="59.871776103973389" lon="29.312188625335693">
        <time>2026-07-26T15:11:59Z</time>
      </trkpt>
      <trkpt lat="59.871776103973389" lon="29.312167167663574">
        <time>2026-07-26T15:12:02Z</time>
      </trkpt>
      <trkpt lat="59.871776103973389" lon="29.312167167663574">
        <time>2026-07-26T15:12:04Z</time>
      </trkpt>
      <trkpt lat="59.87173318862915" lon="29.312167167663574">
        <time>2026-07-26T15:12:07Z</time>
      </trkpt>
      <trkpt lat="59.871690273284912" lon="29.312124252319336">
        <time>2026-07-26T15:12:09Z</time>
      </trkpt>
      <trkpt lat="59.871690273284912" lon="29.312081336975098">
        <time>2026-07-26T15:12:12Z</time>
      </trkpt>
      <trkpt lat="59.871690273284912" lon="29.312102794647217">
        <time>2026-07-26T15:12:14Z</time>
      </trkpt>
      <trkpt lat="59.87173318862915" lon="29.312124252319336">
        <time>2026-07-26T15:12:17Z</time>
      </trkpt>
      <trkpt lat="59.871819019317627" lon="29.312167167663574">
        <time>2026-07-26T15:12:19Z</time>
      </trkpt>
      <trkpt lat="59.871861934661865" lon="29.312102794647217">
        <time>2026-07-26T15:12:22Z</time>
      </trkpt>
      <trkpt lat="59.871819019317627" lon="29.312059879302979">
        <time>2026-07-26T15:12:24Z</time>
      </trkpt>
      <trkpt lat="59.871797561645508" lon="29.312102794647217">
        <time>2026-07-26T15:12:27Z</time>
      </trkpt>
      <trkpt lat="59.871711730957031" lon="29.312124252319336">
        <time>2026-07-26T15:12:29Z</time>
      </trkpt>
      <trkpt lat="59.871668815612793" lon="29.312124252319336">
        <time>2026-07-26T15:12:32Z</time>
      </trkpt>
      <trkpt lat="59.871647357940674" lon="29.312167167663574">
        <time>2026-07-26T15:12:34Z</time>
      </trkpt>
      <trkpt lat="59.871604442596436" lon="29.312210083007813">
        <time>2026-07-26T15:12:37Z</time>
      </trkpt>
      <trkpt lat="59.871604442596436" lon="29.312188625335693">
        <time>2026-07-26T15:12:39Z</time>
      </trkpt>
      <trkpt lat="59.871604442596436" lon="29.312210083007813">
        <time>2026-07-26T15:12:42Z</time>
      </trkpt>
      <trkpt lat="59.871582984924316" lon="29.312188625335693">
        <time>2026-07-26T15:12:44Z</time>
      </trkpt>
      <trkpt lat="59.871561527252197" lon="29.312167167663574">
        <time>2026-07-26T15:12:47Z</time>
      </trkpt>
      <trkpt lat="59.871561527252197" lon="29.312167167663574">
        <time>2026-07-26T15:12:49Z</time>
      </trkpt>
      <trkpt lat="59.871540069580078" lon="29.312124252319336">
        <time>2026-07-26T15:12:52Z</time>
      </trkpt>
      <trkpt lat="59.871518611907959" lon="29.312188625335693">
        <time>2026-07-26T15:12:54Z</time>
      </trkpt>
      <trkpt lat="59.871540069580078" lon="29.312252998352051">
        <time>2026-07-26T15:12:57Z</time>
      </trkpt>
      <trkpt lat="59.871561527252197" lon="29.31227445602417">
        <time>2026-07-26T15:12:59Z</time>
      </trkpt>
      <trkpt lat="59.871604442596436" lon="29.312188625335693">
        <time>2026-07-26T15:13:02Z</time>
      </trkpt>
      <trkpt lat="59.871647357940674" lon="29.312059879302979">
        <time>2026-07-26T15:13:04Z</time>
      </trkpt>
      <trkpt lat="59.871647357940674" lon="29.312124252319336">
        <time>2026-07-26T15:13:07Z</time>
      </trkpt>
      <trkpt lat="59.871647357940674" lon="29.312252998352051">
        <time>2026-07-26T15:13:09Z</time>
      </trkpt>
      <trkpt lat="59.871604442596436" lon="29.31227445602417">
        <time>2026-07-26T15:13:12Z</time>
      </trkpt>
      <trkpt lat="59.871561527252197" lon="29.312231540679932">
        <time>2026-07-26T15:13:14Z</time>
      </trkpt>
      <trkpt lat="59.871540069580078" lon="29.312124252319336">
        <time>2026-07-26T15:13:17Z</time>
      </trkpt>
      <trkpt lat="59.871518611907959" lon="29.312210083007813">
        <time>2026-07-26T15:13:22Z</time>
      </trkpt>
      <trkpt lat="59.87149715423584" lon="29.312231540679932">
        <time>2026-07-26T15:13:24Z</time>
      </trkpt>
      <trkpt lat="59.871454238891602" lon="29.312210083007813">
        <time>2026-07-26T15:13:27Z</time>
      </trkpt>
      <trkpt lat="59.871389865875244" lon="29.312210083007813">
        <time>2026-07-26T15:13:29Z</time>
      </trkpt>
      <trkpt lat="59.871346950531006" lon="29.312210083007813">
        <time>2026-07-26T15:13:32Z</time>
      </trkpt>
      <trkpt lat="59.871325492858887" lon="29.312188625335693">
        <time>2026-07-26T15:13:34Z</time>
      </trkpt>
      <trkpt lat="59.871304035186768" lon="29.312167167663574">
        <time>2026-07-26T15:13:37Z</time>
      </trkpt>
      <trkpt lat="59.871304035186768" lon="29.312167167663574">
        <time>2026-07-26T15:13:39Z</time>
      </trkpt>
      <trkpt lat="59.871325492858887" lon="29.312188625335693">
        <time>2026-07-26T15:13:42Z</time>
      </trkpt>
      <trkpt lat="59.871346950531006" lon="29.312145709991455">
        <time>2026-07-26T15:13:44Z</time>
      </trkpt>
      <trkpt lat="59.871325492858887" lon="29.312081336975098">
        <time>2026-07-26T15:13:47Z</time>
      </trkpt>
      <trkpt lat="59.871304035186768" lon="29.312102794647217">
        <time>2026-07-26T15:13:49Z</time>
      </trkpt>
      <trkpt lat="59.871325492858887" lon="29.312145709991455">
        <time>2026-07-26T15:13:52Z</time>
      </trkpt>
      <trkpt lat="59.871346950531006" lon="29.312124252319336">
        <time>2026-07-26T15:13:54Z</time>
      </trkpt>
      <trkpt lat="59.871346950531006" lon="29.312102794647217">
        <time>2026-07-26T15:13:57Z</time>
      </trkpt>
      <trkpt lat="59.871368408203125" lon="29.312038421630859">
        <time>2026-07-26T15:13:59Z</time>
      </trkpt>
      <trkpt lat="59.871346950531006" lon="29.312059879302979">
        <time>2026-07-26T15:14:02Z</time>
      </trkpt>
      <trkpt lat="59.871325492858887" lon="29.312145709991455">
        <time>2026-07-26T15:14:04Z</time>
      </trkpt>
      <trkpt lat="59.871304035186768" lon="29.312145709991455">
        <time>2026-07-26T15:14:07Z</time>
      </trkpt>
      <trkpt lat="59.87123966217041" lon="29.312124252319336">
        <time>2026-07-26T15:14:09Z</time>
      </trkpt>
      <trkpt lat="59.871218204498291" lon="29.312124252319336">
        <time>2026-07-26T15:14:12Z</time>
      </trkpt>
      <trkpt lat="59.871196746826172" lon="29.312102794647217">
        <time>2026-07-26T15:14:14Z</time>
      </trkpt>
      <trkpt lat="59.871175289154053" lon="29.312081336975098">
        <time>2026-07-26T15:14:17Z</time>
      </trkpt>
      <trkpt lat="59.871175289154053" lon="29.312081336975098">
        <time>2026-07-26T15:14:19Z</time>
      </trkpt>
      <trkpt lat="59.871175289154053" lon="29.312081336975098">
        <time>2026-07-26T15:14:22Z</time>
      </trkpt>
      <trkpt lat="59.871153831481934" lon="29.312059879302979">
        <time>2026-07-26T15:14:24Z</time>
      </trkpt>
      <trkpt lat="59.871132373809814" lon="29.31201696395874">
        <time>2026-07-26T15:14:27Z</time>
      </trkpt>
      <trkpt lat="59.871110916137695" lon="29.311995506286621">
        <time>2026-07-26T15:14:29Z</time>
      </trkpt>
      <trkpt lat="59.871110916137695" lon="29.311995506286621">
        <time>2026-07-26T15:14:32Z</time>
      </trkpt>
      <trkpt lat="59.871110916137695" lon="29.311995506286621">
        <time>2026-07-26T15:14:34Z</time>
      </trkpt>
      <trkpt lat="59.871110916137695" lon="29.311995506286621">
        <time>2026-07-26T15:14:37Z</time>
      </trkpt>
      <trkpt lat="59.871110916137695" lon="29.311995506286621">
        <time>2026-07-26T15:14:39Z</time>
      </trkpt>
      <trkpt lat="59.871110916137695" lon="29.311995506286621">
        <time>2026-07-26T15:14:42Z</time>
      </trkpt>
      <trkpt lat="59.871089458465576" lon="29.311995506286621">
        <time>2026-07-26T15:14:44Z</time>
      </trkpt>
      <trkpt lat="59.871068000793457" lon="29.311995506286621">
        <time>2026-07-26T15:14:47Z</time>
      </trkpt>
      <trkpt lat="59.871068000793457" lon="29.31201696395874">
        <time>2026-07-26T15:14:49Z</time>
      </trkpt>
      <trkpt lat="59.871046543121338" lon="29.311974048614502">
        <time>2026-07-26T15:14:52Z</time>
      </trkpt>
      <trkpt lat="59.87098217010498" lon="29.311974048614502">
        <time>2026-07-26T15:14:54Z</time>
      </trkpt>
      <trkpt lat="59.870960712432861" lon="29.311974048614502">
        <time>2026-07-26T15:14:57Z</time>
      </trkpt>
      <trkpt lat="59.870896339416504" lon="29.31201696395874">
        <time>2026-07-26T15:14:59Z</time>
      </trkpt>
      <trkpt lat="59.870853424072266" lon="29.31201696395874">
        <time>2026-07-26T15:15:02Z</time>
      </trkpt>
      <trkpt lat="59.870789051055908" lon="29.31201696395874">
        <time>2026-07-26T15:15:04Z</time>
      </trkpt>
      <trkpt lat="59.870767593383789" lon="29.312038421630859">
        <time>2026-07-26T15:15:07Z</time>
      </trkpt>
      <trkpt lat="59.870724678039551" lon="29.312059879302979">
        <time>2026-07-26T15:15:09Z</time>
      </trkpt>
      <trkpt lat="59.870724678039551" lon="29.312059879302979">
        <time>2026-07-26T15:15:12Z</time>
      </trkpt>
      <trkpt lat="59.870703220367432" lon="29.31201696395874">
        <time>2026-07-26T15:15:14Z</time>
      </trkpt>
      <trkpt lat="59.870681762695313" lon="29.31201696395874">
        <time>2026-07-26T15:15:17Z</time>
      </trkpt>
      <trkpt lat="59.870660305023193" lon="29.312081336975098">
        <time>2026-07-26T15:15:19Z</time>
      </trkpt>
      <trkpt lat="59.870638847351074" lon="29.312102794647217">
        <time>2026-07-26T15:15:22Z</time>
      </trkpt>
      <trkpt lat="59.870595932006836" lon="29.312188625335693">
        <time>2026-07-26T15:15:24Z</time>
      </trkpt>
      <trkpt lat="59.870531558990479" lon="29.31227445602417">
        <time>2026-07-26T15:15:27Z</time>
      </trkpt>
      <trkpt lat="59.870424270629883" lon="29.31227445602417">
        <time>2026-07-26T15:15:29Z</time>
      </trkpt>
      <trkpt lat="59.870381355285645" lon="29.312295913696289">
        <time>2026-07-26T15:15:32Z</time>
      </trkpt>
      <trkpt lat="59.870381355285645" lon="29.312231540679932">
        <time>2026-07-26T15:15:34Z</time>
      </trkpt>
      <trkpt lat="59.870402812957764" lon="29.312252998352051">
        <time>2026-07-26T15:15:37Z</time>
      </trkpt>
      <trkpt lat="59.870424270629883" lon="29.312295913696289">
        <time>2026-07-26T15:15:39Z</time>
      </trkpt>
      <trkpt lat="59.870402812957764" lon="29.312317371368408">
        <time>2026-07-26T15:15:42Z</time>
      </trkpt>
      <trkpt lat="59.870402812957764" lon="29.312317371368408">
        <time>2026-07-26T15:15:44Z</time>
      </trkpt>
      <trkpt lat="59.870402812957764" lon="29.312295913696289">
        <time>2026-07-26T15:15:47Z</time>
      </trkpt>
      <trkpt lat="59.870402812957764" lon="29.312295913696289">
        <time>2026-07-26T15:15:49Z</time>
      </trkpt>
      <trkpt lat="59.870402812957764" lon="29.312295913696289">
        <time>2026-07-26T15:15:52Z</time>
      </trkpt>
      <trkpt lat="59.870402812957764" lon="29.312295913696289">
        <time>2026-07-26T15:15:54Z</time>
      </trkpt>
      <trkpt lat="59.870402812957764" lon="29.312295913696289">
        <time>2026-07-26T15:15:57Z</time>
      </trkpt>
      <trkpt lat="59.870402812957764" lon="29.312295913696289">
        <time>2026-07-26T15:15:59Z</time>
      </trkpt>
      <trkpt lat="59.870402812957764" lon="29.312295913696289">
        <time>2026-07-26T15:16:02Z</time>
      </trkpt>
      <trkpt lat="59.870402812957764" lon="29.312295913696289">
        <time>2026-07-26T15:16:04Z</time>
      </trkpt>
      <trkpt lat="59.870402812957764" lon="29.312295913696289">
        <time>2026-07-26T15:16:07Z</time>
      </trkpt>
      <trkpt lat="59.870359897613525" lon="29.312317371368408">
        <time>2026-07-26T15:16:09Z</time>
      </trkpt>
      <trkpt lat="59.870359897613525" lon="29.312295913696289">
        <time>2026-07-26T15:16:12Z</time>
      </trkpt>
      <trkpt lat="59.870338439941406" lon="29.312231540679932">
        <time>2026-07-26T15:16:14Z</time>
      </trkpt>
      <trkpt lat="59.870316982269287" lon="29.312210083007813">
        <time>2026-07-26T15:16:17Z</time>
      </trkpt>
      <trkpt lat="59.870295524597168" lon="29.312210083007813">
        <time>2026-07-26T15:16:19Z</time>
      </trkpt>
      <trkpt lat="59.870295524597168" lon="29.312210083007813">
        <time>2026-07-26T15:16:22Z</time>
      </trkpt>
      <trkpt lat="59.870295524597168" lon="29.312210083007813">
        <time>2026-07-26T15:16:24Z</time>
      </trkpt>
      <trkpt lat="59.870295524597168" lon="29.312210083007813">
        <time>2026-07-26T15:16:27Z</time>
      </trkpt>
      <trkpt lat="59.870295524597168" lon="29.312210083007813">
        <time>2026-07-26T15:16:29Z</time>
      </trkpt>
      <trkpt lat="59.870295524597168" lon="29.312210083007813">
        <time>2026-07-26T15:16:32Z</time>
      </trkpt>
      <trkpt lat="59.870295524597168" lon="29.312210083007813">
        <time>2026-07-26T15:16:34Z</time>
      </trkpt>
      <trkpt lat="59.870295524597168" lon="29.312210083007813">
        <time>2026-07-26T15:16:37Z</time>
      </trkpt>
      <trkpt lat="59.870295524597168" lon="29.312210083007813">
        <time>2026-07-26T15:16:39Z</time>
      </trkpt>
      <trkpt lat="59.870295524597168" lon="29.312210083007813">
        <time>2026-07-26T15:16:42Z</time>
      </trkpt>
      <trkpt lat="59.870295524597168" lon="29.312210083007813">
        <time>2026-07-26T15:16:44Z</time>
      </trkpt>
      <trkpt lat="59.870295524597168" lon="29.312210083007813">
        <time>2026-07-26T15:16:47Z</time>
      </trkpt>
      <trkpt lat="59.870295524597168" lon="29.312210083007813">
        <time>2026-07-26T15:16:49Z</time>
      </trkpt>
      <trkpt lat="59.870295524597168" lon="29.312210083007813">
        <time>2026-07-26T15:16:52Z</time>
      </trkpt>
      <trkpt lat="59.870295524597168" lon="29.312210083007813">
        <time>2026-07-26T15:16:54Z</time>
      </trkpt>
      <trkpt lat="59.870295524597168" lon="29.312167167663574">
        <time>2026-07-26T15:16:57Z</time>
      </trkpt>
      <trkpt lat="59.870295524597168" lon="29.312188625335693">
        <time>2026-07-26T15:16:59Z</time>
      </trkpt>
      <trkpt lat="59.870295524597168" lon="29.312252998352051">
        <time>2026-07-26T15:17:02Z</time>
      </trkpt>
      <trkpt lat="59.870316982269287" lon="29.312424659729004">
        <time>2026-07-26T15:17:07Z</time>
      </trkpt>
      <trkpt lat="59.870316982269287" lon="29.312338829040527">
        <time>2026-07-26T15:17:09Z</time>
      </trkpt>
      <trkpt lat="59.870295524597168" lon="29.312210083007813">
        <time>2026-07-26T15:17:12Z</time>
      </trkpt>
      <trkpt lat="59.870274066925049" lon="29.312167167663574">
        <time>2026-07-26T15:17:14Z</time>
      </trkpt>
      <trkpt lat="59.870295524597168" lon="29.312231540679932">
        <time>2026-07-26T15:17:17Z</time>
      </trkpt>
      <trkpt lat="59.870295524597168" lon="29.312338829040527">
        <time>2026-07-26T15:17:19Z</time>
      </trkpt>
      <trkpt lat="59.870316982269287" lon="29.312424659729004">
        <time>2026-07-26T15:17:22Z</time>
      </trkpt>
      <trkpt lat="59.870359897613525" lon="29.312467575073242">
        <time>2026-07-26T15:17:24Z</time>
      </trkpt>
      <trkpt lat="59.870316982269287" lon="29.312360286712646">
        <time>2026-07-26T15:17:27Z</time>
      </trkpt>
      <trkpt lat="59.870295524597168" lon="29.312338829040527">
        <time>2026-07-26T15:17:29Z</time>
      </trkpt>
      <trkpt lat="59.870274066925049" lon="29.312360286712646">
        <time>2026-07-26T15:17:32Z</time>
      </trkpt>
      <trkpt lat="59.87025260925293" lon="29.31227445602417">
        <time>2026-07-26T15:17:34Z</time>
      </trkpt>
      <trkpt lat="59.87025260925293" lon="29.312124252319336">
        <time>2026-07-26T15:17:37Z</time>
      </trkpt>
      <trkpt lat="59.870274066925049" lon="29.31201696395874">
        <time>2026-07-26T15:17:39Z</time>
      </trkpt>
      <trkpt lat="59.870274066925049" lon="29.312102794647217">
        <time>2026-07-26T15:17:42Z</time>
      </trkpt>
      <trkpt lat="59.870295524597168" lon="29.31227445602417">
        <time>2026-07-26T15:17:44Z</time>
      </trkpt>
      <trkpt lat="59.870316982269287" lon="29.312403202056885">
        <time>2026-07-26T15:17:47Z</time>
      </trkpt>
      <trkpt lat="59.870316982269287" lon="29.312403202056885">
        <time>2026-07-26T15:17:49Z</time>
      </trkpt>
      <trkpt lat="59.870295524597168" lon="29.312338829040527">
        <time>2026-07-26T15:17:52Z</time>
      </trkpt>
      <trkpt lat="59.870274066925049" lon="29.312188625335693">
        <time>2026-07-26T15:17:54Z</time>
      </trkpt>
      <trkpt lat="59.870274066925049" lon="29.312038421630859">
        <time>2026-07-26T15:17:57Z</time>
      </trkpt>
      <trkpt lat="59.870295524597168" lon="29.311888217926025">
        <time>2026-07-26T15:17:59Z</time>
      </trkpt>
      <trkpt lat="59.870316982269287" lon="29.311909675598145">
        <time>2026-07-26T15:18:02Z</time>
      </trkpt>
      <trkpt lat="59.870316982269287" lon="29.312081336975098">
        <time>2026-07-26T15:18:04Z</time>
      </trkpt>
      <trkpt lat="59.870295524597168" lon="29.312188625335693">
        <time>2026-07-26T15:18:07Z</time>
      </trkpt>
      <trkpt lat="59.870316982269287" lon="29.312360286712646">
        <time>2026-07-26T15:18:09Z</time>
      </trkpt>
      <trkpt lat="59.870316982269287" lon="29.312403202056885">
        <time>2026-07-26T15:18:12Z</time>
      </trkpt>
      <trkpt lat="59.870295524597168" lon="29.312295913696289">
        <time>2026-07-26T15:18:14Z</time>
      </trkpt>
      <trkpt lat="59.870295524597168" lon="29.312145709991455">
        <time>2026-07-26T15:18:17Z</time>
      </trkpt>
      <trkpt lat="59.870295524597168" lon="29.311866760253906">
        <time>2026-07-26T15:18:19Z</time>
      </trkpt>
      <trkpt lat="59.870295524597168" lon="29.311716556549072">
        <time>2026-07-26T15:18:22Z</time>
      </trkpt>
      <trkpt lat="59.870295524597168" lon="29.311738014221191">
        <time>2026-07-26T15:18:24Z</time>
      </trkpt>
      <trkpt lat="59.870295524597168" lon="29.311866760253906">
        <time>2026-07-26T15:18:27Z</time>
      </trkpt>
      <trkpt lat="59.870295524597168" lon="29.312081336975098">
        <time>2026-07-26T15:18:29Z</time>
      </trkpt>
      <trkpt lat="59.870316982269287" lon="29.312167167663574">
        <time>2026-07-26T15:18:32Z</time>
      </trkpt>
      <trkpt lat="59.870316982269287" lon="29.312338829040527">
        <time>2026-07-26T15:18:34Z</time>
      </trkpt>
      <trkpt lat="59.870338439941406" lon="29.312381744384766">
        <time>2026-07-26T15:18:37Z</time>
      </trkpt>
      <trkpt lat="59.870295524597168" lon="29.312167167663574">
        <time>2026-07-26T15:18:39Z</time>
      </trkpt>
      <trkpt lat="59.870295524597168" lon="29.31201696395874">
        <time>2026-07-26T15:18:42Z</time>
      </trkpt>
      <trkpt lat="59.870316982269287" lon="29.311802387237549">
        <time>2026-07-26T15:18:44Z</time>
      </trkpt>
      <trkpt lat="59.870316982269287" lon="29.311673641204834">
        <time>2026-07-26T15:18:47Z</time>
      </trkpt>
      <trkpt lat="59.870316982269287" lon="29.311652183532715">
        <time>2026-07-26T15:18:49Z</time>
      </trkpt>
      <trkpt lat="59.870295524597168" lon="29.311738014221191">
        <time>2026-07-26T15:18:52Z</time>
      </trkpt>
      <trkpt lat="59.870274066925049" lon="29.311952590942383">
        <time>2026-07-26T15:18:54Z</time>
      </trkpt>
      <trkpt lat="59.870274066925049" lon="29.312081336975098">
        <time>2026-07-26T15:18:57Z</time>
      </trkpt>
      <trkpt lat="59.870274066925049" lon="29.312167167663574">
        <time>2026-07-26T15:18:59Z</time>
      </trkpt>
      <trkpt lat="59.870274066925049" lon="29.312167167663574">
        <time>2026-07-26T15:19:02Z</time>
      </trkpt>
      <trkpt lat="59.870274066925049" lon="29.312167167663574">
        <time>2026-07-26T15:19:04Z</time>
      </trkpt>
      <trkpt lat="59.870274066925049" lon="29.312167167663574">
        <time>2026-07-26T15:19:07Z</time>
      </trkpt>
      <trkpt lat="59.870274066925049" lon="29.312167167663574">
        <time>2026-07-26T15:19:09Z</time>
      </trkpt>
      <trkpt lat="59.870274066925049" lon="29.312167167663574">
        <time>2026-07-26T15:19:12Z</time>
      </trkpt>
      <trkpt lat="59.870274066925049" lon="29.312167167663574">
        <time>2026-07-26T15:19:14Z</time>
      </trkpt>
      <trkpt lat="59.870274066925049" lon="29.312167167663574">
        <time>2026-07-26T15:19:17Z</time>
      </trkpt>
      <trkpt lat="59.870274066925049" lon="29.312167167663574">
        <time>2026-07-26T15:19:19Z</time>
      </trkpt>
      <trkpt lat="59.870274066925049" lon="29.312167167663574">
        <time>2026-07-26T15:19:22Z</time>
      </trkpt>
      <trkpt lat="59.870274066925049" lon="29.312167167663574">
        <time>2026-07-26T15:19:24Z</time>
      </trkpt>
      <trkpt lat="59.870274066925049" lon="29.312167167663574">
        <time>2026-07-26T15:19:27Z</time>
      </trkpt>
      <trkpt lat="59.870274066925049" lon="29.312167167663574">
        <time>2026-07-26T15:19:29Z</time>
      </trkpt>
      <trkpt lat="59.870274066925049" lon="29.312167167663574">
        <time>2026-07-26T15:19:32Z</time>
      </trkpt>
      <trkpt lat="59.870274066925049" lon="29.312167167663574">
        <time>2026-07-26T15:19:34Z</time>
      </trkpt>
      <trkpt lat="59.870274066925049" lon="29.312167167663574">
        <time>2026-07-26T15:19:37Z</time>
      </trkpt>
      <trkpt lat="59.870295524597168" lon="29.312188625335693">
        <time>2026-07-26T15:19:39Z</time>
      </trkpt>
      <trkpt lat="59.870295524597168" lon="29.312188625335693">
        <time>2026-07-26T15:19:42Z</time>
      </trkpt>
      <trkpt lat="59.870295524597168" lon="29.312188625335693">
        <time>2026-07-26T15:19:44Z</time>
      </trkpt>
      <trkpt lat="59.870295524597168" lon="29.312188625335693">
        <time>2026-07-26T15:19:47Z</time>
      </trkpt>
      <trkpt lat="59.870295524597168" lon="29.312188625335693">
        <time>2026-07-26T15:19:49Z</time>
      </trkpt>
      <trkpt lat="59.870295524597168" lon="29.312188625335693">
        <time>2026-07-26T15:19:52Z</time>
      </trkpt>
      <trkpt lat="59.870295524597168" lon="29.312188625335693">
        <time>2026-07-26T15:19:54Z</time>
      </trkpt>
      <trkpt lat="59.870295524597168" lon="29.312188625335693">
        <time>2026-07-26T15:19:57Z</time>
      </trkpt>
      <trkpt lat="59.870295524597168" lon="29.312188625335693">
        <time>2026-07-26T15:19:59Z</time>
      </trkpt>
      <trkpt lat="59.870295524597168" lon="29.312188625335693">
        <time>2026-07-26T15:20:02Z</time>
      </trkpt>
      <trkpt lat="59.870295524597168" lon="29.312188625335693">
        <time>2026-07-26T15:20:04Z</time>
      </trkpt>
      <trkpt lat="59.870295524597168" lon="29.312188625335693">
        <time>2026-07-26T15:20:07Z</time>
      </trkpt>
      <trkpt lat="59.870295524597168" lon="29.312188625335693">
        <time>2026-07-26T15:20:09Z</time>
      </trkpt>
      <trkpt lat="59.870295524597168" lon="29.312188625335693">
        <time>2026-07-26T15:20:12Z</time>
      </trkpt>
      <trkpt lat="59.870295524597168" lon="29.312188625335693">
        <time>2026-07-26T15:20:14Z</time>
      </trkpt>
      <trkpt lat="59.870295524597168" lon="29.312188625335693">
        <time>2026-07-26T15:20:17Z</time>
      </trkpt>
      <trkpt lat="59.870274066925049" lon="29.312188625335693">
        <time>2026-07-26T15:20:19Z</time>
      </trkpt>
      <trkpt lat="59.870274066925049" lon="29.312188625335693">
        <time>2026-07-26T15:20:22Z</time>
      </trkpt>
      <trkpt lat="59.870274066925049" lon="29.312188625335693">
        <time>2026-07-26T15:20:24Z</time>
      </trkpt>
      <trkpt lat="59.870274066925049" lon="29.312188625335693">
        <time>2026-07-26T15:20:27Z</time>
      </trkpt>
      <trkpt lat="59.870274066925049" lon="29.312188625335693">
        <time>2026-07-26T15:20:29Z</time>
      </trkpt>
      <trkpt lat="59.870274066925049" lon="29.312188625335693">
        <time>2026-07-26T15:20:32Z</time>
      </trkpt>
      <trkpt lat="59.870274066925049" lon="29.312188625335693">
        <time>2026-07-26T15:20:34Z</time>
      </trkpt>
      <trkpt lat="59.870274066925049" lon="29.312188625335693">
        <time>2026-07-26T15:20:37Z</time>
      </trkpt>
      <trkpt lat="59.870274066925049" lon="29.312188625335693">
        <time>2026-07-26T15:20:39Z</time>
      </trkpt>
      <trkpt lat="59.870274066925049" lon="29.312188625335693">
        <time>2026-07-26T15:20:42Z</time>
      </trkpt>
      <trkpt lat="59.870274066925049" lon="29.312188625335693">
        <time>2026-07-26T15:20:44Z</time>
      </trkpt>
      <trkpt lat="59.870274066925049" lon="29.312188625335693">
        <time>2026-07-26T15:20:47Z</time>
      </trkpt>
      <trkpt lat="59.870274066925049" lon="29.312188625335693">
        <time>2026-07-26T15:20:49Z</time>
      </trkpt>
      <trkpt lat="59.870274066925049" lon="29.312188625335693">
        <time>2026-07-26T15:20:52Z</time>
      </trkpt>
      <trkpt lat="59.870274066925049" lon="29.312188625335693">
        <time>2026-07-26T15:20:54Z</time>
      </trkpt>
      <trkpt lat="59.870274066925049" lon="29.312188625335693">
        <time>2026-07-26T15:20:57Z</time>
      </trkpt>
      <trkpt lat="59.870295524597168" lon="29.312188625335693">
        <time>2026-07-26T15:20:59Z</time>
      </trkpt>
      <trkpt lat="59.870295524597168" lon="29.312188625335693">
        <time>2026-07-26T15:21:02Z</time>
      </trkpt>
      <trkpt lat="59.870295524597168" lon="29.312188625335693">
        <time>2026-07-26T15:21:04Z</time>
      </trkpt>
      <trkpt lat="59.870295524597168" lon="29.312188625335693">
        <time>2026-07-26T15:21:07Z</time>
      </trkpt>
      <trkpt lat="59.870295524597168" lon="29.312188625335693">
        <time>2026-07-26T15:21:09Z</time>
      </trkpt>
      <trkpt lat="59.870295524597168" lon="29.312188625335693">
        <time>2026-07-26T15:21:12Z</time>
      </trkpt>
      <trkpt lat="59.870295524597168" lon="29.312188625335693">
        <time>2026-07-26T15:21:14Z</time>
      </trkpt>
      <trkpt lat="59.870295524597168" lon="29.312188625335693">
        <time>2026-07-26T15:21:17Z</time>
      </trkpt>
      <trkpt lat="59.870295524597168" lon="29.312188625335693">
        <time>2026-07-26T15:21:19Z</time>
      </trkpt>
      <trkpt lat="59.870295524597168" lon="29.312188625335693">
        <time>2026-07-26T15:21:22Z</time>
      </trkpt>
      <trkpt lat="59.870295524597168" lon="29.312188625335693">
        <time>2026-07-26T15:21:24Z</time>
      </trkpt>
      <trkpt lat="59.870295524597168" lon="29.312188625335693">
        <time>2026-07-26T15:21:27Z</time>
      </trkpt>
      <trkpt lat="59.870295524597168" lon="29.312188625335693">
        <time>2026-07-26T15:21:29Z</time>
      </trkpt>
      <trkpt lat="59.870274066925049" lon="29.312167167663574">
        <time>2026-07-26T15:21:32Z</time>
      </trkpt>
      <trkpt lat="59.870274066925049" lon="29.312167167663574">
        <time>2026-07-26T15:21:34Z</time>
      </trkpt>
      <trkpt lat="59.870274066925049" lon="29.312167167663574">
        <time>2026-07-26T15:21:37Z</time>
      </trkpt>
      <trkpt lat="59.87025260925293" lon="29.312167167663574">
        <time>2026-07-26T15:21:39Z</time>
      </trkpt>
      <trkpt lat="59.870231151580811" lon="29.312145709991455">
        <time>2026-07-26T15:21:42Z</time>
      </trkpt>
      <trkpt lat="59.870209693908691" lon="29.312102794647217">
        <time>2026-07-26T15:21:44Z</time>
      </trkpt>
      <trkpt lat="59.870209693908691" lon="29.312124252319336">
        <time>2026-07-26T15:21:47Z</time>
      </trkpt>
      <trkpt lat="59.870209693908691" lon="29.312081336975098">
        <time>2026-07-26T15:21:49Z</time>
      </trkpt>
      <trkpt lat="59.870231151580811" lon="29.312124252319336">
        <time>2026-07-26T15:21:52Z</time>
      </trkpt>
      <trkpt lat="59.87025260925293" lon="29.312188625335693">
        <time>2026-07-26T15:21:54Z</time>
      </trkpt>
      <trkpt lat="59.87025260925293" lon="29.312145709991455">
        <time>2026-07-26T15:21:57Z</time>
      </trkpt>
      <trkpt lat="59.87025260925293" lon="29.312124252319336">
        <time>2026-07-26T15:21:59Z</time>
      </trkpt>
      <trkpt lat="59.87025260925293" lon="29.312167167663574">
        <time>2026-07-26T15:22:02Z</time>
      </trkpt>
      <trkpt lat="59.870231151580811" lon="29.312188625335693">
        <time>2026-07-26T15:22:04Z</time>
      </trkpt>
      <trkpt lat="59.870188236236572" lon="29.312145709991455">
        <time>2026-07-26T15:22:07Z</time>
      </trkpt>
      <trkpt lat="59.870123863220215" lon="29.31201696395874">
        <time>2026-07-26T15:22:09Z</time>
      </trkpt>
      <trkpt lat="59.870102405548096" lon="29.311995506286621">
        <time>2026-07-26T15:22:12Z</time>
      </trkpt>
      <trkpt lat="59.870080947875977" lon="29.31201696395874">
        <time>2026-07-26T15:22:14Z</time>
      </trkpt>
      <trkpt lat="59.870059490203857" lon="29.31201696395874">
        <time>2026-07-26T15:22:17Z</time>
      </trkpt>
      <trkpt lat="59.870038032531738" lon="29.312038421630859">
        <time>2026-07-26T15:22:19Z</time>
      </trkpt>
      <trkpt lat="59.870038032531738" lon="29.312038421630859">
        <time>2026-07-26T15:22:22Z</time>
      </trkpt>
      <trkpt lat="59.870038032531738" lon="29.312038421630859">
        <time>2026-07-26T15:22:24Z</time>
      </trkpt>
      <trkpt lat="59.870038032531738" lon="29.312038421630859">
        <time>2026-07-26T15:22:27Z</time>
      </trkpt>
      <trkpt lat="59.870038032531738" lon="29.31201696395874">
        <time>2026-07-26T15:22:29Z</time>
      </trkpt>
      <trkpt lat="59.870038032531738" lon="29.31201696395874">
        <time>2026-07-26T15:22:32Z</time>
      </trkpt>
      <trkpt lat="59.870059490203857" lon="29.31201696395874">
        <time>2026-07-26T15:22:34Z</time>
      </trkpt>
      <trkpt lat="59.870038032531738" lon="29.31201696395874">
        <time>2026-07-26T15:22:37Z</time>
      </trkpt>
      <trkpt lat="59.870038032531738" lon="29.311995506286621">
        <time>2026-07-26T15:22:39Z</time>
      </trkpt>
      <trkpt lat="59.870038032531738" lon="29.311995506286621">
        <time>2026-07-26T15:22:42Z</time>
      </trkpt>
      <trkpt lat="59.870038032531738" lon="29.311974048614502">
        <time>2026-07-26T15:22:44Z</time>
      </trkpt>
      <trkpt lat="59.870059490203857" lon="29.311952590942383">
        <time>2026-07-26T15:22:47Z</time>
      </trkpt>
      <trkpt lat="59.870059490203857" lon="29.311931133270264">
        <time>2026-07-26T15:22:49Z</time>
      </trkpt>
      <trkpt lat="59.870059490203857" lon="29.311931133270264">
        <time>2026-07-26T15:22:52Z</time>
      </trkpt>
      <trkpt lat="59.870059490203857" lon="29.311909675598145">
        <time>2026-07-26T15:22:54Z</time>
      </trkpt>
      <trkpt lat="59.870059490203857" lon="29.311866760253906">
        <time>2026-07-26T15:22:57Z</time>
      </trkpt>
      <trkpt lat="59.870059490203857" lon="29.311845302581787">
        <time>2026-07-26T15:22:59Z</time>
      </trkpt>
      <trkpt lat="59.870059490203857" lon="29.311866760253906">
        <time>2026-07-26T15:23:02Z</time>
      </trkpt>
      <trkpt lat="59.870059490203857" lon="29.311866760253906">
        <time>2026-07-26T15:23:04Z</time>
      </trkpt>
      <trkpt lat="59.870059490203857" lon="29.311845302581787">
        <time>2026-07-26T15:23:07Z</time>
      </trkpt>
      <trkpt lat="59.870038032531738" lon="29.311823844909668">
        <time>2026-07-26T15:23:09Z</time>
      </trkpt>
      <trkpt lat="59.870038032531738" lon="29.311823844909668">
        <time>2026-07-26T15:23:12Z</time>
      </trkpt>
      <trkpt lat="59.870038032531738" lon="29.311866760253906">
        <time>2026-07-26T15:23:14Z</time>
      </trkpt>
      <trkpt lat="59.870059490203857" lon="29.311931133270264">
        <time>2026-07-26T15:23:17Z</time>
      </trkpt>
      <trkpt lat="59.870059490203857" lon="29.31201696395874">
        <time>2026-07-26T15:23:19Z</time>
      </trkpt>
      <trkpt lat="59.870038032531738" lon="29.312081336975098">
        <time>2026-07-26T15:23:22Z</time>
      </trkpt>
      <trkpt lat="59.870016574859619" lon="29.312102794647217">
        <time>2026-07-26T15:23:24Z</time>
      </trkpt>
      <trkpt lat="59.870016574859619" lon="29.312124252319336">
        <time>2026-07-26T15:23:27Z</time>
      </trkpt>
      <trkpt lat="59.8699951171875" lon="29.312124252319336">
        <time>2026-07-26T15:23:29Z</time>
      </trkpt>
      <trkpt lat="59.8699951171875" lon="29.312124252319336">
        <time>2026-07-26T15:23:32Z</time>
      </trkpt>
      <trkpt lat="59.8699951171875" lon="29.312145709991455">
        <time>2026-07-26T15:23:34Z</time>
      </trkpt>
      <trkpt lat="59.870016574859619" lon="29.312124252319336">
        <time>2026-07-26T15:23:37Z</time>
      </trkpt>
      <trkpt lat="59.8699951171875" lon="29.312102794647217">
        <time>2026-07-26T15:23:44Z</time>
      </trkpt>
      <trkpt lat="59.869973659515381" lon="29.312059879302979">
        <time>2026-07-26T15:23:47Z</time>
      </trkpt>
      <trkpt lat="59.869952201843262" lon="29.312081336975098">
        <time>2026-07-26T15:23:49Z</time>
      </trkpt>
      <trkpt lat="59.8699951171875" lon="29.312124252319336">
        <time>2026-07-26T15:23:54Z</time>
      </trkpt>
      <trkpt lat="59.870016574859619" lon="29.312038421630859">
        <time>2026-07-26T15:23:57Z</time>
      </trkpt>
      <trkpt lat="59.870038032531738" lon="29.311909675598145">
        <time>2026-07-26T15:23:59Z</time>
      </trkpt>
      <trkpt lat="59.870059490203857" lon="29.311974048614502">
        <time>2026-07-26T15:24:02Z</time>
      </trkpt>
      <trkpt lat="59.870080947875977" lon="29.312038421630859">
        <time>2026-07-26T15:24:04Z</time>
      </trkpt>
      <trkpt lat="59.870123863220215" lon="29.312102794647217">
        <time>2026-07-26T15:24:07Z</time>
      </trkpt>
      <trkpt lat="59.870145320892334" lon="29.312167167663574">
        <time>2026-07-26T15:24:09Z</time>
      </trkpt>
      <trkpt lat="59.870166778564453" lon="29.312188625335693">
        <time>2026-07-26T15:24:12Z</time>
      </trkpt>
      <trkpt lat="59.870166778564453" lon="29.312188625335693">
        <time>2026-07-26T15:24:14Z</time>
      </trkpt>
      <trkpt lat="59.870166778564453" lon="29.312188625335693">
        <time>2026-07-26T15:24:17Z</time>
      </trkpt>
      <trkpt lat="59.870166778564453" lon="29.312188625335693">
        <time>2026-07-26T15:24:19Z</time>
      </trkpt>
      <trkpt lat="59.870166778564453" lon="29.312188625335693">
        <time>2026-07-26T15:24:22Z</time>
      </trkpt>
      <trkpt lat="59.870166778564453" lon="29.312188625335693">
        <time>2026-07-26T15:24:24Z</time>
      </trkpt>
      <trkpt lat="59.870166778564453" lon="29.312188625335693">
        <time>2026-07-26T15:24:27Z</time>
      </trkpt>
      <trkpt lat="59.870166778564453" lon="29.312188625335693">
        <time>2026-07-26T15:24:29Z</time>
      </trkpt>
      <trkpt lat="59.870166778564453" lon="29.312188625335693">
        <time>2026-07-26T15:24:32Z</time>
      </trkpt>
      <trkpt lat="59.870166778564453" lon="29.312188625335693">
        <time>2026-07-26T15:24:34Z</time>
      </trkpt>
      <trkpt lat="59.870166778564453" lon="29.312188625335693">
        <time>2026-07-26T15:24:37Z</time>
      </trkpt>
      <trkpt lat="59.870166778564453" lon="29.312188625335693">
        <time>2026-07-26T15:24:39Z</time>
      </trkpt>
      <trkpt lat="59.870166778564453" lon="29.312188625335693">
        <time>2026-07-26T15:24:42Z</time>
      </trkpt>
      <trkpt lat="59.870166778564453" lon="29.312188625335693">
        <time>2026-07-26T15:24:44Z</time>
      </trkpt>
      <trkpt lat="59.870166778564453" lon="29.312188625335693">
        <time>2026-07-26T15:24:47Z</time>
      </trkpt>
      <trkpt lat="59.870166778564453" lon="29.312188625335693">
        <time>2026-07-26T15:24:49Z</time>
      </trkpt>
      <trkpt lat="59.870166778564453" lon="29.312188625335693">
        <time>2026-07-26T15:24:52Z</time>
      </trkpt>
      <trkpt lat="59.870166778564453" lon="29.312188625335693">
        <time>2026-07-26T15:24:54Z</time>
      </trkpt>
      <trkpt lat="59.870166778564453" lon="29.312188625335693">
        <time>2026-07-26T15:24:57Z</time>
      </trkpt>
      <trkpt lat="59.870166778564453" lon="29.312188625335693">
        <time>2026-07-26T15:24:59Z</time>
      </trkpt>
      <trkpt lat="59.870166778564453" lon="29.312188625335693">
        <time>2026-07-26T15:25:02Z</time>
      </trkpt>
      <trkpt lat="59.870166778564453" lon="29.312188625335693">
        <time>2026-07-26T15:25:04Z</time>
      </trkpt>
      <trkpt lat="59.870166778564453" lon="29.312188625335693">
        <time>2026-07-26T15:25:07Z</time>
      </trkpt>
      <trkpt lat="59.870166778564453" lon="29.312188625335693">
        <time>2026-07-26T15:25:09Z</time>
      </trkpt>
      <trkpt lat="59.870166778564453" lon="29.312188625335693">
        <time>2026-07-26T15:25:12Z</time>
      </trkpt>
      <trkpt lat="59.870166778564453" lon="29.312188625335693">
        <time>2026-07-26T15:25:14Z</time>
      </trkpt>
      <trkpt lat="59.870166778564453" lon="29.312188625335693">
        <time>2026-07-26T15:25:17Z</time>
      </trkpt>
      <trkpt lat="59.870166778564453" lon="29.312188625335693">
        <time>2026-07-26T15:25:19Z</time>
      </trkpt>
      <trkpt lat="59.870166778564453" lon="29.312188625335693">
        <time>2026-07-26T15:25:22Z</time>
      </trkpt>
      <trkpt lat="59.870166778564453" lon="29.312188625335693">
        <time>2026-07-26T15:25:24Z</time>
      </trkpt>
      <trkpt lat="59.870166778564453" lon="29.312188625335693">
        <time>2026-07-26T15:25:27Z</time>
      </trkpt>
      <trkpt lat="59.870166778564453" lon="29.312188625335693">
        <time>2026-07-26T15:25:29Z</time>
      </trkpt>
      <trkpt lat="59.870166778564453" lon="29.312188625335693">
        <time>2026-07-26T15:25:32Z</time>
      </trkpt>
      <trkpt lat="59.870166778564453" lon="29.312188625335693">
        <time>2026-07-26T15:25:34Z</time>
      </trkpt>
      <trkpt lat="59.870166778564453" lon="29.312188625335693">
        <time>2026-07-26T15:25:37Z</time>
      </trkpt>
      <trkpt lat="59.870166778564453" lon="29.312188625335693">
        <time>2026-07-26T15:25:39Z</time>
      </trkpt>
      <trkpt lat="59.870166778564453" lon="29.312188625335693">
        <time>2026-07-26T15:25:42Z</time>
      </trkpt>
      <trkpt lat="59.870166778564453" lon="29.312188625335693">
        <time>2026-07-26T15:25:44Z</time>
      </trkpt>
      <trkpt lat="59.870166778564453" lon="29.312188625335693">
        <time>2026-07-26T15:25:47Z</time>
      </trkpt>
      <trkpt lat="59.870166778564453" lon="29.312188625335693">
        <time>2026-07-26T15:25:49Z</time>
      </trkpt>
      <trkpt lat="59.870166778564453" lon="29.312188625335693">
        <time>2026-07-26T15:25:52Z</time>
      </trkpt>
      <trkpt lat="59.870166778564453" lon="29.312188625335693">
        <time>2026-07-26T15:25:54Z</time>
      </trkpt>
      <trkpt lat="59.870166778564453" lon="29.312188625335693">
        <time>2026-07-26T15:25:57Z</time>
      </trkpt>
      <trkpt lat="59.870166778564453" lon="29.312188625335693">
        <time>2026-07-26T15:25:59Z</time>
      </trkpt>
      <trkpt lat="59.870166778564453" lon="29.312188625335693">
        <time>2026-07-26T15:26:02Z</time>
      </trkpt>
      <trkpt lat="59.870166778564453" lon="29.312188625335693">
        <time>2026-07-26T15:26:04Z</time>
      </trkpt>
      <trkpt lat="59.870166778564453" lon="29.312188625335693">
        <time>2026-07-26T15:26:07Z</time>
      </trkpt>
      <trkpt lat="59.870166778564453" lon="29.312188625335693">
        <time>2026-07-26T15:26:09Z</time>
      </trkpt>
      <trkpt lat="59.870166778564453" lon="29.312188625335693">
        <time>2026-07-26T15:26:12Z</time>
      </trkpt>
      <trkpt lat="59.870166778564453" lon="29.312188625335693">
        <time>2026-07-26T15:26:14Z</time>
      </trkpt>
      <trkpt lat="59.870166778564453" lon="29.312188625335693">
        <time>2026-07-26T15:26:17Z</time>
      </trkpt>
      <trkpt lat="59.870166778564453" lon="29.312188625335693">
        <time>2026-07-26T15:26:19Z</time>
      </trkpt>
      <trkpt lat="59.870166778564453" lon="29.312188625335693">
        <time>2026-07-26T15:26:22Z</time>
      </trkpt>
      <trkpt lat="59.870166778564453" lon="29.312188625335693">
        <time>2026-07-26T15:26:24Z</time>
      </trkpt>
      <trkpt lat="59.870166778564453" lon="29.312188625335693">
        <time>2026-07-26T15:26:27Z</time>
      </trkpt>
      <trkpt lat="59.870166778564453" lon="29.312188625335693">
        <time>2026-07-26T15:26:29Z</time>
      </trkpt>
      <trkpt lat="59.870188236236572" lon="29.312188625335693">
        <time>2026-07-26T15:26:32Z</time>
      </trkpt>
      <trkpt lat="59.870188236236572" lon="29.312188625335693">
        <time>2026-07-26T15:26:34Z</time>
      </trkpt>
      <trkpt lat="59.870188236236572" lon="29.312188625335693">
        <time>2026-07-26T15:26:37Z</time>
      </trkpt>
      <trkpt lat="59.870188236236572" lon="29.312188625335693">
        <time>2026-07-26T15:26:39Z</time>
      </trkpt>
      <trkpt lat="59.870188236236572" lon="29.312188625335693">
        <time>2026-07-26T15:26:42Z</time>
      </trkpt>
      <trkpt lat="59.870188236236572" lon="29.312188625335693">
        <time>2026-07-26T15:26:44Z</time>
      </trkpt>
      <trkpt lat="59.870188236236572" lon="29.312188625335693">
        <time>2026-07-26T15:26:47Z</time>
      </trkpt>
      <trkpt lat="59.870188236236572" lon="29.312188625335693">
        <time>2026-07-26T15:26:49Z</time>
      </trkpt>
      <trkpt lat="59.870188236236572" lon="29.312188625335693">
        <time>2026-07-26T15:26:52Z</time>
      </trkpt>
      <trkpt lat="59.870188236236572" lon="29.312188625335693">
        <time>2026-07-26T15:26:54Z</time>
      </trkpt>
      <trkpt lat="59.870188236236572" lon="29.312188625335693">
        <time>2026-07-26T15:26:57Z</time>
      </trkpt>
      <trkpt lat="59.870188236236572" lon="29.312167167663574">
        <time>2026-07-26T15:26:59Z</time>
      </trkpt>
      <trkpt lat="59.870209693908691" lon="29.312145709991455">
        <time>2026-07-26T15:27:02Z</time>
      </trkpt>
      <trkpt lat="59.870231151580811" lon="29.312102794647217">
        <time>2026-07-26T15:27:04Z</time>
      </trkpt>
      <trkpt lat="59.870231151580811" lon="29.312102794647217">
        <time>2026-07-26T15:27:07Z</time>
      </trkpt>
      <trkpt lat="59.870231151580811" lon="29.312081336975098">
        <time>2026-07-26T15:27:09Z</time>
      </trkpt>
      <trkpt lat="59.870231151580811" lon="29.312081336975098">
        <time>2026-07-26T15:27:12Z</time>
      </trkpt>
      <trkpt lat="59.870231151580811" lon="29.312081336975098">
        <time>2026-07-26T15:27:14Z</time>
      </trkpt>
      <trkpt lat="59.870231151580811" lon="29.312081336975098">
        <time>2026-07-26T15:27:17Z</time>
      </trkpt>
      <trkpt lat="59.870231151580811" lon="29.312081336975098">
        <time>2026-07-26T15:27:19Z</time>
      </trkpt>
      <trkpt lat="59.870231151580811" lon="29.312081336975098">
        <time>2026-07-26T15:27:22Z</time>
      </trkpt>
      <trkpt lat="59.870231151580811" lon="29.312081336975098">
        <time>2026-07-26T15:27:24Z</time>
      </trkpt>
      <trkpt lat="59.87025260925293" lon="29.312059879302979">
        <time>2026-07-26T15:27:27Z</time>
      </trkpt>
      <trkpt lat="59.87025260925293" lon="29.312038421630859">
        <time>2026-07-26T15:27:29Z</time>
      </trkpt>
      <trkpt lat="59.87025260925293" lon="29.31201696395874">
        <time>2026-07-26T15:27:32Z</time>
      </trkpt>
      <trkpt lat="59.87025260925293" lon="29.312059879302979">
        <time>2026-07-26T15:27:34Z</time>
      </trkpt>
      <trkpt lat="59.870231151580811" lon="29.312059879302979">
        <time>2026-07-26T15:27:37Z</time>
      </trkpt>
      <trkpt lat="59.870231151580811" lon="29.312059879302979">
        <time>2026-07-26T15:27:39Z</time>
      </trkpt>
      <trkpt lat="59.870231151580811" lon="29.312059879302979">
        <time>2026-07-26T15:27:42Z</time>
      </trkpt>
      <trkpt lat="59.870231151580811" lon="29.312059879302979">
        <time>2026-07-26T15:27:44Z</time>
      </trkpt>
      <trkpt lat="59.870231151580811" lon="29.312059879302979">
        <time>2026-07-26T15:27:47Z</time>
      </trkpt>
      <trkpt lat="59.870231151580811" lon="29.312059879302979">
        <time>2026-07-26T15:27:49Z</time>
      </trkpt>
      <trkpt lat="59.870231151580811" lon="29.312059879302979">
        <time>2026-07-26T15:27:52Z</time>
      </trkpt>
      <trkpt lat="59.870231151580811" lon="29.312059879302979">
        <time>2026-07-26T15:27:54Z</time>
      </trkpt>
      <trkpt lat="59.870231151580811" lon="29.312059879302979">
        <time>2026-07-26T15:27:57Z</time>
      </trkpt>
      <trkpt lat="59.870231151580811" lon="29.312059879302979">
        <time>2026-07-26T15:27:59Z</time>
      </trkpt>
      <trkpt lat="59.87025260925293" lon="29.312038421630859">
        <time>2026-07-26T15:28:02Z</time>
      </trkpt>
      <trkpt lat="59.870231151580811" lon="29.312038421630859">
        <time>2026-07-26T15:28:04Z</time>
      </trkpt>
      <trkpt lat="59.870209693908691" lon="29.312059879302979">
        <time>2026-07-26T15:28:07Z</time>
      </trkpt>
      <trkpt lat="59.87025260925293" lon="29.31201696395874">
        <time>2026-07-26T15:28:09Z</time>
      </trkpt>
      <trkpt lat="59.870231151580811" lon="29.311974048614502">
        <time>2026-07-26T15:28:12Z</time>
      </trkpt>
      <trkpt lat="59.87025260925293" lon="29.312059879302979">
        <time>2026-07-26T15:28:14Z</time>
      </trkpt>
      <trkpt lat="59.87025260925293" lon="29.312059879302979">
        <time>2026-07-26T15:28:17Z</time>
      </trkpt>
      <trkpt lat="59.870231151580811" lon="29.312081336975098">
        <time>2026-07-26T15:28:19Z</time>
      </trkpt>
      <trkpt lat="59.870231151580811" lon="29.312081336975098">
        <time>2026-07-26T15:28:22Z</time>
      </trkpt>
      <trkpt lat="59.870231151580811" lon="29.312081336975098">
        <time>2026-07-26T15:28:24Z</time>
      </trkpt>
      <trkpt lat="59.870231151580811" lon="29.312081336975098">
        <time>2026-07-26T15:28:27Z</time>
      </trkpt>
      <trkpt lat="59.870209693908691" lon="29.312059879302979">
        <time>2026-07-26T15:28:29Z</time>
      </trkpt>
      <trkpt lat="59.870188236236572" lon="29.31201696395874">
        <time>2026-07-26T15:28:32Z</time>
      </trkpt>
      <trkpt lat="59.870188236236572" lon="29.312059879302979">
        <time>2026-07-26T15:28:34Z</time>
      </trkpt>
      <trkpt lat="59.870188236236572" lon="29.312102794647217">
        <time>2026-07-26T15:28:37Z</time>
      </trkpt>
      <trkpt lat="59.87025260925293" lon="29.312059879302979">
        <time>2026-07-26T15:28:39Z</time>
      </trkpt>
      <trkpt lat="59.870274066925049" lon="29.311931133270264">
        <time>2026-07-26T15:28:42Z</time>
      </trkpt>
      <trkpt lat="59.870295524597168" lon="29.311931133270264">
        <time>2026-07-26T15:28:44Z</time>
      </trkpt>
      <trkpt lat="59.870295524597168" lon="29.311995506286621">
        <time>2026-07-26T15:28:47Z</time>
      </trkpt>
      <trkpt lat="59.87025260925293" lon="29.312081336975098">
        <time>2026-07-26T15:28:49Z</time>
      </trkpt>
      <trkpt lat="59.870209693908691" lon="29.31201696395874">
        <time>2026-07-26T15:28:52Z</time>
      </trkpt>
      <trkpt lat="59.870166778564453" lon="29.311974048614502">
        <time>2026-07-26T15:28:54Z</time>
      </trkpt>
      <trkpt lat="59.870188236236572" lon="29.312059879302979">
        <time>2026-07-26T15:28:57Z</time>
      </trkpt>
      <trkpt lat="59.870209693908691" lon="29.312038421630859">
        <time>2026-07-26T15:28:59Z</time>
      </trkpt>
      <trkpt lat="59.87025260925293" lon="29.311866760253906">
        <time>2026-07-26T15:29:02Z</time>
      </trkpt>
      <trkpt lat="59.870274066925049" lon="29.311823844909668">
        <time>2026-07-26T15:29:04Z</time>
      </trkpt>
      <trkpt lat="59.870274066925049" lon="29.311952590942383">
        <time>2026-07-26T15:29:07Z</time>
      </trkpt>
      <trkpt lat="59.870209693908691" lon="29.312059879302979">
        <time>2026-07-26T15:29:09Z</time>
      </trkpt>
      <trkpt lat="59.870209693908691" lon="29.312059879302979">
        <time>2026-07-26T15:29:12Z</time>
      </trkpt>
      <trkpt lat="59.870188236236572" lon="29.311931133270264">
        <time>2026-07-26T15:29:14Z</time>
      </trkpt>
      <trkpt lat="59.870166778564453" lon="29.311952590942383">
        <time>2026-07-26T15:29:17Z</time>
      </trkpt>
      <trkpt lat="59.870188236236572" lon="29.312059879302979">
        <time>2026-07-26T15:29:19Z</time>
      </trkpt>
      <trkpt lat="59.112839698791504" lon="30.481610298156738">
        <time>2026-08-20T05:19:49Z</time>
      </trkpt>
      <trkpt lat="59.112861156463623" lon="30.481717586517334">
        <time>2026-08-20T05:19:52Z</time>
      </trkpt>
      <trkpt lat="59.112882614135742" lon="30.48182487487793">
        <time>2026-08-20T05:19:54Z</time>
      </trkpt>
      <trkpt lat="59.112882614135742" lon="30.481889247894287">
        <time>2026-08-20T05:19:57Z</time>
      </trkpt>
      <trkpt lat="59.112904071807861" lon="30.481910705566406">
        <time>2026-08-20T05:19:59Z</time>
      </trkpt>
      <trkpt lat="59.112904071807861" lon="30.481910705566406">
        <time>2026-08-20T05:20:02Z</time>
      </trkpt>
      <trkpt lat="59.112904071807861" lon="30.481932163238525">
        <time>2026-08-20T05:20:04Z</time>
      </trkpt>
      <trkpt lat="59.112904071807861" lon="30.481975078582764">
        <time>2026-08-20T05:20:07Z</time>
      </trkpt>
      <trkpt lat="59.112904071807861" lon="30.481996536254883">
        <time>2026-08-20T05:20:09Z</time>
      </trkpt>
      <trkpt lat="59.112904071807861" lon="30.482017993927002">
        <time>2026-08-20T05:20:12Z</time>
      </trkpt>
      <trkpt lat="59.11292552947998" lon="30.482039451599121">
        <time>2026-08-20T05:20:14Z</time>
      </trkpt>
      <trkpt lat="59.11292552947998" lon="30.48206090927124">
        <time>2026-08-20T05:20:17Z</time>
      </trkpt>
      <trkpt lat="59.11292552947998" lon="30.482082366943359">
        <time>2026-08-20T05:20:19Z</time>
      </trkpt>
      <trkpt lat="59.11292552947998" lon="30.482125282287598">
        <time>2026-08-20T05:20:24Z</time>
      </trkpt>
      <trkpt lat="59.11292552947998" lon="30.482125282287598">
        <time>2026-08-20T05:20:27Z</time>
      </trkpt>
      <trkpt lat="59.11292552947998" lon="30.482125282287598">
        <time>2026-08-20T05:20:29Z</time>
      </trkpt>
      <trkpt lat="59.1129469871521" lon="30.482125282287598">
        <time>2026-08-20T05:20:32Z</time>
      </trkpt>
      <trkpt lat="59.1129469871521" lon="30.482125282287598">
        <time>2026-08-20T05:20:34Z</time>
      </trkpt>
      <trkpt lat="59.1129469871521" lon="30.482125282287598">
        <time>2026-08-20T05:20:37Z</time>
      </trkpt>
      <trkpt lat="59.1129469871521" lon="30.482125282287598">
        <time>2026-08-20T05:20:39Z</time>
      </trkpt>
      <trkpt lat="59.11292552947998" lon="30.482125282287598">
        <time>2026-08-20T05:20:42Z</time>
      </trkpt>
      <trkpt lat="59.11292552947998" lon="30.482146739959717">
        <time>2026-08-20T05:20:44Z</time>
      </trkpt>
      <trkpt lat="59.11292552947998" lon="30.482146739959717">
        <time>2026-08-20T05:20:47Z</time>
      </trkpt>
      <trkpt lat="59.11292552947998" lon="30.482146739959717">
        <time>2026-08-20T05:20:49Z</time>
      </trkpt>
      <trkpt lat="59.11292552947998" lon="30.482146739959717">
        <time>2026-08-20T05:20:52Z</time>
      </trkpt>
      <trkpt lat="59.11292552947998" lon="30.482146739959717">
        <time>2026-08-20T05:20:54Z</time>
      </trkpt>
      <trkpt lat="59.112904071807861" lon="30.482146739959717">
        <time>2026-08-20T05:20:57Z</time>
      </trkpt>
      <trkpt lat="59.112904071807861" lon="30.482168197631836">
        <time>2026-08-20T05:20:59Z</time>
      </trkpt>
      <trkpt lat="59.112904071807861" lon="30.482168197631836">
        <time>2026-08-20T05:21:02Z</time>
      </trkpt>
      <trkpt lat="59.112904071807861" lon="30.482168197631836">
        <time>2026-08-20T05:21:04Z</time>
      </trkpt>
      <trkpt lat="59.112904071807861" lon="30.482146739959717">
        <time>2026-08-20T05:21:07Z</time>
      </trkpt>
      <trkpt lat="59.112904071807861" lon="30.482146739959717">
        <time>2026-08-20T05:21:09Z</time>
      </trkpt>
      <trkpt lat="59.112904071807861" lon="30.482125282287598">
        <time>2026-08-20T05:21:12Z</time>
      </trkpt>
      <trkpt lat="59.112904071807861" lon="30.482125282287598">
        <time>2026-08-20T05:21:14Z</time>
      </trkpt>
      <trkpt lat="59.112904071807861" lon="30.482146739959717">
        <time>2026-08-20T05:21:17Z</time>
      </trkpt>
      <trkpt lat="59.112904071807861" lon="30.482146739959717">
        <time>2026-08-20T05:21:19Z</time>
      </trkpt>
      <trkpt lat="59.112904071807861" lon="30.482125282287598">
        <time>2026-08-20T05:21:22Z</time>
      </trkpt>
      <trkpt lat="59.112904071807861" lon="30.482125282287598">
        <time>2026-08-20T05:21:24Z</time>
      </trkpt>
      <trkpt lat="59.112904071807861" lon="30.482125282287598">
        <time>2026-08-20T05:21:27Z</time>
      </trkpt>
      <trkpt lat="59.112904071807861" lon="30.482146739959717">
        <time>2026-08-20T05:21:29Z</time>
      </trkpt>
      <trkpt lat="59.112904071807861" lon="30.482125282287598">
        <time>2026-08-20T05:21:32Z</time>
      </trkpt>
      <trkpt lat="59.112904071807861" lon="30.482125282287598">
        <time>2026-08-20T05:21:34Z</time>
      </trkpt>
      <trkpt lat="59.112904071807861" lon="30.482125282287598">
        <time>2026-08-20T05:21:37Z</time>
      </trkpt>
      <trkpt lat="59.112904071807861" lon="30.482103824615479">
        <time>2026-08-20T05:21:39Z</time>
      </trkpt>
      <trkpt lat="59.112904071807861" lon="30.482103824615479">
        <time>2026-08-20T05:21:42Z</time>
      </trkpt>
      <trkpt lat="59.112904071807861" lon="30.482103824615479">
        <time>2026-08-20T05:21:44Z</time>
      </trkpt>
      <trkpt lat="59.112904071807861" lon="30.482103824615479">
        <time>2026-08-20T05:21:47Z</time>
      </trkpt>
      <trkpt lat="59.112904071807861" lon="30.482103824615479">
        <time>2026-08-20T05:21:49Z</time>
      </trkpt>
      <trkpt lat="59.112904071807861" lon="30.482125282287598">
        <time>2026-08-20T05:21:52Z</time>
      </trkpt>
      <trkpt lat="59.112904071807861" lon="30.482125282287598">
        <time>2026-08-20T05:21:54Z</time>
      </trkpt>
      <trkpt lat="59.112904071807861" lon="30.482125282287598">
        <time>2026-08-20T05:21:57Z</time>
      </trkpt>
      <trkpt lat="59.112904071807861" lon="30.482082366943359">
        <time>2026-08-20T05:21:59Z</time>
      </trkpt>
      <trkpt lat="59.112904071807861" lon="30.482039451599121">
        <time>2026-08-20T05:22:02Z</time>
      </trkpt>
      <trkpt lat="59.112904071807861" lon="30.482039451599121">
        <time>2026-08-20T05:22:04Z</time>
      </trkpt>
      <trkpt lat="59.112904071807861" lon="30.48206090927124">
        <time>2026-08-20T05:22:07Z</time>
      </trkpt>
      <trkpt lat="59.112904071807861" lon="30.482082366943359">
        <time>2026-08-20T05:22:09Z</time>
      </trkpt>
      <trkpt lat="59.112904071807861" lon="30.482103824615479">
        <time>2026-08-20T05:22:12Z</time>
      </trkpt>
      <trkpt lat="59.112882614135742" lon="30.482103824615479">
        <time>2026-08-20T05:22:14Z</time>
      </trkpt>
      <trkpt lat="59.112882614135742" lon="30.482082366943359">
        <time>2026-08-20T05:22:17Z</time>
      </trkpt>
      <trkpt lat="59.112904071807861" lon="30.482082366943359">
        <time>2026-08-20T05:22:19Z</time>
      </trkpt>
      <trkpt lat="59.112904071807861" lon="30.482082366943359">
        <time>2026-08-20T05:22:22Z</time>
      </trkpt>
      <trkpt lat="59.112882614135742" lon="30.482103824615479">
        <time>2026-08-20T05:22:24Z</time>
      </trkpt>
      <trkpt lat="59.112882614135742" lon="30.482103824615479">
        <time>2026-08-20T05:22:27Z</time>
      </trkpt>
      <trkpt lat="59.112882614135742" lon="30.482103824615479">
        <time>2026-08-20T05:22:29Z</time>
      </trkpt>
      <trkpt lat="59.112882614135742" lon="30.482103824615479">
        <time>2026-08-20T05:22:32Z</time>
      </trkpt>
      <trkpt lat="59.112882614135742" lon="30.482103824615479">
        <time>2026-08-20T05:22:34Z</time>
      </trkpt>
      <trkpt lat="59.112882614135742" lon="30.482103824615479">
        <time>2026-08-20T05:22:37Z</time>
      </trkpt>
      <trkpt lat="59.112882614135742" lon="30.482103824615479">
        <time>2026-08-20T05:22:39Z</time>
      </trkpt>
      <trkpt lat="59.112904071807861" lon="30.482125282287598">
        <time>2026-08-20T05:22:42Z</time>
      </trkpt>
      <trkpt lat="59.112904071807861" lon="30.482082366943359">
        <time>2026-08-20T05:22:44Z</time>
      </trkpt>
      <trkpt lat="59.112904071807861" lon="30.482082366943359">
        <time>2026-08-20T05:22:47Z</time>
      </trkpt>
      <trkpt lat="59.112904071807861" lon="30.482082366943359">
        <time>2026-08-20T05:22:49Z</time>
      </trkpt>
      <trkpt lat="59.112904071807861" lon="30.482082366943359">
        <time>2026-08-20T05:22:52Z</time>
      </trkpt>
      <trkpt lat="59.112904071807861" lon="30.482082366943359">
        <time>2026-08-20T05:22:54Z</time>
      </trkpt>
      <trkpt lat="59.112904071807861" lon="30.482082366943359">
        <time>2026-08-20T05:22:57Z</time>
      </trkpt>
      <trkpt lat="59.112904071807861" lon="30.482082366943359">
        <time>2026-08-20T05:22:59Z</time>
      </trkpt>
      <trkpt lat="59.112904071807861" lon="30.482082366943359">
        <time>2026-08-20T05:23:02Z</time>
      </trkpt>
      <trkpt lat="59.112904071807861" lon="30.482082366943359">
        <time>2026-08-20T05:23:04Z</time>
      </trkpt>
      <trkpt lat="59.112904071807861" lon="30.482082366943359">
        <time>2026-08-20T05:23:07Z</time>
      </trkpt>
      <trkpt lat="59.112904071807861" lon="30.482082366943359">
        <time>2026-08-20T05:23:09Z</time>
      </trkpt>
      <trkpt lat="59.112882614135742" lon="30.48206090927124">
        <time>2026-08-20T05:23:12Z</time>
      </trkpt>
      <trkpt lat="59.112882614135742" lon="30.482017993927002">
        <time>2026-08-20T05:23:14Z</time>
      </trkpt>
      <trkpt lat="59.112904071807861" lon="30.482039451599121">
        <time>2026-08-20T05:23:17Z</time>
      </trkpt>
      <trkpt lat="59.112904071807861" lon="30.482039451599121">
        <time>2026-08-20T05:23:19Z</time>
      </trkpt>
      <trkpt lat="59.112904071807861" lon="30.482039451599121">
        <time>2026-08-20T05:23:22Z</time>
      </trkpt>
      <trkpt lat="59.112904071807861" lon="30.482039451599121">
        <time>2026-08-20T05:23:24Z</time>
      </trkpt>
      <trkpt lat="59.112904071807861" lon="30.482039451599121">
        <time>2026-08-20T05:23:27Z</time>
      </trkpt>
      <trkpt lat="59.112904071807861" lon="30.482039451599121">
        <time>2026-08-20T05:23:29Z</time>
      </trkpt>
      <trkpt lat="59.112904071807861" lon="30.482039451599121">
        <time>2026-08-20T05:23:32Z</time>
      </trkpt>
      <trkpt lat="59.112904071807861" lon="30.482039451599121">
        <time>2026-08-20T05:23:34Z</time>
      </trkpt>
      <trkpt lat="59.112904071807861" lon="30.482039451599121">
        <time>2026-08-20T05:23:37Z</time>
      </trkpt>
      <trkpt lat="59.112904071807861" lon="30.482039451599121">
        <time>2026-08-20T05:23:39Z</time>
      </trkpt>
      <trkpt lat="59.112882614135742" lon="30.482082366943359">
        <time>2026-08-20T05:23:42Z</time>
      </trkpt>
      <trkpt lat="59.112882614135742" lon="30.482082366943359">
        <time>2026-08-20T05:23:44Z</time>
      </trkpt>
      <trkpt lat="59.112882614135742" lon="30.482082366943359">
        <time>2026-08-20T05:23:47Z</time>
      </trkpt>
      <trkpt lat="59.112882614135742" lon="30.482082366943359">
        <time>2026-08-20T05:23:49Z</time>
      </trkpt>
      <trkpt lat="59.112882614135742" lon="30.482082366943359">
        <time>2026-08-20T05:23:52Z</time>
      </trkpt>
      <trkpt lat="59.112882614135742" lon="30.482082366943359">
        <time>2026-08-20T05:23:54Z</time>
      </trkpt>
      <trkpt lat="59.112882614135742" lon="30.482082366943359">
        <time>2026-08-20T05:23:57Z</time>
      </trkpt>
      <trkpt lat="59.112882614135742" lon="30.482082366943359">
        <time>2026-08-20T05:23:59Z</time>
      </trkpt>
      <trkpt lat="59.112882614135742" lon="30.482082366943359">
        <time>2026-08-20T05:24:02Z</time>
      </trkpt>
      <trkpt lat="59.112882614135742" lon="30.482082366943359">
        <time>2026-08-20T05:24:04Z</time>
      </trkpt>
      <trkpt lat="59.112882614135742" lon="30.482082366943359">
        <time>2026-08-20T05:24:07Z</time>
      </trkpt>
      <trkpt lat="59.112882614135742" lon="30.482082366943359">
        <time>2026-08-20T05:24:09Z</time>
      </trkpt>
      <trkpt lat="59.112882614135742" lon="30.482082366943359">
        <time>2026-08-20T05:24:12Z</time>
      </trkpt>
      <trkpt lat="59.112882614135742" lon="30.482125282287598">
        <time>2026-08-20T05:24:14Z</time>
      </trkpt>
      <trkpt lat="59.112904071807861" lon="30.482146739959717">
        <time>2026-08-20T05:24:17Z</time>
      </trkpt>
      <trkpt lat="59.112904071807861" lon="30.482168197631836">
        <time>2026-08-20T05:24:19Z</time>
      </trkpt>
      <trkpt lat="59.112882614135742" lon="30.482168197631836">
        <time>2026-08-20T05:24:22Z</time>
      </trkpt>
      <trkpt lat="59.112882614135742" lon="30.482168197631836">
        <time>2026-08-20T05:24:24Z</time>
      </trkpt>
      <trkpt lat="59.112882614135742" lon="30.482168197631836">
        <time>2026-08-20T05:24:27Z</time>
      </trkpt>
      <trkpt lat="59.112882614135742" lon="30.482168197631836">
        <time>2026-08-20T05:24:29Z</time>
      </trkpt>
      <trkpt lat="59.112882614135742" lon="30.482168197631836">
        <time>2026-08-20T05:24:32Z</time>
      </trkpt>
      <trkpt lat="59.112882614135742" lon="30.482168197631836">
        <time>2026-08-20T05:24:34Z</time>
      </trkpt>
      <trkpt lat="59.112882614135742" lon="30.482168197631836">
        <time>2026-08-20T05:24:37Z</time>
      </trkpt>
      <trkpt lat="59.112882614135742" lon="30.482168197631836">
        <time>2026-08-20T05:24:39Z</time>
      </trkpt>
      <trkpt lat="59.112904071807861" lon="30.482146739959717">
        <time>2026-08-20T05:24:42Z</time>
      </trkpt>
      <trkpt lat="59.112904071807861" lon="30.482168197631836">
        <time>2026-08-20T05:24:44Z</time>
      </trkpt>
      <trkpt lat="59.112904071807861" lon="30.482168197631836">
        <time>2026-08-20T05:24:47Z</time>
      </trkpt>
      <trkpt lat="59.112904071807861" lon="30.482168197631836">
        <time>2026-08-20T05:24:49Z</time>
      </trkpt>
      <trkpt lat="59.112904071807861" lon="30.482146739959717">
        <time>2026-08-20T05:24:52Z</time>
      </trkpt>
      <trkpt lat="59.11292552947998" lon="30.482146739959717">
        <time>2026-08-20T05:24:54Z</time>
      </trkpt>
      <trkpt lat="59.112904071807861" lon="30.482146739959717">
        <time>2026-08-20T05:24:57Z</time>
      </trkpt>
      <trkpt lat="59.112882614135742" lon="30.482168197631836">
        <time>2026-08-20T05:24:59Z</time>
      </trkpt>
      <trkpt lat="59.112904071807861" lon="30.482168197631836">
        <time>2026-08-20T05:25:02Z</time>
      </trkpt>
      <trkpt lat="59.112904071807861" lon="30.482168197631836">
        <time>2026-08-20T05:25:04Z</time>
      </trkpt>
      <trkpt lat="59.112882614135742" lon="30.482168197631836">
        <time>2026-08-20T05:25:07Z</time>
      </trkpt>
      <trkpt lat="59.112882614135742" lon="30.482168197631836">
        <time>2026-08-20T05:25:09Z</time>
      </trkpt>
      <trkpt lat="59.112904071807861" lon="30.482146739959717">
        <time>2026-08-20T05:25:12Z</time>
      </trkpt>
      <trkpt lat="59.112904071807861" lon="30.482146739959717">
        <time>2026-08-20T05:25:14Z</time>
      </trkpt>
      <trkpt lat="59.112904071807861" lon="30.482146739959717">
        <time>2026-08-20T05:25:17Z</time>
      </trkpt>
      <trkpt lat="59.112904071807861" lon="30.482146739959717">
        <time>2026-08-20T05:25:19Z</time>
      </trkpt>
      <trkpt lat="59.112904071807861" lon="30.482146739959717">
        <time>2026-08-20T05:25:22Z</time>
      </trkpt>
      <trkpt lat="59.112904071807861" lon="30.482146739959717">
        <time>2026-08-20T05:25:24Z</time>
      </trkpt>
      <trkpt lat="59.112904071807861" lon="30.482146739959717">
        <time>2026-08-20T05:25:27Z</time>
      </trkpt>
      <trkpt lat="59.112904071807861" lon="30.482168197631836">
        <time>2026-08-20T05:25:29Z</time>
      </trkpt>
      <trkpt lat="59.112904071807861" lon="30.482168197631836">
        <time>2026-08-20T05:25:32Z</time>
      </trkpt>
      <trkpt lat="59.112904071807861" lon="30.482168197631836">
        <time>2026-08-20T05:25:34Z</time>
      </trkpt>
      <trkpt lat="59.112904071807861" lon="30.482168197631836">
        <time>2026-08-20T05:25:37Z</time>
      </trkpt>
      <trkpt lat="59.112904071807861" lon="30.482168197631836">
        <time>2026-08-20T05:25:39Z</time>
      </trkpt>
      <trkpt lat="59.112904071807861" lon="30.482168197631836">
        <time>2026-08-20T05:25:42Z</time>
      </trkpt>
      <trkpt lat="59.112904071807861" lon="30.482168197631836">
        <time>2026-08-20T05:25:44Z</time>
      </trkpt>
      <trkpt lat="59.112904071807861" lon="30.482168197631836">
        <time>2026-08-20T05:25:47Z</time>
      </trkpt>
      <trkpt lat="59.112904071807861" lon="30.482168197631836">
        <time>2026-08-20T05:25:49Z</time>
      </trkpt>
      <trkpt lat="59.112904071807861" lon="30.482168197631836">
        <time>2026-08-20T05:25:52Z</time>
      </trkpt>
      <trkpt lat="59.112904071807861" lon="30.482168197631836">
        <time>2026-08-20T05:25:54Z</time>
      </trkpt>
      <trkpt lat="59.112904071807861" lon="30.482146739959717">
        <time>2026-08-20T05:25:57Z</time>
      </trkpt>
      <trkpt lat="59.112904071807861" lon="30.482146739959717">
        <time>2026-08-20T05:25:59Z</time>
      </trkpt>
      <trkpt lat="59.112904071807861" lon="30.482146739959717">
        <time>2026-08-20T05:26:02Z</time>
      </trkpt>
      <trkpt lat="59.112904071807861" lon="30.482125282287598">
        <time>2026-08-20T05:26:04Z</time>
      </trkpt>
      <trkpt lat="59.11292552947998" lon="30.482146739959717">
        <time>2026-08-20T05:26:07Z</time>
      </trkpt>
      <trkpt lat="59.11292552947998" lon="30.482168197631836">
        <time>2026-08-20T05:26:09Z</time>
      </trkpt>
      <trkpt lat="59.112904071807861" lon="30.482146739959717">
        <time>2026-08-20T05:26:12Z</time>
      </trkpt>
      <trkpt lat="59.112904071807861" lon="30.482168197631836">
        <time>2026-08-20T05:26:14Z</time>
      </trkpt>
      <trkpt lat="59.112882614135742" lon="30.482189655303955">
        <time>2026-08-20T05:26:17Z</time>
      </trkpt>
      <trkpt lat="59.112882614135742" lon="30.482189655303955">
        <time>2026-08-20T05:26:19Z</time>
      </trkpt>
      <trkpt lat="59.112882614135742" lon="30.482189655303955">
        <time>2026-08-20T05:26:22Z</time>
      </trkpt>
      <trkpt lat="59.112882614135742" lon="30.482189655303955">
        <time>2026-08-20T05:26:24Z</time>
      </trkpt>
      <trkpt lat="59.112882614135742" lon="30.482189655303955">
        <time>2026-08-20T05:26:27Z</time>
      </trkpt>
      <trkpt lat="59.112882614135742" lon="30.482189655303955">
        <time>2026-08-20T05:26:29Z</time>
      </trkpt>
      <trkpt lat="59.112882614135742" lon="30.482189655303955">
        <time>2026-08-20T05:26:32Z</time>
      </trkpt>
      <trkpt lat="59.112882614135742" lon="30.482189655303955">
        <time>2026-08-20T05:26:34Z</time>
      </trkpt>
      <trkpt lat="59.112882614135742" lon="30.482189655303955">
        <time>2026-08-20T05:26:37Z</time>
      </trkpt>
      <trkpt lat="59.112882614135742" lon="30.482189655303955">
        <time>2026-08-20T05:26:39Z</time>
      </trkpt>
      <trkpt lat="59.112882614135742" lon="30.482189655303955">
        <time>2026-08-20T05:26:42Z</time>
      </trkpt>
      <trkpt lat="59.112904071807861" lon="30.482168197631836">
        <time>2026-08-20T05:26:44Z</time>
      </trkpt>
      <trkpt lat="59.112904071807861" lon="30.482168197631836">
        <time>2026-08-20T05:26:47Z</time>
      </trkpt>
      <trkpt lat="59.112904071807861" lon="30.482168197631836">
        <time>2026-08-20T05:26:49Z</time>
      </trkpt>
      <trkpt lat="59.112904071807861" lon="30.482168197631836">
        <time>2026-08-20T05:26:52Z</time>
      </trkpt>
      <trkpt lat="59.112904071807861" lon="30.482168197631836">
        <time>2026-08-20T05:26:54Z</time>
      </trkpt>
      <trkpt lat="59.112904071807861" lon="30.482168197631836">
        <time>2026-08-20T05:26:57Z</time>
      </trkpt>
      <trkpt lat="59.112904071807861" lon="30.482168197631836">
        <time>2026-08-20T05:26:59Z</time>
      </trkpt>
      <trkpt lat="59.112904071807861" lon="30.482168197631836">
        <time>2026-08-20T05:27:02Z</time>
      </trkpt>
      <trkpt lat="59.112904071807861" lon="30.482168197631836">
        <time>2026-08-20T05:27:04Z</time>
      </trkpt>
      <trkpt lat="59.112904071807861" lon="30.482168197631836">
        <time>2026-08-20T05:27:07Z</time>
      </trkpt>
      <trkpt lat="59.112904071807861" lon="30.482168197631836">
        <time>2026-08-20T05:27:09Z</time>
      </trkpt>
      <trkpt lat="59.112904071807861" lon="30.482168197631836">
        <time>2026-08-20T05:27:12Z</time>
      </trkpt>
      <trkpt lat="59.112904071807861" lon="30.482168197631836">
        <time>2026-08-20T05:27:14Z</time>
      </trkpt>
      <trkpt lat="59.112904071807861" lon="30.482168197631836">
        <time>2026-08-20T05:27:17Z</time>
      </trkpt>
      <trkpt lat="59.112904071807861" lon="30.482168197631836">
        <time>2026-08-20T05:27:19Z</time>
      </trkpt>
      <trkpt lat="59.112904071807861" lon="30.482168197631836">
        <time>2026-08-20T05:27:22Z</time>
      </trkpt>
      <trkpt lat="59.112904071807861" lon="30.482146739959717">
        <time>2026-08-20T05:27:24Z</time>
      </trkpt>
      <trkpt lat="59.112904071807861" lon="30.482146739959717">
        <time>2026-08-20T05:27:27Z</time>
      </trkpt>
      <trkpt lat="59.112904071807861" lon="30.482146739959717">
        <time>2026-08-20T05:27:29Z</time>
      </trkpt>
      <trkpt lat="59.112904071807861" lon="30.482146739959717">
        <time>2026-08-20T05:27:32Z</time>
      </trkpt>
      <trkpt lat="59.112904071807861" lon="30.482146739959717">
        <time>2026-08-20T05:27:34Z</time>
      </trkpt>
      <trkpt lat="59.112904071807861" lon="30.482146739959717">
        <time>2026-08-20T05:27:37Z</time>
      </trkpt>
      <trkpt lat="59.112904071807861" lon="30.482146739959717">
        <time>2026-08-20T05:27:39Z</time>
      </trkpt>
      <trkpt lat="59.112904071807861" lon="30.482146739959717">
        <time>2026-08-20T05:27:42Z</time>
      </trkpt>
      <trkpt lat="59.112904071807861" lon="30.482146739959717">
        <time>2026-08-20T05:27:44Z</time>
      </trkpt>
      <trkpt lat="59.112904071807861" lon="30.482146739959717">
        <time>2026-08-20T05:27:47Z</time>
      </trkpt>
      <trkpt lat="59.112904071807861" lon="30.482125282287598">
        <time>2026-08-20T05:27:49Z</time>
      </trkpt>
      <trkpt lat="59.112904071807861" lon="30.482125282287598">
        <time>2026-08-20T05:27:52Z</time>
      </trkpt>
      <trkpt lat="59.112904071807861" lon="30.482125282287598">
        <time>2026-08-20T05:27:54Z</time>
      </trkpt>
      <trkpt lat="59.112904071807861" lon="30.482125282287598">
        <time>2026-08-20T05:27:57Z</time>
      </trkpt>
      <trkpt lat="59.112904071807861" lon="30.482125282287598">
        <time>2026-08-20T05:27:59Z</time>
      </trkpt>
      <trkpt lat="59.112904071807861" lon="30.482125282287598">
        <time>2026-08-20T05:28:02Z</time>
      </trkpt>
      <trkpt lat="59.112904071807861" lon="30.482125282287598">
        <time>2026-08-20T05:28:04Z</time>
      </trkpt>
      <trkpt lat="59.112882614135742" lon="30.482125282287598">
        <time>2026-08-20T05:28:07Z</time>
      </trkpt>
      <trkpt lat="59.112882614135742" lon="30.482125282287598">
        <time>2026-08-20T05:28:09Z</time>
      </trkpt>
      <trkpt lat="59.112882614135742" lon="30.482125282287598">
        <time>2026-08-20T05:28:12Z</time>
      </trkpt>
      <trkpt lat="59.112882614135742" lon="30.482125282287598">
        <time>2026-08-20T05:28:14Z</time>
      </trkpt>
      <trkpt lat="59.112882614135742" lon="30.482125282287598">
        <time>2026-08-20T05:28:17Z</time>
      </trkpt>
      <trkpt lat="59.112882614135742" lon="30.482125282287598">
        <time>2026-08-20T05:28:19Z</time>
      </trkpt>
      <trkpt lat="59.112882614135742" lon="30.482125282287598">
        <time>2026-08-20T05:28:22Z</time>
      </trkpt>
      <trkpt lat="59.112882614135742" lon="30.482125282287598">
        <time>2026-08-20T05:28:24Z</time>
      </trkpt>
      <trkpt lat="59.112882614135742" lon="30.482125282287598">
        <time>2026-08-20T05:28:27Z</time>
      </trkpt>
      <trkpt lat="59.112882614135742" lon="30.482125282287598">
        <time>2026-08-20T05:28:29Z</time>
      </trkpt>
      <trkpt lat="59.112882614135742" lon="30.482125282287598">
        <time>2026-08-20T05:28:32Z</time>
      </trkpt>
      <trkpt lat="59.112882614135742" lon="30.482125282287598">
        <time>2026-08-20T05:28:34Z</time>
      </trkpt>
      <trkpt lat="59.112882614135742" lon="30.482125282287598">
        <time>2026-08-20T05:28:37Z</time>
      </trkpt>
      <trkpt lat="59.112882614135742" lon="30.482125282287598">
        <time>2026-08-20T05:28:39Z</time>
      </trkpt>
      <trkpt lat="59.112882614135742" lon="30.482125282287598">
        <time>2026-08-20T05:28:42Z</time>
      </trkpt>
      <trkpt lat="59.112882614135742" lon="30.482125282287598">
        <time>2026-08-20T05:28:44Z</time>
      </trkpt>
      <trkpt lat="59.112882614135742" lon="30.482125282287598">
        <time>2026-08-20T05:28:47Z</time>
      </trkpt>
      <trkpt lat="59.112882614135742" lon="30.482125282287598">
        <time>2026-08-20T05:28:49Z</time>
      </trkpt>
      <trkpt lat="59.112882614135742" lon="30.482125282287598">
        <time>2026-08-20T05:28:52Z</time>
      </trkpt>
      <trkpt lat="59.112882614135742" lon="30.482125282287598">
        <time>2026-08-20T05:28:54Z</time>
      </trkpt>
      <trkpt lat="59.112882614135742" lon="30.482125282287598">
        <time>2026-08-20T05:28:57Z</time>
      </trkpt>
      <trkpt lat="59.112904071807861" lon="30.482146739959717">
        <time>2026-08-20T05:28:59Z</time>
      </trkpt>
      <trkpt lat="59.112904071807861" lon="30.482146739959717">
        <time>2026-08-20T05:29:02Z</time>
      </trkpt>
      <trkpt lat="59.112904071807861" lon="30.482146739959717">
        <time>2026-08-20T05:29:04Z</time>
      </trkpt>
      <trkpt lat="59.112904071807861" lon="30.482125282287598">
        <time>2026-08-20T05:29:07Z</time>
      </trkpt>
      <trkpt lat="59.112904071807861" lon="30.482125282287598">
        <time>2026-08-20T05:29:09Z</time>
      </trkpt>
      <trkpt lat="59.112904071807861" lon="30.482125282287598">
        <time>2026-08-20T05:29:12Z</time>
      </trkpt>
      <trkpt lat="59.112904071807861" lon="30.482125282287598">
        <time>2026-08-20T05:29:14Z</time>
      </trkpt>
      <trkpt lat="59.112904071807861" lon="30.482125282287598">
        <time>2026-08-20T05:29:17Z</time>
      </trkpt>
      <trkpt lat="59.112904071807861" lon="30.482189655303955">
        <time>2026-08-20T05:29:19Z</time>
      </trkpt>
      <trkpt lat="59.112904071807861" lon="30.482232570648193">
        <time>2026-08-20T05:29:22Z</time>
      </trkpt>
      <trkpt lat="59.11292552947998" lon="30.482339859008789">
        <time>2026-08-20T05:29:24Z</time>
      </trkpt>
      <trkpt lat="59.1129469871521" lon="30.482447147369385">
        <time>2026-08-20T05:29:27Z</time>
      </trkpt>
      <trkpt lat="59.1129469871521" lon="30.482532978057861">
        <time>2026-08-20T05:29:29Z</time>
      </trkpt>
      <trkpt lat="59.11292552947998" lon="30.48255443572998">
        <time>2026-08-20T05:29:32Z</time>
      </trkpt>
      <trkpt lat="59.11292552947998" lon="30.4825758934021">
        <time>2026-08-20T05:29:34Z</time>
      </trkpt>
      <trkpt lat="59.1129469871521" lon="30.482532978057861">
        <time>2026-08-20T05:29:37Z</time>
      </trkpt>
      <trkpt lat="59.112968444824219" lon="30.48255443572998">
        <time>2026-08-20T05:29:39Z</time>
      </trkpt>
      <trkpt lat="59.112989902496338" lon="30.482597351074219">
        <time>2026-08-20T05:29:42Z</time>
      </trkpt>
      <trkpt lat="59.113011360168457" lon="30.482661724090576">
        <time>2026-08-20T05:29:44Z</time>
      </trkpt>
      <trkpt lat="59.113011360168457" lon="30.482661724090576">
        <time>2026-08-20T05:29:47Z</time>
      </trkpt>
      <trkpt lat="59.113032817840576" lon="30.482683181762695">
        <time>2026-08-20T05:29:49Z</time>
      </trkpt>
      <trkpt lat="59.113075733184814" lon="30.482747554779053">
        <time>2026-08-20T05:29:52Z</time>
      </trkpt>
      <trkpt lat="59.113097190856934" lon="30.482790470123291">
        <time>2026-08-20T05:29:54Z</time>
      </trkpt>
      <trkpt lat="59.113118648529053" lon="30.48281192779541">
        <time>2026-08-20T05:29:57Z</time>
      </trkpt>
      <trkpt lat="59.113161563873291" lon="30.482919216156006">
        <time>2026-08-20T05:29:59Z</time>
      </trkpt>
      <trkpt lat="59.11318302154541" lon="30.482962131500244">
        <time>2026-08-20T05:30:02Z</time>
      </trkpt>
      <trkpt lat="59.113161563873291" lon="30.483026504516602">
        <time>2026-08-20T05:30:04Z</time>
      </trkpt>
      <trkpt lat="59.11318302154541" lon="30.483047962188721">
        <time>2026-08-20T05:30:07Z</time>
      </trkpt>
      <trkpt lat="59.11318302154541" lon="30.48306941986084">
        <time>2026-08-20T05:30:09Z</time>
      </trkpt>
      <trkpt lat="59.11318302154541" lon="30.48306941986084">
        <time>2026-08-20T05:30:12Z</time>
      </trkpt>
      <trkpt lat="59.11318302154541" lon="30.482983589172363">
        <time>2026-08-20T05:30:14Z</time>
      </trkpt>
      <trkpt lat="59.113161563873291" lon="30.482940673828125">
        <time>2026-08-20T05:30:17Z</time>
      </trkpt>
      <trkpt lat="59.113161563873291" lon="30.482919216156006">
        <time>2026-08-20T05:30:19Z</time>
      </trkpt>
      <trkpt lat="59.113161563873291" lon="30.482919216156006">
        <time>2026-08-20T05:30:22Z</time>
      </trkpt>
      <trkpt lat="59.11318302154541" lon="30.482940673828125">
        <time>2026-08-20T05:30:24Z</time>
      </trkpt>
      <trkpt lat="59.113204479217529" lon="30.482962131500244">
        <time>2026-08-20T05:30:27Z</time>
      </trkpt>
      <trkpt lat="59.113204479217529" lon="30.483133792877197">
        <time>2026-08-20T05:30:29Z</time>
      </trkpt>
      <trkpt lat="59.113204479217529" lon="30.483198165893555">
        <time>2026-08-20T05:30:32Z</time>
      </trkpt>
      <trkpt lat="59.113204479217529" lon="30.483176708221436">
        <time>2026-08-20T05:30:34Z</time>
      </trkpt>
      <trkpt lat="59.11318302154541" lon="30.48306941986084">
        <time>2026-08-20T05:30:37Z</time>
      </trkpt>
      <trkpt lat="59.11318302154541" lon="30.482983589172363">
        <time>2026-08-20T05:30:39Z</time>
      </trkpt>
      <trkpt lat="59.11318302154541" lon="30.483026504516602">
        <time>2026-08-20T05:30:42Z</time>
      </trkpt>
      <trkpt lat="59.11318302154541" lon="30.483198165893555">
        <time>2026-08-20T05:30:44Z</time>
      </trkpt>
      <trkpt lat="59.11318302154541" lon="30.483262538909912">
        <time>2026-08-20T05:30:47Z</time>
      </trkpt>
      <trkpt lat="59.11318302154541" lon="30.483283996582031">
        <time>2026-08-20T05:30:49Z</time>
      </trkpt>
      <trkpt lat="59.11318302154541" lon="30.483283996582031">
        <time>2026-08-20T05:30:52Z</time>
      </trkpt>
      <trkpt lat="59.11318302154541" lon="30.48332691192627">
        <time>2026-08-20T05:30:54Z</time>
      </trkpt>
      <trkpt lat="59.11318302154541" lon="30.483348369598389">
        <time>2026-08-20T05:30:57Z</time>
      </trkpt>
      <trkpt lat="59.11318302154541" lon="30.483412742614746">
        <time>2026-08-20T05:30:59Z</time>
      </trkpt>
      <trkpt lat="59.113204479217529" lon="30.483477115631104">
        <time>2026-08-20T05:31:02Z</time>
      </trkpt>
      <trkpt lat="59.113204479217529" lon="30.483584403991699">
        <time>2026-08-20T05:31:04Z</time>
      </trkpt>
      <trkpt lat="59.113204479217529" lon="30.483648777008057">
        <time>2026-08-20T05:31:07Z</time>
      </trkpt>
      <trkpt lat="59.113225936889648" lon="30.483734607696533">
        <time>2026-08-20T05:31:09Z</time>
      </trkpt>
      <trkpt lat="59.113225936889648" lon="30.483734607696533">
        <time>2026-08-20T05:31:12Z</time>
      </trkpt>
      <trkpt lat="59.113225936889648" lon="30.483798980712891">
        <time>2026-08-20T05:31:14Z</time>
      </trkpt>
      <trkpt lat="59.113225936889648" lon="30.483906269073486">
        <time>2026-08-20T05:31:17Z</time>
      </trkpt>
      <trkpt lat="59.113225936889648" lon="30.483992099761963">
        <time>2026-08-20T05:31:19Z</time>
      </trkpt>
      <trkpt lat="59.113247394561768" lon="30.484035015106201">
        <time>2026-08-20T05:31:22Z</time>
      </trkpt>
      <trkpt lat="59.113247394561768" lon="30.484120845794678">
        <time>2026-08-20T05:31:24Z</time>
      </trkpt>
      <trkpt lat="59.113247394561768" lon="30.484142303466797">
        <time>2026-08-20T05:31:27Z</time>
      </trkpt>
      <trkpt lat="59.113247394561768" lon="30.484142303466797">
        <time>2026-08-20T05:31:29Z</time>
      </trkpt>
      <trkpt lat="59.113247394561768" lon="30.484142303466797">
        <time>2026-08-20T05:31:32Z</time>
      </trkpt>
      <trkpt lat="59.113247394561768" lon="30.484142303466797">
        <time>2026-08-20T05:31:34Z</time>
      </trkpt>
      <trkpt lat="59.113268852233887" lon="30.484163761138916">
        <time>2026-08-20T05:31:37Z</time>
      </trkpt>
      <trkpt lat="59.113290309906006" lon="30.484292507171631">
        <time>2026-08-20T05:31:39Z</time>
      </trkpt>
      <trkpt lat="59.113290309906006" lon="30.484356880187988">
        <time>2026-08-20T05:31:42Z</time>
      </trkpt>
      <trkpt lat="59.113290309906006" lon="30.484335422515869">
        <time>2026-08-20T05:31:44Z</time>
      </trkpt>
      <trkpt lat="59.113268852233887" lon="30.484421253204346">
        <time>2026-08-20T05:31:47Z</time>
      </trkpt>
      <trkpt lat="59.113290309906006" lon="30.484485626220703">
        <time>2026-08-20T05:31:49Z</time>
      </trkpt>
      <trkpt lat="59.113290309906006" lon="30.484507083892822">
        <time>2026-08-20T05:31:52Z</time>
      </trkpt>
      <trkpt lat="59.113290309906006" lon="30.484592914581299">
        <time>2026-08-20T05:31:54Z</time>
      </trkpt>
      <trkpt lat="59.113290309906006" lon="30.484614372253418">
        <time>2026-08-20T05:31:57Z</time>
      </trkpt>
      <trkpt lat="59.113311767578125" lon="30.484764575958252">
        <time>2026-08-20T05:31:59Z</time>
      </trkpt>
      <trkpt lat="59.113311767578125" lon="30.484850406646729">
        <time>2026-08-20T05:32:02Z</time>
      </trkpt>
      <trkpt lat="59.113311767578125" lon="30.484957695007324">
        <time>2026-08-20T05:32:04Z</time>
      </trkpt>
      <trkpt lat="59.113311767578125" lon="30.485000610351563">
        <time>2026-08-20T05:32:07Z</time>
      </trkpt>
      <trkpt lat="59.113333225250244" lon="30.485043525695801">
        <time>2026-08-20T05:32:09Z</time>
      </trkpt>
      <trkpt lat="59.113333225250244" lon="30.485107898712158">
        <time>2026-08-20T05:32:12Z</time>
      </trkpt>
      <trkpt lat="59.113333225250244" lon="30.485258102416992">
        <time>2026-08-20T05:32:14Z</time>
      </trkpt>
      <trkpt lat="59.113354682922363" lon="30.48530101776123">
        <time>2026-08-20T05:32:17Z</time>
      </trkpt>
      <trkpt lat="59.113333225250244" lon="30.48532247543335">
        <time>2026-08-20T05:32:19Z</time>
      </trkpt>
      <trkpt lat="59.113333225250244" lon="30.48532247543335">
        <time>2026-08-20T05:32:22Z</time>
      </trkpt>
      <trkpt lat="59.113333225250244" lon="30.48532247543335">
        <time>2026-08-20T05:32:24Z</time>
      </trkpt>
      <trkpt lat="59.113333225250244" lon="30.48532247543335">
        <time>2026-08-20T05:32:27Z</time>
      </trkpt>
      <trkpt lat="59.113333225250244" lon="30.48532247543335">
        <time>2026-08-20T05:32:29Z</time>
      </trkpt>
      <trkpt lat="59.113333225250244" lon="30.48532247543335">
        <time>2026-08-20T05:32:32Z</time>
      </trkpt>
      <trkpt lat="59.113311767578125" lon="30.485172271728516">
        <time>2026-08-20T05:32:34Z</time>
      </trkpt>
      <trkpt lat="59.113290309906006" lon="30.485129356384277">
        <time>2026-08-20T05:32:37Z</time>
      </trkpt>
      <trkpt lat="59.113290309906006" lon="30.485129356384277">
        <time>2026-08-20T05:32:39Z</time>
      </trkpt>
      <trkpt lat="59.113290309906006" lon="30.485129356384277">
        <time>2026-08-20T05:32:42Z</time>
      </trkpt>
      <trkpt lat="59.113290309906006" lon="30.485129356384277">
        <time>2026-08-20T05:32:44Z</time>
      </trkpt>
      <trkpt lat="59.113290309906006" lon="30.485129356384277">
        <time>2026-08-20T05:32:47Z</time>
      </trkpt>
      <trkpt lat="59.113290309906006" lon="30.485129356384277">
        <time>2026-08-20T05:32:49Z</time>
      </trkpt>
      <trkpt lat="59.113290309906006" lon="30.485129356384277">
        <time>2026-08-20T05:32:52Z</time>
      </trkpt>
      <trkpt lat="59.113290309906006" lon="30.485129356384277">
        <time>2026-08-20T05:32:54Z</time>
      </trkpt>
      <trkpt lat="59.113290309906006" lon="30.485129356384277">
        <time>2026-08-20T05:32:57Z</time>
      </trkpt>
      <trkpt lat="59.113290309906006" lon="30.485129356384277">
        <time>2026-08-20T05:32:59Z</time>
      </trkpt>
      <trkpt lat="59.113290309906006" lon="30.485129356384277">
        <time>2026-08-20T05:33:02Z</time>
      </trkpt>
      <trkpt lat="59.113290309906006" lon="30.485129356384277">
        <time>2026-08-20T05:33:04Z</time>
      </trkpt>
      <trkpt lat="59.113290309906006" lon="30.485129356384277">
        <time>2026-08-20T05:33:07Z</time>
      </trkpt>
      <trkpt lat="59.113290309906006" lon="30.485129356384277">
        <time>2026-08-20T05:33:09Z</time>
      </trkpt>
      <trkpt lat="59.113290309906006" lon="30.485129356384277">
        <time>2026-08-20T05:33:12Z</time>
      </trkpt>
      <trkpt lat="59.113290309906006" lon="30.485129356384277">
        <time>2026-08-20T05:33:14Z</time>
      </trkpt>
      <trkpt lat="59.113290309906006" lon="30.485150814056396">
        <time>2026-08-20T05:33:17Z</time>
      </trkpt>
      <trkpt lat="59.113311767578125" lon="30.485215187072754">
        <time>2026-08-20T05:33:19Z</time>
      </trkpt>
      <trkpt lat="59.113311767578125" lon="30.485215187072754">
        <time>2026-08-20T05:33:22Z</time>
      </trkpt>
      <trkpt lat="59.113333225250244" lon="30.485343933105469">
        <time>2026-08-20T05:33:24Z</time>
      </trkpt>
      <trkpt lat="59.113333225250244" lon="30.485386848449707">
        <time>2026-08-20T05:33:27Z</time>
      </trkpt>
      <trkpt lat="59.113333225250244" lon="30.485386848449707">
        <time>2026-08-20T05:33:29Z</time>
      </trkpt>
      <trkpt lat="59.113333225250244" lon="30.485451221466064">
        <time>2026-08-20T05:33:32Z</time>
      </trkpt>
      <trkpt lat="59.113333225250244" lon="30.485515594482422">
        <time>2026-08-20T05:33:34Z</time>
      </trkpt>
      <trkpt lat="59.113333225250244" lon="30.485537052154541">
        <time>2026-08-20T05:33:37Z</time>
      </trkpt>
      <trkpt lat="59.113333225250244" lon="30.485601425170898">
        <time>2026-08-20T05:33:39Z</time>
      </trkpt>
      <trkpt lat="59.113354682922363" lon="30.485665798187256">
        <time>2026-08-20T05:33:42Z</time>
      </trkpt>
      <trkpt lat="59.113354682922363" lon="30.485773086547852">
        <time>2026-08-20T05:33:44Z</time>
      </trkpt>
      <trkpt lat="59.113354682922363" lon="30.485794544219971">
        <time>2026-08-20T05:33:47Z</time>
      </trkpt>
      <trkpt lat="59.113354682922363" lon="30.485880374908447">
        <time>2026-08-20T05:33:49Z</time>
      </trkpt>
      <trkpt lat="59.113354682922363" lon="30.485944747924805">
        <time>2026-08-20T05:33:52Z</time>
      </trkpt>
      <trkpt lat="59.113354682922363" lon="30.485944747924805">
        <time>2026-08-20T05:33:54Z</time>
      </trkpt>
      <trkpt lat="59.113354682922363" lon="30.485966205596924">
        <time>2026-08-20T05:33:57Z</time>
      </trkpt>
      <trkpt lat="59.113354682922363" lon="30.485987663269043">
        <time>2026-08-20T05:33:59Z</time>
      </trkpt>
      <trkpt lat="59.113354682922363" lon="30.485944747924805">
        <time>2026-08-20T05:34:02Z</time>
      </trkpt>
      <trkpt lat="59.113354682922363" lon="30.485987663269043">
        <time>2026-08-20T05:34:04Z</time>
      </trkpt>
      <trkpt lat="59.113354682922363" lon="30.486030578613281">
        <time>2026-08-20T05:34:07Z</time>
      </trkpt>
      <trkpt lat="59.113376140594482" lon="30.486137866973877">
        <time>2026-08-20T05:34:09Z</time>
      </trkpt>
      <trkpt lat="59.113376140594482" lon="30.486159324645996">
        <time>2026-08-20T05:34:12Z</time>
      </trkpt>
      <trkpt lat="59.113354682922363" lon="30.486223697662354">
        <time>2026-08-20T05:34:14Z</time>
      </trkpt>
      <trkpt lat="59.113376140594482" lon="30.486266613006592">
        <time>2026-08-20T05:34:17Z</time>
      </trkpt>
      <trkpt lat="59.113376140594482" lon="30.48630952835083">
        <time>2026-08-20T05:34:19Z</time>
      </trkpt>
      <trkpt lat="59.113376140594482" lon="30.486330986022949">
        <time>2026-08-20T05:34:22Z</time>
      </trkpt>
      <trkpt lat="59.113376140594482" lon="30.486416816711426">
        <time>2026-08-20T05:34:24Z</time>
      </trkpt>
      <trkpt lat="59.113376140594482" lon="30.486459732055664">
        <time>2026-08-20T05:34:27Z</time>
      </trkpt>
      <trkpt lat="59.113376140594482" lon="30.486481189727783">
        <time>2026-08-20T05:34:29Z</time>
      </trkpt>
      <trkpt lat="59.113376140594482" lon="30.486545562744141">
        <time>2026-08-20T05:34:32Z</time>
      </trkpt>
      <trkpt lat="59.113376140594482" lon="30.486609935760498">
        <time>2026-08-20T05:34:34Z</time>
      </trkpt>
      <trkpt lat="59.113376140594482" lon="30.486652851104736">
        <time>2026-08-20T05:34:37Z</time>
      </trkpt>
      <trkpt lat="59.113376140594482" lon="30.486695766448975">
        <time>2026-08-20T05:34:39Z</time>
      </trkpt>
      <trkpt lat="59.113397598266602" lon="30.486738681793213">
        <time>2026-08-20T05:34:42Z</time>
      </trkpt>
      <trkpt lat="59.113397598266602" lon="30.48680305480957">
        <time>2026-08-20T05:34:44Z</time>
      </trkpt>
      <trkpt lat="59.113397598266602" lon="30.486845970153809">
        <time>2026-08-20T05:34:47Z</time>
      </trkpt>
      <trkpt lat="59.113419055938721" lon="30.486910343170166">
        <time>2026-08-20T05:34:49Z</time>
      </trkpt>
      <trkpt lat="59.113419055938721" lon="30.486931800842285">
        <time>2026-08-20T05:34:52Z</time>
      </trkpt>
      <trkpt lat="59.113419055938721" lon="30.486974716186523">
        <time>2026-08-20T05:34:54Z</time>
      </trkpt>
      <trkpt lat="59.113419055938721" lon="30.486974716186523">
        <time>2026-08-20T05:34:57Z</time>
      </trkpt>
      <trkpt lat="59.113419055938721" lon="30.486974716186523">
        <time>2026-08-20T05:34:59Z</time>
      </trkpt>
      <trkpt lat="59.113419055938721" lon="30.486996173858643">
        <time>2026-08-20T05:35:02Z</time>
      </trkpt>
      <trkpt lat="59.113419055938721" lon="30.487124919891357">
        <time>2026-08-20T05:35:04Z</time>
      </trkpt>
      <trkpt lat="59.113419055938721" lon="30.487189292907715">
        <time>2026-08-20T05:35:07Z</time>
      </trkpt>
      <trkpt lat="59.113419055938721" lon="30.487253665924072">
        <time>2026-08-20T05:35:09Z</time>
      </trkpt>
      <trkpt lat="59.113419055938721" lon="30.487253665924072">
        <time>2026-08-20T05:35:12Z</time>
      </trkpt>
      <trkpt lat="59.113419055938721" lon="30.487275123596191">
        <time>2026-08-20T05:35:14Z</time>
      </trkpt>
      <trkpt lat="59.113419055938721" lon="30.487275123596191">
        <time>2026-08-20T05:35:17Z</time>
      </trkpt>
      <trkpt lat="59.11344051361084" lon="30.487339496612549">
        <time>2026-08-20T05:35:19Z</time>
      </trkpt>
      <trkpt lat="59.113419055938721" lon="30.487360954284668">
        <time>2026-08-20T05:35:22Z</time>
      </trkpt>
      <trkpt lat="59.11344051361084" lon="30.487425327301025">
        <time>2026-08-20T05:35:24Z</time>
      </trkpt>
      <trkpt lat="59.11344051361084" lon="30.487446784973145">
        <time>2026-08-20T05:35:27Z</time>
      </trkpt>
      <trkpt lat="59.11344051361084" lon="30.487489700317383">
        <time>2026-08-20T05:35:29Z</time>
      </trkpt>
      <trkpt lat="59.11344051361084" lon="30.48755407333374">
        <time>2026-08-20T05:35:32Z</time>
      </trkpt>
      <trkpt lat="59.113461971282959" lon="30.487661361694336">
        <time>2026-08-20T05:35:34Z</time>
      </trkpt>
      <trkpt lat="59.113461971282959" lon="30.487682819366455">
        <time>2026-08-20T05:35:37Z</time>
      </trkpt>
      <trkpt lat="59.113461971282959" lon="30.487747192382813">
        <time>2026-08-20T05:35:39Z</time>
      </trkpt>
      <trkpt lat="59.113461971282959" lon="30.487790107727051">
        <time>2026-08-20T05:35:42Z</time>
      </trkpt>
      <trkpt lat="59.113483428955078" lon="30.487940311431885">
        <time>2026-08-20T05:35:44Z</time>
      </trkpt>
      <trkpt lat="59.113504886627197" lon="30.487983226776123">
        <time>2026-08-20T05:35:47Z</time>
      </trkpt>
      <trkpt lat="59.113504886627197" lon="30.4880690574646">
        <time>2026-08-20T05:35:49Z</time>
      </trkpt>
      <trkpt lat="59.113526344299316" lon="30.488090515136719">
        <time>2026-08-20T05:35:52Z</time>
      </trkpt>
      <trkpt lat="59.113526344299316" lon="30.488154888153076">
        <time>2026-08-20T05:35:54Z</time>
      </trkpt>
      <trkpt lat="59.113526344299316" lon="30.488219261169434">
        <time>2026-08-20T05:35:57Z</time>
      </trkpt>
      <trkpt lat="59.113504886627197" lon="30.488283634185791">
        <time>2026-08-20T05:35:59Z</time>
      </trkpt>
      <trkpt lat="59.113504886627197" lon="30.488283634185791">
        <time>2026-08-20T05:36:02Z</time>
      </trkpt>
      <trkpt lat="59.113526344299316" lon="30.48830509185791">
        <time>2026-08-20T05:36:04Z</time>
      </trkpt>
      <trkpt lat="59.113526344299316" lon="30.488348007202148">
        <time>2026-08-20T05:36:07Z</time>
      </trkpt>
      <trkpt lat="59.113526344299316" lon="30.488412380218506">
        <time>2026-08-20T05:36:09Z</time>
      </trkpt>
      <trkpt lat="59.113547801971436" lon="30.488476753234863">
        <time>2026-08-20T05:36:12Z</time>
      </trkpt>
      <trkpt lat="59.113547801971436" lon="30.488519668579102">
        <time>2026-08-20T05:36:14Z</time>
      </trkpt>
      <trkpt lat="59.113547801971436" lon="30.488605499267578">
        <time>2026-08-20T05:36:17Z</time>
      </trkpt>
      <trkpt lat="59.113547801971436" lon="30.488669872283936">
        <time>2026-08-20T05:36:19Z</time>
      </trkpt>
      <trkpt lat="59.113547801971436" lon="30.488669872283936">
        <time>2026-08-20T05:36:22Z</time>
      </trkpt>
      <trkpt lat="59.113569259643555" lon="30.488669872283936">
        <time>2026-08-20T05:36:24Z</time>
      </trkpt>
      <trkpt lat="59.113569259643555" lon="30.488669872283936">
        <time>2026-08-20T05:36:27Z</time>
      </trkpt>
      <trkpt lat="59.113569259643555" lon="30.488669872283936">
        <time>2026-08-20T05:36:29Z</time>
      </trkpt>
      <trkpt lat="59.113569259643555" lon="30.488669872283936">
        <time>2026-08-20T05:36:32Z</time>
      </trkpt>
      <trkpt lat="59.113569259643555" lon="30.488669872283936">
        <time>2026-08-20T05:36:34Z</time>
      </trkpt>
      <trkpt lat="59.113569259643555" lon="30.488669872283936">
        <time>2026-08-20T05:36:37Z</time>
      </trkpt>
      <trkpt lat="59.113569259643555" lon="30.488669872283936">
        <time>2026-08-20T05:36:39Z</time>
      </trkpt>
      <trkpt lat="59.113569259643555" lon="30.488669872283936">
        <time>2026-08-20T05:36:42Z</time>
      </trkpt>
      <trkpt lat="59.113547801971436" lon="30.488669872283936">
        <time>2026-08-20T05:36:44Z</time>
      </trkpt>
      <trkpt lat="59.113547801971436" lon="30.488669872283936">
        <time>2026-08-20T05:36:47Z</time>
      </trkpt>
      <trkpt lat="59.113547801971436" lon="30.488691329956055">
        <time>2026-08-20T05:36:49Z</time>
      </trkpt>
      <trkpt lat="59.113526344299316" lon="30.488734245300293">
        <time>2026-08-20T05:36:52Z</time>
      </trkpt>
      <trkpt lat="59.113526344299316" lon="30.488734245300293">
        <time>2026-08-20T05:36:54Z</time>
      </trkpt>
      <trkpt lat="59.113526344299316" lon="30.488734245300293">
        <time>2026-08-20T05:36:57Z</time>
      </trkpt>
      <trkpt lat="59.113526344299316" lon="30.488734245300293">
        <time>2026-08-20T05:36:59Z</time>
      </trkpt>
      <trkpt lat="59.113526344299316" lon="30.488734245300293">
        <time>2026-08-20T05:37:02Z</time>
      </trkpt>
      <trkpt lat="59.113526344299316" lon="30.488734245300293">
        <time>2026-08-20T05:37:04Z</time>
      </trkpt>
      <trkpt lat="59.113526344299316" lon="30.488712787628174">
        <time>2026-08-20T05:37:07Z</time>
      </trkpt>
      <trkpt lat="59.113526344299316" lon="30.488626956939697">
        <time>2026-08-20T05:37:09Z</time>
      </trkpt>
      <trkpt lat="59.113526344299316" lon="30.488626956939697">
        <time>2026-08-20T05:37:12Z</time>
      </trkpt>
      <trkpt lat="59.113526344299316" lon="30.488626956939697">
        <time>2026-08-20T05:37:14Z</time>
      </trkpt>
      <trkpt lat="59.113526344299316" lon="30.488605499267578">
        <time>2026-08-20T05:37:17Z</time>
      </trkpt>
      <trkpt lat="59.113547801971436" lon="30.488605499267578">
        <time>2026-08-20T05:37:19Z</time>
      </trkpt>
      <trkpt lat="59.113547801971436" lon="30.488605499267578">
        <time>2026-08-20T05:37:22Z</time>
      </trkpt>
      <trkpt lat="59.113547801971436" lon="30.488669872283936">
        <time>2026-08-20T05:37:24Z</time>
      </trkpt>
      <trkpt lat="59.113547801971436" lon="30.488669872283936">
        <time>2026-08-20T05:37:27Z</time>
      </trkpt>
      <trkpt lat="59.113547801971436" lon="30.488691329956055">
        <time>2026-08-20T05:37:29Z</time>
      </trkpt>
      <trkpt lat="59.113547801971436" lon="30.488691329956055">
        <time>2026-08-20T05:37:32Z</time>
      </trkpt>
      <trkpt lat="59.113547801971436" lon="30.488712787628174">
        <time>2026-08-20T05:37:34Z</time>
      </trkpt>
      <trkpt lat="59.113569259643555" lon="30.488734245300293">
        <time>2026-08-20T05:37:37Z</time>
      </trkpt>
      <trkpt lat="59.113569259643555" lon="30.488777160644531">
        <time>2026-08-20T05:37:39Z</time>
      </trkpt>
      <trkpt lat="59.113569259643555" lon="30.48879861831665">
        <time>2026-08-20T05:37:42Z</time>
      </trkpt>
      <trkpt lat="59.113569259643555" lon="30.48879861831665">
        <time>2026-08-20T05:37:44Z</time>
      </trkpt>
      <trkpt lat="59.113569259643555" lon="30.488862991333008">
        <time>2026-08-20T05:37:47Z</time>
      </trkpt>
      <trkpt lat="59.113569259643555" lon="30.488948822021484">
        <time>2026-08-20T05:37:49Z</time>
      </trkpt>
      <trkpt lat="59.113569259643555" lon="30.488970279693604">
        <time>2026-08-20T05:37:52Z</time>
      </trkpt>
      <trkpt lat="59.113569259643555" lon="30.489013195037842">
        <time>2026-08-20T05:37:54Z</time>
      </trkpt>
      <trkpt lat="59.113569259643555" lon="30.48905611038208">
        <time>2026-08-20T05:37:57Z</time>
      </trkpt>
      <trkpt lat="59.113590717315674" lon="30.489120483398437">
        <time>2026-08-20T05:37:59Z</time>
      </trkpt>
      <trkpt lat="59.113590717315674" lon="30.489141941070557">
        <time>2026-08-20T05:38:02Z</time>
      </trkpt>
      <trkpt lat="59.113590717315674" lon="30.489141941070557">
        <time>2026-08-20T05:38:04Z</time>
      </trkpt>
      <trkpt lat="59.113612174987793" lon="30.489184856414795">
        <time>2026-08-20T05:38:07Z</time>
      </trkpt>
      <trkpt lat="59.113590717315674" lon="30.489249229431152">
        <time>2026-08-20T05:38:09Z</time>
      </trkpt>
      <trkpt lat="59.113590717315674" lon="30.489249229431152">
        <time>2026-08-20T05:38:12Z</time>
      </trkpt>
      <trkpt lat="59.113569259643555" lon="30.489270687103271">
        <time>2026-08-20T05:38:14Z</time>
      </trkpt>
      <trkpt lat="59.113569259643555" lon="30.489270687103271">
        <time>2026-08-20T05:38:17Z</time>
      </trkpt>
      <trkpt lat="59.113569259643555" lon="30.489270687103271">
        <time>2026-08-20T05:38:19Z</time>
      </trkpt>
      <trkpt lat="59.113547801971436" lon="30.48931360244751">
        <time>2026-08-20T05:38:22Z</time>
      </trkpt>
      <trkpt lat="59.113547801971436" lon="30.489377975463867">
        <time>2026-08-20T05:38:24Z</time>
      </trkpt>
      <trkpt lat="59.113547801971436" lon="30.489377975463867">
        <time>2026-08-20T05:38:27Z</time>
      </trkpt>
      <trkpt lat="59.113569259643555" lon="30.489420890808105">
        <time>2026-08-20T05:38:29Z</time>
      </trkpt>
      <trkpt lat="59.113590717315674" lon="30.489442348480225">
        <time>2026-08-20T05:38:32Z</time>
      </trkpt>
      <trkpt lat="59.113590717315674" lon="30.489485263824463">
        <time>2026-08-20T05:38:34Z</time>
      </trkpt>
      <trkpt lat="59.113590717315674" lon="30.489506721496582">
        <time>2026-08-20T05:38:37Z</time>
      </trkpt>
      <trkpt lat="59.113612174987793" lon="30.489592552185059">
        <time>2026-08-20T05:38:39Z</time>
      </trkpt>
      <trkpt lat="59.113612174987793" lon="30.489635467529297">
        <time>2026-08-20T05:38:42Z</time>
      </trkpt>
      <trkpt lat="59.113612174987793" lon="30.489678382873535">
        <time>2026-08-20T05:38:44Z</time>
      </trkpt>
      <trkpt lat="59.113612174987793" lon="30.489699840545654">
        <time>2026-08-20T05:38:47Z</time>
      </trkpt>
      <trkpt lat="59.113612174987793" lon="30.489699840545654">
        <time>2026-08-20T05:38:49Z</time>
      </trkpt>
      <trkpt lat="59.113612174987793" lon="30.489742755889893">
        <time>2026-08-20T05:38:52Z</time>
      </trkpt>
      <trkpt lat="59.113612174987793" lon="30.48980712890625">
        <time>2026-08-20T05:38:54Z</time>
      </trkpt>
      <trkpt lat="59.113612174987793" lon="30.489850044250488">
        <time>2026-08-20T05:38:57Z</time>
      </trkpt>
      <trkpt lat="59.113633632659912" lon="30.489914417266846">
        <time>2026-08-20T05:38:59Z</time>
      </trkpt>
      <trkpt lat="59.113633632659912" lon="30.489957332611084">
        <time>2026-08-20T05:39:02Z</time>
      </trkpt>
      <trkpt lat="59.113633632659912" lon="30.490000247955322">
        <time>2026-08-20T05:39:04Z</time>
      </trkpt>
      <trkpt lat="59.113633632659912" lon="30.490043163299561">
        <time>2026-08-20T05:39:07Z</time>
      </trkpt>
      <trkpt lat="59.113633632659912" lon="30.490086078643799">
        <time>2026-08-20T05:39:09Z</time>
      </trkpt>
      <trkpt lat="59.113633632659912" lon="30.490128993988037">
        <time>2026-08-20T05:39:12Z</time>
      </trkpt>
      <trkpt lat="59.113633632659912" lon="30.490150451660156">
        <time>2026-08-20T05:39:14Z</time>
      </trkpt>
      <trkpt lat="59.113633632659912" lon="30.490214824676514">
        <time>2026-08-20T05:39:17Z</time>
      </trkpt>
      <trkpt lat="59.113633632659912" lon="30.49030065536499">
        <time>2026-08-20T05:39:19Z</time>
      </trkpt>
      <trkpt lat="59.113633632659912" lon="30.490343570709229">
        <time>2026-08-20T05:39:22Z</time>
      </trkpt>
      <trkpt lat="59.113633632659912" lon="30.490407943725586">
        <time>2026-08-20T05:39:24Z</time>
      </trkpt>
      <trkpt lat="59.113633632659912" lon="30.490429401397705">
        <time>2026-08-20T05:39:27Z</time>
      </trkpt>
      <trkpt lat="59.113633632659912" lon="30.490493774414063">
        <time>2026-08-20T05:39:29Z</time>
      </trkpt>
      <trkpt lat="59.113633632659912" lon="30.49055814743042">
        <time>2026-08-20T05:39:32Z</time>
      </trkpt>
      <trkpt lat="59.113655090332031" lon="30.490601062774658">
        <time>2026-08-20T05:39:34Z</time>
      </trkpt>
      <trkpt lat="59.113655090332031" lon="30.490622520446777">
        <time>2026-08-20T05:39:37Z</time>
      </trkpt>
      <trkpt lat="59.113655090332031" lon="30.490708351135254">
        <time>2026-08-20T05:39:39Z</time>
      </trkpt>
      <trkpt lat="59.11367654800415" lon="30.490751266479492">
        <time>2026-08-20T05:39:42Z</time>
      </trkpt>
      <trkpt lat="59.11367654800415" lon="30.49081563949585">
        <time>2026-08-20T05:39:44Z</time>
      </trkpt>
      <trkpt lat="59.11367654800415" lon="30.490837097167969">
        <time>2026-08-20T05:39:47Z</time>
      </trkpt>
      <trkpt lat="59.11367654800415" lon="30.490880012512207">
        <time>2026-08-20T05:39:49Z</time>
      </trkpt>
      <trkpt lat="59.11367654800415" lon="30.490901470184326">
        <time>2026-08-20T05:39:52Z</time>
      </trkpt>
      <trkpt lat="59.11369800567627" lon="30.490944385528564">
        <time>2026-08-20T05:39:54Z</time>
      </trkpt>
      <trkpt lat="59.11367654800415" lon="30.490987300872803">
        <time>2026-08-20T05:39:57Z</time>
      </trkpt>
      <trkpt lat="59.113719463348389" lon="30.491094589233398">
        <time>2026-08-20T05:39:59Z</time>
      </trkpt>
      <trkpt lat="59.113719463348389" lon="30.491116046905518">
        <time>2026-08-20T05:40:02Z</time>
      </trkpt>
      <trkpt lat="59.113719463348389" lon="30.491180419921875">
        <time>2026-08-20T05:40:04Z</time>
      </trkpt>
      <trkpt lat="59.113719463348389" lon="30.491223335266113">
        <time>2026-08-20T05:40:07Z</time>
      </trkpt>
      <trkpt lat="59.113719463348389" lon="30.491244792938232">
        <time>2026-08-20T05:40:09Z</time>
      </trkpt>
      <trkpt lat="59.113719463348389" lon="30.491244792938232">
        <time>2026-08-20T05:40:12Z</time>
      </trkpt>
      <trkpt lat="59.113740921020508" lon="30.491330623626709">
        <time>2026-08-20T05:40:14Z</time>
      </trkpt>
      <trkpt lat="59.113740921020508" lon="30.491394996643066">
        <time>2026-08-20T05:40:17Z</time>
      </trkpt>
      <trkpt lat="59.113740921020508" lon="30.491480827331543">
        <time>2026-08-20T05:40:19Z</time>
      </trkpt>
      <trkpt lat="59.113740921020508" lon="30.491502285003662">
        <time>2026-08-20T05:40:22Z</time>
      </trkpt>
      <trkpt lat="59.113719463348389" lon="30.49156665802002">
        <time>2026-08-20T05:40:24Z</time>
      </trkpt>
      <trkpt lat="59.11369800567627" lon="30.491588115692139">
        <time>2026-08-20T05:40:27Z</time>
      </trkpt>
      <trkpt lat="59.11369800567627" lon="30.491652488708496">
        <time>2026-08-20T05:40:29Z</time>
      </trkpt>
      <trkpt lat="59.11369800567627" lon="30.491695404052734">
        <time>2026-08-20T05:40:32Z</time>
      </trkpt>
      <trkpt lat="59.11369800567627" lon="30.491716861724854">
        <time>2026-08-20T05:40:34Z</time>
      </trkpt>
      <trkpt lat="59.113719463348389" lon="30.491759777069092">
        <time>2026-08-20T05:40:37Z</time>
      </trkpt>
      <trkpt lat="59.113719463348389" lon="30.49180269241333">
        <time>2026-08-20T05:40:39Z</time>
      </trkpt>
      <trkpt lat="59.113719463348389" lon="30.49180269241333">
        <time>2026-08-20T05:40:42Z</time>
      </trkpt>
      <trkpt lat="59.113719463348389" lon="30.49180269241333">
        <time>2026-08-20T05:40:47Z</time>
      </trkpt>
      <trkpt lat="59.113719463348389" lon="30.49180269241333">
        <time>2026-08-20T05:40:49Z</time>
      </trkpt>
      <trkpt lat="59.113719463348389" lon="30.49180269241333">
        <time>2026-08-20T05:40:52Z</time>
      </trkpt>
      <trkpt lat="59.113719463348389" lon="30.49180269241333">
        <time>2026-08-20T05:40:54Z</time>
      </trkpt>
      <trkpt lat="59.113719463348389" lon="30.49180269241333">
        <time>2026-08-20T05:40:57Z</time>
      </trkpt>
      <trkpt lat="59.113719463348389" lon="30.49180269241333">
        <time>2026-08-20T05:40:59Z</time>
      </trkpt>
      <trkpt lat="59.113719463348389" lon="30.49180269241333">
        <time>2026-08-20T05:41:02Z</time>
      </trkpt>
      <trkpt lat="59.113719463348389" lon="30.49180269241333">
        <time>2026-08-20T05:41:04Z</time>
      </trkpt>
      <trkpt lat="59.113719463348389" lon="30.49180269241333">
        <time>2026-08-20T05:41:07Z</time>
      </trkpt>
      <trkpt lat="59.113719463348389" lon="30.491759777069092">
        <time>2026-08-20T05:41:09Z</time>
      </trkpt>
      <trkpt lat="59.113719463348389" lon="30.491759777069092">
        <time>2026-08-20T05:41:12Z</time>
      </trkpt>
      <trkpt lat="59.113740921020508" lon="30.491738319396973">
        <time>2026-08-20T05:41:14Z</time>
      </trkpt>
      <trkpt lat="59.113740921020508" lon="30.491738319396973">
        <time>2026-08-20T05:41:17Z</time>
      </trkpt>
      <trkpt lat="59.113740921020508" lon="30.491759777069092">
        <time>2026-08-20T05:41:19Z</time>
      </trkpt>
      <trkpt lat="59.113740921020508" lon="30.491759777069092">
        <time>2026-08-20T05:41:22Z</time>
      </trkpt>
      <trkpt lat="59.113740921020508" lon="30.491759777069092">
        <time>2026-08-20T05:41:24Z</time>
      </trkpt>
      <trkpt lat="59.113740921020508" lon="30.491759777069092">
        <time>2026-08-20T05:41:27Z</time>
      </trkpt>
      <trkpt lat="59.113740921020508" lon="30.491759777069092">
        <time>2026-08-20T05:41:29Z</time>
      </trkpt>
      <trkpt lat="59.113740921020508" lon="30.491759777069092">
        <time>2026-08-20T05:41:32Z</time>
      </trkpt>
      <trkpt lat="59.113740921020508" lon="30.491759777069092">
        <time>2026-08-20T05:41:34Z</time>
      </trkpt>
      <trkpt lat="59.113740921020508" lon="30.491759777069092">
        <time>2026-08-20T05:41:37Z</time>
      </trkpt>
      <trkpt lat="59.113740921020508" lon="30.491759777069092">
        <time>2026-08-20T05:41:39Z</time>
      </trkpt>
      <trkpt lat="59.113740921020508" lon="30.491759777069092">
        <time>2026-08-20T05:41:42Z</time>
      </trkpt>
      <trkpt lat="59.113740921020508" lon="30.491759777069092">
        <time>2026-08-20T05:41:44Z</time>
      </trkpt>
      <trkpt lat="59.113740921020508" lon="30.491759777069092">
        <time>2026-08-20T05:41:47Z</time>
      </trkpt>
      <trkpt lat="59.113740921020508" lon="30.491759777069092">
        <time>2026-08-20T05:41:49Z</time>
      </trkpt>
      <trkpt lat="59.113740921020508" lon="30.491759777069092">
        <time>2026-08-20T05:41:52Z</time>
      </trkpt>
      <trkpt lat="59.113740921020508" lon="30.491759777069092">
        <time>2026-08-20T05:41:54Z</time>
      </trkpt>
      <trkpt lat="59.113740921020508" lon="30.491759777069092">
        <time>2026-08-20T05:41:57Z</time>
      </trkpt>
      <trkpt lat="59.113740921020508" lon="30.491759777069092">
        <time>2026-08-20T05:41:59Z</time>
      </trkpt>
      <trkpt lat="59.113740921020508" lon="30.49180269241333">
        <time>2026-08-20T05:42:02Z</time>
      </trkpt>
      <trkpt lat="59.113740921020508" lon="30.491867065429688">
        <time>2026-08-20T05:42:04Z</time>
      </trkpt>
      <trkpt lat="59.113740921020508" lon="30.491867065429688">
        <time>2026-08-20T05:42:07Z</time>
      </trkpt>
      <trkpt lat="59.113719463348389" lon="30.491781234741211">
        <time>2026-08-20T05:42:09Z</time>
      </trkpt>
      <trkpt lat="59.113719463348389" lon="30.491781234741211">
        <time>2026-08-20T05:42:12Z</time>
      </trkpt>
      <trkpt lat="59.113719463348389" lon="30.491781234741211">
        <time>2026-08-20T05:42:14Z</time>
      </trkpt>
      <trkpt lat="59.113719463348389" lon="30.491781234741211">
        <time>2026-08-20T05:42:17Z</time>
      </trkpt>
      <trkpt lat="59.113719463348389" lon="30.491781234741211">
        <time>2026-08-20T05:42:19Z</time>
      </trkpt>
      <trkpt lat="59.113719463348389" lon="30.491781234741211">
        <time>2026-08-20T05:42:22Z</time>
      </trkpt>
      <trkpt lat="59.113719463348389" lon="30.491781234741211">
        <time>2026-08-20T05:42:24Z</time>
      </trkpt>
      <trkpt lat="59.113719463348389" lon="30.491781234741211">
        <time>2026-08-20T05:42:27Z</time>
      </trkpt>
      <trkpt lat="59.113719463348389" lon="30.491781234741211">
        <time>2026-08-20T05:42:29Z</time>
      </trkpt>
      <trkpt lat="59.113719463348389" lon="30.491781234741211">
        <time>2026-08-20T05:42:32Z</time>
      </trkpt>
      <trkpt lat="59.113719463348389" lon="30.491781234741211">
        <time>2026-08-20T05:42:34Z</time>
      </trkpt>
      <trkpt lat="59.113719463348389" lon="30.491781234741211">
        <time>2026-08-20T05:42:37Z</time>
      </trkpt>
      <trkpt lat="59.113719463348389" lon="30.491781234741211">
        <time>2026-08-20T05:42:39Z</time>
      </trkpt>
      <trkpt lat="59.113719463348389" lon="30.49180269241333">
        <time>2026-08-20T05:42:42Z</time>
      </trkpt>
      <trkpt lat="59.113719463348389" lon="30.491781234741211">
        <time>2026-08-20T05:42:44Z</time>
      </trkpt>
      <trkpt lat="59.113719463348389" lon="30.491781234741211">
        <time>2026-08-20T05:42:47Z</time>
      </trkpt>
      <trkpt lat="59.11369800567627" lon="30.491781234741211">
        <time>2026-08-20T05:42:49Z</time>
      </trkpt>
      <trkpt lat="59.11369800567627" lon="30.491781234741211">
        <time>2026-08-20T05:42:52Z</time>
      </trkpt>
      <trkpt lat="59.11367654800415" lon="30.491781234741211">
        <time>2026-08-20T05:42:54Z</time>
      </trkpt>
      <trkpt lat="59.113655090332031" lon="30.49180269241333">
        <time>2026-08-20T05:42:57Z</time>
      </trkpt>
      <trkpt lat="59.113633632659912" lon="30.49180269241333">
        <time>2026-08-20T05:42:59Z</time>
      </trkpt>
      <trkpt lat="59.113633632659912" lon="30.49180269241333">
        <time>2026-08-20T05:43:02Z</time>
      </trkpt>
      <trkpt lat="59.113612174987793" lon="30.491824150085449">
        <time>2026-08-20T05:43:04Z</time>
      </trkpt>
      <trkpt lat="59.113590717315674" lon="30.49180269241333">
        <time>2026-08-20T05:43:07Z</time>
      </trkpt>
      <trkpt lat="59.113569259643555" lon="30.49180269241333">
        <time>2026-08-20T05:43:09Z</time>
      </trkpt>
      <trkpt lat="59.113547801971436" lon="30.49180269241333">
        <time>2026-08-20T05:43:12Z</time>
      </trkpt>
      <trkpt lat="59.113526344299316" lon="30.491845607757568">
        <time>2026-08-20T05:43:14Z</time>
      </trkpt>
      <trkpt lat="59.113526344299316" lon="30.491845607757568">
        <time>2026-08-20T05:43:17Z</time>
      </trkpt>
      <trkpt lat="59.113483428955078" lon="30.491845607757568">
        <time>2026-08-20T05:43:19Z</time>
      </trkpt>
      <trkpt lat="59.113461971282959" lon="30.491845607757568">
        <time>2026-08-20T05:43:22Z</time>
      </trkpt>
      <trkpt lat="59.11344051361084" lon="30.491867065429688">
        <time>2026-08-20T05:43:24Z</time>
      </trkpt>
      <trkpt lat="59.11344051361084" lon="30.491867065429688">
        <time>2026-08-20T05:43:27Z</time>
      </trkpt>
      <trkpt lat="59.11344051361084" lon="30.491867065429688">
        <time>2026-08-20T05:43:29Z</time>
      </trkpt>
      <trkpt lat="59.11344051361084" lon="30.491867065429688">
        <time>2026-08-20T05:43:32Z</time>
      </trkpt>
      <trkpt lat="59.11344051361084" lon="30.491845607757568">
        <time>2026-08-20T05:43:37Z</time>
      </trkpt>
      <trkpt lat="59.113419055938721" lon="30.491824150085449">
        <time>2026-08-20T05:43:39Z</time>
      </trkpt>
      <trkpt lat="59.113419055938721" lon="30.491781234741211">
        <time>2026-08-20T05:43:42Z</time>
      </trkpt>
      <trkpt lat="59.113397598266602" lon="30.49180269241333">
        <time>2026-08-20T05:43:44Z</time>
      </trkpt>
      <trkpt lat="59.113376140594482" lon="30.491824150085449">
        <time>2026-08-20T05:43:47Z</time>
      </trkpt>
      <trkpt lat="59.113376140594482" lon="30.491824150085449">
        <time>2026-08-20T05:43:49Z</time>
      </trkpt>
      <trkpt lat="59.113376140594482" lon="30.491824150085449">
        <time>2026-08-20T05:43:52Z</time>
      </trkpt>
      <trkpt lat="59.113354682922363" lon="30.491867065429688">
        <time>2026-08-20T05:43:54Z</time>
      </trkpt>
      <trkpt lat="59.113354682922363" lon="30.491867065429688">
        <time>2026-08-20T05:43:57Z</time>
      </trkpt>
      <trkpt lat="59.113333225250244" lon="30.491888523101807">
        <time>2026-08-20T05:43:59Z</time>
      </trkpt>
      <trkpt lat="59.113333225250244" lon="30.491888523101807">
        <time>2026-08-20T05:44:02Z</time>
      </trkpt>
      <trkpt lat="59.113333225250244" lon="30.491909980773926">
        <time>2026-08-20T05:44:04Z</time>
      </trkpt>
      <trkpt lat="59.113290309906006" lon="30.491931438446045">
        <time>2026-08-20T05:44:07Z</time>
      </trkpt>
      <trkpt lat="59.113247394561768" lon="30.491931438446045">
        <time>2026-08-20T05:44:09Z</time>
      </trkpt>
      <trkpt lat="59.113225936889648" lon="30.491909980773926">
        <time>2026-08-20T05:44:12Z</time>
      </trkpt>
      <trkpt lat="59.11318302154541" lon="30.491931438446045">
        <time>2026-08-20T05:44:14Z</time>
      </trkpt>
      <trkpt lat="59.11318302154541" lon="30.491931438446045">
        <time>2026-08-20T05:44:17Z</time>
      </trkpt>
      <trkpt lat="59.11318302154541" lon="30.491931438446045">
        <time>2026-08-20T05:44:19Z</time>
      </trkpt>
      <trkpt lat="59.11318302154541" lon="30.491931438446045">
        <time>2026-08-20T05:44:22Z</time>
      </trkpt>
      <trkpt lat="59.11318302154541" lon="30.491931438446045">
        <time>2026-08-20T05:44:24Z</time>
      </trkpt>
      <trkpt lat="59.113161563873291" lon="30.491931438446045">
        <time>2026-08-20T05:44:27Z</time>
      </trkpt>
      <trkpt lat="59.113140106201172" lon="30.491952896118164">
        <time>2026-08-20T05:44:29Z</time>
      </trkpt>
      <trkpt lat="59.113140106201172" lon="30.491952896118164">
        <time>2026-08-20T05:44:32Z</time>
      </trkpt>
      <trkpt lat="59.113118648529053" lon="30.491952896118164">
        <time>2026-08-20T05:44:34Z</time>
      </trkpt>
      <trkpt lat="59.113118648529053" lon="30.491931438446045">
        <time>2026-08-20T05:44:37Z</time>
      </trkpt>
      <trkpt lat="59.113118648529053" lon="30.491952896118164">
        <time>2026-08-20T05:44:39Z</time>
      </trkpt>
      <trkpt lat="59.113118648529053" lon="30.491952896118164">
        <time>2026-08-20T05:44:42Z</time>
      </trkpt>
      <trkpt lat="59.113118648529053" lon="30.491974353790283">
        <time>2026-08-20T05:44:44Z</time>
      </trkpt>
      <trkpt lat="59.113118648529053" lon="30.491974353790283">
        <time>2026-08-20T05:44:47Z</time>
      </trkpt>
      <trkpt lat="59.113118648529053" lon="30.491974353790283">
        <time>2026-08-20T05:44:49Z</time>
      </trkpt>
      <trkpt lat="59.113118648529053" lon="30.491974353790283">
        <time>2026-08-20T05:44:52Z</time>
      </trkpt>
      <trkpt lat="59.113118648529053" lon="30.491974353790283">
        <time>2026-08-20T05:44:54Z</time>
      </trkpt>
      <trkpt lat="59.113118648529053" lon="30.491974353790283">
        <time>2026-08-20T05:44:57Z</time>
      </trkpt>
      <trkpt lat="59.113118648529053" lon="30.491974353790283">
        <time>2026-08-20T05:44:59Z</time>
      </trkpt>
      <trkpt lat="59.113118648529053" lon="30.491974353790283">
        <time>2026-08-20T05:45:02Z</time>
      </trkpt>
      <trkpt lat="59.113118648529053" lon="30.491974353790283">
        <time>2026-08-20T05:45:04Z</time>
      </trkpt>
      <trkpt lat="59.113118648529053" lon="30.491974353790283">
        <time>2026-08-20T05:45:07Z</time>
      </trkpt>
      <trkpt lat="59.113118648529053" lon="30.491974353790283">
        <time>2026-08-20T05:45:09Z</time>
      </trkpt>
      <trkpt lat="59.113118648529053" lon="30.491974353790283">
        <time>2026-08-20T05:45:12Z</time>
      </trkpt>
      <trkpt lat="59.113118648529053" lon="30.491974353790283">
        <time>2026-08-20T05:45:14Z</time>
      </trkpt>
      <trkpt lat="59.113118648529053" lon="30.491974353790283">
        <time>2026-08-20T05:45:17Z</time>
      </trkpt>
      <trkpt lat="59.113118648529053" lon="30.491974353790283">
        <time>2026-08-20T05:45:19Z</time>
      </trkpt>
      <trkpt lat="59.113118648529053" lon="30.491974353790283">
        <time>2026-08-20T05:45:22Z</time>
      </trkpt>
      <trkpt lat="59.113118648529053" lon="30.491974353790283">
        <time>2026-08-20T05:45:24Z</time>
      </trkpt>
      <trkpt lat="59.113118648529053" lon="30.491974353790283">
        <time>2026-08-20T05:45:27Z</time>
      </trkpt>
      <trkpt lat="59.113118648529053" lon="30.491974353790283">
        <time>2026-08-20T05:45:29Z</time>
      </trkpt>
      <trkpt lat="59.113118648529053" lon="30.491974353790283">
        <time>2026-08-20T05:45:32Z</time>
      </trkpt>
      <trkpt lat="59.113118648529053" lon="30.491974353790283">
        <time>2026-08-20T05:45:34Z</time>
      </trkpt>
      <trkpt lat="59.113118648529053" lon="30.491974353790283">
        <time>2026-08-20T05:45:37Z</time>
      </trkpt>
      <trkpt lat="59.113118648529053" lon="30.491974353790283">
        <time>2026-08-20T05:45:39Z</time>
      </trkpt>
      <trkpt lat="59.113118648529053" lon="30.491974353790283">
        <time>2026-08-20T05:45:42Z</time>
      </trkpt>
      <trkpt lat="59.113118648529053" lon="30.491974353790283">
        <time>2026-08-20T05:45:44Z</time>
      </trkpt>
      <trkpt lat="59.113118648529053" lon="30.491974353790283">
        <time>2026-08-20T05:45:47Z</time>
      </trkpt>
      <trkpt lat="59.113118648529053" lon="30.491974353790283">
        <time>2026-08-20T05:45:49Z</time>
      </trkpt>
      <trkpt lat="59.113097190856934" lon="30.491952896118164">
        <time>2026-08-20T05:45:52Z</time>
      </trkpt>
      <trkpt lat="59.113097190856934" lon="30.491931438446045">
        <time>2026-08-20T05:45:54Z</time>
      </trkpt>
      <trkpt lat="59.113097190856934" lon="30.491931438446045">
        <time>2026-08-20T05:45:57Z</time>
      </trkpt>
      <trkpt lat="59.113097190856934" lon="30.491931438446045">
        <time>2026-08-20T05:45:59Z</time>
      </trkpt>
      <trkpt lat="59.113097190856934" lon="30.491931438446045">
        <time>2026-08-20T05:46:02Z</time>
      </trkpt>
      <trkpt lat="59.113118648529053" lon="30.491931438446045">
        <time>2026-08-20T05:46:04Z</time>
      </trkpt>
      <trkpt lat="59.113118648529053" lon="30.491931438446045">
        <time>2026-08-20T05:46:07Z</time>
      </trkpt>
      <trkpt lat="59.113118648529053" lon="30.491931438446045">
        <time>2026-08-20T05:46:09Z</time>
      </trkpt>
      <trkpt lat="59.113118648529053" lon="30.491931438446045">
        <time>2026-08-20T05:46:12Z</time>
      </trkpt>
      <trkpt lat="59.113118648529053" lon="30.491931438446045">
        <time>2026-08-20T05:46:14Z</time>
      </trkpt>
      <trkpt lat="59.113118648529053" lon="30.491931438446045">
        <time>2026-08-20T05:46:17Z</time>
      </trkpt>
      <trkpt lat="59.113118648529053" lon="30.491931438446045">
        <time>2026-08-20T05:46:19Z</time>
      </trkpt>
      <trkpt lat="59.113118648529053" lon="30.491931438446045">
        <time>2026-08-20T05:46:22Z</time>
      </trkpt>
      <trkpt lat="59.113118648529053" lon="30.491931438446045">
        <time>2026-08-20T05:46:24Z</time>
      </trkpt>
      <trkpt lat="59.113118648529053" lon="30.491931438446045">
        <time>2026-08-20T05:46:27Z</time>
      </trkpt>
      <trkpt lat="59.113097190856934" lon="30.491931438446045">
        <time>2026-08-20T05:46:29Z</time>
      </trkpt>
      <trkpt lat="59.113075733184814" lon="30.491931438446045">
        <time>2026-08-20T05:46:32Z</time>
      </trkpt>
      <trkpt lat="59.113054275512695" lon="30.491952896118164">
        <time>2026-08-20T05:46:34Z</time>
      </trkpt>
      <trkpt lat="59.113054275512695" lon="30.491952896118164">
        <time>2026-08-20T05:46:37Z</time>
      </trkpt>
      <trkpt lat="59.113054275512695" lon="30.491952896118164">
        <time>2026-08-20T05:46:39Z</time>
      </trkpt>
      <trkpt lat="59.113054275512695" lon="30.491974353790283">
        <time>2026-08-20T05:46:42Z</time>
      </trkpt>
      <trkpt lat="59.113032817840576" lon="30.491931438446045">
        <time>2026-08-20T05:46:44Z</time>
      </trkpt>
      <trkpt lat="59.113032817840576" lon="30.491888523101807">
        <time>2026-08-20T05:46:47Z</time>
      </trkpt>
      <trkpt lat="59.113032817840576" lon="30.491888523101807">
        <time>2026-08-20T05:46:49Z</time>
      </trkpt>
      <trkpt lat="59.113032817840576" lon="30.491888523101807">
        <time>2026-08-20T05:46:52Z</time>
      </trkpt>
      <trkpt lat="59.113032817840576" lon="30.491888523101807">
        <time>2026-08-20T05:46:54Z</time>
      </trkpt>
      <trkpt lat="59.113032817840576" lon="30.491867065429688">
        <time>2026-08-20T05:46:57Z</time>
      </trkpt>
      <trkpt lat="59.113032817840576" lon="30.491845607757568">
        <time>2026-08-20T05:46:59Z</time>
      </trkpt>
      <trkpt lat="59.113032817840576" lon="30.491824150085449">
        <time>2026-08-20T05:47:02Z</time>
      </trkpt>
      <trkpt lat="59.113032817840576" lon="30.491759777069092">
        <time>2026-08-20T05:47:04Z</time>
      </trkpt>
      <trkpt lat="59.113032817840576" lon="30.491716861724854">
        <time>2026-08-20T05:47:07Z</time>
      </trkpt>
      <trkpt lat="59.113032817840576" lon="30.491716861724854">
        <time>2026-08-20T05:47:09Z</time>
      </trkpt>
      <trkpt lat="59.113032817840576" lon="30.491759777069092">
        <time>2026-08-20T05:47:12Z</time>
      </trkpt>
      <trkpt lat="59.113011360168457" lon="30.491781234741211">
        <time>2026-08-20T05:47:14Z</time>
      </trkpt>
      <trkpt lat="59.112989902496338" lon="30.491781234741211">
        <time>2026-08-20T05:47:17Z</time>
      </trkpt>
      <trkpt lat="59.112968444824219" lon="30.491738319396973">
        <time>2026-08-20T05:47:19Z</time>
      </trkpt>
      <trkpt lat="59.112968444824219" lon="30.491716861724854">
        <time>2026-08-20T05:47:22Z</time>
      </trkpt>
      <trkpt lat="59.1129469871521" lon="30.491673946380615">
        <time>2026-08-20T05:47:24Z</time>
      </trkpt>
      <trkpt lat="59.112968444824219" lon="30.491631031036377">
        <time>2026-08-20T05:47:27Z</time>
      </trkpt>
      <trkpt lat="59.112968444824219" lon="30.491631031036377">
        <time>2026-08-20T05:47:29Z</time>
      </trkpt>
      <trkpt lat="59.112968444824219" lon="30.491652488708496">
        <time>2026-08-20T05:47:32Z</time>
      </trkpt>
      <trkpt lat="59.1129469871521" lon="30.491631031036377">
        <time>2026-08-20T05:47:34Z</time>
      </trkpt>
      <trkpt lat="59.1129469871521" lon="30.491631031036377">
        <time>2026-08-20T05:47:37Z</time>
      </trkpt>
      <trkpt lat="59.1129469871521" lon="30.491631031036377">
        <time>2026-08-20T05:47:39Z</time>
      </trkpt>
      <trkpt lat="59.1129469871521" lon="30.491609573364258">
        <time>2026-08-20T05:47:42Z</time>
      </trkpt>
      <trkpt lat="59.1129469871521" lon="30.49156665802002">
        <time>2026-08-20T05:47:44Z</time>
      </trkpt>
      <trkpt lat="59.1129469871521" lon="30.49156665802002">
        <time>2026-08-20T05:47:47Z</time>
      </trkpt>
      <trkpt lat="59.11292552947998" lon="30.491588115692139">
        <time>2026-08-20T05:47:49Z</time>
      </trkpt>
      <trkpt lat="59.11292552947998" lon="30.491588115692139">
        <time>2026-08-20T05:47:52Z</time>
      </trkpt>
      <trkpt lat="59.112904071807861" lon="30.491631031036377">
        <time>2026-08-20T05:47:54Z</time>
      </trkpt>
      <trkpt lat="59.112904071807861" lon="30.491631031036377">
        <time>2026-08-20T05:47:57Z</time>
      </trkpt>
      <trkpt lat="59.112904071807861" lon="30.491631031036377">
        <time>2026-08-20T05:47:59Z</time>
      </trkpt>
      <trkpt lat="59.112904071807861" lon="30.491631031036377">
        <time>2026-08-20T05:48:02Z</time>
      </trkpt>
      <trkpt lat="59.112882614135742" lon="30.491631031036377">
        <time>2026-08-20T05:48:04Z</time>
      </trkpt>
      <trkpt lat="59.112861156463623" lon="30.491631031036377">
        <time>2026-08-20T05:48:07Z</time>
      </trkpt>
      <trkpt lat="59.112861156463623" lon="30.491609573364258">
        <time>2026-08-20T05:48:09Z</time>
      </trkpt>
      <trkpt lat="59.112904071807861" lon="30.491609573364258">
        <time>2026-08-20T05:48:12Z</time>
      </trkpt>
      <trkpt lat="59.11292552947998" lon="30.49156665802002">
        <time>2026-08-20T05:48:14Z</time>
      </trkpt>
      <trkpt lat="59.112968444824219" lon="30.49156665802002">
        <time>2026-08-20T05:48:17Z</time>
      </trkpt>
      <trkpt lat="59.113011360168457" lon="30.49156665802002">
        <time>2026-08-20T05:48:19Z</time>
      </trkpt>
      <trkpt lat="59.113011360168457" lon="30.49156665802002">
        <time>2026-08-20T05:48:22Z</time>
      </trkpt>
      <trkpt lat="59.113011360168457" lon="30.49156665802002">
        <time>2026-08-20T05:48:24Z</time>
      </trkpt>
      <trkpt lat="59.113032817840576" lon="30.4915452003479">
        <time>2026-08-20T05:48:27Z</time>
      </trkpt>
      <trkpt lat="59.113054275512695" lon="30.491480827331543">
        <time>2026-08-20T05:48:29Z</time>
      </trkpt>
      <trkpt lat="59.113075733184814" lon="30.491459369659424">
        <time>2026-08-20T05:48:32Z</time>
      </trkpt>
      <trkpt lat="59.113097190856934" lon="30.491437911987305">
        <time>2026-08-20T05:48:34Z</time>
      </trkpt>
      <trkpt lat="59.113118648529053" lon="30.491394996643066">
        <time>2026-08-20T05:48:37Z</time>
      </trkpt>
      <trkpt lat="59.113140106201172" lon="30.491330623626709">
        <time>2026-08-20T05:48:39Z</time>
      </trkpt>
      <trkpt lat="59.113161563873291" lon="30.491287708282471">
        <time>2026-08-20T05:48:42Z</time>
      </trkpt>
      <trkpt lat="59.113204479217529" lon="30.491244792938232">
        <time>2026-08-20T05:48:44Z</time>
      </trkpt>
      <trkpt lat="59.113204479217529" lon="30.491223335266113">
        <time>2026-08-20T05:48:47Z</time>
      </trkpt>
      <trkpt lat="59.113225936889648" lon="30.491223335266113">
        <time>2026-08-20T05:48:49Z</time>
      </trkpt>
      <trkpt lat="59.113225936889648" lon="30.491244792938232">
        <time>2026-08-20T05:48:52Z</time>
      </trkpt>
      <trkpt lat="59.113247394561768" lon="30.491244792938232">
        <time>2026-08-20T05:48:54Z</time>
      </trkpt>
      <trkpt lat="59.113247394561768" lon="30.491266250610352">
        <time>2026-08-20T05:48:57Z</time>
      </trkpt>
      <trkpt lat="59.113247394561768" lon="30.491287708282471">
        <time>2026-08-20T05:48:59Z</time>
      </trkpt>
      <trkpt lat="59.113247394561768" lon="30.491287708282471">
        <time>2026-08-20T05:49:02Z</time>
      </trkpt>
      <trkpt lat="59.113247394561768" lon="30.491287708282471">
        <time>2026-08-20T05:49:04Z</time>
      </trkpt>
      <trkpt lat="59.113247394561768" lon="30.491287708282471">
        <time>2026-08-20T05:49:07Z</time>
      </trkpt>
      <trkpt lat="59.113247394561768" lon="30.491266250610352">
        <time>2026-08-20T05:49:09Z</time>
      </trkpt>
      <trkpt lat="59.113225936889648" lon="30.491201877593994">
        <time>2026-08-20T05:49:12Z</time>
      </trkpt>
      <trkpt lat="59.113225936889648" lon="30.491116046905518">
        <time>2026-08-20T05:49:14Z</time>
      </trkpt>
      <trkpt lat="59.113204479217529" lon="30.491073131561279">
        <time>2026-08-20T05:49:17Z</time>
      </trkpt>
      <trkpt lat="59.113204479217529" lon="30.491030216217041">
        <time>2026-08-20T05:49:19Z</time>
      </trkpt>
      <trkpt lat="59.113204479217529" lon="30.490965843200684">
        <time>2026-08-20T05:49:22Z</time>
      </trkpt>
      <trkpt lat="59.113204479217529" lon="30.490901470184326">
        <time>2026-08-20T05:49:24Z</time>
      </trkpt>
      <trkpt lat="59.113225936889648" lon="30.490901470184326">
        <time>2026-08-20T05:49:27Z</time>
      </trkpt>
      <trkpt lat="59.113204479217529" lon="30.490858554840088">
        <time>2026-08-20T05:49:29Z</time>
      </trkpt>
      <trkpt lat="59.113204479217529" lon="30.490858554840088">
        <time>2026-08-20T05:49:32Z</time>
      </trkpt>
      <trkpt lat="59.113225936889648" lon="30.490880012512207">
        <time>2026-08-20T05:49:34Z</time>
      </trkpt>
      <trkpt lat="59.113247394561768" lon="30.490880012512207">
        <time>2026-08-20T05:49:37Z</time>
      </trkpt>
      <trkpt lat="59.113247394561768" lon="30.490837097167969">
        <time>2026-08-20T05:49:39Z</time>
      </trkpt>
      <trkpt lat="59.113247394561768" lon="30.490772724151611">
        <time>2026-08-20T05:49:42Z</time>
      </trkpt>
      <trkpt lat="59.113268852233887" lon="30.490729808807373">
        <time>2026-08-20T05:49:44Z</time>
      </trkpt>
      <trkpt lat="59.113268852233887" lon="30.490708351135254">
        <time>2026-08-20T05:49:47Z</time>
      </trkpt>
      <trkpt lat="59.113290309906006" lon="30.490686893463135">
        <time>2026-08-20T05:49:49Z</time>
      </trkpt>
      <trkpt lat="59.113290309906006" lon="30.490665435791016">
        <time>2026-08-20T05:49:52Z</time>
      </trkpt>
      <trkpt lat="59.113311767578125" lon="30.490601062774658">
        <time>2026-08-20T05:49:54Z</time>
      </trkpt>
      <trkpt lat="59.113311767578125" lon="30.490579605102539">
        <time>2026-08-20T05:49:57Z</time>
      </trkpt>
      <trkpt lat="59.113311767578125" lon="30.49055814743042">
        <time>2026-08-20T05:49:59Z</time>
      </trkpt>
      <trkpt lat="59.113311767578125" lon="30.49055814743042">
        <time>2026-08-20T05:50:02Z</time>
      </trkpt>
      <trkpt lat="59.113311767578125" lon="30.490493774414063">
        <time>2026-08-20T05:50:04Z</time>
      </trkpt>
      <trkpt lat="59.113333225250244" lon="30.490450859069824">
        <time>2026-08-20T05:50:07Z</time>
      </trkpt>
      <trkpt lat="59.113333225250244" lon="30.490429401397705">
        <time>2026-08-20T05:50:09Z</time>
      </trkpt>
      <trkpt lat="59.113333225250244" lon="30.490407943725586">
        <time>2026-08-20T05:50:12Z</time>
      </trkpt>
      <trkpt lat="59.113333225250244" lon="30.490343570709229">
        <time>2026-08-20T05:50:14Z</time>
      </trkpt>
      <trkpt lat="59.113354682922363" lon="30.490343570709229">
        <time>2026-08-20T05:50:17Z</time>
      </trkpt>
      <trkpt lat="59.113376140594482" lon="30.49030065536499">
        <time>2026-08-20T05:50:19Z</time>
      </trkpt>
      <trkpt lat="59.113376140594482" lon="30.49030065536499">
        <time>2026-08-20T05:50:22Z</time>
      </trkpt>
      <trkpt lat="59.113376140594482" lon="30.490279197692871">
        <time>2026-08-20T05:50:24Z</time>
      </trkpt>
      <trkpt lat="59.113376140594482" lon="30.490236282348633">
        <time>2026-08-20T05:50:27Z</time>
      </trkpt>
      <trkpt lat="59.113397598266602" lon="30.490193367004395">
        <time>2026-08-20T05:50:29Z</time>
      </trkpt>
      <trkpt lat="59.113397598266602" lon="30.490193367004395">
        <time>2026-08-20T05:50:32Z</time>
      </trkpt>
      <trkpt lat="59.113397598266602" lon="30.490193367004395">
        <time>2026-08-20T05:50:34Z</time>
      </trkpt>
      <trkpt lat="59.113397598266602" lon="30.490193367004395">
        <time>2026-08-20T05:50:37Z</time>
      </trkpt>
      <trkpt lat="59.113397598266602" lon="30.490193367004395">
        <time>2026-08-20T05:50:39Z</time>
      </trkpt>
      <trkpt lat="59.113397598266602" lon="30.490193367004395">
        <time>2026-08-20T05:50:42Z</time>
      </trkpt>
      <trkpt lat="59.113419055938721" lon="30.490171909332275">
        <time>2026-08-20T05:50:44Z</time>
      </trkpt>
      <trkpt lat="59.113419055938721" lon="30.490171909332275">
        <time>2026-08-20T05:50:47Z</time>
      </trkpt>
      <trkpt lat="59.113419055938721" lon="30.490171909332275">
        <time>2026-08-20T05:50:49Z</time>
      </trkpt>
      <trkpt lat="59.113419055938721" lon="30.490171909332275">
        <time>2026-08-20T05:50:52Z</time>
      </trkpt>
      <trkpt lat="59.113419055938721" lon="30.490171909332275">
        <time>2026-08-20T05:50:54Z</time>
      </trkpt>
      <trkpt lat="59.113419055938721" lon="30.490171909332275">
        <time>2026-08-20T05:50:57Z</time>
      </trkpt>
      <trkpt lat="59.113419055938721" lon="30.490171909332275">
        <time>2026-08-20T05:50:59Z</time>
      </trkpt>
      <trkpt lat="59.113397598266602" lon="30.490171909332275">
        <time>2026-08-20T05:51:02Z</time>
      </trkpt>
      <trkpt lat="59.113397598266602" lon="30.490171909332275">
        <time>2026-08-20T05:51:04Z</time>
      </trkpt>
      <trkpt lat="59.113397598266602" lon="30.490171909332275">
        <time>2026-08-20T05:51:07Z</time>
      </trkpt>
      <trkpt lat="59.113397598266602" lon="30.490171909332275">
        <time>2026-08-20T05:51:09Z</time>
      </trkpt>
      <trkpt lat="59.113397598266602" lon="30.490171909332275">
        <time>2026-08-20T05:51:12Z</time>
      </trkpt>
      <trkpt lat="59.113397598266602" lon="30.490236282348633">
        <time>2026-08-20T05:51:14Z</time>
      </trkpt>
      <trkpt lat="59.113376140594482" lon="30.49030065536499">
        <time>2026-08-20T05:51:17Z</time>
      </trkpt>
      <trkpt lat="59.113354682922363" lon="30.490322113037109">
        <time>2026-08-20T05:51:19Z</time>
      </trkpt>
      <trkpt lat="59.113354682922363" lon="30.490343570709229">
        <time>2026-08-20T05:51:22Z</time>
      </trkpt>
      <trkpt lat="59.113354682922363" lon="30.490343570709229">
        <time>2026-08-20T05:51:24Z</time>
      </trkpt>
      <trkpt lat="59.113354682922363" lon="30.490343570709229">
        <time>2026-08-20T05:51:27Z</time>
      </trkpt>
      <trkpt lat="59.113354682922363" lon="30.490343570709229">
        <time>2026-08-20T05:51:29Z</time>
      </trkpt>
      <trkpt lat="59.113354682922363" lon="30.490343570709229">
        <time>2026-08-20T05:51:32Z</time>
      </trkpt>
      <trkpt lat="59.113354682922363" lon="30.490343570709229">
        <time>2026-08-20T05:51:34Z</time>
      </trkpt>
      <trkpt lat="59.113354682922363" lon="30.490322113037109">
        <time>2026-08-20T05:51:37Z</time>
      </trkpt>
      <trkpt lat="59.113376140594482" lon="30.490257740020752">
        <time>2026-08-20T05:51:39Z</time>
      </trkpt>
      <trkpt lat="59.113376140594482" lon="30.490257740020752">
        <time>2026-08-20T05:51:42Z</time>
      </trkpt>
      <trkpt lat="59.113376140594482" lon="30.490257740020752">
        <time>2026-08-20T05:51:44Z</time>
      </trkpt>
      <trkpt lat="59.113376140594482" lon="30.490257740020752">
        <time>2026-08-20T05:51:47Z</time>
      </trkpt>
      <trkpt lat="59.113354682922363" lon="30.49030065536499">
        <time>2026-08-20T05:51:49Z</time>
      </trkpt>
      <trkpt lat="59.113333225250244" lon="30.490322113037109">
        <time>2026-08-20T05:51:52Z</time>
      </trkpt>
      <trkpt lat="59.113333225250244" lon="30.490322113037109">
        <time>2026-08-20T05:51:54Z</time>
      </trkpt>
      <trkpt lat="59.113333225250244" lon="30.490322113037109">
        <time>2026-08-20T05:51:57Z</time>
      </trkpt>
      <trkpt lat="59.113333225250244" lon="30.490322113037109">
        <time>2026-08-20T05:51:59Z</time>
      </trkpt>
      <trkpt lat="59.113333225250244" lon="30.490322113037109">
        <time>2026-08-20T05:52:02Z</time>
      </trkpt>
      <trkpt lat="59.113333225250244" lon="30.490322113037109">
        <time>2026-08-20T05:52:04Z</time>
      </trkpt>
      <trkpt lat="59.113333225250244" lon="30.490322113037109">
        <time>2026-08-20T05:52:07Z</time>
      </trkpt>
      <trkpt lat="59.113354682922363" lon="30.490386486053467">
        <time>2026-08-20T05:52:09Z</time>
      </trkpt>
      <trkpt lat="59.113354682922363" lon="30.490386486053467">
        <time>2026-08-20T05:52:12Z</time>
      </trkpt>
      <trkpt lat="59.113354682922363" lon="30.490386486053467">
        <time>2026-08-20T05:52:14Z</time>
      </trkpt>
      <trkpt lat="59.113354682922363" lon="30.490386486053467">
        <time>2026-08-20T05:52:17Z</time>
      </trkpt>
      <trkpt lat="59.113354682922363" lon="30.490386486053467">
        <time>2026-08-20T05:52:19Z</time>
      </trkpt>
      <trkpt lat="59.113354682922363" lon="30.490386486053467">
        <time>2026-08-20T05:52:22Z</time>
      </trkpt>
      <trkpt lat="59.113354682922363" lon="30.490386486053467">
        <time>2026-08-20T05:52:24Z</time>
      </trkpt>
      <trkpt lat="59.113354682922363" lon="30.490386486053467">
        <time>2026-08-20T05:52:27Z</time>
      </trkpt>
      <trkpt lat="59.113354682922363" lon="30.490386486053467">
        <time>2026-08-20T05:52:29Z</time>
      </trkpt>
      <trkpt lat="59.113354682922363" lon="30.490386486053467">
        <time>2026-08-20T05:52:32Z</time>
      </trkpt>
      <trkpt lat="59.113354682922363" lon="30.490386486053467">
        <time>2026-08-20T05:52:34Z</time>
      </trkpt>
      <trkpt lat="59.113354682922363" lon="30.490386486053467">
        <time>2026-08-20T05:52:37Z</time>
      </trkpt>
      <trkpt lat="59.113354682922363" lon="30.490386486053467">
        <time>2026-08-20T05:52:39Z</time>
      </trkpt>
      <trkpt lat="59.113354682922363" lon="30.490386486053467">
        <time>2026-08-20T05:52:42Z</time>
      </trkpt>
      <trkpt lat="59.113354682922363" lon="30.490386486053467">
        <time>2026-08-20T05:52:44Z</time>
      </trkpt>
      <trkpt lat="59.113376140594482" lon="30.490407943725586">
        <time>2026-08-20T05:52:47Z</time>
      </trkpt>
      <trkpt lat="59.113376140594482" lon="30.490407943725586">
        <time>2026-08-20T05:52:52Z</time>
      </trkpt>
      <trkpt lat="59.113376140594482" lon="30.490407943725586">
        <time>2026-08-20T05:52:54Z</time>
      </trkpt>
      <trkpt lat="59.113376140594482" lon="30.490407943725586">
        <time>2026-08-20T05:52:57Z</time>
      </trkpt>
      <trkpt lat="59.113376140594482" lon="30.490407943725586">
        <time>2026-08-20T05:52:59Z</time>
      </trkpt>
      <trkpt lat="59.113376140594482" lon="30.490407943725586">
        <time>2026-08-20T05:53:02Z</time>
      </trkpt>
      <trkpt lat="59.113376140594482" lon="30.490407943725586">
        <time>2026-08-20T05:53:04Z</time>
      </trkpt>
      <trkpt lat="59.113376140594482" lon="30.490343570709229">
        <time>2026-08-20T05:53:07Z</time>
      </trkpt>
      <trkpt lat="59.113397598266602" lon="30.490343570709229">
        <time>2026-08-20T05:53:09Z</time>
      </trkpt>
      <trkpt lat="59.113397598266602" lon="30.490343570709229">
        <time>2026-08-20T05:53:12Z</time>
      </trkpt>
      <trkpt lat="59.113397598266602" lon="30.490343570709229">
        <time>2026-08-20T05:53:14Z</time>
      </trkpt>
      <trkpt lat="59.113397598266602" lon="30.490343570709229">
        <time>2026-08-20T05:53:17Z</time>
      </trkpt>
      <trkpt lat="59.113376140594482" lon="30.490407943725586">
        <time>2026-08-20T05:53:19Z</time>
      </trkpt>
      <trkpt lat="59.113376140594482" lon="30.490429401397705">
        <time>2026-08-20T05:53:22Z</time>
      </trkpt>
      <trkpt lat="59.113376140594482" lon="30.490429401397705">
        <time>2026-08-20T05:53:24Z</time>
      </trkpt>
      <trkpt lat="59.113376140594482" lon="30.490429401397705">
        <time>2026-08-20T05:53:27Z</time>
      </trkpt>
      <trkpt lat="59.113376140594482" lon="30.490493774414063">
        <time>2026-08-20T05:53:29Z</time>
      </trkpt>
      <trkpt lat="59.113376140594482" lon="30.490493774414063">
        <time>2026-08-20T05:53:32Z</time>
      </trkpt>
      <trkpt lat="59.113376140594482" lon="30.490493774414063">
        <time>2026-08-20T05:53:34Z</time>
      </trkpt>
      <trkpt lat="59.113376140594482" lon="30.490493774414063">
        <time>2026-08-20T05:53:37Z</time>
      </trkpt>
      <trkpt lat="59.113376140594482" lon="30.490493774414063">
        <time>2026-08-20T05:53:39Z</time>
      </trkpt>
      <trkpt lat="59.113333225250244" lon="30.490493774414063">
        <time>2026-08-20T05:53:42Z</time>
      </trkpt>
      <trkpt lat="59.113311767578125" lon="30.490536689758301">
        <time>2026-08-20T05:53:44Z</time>
      </trkpt>
      <trkpt lat="59.113311767578125" lon="30.490536689758301">
        <time>2026-08-20T05:53:47Z</time>
      </trkpt>
      <trkpt lat="59.113311767578125" lon="30.49055814743042">
        <time>2026-08-20T05:53:49Z</time>
      </trkpt>
      <trkpt lat="59.113290309906006" lon="30.490579605102539">
        <time>2026-08-20T05:53:52Z</time>
      </trkpt>
      <trkpt lat="59.113290309906006" lon="30.490579605102539">
        <time>2026-08-20T05:53:54Z</time>
      </trkpt>
      <trkpt lat="59.113290309906006" lon="30.490579605102539">
        <time>2026-08-20T05:53:57Z</time>
      </trkpt>
      <trkpt lat="59.113290309906006" lon="30.490579605102539">
        <time>2026-08-20T05:53:59Z</time>
      </trkpt>
      <trkpt lat="59.113268852233887" lon="30.490579605102539">
        <time>2026-08-20T05:54:02Z</time>
      </trkpt>
      <trkpt lat="59.113247394561768" lon="30.490622520446777">
        <time>2026-08-20T05:54:04Z</time>
      </trkpt>
      <trkpt lat="59.113247394561768" lon="30.490643978118896">
        <time>2026-08-20T05:54:07Z</time>
      </trkpt>
      <trkpt lat="59.113247394561768" lon="30.490665435791016">
        <time>2026-08-20T05:54:09Z</time>
      </trkpt>
      <trkpt lat="59.113247394561768" lon="30.490665435791016">
        <time>2026-08-20T05:54:12Z</time>
      </trkpt>
      <trkpt lat="59.113247394561768" lon="30.490665435791016">
        <time>2026-08-20T05:54:14Z</time>
      </trkpt>
      <trkpt lat="59.113247394561768" lon="30.490665435791016">
        <time>2026-08-20T05:54:17Z</time>
      </trkpt>
      <trkpt lat="59.113204479217529" lon="30.490643978118896">
        <time>2026-08-20T05:54:19Z</time>
      </trkpt>
      <trkpt lat="59.113204479217529" lon="30.490643978118896">
        <time>2026-08-20T05:54:22Z</time>
      </trkpt>
      <trkpt lat="59.113204479217529" lon="30.490643978118896">
        <time>2026-08-20T05:54:24Z</time>
      </trkpt>
      <trkpt lat="59.113204479217529" lon="30.490643978118896">
        <time>2026-08-20T05:54:27Z</time>
      </trkpt>
      <trkpt lat="59.11318302154541" lon="30.490665435791016">
        <time>2026-08-20T05:54:29Z</time>
      </trkpt>
      <trkpt lat="59.113161563873291" lon="30.490622520446777">
        <time>2026-08-20T05:54:32Z</time>
      </trkpt>
      <trkpt lat="59.113140106201172" lon="30.49055814743042">
        <time>2026-08-20T05:54:34Z</time>
      </trkpt>
      <trkpt lat="59.113097190856934" lon="30.490515232086182">
        <time>2026-08-20T05:54:37Z</time>
      </trkpt>
      <trkpt lat="59.113075733184814" lon="30.490536689758301">
        <time>2026-08-20T05:54:39Z</time>
      </trkpt>
      <trkpt lat="59.113054275512695" lon="30.490579605102539">
        <time>2026-08-20T05:54:42Z</time>
      </trkpt>
      <trkpt lat="59.113011360168457" lon="30.490579605102539">
        <time>2026-08-20T05:54:44Z</time>
      </trkpt>
      <trkpt lat="59.112989902496338" lon="30.490579605102539">
        <time>2026-08-20T05:54:47Z</time>
      </trkpt>
      <trkpt lat="59.112968444824219" lon="30.49055814743042">
        <time>2026-08-20T05:54:49Z</time>
      </trkpt>
      <trkpt lat="59.112968444824219" lon="30.49055814743042">
        <time>2026-08-20T05:54:52Z</time>
      </trkpt>
      <trkpt lat="59.112968444824219" lon="30.49055814743042">
        <time>2026-08-20T05:54:54Z</time>
      </trkpt>
      <trkpt lat="59.112968444824219" lon="30.49055814743042">
        <time>2026-08-20T05:54:57Z</time>
      </trkpt>
      <trkpt lat="59.112968444824219" lon="30.49055814743042">
        <time>2026-08-20T05:54:59Z</time>
      </trkpt>
      <trkpt lat="59.112968444824219" lon="30.490515232086182">
        <time>2026-08-20T05:55:02Z</time>
      </trkpt>
      <trkpt lat="59.112968444824219" lon="30.490493774414063">
        <time>2026-08-20T05:55:04Z</time>
      </trkpt>
      <trkpt lat="59.112968444824219" lon="30.490493774414063">
        <time>2026-08-20T05:55:07Z</time>
      </trkpt>
      <trkpt lat="59.112968444824219" lon="30.490493774414063">
        <time>2026-08-20T05:55:09Z</time>
      </trkpt>
      <trkpt lat="59.112968444824219" lon="30.490493774414063">
        <time>2026-08-20T05:55:12Z</time>
      </trkpt>
      <trkpt lat="59.112968444824219" lon="30.490493774414063">
        <time>2026-08-20T05:55:14Z</time>
      </trkpt>
      <trkpt lat="59.112968444824219" lon="30.490493774414063">
        <time>2026-08-20T05:55:17Z</time>
      </trkpt>
      <trkpt lat="59.112968444824219" lon="30.490493774414063">
        <time>2026-08-20T05:55:19Z</time>
      </trkpt>
      <trkpt lat="59.112968444824219" lon="30.490493774414063">
        <time>2026-08-20T05:55:22Z</time>
      </trkpt>
      <trkpt lat="59.112989902496338" lon="30.490493774414063">
        <time>2026-08-20T05:55:24Z</time>
      </trkpt>
      <trkpt lat="59.112989902496338" lon="30.490450859069824">
        <time>2026-08-20T05:55:27Z</time>
      </trkpt>
      <trkpt lat="59.113011360168457" lon="30.490407943725586">
        <time>2026-08-20T05:55:29Z</time>
      </trkpt>
      <trkpt lat="59.113011360168457" lon="30.490407943725586">
        <time>2026-08-20T05:55:32Z</time>
      </trkpt>
      <trkpt lat="59.113011360168457" lon="30.490407943725586">
        <time>2026-08-20T05:55:34Z</time>
      </trkpt>
      <trkpt lat="59.113011360168457" lon="30.490407943725586">
        <time>2026-08-20T05:55:37Z</time>
      </trkpt>
      <trkpt lat="59.113011360168457" lon="30.490407943725586">
        <time>2026-08-20T05:55:39Z</time>
      </trkpt>
      <trkpt lat="59.113011360168457" lon="30.490429401397705">
        <time>2026-08-20T05:55:42Z</time>
      </trkpt>
      <trkpt lat="59.112989902496338" lon="30.490450859069824">
        <time>2026-08-20T05:55:44Z</time>
      </trkpt>
      <trkpt lat="59.112989902496338" lon="30.490450859069824">
        <time>2026-08-20T05:55:47Z</time>
      </trkpt>
      <trkpt lat="59.112989902496338" lon="30.490450859069824">
        <time>2026-08-20T05:55:49Z</time>
      </trkpt>
      <trkpt lat="59.112989902496338" lon="30.490450859069824">
        <time>2026-08-20T05:55:52Z</time>
      </trkpt>
      <trkpt lat="59.112989902496338" lon="30.490450859069824">
        <time>2026-08-20T05:55:54Z</time>
      </trkpt>
      <trkpt lat="59.112989902496338" lon="30.490450859069824">
        <time>2026-08-20T05:55:57Z</time>
      </trkpt>
      <trkpt lat="59.112989902496338" lon="30.490450859069824">
        <time>2026-08-20T05:55:59Z</time>
      </trkpt>
      <trkpt lat="59.112989902496338" lon="30.490450859069824">
        <time>2026-08-20T05:56:02Z</time>
      </trkpt>
      <trkpt lat="59.112989902496338" lon="30.490450859069824">
        <time>2026-08-20T05:56:04Z</time>
      </trkpt>
      <trkpt lat="59.112989902496338" lon="30.490450859069824">
        <time>2026-08-20T05:56:07Z</time>
      </trkpt>
      <trkpt lat="59.112989902496338" lon="30.490450859069824">
        <time>2026-08-20T05:56:09Z</time>
      </trkpt>
      <trkpt lat="59.112989902496338" lon="30.490450859069824">
        <time>2026-08-20T05:56:12Z</time>
      </trkpt>
      <trkpt lat="59.112989902496338" lon="30.490450859069824">
        <time>2026-08-20T05:56:14Z</time>
      </trkpt>
      <trkpt lat="59.112989902496338" lon="30.490450859069824">
        <time>2026-08-20T05:56:17Z</time>
      </trkpt>
      <trkpt lat="59.112989902496338" lon="30.490450859069824">
        <time>2026-08-20T05:56:19Z</time>
      </trkpt>
      <trkpt lat="59.112989902496338" lon="30.490450859069824">
        <time>2026-08-20T05:56:22Z</time>
      </trkpt>
      <trkpt lat="59.113011360168457" lon="30.490450859069824">
        <time>2026-08-20T05:56:24Z</time>
      </trkpt>
      <trkpt lat="59.113011360168457" lon="30.490450859069824">
        <time>2026-08-20T05:56:27Z</time>
      </trkpt>
      <trkpt lat="59.113011360168457" lon="30.490450859069824">
        <time>2026-08-20T05:56:29Z</time>
      </trkpt>
      <trkpt lat="59.113011360168457" lon="30.490450859069824">
        <time>2026-08-20T05:56:32Z</time>
      </trkpt>
      <trkpt lat="59.113011360168457" lon="30.490450859069824">
        <time>2026-08-20T05:56:34Z</time>
      </trkpt>
      <trkpt lat="59.113011360168457" lon="30.490450859069824">
        <time>2026-08-20T05:56:37Z</time>
      </trkpt>
      <trkpt lat="59.113011360168457" lon="30.490450859069824">
        <time>2026-08-20T05:56:39Z</time>
      </trkpt>
      <trkpt lat="59.113011360168457" lon="30.490450859069824">
        <time>2026-08-20T05:56:42Z</time>
      </trkpt>
      <trkpt lat="59.113011360168457" lon="30.490450859069824">
        <time>2026-08-20T05:56:44Z</time>
      </trkpt>
      <trkpt lat="59.113011360168457" lon="30.490450859069824">
        <time>2026-08-20T05:56:47Z</time>
      </trkpt>
      <trkpt lat="59.113011360168457" lon="30.490450859069824">
        <time>2026-08-20T05:56:49Z</time>
      </trkpt>
      <trkpt lat="59.113011360168457" lon="30.490450859069824">
        <time>2026-08-20T05:56:52Z</time>
      </trkpt>
      <trkpt lat="59.113011360168457" lon="30.490450859069824">
        <time>2026-08-20T05:56:54Z</time>
      </trkpt>
      <trkpt lat="59.113011360168457" lon="30.490450859069824">
        <time>2026-08-20T05:56:57Z</time>
      </trkpt>
      <trkpt lat="59.113011360168457" lon="30.490450859069824">
        <time>2026-08-20T05:56:59Z</time>
      </trkpt>
      <trkpt lat="59.113011360168457" lon="30.490450859069824">
        <time>2026-08-20T05:57:02Z</time>
      </trkpt>
      <trkpt lat="59.112989902496338" lon="30.490450859069824">
        <time>2026-08-20T05:57:04Z</time>
      </trkpt>
      <trkpt lat="59.112989902496338" lon="30.490450859069824">
        <time>2026-08-20T05:57:07Z</time>
      </trkpt>
      <trkpt lat="59.112989902496338" lon="30.490450859069824">
        <time>2026-08-20T05:57:09Z</time>
      </trkpt>
      <trkpt lat="59.112989902496338" lon="30.490450859069824">
        <time>2026-08-20T05:57:12Z</time>
      </trkpt>
      <trkpt lat="59.112989902496338" lon="30.490450859069824">
        <time>2026-08-20T05:57:14Z</time>
      </trkpt>
      <trkpt lat="59.112989902496338" lon="30.490450859069824">
        <time>2026-08-20T05:57:17Z</time>
      </trkpt>
      <trkpt lat="59.112989902496338" lon="30.490450859069824">
        <time>2026-08-20T05:57:19Z</time>
      </trkpt>
      <trkpt lat="59.112989902496338" lon="30.490450859069824">
        <time>2026-08-20T05:57:22Z</time>
      </trkpt>
      <trkpt lat="59.112989902496338" lon="30.490450859069824">
        <time>2026-08-20T05:57:24Z</time>
      </trkpt>
      <trkpt lat="59.112989902496338" lon="30.490450859069824">
        <time>2026-08-20T05:57:27Z</time>
      </trkpt>
      <trkpt lat="59.112989902496338" lon="30.490450859069824">
        <time>2026-08-20T05:57:29Z</time>
      </trkpt>
      <trkpt lat="59.112989902496338" lon="30.490450859069824">
        <time>2026-08-20T05:57:32Z</time>
      </trkpt>
      <trkpt lat="59.112989902496338" lon="30.490450859069824">
        <time>2026-08-20T05:57:34Z</time>
      </trkpt>
      <trkpt lat="59.112989902496338" lon="30.490450859069824">
        <time>2026-08-20T05:57:37Z</time>
      </trkpt>
      <trkpt lat="59.112989902496338" lon="30.490450859069824">
        <time>2026-08-20T05:57:39Z</time>
      </trkpt>
      <trkpt lat="59.112989902496338" lon="30.490450859069824">
        <time>2026-08-20T05:57:42Z</time>
      </trkpt>
      <trkpt lat="59.112989902496338" lon="30.490450859069824">
        <time>2026-08-20T05:57:44Z</time>
      </trkpt>
      <trkpt lat="59.112989902496338" lon="30.490450859069824">
        <time>2026-08-20T05:57:47Z</time>
      </trkpt>
      <trkpt lat="59.112989902496338" lon="30.490450859069824">
        <time>2026-08-20T05:57:49Z</time>
      </trkpt>
      <trkpt lat="59.112989902496338" lon="30.490450859069824">
        <time>2026-08-20T05:57:52Z</time>
      </trkpt>
      <trkpt lat="59.112989902496338" lon="30.490450859069824">
        <time>2026-08-20T05:57:54Z</time>
      </trkpt>
      <trkpt lat="59.112989902496338" lon="30.490450859069824">
        <time>2026-08-20T05:57:57Z</time>
      </trkpt>
      <trkpt lat="59.112989902496338" lon="30.490450859069824">
        <time>2026-08-20T05:57:59Z</time>
      </trkpt>
      <trkpt lat="59.112989902496338" lon="30.490450859069824">
        <time>2026-08-20T05:58:02Z</time>
      </trkpt>
      <trkpt lat="59.112989902496338" lon="30.490450859069824">
        <time>2026-08-20T05:58:04Z</time>
      </trkpt>
      <trkpt lat="59.112989902496338" lon="30.490450859069824">
        <time>2026-08-20T05:58:07Z</time>
      </trkpt>
      <trkpt lat="59.112989902496338" lon="30.490450859069824">
        <time>2026-08-20T05:58:09Z</time>
      </trkpt>
      <trkpt lat="59.112989902496338" lon="30.490450859069824">
        <time>2026-08-20T05:58:12Z</time>
      </trkpt>
      <trkpt lat="59.112989902496338" lon="30.490450859069824">
        <time>2026-08-20T05:58:14Z</time>
      </trkpt>
      <trkpt lat="59.112989902496338" lon="30.490450859069824">
        <time>2026-08-20T05:58:17Z</time>
      </trkpt>
      <trkpt lat="59.112989902496338" lon="30.490450859069824">
        <time>2026-08-20T05:58:19Z</time>
      </trkpt>
      <trkpt lat="59.112989902496338" lon="30.490450859069824">
        <time>2026-08-20T05:58:22Z</time>
      </trkpt>
      <trkpt lat="59.112989902496338" lon="30.490450859069824">
        <time>2026-08-20T05:58:24Z</time>
      </trkpt>
      <trkpt lat="59.112989902496338" lon="30.490450859069824">
        <time>2026-08-20T05:58:27Z</time>
      </trkpt>
      <trkpt lat="59.112989902496338" lon="30.490450859069824">
        <time>2026-08-20T05:58:29Z</time>
      </trkpt>
      <trkpt lat="59.112989902496338" lon="30.490450859069824">
        <time>2026-08-20T05:58:32Z</time>
      </trkpt>
      <trkpt lat="59.112989902496338" lon="30.490450859069824">
        <time>2026-08-20T05:58:34Z</time>
      </trkpt>
      <trkpt lat="59.112989902496338" lon="30.490450859069824">
        <time>2026-08-20T05:58:37Z</time>
      </trkpt>
      <trkpt lat="59.112989902496338" lon="30.490450859069824">
        <time>2026-08-20T05:58:39Z</time>
      </trkpt>
      <trkpt lat="59.112989902496338" lon="30.490450859069824">
        <time>2026-08-20T05:58:42Z</time>
      </trkpt>
      <trkpt lat="59.112989902496338" lon="30.490450859069824">
        <time>2026-08-20T05:58:44Z</time>
      </trkpt>
      <trkpt lat="59.112989902496338" lon="30.490450859069824">
        <time>2026-08-20T05:58:47Z</time>
      </trkpt>
      <trkpt lat="59.112989902496338" lon="30.490450859069824">
        <time>2026-08-20T05:58:49Z</time>
      </trkpt>
      <trkpt lat="59.112989902496338" lon="30.490450859069824">
        <time>2026-08-20T05:58:52Z</time>
      </trkpt>
      <trkpt lat="59.112989902496338" lon="30.490450859069824">
        <time>2026-08-20T05:58:54Z</time>
      </trkpt>
      <trkpt lat="59.112989902496338" lon="30.490450859069824">
        <time>2026-08-20T05:58:57Z</time>
      </trkpt>
      <trkpt lat="59.112989902496338" lon="30.490450859069824">
        <time>2026-08-20T05:58:59Z</time>
      </trkpt>
      <trkpt lat="59.112989902496338" lon="30.490450859069824">
        <time>2026-08-20T05:59:02Z</time>
      </trkpt>
      <trkpt lat="59.113011360168457" lon="30.490429401397705">
        <time>2026-08-20T05:59:04Z</time>
      </trkpt>
      <trkpt lat="59.113011360168457" lon="30.490429401397705">
        <time>2026-08-20T05:59:07Z</time>
      </trkpt>
      <trkpt lat="59.113011360168457" lon="30.490429401397705">
        <time>2026-08-20T05:59:09Z</time>
      </trkpt>
      <trkpt lat="59.113011360168457" lon="30.490429401397705">
        <time>2026-08-20T05:59:12Z</time>
      </trkpt>
      <trkpt lat="59.113011360168457" lon="30.490429401397705">
        <time>2026-08-20T05:59:14Z</time>
      </trkpt>
      <trkpt lat="59.113011360168457" lon="30.490429401397705">
        <time>2026-08-20T05:59:17Z</time>
      </trkpt>
      <trkpt lat="59.113011360168457" lon="30.490429401397705">
        <time>2026-08-20T05:59:19Z</time>
      </trkpt>
      <trkpt lat="59.113011360168457" lon="30.490429401397705">
        <time>2026-08-20T05:59:22Z</time>
      </trkpt>
      <trkpt lat="59.113011360168457" lon="30.490429401397705">
        <time>2026-08-20T05:59:24Z</time>
      </trkpt>
      <trkpt lat="59.113011360168457" lon="30.490429401397705">
        <time>2026-08-20T05:59:27Z</time>
      </trkpt>
      <trkpt lat="59.113011360168457" lon="30.490429401397705">
        <time>2026-08-20T05:59:29Z</time>
      </trkpt>
      <trkpt lat="59.113011360168457" lon="30.490429401397705">
        <time>2026-08-20T05:59:32Z</time>
      </trkpt>
      <trkpt lat="59.113011360168457" lon="30.490429401397705">
        <time>2026-08-20T05:59:34Z</time>
      </trkpt>
      <trkpt lat="59.113011360168457" lon="30.490429401397705">
        <time>2026-08-20T05:59:37Z</time>
      </trkpt>
      <trkpt lat="59.113011360168457" lon="30.490429401397705">
        <time>2026-08-20T05:59:39Z</time>
      </trkpt>
      <trkpt lat="59.113011360168457" lon="30.490429401397705">
        <time>2026-08-20T05:59:42Z</time>
      </trkpt>
      <trkpt lat="59.113011360168457" lon="30.490429401397705">
        <time>2026-08-20T05:59:44Z</time>
      </trkpt>
      <trkpt lat="59.113011360168457" lon="30.490429401397705">
        <time>2026-08-20T05:59:47Z</time>
      </trkpt>
      <trkpt lat="59.113011360168457" lon="30.490429401397705">
        <time>2026-08-20T05:59:49Z</time>
      </trkpt>
      <trkpt lat="59.113011360168457" lon="30.490429401397705">
        <time>2026-08-20T05:59:52Z</time>
      </trkpt>
      <trkpt lat="59.113011360168457" lon="30.490429401397705">
        <time>2026-08-20T05:59:54Z</time>
      </trkpt>
      <trkpt lat="59.113011360168457" lon="30.490429401397705">
        <time>2026-08-20T05:59:57Z</time>
      </trkpt>
      <trkpt lat="59.113011360168457" lon="30.490429401397705">
        <time>2026-08-20T05:59:59Z</time>
      </trkpt>
      <trkpt lat="59.113011360168457" lon="30.490429401397705">
        <time>2026-08-20T06:00:02Z</time>
      </trkpt>
      <trkpt lat="59.113011360168457" lon="30.490407943725586">
        <time>2026-08-20T06:00:04Z</time>
      </trkpt>
      <trkpt lat="59.113011360168457" lon="30.490407943725586">
        <time>2026-08-20T06:00:07Z</time>
      </trkpt>
      <trkpt lat="59.113032817840576" lon="30.490343570709229">
        <time>2026-08-20T06:00:09Z</time>
      </trkpt>
      <trkpt lat="59.113054275512695" lon="30.490322113037109">
        <time>2026-08-20T06:00:12Z</time>
      </trkpt>
      <trkpt lat="59.113054275512695" lon="30.49030065536499">
        <time>2026-08-20T06:00:14Z</time>
      </trkpt>
      <trkpt lat="59.113054275512695" lon="30.490279197692871">
        <time>2026-08-20T06:00:17Z</time>
      </trkpt>
      <trkpt lat="59.113054275512695" lon="30.490214824676514">
        <time>2026-08-20T06:00:19Z</time>
      </trkpt>
      <trkpt lat="59.113054275512695" lon="30.490193367004395">
        <time>2026-08-20T06:00:22Z</time>
      </trkpt>
      <trkpt lat="59.113054275512695" lon="30.490171909332275">
        <time>2026-08-20T06:00:24Z</time>
      </trkpt>
      <trkpt lat="59.113054275512695" lon="30.490150451660156">
        <time>2026-08-20T06:00:27Z</time>
      </trkpt>
      <trkpt lat="59.113054275512695" lon="30.49006462097168">
        <time>2026-08-20T06:00:29Z</time>
      </trkpt>
      <trkpt lat="59.113054275512695" lon="30.490043163299561">
        <time>2026-08-20T06:00:32Z</time>
      </trkpt>
      <trkpt lat="59.113054275512695" lon="30.490043163299561">
        <time>2026-08-20T06:00:34Z</time>
      </trkpt>
      <trkpt lat="59.113054275512695" lon="30.490043163299561">
        <time>2026-08-20T06:00:37Z</time>
      </trkpt>
      <trkpt lat="59.113054275512695" lon="30.490021705627441">
        <time>2026-08-20T06:00:39Z</time>
      </trkpt>
      <trkpt lat="59.113054275512695" lon="30.490021705627441">
        <time>2026-08-20T06:00:42Z</time>
      </trkpt>
      <trkpt lat="59.113054275512695" lon="30.490000247955322">
        <time>2026-08-20T06:00:44Z</time>
      </trkpt>
      <trkpt lat="59.113054275512695" lon="30.490000247955322">
        <time>2026-08-20T06:00:47Z</time>
      </trkpt>
      <trkpt lat="59.113054275512695" lon="30.490000247955322">
        <time>2026-08-20T06:00:49Z</time>
      </trkpt>
      <trkpt lat="59.113054275512695" lon="30.489978790283203">
        <time>2026-08-20T06:00:52Z</time>
      </trkpt>
      <trkpt lat="59.113032817840576" lon="30.489978790283203">
        <time>2026-08-20T06:00:54Z</time>
      </trkpt>
      <trkpt lat="59.113032817840576" lon="30.489978790283203">
        <time>2026-08-20T06:00:57Z</time>
      </trkpt>
      <trkpt lat="59.113032817840576" lon="30.489978790283203">
        <time>2026-08-20T06:00:59Z</time>
      </trkpt>
      <trkpt lat="59.113032817840576" lon="30.489957332611084">
        <time>2026-08-20T06:01:02Z</time>
      </trkpt>
      <trkpt lat="59.113032817840576" lon="30.489957332611084">
        <time>2026-08-20T06:01:04Z</time>
      </trkpt>
      <trkpt lat="59.113032817840576" lon="30.489957332611084">
        <time>2026-08-20T06:01:07Z</time>
      </trkpt>
      <trkpt lat="59.113032817840576" lon="30.489871501922607">
        <time>2026-08-20T06:01:09Z</time>
      </trkpt>
      <trkpt lat="59.113054275512695" lon="30.489828586578369">
        <time>2026-08-20T06:01:12Z</time>
      </trkpt>
      <trkpt lat="59.113032817840576" lon="30.489742755889893">
        <time>2026-08-20T06:01:14Z</time>
      </trkpt>
      <trkpt lat="59.113032817840576" lon="30.489742755889893">
        <time>2026-08-20T06:01:17Z</time>
      </trkpt>
      <trkpt lat="59.113032817840576" lon="30.489742755889893">
        <time>2026-08-20T06:01:19Z</time>
      </trkpt>
      <trkpt lat="59.113032817840576" lon="30.489742755889893">
        <time>2026-08-20T06:01:22Z</time>
      </trkpt>
      <trkpt lat="59.113032817840576" lon="30.489742755889893">
        <time>2026-08-20T06:01:24Z</time>
      </trkpt>
      <trkpt lat="59.113032817840576" lon="30.489742755889893">
        <time>2026-08-20T06:01:27Z</time>
      </trkpt>
      <trkpt lat="59.113032817840576" lon="30.489742755889893">
        <time>2026-08-20T06:01:29Z</time>
      </trkpt>
      <trkpt lat="59.113032817840576" lon="30.489721298217773">
        <time>2026-08-20T06:01:32Z</time>
      </trkpt>
      <trkpt lat="59.113032817840576" lon="30.489656925201416">
        <time>2026-08-20T06:01:34Z</time>
      </trkpt>
      <trkpt lat="59.113032817840576" lon="30.489635467529297">
        <time>2026-08-20T06:01:37Z</time>
      </trkpt>
      <trkpt lat="59.113011360168457" lon="30.489635467529297">
        <time>2026-08-20T06:01:39Z</time>
      </trkpt>
      <trkpt lat="59.112989902496338" lon="30.489635467529297">
        <time>2026-08-20T06:01:42Z</time>
      </trkpt>
      <trkpt lat="59.112989902496338" lon="30.489614009857178">
        <time>2026-08-20T06:01:44Z</time>
      </trkpt>
      <trkpt lat="59.112989902496338" lon="30.489592552185059">
        <time>2026-08-20T06:01:47Z</time>
      </trkpt>
      <trkpt lat="59.113011360168457" lon="30.489506721496582">
        <time>2026-08-20T06:01:49Z</time>
      </trkpt>
      <trkpt lat="59.113011360168457" lon="30.489485263824463">
        <time>2026-08-20T06:01:52Z</time>
      </trkpt>
      <trkpt lat="59.112989902496338" lon="30.489463806152344">
        <time>2026-08-20T06:01:54Z</time>
      </trkpt>
      <trkpt lat="59.112989902496338" lon="30.489442348480225">
        <time>2026-08-20T06:01:57Z</time>
      </trkpt>
      <trkpt lat="59.112989902496338" lon="30.489399433135986">
        <time>2026-08-20T06:01:59Z</time>
      </trkpt>
      <trkpt lat="59.112989902496338" lon="30.489356517791748">
        <time>2026-08-20T06:02:02Z</time>
      </trkpt>
      <trkpt lat="59.112968444824219" lon="30.48931360244751">
        <time>2026-08-20T06:02:04Z</time>
      </trkpt>
      <trkpt lat="59.112968444824219" lon="30.489292144775391">
        <time>2026-08-20T06:02:07Z</time>
      </trkpt>
      <trkpt lat="59.1129469871521" lon="30.489227771759033">
        <time>2026-08-20T06:02:09Z</time>
      </trkpt>
      <trkpt lat="59.11292552947998" lon="30.489206314086914">
        <time>2026-08-20T06:02:12Z</time>
      </trkpt>
      <trkpt lat="59.11292552947998" lon="30.489163398742676">
        <time>2026-08-20T06:02:14Z</time>
      </trkpt>
      <trkpt lat="59.11292552947998" lon="30.489141941070557">
        <time>2026-08-20T06:02:17Z</time>
      </trkpt>
      <trkpt lat="59.11292552947998" lon="30.489099025726318">
        <time>2026-08-20T06:02:19Z</time>
      </trkpt>
      <trkpt lat="59.112904071807861" lon="30.489099025726318">
        <time>2026-08-20T06:02:22Z</time>
      </trkpt>
      <trkpt lat="59.112904071807861" lon="30.48905611038208">
        <time>2026-08-20T06:02:24Z</time>
      </trkpt>
      <trkpt lat="59.112882614135742" lon="30.489013195037842">
        <time>2026-08-20T06:02:27Z</time>
      </trkpt>
      <trkpt lat="59.112882614135742" lon="30.489013195037842">
        <time>2026-08-20T06:02:29Z</time>
      </trkpt>
      <trkpt lat="59.112882614135742" lon="30.489013195037842">
        <time>2026-08-20T06:02:32Z</time>
      </trkpt>
      <trkpt lat="59.112882614135742" lon="30.489013195037842">
        <time>2026-08-20T06:02:34Z</time>
      </trkpt>
      <trkpt lat="59.112882614135742" lon="30.489013195037842">
        <time>2026-08-20T06:02:37Z</time>
      </trkpt>
      <trkpt lat="59.112882614135742" lon="30.489013195037842">
        <time>2026-08-20T06:02:39Z</time>
      </trkpt>
      <trkpt lat="59.112882614135742" lon="30.488991737365723">
        <time>2026-08-20T06:02:42Z</time>
      </trkpt>
      <trkpt lat="59.112882614135742" lon="30.488927364349365">
        <time>2026-08-20T06:02:44Z</time>
      </trkpt>
      <trkpt lat="59.112882614135742" lon="30.488884449005127">
        <time>2026-08-20T06:02:47Z</time>
      </trkpt>
      <trkpt lat="59.112904071807861" lon="30.48882007598877">
        <time>2026-08-20T06:02:49Z</time>
      </trkpt>
      <trkpt lat="59.112882614135742" lon="30.48879861831665">
        <time>2026-08-20T06:02:52Z</time>
      </trkpt>
      <trkpt lat="59.112882614135742" lon="30.488734245300293">
        <time>2026-08-20T06:02:54Z</time>
      </trkpt>
      <trkpt lat="59.112882614135742" lon="30.488712787628174">
        <time>2026-08-20T06:02:57Z</time>
      </trkpt>
      <trkpt lat="59.112882614135742" lon="30.488712787628174">
        <time>2026-08-20T06:02:59Z</time>
      </trkpt>
      <trkpt lat="59.112861156463623" lon="30.488712787628174">
        <time>2026-08-20T06:03:02Z</time>
      </trkpt>
      <trkpt lat="59.112839698791504" lon="30.488691329956055">
        <time>2026-08-20T06:03:04Z</time>
      </trkpt>
      <trkpt lat="59.112839698791504" lon="30.488669872283936">
        <time>2026-08-20T06:03:07Z</time>
      </trkpt>
      <trkpt lat="59.112839698791504" lon="30.488584041595459">
        <time>2026-08-20T06:03:09Z</time>
      </trkpt>
      <trkpt lat="59.112818241119385" lon="30.488519668579102">
        <time>2026-08-20T06:03:12Z</time>
      </trkpt>
      <trkpt lat="59.112796783447266" lon="30.488476753234863">
        <time>2026-08-20T06:03:14Z</time>
      </trkpt>
      <trkpt lat="59.112796783447266" lon="30.488433837890625">
        <time>2026-08-20T06:03:17Z</time>
      </trkpt>
      <trkpt lat="59.112818241119385" lon="30.488348007202148">
        <time>2026-08-20T06:03:19Z</time>
      </trkpt>
      <trkpt lat="59.112796783447266" lon="30.488348007202148">
        <time>2026-08-20T06:03:22Z</time>
      </trkpt>
      <trkpt lat="59.112775325775146" lon="30.488326549530029">
        <time>2026-08-20T06:03:24Z</time>
      </trkpt>
      <trkpt lat="59.112775325775146" lon="30.488326549530029">
        <time>2026-08-20T06:03:27Z</time>
      </trkpt>
      <trkpt lat="59.112775325775146" lon="30.488326549530029">
        <time>2026-08-20T06:03:29Z</time>
      </trkpt>
      <trkpt lat="59.112775325775146" lon="30.488326549530029">
        <time>2026-08-20T06:03:32Z</time>
      </trkpt>
      <trkpt lat="59.112775325775146" lon="30.488369464874268">
        <time>2026-08-20T06:03:34Z</time>
      </trkpt>
      <trkpt lat="59.112775325775146" lon="30.488412380218506">
        <time>2026-08-20T06:03:37Z</time>
      </trkpt>
      <trkpt lat="59.112775325775146" lon="30.488412380218506">
        <time>2026-08-20T06:03:39Z</time>
      </trkpt>
      <trkpt lat="59.112775325775146" lon="30.488412380218506">
        <time>2026-08-20T06:03:42Z</time>
      </trkpt>
      <trkpt lat="59.112775325775146" lon="30.488412380218506">
        <time>2026-08-20T06:03:44Z</time>
      </trkpt>
      <trkpt lat="59.112775325775146" lon="30.488412380218506">
        <time>2026-08-20T06:03:47Z</time>
      </trkpt>
      <trkpt lat="59.112775325775146" lon="30.488412380218506">
        <time>2026-08-20T06:03:49Z</time>
      </trkpt>
      <trkpt lat="59.112775325775146" lon="30.488412380218506">
        <time>2026-08-20T06:03:52Z</time>
      </trkpt>
      <trkpt lat="59.112775325775146" lon="30.488412380218506">
        <time>2026-08-20T06:03:54Z</time>
      </trkpt>
      <trkpt lat="59.112775325775146" lon="30.488412380218506">
        <time>2026-08-20T06:03:57Z</time>
      </trkpt>
      <trkpt lat="59.112775325775146" lon="30.488412380218506">
        <time>2026-08-20T06:03:59Z</time>
      </trkpt>
      <trkpt lat="59.112775325775146" lon="30.488412380218506">
        <time>2026-08-20T06:04:02Z</time>
      </trkpt>
      <trkpt lat="59.112775325775146" lon="30.488412380218506">
        <time>2026-08-20T06:04:04Z</time>
      </trkpt>
      <trkpt lat="59.112775325775146" lon="30.488412380218506">
        <time>2026-08-20T06:04:07Z</time>
      </trkpt>
      <trkpt lat="59.112775325775146" lon="30.488412380218506">
        <time>2026-08-20T06:04:09Z</time>
      </trkpt>
      <trkpt lat="59.112775325775146" lon="30.488412380218506">
        <time>2026-08-20T06:04:12Z</time>
      </trkpt>
      <trkpt lat="59.112775325775146" lon="30.488412380218506">
        <time>2026-08-20T06:04:14Z</time>
      </trkpt>
      <trkpt lat="59.112775325775146" lon="30.488412380218506">
        <time>2026-08-20T06:04:17Z</time>
      </trkpt>
      <trkpt lat="59.112775325775146" lon="30.488412380218506">
        <time>2026-08-20T06:04:19Z</time>
      </trkpt>
      <trkpt lat="59.112775325775146" lon="30.488412380218506">
        <time>2026-08-20T06:04:22Z</time>
      </trkpt>
      <trkpt lat="59.112775325775146" lon="30.488390922546387">
        <time>2026-08-20T06:04:24Z</time>
      </trkpt>
      <trkpt lat="59.112775325775146" lon="30.488390922546387">
        <time>2026-08-20T06:04:27Z</time>
      </trkpt>
      <trkpt lat="59.112796783447266" lon="30.48830509185791">
        <time>2026-08-20T06:04:29Z</time>
      </trkpt>
      <trkpt lat="59.112818241119385" lon="30.488262176513672">
        <time>2026-08-20T06:04:32Z</time>
      </trkpt>
      <trkpt lat="59.112796783447266" lon="30.488240718841553">
        <time>2026-08-20T06:04:34Z</time>
      </trkpt>
      <trkpt lat="59.112796783447266" lon="30.488240718841553">
        <time>2026-08-20T06:04:37Z</time>
      </trkpt>
      <trkpt lat="59.112775325775146" lon="30.488219261169434">
        <time>2026-08-20T06:04:39Z</time>
      </trkpt>
      <trkpt lat="59.112775325775146" lon="30.488219261169434">
        <time>2026-08-20T06:04:42Z</time>
      </trkpt>
      <trkpt lat="59.112753868103027" lon="30.488154888153076">
        <time>2026-08-20T06:04:44Z</time>
      </trkpt>
      <trkpt lat="59.112775325775146" lon="30.488154888153076">
        <time>2026-08-20T06:04:47Z</time>
      </trkpt>
      <trkpt lat="59.112775325775146" lon="30.488090515136719">
        <time>2026-08-20T06:04:49Z</time>
      </trkpt>
      <trkpt lat="59.112775325775146" lon="30.4880690574646">
        <time>2026-08-20T06:04:52Z</time>
      </trkpt>
      <trkpt lat="59.112796783447266" lon="30.488026142120361">
        <time>2026-08-20T06:04:54Z</time>
      </trkpt>
      <trkpt lat="59.112818241119385" lon="30.488026142120361">
        <time>2026-08-20T06:04:57Z</time>
      </trkpt>
      <trkpt lat="59.112818241119385" lon="30.487983226776123">
        <time>2026-08-20T06:04:59Z</time>
      </trkpt>
      <trkpt lat="59.112818241119385" lon="30.487961769104004">
        <time>2026-08-20T06:05:02Z</time>
      </trkpt>
      <trkpt lat="59.112818241119385" lon="30.487918853759766">
        <time>2026-08-20T06:05:04Z</time>
      </trkpt>
      <trkpt lat="59.112818241119385" lon="30.487875938415527">
        <time>2026-08-20T06:05:07Z</time>
      </trkpt>
      <trkpt lat="59.112796783447266" lon="30.48781156539917">
        <time>2026-08-20T06:05:09Z</time>
      </trkpt>
      <trkpt lat="59.112796783447266" lon="30.487768650054932">
        <time>2026-08-20T06:05:12Z</time>
      </trkpt>
      <trkpt lat="59.112796783447266" lon="30.487747192382813">
        <time>2026-08-20T06:05:14Z</time>
      </trkpt>
      <trkpt lat="59.112796783447266" lon="30.487747192382813">
        <time>2026-08-20T06:05:17Z</time>
      </trkpt>
      <trkpt lat="59.112818241119385" lon="30.487704277038574">
        <time>2026-08-20T06:05:19Z</time>
      </trkpt>
      <trkpt lat="59.112818241119385" lon="30.487704277038574">
        <time>2026-08-20T06:05:22Z</time>
      </trkpt>
      <trkpt lat="59.112818241119385" lon="30.487704277038574">
        <time>2026-08-20T06:05:24Z</time>
      </trkpt>
      <trkpt lat="59.112818241119385" lon="30.487704277038574">
        <time>2026-08-20T06:05:27Z</time>
      </trkpt>
      <trkpt lat="59.112818241119385" lon="30.487639904022217">
        <time>2026-08-20T06:05:29Z</time>
      </trkpt>
      <trkpt lat="59.112818241119385" lon="30.487639904022217">
        <time>2026-08-20T06:05:32Z</time>
      </trkpt>
      <trkpt lat="59.112818241119385" lon="30.487639904022217">
        <time>2026-08-20T06:05:34Z</time>
      </trkpt>
      <trkpt lat="59.112818241119385" lon="30.487639904022217">
        <time>2026-08-20T06:05:37Z</time>
      </trkpt>
      <trkpt lat="59.112818241119385" lon="30.487618446350098">
        <time>2026-08-20T06:05:39Z</time>
      </trkpt>
      <trkpt lat="59.112818241119385" lon="30.487575531005859">
        <time>2026-08-20T06:05:42Z</time>
      </trkpt>
      <trkpt lat="59.112818241119385" lon="30.487511157989502">
        <time>2026-08-20T06:05:44Z</time>
      </trkpt>
      <trkpt lat="59.112818241119385" lon="30.487468242645264">
        <time>2026-08-20T06:05:47Z</time>
      </trkpt>
      <trkpt lat="59.112818241119385" lon="30.487403869628906">
        <time>2026-08-20T06:05:49Z</time>
      </trkpt>
      <trkpt lat="59.112818241119385" lon="30.487360954284668">
        <time>2026-08-20T06:05:52Z</time>
      </trkpt>
      <trkpt lat="59.112839698791504" lon="30.487296581268311">
        <time>2026-08-20T06:05:54Z</time>
      </trkpt>
      <trkpt lat="59.112839698791504" lon="30.487296581268311">
        <time>2026-08-20T06:05:57Z</time>
      </trkpt>
      <trkpt lat="59.112839698791504" lon="30.487253665924072">
        <time>2026-08-20T06:05:59Z</time>
      </trkpt>
      <trkpt lat="59.112861156463623" lon="30.487210750579834">
        <time>2026-08-20T06:06:02Z</time>
      </trkpt>
      <trkpt lat="59.112839698791504" lon="30.487167835235596">
        <time>2026-08-20T06:06:04Z</time>
      </trkpt>
      <trkpt lat="59.112818241119385" lon="30.487124919891357">
        <time>2026-08-20T06:06:07Z</time>
      </trkpt>
      <trkpt lat="59.112818241119385" lon="30.487039089202881">
        <time>2026-08-20T06:06:09Z</time>
      </trkpt>
      <trkpt lat="59.112818241119385" lon="30.486996173858643">
        <time>2026-08-20T06:06:12Z</time>
      </trkpt>
      <trkpt lat="59.112796783447266" lon="30.486974716186523">
        <time>2026-08-20T06:06:14Z</time>
      </trkpt>
      <trkpt lat="59.112796783447266" lon="30.486953258514404">
        <time>2026-08-20T06:06:17Z</time>
      </trkpt>
      <trkpt lat="59.112796783447266" lon="30.486953258514404">
        <time>2026-08-20T06:06:19Z</time>
      </trkpt>
      <trkpt lat="59.112796783447266" lon="30.486953258514404">
        <time>2026-08-20T06:06:22Z</time>
      </trkpt>
      <trkpt lat="59.112796783447266" lon="30.486953258514404">
        <time>2026-08-20T06:06:27Z</time>
      </trkpt>
      <trkpt lat="59.112796783447266" lon="30.486953258514404">
        <time>2026-08-20T06:06:29Z</time>
      </trkpt>
      <trkpt lat="59.112775325775146" lon="30.486996173858643">
        <time>2026-08-20T06:06:32Z</time>
      </trkpt>
      <trkpt lat="59.112753868103027" lon="30.487017631530762">
        <time>2026-08-20T06:06:34Z</time>
      </trkpt>
      <trkpt lat="59.112753868103027" lon="30.487017631530762">
        <time>2026-08-20T06:06:37Z</time>
      </trkpt>
      <trkpt lat="59.112753868103027" lon="30.486996173858643">
        <time>2026-08-20T06:06:39Z</time>
      </trkpt>
      <trkpt lat="59.112753868103027" lon="30.486996173858643">
        <time>2026-08-20T06:06:42Z</time>
      </trkpt>
      <trkpt lat="59.112732410430908" lon="30.486953258514404">
        <time>2026-08-20T06:06:44Z</time>
      </trkpt>
      <trkpt lat="59.112710952758789" lon="30.486845970153809">
        <time>2026-08-20T06:06:47Z</time>
      </trkpt>
      <trkpt lat="59.112710952758789" lon="30.486824512481689">
        <time>2026-08-20T06:06:49Z</time>
      </trkpt>
      <trkpt lat="59.11268949508667" lon="30.486760139465332">
        <time>2026-08-20T06:06:52Z</time>
      </trkpt>
      <trkpt lat="59.11268949508667" lon="30.486717224121094">
        <time>2026-08-20T06:06:54Z</time>
      </trkpt>
      <trkpt lat="59.112668037414551" lon="30.486631393432617">
        <time>2026-08-20T06:06:57Z</time>
      </trkpt>
      <trkpt lat="59.112668037414551" lon="30.486588478088379">
        <time>2026-08-20T06:06:59Z</time>
      </trkpt>
      <trkpt lat="59.112668037414551" lon="30.486588478088379">
        <time>2026-08-20T06:07:02Z</time>
      </trkpt>
      <trkpt lat="59.112668037414551" lon="30.486588478088379">
        <time>2026-08-20T06:07:04Z</time>
      </trkpt>
      <trkpt lat="59.112646579742432" lon="30.486588478088379">
        <time>2026-08-20T06:07:07Z</time>
      </trkpt>
      <trkpt lat="59.112625122070313" lon="30.48656702041626">
        <time>2026-08-20T06:07:09Z</time>
      </trkpt>
      <trkpt lat="59.112625122070313" lon="30.48656702041626">
        <time>2026-08-20T06:07:12Z</time>
      </trkpt>
      <trkpt lat="59.112582206726074" lon="30.48656702041626">
        <time>2026-08-20T06:07:14Z</time>
      </trkpt>
      <trkpt lat="59.112582206726074" lon="30.48656702041626">
        <time>2026-08-20T06:07:17Z</time>
      </trkpt>
      <trkpt lat="59.112582206726074" lon="30.48656702041626">
        <time>2026-08-20T06:07:19Z</time>
      </trkpt>
      <trkpt lat="59.112625122070313" lon="30.486588478088379">
        <time>2026-08-20T06:07:22Z</time>
      </trkpt>
      <trkpt lat="59.112646579742432" lon="30.486609935760498">
        <time>2026-08-20T06:07:24Z</time>
      </trkpt>
      <trkpt lat="59.112646579742432" lon="30.486631393432617">
        <time>2026-08-20T06:07:27Z</time>
      </trkpt>
      <trkpt lat="59.112646579742432" lon="30.486631393432617">
        <time>2026-08-20T06:07:29Z</time>
      </trkpt>
      <trkpt lat="59.112646579742432" lon="30.486631393432617">
        <time>2026-08-20T06:07:32Z</time>
      </trkpt>
      <trkpt lat="59.112646579742432" lon="30.486631393432617">
        <time>2026-08-20T06:07:34Z</time>
      </trkpt>
      <trkpt lat="59.112646579742432" lon="30.486631393432617">
        <time>2026-08-20T06:07:37Z</time>
      </trkpt>
      <trkpt lat="59.112646579742432" lon="30.486631393432617">
        <time>2026-08-20T06:07:39Z</time>
      </trkpt>
      <trkpt lat="59.112646579742432" lon="30.486631393432617">
        <time>2026-08-20T06:07:42Z</time>
      </trkpt>
      <trkpt lat="59.112646579742432" lon="30.486631393432617">
        <time>2026-08-20T06:07:44Z</time>
      </trkpt>
      <trkpt lat="59.112646579742432" lon="30.486631393432617">
        <time>2026-08-20T06:07:47Z</time>
      </trkpt>
      <trkpt lat="59.112646579742432" lon="30.486631393432617">
        <time>2026-08-20T06:07:49Z</time>
      </trkpt>
      <trkpt lat="59.112646579742432" lon="30.486631393432617">
        <time>2026-08-20T06:07:52Z</time>
      </trkpt>
      <trkpt lat="59.112646579742432" lon="30.486631393432617">
        <time>2026-08-20T06:07:54Z</time>
      </trkpt>
      <trkpt lat="59.112646579742432" lon="30.486631393432617">
        <time>2026-08-20T06:07:57Z</time>
      </trkpt>
      <trkpt lat="59.112646579742432" lon="30.486631393432617">
        <time>2026-08-20T06:07:59Z</time>
      </trkpt>
      <trkpt lat="59.112646579742432" lon="30.486631393432617">
        <time>2026-08-20T06:08:02Z</time>
      </trkpt>
      <trkpt lat="59.112646579742432" lon="30.486631393432617">
        <time>2026-08-20T06:08:04Z</time>
      </trkpt>
      <trkpt lat="59.112646579742432" lon="30.486631393432617">
        <time>2026-08-20T06:08:07Z</time>
      </trkpt>
      <trkpt lat="59.112646579742432" lon="30.486631393432617">
        <time>2026-08-20T06:08:09Z</time>
      </trkpt>
      <trkpt lat="59.112646579742432" lon="30.486631393432617">
        <time>2026-08-20T06:08:12Z</time>
      </trkpt>
      <trkpt lat="59.112646579742432" lon="30.486631393432617">
        <time>2026-08-20T06:08:14Z</time>
      </trkpt>
      <trkpt lat="59.112646579742432" lon="30.486631393432617">
        <time>2026-08-20T06:08:17Z</time>
      </trkpt>
      <trkpt lat="59.112646579742432" lon="30.486631393432617">
        <time>2026-08-20T06:08:19Z</time>
      </trkpt>
      <trkpt lat="59.112646579742432" lon="30.486631393432617">
        <time>2026-08-20T06:08:22Z</time>
      </trkpt>
      <trkpt lat="59.112646579742432" lon="30.486631393432617">
        <time>2026-08-20T06:08:24Z</time>
      </trkpt>
      <trkpt lat="59.112646579742432" lon="30.486631393432617">
        <time>2026-08-20T06:08:27Z</time>
      </trkpt>
      <trkpt lat="59.112646579742432" lon="30.486631393432617">
        <time>2026-08-20T06:08:29Z</time>
      </trkpt>
      <trkpt lat="59.112646579742432" lon="30.486631393432617">
        <time>2026-08-20T06:08:32Z</time>
      </trkpt>
      <trkpt lat="59.112646579742432" lon="30.486631393432617">
        <time>2026-08-20T06:08:34Z</time>
      </trkpt>
      <trkpt lat="59.112646579742432" lon="30.486631393432617">
        <time>2026-08-20T06:08:37Z</time>
      </trkpt>
      <trkpt lat="59.112646579742432" lon="30.486631393432617">
        <time>2026-08-20T06:08:39Z</time>
      </trkpt>
      <trkpt lat="59.112646579742432" lon="30.486631393432617">
        <time>2026-08-20T06:08:42Z</time>
      </trkpt>
      <trkpt lat="59.112646579742432" lon="30.486631393432617">
        <time>2026-08-20T06:08:44Z</time>
      </trkpt>
      <trkpt lat="59.112646579742432" lon="30.486631393432617">
        <time>2026-08-20T06:08:47Z</time>
      </trkpt>
      <trkpt lat="59.112646579742432" lon="30.486631393432617">
        <time>2026-08-20T06:08:49Z</time>
      </trkpt>
      <trkpt lat="59.112646579742432" lon="30.486631393432617">
        <time>2026-08-20T06:08:52Z</time>
      </trkpt>
      <trkpt lat="59.112646579742432" lon="30.486631393432617">
        <time>2026-08-20T06:08:54Z</time>
      </trkpt>
      <trkpt lat="59.112646579742432" lon="30.486631393432617">
        <time>2026-08-20T06:08:57Z</time>
      </trkpt>
      <trkpt lat="59.112646579742432" lon="30.486631393432617">
        <time>2026-08-20T06:08:59Z</time>
      </trkpt>
      <trkpt lat="59.112646579742432" lon="30.486631393432617">
        <time>2026-08-20T06:09:02Z</time>
      </trkpt>
      <trkpt lat="59.112646579742432" lon="30.486609935760498">
        <time>2026-08-20T06:09:04Z</time>
      </trkpt>
      <trkpt lat="59.112646579742432" lon="30.486588478088379">
        <time>2026-08-20T06:09:07Z</time>
      </trkpt>
      <trkpt lat="59.112668037414551" lon="30.48656702041626">
        <time>2026-08-20T06:09:09Z</time>
      </trkpt>
      <trkpt lat="59.112668037414551" lon="30.486545562744141">
        <time>2026-08-20T06:09:12Z</time>
      </trkpt>
      <trkpt lat="59.112668037414551" lon="30.486524105072021">
        <time>2026-08-20T06:09:14Z</time>
      </trkpt>
      <trkpt lat="59.112625122070313" lon="30.486438274383545">
        <time>2026-08-20T06:09:19Z</time>
      </trkpt>
      <trkpt lat="59.112625122070313" lon="30.486373901367188">
        <time>2026-08-20T06:09:22Z</time>
      </trkpt>
      <trkpt lat="59.112646579742432" lon="30.486352443695068">
        <time>2026-08-20T06:09:24Z</time>
      </trkpt>
      <trkpt lat="59.112646579742432" lon="30.486352443695068">
        <time>2026-08-20T06:09:27Z</time>
      </trkpt>
      <trkpt lat="59.112646579742432" lon="30.486352443695068">
        <time>2026-08-20T06:09:29Z</time>
      </trkpt>
      <trkpt lat="59.112646579742432" lon="30.486352443695068">
        <time>2026-08-20T06:09:32Z</time>
      </trkpt>
      <trkpt lat="59.112646579742432" lon="30.486352443695068">
        <time>2026-08-20T06:09:34Z</time>
      </trkpt>
      <trkpt lat="59.112646579742432" lon="30.486352443695068">
        <time>2026-08-20T06:09:37Z</time>
      </trkpt>
      <trkpt lat="59.112668037414551" lon="30.486330986022949">
        <time>2026-08-20T06:09:39Z</time>
      </trkpt>
      <trkpt lat="59.112668037414551" lon="30.48630952835083">
        <time>2026-08-20T06:09:42Z</time>
      </trkpt>
      <trkpt lat="59.112668037414551" lon="30.48630952835083">
        <time>2026-08-20T06:09:44Z</time>
      </trkpt>
      <trkpt lat="59.112668037414551" lon="30.48630952835083">
        <time>2026-08-20T06:09:47Z</time>
      </trkpt>
      <trkpt lat="59.112668037414551" lon="30.48630952835083">
        <time>2026-08-20T06:09:49Z</time>
      </trkpt>
      <trkpt lat="59.112668037414551" lon="30.48630952835083">
        <time>2026-08-20T06:09:52Z</time>
      </trkpt>
      <trkpt lat="59.112668037414551" lon="30.48630952835083">
        <time>2026-08-20T06:09:54Z</time>
      </trkpt>
      <trkpt lat="59.112646579742432" lon="30.486288070678711">
        <time>2026-08-20T06:09:57Z</time>
      </trkpt>
      <trkpt lat="59.112646579742432" lon="30.486288070678711">
        <time>2026-08-20T06:09:59Z</time>
      </trkpt>
      <trkpt lat="59.112646579742432" lon="30.486266613006592">
        <time>2026-08-20T06:10:02Z</time>
      </trkpt>
      <trkpt lat="59.112625122070313" lon="30.486223697662354">
        <time>2026-08-20T06:10:04Z</time>
      </trkpt>
      <trkpt lat="59.112625122070313" lon="30.486180782318115">
        <time>2026-08-20T06:10:07Z</time>
      </trkpt>
      <trkpt lat="59.112625122070313" lon="30.486159324645996">
        <time>2026-08-20T06:10:09Z</time>
      </trkpt>
      <trkpt lat="59.112625122070313" lon="30.486180782318115">
        <time>2026-08-20T06:10:12Z</time>
      </trkpt>
      <trkpt lat="59.112646579742432" lon="30.486159324645996">
        <time>2026-08-20T06:10:14Z</time>
      </trkpt>
      <trkpt lat="59.112668037414551" lon="30.486159324645996">
        <time>2026-08-20T06:10:17Z</time>
      </trkpt>
      <trkpt lat="59.11268949508667" lon="30.486159324645996">
        <time>2026-08-20T06:10:19Z</time>
      </trkpt>
      <trkpt lat="59.112710952758789" lon="30.486159324645996">
        <time>2026-08-20T06:10:22Z</time>
      </trkpt>
      <trkpt lat="59.112710952758789" lon="30.486159324645996">
        <time>2026-08-20T06:10:24Z</time>
      </trkpt>
      <trkpt lat="59.112710952758789" lon="30.486180782318115">
        <time>2026-08-20T06:10:27Z</time>
      </trkpt>
      <trkpt lat="59.11268949508667" lon="30.486180782318115">
        <time>2026-08-20T06:10:29Z</time>
      </trkpt>
      <trkpt lat="59.11268949508667" lon="30.486180782318115">
        <time>2026-08-20T06:10:32Z</time>
      </trkpt>
      <trkpt lat="59.11268949508667" lon="30.486180782318115">
        <time>2026-08-20T06:10:34Z</time>
      </trkpt>
      <trkpt lat="59.11268949508667" lon="30.486180782318115">
        <time>2026-08-20T06:10:37Z</time>
      </trkpt>
      <trkpt lat="59.11268949508667" lon="30.486180782318115">
        <time>2026-08-20T06:10:39Z</time>
      </trkpt>
      <trkpt lat="59.11268949508667" lon="30.486180782318115">
        <time>2026-08-20T06:10:42Z</time>
      </trkpt>
      <trkpt lat="59.11268949508667" lon="30.486180782318115">
        <time>2026-08-20T06:10:44Z</time>
      </trkpt>
      <trkpt lat="59.11268949508667" lon="30.486202239990234">
        <time>2026-08-20T06:10:47Z</time>
      </trkpt>
      <trkpt lat="59.11268949508667" lon="30.486202239990234">
        <time>2026-08-20T06:10:49Z</time>
      </trkpt>
      <trkpt lat="59.11268949508667" lon="30.486223697662354">
        <time>2026-08-20T06:10:52Z</time>
      </trkpt>
      <trkpt lat="59.112668037414551" lon="30.486245155334473">
        <time>2026-08-20T06:10:54Z</time>
      </trkpt>
      <trkpt lat="59.112668037414551" lon="30.486245155334473">
        <time>2026-08-20T06:10:57Z</time>
      </trkpt>
      <trkpt lat="59.112668037414551" lon="30.486245155334473">
        <time>2026-08-20T06:10:59Z</time>
      </trkpt>
      <trkpt lat="59.112668037414551" lon="30.486245155334473">
        <time>2026-08-20T06:11:02Z</time>
      </trkpt>
      <trkpt lat="59.112668037414551" lon="30.486245155334473">
        <time>2026-08-20T06:11:04Z</time>
      </trkpt>
      <trkpt lat="59.112668037414551" lon="30.486245155334473">
        <time>2026-08-20T06:11:07Z</time>
      </trkpt>
      <trkpt lat="59.112668037414551" lon="30.486245155334473">
        <time>2026-08-20T06:11:09Z</time>
      </trkpt>
      <trkpt lat="59.112668037414551" lon="30.486245155334473">
        <time>2026-08-20T06:11:12Z</time>
      </trkpt>
      <trkpt lat="59.112668037414551" lon="30.486245155334473">
        <time>2026-08-20T06:11:14Z</time>
      </trkpt>
      <trkpt lat="59.112668037414551" lon="30.486245155334473">
        <time>2026-08-20T06:11:17Z</time>
      </trkpt>
      <trkpt lat="59.112668037414551" lon="30.486245155334473">
        <time>2026-08-20T06:11:19Z</time>
      </trkpt>
      <trkpt lat="59.112668037414551" lon="30.486245155334473">
        <time>2026-08-20T06:11:22Z</time>
      </trkpt>
      <trkpt lat="59.112668037414551" lon="30.486245155334473">
        <time>2026-08-20T06:11:24Z</time>
      </trkpt>
      <trkpt lat="59.112668037414551" lon="30.486245155334473">
        <time>2026-08-20T06:11:27Z</time>
      </trkpt>
      <trkpt lat="59.112668037414551" lon="30.486245155334473">
        <time>2026-08-20T06:11:29Z</time>
      </trkpt>
      <trkpt lat="59.112668037414551" lon="30.486245155334473">
        <time>2026-08-20T06:11:32Z</time>
      </trkpt>
      <trkpt lat="59.112668037414551" lon="30.486245155334473">
        <time>2026-08-20T06:11:34Z</time>
      </trkpt>
      <trkpt lat="59.112668037414551" lon="30.486245155334473">
        <time>2026-08-20T06:11:37Z</time>
      </trkpt>
      <trkpt lat="59.112668037414551" lon="30.486245155334473">
        <time>2026-08-20T06:11:39Z</time>
      </trkpt>
      <trkpt lat="59.112668037414551" lon="30.486245155334473">
        <time>2026-08-20T06:11:42Z</time>
      </trkpt>
      <trkpt lat="59.112668037414551" lon="30.486245155334473">
        <time>2026-08-20T06:11:44Z</time>
      </trkpt>
      <trkpt lat="59.112668037414551" lon="30.486245155334473">
        <time>2026-08-20T06:11:47Z</time>
      </trkpt>
      <trkpt lat="59.112668037414551" lon="30.486245155334473">
        <time>2026-08-20T06:11:49Z</time>
      </trkpt>
      <trkpt lat="59.112668037414551" lon="30.486245155334473">
        <time>2026-08-20T06:11:52Z</time>
      </trkpt>
      <trkpt lat="59.112668037414551" lon="30.486245155334473">
        <time>2026-08-20T06:11:54Z</time>
      </trkpt>
      <trkpt lat="59.112668037414551" lon="30.486245155334473">
        <time>2026-08-20T06:11:57Z</time>
      </trkpt>
      <trkpt lat="59.112668037414551" lon="30.486245155334473">
        <time>2026-08-20T06:11:59Z</time>
      </trkpt>
      <trkpt lat="59.112668037414551" lon="30.486245155334473">
        <time>2026-08-20T06:12:02Z</time>
      </trkpt>
      <trkpt lat="59.112668037414551" lon="30.486245155334473">
        <time>2026-08-20T06:12:04Z</time>
      </trkpt>
      <trkpt lat="59.112668037414551" lon="30.486245155334473">
        <time>2026-08-20T06:12:07Z</time>
      </trkpt>
      <trkpt lat="59.112668037414551" lon="30.486245155334473">
        <time>2026-08-20T06:12:09Z</time>
      </trkpt>
      <trkpt lat="59.112668037414551" lon="30.486245155334473">
        <time>2026-08-20T06:12:12Z</time>
      </trkpt>
      <trkpt lat="59.112668037414551" lon="30.486245155334473">
        <time>2026-08-20T06:12:14Z</time>
      </trkpt>
      <trkpt lat="59.112668037414551" lon="30.486223697662354">
        <time>2026-08-20T06:12:17Z</time>
      </trkpt>
      <trkpt lat="59.112668037414551" lon="30.486202239990234">
        <time>2026-08-20T06:12:19Z</time>
      </trkpt>
      <trkpt lat="59.112668037414551" lon="30.486202239990234">
        <time>2026-08-20T06:12:22Z</time>
      </trkpt>
      <trkpt lat="59.112646579742432" lon="30.486202239990234">
        <time>2026-08-20T06:12:24Z</time>
      </trkpt>
      <trkpt lat="59.112646579742432" lon="30.486180782318115">
        <time>2026-08-20T06:12:27Z</time>
      </trkpt>
      <trkpt lat="59.112625122070313" lon="30.486180782318115">
        <time>2026-08-20T06:12:29Z</time>
      </trkpt>
      <trkpt lat="59.112625122070313" lon="30.486159324645996">
        <time>2026-08-20T06:12:32Z</time>
      </trkpt>
      <trkpt lat="59.112625122070313" lon="30.486223697662354">
        <time>2026-08-20T06:12:34Z</time>
      </trkpt>
      <trkpt lat="59.112625122070313" lon="30.486223697662354">
        <time>2026-08-20T06:12:37Z</time>
      </trkpt>
      <trkpt lat="59.112625122070313" lon="30.486223697662354">
        <time>2026-08-20T06:12:39Z</time>
      </trkpt>
      <trkpt lat="59.112625122070313" lon="30.486223697662354">
        <time>2026-08-20T06:12:42Z</time>
      </trkpt>
      <trkpt lat="59.112625122070313" lon="30.486223697662354">
        <time>2026-08-20T06:12:44Z</time>
      </trkpt>
      <trkpt lat="59.112625122070313" lon="30.486223697662354">
        <time>2026-08-20T06:12:47Z</time>
      </trkpt>
      <trkpt lat="59.112625122070313" lon="30.486223697662354">
        <time>2026-08-20T06:12:49Z</time>
      </trkpt>
      <trkpt lat="59.112625122070313" lon="30.486223697662354">
        <time>2026-08-20T06:12:52Z</time>
      </trkpt>
      <trkpt lat="59.112625122070313" lon="30.486223697662354">
        <time>2026-08-20T06:12:54Z</time>
      </trkpt>
      <trkpt lat="59.112625122070313" lon="30.486223697662354">
        <time>2026-08-20T06:12:57Z</time>
      </trkpt>
      <trkpt lat="59.112625122070313" lon="30.486223697662354">
        <time>2026-08-20T06:12:59Z</time>
      </trkpt>
      <trkpt lat="59.112625122070313" lon="30.486223697662354">
        <time>2026-08-20T06:13:02Z</time>
      </trkpt>
      <trkpt lat="59.112625122070313" lon="30.486223697662354">
        <time>2026-08-20T06:13:04Z</time>
      </trkpt>
      <trkpt lat="59.112603664398193" lon="30.486202239990234">
        <time>2026-08-20T06:13:07Z</time>
      </trkpt>
      <trkpt lat="59.112603664398193" lon="30.486180782318115">
        <time>2026-08-20T06:13:09Z</time>
      </trkpt>
      <trkpt lat="59.112603664398193" lon="30.486180782318115">
        <time>2026-08-20T06:13:12Z</time>
      </trkpt>
      <trkpt lat="59.112603664398193" lon="30.486180782318115">
        <time>2026-08-20T06:13:14Z</time>
      </trkpt>
      <trkpt lat="59.112625122070313" lon="30.486159324645996">
        <time>2026-08-20T06:13:17Z</time>
      </trkpt>
      <trkpt lat="59.112625122070313" lon="30.486137866973877">
        <time>2026-08-20T06:13:19Z</time>
      </trkpt>
      <trkpt lat="59.112646579742432" lon="30.48607349395752">
        <time>2026-08-20T06:13:22Z</time>
      </trkpt>
      <trkpt lat="59.112668037414551" lon="30.486030578613281">
        <time>2026-08-20T06:13:24Z</time>
      </trkpt>
      <trkpt lat="59.112710952758789" lon="30.485944747924805">
        <time>2026-08-20T06:13:27Z</time>
      </trkpt>
      <trkpt lat="59.112710952758789" lon="30.485944747924805">
        <time>2026-08-20T06:13:29Z</time>
      </trkpt>
      <trkpt lat="59.112732410430908" lon="30.485944747924805">
        <time>2026-08-20T06:13:32Z</time>
      </trkpt>
      <trkpt lat="59.112775325775146" lon="30.485966205596924">
        <time>2026-08-20T06:13:37Z</time>
      </trkpt>
      <trkpt lat="59.112796783447266" lon="30.485923290252686">
        <time>2026-08-20T06:13:39Z</time>
      </trkpt>
      <trkpt lat="59.112796783447266" lon="30.485880374908447">
        <time>2026-08-20T06:13:44Z</time>
      </trkpt>
      <trkpt lat="59.112818241119385" lon="30.485773086547852">
        <time>2026-08-20T06:13:47Z</time>
      </trkpt>
      <trkpt lat="59.112796783447266" lon="30.485730171203613">
        <time>2026-08-20T06:13:49Z</time>
      </trkpt>
      <trkpt lat="59.112775325775146" lon="30.485687255859375">
        <time>2026-08-20T06:13:52Z</time>
      </trkpt>
      <trkpt lat="59.112775325775146" lon="30.485622882843018">
        <time>2026-08-20T06:13:54Z</time>
      </trkpt>
      <trkpt lat="59.112775325775146" lon="30.48555850982666">
        <time>2026-08-20T06:13:57Z</time>
      </trkpt>
      <trkpt lat="59.112753868103027" lon="30.485515594482422">
        <time>2026-08-20T06:13:59Z</time>
      </trkpt>
      <trkpt lat="59.112775325775146" lon="30.485429763793945">
        <time>2026-08-20T06:14:02Z</time>
      </trkpt>
      <trkpt lat="59.112753868103027" lon="30.485365390777588">
        <time>2026-08-20T06:14:04Z</time>
      </trkpt>
      <trkpt lat="59.112732410430908" lon="30.48530101776123">
        <time>2026-08-20T06:14:07Z</time>
      </trkpt>
      <trkpt lat="59.112710952758789" lon="30.485258102416992">
        <time>2026-08-20T06:14:09Z</time>
      </trkpt>
      <trkpt lat="59.112732410430908" lon="30.485215187072754">
        <time>2026-08-20T06:14:12Z</time>
      </trkpt>
      <trkpt lat="59.112710952758789" lon="30.485150814056396">
        <time>2026-08-20T06:14:14Z</time>
      </trkpt>
      <trkpt lat="59.112710952758789" lon="30.485129356384277">
        <time>2026-08-20T06:14:17Z</time>
      </trkpt>
      <trkpt lat="59.11268949508667" lon="30.485086441040039">
        <time>2026-08-20T06:14:19Z</time>
      </trkpt>
      <trkpt lat="59.112710952758789" lon="30.48506498336792">
        <time>2026-08-20T06:14:22Z</time>
      </trkpt>
      <trkpt lat="59.112753868103027" lon="30.485022068023682">
        <time>2026-08-20T06:14:24Z</time>
      </trkpt>
      <trkpt lat="59.112753868103027" lon="30.485022068023682">
        <time>2026-08-20T06:14:27Z</time>
      </trkpt>
      <trkpt lat="59.112753868103027" lon="30.485022068023682">
        <time>2026-08-20T06:14:29Z</time>
      </trkpt>
      <trkpt lat="59.112753868103027" lon="30.485022068023682">
        <time>2026-08-20T06:14:32Z</time>
      </trkpt>
      <trkpt lat="59.112753868103027" lon="30.485022068023682">
        <time>2026-08-20T06:14:34Z</time>
      </trkpt>
      <trkpt lat="59.112775325775146" lon="30.484979152679443">
        <time>2026-08-20T06:14:37Z</time>
      </trkpt>
      <trkpt lat="59.112796783447266" lon="30.484936237335205">
        <time>2026-08-20T06:14:39Z</time>
      </trkpt>
      <trkpt lat="59.112796783447266" lon="30.484936237335205">
        <time>2026-08-20T06:14:42Z</time>
      </trkpt>
      <trkpt lat="59.112818241119385" lon="30.484893321990967">
        <time>2026-08-20T06:14:44Z</time>
      </trkpt>
      <trkpt lat="59.112818241119385" lon="30.484893321990967">
        <time>2026-08-20T06:14:47Z</time>
      </trkpt>
      <trkpt lat="59.112818241119385" lon="30.484893321990967">
        <time>2026-08-20T06:14:49Z</time>
      </trkpt>
      <trkpt lat="59.112818241119385" lon="30.484893321990967">
        <time>2026-08-20T06:14:52Z</time>
      </trkpt>
      <trkpt lat="59.112818241119385" lon="30.484871864318848">
        <time>2026-08-20T06:14:54Z</time>
      </trkpt>
      <trkpt lat="59.112796783447266" lon="30.48480749130249">
        <time>2026-08-20T06:14:57Z</time>
      </trkpt>
      <trkpt lat="59.112710952758789" lon="30.484764575958252">
        <time>2026-08-20T06:14:59Z</time>
      </trkpt>
      <trkpt lat="59.11268949508667" lon="30.484721660614014">
        <time>2026-08-20T06:15:02Z</time>
      </trkpt>
      <trkpt lat="59.11268949508667" lon="30.484678745269775">
        <time>2026-08-20T06:15:04Z</time>
      </trkpt>
      <trkpt lat="59.11268949508667" lon="30.484678745269775">
        <time>2026-08-20T06:15:07Z</time>
      </trkpt>
      <trkpt lat="59.11268949508667" lon="30.484678745269775">
        <time>2026-08-20T06:15:09Z</time>
      </trkpt>
      <trkpt lat="59.112668037414551" lon="30.484657287597656">
        <time>2026-08-20T06:15:12Z</time>
      </trkpt>
      <trkpt lat="59.112646579742432" lon="30.48457145690918">
        <time>2026-08-20T06:15:14Z</time>
      </trkpt>
      <trkpt lat="59.112646579742432" lon="30.484507083892822">
        <time>2026-08-20T06:15:17Z</time>
      </trkpt>
      <trkpt lat="59.112646579742432" lon="30.484399795532227">
        <time>2026-08-20T06:15:19Z</time>
      </trkpt>
      <trkpt lat="59.112625122070313" lon="30.484335422515869">
        <time>2026-08-20T06:15:22Z</time>
      </trkpt>
      <trkpt lat="59.112625122070313" lon="30.484249591827393">
        <time>2026-08-20T06:15:24Z</time>
      </trkpt>
      <trkpt lat="59.112603664398193" lon="30.484206676483154">
        <time>2026-08-20T06:15:27Z</time>
      </trkpt>
      <trkpt lat="59.112603664398193" lon="30.484142303466797">
        <time>2026-08-20T06:15:29Z</time>
      </trkpt>
      <trkpt lat="59.112603664398193" lon="30.484142303466797">
        <time>2026-08-20T06:15:32Z</time>
      </trkpt>
      <trkpt lat="59.112603664398193" lon="30.484120845794678">
        <time>2026-08-20T06:15:34Z</time>
      </trkpt>
      <trkpt lat="59.112603664398193" lon="30.484077930450439">
        <time>2026-08-20T06:15:37Z</time>
      </trkpt>
      <trkpt lat="59.112582206726074" lon="30.484077930450439">
        <time>2026-08-20T06:15:39Z</time>
      </trkpt>
      <trkpt lat="59.112560749053955" lon="30.484077930450439">
        <time>2026-08-20T06:15:42Z</time>
      </trkpt>
      <trkpt lat="59.112560749053955" lon="30.484035015106201">
        <time>2026-08-20T06:15:44Z</time>
      </trkpt>
      <trkpt lat="59.112582206726074" lon="30.483970642089844">
        <time>2026-08-20T06:15:47Z</time>
      </trkpt>
      <trkpt lat="59.112582206726074" lon="30.483884811401367">
        <time>2026-08-20T06:15:49Z</time>
      </trkpt>
      <trkpt lat="59.112582206726074" lon="30.483798980712891">
        <time>2026-08-20T06:15:52Z</time>
      </trkpt>
      <trkpt lat="59.112560749053955" lon="30.483777523040771">
        <time>2026-08-20T06:15:54Z</time>
      </trkpt>
      <trkpt lat="59.112560749053955" lon="30.483777523040771">
        <time>2026-08-20T06:15:57Z</time>
      </trkpt>
      <trkpt lat="59.112560749053955" lon="30.483734607696533">
        <time>2026-08-20T06:15:59Z</time>
      </trkpt>
      <trkpt lat="59.112560749053955" lon="30.483670234680176">
        <time>2026-08-20T06:16:02Z</time>
      </trkpt>
      <trkpt lat="59.112539291381836" lon="30.483584403991699">
        <time>2026-08-20T06:16:04Z</time>
      </trkpt>
      <trkpt lat="59.112560749053955" lon="30.483541488647461">
        <time>2026-08-20T06:16:07Z</time>
      </trkpt>
      <trkpt lat="59.112560749053955" lon="30.483477115631104">
        <time>2026-08-20T06:16:09Z</time>
      </trkpt>
      <trkpt lat="59.112560749053955" lon="30.483434200286865">
        <time>2026-08-20T06:16:12Z</time>
      </trkpt>
      <trkpt lat="59.112517833709717" lon="30.483391284942627">
        <time>2026-08-20T06:16:14Z</time>
      </trkpt>
      <trkpt lat="59.112517833709717" lon="30.483369827270508">
        <time>2026-08-20T06:16:17Z</time>
      </trkpt>
      <trkpt lat="59.112539291381836" lon="30.48332691192627">
        <time>2026-08-20T06:16:19Z</time>
      </trkpt>
      <trkpt lat="59.112560749053955" lon="30.48330545425415">
        <time>2026-08-20T06:16:22Z</time>
      </trkpt>
      <trkpt lat="59.112603664398193" lon="30.48330545425415">
        <time>2026-08-20T06:16:24Z</time>
      </trkpt>
      <trkpt lat="59.112603664398193" lon="30.48330545425415">
        <time>2026-08-20T06:16:27Z</time>
      </trkpt>
      <trkpt lat="59.112625122070313" lon="30.483283996582031">
        <time>2026-08-20T06:16:29Z</time>
      </trkpt>
      <trkpt lat="59.112668037414551" lon="30.483262538909912">
        <time>2026-08-20T06:16:32Z</time>
      </trkpt>
      <trkpt lat="59.112710952758789" lon="30.483283996582031">
        <time>2026-08-20T06:16:34Z</time>
      </trkpt>
      <trkpt lat="59.112732410430908" lon="30.483241081237793">
        <time>2026-08-20T06:16:37Z</time>
      </trkpt>
      <trkpt lat="59.112753868103027" lon="30.483198165893555">
        <time>2026-08-20T06:16:39Z</time>
      </trkpt>
      <trkpt lat="59.112775325775146" lon="30.483176708221436">
        <time>2026-08-20T06:16:42Z</time>
      </trkpt>
      <trkpt lat="59.112796783447266" lon="30.483090877532959">
        <time>2026-08-20T06:16:44Z</time>
      </trkpt>
      <trkpt lat="59.112818241119385" lon="30.483047962188721">
        <time>2026-08-20T06:16:47Z</time>
      </trkpt>
      <trkpt lat="59.112818241119385" lon="30.483005046844482">
        <time>2026-08-20T06:16:49Z</time>
      </trkpt>
      <trkpt lat="59.112818241119385" lon="30.483005046844482">
        <time>2026-08-20T06:16:52Z</time>
      </trkpt>
      <trkpt lat="59.112818241119385" lon="30.483005046844482">
        <time>2026-08-20T06:16:54Z</time>
      </trkpt>
      <trkpt lat="59.112818241119385" lon="30.483026504516602">
        <time>2026-08-20T06:16:57Z</time>
      </trkpt>
      <trkpt lat="59.112775325775146" lon="30.48306941986084">
        <time>2026-08-20T06:16:59Z</time>
      </trkpt>
      <trkpt lat="59.112753868103027" lon="30.483090877532959">
        <time>2026-08-20T06:17:02Z</time>
      </trkpt>
      <trkpt lat="59.112710952758789" lon="30.483133792877197">
        <time>2026-08-20T06:17:04Z</time>
      </trkpt>
      <trkpt lat="59.11268949508667" lon="30.483176708221436">
        <time>2026-08-20T06:17:07Z</time>
      </trkpt>
      <trkpt lat="59.112646579742432" lon="30.483155250549316">
        <time>2026-08-20T06:17:09Z</time>
      </trkpt>
      <trkpt lat="59.112646579742432" lon="30.483155250549316">
        <time>2026-08-20T06:17:12Z</time>
      </trkpt>
      <trkpt lat="59.112646579742432" lon="30.483155250549316">
        <time>2026-08-20T06:17:14Z</time>
      </trkpt>
      <trkpt lat="59.112646579742432" lon="30.483155250549316">
        <time>2026-08-20T06:17:17Z</time>
      </trkpt>
      <trkpt lat="59.112646579742432" lon="30.483155250549316">
        <time>2026-08-20T06:17:19Z</time>
      </trkpt>
      <trkpt lat="59.112646579742432" lon="30.483155250549316">
        <time>2026-08-20T06:17:22Z</time>
      </trkpt>
      <trkpt lat="59.112646579742432" lon="30.483155250549316">
        <time>2026-08-20T06:17:24Z</time>
      </trkpt>
      <trkpt lat="59.112646579742432" lon="30.483155250549316">
        <time>2026-08-20T06:17:27Z</time>
      </trkpt>
      <trkpt lat="59.112646579742432" lon="30.483155250549316">
        <time>2026-08-20T06:17:29Z</time>
      </trkpt>
      <trkpt lat="59.112646579742432" lon="30.483155250549316">
        <time>2026-08-20T06:17:32Z</time>
      </trkpt>
      <trkpt lat="59.112646579742432" lon="30.483155250549316">
        <time>2026-08-20T06:17:34Z</time>
      </trkpt>
      <trkpt lat="59.112646579742432" lon="30.483155250549316">
        <time>2026-08-20T06:17:37Z</time>
      </trkpt>
      <trkpt lat="59.112646579742432" lon="30.483155250549316">
        <time>2026-08-20T06:17:39Z</time>
      </trkpt>
      <trkpt lat="59.112646579742432" lon="30.483155250549316">
        <time>2026-08-20T06:17:42Z</time>
      </trkpt>
      <trkpt lat="59.112646579742432" lon="30.483155250549316">
        <time>2026-08-20T06:17:44Z</time>
      </trkpt>
      <trkpt lat="59.112646579742432" lon="30.483155250549316">
        <time>2026-08-20T06:17:47Z</time>
      </trkpt>
      <trkpt lat="59.112646579742432" lon="30.483155250549316">
        <time>2026-08-20T06:17:49Z</time>
      </trkpt>
      <trkpt lat="59.112646579742432" lon="30.483155250549316">
        <time>2026-08-20T06:17:52Z</time>
      </trkpt>
      <trkpt lat="59.112646579742432" lon="30.483155250549316">
        <time>2026-08-20T06:17:54Z</time>
      </trkpt>
      <trkpt lat="59.112625122070313" lon="30.483176708221436">
        <time>2026-08-20T06:17:57Z</time>
      </trkpt>
      <trkpt lat="59.112625122070313" lon="30.483176708221436">
        <time>2026-08-20T06:17:59Z</time>
      </trkpt>
      <trkpt lat="59.112625122070313" lon="30.483176708221436">
        <time>2026-08-20T06:18:02Z</time>
      </trkpt>
      <trkpt lat="59.112625122070313" lon="30.483176708221436">
        <time>2026-08-20T06:18:04Z</time>
      </trkpt>
      <trkpt lat="59.112625122070313" lon="30.483176708221436">
        <time>2026-08-20T06:18:07Z</time>
      </trkpt>
      <trkpt lat="59.112625122070313" lon="30.483176708221436">
        <time>2026-08-20T06:18:09Z</time>
      </trkpt>
      <trkpt lat="59.112625122070313" lon="30.483176708221436">
        <time>2026-08-20T06:18:12Z</time>
      </trkpt>
      <trkpt lat="59.112625122070313" lon="30.483176708221436">
        <time>2026-08-20T06:18:14Z</time>
      </trkpt>
      <trkpt lat="59.112625122070313" lon="30.483176708221436">
        <time>2026-08-20T06:18:17Z</time>
      </trkpt>
      <trkpt lat="59.112625122070313" lon="30.483176708221436">
        <time>2026-08-20T06:18:19Z</time>
      </trkpt>
      <trkpt lat="59.112625122070313" lon="30.483176708221436">
        <time>2026-08-20T06:18:22Z</time>
      </trkpt>
      <trkpt lat="59.112625122070313" lon="30.483176708221436">
        <time>2026-08-20T06:18:24Z</time>
      </trkpt>
      <trkpt lat="59.112625122070313" lon="30.483176708221436">
        <time>2026-08-20T06:18:27Z</time>
      </trkpt>
      <trkpt lat="59.112625122070313" lon="30.483176708221436">
        <time>2026-08-20T06:18:29Z</time>
      </trkpt>
      <trkpt lat="59.112625122070313" lon="30.483176708221436">
        <time>2026-08-20T06:18:32Z</time>
      </trkpt>
      <trkpt lat="59.112625122070313" lon="30.483176708221436">
        <time>2026-08-20T06:18:34Z</time>
      </trkpt>
      <trkpt lat="59.112625122070313" lon="30.483176708221436">
        <time>2026-08-20T06:18:37Z</time>
      </trkpt>
      <trkpt lat="59.112625122070313" lon="30.483176708221436">
        <time>2026-08-20T06:18:39Z</time>
      </trkpt>
      <trkpt lat="59.112603664398193" lon="30.483176708221436">
        <time>2026-08-20T06:18:42Z</time>
      </trkpt>
      <trkpt lat="59.112582206726074" lon="30.483155250549316">
        <time>2026-08-20T06:18:44Z</time>
      </trkpt>
      <trkpt lat="59.112582206726074" lon="30.483155250549316">
        <time>2026-08-20T06:18:47Z</time>
      </trkpt>
      <trkpt lat="59.112582206726074" lon="30.483155250549316">
        <time>2026-08-20T06:18:49Z</time>
      </trkpt>
      <trkpt lat="59.112539291381836" lon="30.483155250549316">
        <time>2026-08-20T06:18:52Z</time>
      </trkpt>
      <trkpt lat="59.112496376037598" lon="30.483176708221436">
        <time>2026-08-20T06:18:54Z</time>
      </trkpt>
      <trkpt lat="59.112496376037598" lon="30.483176708221436">
        <time>2026-08-20T06:18:57Z</time>
      </trkpt>
      <trkpt lat="59.112474918365479" lon="30.483133792877197">
        <time>2026-08-20T06:18:59Z</time>
      </trkpt>
      <trkpt lat="59.112453460693359" lon="30.483133792877197">
        <time>2026-08-20T06:19:02Z</time>
      </trkpt>
      <trkpt lat="59.112453460693359" lon="30.483133792877197">
        <time>2026-08-20T06:19:04Z</time>
      </trkpt>
      <trkpt lat="59.11243200302124" lon="30.483155250549316">
        <time>2026-08-20T06:19:07Z</time>
      </trkpt>
      <trkpt lat="59.112410545349121" lon="30.483155250549316">
        <time>2026-08-20T06:19:09Z</time>
      </trkpt>
      <trkpt lat="59.112389087677002" lon="30.483155250549316">
        <time>2026-08-20T06:19:12Z</time>
      </trkpt>
      <trkpt lat="59.112346172332764" lon="30.483112335205078">
        <time>2026-08-20T06:19:14Z</time>
      </trkpt>
      <trkpt lat="59.112324714660645" lon="30.483112335205078">
        <time>2026-08-20T06:19:17Z</time>
      </trkpt>
      <trkpt lat="59.112281799316406" lon="30.483090877532959">
        <time>2026-08-20T06:19:19Z</time>
      </trkpt>
      <trkpt lat="59.112281799316406" lon="30.483090877532959">
        <time>2026-08-20T06:19:22Z</time>
      </trkpt>
      <trkpt lat="59.112260341644287" lon="30.483090877532959">
        <time>2026-08-20T06:19:24Z</time>
      </trkpt>
      <trkpt lat="59.112217426300049" lon="30.48306941986084">
        <time>2026-08-20T06:19:27Z</time>
      </trkpt>
      <trkpt lat="59.112217426300049" lon="30.48306941986084">
        <time>2026-08-20T06:19:29Z</time>
      </trkpt>
      <trkpt lat="59.11219596862793" lon="30.483090877532959">
        <time>2026-08-20T06:19:32Z</time>
      </trkpt>
      <trkpt lat="59.11219596862793" lon="30.483090877532959">
        <time>2026-08-20T06:19:34Z</time>
      </trkpt>
      <trkpt lat="59.112174510955811" lon="30.483090877532959">
        <time>2026-08-20T06:19:37Z</time>
      </trkpt>
      <trkpt lat="59.112153053283691" lon="30.483133792877197">
        <time>2026-08-20T06:19:39Z</time>
      </trkpt>
      <trkpt lat="59.112131595611572" lon="30.483133792877197">
        <time>2026-08-20T06:19:42Z</time>
      </trkpt>
      <trkpt lat="59.112131595611572" lon="30.483133792877197">
        <time>2026-08-20T06:19:44Z</time>
      </trkpt>
      <trkpt lat="59.112110137939453" lon="30.483176708221436">
        <time>2026-08-20T06:19:47Z</time>
      </trkpt>
      <trkpt lat="59.112067222595215" lon="30.483198165893555">
        <time>2026-08-20T06:19:49Z</time>
      </trkpt>
      <trkpt lat="59.112045764923096" lon="30.483198165893555">
        <time>2026-08-20T06:19:52Z</time>
      </trkpt>
      <trkpt lat="59.112045764923096" lon="30.483219623565674">
        <time>2026-08-20T06:19:54Z</time>
      </trkpt>
      <trkpt lat="59.112024307250977" lon="30.483198165893555">
        <time>2026-08-20T06:19:57Z</time>
      </trkpt>
      <trkpt lat="59.112002849578857" lon="30.483176708221436">
        <time>2026-08-20T06:19:59Z</time>
      </trkpt>
      <trkpt lat="59.111959934234619" lon="30.483176708221436">
        <time>2026-08-20T06:20:02Z</time>
      </trkpt>
      <trkpt lat="59.1119384765625" lon="30.483176708221436">
        <time>2026-08-20T06:20:04Z</time>
      </trkpt>
      <trkpt lat="59.1119384765625" lon="30.483176708221436">
        <time>2026-08-20T06:20:07Z</time>
      </trkpt>
      <trkpt lat="59.1119384765625" lon="30.483176708221436">
        <time>2026-08-20T06:20:09Z</time>
      </trkpt>
      <trkpt lat="59.1119384765625" lon="30.483176708221436">
        <time>2026-08-20T06:20:12Z</time>
      </trkpt>
      <trkpt lat="59.1119384765625" lon="30.483176708221436">
        <time>2026-08-20T06:20:14Z</time>
      </trkpt>
      <trkpt lat="59.1119384765625" lon="30.483176708221436">
        <time>2026-08-20T06:20:17Z</time>
      </trkpt>
      <trkpt lat="59.1119384765625" lon="30.483176708221436">
        <time>2026-08-20T06:20:19Z</time>
      </trkpt>
      <trkpt lat="59.1119384765625" lon="30.483176708221436">
        <time>2026-08-20T06:20:22Z</time>
      </trkpt>
      <trkpt lat="59.1119384765625" lon="30.483176708221436">
        <time>2026-08-20T06:20:24Z</time>
      </trkpt>
      <trkpt lat="59.1119384765625" lon="30.483176708221436">
        <time>2026-08-20T06:20:27Z</time>
      </trkpt>
      <trkpt lat="59.1119384765625" lon="30.483176708221436">
        <time>2026-08-20T06:20:29Z</time>
      </trkpt>
      <trkpt lat="59.1119384765625" lon="30.483176708221436">
        <time>2026-08-20T06:20:32Z</time>
      </trkpt>
      <trkpt lat="59.1119384765625" lon="30.483198165893555">
        <time>2026-08-20T06:20:34Z</time>
      </trkpt>
      <trkpt lat="59.1119384765625" lon="30.483198165893555">
        <time>2026-08-20T06:20:37Z</time>
      </trkpt>
      <trkpt lat="59.1119384765625" lon="30.483198165893555">
        <time>2026-08-20T06:20:39Z</time>
      </trkpt>
      <trkpt lat="59.1119384765625" lon="30.483198165893555">
        <time>2026-08-20T06:20:42Z</time>
      </trkpt>
      <trkpt lat="59.1119384765625" lon="30.483198165893555">
        <time>2026-08-20T06:20:44Z</time>
      </trkpt>
      <trkpt lat="59.1119384765625" lon="30.483198165893555">
        <time>2026-08-20T06:20:47Z</time>
      </trkpt>
      <trkpt lat="59.1119384765625" lon="30.483198165893555">
        <time>2026-08-20T06:20:49Z</time>
      </trkpt>
      <trkpt lat="59.1119384765625" lon="30.483198165893555">
        <time>2026-08-20T06:20:52Z</time>
      </trkpt>
      <trkpt lat="59.1119384765625" lon="30.483198165893555">
        <time>2026-08-20T06:20:54Z</time>
      </trkpt>
      <trkpt lat="59.1119384765625" lon="30.483219623565674">
        <time>2026-08-20T06:20:57Z</time>
      </trkpt>
      <trkpt lat="59.1119384765625" lon="30.483241081237793">
        <time>2026-08-20T06:20:59Z</time>
      </trkpt>
      <trkpt lat="59.111959934234619" lon="30.483262538909912">
        <time>2026-08-20T06:21:02Z</time>
      </trkpt>
      <trkpt lat="59.111959934234619" lon="30.483283996582031">
        <time>2026-08-20T06:21:04Z</time>
      </trkpt>
      <trkpt lat="59.111981391906738" lon="30.48330545425415">
        <time>2026-08-20T06:21:07Z</time>
      </trkpt>
      <trkpt lat="59.111981391906738" lon="30.48330545425415">
        <time>2026-08-20T06:21:09Z</time>
      </trkpt>
      <trkpt lat="59.111981391906738" lon="30.48330545425415">
        <time>2026-08-20T06:21:12Z</time>
      </trkpt>
      <trkpt lat="59.111959934234619" lon="30.483283996582031">
        <time>2026-08-20T06:21:14Z</time>
      </trkpt>
      <trkpt lat="59.111959934234619" lon="30.483283996582031">
        <time>2026-08-20T06:21:17Z</time>
      </trkpt>
      <trkpt lat="59.111959934234619" lon="30.483283996582031">
        <time>2026-08-20T06:21:19Z</time>
      </trkpt>
      <trkpt lat="59.1119384765625" lon="30.48332691192627">
        <time>2026-08-20T06:21:22Z</time>
      </trkpt>
      <trkpt lat="59.111959934234619" lon="30.483391284942627">
        <time>2026-08-20T06:21:24Z</time>
      </trkpt>
      <trkpt lat="59.111981391906738" lon="30.483434200286865">
        <time>2026-08-20T06:21:27Z</time>
      </trkpt>
      <trkpt lat="59.112024307250977" lon="30.483498573303223">
        <time>2026-08-20T06:21:29Z</time>
      </trkpt>
      <trkpt lat="59.112045764923096" lon="30.48356294631958">
        <time>2026-08-20T06:21:32Z</time>
      </trkpt>
      <trkpt lat="59.112045764923096" lon="30.48356294631958">
        <time>2026-08-20T06:21:34Z</time>
      </trkpt>
      <trkpt lat="59.112045764923096" lon="30.483584403991699">
        <time>2026-08-20T06:21:37Z</time>
      </trkpt>
      <trkpt lat="59.112024307250977" lon="30.483648777008057">
        <time>2026-08-20T06:21:39Z</time>
      </trkpt>
      <trkpt lat="59.112024307250977" lon="30.483691692352295">
        <time>2026-08-20T06:21:42Z</time>
      </trkpt>
      <trkpt lat="59.112024307250977" lon="30.483713150024414">
        <time>2026-08-20T06:21:44Z</time>
      </trkpt>
      <trkpt lat="59.112024307250977" lon="30.483713150024414">
        <time>2026-08-20T06:21:47Z</time>
      </trkpt>
      <trkpt lat="59.112024307250977" lon="30.483756065368652">
        <time>2026-08-20T06:21:49Z</time>
      </trkpt>
      <trkpt lat="59.112024307250977" lon="30.483798980712891">
        <time>2026-08-20T06:21:52Z</time>
      </trkpt>
      <trkpt lat="59.112045764923096" lon="30.483841896057129">
        <time>2026-08-20T06:21:54Z</time>
      </trkpt>
      <trkpt lat="59.112024307250977" lon="30.483863353729248">
        <time>2026-08-20T06:21:57Z</time>
      </trkpt>
      <trkpt lat="59.112024307250977" lon="30.483906269073486">
        <time>2026-08-20T06:21:59Z</time>
      </trkpt>
      <trkpt lat="59.112045764923096" lon="30.483949184417725">
        <time>2026-08-20T06:22:02Z</time>
      </trkpt>
      <trkpt lat="59.112024307250977" lon="30.483992099761963">
        <time>2026-08-20T06:22:04Z</time>
      </trkpt>
      <trkpt lat="59.112024307250977" lon="30.484013557434082">
        <time>2026-08-20T06:22:07Z</time>
      </trkpt>
      <trkpt lat="59.112024307250977" lon="30.484013557434082">
        <time>2026-08-20T06:22:09Z</time>
      </trkpt>
      <trkpt lat="59.112024307250977" lon="30.484013557434082">
        <time>2026-08-20T06:22:12Z</time>
      </trkpt>
      <trkpt lat="59.112045764923096" lon="30.484035015106201">
        <time>2026-08-20T06:22:14Z</time>
      </trkpt>
      <trkpt lat="59.112045764923096" lon="30.484035015106201">
        <time>2026-08-20T06:22:17Z</time>
      </trkpt>
      <trkpt lat="59.112045764923096" lon="30.484099388122559">
        <time>2026-08-20T06:22:22Z</time>
      </trkpt>
      <trkpt lat="59.112045764923096" lon="30.484120845794678">
        <time>2026-08-20T06:22:24Z</time>
      </trkpt>
      <trkpt lat="59.112045764923096" lon="30.484120845794678">
        <time>2026-08-20T06:22:27Z</time>
      </trkpt>
      <trkpt lat="59.112045764923096" lon="30.484035015106201">
        <time>2026-08-20T06:22:29Z</time>
      </trkpt>
      <trkpt lat="59.112024307250977" lon="30.483970642089844">
        <time>2026-08-20T06:22:32Z</time>
      </trkpt>
      <trkpt lat="59.112002849578857" lon="30.483992099761963">
        <time>2026-08-20T06:22:34Z</time>
      </trkpt>
      <trkpt lat="59.112002849578857" lon="30.483992099761963">
        <time>2026-08-20T06:22:37Z</time>
      </trkpt>
      <trkpt lat="59.111981391906738" lon="30.484013557434082">
        <time>2026-08-20T06:22:39Z</time>
      </trkpt>
      <trkpt lat="59.111959934234619" lon="30.484013557434082">
        <time>2026-08-20T06:22:42Z</time>
      </trkpt>
      <trkpt lat="59.111959934234619" lon="30.484013557434082">
        <time>2026-08-20T06:22:44Z</time>
      </trkpt>
      <trkpt lat="59.111959934234619" lon="30.484013557434082">
        <time>2026-08-20T06:22:47Z</time>
      </trkpt>
      <trkpt lat="59.111959934234619" lon="30.484035015106201">
        <time>2026-08-20T06:22:49Z</time>
      </trkpt>
      <trkpt lat="59.111959934234619" lon="30.484035015106201">
        <time>2026-08-20T06:22:52Z</time>
      </trkpt>
      <trkpt lat="59.111959934234619" lon="30.484035015106201">
        <time>2026-08-20T06:22:54Z</time>
      </trkpt>
      <trkpt lat="59.111959934234619" lon="30.48405647277832">
        <time>2026-08-20T06:22:57Z</time>
      </trkpt>
      <trkpt lat="59.1119384765625" lon="30.484185218811035">
        <time>2026-08-20T06:22:59Z</time>
      </trkpt>
      <trkpt lat="59.1119384765625" lon="30.484206676483154">
        <time>2026-08-20T06:23:02Z</time>
      </trkpt>
      <trkpt lat="59.1119384765625" lon="30.484206676483154">
        <time>2026-08-20T06:23:04Z</time>
      </trkpt>
      <trkpt lat="59.1119384765625" lon="30.484206676483154">
        <time>2026-08-20T06:23:07Z</time>
      </trkpt>
      <trkpt lat="59.1119384765625" lon="30.484206676483154">
        <time>2026-08-20T06:23:09Z</time>
      </trkpt>
      <trkpt lat="59.1119384765625" lon="30.484206676483154">
        <time>2026-08-20T06:23:12Z</time>
      </trkpt>
      <trkpt lat="59.1119384765625" lon="30.484206676483154">
        <time>2026-08-20T06:23:14Z</time>
      </trkpt>
      <trkpt lat="59.111981391906738" lon="30.484421253204346">
        <time>2026-08-20T06:23:19Z</time>
      </trkpt>
      <trkpt lat="59.111981391906738" lon="30.484485626220703">
        <time>2026-08-20T06:23:22Z</time>
      </trkpt>
      <trkpt lat="59.112002849578857" lon="30.48457145690918">
        <time>2026-08-20T06:23:24Z</time>
      </trkpt>
      <trkpt lat="59.112002849578857" lon="30.48457145690918">
        <time>2026-08-20T06:23:27Z</time>
      </trkpt>
      <trkpt lat="59.112002849578857" lon="30.484657287597656">
        <time>2026-08-20T06:23:29Z</time>
      </trkpt>
      <trkpt lat="59.112024307250977" lon="30.484721660614014">
        <time>2026-08-20T06:23:32Z</time>
      </trkpt>
      <trkpt lat="59.112024307250977" lon="30.48480749130249">
        <time>2026-08-20T06:23:34Z</time>
      </trkpt>
      <trkpt lat="59.112045764923096" lon="30.484850406646729">
        <time>2026-08-20T06:23:37Z</time>
      </trkpt>
      <trkpt lat="59.112045764923096" lon="30.484893321990967">
        <time>2026-08-20T06:23:39Z</time>
      </trkpt>
      <trkpt lat="59.112045764923096" lon="30.484914779663086">
        <time>2026-08-20T06:23:42Z</time>
      </trkpt>
      <trkpt lat="59.112045764923096" lon="30.484957695007324">
        <time>2026-08-20T06:23:44Z</time>
      </trkpt>
      <trkpt lat="59.112045764923096" lon="30.484957695007324">
        <time>2026-08-20T06:23:47Z</time>
      </trkpt>
      <trkpt lat="59.112045764923096" lon="30.484957695007324">
        <time>2026-08-20T06:23:49Z</time>
      </trkpt>
      <trkpt lat="59.112045764923096" lon="30.484979152679443">
        <time>2026-08-20T06:23:52Z</time>
      </trkpt>
      <trkpt lat="59.112067222595215" lon="30.485000610351563">
        <time>2026-08-20T06:23:54Z</time>
      </trkpt>
      <trkpt lat="59.112067222595215" lon="30.485043525695801">
        <time>2026-08-20T06:23:57Z</time>
      </trkpt>
      <trkpt lat="59.112067222595215" lon="30.485107898712158">
        <time>2026-08-20T06:23:59Z</time>
      </trkpt>
      <trkpt lat="59.112067222595215" lon="30.485107898712158">
        <time>2026-08-20T06:24:02Z</time>
      </trkpt>
      <trkpt lat="59.112088680267334" lon="30.485150814056396">
        <time>2026-08-20T06:24:04Z</time>
      </trkpt>
      <trkpt lat="59.112110137939453" lon="30.485193729400635">
        <time>2026-08-20T06:24:07Z</time>
      </trkpt>
      <trkpt lat="59.112067222595215" lon="30.485236644744873">
        <time>2026-08-20T06:24:09Z</time>
      </trkpt>
      <trkpt lat="59.112067222595215" lon="30.485258102416992">
        <time>2026-08-20T06:24:12Z</time>
      </trkpt>
      <trkpt lat="59.112067222595215" lon="30.485215187072754">
        <time>2026-08-20T06:24:14Z</time>
      </trkpt>
      <trkpt lat="59.112088680267334" lon="30.485215187072754">
        <time>2026-08-20T06:24:17Z</time>
      </trkpt>
      <trkpt lat="59.112088680267334" lon="30.485193729400635">
        <time>2026-08-20T06:24:19Z</time>
      </trkpt>
      <trkpt lat="59.112110137939453" lon="30.485258102416992">
        <time>2026-08-20T06:24:24Z</time>
      </trkpt>
      <trkpt lat="59.112131595611572" lon="30.48532247543335">
        <time>2026-08-20T06:24:27Z</time>
      </trkpt>
      <trkpt lat="59.112153053283691" lon="30.485408306121826">
        <time>2026-08-20T06:24:32Z</time>
      </trkpt>
      <trkpt lat="59.112131595611572" lon="30.485429763793945">
        <time>2026-08-20T06:24:34Z</time>
      </trkpt>
      <trkpt lat="59.112088680267334" lon="30.485429763793945">
        <time>2026-08-20T06:24:37Z</time>
      </trkpt>
      <trkpt lat="59.112045764923096" lon="30.485408306121826">
        <time>2026-08-20T06:24:39Z</time>
      </trkpt>
      <trkpt lat="59.112045764923096" lon="30.485429763793945">
        <time>2026-08-20T06:24:42Z</time>
      </trkpt>
      <trkpt lat="59.112024307250977" lon="30.485451221466064">
        <time>2026-08-20T06:24:44Z</time>
      </trkpt>
      <trkpt lat="59.112024307250977" lon="30.485472679138184">
        <time>2026-08-20T06:24:47Z</time>
      </trkpt>
      <trkpt lat="59.112024307250977" lon="30.485494136810303">
        <time>2026-08-20T06:24:49Z</time>
      </trkpt>
      <trkpt lat="59.112024307250977" lon="30.485515594482422">
        <time>2026-08-20T06:24:52Z</time>
      </trkpt>
      <trkpt lat="59.112067222595215" lon="30.485579967498779">
        <time>2026-08-20T06:24:54Z</time>
      </trkpt>
      <trkpt lat="59.112067222595215" lon="30.485644340515137">
        <time>2026-08-20T06:24:57Z</time>
      </trkpt>
      <trkpt lat="59.112088680267334" lon="30.485730171203613">
        <time>2026-08-20T06:24:59Z</time>
      </trkpt>
      <trkpt lat="59.112088680267334" lon="30.485794544219971">
        <time>2026-08-20T06:25:02Z</time>
      </trkpt>
      <trkpt lat="59.112110137939453" lon="30.485837459564209">
        <time>2026-08-20T06:25:04Z</time>
      </trkpt>
      <trkpt lat="59.112110137939453" lon="30.485858917236328">
        <time>2026-08-20T06:25:07Z</time>
      </trkpt>
      <trkpt lat="59.112088680267334" lon="30.485923290252686">
        <time>2026-08-20T06:25:09Z</time>
      </trkpt>
      <trkpt lat="59.112088680267334" lon="30.485966205596924">
        <time>2026-08-20T06:25:12Z</time>
      </trkpt>
      <trkpt lat="59.112088680267334" lon="30.485966205596924">
        <time>2026-08-20T06:25:14Z</time>
      </trkpt>
      <trkpt lat="59.112067222595215" lon="30.485987663269043">
        <time>2026-08-20T06:25:17Z</time>
      </trkpt>
      <trkpt lat="59.112067222595215" lon="30.48607349395752">
        <time>2026-08-20T06:25:19Z</time>
      </trkpt>
      <trkpt lat="59.112067222595215" lon="30.486094951629639">
        <time>2026-08-20T06:25:22Z</time>
      </trkpt>
      <trkpt lat="59.112067222595215" lon="30.486137866973877">
        <time>2026-08-20T06:25:24Z</time>
      </trkpt>
      <trkpt lat="59.112067222595215" lon="30.486223697662354">
        <time>2026-08-20T06:25:27Z</time>
      </trkpt>
      <trkpt lat="59.112067222595215" lon="30.486245155334473">
        <time>2026-08-20T06:25:29Z</time>
      </trkpt>
      <trkpt lat="59.112067222595215" lon="30.486245155334473">
        <time>2026-08-20T06:25:32Z</time>
      </trkpt>
      <trkpt lat="59.112088680267334" lon="30.486330986022949">
        <time>2026-08-20T06:25:34Z</time>
      </trkpt>
      <trkpt lat="59.112110137939453" lon="30.486352443695068">
        <time>2026-08-20T06:25:37Z</time>
      </trkpt>
      <trkpt lat="59.112110137939453" lon="30.486352443695068">
        <time>2026-08-20T06:25:39Z</time>
      </trkpt>
      <trkpt lat="59.112110137939453" lon="30.486352443695068">
        <time>2026-08-20T06:25:42Z</time>
      </trkpt>
      <trkpt lat="59.112110137939453" lon="30.486352443695068">
        <time>2026-08-20T06:25:44Z</time>
      </trkpt>
      <trkpt lat="59.112110137939453" lon="30.486352443695068">
        <time>2026-08-20T06:25:47Z</time>
      </trkpt>
      <trkpt lat="59.112110137939453" lon="30.486352443695068">
        <time>2026-08-20T06:25:49Z</time>
      </trkpt>
      <trkpt lat="59.112110137939453" lon="30.486352443695068">
        <time>2026-08-20T06:25:52Z</time>
      </trkpt>
      <trkpt lat="59.112110137939453" lon="30.486352443695068">
        <time>2026-08-20T06:25:54Z</time>
      </trkpt>
      <trkpt lat="59.112110137939453" lon="30.486352443695068">
        <time>2026-08-20T06:25:57Z</time>
      </trkpt>
      <trkpt lat="59.112131595611572" lon="30.486416816711426">
        <time>2026-08-20T06:25:59Z</time>
      </trkpt>
      <trkpt lat="59.112131595611572" lon="30.486502647399902">
        <time>2026-08-20T06:26:02Z</time>
      </trkpt>
      <trkpt lat="59.112153053283691" lon="30.486609935760498">
        <time>2026-08-20T06:26:04Z</time>
      </trkpt>
      <trkpt lat="59.112153053283691" lon="30.486652851104736">
        <time>2026-08-20T06:26:07Z</time>
      </trkpt>
      <trkpt lat="59.112131595611572" lon="30.486717224121094">
        <time>2026-08-20T06:26:09Z</time>
      </trkpt>
      <trkpt lat="59.112110137939453" lon="30.486738681793213">
        <time>2026-08-20T06:26:12Z</time>
      </trkpt>
      <trkpt lat="59.112110137939453" lon="30.486738681793213">
        <time>2026-08-20T06:26:14Z</time>
      </trkpt>
      <trkpt lat="59.112110137939453" lon="30.486738681793213">
        <time>2026-08-20T06:26:17Z</time>
      </trkpt>
      <trkpt lat="59.112110137939453" lon="30.486781597137451">
        <time>2026-08-20T06:26:19Z</time>
      </trkpt>
      <trkpt lat="59.112110137939453" lon="30.48680305480957">
        <time>2026-08-20T06:26:22Z</time>
      </trkpt>
      <trkpt lat="59.112110137939453" lon="30.486824512481689">
        <time>2026-08-20T06:26:24Z</time>
      </trkpt>
      <trkpt lat="59.112110137939453" lon="30.486824512481689">
        <time>2026-08-20T06:26:27Z</time>
      </trkpt>
      <trkpt lat="59.112110137939453" lon="30.486824512481689">
        <time>2026-08-20T06:26:29Z</time>
      </trkpt>
      <trkpt lat="59.112110137939453" lon="30.486824512481689">
        <time>2026-08-20T06:26:32Z</time>
      </trkpt>
      <trkpt lat="59.112131595611572" lon="30.486717224121094">
        <time>2026-08-20T06:26:34Z</time>
      </trkpt>
      <trkpt lat="59.112153053283691" lon="30.486652851104736">
        <time>2026-08-20T06:26:37Z</time>
      </trkpt>
      <trkpt lat="59.112153053283691" lon="30.486631393432617">
        <time>2026-08-20T06:26:39Z</time>
      </trkpt>
      <trkpt lat="59.112153053283691" lon="30.486631393432617">
        <time>2026-08-20T06:26:42Z</time>
      </trkpt>
      <trkpt lat="59.112153053283691" lon="30.486631393432617">
        <time>2026-08-20T06:26:44Z</time>
      </trkpt>
      <trkpt lat="59.112153053283691" lon="30.486631393432617">
        <time>2026-08-20T06:26:47Z</time>
      </trkpt>
      <trkpt lat="59.112153053283691" lon="30.486631393432617">
        <time>2026-08-20T06:26:49Z</time>
      </trkpt>
      <trkpt lat="59.112153053283691" lon="30.486631393432617">
        <time>2026-08-20T06:26:52Z</time>
      </trkpt>
      <trkpt lat="59.112153053283691" lon="30.486631393432617">
        <time>2026-08-20T06:26:54Z</time>
      </trkpt>
      <trkpt lat="59.112153053283691" lon="30.486631393432617">
        <time>2026-08-20T06:26:57Z</time>
      </trkpt>
      <trkpt lat="59.112153053283691" lon="30.486631393432617">
        <time>2026-08-20T06:26:59Z</time>
      </trkpt>
      <trkpt lat="59.112153053283691" lon="30.486631393432617">
        <time>2026-08-20T06:27:02Z</time>
      </trkpt>
      <trkpt lat="59.112153053283691" lon="30.486631393432617">
        <time>2026-08-20T06:27:04Z</time>
      </trkpt>
      <trkpt lat="59.112153053283691" lon="30.486631393432617">
        <time>2026-08-20T06:27:07Z</time>
      </trkpt>
      <trkpt lat="59.112131595611572" lon="30.486717224121094">
        <time>2026-08-20T06:27:09Z</time>
      </trkpt>
      <trkpt lat="59.112131595611572" lon="30.486760139465332">
        <time>2026-08-20T06:27:12Z</time>
      </trkpt>
      <trkpt lat="59.112131595611572" lon="30.486845970153809">
        <time>2026-08-20T06:27:14Z</time>
      </trkpt>
      <trkpt lat="59.112131595611572" lon="30.486845970153809">
        <time>2026-08-20T06:27:17Z</time>
      </trkpt>
      <trkpt lat="59.112131595611572" lon="30.486867427825928">
        <time>2026-08-20T06:27:19Z</time>
      </trkpt>
      <trkpt lat="59.112131595611572" lon="30.486910343170166">
        <time>2026-08-20T06:27:22Z</time>
      </trkpt>
      <trkpt lat="59.112131595611572" lon="30.486910343170166">
        <time>2026-08-20T06:27:24Z</time>
      </trkpt>
      <trkpt lat="59.112110137939453" lon="30.486953258514404">
        <time>2026-08-20T06:27:27Z</time>
      </trkpt>
      <trkpt lat="59.112131595611572" lon="30.487039089202881">
        <time>2026-08-20T06:27:29Z</time>
      </trkpt>
      <trkpt lat="59.112131595611572" lon="30.487039089202881">
        <time>2026-08-20T06:27:32Z</time>
      </trkpt>
      <trkpt lat="59.112088680267334" lon="30.487124919891357">
        <time>2026-08-20T06:27:34Z</time>
      </trkpt>
      <trkpt lat="59.112088680267334" lon="30.487146377563477">
        <time>2026-08-20T06:27:37Z</time>
      </trkpt>
      <trkpt lat="59.112088680267334" lon="30.487167835235596">
        <time>2026-08-20T06:27:39Z</time>
      </trkpt>
      <trkpt lat="59.112110137939453" lon="30.487232208251953">
        <time>2026-08-20T06:27:42Z</time>
      </trkpt>
      <trkpt lat="59.112067222595215" lon="30.48731803894043">
        <time>2026-08-20T06:27:44Z</time>
      </trkpt>
      <trkpt lat="59.112067222595215" lon="30.487403869628906">
        <time>2026-08-20T06:27:47Z</time>
      </trkpt>
      <trkpt lat="59.112088680267334" lon="30.487446784973145">
        <time>2026-08-20T06:27:49Z</time>
      </trkpt>
      <trkpt lat="59.112088680267334" lon="30.487446784973145">
        <time>2026-08-20T06:27:52Z</time>
      </trkpt>
      <trkpt lat="59.112088680267334" lon="30.487446784973145">
        <time>2026-08-20T06:27:54Z</time>
      </trkpt>
      <trkpt lat="59.112088680267334" lon="30.487446784973145">
        <time>2026-08-20T06:27:57Z</time>
      </trkpt>
      <trkpt lat="59.112088680267334" lon="30.487446784973145">
        <time>2026-08-20T06:27:59Z</time>
      </trkpt>
      <trkpt lat="59.112088680267334" lon="30.487446784973145">
        <time>2026-08-20T06:28:02Z</time>
      </trkpt>
      <trkpt lat="59.112067222595215" lon="30.487532615661621">
        <time>2026-08-20T06:28:04Z</time>
      </trkpt>
      <trkpt lat="59.112067222595215" lon="30.48755407333374">
        <time>2026-08-20T06:28:07Z</time>
      </trkpt>
      <trkpt lat="59.112067222595215" lon="30.487575531005859">
        <time>2026-08-20T06:28:09Z</time>
      </trkpt>
      <trkpt lat="59.112088680267334" lon="30.487618446350098">
        <time>2026-08-20T06:28:12Z</time>
      </trkpt>
      <trkpt lat="59.112110137939453" lon="30.487661361694336">
        <time>2026-08-20T06:28:14Z</time>
      </trkpt>
      <trkpt lat="59.112110137939453" lon="30.487704277038574">
        <time>2026-08-20T06:28:17Z</time>
      </trkpt>
      <trkpt lat="59.112110137939453" lon="30.487768650054932">
        <time>2026-08-20T06:28:19Z</time>
      </trkpt>
      <trkpt lat="59.112110137939453" lon="30.487854480743408">
        <time>2026-08-20T06:28:22Z</time>
      </trkpt>
      <trkpt lat="59.112110137939453" lon="30.487961769104004">
        <time>2026-08-20T06:28:24Z</time>
      </trkpt>
      <trkpt lat="59.112110137939453" lon="30.487983226776123">
        <time>2026-08-20T06:28:27Z</time>
      </trkpt>
      <trkpt lat="59.112088680267334" lon="30.488004684448242">
        <time>2026-08-20T06:28:29Z</time>
      </trkpt>
      <trkpt lat="59.112067222595215" lon="30.487961769104004">
        <time>2026-08-20T06:28:32Z</time>
      </trkpt>
      <trkpt lat="59.112067222595215" lon="30.487983226776123">
        <time>2026-08-20T06:28:34Z</time>
      </trkpt>
      <trkpt lat="59.112067222595215" lon="30.488026142120361">
        <time>2026-08-20T06:28:37Z</time>
      </trkpt>
      <trkpt lat="59.112045764923096" lon="30.4880690574646">
        <time>2026-08-20T06:28:39Z</time>
      </trkpt>
      <trkpt lat="59.112045764923096" lon="30.4880690574646">
        <time>2026-08-20T06:28:42Z</time>
      </trkpt>
      <trkpt lat="59.112045764923096" lon="30.488090515136719">
        <time>2026-08-20T06:28:44Z</time>
      </trkpt>
      <trkpt lat="59.112067222595215" lon="30.488090515136719">
        <time>2026-08-20T06:28:47Z</time>
      </trkpt>
      <trkpt lat="59.112110137939453" lon="30.488111972808838">
        <time>2026-08-20T06:28:49Z</time>
      </trkpt>
      <trkpt lat="59.112131595611572" lon="30.488154888153076">
        <time>2026-08-20T06:28:52Z</time>
      </trkpt>
      <trkpt lat="59.112153053283691" lon="30.488262176513672">
        <time>2026-08-20T06:28:54Z</time>
      </trkpt>
      <trkpt lat="59.112174510955811" lon="30.488283634185791">
        <time>2026-08-20T06:28:57Z</time>
      </trkpt>
      <trkpt lat="59.112174510955811" lon="30.48830509185791">
        <time>2026-08-20T06:28:59Z</time>
      </trkpt>
      <trkpt lat="59.11219596862793" lon="30.48830509185791">
        <time>2026-08-20T06:29:02Z</time>
      </trkpt>
      <trkpt lat="59.11219596862793" lon="30.488348007202148">
        <time>2026-08-20T06:29:04Z</time>
      </trkpt>
      <trkpt lat="59.112217426300049" lon="30.488412380218506">
        <time>2026-08-20T06:29:07Z</time>
      </trkpt>
      <trkpt lat="59.112217426300049" lon="30.488476753234863">
        <time>2026-08-20T06:29:09Z</time>
      </trkpt>
      <trkpt lat="59.112217426300049" lon="30.488476753234863">
        <time>2026-08-20T06:29:12Z</time>
      </trkpt>
      <trkpt lat="59.112217426300049" lon="30.488476753234863">
        <time>2026-08-20T06:29:14Z</time>
      </trkpt>
      <trkpt lat="59.112217426300049" lon="30.488498210906982">
        <time>2026-08-20T06:29:17Z</time>
      </trkpt>
      <trkpt lat="59.112217426300049" lon="30.488541126251221">
        <time>2026-08-20T06:29:19Z</time>
      </trkpt>
      <trkpt lat="59.11219596862793" lon="30.488584041595459">
        <time>2026-08-20T06:29:22Z</time>
      </trkpt>
      <trkpt lat="59.11219596862793" lon="30.488584041595459">
        <time>2026-08-20T06:29:24Z</time>
      </trkpt>
      <trkpt lat="59.112174510955811" lon="30.488584041595459">
        <time>2026-08-20T06:29:27Z</time>
      </trkpt>
      <trkpt lat="59.112174510955811" lon="30.488584041595459">
        <time>2026-08-20T06:29:29Z</time>
      </trkpt>
      <trkpt lat="59.112131595611572" lon="30.488626956939697">
        <time>2026-08-20T06:29:32Z</time>
      </trkpt>
      <trkpt lat="59.112131595611572" lon="30.488691329956055">
        <time>2026-08-20T06:29:34Z</time>
      </trkpt>
      <trkpt lat="59.112131595611572" lon="30.488691329956055">
        <time>2026-08-20T06:29:37Z</time>
      </trkpt>
      <trkpt lat="59.112131595611572" lon="30.488712787628174">
        <time>2026-08-20T06:29:39Z</time>
      </trkpt>
      <trkpt lat="59.112131595611572" lon="30.488712787628174">
        <time>2026-08-20T06:29:42Z</time>
      </trkpt>
      <trkpt lat="59.112131595611572" lon="30.488691329956055">
        <time>2026-08-20T06:29:44Z</time>
      </trkpt>
      <trkpt lat="59.112153053283691" lon="30.488691329956055">
        <time>2026-08-20T06:29:47Z</time>
      </trkpt>
      <trkpt lat="59.112153053283691" lon="30.488691329956055">
        <time>2026-08-20T06:29:49Z</time>
      </trkpt>
      <trkpt lat="59.112153053283691" lon="30.488691329956055">
        <time>2026-08-20T06:29:52Z</time>
      </trkpt>
      <trkpt lat="59.112153053283691" lon="30.488734245300293">
        <time>2026-08-20T06:29:54Z</time>
      </trkpt>
      <trkpt lat="59.112174510955811" lon="30.48879861831665">
        <time>2026-08-20T06:29:57Z</time>
      </trkpt>
      <trkpt lat="59.112174510955811" lon="30.48879861831665">
        <time>2026-08-20T06:29:59Z</time>
      </trkpt>
      <trkpt lat="59.112174510955811" lon="30.48879861831665">
        <time>2026-08-20T06:30:02Z</time>
      </trkpt>
      <trkpt lat="59.11219596862793" lon="30.48879861831665">
        <time>2026-08-20T06:30:04Z</time>
      </trkpt>
      <trkpt lat="59.11219596862793" lon="30.48879861831665">
        <time>2026-08-20T06:30:07Z</time>
      </trkpt>
      <trkpt lat="59.112174510955811" lon="30.48879861831665">
        <time>2026-08-20T06:30:09Z</time>
      </trkpt>
      <trkpt lat="59.112153053283691" lon="30.48879861831665">
        <time>2026-08-20T06:30:12Z</time>
      </trkpt>
      <trkpt lat="59.112174510955811" lon="30.488862991333008">
        <time>2026-08-20T06:30:14Z</time>
      </trkpt>
      <trkpt lat="59.112174510955811" lon="30.488948822021484">
        <time>2026-08-20T06:30:17Z</time>
      </trkpt>
      <trkpt lat="59.112174510955811" lon="30.488991737365723">
        <time>2026-08-20T06:30:19Z</time>
      </trkpt>
      <trkpt lat="59.112174510955811" lon="30.489034652709961">
        <time>2026-08-20T06:30:22Z</time>
      </trkpt>
      <trkpt lat="59.112174510955811" lon="30.489034652709961">
        <time>2026-08-20T06:30:24Z</time>
      </trkpt>
      <trkpt lat="59.112174510955811" lon="30.489034652709961">
        <time>2026-08-20T06:30:27Z</time>
      </trkpt>
      <trkpt lat="59.11219596862793" lon="30.489034652709961">
        <time>2026-08-20T06:30:29Z</time>
      </trkpt>
      <trkpt lat="59.11219596862793" lon="30.489034652709961">
        <time>2026-08-20T06:30:32Z</time>
      </trkpt>
      <trkpt lat="59.11219596862793" lon="30.48905611038208">
        <time>2026-08-20T06:30:34Z</time>
      </trkpt>
      <trkpt lat="59.11219596862793" lon="30.489099025726318">
        <time>2026-08-20T06:30:37Z</time>
      </trkpt>
      <trkpt lat="59.11219596862793" lon="30.489120483398437">
        <time>2026-08-20T06:30:39Z</time>
      </trkpt>
      <trkpt lat="59.11219596862793" lon="30.489120483398437">
        <time>2026-08-20T06:30:42Z</time>
      </trkpt>
      <trkpt lat="59.112217426300049" lon="30.489141941070557">
        <time>2026-08-20T06:30:44Z</time>
      </trkpt>
      <trkpt lat="59.112217426300049" lon="30.489141941070557">
        <time>2026-08-20T06:30:47Z</time>
      </trkpt>
      <trkpt lat="59.112217426300049" lon="30.489184856414795">
        <time>2026-08-20T06:30:49Z</time>
      </trkpt>
      <trkpt lat="59.112217426300049" lon="30.489184856414795">
        <time>2026-08-20T06:30:52Z</time>
      </trkpt>
      <trkpt lat="59.112238883972168" lon="30.489206314086914">
        <time>2026-08-20T06:30:54Z</time>
      </trkpt>
      <trkpt lat="59.112238883972168" lon="30.489206314086914">
        <time>2026-08-20T06:30:57Z</time>
      </trkpt>
      <trkpt lat="59.112238883972168" lon="30.489206314086914">
        <time>2026-08-20T06:30:59Z</time>
      </trkpt>
      <trkpt lat="59.112238883972168" lon="30.489206314086914">
        <time>2026-08-20T06:31:02Z</time>
      </trkpt>
      <trkpt lat="59.112238883972168" lon="30.489206314086914">
        <time>2026-08-20T06:31:04Z</time>
      </trkpt>
      <trkpt lat="59.112238883972168" lon="30.489206314086914">
        <time>2026-08-20T06:31:07Z</time>
      </trkpt>
      <trkpt lat="59.112238883972168" lon="30.489206314086914">
        <time>2026-08-20T06:31:09Z</time>
      </trkpt>
      <trkpt lat="59.112238883972168" lon="30.489206314086914">
        <time>2026-08-20T06:31:12Z</time>
      </trkpt>
      <trkpt lat="59.112238883972168" lon="30.489206314086914">
        <time>2026-08-20T06:31:14Z</time>
      </trkpt>
      <trkpt lat="59.112238883972168" lon="30.489206314086914">
        <time>2026-08-20T06:31:17Z</time>
      </trkpt>
      <trkpt lat="59.112238883972168" lon="30.489206314086914">
        <time>2026-08-20T06:31:19Z</time>
      </trkpt>
      <trkpt lat="59.112260341644287" lon="30.489206314086914">
        <time>2026-08-20T06:31:22Z</time>
      </trkpt>
      <trkpt lat="59.112260341644287" lon="30.489206314086914">
        <time>2026-08-20T06:31:24Z</time>
      </trkpt>
      <trkpt lat="59.112281799316406" lon="30.489206314086914">
        <time>2026-08-20T06:31:27Z</time>
      </trkpt>
      <trkpt lat="59.112303256988525" lon="30.489206314086914">
        <time>2026-08-20T06:31:29Z</time>
      </trkpt>
      <trkpt lat="59.112303256988525" lon="30.489206314086914">
        <time>2026-08-20T06:31:32Z</time>
      </trkpt>
      <trkpt lat="59.112303256988525" lon="30.489206314086914">
        <time>2026-08-20T06:31:34Z</time>
      </trkpt>
      <trkpt lat="59.112303256988525" lon="30.489206314086914">
        <time>2026-08-20T06:31:37Z</time>
      </trkpt>
      <trkpt lat="59.112303256988525" lon="30.489249229431152">
        <time>2026-08-20T06:31:39Z</time>
      </trkpt>
      <trkpt lat="59.112303256988525" lon="30.489249229431152">
        <time>2026-08-20T06:31:42Z</time>
      </trkpt>
      <trkpt lat="59.112303256988525" lon="30.489249229431152">
        <time>2026-08-20T06:31:44Z</time>
      </trkpt>
      <trkpt lat="59.112303256988525" lon="30.489249229431152">
        <time>2026-08-20T06:31:47Z</time>
      </trkpt>
      <trkpt lat="59.112303256988525" lon="30.489249229431152">
        <time>2026-08-20T06:31:49Z</time>
      </trkpt>
      <trkpt lat="59.112303256988525" lon="30.489249229431152">
        <time>2026-08-20T06:31:52Z</time>
      </trkpt>
      <trkpt lat="59.112303256988525" lon="30.489249229431152">
        <time>2026-08-20T06:31:54Z</time>
      </trkpt>
      <trkpt lat="59.112303256988525" lon="30.489249229431152">
        <time>2026-08-20T06:31:57Z</time>
      </trkpt>
      <trkpt lat="59.112303256988525" lon="30.489249229431152">
        <time>2026-08-20T06:31:59Z</time>
      </trkpt>
      <trkpt lat="59.112303256988525" lon="30.489249229431152">
        <time>2026-08-20T06:32:02Z</time>
      </trkpt>
      <trkpt lat="59.112303256988525" lon="30.489249229431152">
        <time>2026-08-20T06:32:04Z</time>
      </trkpt>
      <trkpt lat="59.112303256988525" lon="30.489249229431152">
        <time>2026-08-20T06:32:07Z</time>
      </trkpt>
      <trkpt lat="59.112303256988525" lon="30.489249229431152">
        <time>2026-08-20T06:32:09Z</time>
      </trkpt>
      <trkpt lat="59.112303256988525" lon="30.489270687103271">
        <time>2026-08-20T06:32:12Z</time>
      </trkpt>
      <trkpt lat="59.112303256988525" lon="30.489249229431152">
        <time>2026-08-20T06:32:14Z</time>
      </trkpt>
      <trkpt lat="59.112303256988525" lon="30.489249229431152">
        <time>2026-08-20T06:32:17Z</time>
      </trkpt>
      <trkpt lat="59.112303256988525" lon="30.489249229431152">
        <time>2026-08-20T06:32:19Z</time>
      </trkpt>
      <trkpt lat="59.112303256988525" lon="30.489249229431152">
        <time>2026-08-20T06:32:22Z</time>
      </trkpt>
      <trkpt lat="59.112303256988525" lon="30.489249229431152">
        <time>2026-08-20T06:32:24Z</time>
      </trkpt>
      <trkpt lat="59.112303256988525" lon="30.489249229431152">
        <time>2026-08-20T06:32:27Z</time>
      </trkpt>
      <trkpt lat="59.112324714660645" lon="30.489249229431152">
        <time>2026-08-20T06:32:29Z</time>
      </trkpt>
      <trkpt lat="59.112324714660645" lon="30.489270687103271">
        <time>2026-08-20T06:32:32Z</time>
      </trkpt>
      <trkpt lat="59.112346172332764" lon="30.489292144775391">
        <time>2026-08-20T06:32:34Z</time>
      </trkpt>
      <trkpt lat="59.112346172332764" lon="30.489292144775391">
        <time>2026-08-20T06:32:37Z</time>
      </trkpt>
      <trkpt lat="59.112346172332764" lon="30.48931360244751">
        <time>2026-08-20T06:32:39Z</time>
      </trkpt>
      <trkpt lat="59.112346172332764" lon="30.48931360244751">
        <time>2026-08-20T06:32:42Z</time>
      </trkpt>
      <trkpt lat="59.112346172332764" lon="30.48931360244751">
        <time>2026-08-20T06:32:44Z</time>
      </trkpt>
      <trkpt lat="59.112346172332764" lon="30.48931360244751">
        <time>2026-08-20T06:32:47Z</time>
      </trkpt>
      <trkpt lat="59.112346172332764" lon="30.489335060119629">
        <time>2026-08-20T06:32:49Z</time>
      </trkpt>
      <trkpt lat="59.112346172332764" lon="30.489356517791748">
        <time>2026-08-20T06:32:52Z</time>
      </trkpt>
      <trkpt lat="59.112346172332764" lon="30.489442348480225">
        <time>2026-08-20T06:32:54Z</time>
      </trkpt>
      <trkpt lat="59.112346172332764" lon="30.489463806152344">
        <time>2026-08-20T06:32:57Z</time>
      </trkpt>
      <trkpt lat="59.112324714660645" lon="30.489463806152344">
        <time>2026-08-20T06:32:59Z</time>
      </trkpt>
      <trkpt lat="59.112324714660645" lon="30.489463806152344">
        <time>2026-08-20T06:33:02Z</time>
      </trkpt>
      <trkpt lat="59.112324714660645" lon="30.489463806152344">
        <time>2026-08-20T06:33:04Z</time>
      </trkpt>
      <trkpt lat="59.112303256988525" lon="30.489463806152344">
        <time>2026-08-20T06:33:07Z</time>
      </trkpt>
      <trkpt lat="59.112303256988525" lon="30.489485263824463">
        <time>2026-08-20T06:33:09Z</time>
      </trkpt>
      <trkpt lat="59.112303256988525" lon="30.489485263824463">
        <time>2026-08-20T06:33:12Z</time>
      </trkpt>
      <trkpt lat="59.112281799316406" lon="30.489506721496582">
        <time>2026-08-20T06:33:14Z</time>
      </trkpt>
      <trkpt lat="59.112281799316406" lon="30.489506721496582">
        <time>2026-08-20T06:33:17Z</time>
      </trkpt>
      <trkpt lat="59.112281799316406" lon="30.489506721496582">
        <time>2026-08-20T06:33:19Z</time>
      </trkpt>
      <trkpt lat="59.112281799316406" lon="30.489506721496582">
        <time>2026-08-20T06:33:22Z</time>
      </trkpt>
      <trkpt lat="59.112281799316406" lon="30.48954963684082">
        <time>2026-08-20T06:33:24Z</time>
      </trkpt>
      <trkpt lat="59.112303256988525" lon="30.489592552185059">
        <time>2026-08-20T06:33:27Z</time>
      </trkpt>
      <trkpt lat="59.112303256988525" lon="30.489592552185059">
        <time>2026-08-20T06:33:29Z</time>
      </trkpt>
      <trkpt lat="59.112303256988525" lon="30.489635467529297">
        <time>2026-08-20T06:33:32Z</time>
      </trkpt>
      <trkpt lat="59.112303256988525" lon="30.489635467529297">
        <time>2026-08-20T06:33:34Z</time>
      </trkpt>
      <trkpt lat="59.112303256988525" lon="30.489678382873535">
        <time>2026-08-20T06:33:37Z</time>
      </trkpt>
      <trkpt lat="59.112324714660645" lon="30.489721298217773">
        <time>2026-08-20T06:33:39Z</time>
      </trkpt>
      <trkpt lat="59.112324714660645" lon="30.489764213562012">
        <time>2026-08-20T06:33:42Z</time>
      </trkpt>
      <trkpt lat="59.112324714660645" lon="30.489828586578369">
        <time>2026-08-20T06:33:44Z</time>
      </trkpt>
      <trkpt lat="59.112324714660645" lon="30.489828586578369">
        <time>2026-08-20T06:33:47Z</time>
      </trkpt>
      <trkpt lat="59.112324714660645" lon="30.489892959594727">
        <time>2026-08-20T06:33:49Z</time>
      </trkpt>
      <trkpt lat="59.112324714660645" lon="30.489892959594727">
        <time>2026-08-20T06:33:52Z</time>
      </trkpt>
      <trkpt lat="59.112324714660645" lon="30.489914417266846">
        <time>2026-08-20T06:33:54Z</time>
      </trkpt>
      <trkpt lat="59.112324714660645" lon="30.489935874938965">
        <time>2026-08-20T06:33:57Z</time>
      </trkpt>
      <trkpt lat="59.112324714660645" lon="30.489935874938965">
        <time>2026-08-20T06:33:59Z</time>
      </trkpt>
      <trkpt lat="59.112324714660645" lon="30.489935874938965">
        <time>2026-08-20T06:34:02Z</time>
      </trkpt>
      <trkpt lat="59.112324714660645" lon="30.489935874938965">
        <time>2026-08-20T06:34:04Z</time>
      </trkpt>
      <trkpt lat="59.112324714660645" lon="30.489935874938965">
        <time>2026-08-20T06:34:07Z</time>
      </trkpt>
      <trkpt lat="59.112324714660645" lon="30.489957332611084">
        <time>2026-08-20T06:34:09Z</time>
      </trkpt>
      <trkpt lat="59.112324714660645" lon="30.489957332611084">
        <time>2026-08-20T06:34:12Z</time>
      </trkpt>
      <trkpt lat="59.112324714660645" lon="30.489957332611084">
        <time>2026-08-20T06:34:14Z</time>
      </trkpt>
      <trkpt lat="59.112324714660645" lon="30.489978790283203">
        <time>2026-08-20T06:34:17Z</time>
      </trkpt>
      <trkpt lat="59.112324714660645" lon="30.489978790283203">
        <time>2026-08-20T06:34:19Z</time>
      </trkpt>
      <trkpt lat="59.112324714660645" lon="30.489978790283203">
        <time>2026-08-20T06:34:22Z</time>
      </trkpt>
      <trkpt lat="59.112346172332764" lon="30.490043163299561">
        <time>2026-08-20T06:34:24Z</time>
      </trkpt>
      <trkpt lat="59.112346172332764" lon="30.490043163299561">
        <time>2026-08-20T06:34:27Z</time>
      </trkpt>
      <trkpt lat="59.112346172332764" lon="30.490043163299561">
        <time>2026-08-20T06:34:29Z</time>
      </trkpt>
      <trkpt lat="59.112346172332764" lon="30.490086078643799">
        <time>2026-08-20T06:34:32Z</time>
      </trkpt>
      <trkpt lat="59.112346172332764" lon="30.490107536315918">
        <time>2026-08-20T06:34:34Z</time>
      </trkpt>
      <trkpt lat="59.112346172332764" lon="30.490107536315918">
        <time>2026-08-20T06:34:37Z</time>
      </trkpt>
      <trkpt lat="59.112346172332764" lon="30.490107536315918">
        <time>2026-08-20T06:34:39Z</time>
      </trkpt>
      <trkpt lat="59.112346172332764" lon="30.490128993988037">
        <time>2026-08-20T06:34:42Z</time>
      </trkpt>
      <trkpt lat="59.112303256988525" lon="30.490150451660156">
        <time>2026-08-20T06:34:44Z</time>
      </trkpt>
      <trkpt lat="59.112281799316406" lon="30.490150451660156">
        <time>2026-08-20T06:34:47Z</time>
      </trkpt>
      <trkpt lat="59.112281799316406" lon="30.490171909332275">
        <time>2026-08-20T06:34:49Z</time>
      </trkpt>
      <trkpt lat="59.112281799316406" lon="30.490171909332275">
        <time>2026-08-20T06:34:52Z</time>
      </trkpt>
      <trkpt lat="59.112281799316406" lon="30.490171909332275">
        <time>2026-08-20T06:34:54Z</time>
      </trkpt>
      <trkpt lat="59.112281799316406" lon="30.490171909332275">
        <time>2026-08-20T06:34:57Z</time>
      </trkpt>
      <trkpt lat="59.112281799316406" lon="30.490171909332275">
        <time>2026-08-20T06:34:59Z</time>
      </trkpt>
      <trkpt lat="59.112281799316406" lon="30.490171909332275">
        <time>2026-08-20T06:35:02Z</time>
      </trkpt>
      <trkpt lat="59.112281799316406" lon="30.490171909332275">
        <time>2026-08-20T06:35:04Z</time>
      </trkpt>
      <trkpt lat="59.112281799316406" lon="30.490171909332275">
        <time>2026-08-20T06:35:07Z</time>
      </trkpt>
      <trkpt lat="59.112281799316406" lon="30.490171909332275">
        <time>2026-08-20T06:35:09Z</time>
      </trkpt>
      <trkpt lat="59.112281799316406" lon="30.490171909332275">
        <time>2026-08-20T06:35:12Z</time>
      </trkpt>
      <trkpt lat="59.112281799316406" lon="30.490171909332275">
        <time>2026-08-20T06:35:14Z</time>
      </trkpt>
      <trkpt lat="59.112281799316406" lon="30.490171909332275">
        <time>2026-08-20T06:35:17Z</time>
      </trkpt>
      <trkpt lat="59.112281799316406" lon="30.490214824676514">
        <time>2026-08-20T06:35:19Z</time>
      </trkpt>
      <trkpt lat="59.112281799316406" lon="30.490214824676514">
        <time>2026-08-20T06:35:22Z</time>
      </trkpt>
      <trkpt lat="59.112281799316406" lon="30.490257740020752">
        <time>2026-08-20T06:35:24Z</time>
      </trkpt>
      <trkpt lat="59.112281799316406" lon="30.490279197692871">
        <time>2026-08-20T06:35:27Z</time>
      </trkpt>
      <trkpt lat="59.112281799316406" lon="30.490322113037109">
        <time>2026-08-20T06:35:29Z</time>
      </trkpt>
      <trkpt lat="59.112260341644287" lon="30.490343570709229">
        <time>2026-08-20T06:35:32Z</time>
      </trkpt>
      <trkpt lat="59.112260341644287" lon="30.490365028381348">
        <time>2026-08-20T06:35:34Z</time>
      </trkpt>
      <trkpt lat="59.112260341644287" lon="30.490386486053467">
        <time>2026-08-20T06:35:37Z</time>
      </trkpt>
      <trkpt lat="59.112281799316406" lon="30.490407943725586">
        <time>2026-08-20T06:35:39Z</time>
      </trkpt>
      <trkpt lat="59.112260341644287" lon="30.490407943725586">
        <time>2026-08-20T06:35:42Z</time>
      </trkpt>
      <trkpt lat="59.112238883972168" lon="30.490472316741943">
        <time>2026-08-20T06:35:44Z</time>
      </trkpt>
      <trkpt lat="59.112238883972168" lon="30.490493774414063">
        <time>2026-08-20T06:35:47Z</time>
      </trkpt>
      <trkpt lat="59.112217426300049" lon="30.490493774414063">
        <time>2026-08-20T06:35:49Z</time>
      </trkpt>
      <trkpt lat="59.112217426300049" lon="30.490493774414063">
        <time>2026-08-20T06:35:52Z</time>
      </trkpt>
      <trkpt lat="59.112217426300049" lon="30.490493774414063">
        <time>2026-08-20T06:35:54Z</time>
      </trkpt>
      <trkpt lat="59.112238883972168" lon="30.490493774414063">
        <time>2026-08-20T06:35:57Z</time>
      </trkpt>
      <trkpt lat="59.112238883972168" lon="30.490493774414063">
        <time>2026-08-20T06:35:59Z</time>
      </trkpt>
      <trkpt lat="59.112238883972168" lon="30.490493774414063">
        <time>2026-08-20T06:36:02Z</time>
      </trkpt>
      <trkpt lat="59.112238883972168" lon="30.490450859069824">
        <time>2026-08-20T06:36:04Z</time>
      </trkpt>
      <trkpt lat="59.112238883972168" lon="30.490472316741943">
        <time>2026-08-20T06:36:07Z</time>
      </trkpt>
      <trkpt lat="59.112238883972168" lon="30.490472316741943">
        <time>2026-08-20T06:36:09Z</time>
      </trkpt>
      <trkpt lat="59.112238883972168" lon="30.490450859069824">
        <time>2026-08-20T06:36:12Z</time>
      </trkpt>
      <trkpt lat="59.112238883972168" lon="30.490450859069824">
        <time>2026-08-20T06:36:14Z</time>
      </trkpt>
      <trkpt lat="59.112260341644287" lon="30.490472316741943">
        <time>2026-08-20T06:36:17Z</time>
      </trkpt>
      <trkpt lat="59.112281799316406" lon="30.490493774414063">
        <time>2026-08-20T06:36:19Z</time>
      </trkpt>
      <trkpt lat="59.112303256988525" lon="30.490493774414063">
        <time>2026-08-20T06:36:22Z</time>
      </trkpt>
      <trkpt lat="59.112303256988525" lon="30.490515232086182">
        <time>2026-08-20T06:36:24Z</time>
      </trkpt>
      <trkpt lat="59.112303256988525" lon="30.490515232086182">
        <time>2026-08-20T06:36:27Z</time>
      </trkpt>
      <trkpt lat="59.112303256988525" lon="30.490536689758301">
        <time>2026-08-20T06:36:29Z</time>
      </trkpt>
      <trkpt lat="59.112324714660645" lon="30.49055814743042">
        <time>2026-08-20T06:36:32Z</time>
      </trkpt>
      <trkpt lat="59.112324714660645" lon="30.490579605102539">
        <time>2026-08-20T06:36:34Z</time>
      </trkpt>
      <trkpt lat="59.112324714660645" lon="30.490579605102539">
        <time>2026-08-20T06:36:37Z</time>
      </trkpt>
      <trkpt lat="59.112324714660645" lon="30.49055814743042">
        <time>2026-08-20T06:36:39Z</time>
      </trkpt>
      <trkpt lat="59.112346172332764" lon="30.49055814743042">
        <time>2026-08-20T06:36:42Z</time>
      </trkpt>
      <trkpt lat="59.112346172332764" lon="30.490579605102539">
        <time>2026-08-20T06:36:44Z</time>
      </trkpt>
      <trkpt lat="59.112367630004883" lon="30.490601062774658">
        <time>2026-08-20T06:36:47Z</time>
      </trkpt>
      <trkpt lat="59.112389087677002" lon="30.490622520446777">
        <time>2026-08-20T06:36:49Z</time>
      </trkpt>
      <trkpt lat="59.112389087677002" lon="30.490643978118896">
        <time>2026-08-20T06:36:52Z</time>
      </trkpt>
      <trkpt lat="59.112410545349121" lon="30.490686893463135">
        <time>2026-08-20T06:36:54Z</time>
      </trkpt>
      <trkpt lat="59.11243200302124" lon="30.490665435791016">
        <time>2026-08-20T06:36:57Z</time>
      </trkpt>
      <trkpt lat="59.112453460693359" lon="30.490665435791016">
        <time>2026-08-20T06:36:59Z</time>
      </trkpt>
      <trkpt lat="59.112453460693359" lon="30.490686893463135">
        <time>2026-08-20T06:37:02Z</time>
      </trkpt>
      <trkpt lat="59.112474918365479" lon="30.490686893463135">
        <time>2026-08-20T06:37:04Z</time>
      </trkpt>
      <trkpt lat="59.112474918365479" lon="30.490729808807373">
        <time>2026-08-20T06:37:07Z</time>
      </trkpt>
      <trkpt lat="59.112474918365479" lon="30.49081563949585">
        <time>2026-08-20T06:37:09Z</time>
      </trkpt>
      <trkpt lat="59.112474918365479" lon="30.490837097167969">
        <time>2026-08-20T06:37:12Z</time>
      </trkpt>
      <trkpt lat="59.112496376037598" lon="30.490858554840088">
        <time>2026-08-20T06:37:14Z</time>
      </trkpt>
      <trkpt lat="59.112474918365479" lon="30.490922927856445">
        <time>2026-08-20T06:37:17Z</time>
      </trkpt>
      <trkpt lat="59.112453460693359" lon="30.490987300872803">
        <time>2026-08-20T06:37:19Z</time>
      </trkpt>
      <trkpt lat="59.11243200302124" lon="30.491008758544922">
        <time>2026-08-20T06:37:24Z</time>
      </trkpt>
      <trkpt lat="59.112453460693359" lon="30.49105167388916">
        <time>2026-08-20T06:37:27Z</time>
      </trkpt>
      <trkpt lat="59.112496376037598" lon="30.491116046905518">
        <time>2026-08-20T06:37:29Z</time>
      </trkpt>
      <trkpt lat="59.112517833709717" lon="30.491158962249756">
        <time>2026-08-20T06:37:32Z</time>
      </trkpt>
      <trkpt lat="59.112517833709717" lon="30.491180419921875">
        <time>2026-08-20T06:37:34Z</time>
      </trkpt>
      <trkpt lat="59.112517833709717" lon="30.491201877593994">
        <time>2026-08-20T06:37:37Z</time>
      </trkpt>
      <trkpt lat="59.112474918365479" lon="30.491223335266113">
        <time>2026-08-20T06:37:39Z</time>
      </trkpt>
      <trkpt lat="59.112453460693359" lon="30.491201877593994">
        <time>2026-08-20T06:37:42Z</time>
      </trkpt>
      <trkpt lat="59.11243200302124" lon="30.491223335266113">
        <time>2026-08-20T06:37:44Z</time>
      </trkpt>
      <trkpt lat="59.112410545349121" lon="30.491223335266113">
        <time>2026-08-20T06:37:47Z</time>
      </trkpt>
      <trkpt lat="59.112410545349121" lon="30.491244792938232">
        <time>2026-08-20T06:37:49Z</time>
      </trkpt>
      <trkpt lat="59.112389087677002" lon="30.491244792938232">
        <time>2026-08-20T06:37:52Z</time>
      </trkpt>
      <trkpt lat="59.112389087677002" lon="30.491244792938232">
        <time>2026-08-20T06:37:54Z</time>
      </trkpt>
      <trkpt lat="59.112367630004883" lon="30.491287708282471">
        <time>2026-08-20T06:37:57Z</time>
      </trkpt>
      <trkpt lat="59.112346172332764" lon="30.491330623626709">
        <time>2026-08-20T06:37:59Z</time>
      </trkpt>
      <trkpt lat="59.112346172332764" lon="30.491330623626709">
        <time>2026-08-20T06:38:02Z</time>
      </trkpt>
      <trkpt lat="59.112346172332764" lon="30.491352081298828">
        <time>2026-08-20T06:38:04Z</time>
      </trkpt>
      <trkpt lat="59.112346172332764" lon="30.491373538970947">
        <time>2026-08-20T06:38:07Z</time>
      </trkpt>
      <trkpt lat="59.112324714660645" lon="30.491394996643066">
        <time>2026-08-20T06:38:09Z</time>
      </trkpt>
      <trkpt lat="59.112281799316406" lon="30.491394996643066">
        <time>2026-08-20T06:38:12Z</time>
      </trkpt>
      <trkpt lat="59.112238883972168" lon="30.491416454315186">
        <time>2026-08-20T06:38:14Z</time>
      </trkpt>
      <trkpt lat="59.112217426300049" lon="30.491459369659424">
        <time>2026-08-20T06:38:17Z</time>
      </trkpt>
      <trkpt lat="59.11219596862793" lon="30.49156665802002">
        <time>2026-08-20T06:38:19Z</time>
      </trkpt>
      <trkpt lat="59.112174510955811" lon="30.491588115692139">
        <time>2026-08-20T06:38:22Z</time>
      </trkpt>
      <trkpt lat="59.112153053283691" lon="30.491609573364258">
        <time>2026-08-20T06:38:24Z</time>
      </trkpt>
      <trkpt lat="59.112131595611572" lon="30.491631031036377">
        <time>2026-08-20T06:38:27Z</time>
      </trkpt>
      <trkpt lat="59.112131595611572" lon="30.491631031036377">
        <time>2026-08-20T06:38:29Z</time>
      </trkpt>
      <trkpt lat="59.112153053283691" lon="30.491609573364258">
        <time>2026-08-20T06:38:32Z</time>
      </trkpt>
      <trkpt lat="59.112174510955811" lon="30.49156665802002">
        <time>2026-08-20T06:38:34Z</time>
      </trkpt>
      <trkpt lat="59.11219596862793" lon="30.4915452003479">
        <time>2026-08-20T06:38:37Z</time>
      </trkpt>
      <trkpt lat="59.112217426300049" lon="30.49156665802002">
        <time>2026-08-20T06:38:39Z</time>
      </trkpt>
      <trkpt lat="59.112238883972168" lon="30.49156665802002">
        <time>2026-08-20T06:38:42Z</time>
      </trkpt>
      <trkpt lat="59.112260341644287" lon="30.4915452003479">
        <time>2026-08-20T06:38:44Z</time>
      </trkpt>
      <trkpt lat="59.112281799316406" lon="30.49156665802002">
        <time>2026-08-20T06:38:47Z</time>
      </trkpt>
      <trkpt lat="59.112281799316406" lon="30.49156665802002">
        <time>2026-08-20T06:38:49Z</time>
      </trkpt>
      <trkpt lat="59.112281799316406" lon="30.49156665802002">
        <time>2026-08-20T06:38:52Z</time>
      </trkpt>
      <trkpt lat="59.112260341644287" lon="30.491631031036377">
        <time>2026-08-20T06:38:54Z</time>
      </trkpt>
      <trkpt lat="59.112238883972168" lon="30.491652488708496">
        <time>2026-08-20T06:38:57Z</time>
      </trkpt>
      <trkpt lat="59.112260341644287" lon="30.491673946380615">
        <time>2026-08-20T06:38:59Z</time>
      </trkpt>
      <trkpt lat="59.112260341644287" lon="30.491673946380615">
        <time>2026-08-20T06:39:02Z</time>
      </trkpt>
      <trkpt lat="59.112238883972168" lon="30.491738319396973">
        <time>2026-08-20T06:39:04Z</time>
      </trkpt>
      <trkpt lat="59.112238883972168" lon="30.491759777069092">
        <time>2026-08-20T06:39:07Z</time>
      </trkpt>
      <trkpt lat="59.112260341644287" lon="30.491759777069092">
        <time>2026-08-20T06:39:09Z</time>
      </trkpt>
      <trkpt lat="59.112238883972168" lon="30.491781234741211">
        <time>2026-08-20T06:39:12Z</time>
      </trkpt>
      <trkpt lat="59.112281799316406" lon="30.491845607757568">
        <time>2026-08-20T06:39:14Z</time>
      </trkpt>
      <trkpt lat="59.112281799316406" lon="30.491867065429688">
        <time>2026-08-20T06:39:17Z</time>
      </trkpt>
      <trkpt lat="59.112303256988525" lon="30.491867065429688">
        <time>2026-08-20T06:39:19Z</time>
      </trkpt>
      <trkpt lat="59.112324714660645" lon="30.491909980773926">
        <time>2026-08-20T06:39:22Z</time>
      </trkpt>
      <trkpt lat="59.112324714660645" lon="30.491909980773926">
        <time>2026-08-20T06:39:24Z</time>
      </trkpt>
      <trkpt lat="59.112324714660645" lon="30.491909980773926">
        <time>2026-08-20T06:39:27Z</time>
      </trkpt>
      <trkpt lat="59.112303256988525" lon="30.491909980773926">
        <time>2026-08-20T06:39:29Z</time>
      </trkpt>
      <trkpt lat="59.112303256988525" lon="30.491931438446045">
        <time>2026-08-20T06:39:32Z</time>
      </trkpt>
      <trkpt lat="59.112303256988525" lon="30.491974353790283">
        <time>2026-08-20T06:39:34Z</time>
      </trkpt>
      <trkpt lat="59.112303256988525" lon="30.491974353790283">
        <time>2026-08-20T06:39:37Z</time>
      </trkpt>
      <trkpt lat="59.112303256988525" lon="30.491974353790283">
        <time>2026-08-20T06:39:39Z</time>
      </trkpt>
      <trkpt lat="59.112303256988525" lon="30.491974353790283">
        <time>2026-08-20T06:39:42Z</time>
      </trkpt>
      <trkpt lat="59.112303256988525" lon="30.491974353790283">
        <time>2026-08-20T06:39:44Z</time>
      </trkpt>
      <trkpt lat="59.112303256988525" lon="30.491974353790283">
        <time>2026-08-20T06:39:47Z</time>
      </trkpt>
      <trkpt lat="59.112303256988525" lon="30.491995811462402">
        <time>2026-08-20T06:39:49Z</time>
      </trkpt>
      <trkpt lat="59.112346172332764" lon="30.491995811462402">
        <time>2026-08-20T06:39:52Z</time>
      </trkpt>
      <trkpt lat="59.112346172332764" lon="30.492038726806641">
        <time>2026-08-20T06:39:54Z</time>
      </trkpt>
      <trkpt lat="59.112324714660645" lon="30.492103099822998">
        <time>2026-08-20T06:39:57Z</time>
      </trkpt>
      <trkpt lat="59.112346172332764" lon="30.492146015167236">
        <time>2026-08-20T06:39:59Z</time>
      </trkpt>
      <trkpt lat="59.112346172332764" lon="30.492146015167236">
        <time>2026-08-20T06:40:02Z</time>
      </trkpt>
      <trkpt lat="59.112346172332764" lon="30.492188930511475">
        <time>2026-08-20T06:40:04Z</time>
      </trkpt>
      <trkpt lat="59.112346172332764" lon="30.492167472839355">
        <time>2026-08-20T06:40:07Z</time>
      </trkpt>
      <trkpt lat="59.112346172332764" lon="30.492146015167236">
        <time>2026-08-20T06:40:09Z</time>
      </trkpt>
      <trkpt lat="59.112367630004883" lon="30.492124557495117">
        <time>2026-08-20T06:40:12Z</time>
      </trkpt>
      <trkpt lat="59.112346172332764" lon="30.492103099822998">
        <time>2026-08-20T06:40:14Z</time>
      </trkpt>
      <trkpt lat="59.112324714660645" lon="30.492081642150879">
        <time>2026-08-20T06:40:17Z</time>
      </trkpt>
      <trkpt lat="59.112346172332764" lon="30.492038726806641">
        <time>2026-08-20T06:40:19Z</time>
      </trkpt>
      <trkpt lat="59.112367630004883" lon="30.492017269134521">
        <time>2026-08-20T06:40:22Z</time>
      </trkpt>
      <trkpt lat="59.112367630004883" lon="30.491995811462402">
        <time>2026-08-20T06:40:24Z</time>
      </trkpt>
      <trkpt lat="59.112367630004883" lon="30.491952896118164">
        <time>2026-08-20T06:40:27Z</time>
      </trkpt>
      <trkpt lat="59.112389087677002" lon="30.491931438446045">
        <time>2026-08-20T06:40:29Z</time>
      </trkpt>
      <trkpt lat="59.112389087677002" lon="30.491931438446045">
        <time>2026-08-20T06:40:32Z</time>
      </trkpt>
      <trkpt lat="59.112389087677002" lon="30.491845607757568">
        <time>2026-08-20T06:40:34Z</time>
      </trkpt>
      <trkpt lat="59.112410545349121" lon="30.491824150085449">
        <time>2026-08-20T06:40:37Z</time>
      </trkpt>
      <trkpt lat="59.112410545349121" lon="30.491824150085449">
        <time>2026-08-20T06:40:39Z</time>
      </trkpt>
      <trkpt lat="59.112410545349121" lon="30.491824150085449">
        <time>2026-08-20T06:40:42Z</time>
      </trkpt>
      <trkpt lat="59.112410545349121" lon="30.491845607757568">
        <time>2026-08-20T06:40:44Z</time>
      </trkpt>
      <trkpt lat="59.112389087677002" lon="30.491824150085449">
        <time>2026-08-20T06:40:47Z</time>
      </trkpt>
      <trkpt lat="59.112389087677002" lon="30.49180269241333">
        <time>2026-08-20T06:40:49Z</time>
      </trkpt>
      <trkpt lat="59.112346172332764" lon="30.491888523101807">
        <time>2026-08-20T06:40:52Z</time>
      </trkpt>
      <trkpt lat="59.112346172332764" lon="30.491909980773926">
        <time>2026-08-20T06:40:54Z</time>
      </trkpt>
      <trkpt lat="59.112346172332764" lon="30.491909980773926">
        <time>2026-08-20T06:40:57Z</time>
      </trkpt>
      <trkpt lat="59.112346172332764" lon="30.491909980773926">
        <time>2026-08-20T06:40:59Z</time>
      </trkpt>
      <trkpt lat="59.112346172332764" lon="30.491909980773926">
        <time>2026-08-20T06:41:02Z</time>
      </trkpt>
      <trkpt lat="59.112346172332764" lon="30.491909980773926">
        <time>2026-08-20T06:41:04Z</time>
      </trkpt>
      <trkpt lat="59.112346172332764" lon="30.491909980773926">
        <time>2026-08-20T06:41:07Z</time>
      </trkpt>
      <trkpt lat="59.112346172332764" lon="30.491909980773926">
        <time>2026-08-20T06:41:09Z</time>
      </trkpt>
      <trkpt lat="59.112367630004883" lon="30.491974353790283">
        <time>2026-08-20T06:41:12Z</time>
      </trkpt>
      <trkpt lat="59.112367630004883" lon="30.491995811462402">
        <time>2026-08-20T06:41:14Z</time>
      </trkpt>
      <trkpt lat="59.112389087677002" lon="30.492017269134521">
        <time>2026-08-20T06:41:17Z</time>
      </trkpt>
      <trkpt lat="59.112389087677002" lon="30.491995811462402">
        <time>2026-08-20T06:41:19Z</time>
      </trkpt>
      <trkpt lat="59.112389087677002" lon="30.491974353790283">
        <time>2026-08-20T06:41:22Z</time>
      </trkpt>
      <trkpt lat="59.11243200302124" lon="30.491974353790283">
        <time>2026-08-20T06:41:24Z</time>
      </trkpt>
      <trkpt lat="59.11243200302124" lon="30.491974353790283">
        <time>2026-08-20T06:41:27Z</time>
      </trkpt>
      <trkpt lat="59.11243200302124" lon="30.491974353790283">
        <time>2026-08-20T06:41:29Z</time>
      </trkpt>
      <trkpt lat="59.112453460693359" lon="30.491974353790283">
        <time>2026-08-20T06:41:32Z</time>
      </trkpt>
      <trkpt lat="59.112453460693359" lon="30.491995811462402">
        <time>2026-08-20T06:41:34Z</time>
      </trkpt>
      <trkpt lat="59.112453460693359" lon="30.491995811462402">
        <time>2026-08-20T06:41:37Z</time>
      </trkpt>
      <trkpt lat="59.112453460693359" lon="30.491995811462402">
        <time>2026-08-20T06:41:39Z</time>
      </trkpt>
      <trkpt lat="59.112453460693359" lon="30.491995811462402">
        <time>2026-08-20T06:41:42Z</time>
      </trkpt>
      <trkpt lat="59.112453460693359" lon="30.491995811462402">
        <time>2026-08-20T06:41:44Z</time>
      </trkpt>
      <trkpt lat="59.112453460693359" lon="30.491995811462402">
        <time>2026-08-20T06:41:47Z</time>
      </trkpt>
      <trkpt lat="59.112453460693359" lon="30.491995811462402">
        <time>2026-08-20T06:41:49Z</time>
      </trkpt>
      <trkpt lat="59.112453460693359" lon="30.491995811462402">
        <time>2026-08-20T06:41:52Z</time>
      </trkpt>
      <trkpt lat="59.112453460693359" lon="30.491995811462402">
        <time>2026-08-20T06:41:54Z</time>
      </trkpt>
      <trkpt lat="59.112453460693359" lon="30.491995811462402">
        <time>2026-08-20T06:41:57Z</time>
      </trkpt>
      <trkpt lat="59.112453460693359" lon="30.491995811462402">
        <time>2026-08-20T06:41:59Z</time>
      </trkpt>
      <trkpt lat="59.112453460693359" lon="30.491995811462402">
        <time>2026-08-20T06:42:02Z</time>
      </trkpt>
      <trkpt lat="59.112453460693359" lon="30.491995811462402">
        <time>2026-08-20T06:42:04Z</time>
      </trkpt>
      <trkpt lat="59.112474918365479" lon="30.492038726806641">
        <time>2026-08-20T06:42:07Z</time>
      </trkpt>
      <trkpt lat="59.112496376037598" lon="30.492103099822998">
        <time>2026-08-20T06:42:09Z</time>
      </trkpt>
      <trkpt lat="59.112496376037598" lon="30.492124557495117">
        <time>2026-08-20T06:42:12Z</time>
      </trkpt>
      <trkpt lat="59.112517833709717" lon="30.492146015167236">
        <time>2026-08-20T06:42:14Z</time>
      </trkpt>
      <trkpt lat="59.112517833709717" lon="30.492146015167236">
        <time>2026-08-20T06:42:17Z</time>
      </trkpt>
      <trkpt lat="59.112517833709717" lon="30.492146015167236">
        <time>2026-08-20T06:42:19Z</time>
      </trkpt>
      <trkpt lat="59.112517833709717" lon="30.492146015167236">
        <time>2026-08-20T06:42:22Z</time>
      </trkpt>
      <trkpt lat="59.112517833709717" lon="30.492146015167236">
        <time>2026-08-20T06:42:24Z</time>
      </trkpt>
      <trkpt lat="59.112517833709717" lon="30.492146015167236">
        <time>2026-08-20T06:42:27Z</time>
      </trkpt>
      <trkpt lat="59.112517833709717" lon="30.492146015167236">
        <time>2026-08-20T06:42:29Z</time>
      </trkpt>
      <trkpt lat="59.112517833709717" lon="30.492146015167236">
        <time>2026-08-20T06:42:32Z</time>
      </trkpt>
      <trkpt lat="59.112517833709717" lon="30.492146015167236">
        <time>2026-08-20T06:42:34Z</time>
      </trkpt>
      <trkpt lat="59.112474918365479" lon="30.492167472839355">
        <time>2026-08-20T06:42:37Z</time>
      </trkpt>
      <trkpt lat="59.11243200302124" lon="30.492167472839355">
        <time>2026-08-20T06:42:39Z</time>
      </trkpt>
      <trkpt lat="59.112410545349121" lon="30.492167472839355">
        <time>2026-08-20T06:42:42Z</time>
      </trkpt>
      <trkpt lat="59.112367630004883" lon="30.492146015167236">
        <time>2026-08-20T06:42:44Z</time>
      </trkpt>
      <trkpt lat="59.112324714660645" lon="30.492167472839355">
        <time>2026-08-20T06:42:47Z</time>
      </trkpt>
      <trkpt lat="59.112303256988525" lon="30.492146015167236">
        <time>2026-08-20T06:42:49Z</time>
      </trkpt>
      <trkpt lat="59.112303256988525" lon="30.492146015167236">
        <time>2026-08-20T06:42:52Z</time>
      </trkpt>
      <trkpt lat="59.112281799316406" lon="30.492167472839355">
        <time>2026-08-20T06:42:54Z</time>
      </trkpt>
      <trkpt lat="59.112260341644287" lon="30.492188930511475">
        <time>2026-08-20T06:42:57Z</time>
      </trkpt>
      <trkpt lat="59.112238883972168" lon="30.492146015167236">
        <time>2026-08-20T06:42:59Z</time>
      </trkpt>
      <trkpt lat="59.112238883972168" lon="30.492146015167236">
        <time>2026-08-20T06:43:02Z</time>
      </trkpt>
      <trkpt lat="59.112217426300049" lon="30.492146015167236">
        <time>2026-08-20T06:43:04Z</time>
      </trkpt>
      <trkpt lat="59.112217426300049" lon="30.492146015167236">
        <time>2026-08-20T06:43:07Z</time>
      </trkpt>
      <trkpt lat="59.112174510955811" lon="30.492146015167236">
        <time>2026-08-20T06:43:09Z</time>
      </trkpt>
      <trkpt lat="59.112153053283691" lon="30.492167472839355">
        <time>2026-08-20T06:43:12Z</time>
      </trkpt>
      <trkpt lat="59.112153053283691" lon="30.492167472839355">
        <time>2026-08-20T06:43:14Z</time>
      </trkpt>
      <trkpt lat="59.112153053283691" lon="30.492167472839355">
        <time>2026-08-20T06:43:17Z</time>
      </trkpt>
      <trkpt lat="59.112110137939453" lon="30.492167472839355">
        <time>2026-08-20T06:43:19Z</time>
      </trkpt>
      <trkpt lat="59.112110137939453" lon="30.492167472839355">
        <time>2026-08-20T06:43:22Z</time>
      </trkpt>
      <trkpt lat="59.112088680267334" lon="30.492188930511475">
        <time>2026-08-20T06:43:24Z</time>
      </trkpt>
      <trkpt lat="59.112088680267334" lon="30.492188930511475">
        <time>2026-08-20T06:43:27Z</time>
      </trkpt>
      <trkpt lat="59.112088680267334" lon="30.492188930511475">
        <time>2026-08-20T06:43:29Z</time>
      </trkpt>
      <trkpt lat="59.112088680267334" lon="30.492188930511475">
        <time>2026-08-20T06:43:32Z</time>
      </trkpt>
      <trkpt lat="59.112067222595215" lon="30.492188930511475">
        <time>2026-08-20T06:43:34Z</time>
      </trkpt>
      <trkpt lat="59.112067222595215" lon="30.492188930511475">
        <time>2026-08-20T06:43:37Z</time>
      </trkpt>
      <trkpt lat="59.112045764923096" lon="30.492167472839355">
        <time>2026-08-20T06:43:39Z</time>
      </trkpt>
      <trkpt lat="59.112024307250977" lon="30.492167472839355">
        <time>2026-08-20T06:43:42Z</time>
      </trkpt>
      <trkpt lat="59.1119384765625" lon="30.492167472839355">
        <time>2026-08-20T06:43:44Z</time>
      </trkpt>
      <trkpt lat="59.1119384765625" lon="30.492167472839355">
        <time>2026-08-20T06:43:47Z</time>
      </trkpt>
      <trkpt lat="59.111895561218262" lon="30.492188930511475">
        <time>2026-08-20T06:43:49Z</time>
      </trkpt>
      <trkpt lat="59.111874103546143" lon="30.492188930511475">
        <time>2026-08-20T06:43:52Z</time>
      </trkpt>
      <trkpt lat="59.111874103546143" lon="30.492188930511475">
        <time>2026-08-20T06:43:54Z</time>
      </trkpt>
      <trkpt lat="59.111874103546143" lon="30.492167472839355">
        <time>2026-08-20T06:43:57Z</time>
      </trkpt>
      <trkpt lat="59.111874103546143" lon="30.492167472839355">
        <time>2026-08-20T06:43:59Z</time>
      </trkpt>
      <trkpt lat="59.111874103546143" lon="30.492167472839355">
        <time>2026-08-20T06:44:02Z</time>
      </trkpt>
      <trkpt lat="59.111852645874023" lon="30.492188930511475">
        <time>2026-08-20T06:44:04Z</time>
      </trkpt>
      <trkpt lat="59.111852645874023" lon="30.492188930511475">
        <time>2026-08-20T06:44:07Z</time>
      </trkpt>
      <trkpt lat="59.111852645874023" lon="30.492188930511475">
        <time>2026-08-20T06:44:09Z</time>
      </trkpt>
      <trkpt lat="59.111809730529785" lon="30.492188930511475">
        <time>2026-08-20T06:44:12Z</time>
      </trkpt>
      <trkpt lat="59.111788272857666" lon="30.492210388183594">
        <time>2026-08-20T06:44:14Z</time>
      </trkpt>
      <trkpt lat="59.111788272857666" lon="30.492231845855713">
        <time>2026-08-20T06:44:17Z</time>
      </trkpt>
      <trkpt lat="59.111788272857666" lon="30.492253303527832">
        <time>2026-08-20T06:44:19Z</time>
      </trkpt>
      <trkpt lat="59.111788272857666" lon="30.492253303527832">
        <time>2026-08-20T06:44:22Z</time>
      </trkpt>
      <trkpt lat="59.111766815185547" lon="30.492253303527832">
        <time>2026-08-20T06:44:24Z</time>
      </trkpt>
      <trkpt lat="59.111745357513428" lon="30.492210388183594">
        <time>2026-08-20T06:44:27Z</time>
      </trkpt>
      <trkpt lat="59.111745357513428" lon="30.492210388183594">
        <time>2026-08-20T06:44:29Z</time>
      </trkpt>
      <trkpt lat="59.111745357513428" lon="30.492210388183594">
        <time>2026-08-20T06:44:32Z</time>
      </trkpt>
      <trkpt lat="59.111745357513428" lon="30.492210388183594">
        <time>2026-08-20T06:44:34Z</time>
      </trkpt>
      <trkpt lat="59.111745357513428" lon="30.492210388183594">
        <time>2026-08-20T06:44:37Z</time>
      </trkpt>
      <trkpt lat="59.111745357513428" lon="30.492210388183594">
        <time>2026-08-20T06:44:39Z</time>
      </trkpt>
      <trkpt lat="59.111745357513428" lon="30.492210388183594">
        <time>2026-08-20T06:44:42Z</time>
      </trkpt>
      <trkpt lat="59.111745357513428" lon="30.492188930511475">
        <time>2026-08-20T06:44:44Z</time>
      </trkpt>
      <trkpt lat="59.111723899841309" lon="30.492146015167236">
        <time>2026-08-20T06:44:47Z</time>
      </trkpt>
      <trkpt lat="59.111723899841309" lon="30.492124557495117">
        <time>2026-08-20T06:44:49Z</time>
      </trkpt>
      <trkpt lat="59.111723899841309" lon="30.492103099822998">
        <time>2026-08-20T06:44:52Z</time>
      </trkpt>
      <trkpt lat="59.111723899841309" lon="30.492103099822998">
        <time>2026-08-20T06:44:54Z</time>
      </trkpt>
      <trkpt lat="59.111723899841309" lon="30.492103099822998">
        <time>2026-08-20T06:44:57Z</time>
      </trkpt>
      <trkpt lat="59.111723899841309" lon="30.492103099822998">
        <time>2026-08-20T06:44:59Z</time>
      </trkpt>
      <trkpt lat="59.111723899841309" lon="30.492103099822998">
        <time>2026-08-20T06:45:02Z</time>
      </trkpt>
      <trkpt lat="59.111745357513428" lon="30.492103099822998">
        <time>2026-08-20T06:45:04Z</time>
      </trkpt>
      <trkpt lat="59.111745357513428" lon="30.492081642150879">
        <time>2026-08-20T06:45:07Z</time>
      </trkpt>
      <trkpt lat="59.111745357513428" lon="30.492081642150879">
        <time>2026-08-20T06:45:09Z</time>
      </trkpt>
      <trkpt lat="59.111745357513428" lon="30.492081642150879">
        <time>2026-08-20T06:45:12Z</time>
      </trkpt>
      <trkpt lat="59.111745357513428" lon="30.492081642150879">
        <time>2026-08-20T06:45:14Z</time>
      </trkpt>
      <trkpt lat="59.111745357513428" lon="30.492081642150879">
        <time>2026-08-20T06:45:17Z</time>
      </trkpt>
      <trkpt lat="59.111745357513428" lon="30.492081642150879">
        <time>2026-08-20T06:45:19Z</time>
      </trkpt>
      <trkpt lat="59.111745357513428" lon="30.492081642150879">
        <time>2026-08-20T06:45:22Z</time>
      </trkpt>
      <trkpt lat="59.111745357513428" lon="30.492081642150879">
        <time>2026-08-20T06:45:24Z</time>
      </trkpt>
      <trkpt lat="59.111766815185547" lon="30.492081642150879">
        <time>2026-08-20T06:45:27Z</time>
      </trkpt>
      <trkpt lat="59.111788272857666" lon="30.49206018447876">
        <time>2026-08-20T06:45:29Z</time>
      </trkpt>
      <trkpt lat="59.111788272857666" lon="30.49206018447876">
        <time>2026-08-20T06:45:32Z</time>
      </trkpt>
      <trkpt lat="59.111788272857666" lon="30.49206018447876">
        <time>2026-08-20T06:45:34Z</time>
      </trkpt>
      <trkpt lat="59.111788272857666" lon="30.49206018447876">
        <time>2026-08-20T06:45:37Z</time>
      </trkpt>
      <trkpt lat="59.111788272857666" lon="30.49206018447876">
        <time>2026-08-20T06:45:39Z</time>
      </trkpt>
      <trkpt lat="59.111788272857666" lon="30.49206018447876">
        <time>2026-08-20T06:45:42Z</time>
      </trkpt>
      <trkpt lat="59.111788272857666" lon="30.49206018447876">
        <time>2026-08-20T06:45:44Z</time>
      </trkpt>
      <trkpt lat="59.111788272857666" lon="30.49206018447876">
        <time>2026-08-20T06:45:47Z</time>
      </trkpt>
      <trkpt lat="59.111788272857666" lon="30.49206018447876">
        <time>2026-08-20T06:45:49Z</time>
      </trkpt>
      <trkpt lat="59.111788272857666" lon="30.49206018447876">
        <time>2026-08-20T06:45:52Z</time>
      </trkpt>
      <trkpt lat="59.111788272857666" lon="30.49206018447876">
        <time>2026-08-20T06:45:54Z</time>
      </trkpt>
      <trkpt lat="59.111788272857666" lon="30.49206018447876">
        <time>2026-08-20T06:45:57Z</time>
      </trkpt>
      <trkpt lat="59.111788272857666" lon="30.49206018447876">
        <time>2026-08-20T06:45:59Z</time>
      </trkpt>
      <trkpt lat="59.111809730529785" lon="30.49206018447876">
        <time>2026-08-20T06:46:02Z</time>
      </trkpt>
      <trkpt lat="59.111831188201904" lon="30.49206018447876">
        <time>2026-08-20T06:46:07Z</time>
      </trkpt>
      <trkpt lat="59.111809730529785" lon="30.492103099822998">
        <time>2026-08-20T06:46:09Z</time>
      </trkpt>
      <trkpt lat="59.111766815185547" lon="30.492103099822998">
        <time>2026-08-20T06:46:12Z</time>
      </trkpt>
      <trkpt lat="59.111788272857666" lon="30.492081642150879">
        <time>2026-08-20T06:46:14Z</time>
      </trkpt>
      <trkpt lat="59.111809730529785" lon="30.49206018447876">
        <time>2026-08-20T06:46:17Z</time>
      </trkpt>
      <trkpt lat="59.111809730529785" lon="30.49206018447876">
        <time>2026-08-20T06:46:19Z</time>
      </trkpt>
      <trkpt lat="59.111766815185547" lon="30.49206018447876">
        <time>2026-08-20T06:46:22Z</time>
      </trkpt>
      <trkpt lat="59.111766815185547" lon="30.491995811462402">
        <time>2026-08-20T06:46:24Z</time>
      </trkpt>
      <trkpt lat="59.111788272857666" lon="30.491909980773926">
        <time>2026-08-20T06:46:27Z</time>
      </trkpt>
      <trkpt lat="59.111788272857666" lon="30.491888523101807">
        <time>2026-08-20T06:46:29Z</time>
      </trkpt>
      <trkpt lat="59.111788272857666" lon="30.491909980773926">
        <time>2026-08-20T06:46:32Z</time>
      </trkpt>
      <trkpt lat="59.111766815185547" lon="30.491867065429688">
        <time>2026-08-20T06:46:34Z</time>
      </trkpt>
      <trkpt lat="59.111766815185547" lon="30.491845607757568">
        <time>2026-08-20T06:46:37Z</time>
      </trkpt>
      <trkpt lat="59.111766815185547" lon="30.491845607757568">
        <time>2026-08-20T06:46:39Z</time>
      </trkpt>
      <trkpt lat="59.111745357513428" lon="30.491781234741211">
        <time>2026-08-20T06:46:42Z</time>
      </trkpt>
      <trkpt lat="59.111745357513428" lon="30.491716861724854">
        <time>2026-08-20T06:46:44Z</time>
      </trkpt>
      <trkpt lat="59.111745357513428" lon="30.491695404052734">
        <time>2026-08-20T06:46:47Z</time>
      </trkpt>
      <trkpt lat="59.111745357513428" lon="30.491695404052734">
        <time>2026-08-20T06:46:49Z</time>
      </trkpt>
      <trkpt lat="59.111766815185547" lon="30.491652488708496">
        <time>2026-08-20T06:46:52Z</time>
      </trkpt>
      <trkpt lat="59.111766815185547" lon="30.491609573364258">
        <time>2026-08-20T06:46:54Z</time>
      </trkpt>
      <trkpt lat="59.111788272857666" lon="30.4915452003479">
        <time>2026-08-20T06:46:57Z</time>
      </trkpt>
      <trkpt lat="59.111788272857666" lon="30.491523742675781">
        <time>2026-08-20T06:46:59Z</time>
      </trkpt>
      <trkpt lat="59.111809730529785" lon="30.491502285003662">
        <time>2026-08-20T06:47:02Z</time>
      </trkpt>
      <trkpt lat="59.111831188201904" lon="30.491459369659424">
        <time>2026-08-20T06:47:04Z</time>
      </trkpt>
      <trkpt lat="59.111809730529785" lon="30.491416454315186">
        <time>2026-08-20T06:47:07Z</time>
      </trkpt>
      <trkpt lat="59.111766815185547" lon="30.491416454315186">
        <time>2026-08-20T06:47:09Z</time>
      </trkpt>
      <trkpt lat="59.111723899841309" lon="30.491394996643066">
        <time>2026-08-20T06:47:12Z</time>
      </trkpt>
      <trkpt lat="59.111723899841309" lon="30.491394996643066">
        <time>2026-08-20T06:47:14Z</time>
      </trkpt>
      <trkpt lat="59.111723899841309" lon="30.491373538970947">
        <time>2026-08-20T06:47:17Z</time>
      </trkpt>
      <trkpt lat="59.111766815185547" lon="30.49130916595459">
        <time>2026-08-20T06:47:19Z</time>
      </trkpt>
      <trkpt lat="59.111766815185547" lon="30.491266250610352">
        <time>2026-08-20T06:47:22Z</time>
      </trkpt>
      <trkpt lat="59.111766815185547" lon="30.491244792938232">
        <time>2026-08-20T06:47:24Z</time>
      </trkpt>
      <trkpt lat="59.111766815185547" lon="30.491223335266113">
        <time>2026-08-20T06:47:27Z</time>
      </trkpt>
      <trkpt lat="59.111745357513428" lon="30.491223335266113">
        <time>2026-08-20T06:47:29Z</time>
      </trkpt>
      <trkpt lat="59.11168098449707" lon="30.491158962249756">
        <time>2026-08-20T06:47:32Z</time>
      </trkpt>
      <trkpt lat="59.111659526824951" lon="30.491008758544922">
        <time>2026-08-20T06:47:37Z</time>
      </trkpt>
      <trkpt lat="59.111659526824951" lon="30.490965843200684">
        <time>2026-08-20T06:47:39Z</time>
      </trkpt>
      <trkpt lat="59.111659526824951" lon="30.490944385528564">
        <time>2026-08-20T06:47:42Z</time>
      </trkpt>
      <trkpt lat="59.111659526824951" lon="30.490922927856445">
        <time>2026-08-20T06:47:44Z</time>
      </trkpt>
      <trkpt lat="59.111659526824951" lon="30.490901470184326">
        <time>2026-08-20T06:47:47Z</time>
      </trkpt>
      <trkpt lat="59.111659526824951" lon="30.490901470184326">
        <time>2026-08-20T06:47:49Z</time>
      </trkpt>
      <trkpt lat="59.111659526824951" lon="30.490901470184326">
        <time>2026-08-20T06:47:52Z</time>
      </trkpt>
      <trkpt lat="59.111659526824951" lon="30.490901470184326">
        <time>2026-08-20T06:47:54Z</time>
      </trkpt>
      <trkpt lat="59.111659526824951" lon="30.490901470184326">
        <time>2026-08-20T06:47:57Z</time>
      </trkpt>
      <trkpt lat="59.111659526824951" lon="30.490901470184326">
        <time>2026-08-20T06:47:59Z</time>
      </trkpt>
      <trkpt lat="59.111659526824951" lon="30.490901470184326">
        <time>2026-08-20T06:48:02Z</time>
      </trkpt>
      <trkpt lat="59.111659526824951" lon="30.490901470184326">
        <time>2026-08-20T06:48:04Z</time>
      </trkpt>
      <trkpt lat="59.111659526824951" lon="30.490858554840088">
        <time>2026-08-20T06:48:07Z</time>
      </trkpt>
      <trkpt lat="59.111638069152832" lon="30.490858554840088">
        <time>2026-08-20T06:48:09Z</time>
      </trkpt>
      <trkpt lat="59.111638069152832" lon="30.490837097167969">
        <time>2026-08-20T06:48:12Z</time>
      </trkpt>
      <trkpt lat="59.111638069152832" lon="30.49081563949585">
        <time>2026-08-20T06:48:14Z</time>
      </trkpt>
      <trkpt lat="59.111616611480713" lon="30.490751266479492">
        <time>2026-08-20T06:48:17Z</time>
      </trkpt>
      <trkpt lat="59.111616611480713" lon="30.490686893463135">
        <time>2026-08-20T06:48:19Z</time>
      </trkpt>
      <trkpt lat="59.111616611480713" lon="30.490643978118896">
        <time>2026-08-20T06:48:22Z</time>
      </trkpt>
      <trkpt lat="59.111616611480713" lon="30.490643978118896">
        <time>2026-08-20T06:48:24Z</time>
      </trkpt>
      <trkpt lat="59.111616611480713" lon="30.490643978118896">
        <time>2026-08-20T06:48:27Z</time>
      </trkpt>
      <trkpt lat="59.111616611480713" lon="30.490579605102539">
        <time>2026-08-20T06:48:29Z</time>
      </trkpt>
      <trkpt lat="59.111616611480713" lon="30.490515232086182">
        <time>2026-08-20T06:48:32Z</time>
      </trkpt>
      <trkpt lat="59.111638069152832" lon="30.490472316741943">
        <time>2026-08-20T06:48:34Z</time>
      </trkpt>
      <trkpt lat="59.111638069152832" lon="30.490472316741943">
        <time>2026-08-20T06:48:37Z</time>
      </trkpt>
      <trkpt lat="59.111638069152832" lon="30.490450859069824">
        <time>2026-08-20T06:48:39Z</time>
      </trkpt>
      <trkpt lat="59.111638069152832" lon="30.490429401397705">
        <time>2026-08-20T06:48:42Z</time>
      </trkpt>
      <trkpt lat="59.111659526824951" lon="30.490322113037109">
        <time>2026-08-20T06:48:44Z</time>
      </trkpt>
      <trkpt lat="59.111659526824951" lon="30.490257740020752">
        <time>2026-08-20T06:48:47Z</time>
      </trkpt>
      <trkpt lat="59.111659526824951" lon="30.490214824676514">
        <time>2026-08-20T06:48:49Z</time>
      </trkpt>
      <trkpt lat="59.111616611480713" lon="30.490236282348633">
        <time>2026-08-20T06:48:52Z</time>
      </trkpt>
      <trkpt lat="59.111573696136475" lon="30.490214824676514">
        <time>2026-08-20T06:48:54Z</time>
      </trkpt>
      <trkpt lat="59.111573696136475" lon="30.490214824676514">
        <time>2026-08-20T06:48:57Z</time>
      </trkpt>
      <trkpt lat="59.111573696136475" lon="30.490214824676514">
        <time>2026-08-20T06:48:59Z</time>
      </trkpt>
      <trkpt lat="59.111573696136475" lon="30.490150451660156">
        <time>2026-08-20T06:49:02Z</time>
      </trkpt>
      <trkpt lat="59.111595153808594" lon="30.490128993988037">
        <time>2026-08-20T06:49:04Z</time>
      </trkpt>
      <trkpt lat="59.111573696136475" lon="30.490128993988037">
        <time>2026-08-20T06:49:07Z</time>
      </trkpt>
      <trkpt lat="59.111573696136475" lon="30.49006462097168">
        <time>2026-08-20T06:49:09Z</time>
      </trkpt>
      <trkpt lat="59.111530780792236" lon="30.490000247955322">
        <time>2026-08-20T06:49:12Z</time>
      </trkpt>
      <trkpt lat="59.111530780792236" lon="30.490000247955322">
        <time>2026-08-20T06:49:14Z</time>
      </trkpt>
      <trkpt lat="59.111530780792236" lon="30.490000247955322">
        <time>2026-08-20T06:49:17Z</time>
      </trkpt>
      <trkpt lat="59.111530780792236" lon="30.490000247955322">
        <time>2026-08-20T06:49:19Z</time>
      </trkpt>
      <trkpt lat="59.111530780792236" lon="30.489957332611084">
        <time>2026-08-20T06:49:22Z</time>
      </trkpt>
      <trkpt lat="59.111552238464355" lon="30.489914417266846">
        <time>2026-08-20T06:49:24Z</time>
      </trkpt>
      <trkpt lat="59.111530780792236" lon="30.489871501922607">
        <time>2026-08-20T06:49:27Z</time>
      </trkpt>
      <trkpt lat="59.111509323120117" lon="30.489850044250488">
        <time>2026-08-20T06:49:29Z</time>
      </trkpt>
      <trkpt lat="59.111509323120117" lon="30.489828586578369">
        <time>2026-08-20T06:49:32Z</time>
      </trkpt>
      <trkpt lat="59.111509323120117" lon="30.489785671234131">
        <time>2026-08-20T06:49:34Z</time>
      </trkpt>
      <trkpt lat="59.111509323120117" lon="30.489785671234131">
        <time>2026-08-20T06:49:37Z</time>
      </trkpt>
      <trkpt lat="59.111509323120117" lon="30.489785671234131">
        <time>2026-08-20T06:49:39Z</time>
      </trkpt>
      <trkpt lat="59.111509323120117" lon="30.489785671234131">
        <time>2026-08-20T06:49:42Z</time>
      </trkpt>
      <trkpt lat="59.111509323120117" lon="30.489785671234131">
        <time>2026-08-20T06:49:44Z</time>
      </trkpt>
      <trkpt lat="59.111509323120117" lon="30.489785671234131">
        <time>2026-08-20T06:49:47Z</time>
      </trkpt>
      <trkpt lat="59.111509323120117" lon="30.489785671234131">
        <time>2026-08-20T06:49:49Z</time>
      </trkpt>
      <trkpt lat="59.111509323120117" lon="30.489785671234131">
        <time>2026-08-20T06:49:52Z</time>
      </trkpt>
      <trkpt lat="59.111509323120117" lon="30.489785671234131">
        <time>2026-08-20T06:49:54Z</time>
      </trkpt>
      <trkpt lat="59.111509323120117" lon="30.489742755889893">
        <time>2026-08-20T06:49:57Z</time>
      </trkpt>
      <trkpt lat="59.111509323120117" lon="30.489699840545654">
        <time>2026-08-20T06:49:59Z</time>
      </trkpt>
      <trkpt lat="59.111487865447998" lon="30.489635467529297">
        <time>2026-08-20T06:50:02Z</time>
      </trkpt>
      <trkpt lat="59.111466407775879" lon="30.489592552185059">
        <time>2026-08-20T06:50:04Z</time>
      </trkpt>
      <trkpt lat="59.111509323120117" lon="30.48954963684082">
        <time>2026-08-20T06:50:07Z</time>
      </trkpt>
      <trkpt lat="59.111509323120117" lon="30.489528179168701">
        <time>2026-08-20T06:50:09Z</time>
      </trkpt>
      <trkpt lat="59.111552238464355" lon="30.489528179168701">
        <time>2026-08-20T06:50:12Z</time>
      </trkpt>
      <trkpt lat="59.111552238464355" lon="30.489528179168701">
        <time>2026-08-20T06:50:14Z</time>
      </trkpt>
      <trkpt lat="59.111552238464355" lon="30.489506721496582">
        <time>2026-08-20T06:50:17Z</time>
      </trkpt>
      <trkpt lat="59.111595153808594" lon="30.489506721496582">
        <time>2026-08-20T06:50:19Z</time>
      </trkpt>
      <trkpt lat="59.111616611480713" lon="30.489485263824463">
        <time>2026-08-20T06:50:22Z</time>
      </trkpt>
      <trkpt lat="59.111638069152832" lon="30.489442348480225">
        <time>2026-08-20T06:50:24Z</time>
      </trkpt>
      <trkpt lat="59.111616611480713" lon="30.489420890808105">
        <time>2026-08-20T06:50:27Z</time>
      </trkpt>
      <trkpt lat="59.111595153808594" lon="30.489399433135986">
        <time>2026-08-20T06:50:29Z</time>
      </trkpt>
      <trkpt lat="59.111595153808594" lon="30.489377975463867">
        <time>2026-08-20T06:50:32Z</time>
      </trkpt>
      <trkpt lat="59.111616611480713" lon="30.489335060119629">
        <time>2026-08-20T06:50:34Z</time>
      </trkpt>
      <trkpt lat="59.111638069152832" lon="30.489292144775391">
        <time>2026-08-20T06:50:37Z</time>
      </trkpt>
      <trkpt lat="59.111659526824951" lon="30.489270687103271">
        <time>2026-08-20T06:50:39Z</time>
      </trkpt>
      <trkpt lat="59.11168098449707" lon="30.489270687103271">
        <time>2026-08-20T06:50:42Z</time>
      </trkpt>
      <trkpt lat="59.11168098449707" lon="30.489249229431152">
        <time>2026-08-20T06:50:44Z</time>
      </trkpt>
      <trkpt lat="59.11168098449707" lon="30.489270687103271">
        <time>2026-08-20T06:50:47Z</time>
      </trkpt>
      <trkpt lat="59.11168098449707" lon="30.489335060119629">
        <time>2026-08-20T06:50:49Z</time>
      </trkpt>
      <trkpt lat="59.111659526824951" lon="30.489399433135986">
        <time>2026-08-20T06:50:52Z</time>
      </trkpt>
      <trkpt lat="59.111638069152832" lon="30.489420890808105">
        <time>2026-08-20T06:50:54Z</time>
      </trkpt>
      <trkpt lat="59.111638069152832" lon="30.489420890808105">
        <time>2026-08-20T06:50:57Z</time>
      </trkpt>
      <trkpt lat="59.111595153808594" lon="30.489442348480225">
        <time>2026-08-20T06:50:59Z</time>
      </trkpt>
      <trkpt lat="59.111595153808594" lon="30.489463806152344">
        <time>2026-08-20T06:51:02Z</time>
      </trkpt>
      <trkpt lat="59.111595153808594" lon="30.489463806152344">
        <time>2026-08-20T06:51:04Z</time>
      </trkpt>
      <trkpt lat="59.111595153808594" lon="30.489463806152344">
        <time>2026-08-20T06:51:07Z</time>
      </trkpt>
      <trkpt lat="59.111595153808594" lon="30.489463806152344">
        <time>2026-08-20T06:51:09Z</time>
      </trkpt>
      <trkpt lat="59.111595153808594" lon="30.489463806152344">
        <time>2026-08-20T06:51:12Z</time>
      </trkpt>
      <trkpt lat="59.111595153808594" lon="30.489463806152344">
        <time>2026-08-20T06:51:14Z</time>
      </trkpt>
      <trkpt lat="59.111595153808594" lon="30.489463806152344">
        <time>2026-08-20T06:51:17Z</time>
      </trkpt>
      <trkpt lat="59.111595153808594" lon="30.489463806152344">
        <time>2026-08-20T06:51:19Z</time>
      </trkpt>
      <trkpt lat="59.111595153808594" lon="30.489463806152344">
        <time>2026-08-20T06:51:22Z</time>
      </trkpt>
      <trkpt lat="59.111595153808594" lon="30.489463806152344">
        <time>2026-08-20T06:51:24Z</time>
      </trkpt>
      <trkpt lat="59.111595153808594" lon="30.489399433135986">
        <time>2026-08-20T06:51:27Z</time>
      </trkpt>
      <trkpt lat="59.111595153808594" lon="30.489399433135986">
        <time>2026-08-20T06:51:29Z</time>
      </trkpt>
      <trkpt lat="59.111595153808594" lon="30.489356517791748">
        <time>2026-08-20T06:51:32Z</time>
      </trkpt>
      <trkpt lat="59.111595153808594" lon="30.48931360244751">
        <time>2026-08-20T06:51:34Z</time>
      </trkpt>
      <trkpt lat="59.111573696136475" lon="30.489270687103271">
        <time>2026-08-20T06:51:37Z</time>
      </trkpt>
      <trkpt lat="59.111595153808594" lon="30.489270687103271">
        <time>2026-08-20T06:51:39Z</time>
      </trkpt>
      <trkpt lat="59.111595153808594" lon="30.489206314086914">
        <time>2026-08-20T06:51:42Z</time>
      </trkpt>
      <trkpt lat="59.111595153808594" lon="30.489206314086914">
        <time>2026-08-20T06:51:44Z</time>
      </trkpt>
      <trkpt lat="59.111595153808594" lon="30.489163398742676">
        <time>2026-08-20T06:51:47Z</time>
      </trkpt>
      <trkpt lat="59.111595153808594" lon="30.489099025726318">
        <time>2026-08-20T06:51:49Z</time>
      </trkpt>
      <trkpt lat="59.111595153808594" lon="30.489099025726318">
        <time>2026-08-20T06:51:52Z</time>
      </trkpt>
      <trkpt lat="59.111595153808594" lon="30.489099025726318">
        <time>2026-08-20T06:51:54Z</time>
      </trkpt>
      <trkpt lat="59.111595153808594" lon="30.48905611038208">
        <time>2026-08-20T06:51:57Z</time>
      </trkpt>
      <trkpt lat="59.111595153808594" lon="30.489034652709961">
        <time>2026-08-20T06:51:59Z</time>
      </trkpt>
      <trkpt lat="59.111595153808594" lon="30.489013195037842">
        <time>2026-08-20T06:52:02Z</time>
      </trkpt>
      <trkpt lat="59.111616611480713" lon="30.488970279693604">
        <time>2026-08-20T06:52:04Z</time>
      </trkpt>
      <trkpt lat="59.111616611480713" lon="30.488970279693604">
        <time>2026-08-20T06:52:07Z</time>
      </trkpt>
      <trkpt lat="59.111616611480713" lon="30.488970279693604">
        <time>2026-08-20T06:52:09Z</time>
      </trkpt>
      <trkpt lat="59.111595153808594" lon="30.488905906677246">
        <time>2026-08-20T06:52:12Z</time>
      </trkpt>
      <trkpt lat="59.111595153808594" lon="30.488884449005127">
        <time>2026-08-20T06:52:14Z</time>
      </trkpt>
      <trkpt lat="59.111616611480713" lon="30.488862991333008">
        <time>2026-08-20T06:52:17Z</time>
      </trkpt>
      <trkpt lat="59.111616611480713" lon="30.488841533660889">
        <time>2026-08-20T06:52:19Z</time>
      </trkpt>
      <trkpt lat="59.111638069152832" lon="30.48882007598877">
        <time>2026-08-20T06:52:22Z</time>
      </trkpt>
      <trkpt lat="59.111638069152832" lon="30.48879861831665">
        <time>2026-08-20T06:52:24Z</time>
      </trkpt>
      <trkpt lat="59.111638069152832" lon="30.48879861831665">
        <time>2026-08-20T06:52:27Z</time>
      </trkpt>
      <trkpt lat="59.111638069152832" lon="30.48879861831665">
        <time>2026-08-20T06:52:29Z</time>
      </trkpt>
      <trkpt lat="59.111659526824951" lon="30.488755702972412">
        <time>2026-08-20T06:52:32Z</time>
      </trkpt>
      <trkpt lat="59.11168098449707" lon="30.488755702972412">
        <time>2026-08-20T06:52:34Z</time>
      </trkpt>
      <trkpt lat="59.11168098449707" lon="30.488755702972412">
        <time>2026-08-20T06:52:37Z</time>
      </trkpt>
      <trkpt lat="59.11168098449707" lon="30.488755702972412">
        <time>2026-08-20T06:52:39Z</time>
      </trkpt>
      <trkpt lat="59.11168098449707" lon="30.488734245300293">
        <time>2026-08-20T06:52:42Z</time>
      </trkpt>
      <trkpt lat="59.111702442169189" lon="30.488669872283936">
        <time>2026-08-20T06:52:44Z</time>
      </trkpt>
      <trkpt lat="59.111702442169189" lon="30.488605499267578">
        <time>2026-08-20T06:52:47Z</time>
      </trkpt>
      <trkpt lat="59.11168098449707" lon="30.488605499267578">
        <time>2026-08-20T06:52:49Z</time>
      </trkpt>
      <trkpt lat="59.111702442169189" lon="30.488584041595459">
        <time>2026-08-20T06:52:52Z</time>
      </trkpt>
      <trkpt lat="59.111723899841309" lon="30.488519668579102">
        <time>2026-08-20T06:52:54Z</time>
      </trkpt>
      <trkpt lat="59.111723899841309" lon="30.488498210906982">
        <time>2026-08-20T06:52:57Z</time>
      </trkpt>
      <trkpt lat="59.111702442169189" lon="30.488498210906982">
        <time>2026-08-20T06:52:59Z</time>
      </trkpt>
      <trkpt lat="59.11168098449707" lon="30.488455295562744">
        <time>2026-08-20T06:53:02Z</time>
      </trkpt>
      <trkpt lat="59.11168098449707" lon="30.488390922546387">
        <time>2026-08-20T06:53:04Z</time>
      </trkpt>
      <trkpt lat="59.11168098449707" lon="30.488348007202148">
        <time>2026-08-20T06:53:07Z</time>
      </trkpt>
      <trkpt lat="59.11168098449707" lon="30.488326549530029">
        <time>2026-08-20T06:53:09Z</time>
      </trkpt>
      <trkpt lat="59.111659526824951" lon="30.488326549530029">
        <time>2026-08-20T06:53:12Z</time>
      </trkpt>
      <trkpt lat="59.111638069152832" lon="30.488326549530029">
        <time>2026-08-20T06:53:14Z</time>
      </trkpt>
      <trkpt lat="59.111638069152832" lon="30.488326549530029">
        <time>2026-08-20T06:53:17Z</time>
      </trkpt>
      <trkpt lat="59.111616611480713" lon="30.488326549530029">
        <time>2026-08-20T06:53:19Z</time>
      </trkpt>
      <trkpt lat="59.111616611480713" lon="30.488283634185791">
        <time>2026-08-20T06:53:22Z</time>
      </trkpt>
      <trkpt lat="59.111595153808594" lon="30.488219261169434">
        <time>2026-08-20T06:53:24Z</time>
      </trkpt>
      <trkpt lat="59.111552238464355" lon="30.488176345825195">
        <time>2026-08-20T06:53:27Z</time>
      </trkpt>
      <trkpt lat="59.111530780792236" lon="30.488154888153076">
        <time>2026-08-20T06:53:29Z</time>
      </trkpt>
      <trkpt lat="59.111509323120117" lon="30.488133430480957">
        <time>2026-08-20T06:53:32Z</time>
      </trkpt>
      <trkpt lat="59.111530780792236" lon="30.488133430480957">
        <time>2026-08-20T06:53:34Z</time>
      </trkpt>
      <trkpt lat="59.111552238464355" lon="30.488154888153076">
        <time>2026-08-20T06:53:37Z</time>
      </trkpt>
      <trkpt lat="59.111552238464355" lon="30.488154888153076">
        <time>2026-08-20T06:53:39Z</time>
      </trkpt>
      <trkpt lat="59.111552238464355" lon="30.488154888153076">
        <time>2026-08-20T06:53:42Z</time>
      </trkpt>
      <trkpt lat="59.111573696136475" lon="30.488133430480957">
        <time>2026-08-20T06:53:44Z</time>
      </trkpt>
      <trkpt lat="59.111552238464355" lon="30.488133430480957">
        <time>2026-08-20T06:53:47Z</time>
      </trkpt>
      <trkpt lat="59.111552238464355" lon="30.488133430480957">
        <time>2026-08-20T06:53:49Z</time>
      </trkpt>
      <trkpt lat="59.111509323120117" lon="30.488176345825195">
        <time>2026-08-20T06:53:52Z</time>
      </trkpt>
      <trkpt lat="59.111487865447998" lon="30.488133430480957">
        <time>2026-08-20T06:53:54Z</time>
      </trkpt>
      <trkpt lat="59.111466407775879" lon="30.488090515136719">
        <time>2026-08-20T06:53:57Z</time>
      </trkpt>
      <trkpt lat="59.111466407775879" lon="30.48804759979248">
        <time>2026-08-20T06:53:59Z</time>
      </trkpt>
      <trkpt lat="59.111466407775879" lon="30.488004684448242">
        <time>2026-08-20T06:54:02Z</time>
      </trkpt>
      <trkpt lat="59.111466407775879" lon="30.487983226776123">
        <time>2026-08-20T06:54:04Z</time>
      </trkpt>
      <trkpt lat="59.111466407775879" lon="30.487983226776123">
        <time>2026-08-20T06:54:07Z</time>
      </trkpt>
      <trkpt lat="59.111487865447998" lon="30.487918853759766">
        <time>2026-08-20T06:54:09Z</time>
      </trkpt>
      <trkpt lat="59.111487865447998" lon="30.487875938415527">
        <time>2026-08-20T06:54:12Z</time>
      </trkpt>
      <trkpt lat="59.111509323120117" lon="30.487833023071289">
        <time>2026-08-20T06:54:14Z</time>
      </trkpt>
      <trkpt lat="59.111487865447998" lon="30.487768650054932">
        <time>2026-08-20T06:54:17Z</time>
      </trkpt>
      <trkpt lat="59.111487865447998" lon="30.487725734710693">
        <time>2026-08-20T06:54:19Z</time>
      </trkpt>
      <trkpt lat="59.111487865447998" lon="30.487725734710693">
        <time>2026-08-20T06:54:22Z</time>
      </trkpt>
      <trkpt lat="59.11144495010376" lon="30.487704277038574">
        <time>2026-08-20T06:54:24Z</time>
      </trkpt>
      <trkpt lat="59.111423492431641" lon="30.487661361694336">
        <time>2026-08-20T06:54:27Z</time>
      </trkpt>
      <trkpt lat="59.111423492431641" lon="30.487596988677979">
        <time>2026-08-20T06:54:29Z</time>
      </trkpt>
      <trkpt lat="59.111423492431641" lon="30.487575531005859">
        <time>2026-08-20T06:54:32Z</time>
      </trkpt>
      <trkpt lat="59.111423492431641" lon="30.487532615661621">
        <time>2026-08-20T06:54:34Z</time>
      </trkpt>
      <trkpt lat="59.111423492431641" lon="30.487532615661621">
        <time>2026-08-20T06:54:37Z</time>
      </trkpt>
      <trkpt lat="59.111423492431641" lon="30.487511157989502">
        <time>2026-08-20T06:54:39Z</time>
      </trkpt>
      <trkpt lat="59.111402034759521" lon="30.487468242645264">
        <time>2026-08-20T06:54:42Z</time>
      </trkpt>
      <trkpt lat="59.111380577087402" lon="30.487425327301025">
        <time>2026-08-20T06:54:44Z</time>
      </trkpt>
      <trkpt lat="59.111380577087402" lon="30.487403869628906">
        <time>2026-08-20T06:54:47Z</time>
      </trkpt>
      <trkpt lat="59.111402034759521" lon="30.487360954284668">
        <time>2026-08-20T06:54:49Z</time>
      </trkpt>
      <trkpt lat="59.111423492431641" lon="30.487339496612549">
        <time>2026-08-20T06:54:52Z</time>
      </trkpt>
      <trkpt lat="59.11144495010376" lon="30.48731803894043">
        <time>2026-08-20T06:54:54Z</time>
      </trkpt>
      <trkpt lat="59.11144495010376" lon="30.48731803894043">
        <time>2026-08-20T06:54:57Z</time>
      </trkpt>
      <trkpt lat="59.11144495010376" lon="30.487275123596191">
        <time>2026-08-20T06:54:59Z</time>
      </trkpt>
      <trkpt lat="59.111466407775879" lon="30.487296581268311">
        <time>2026-08-20T06:55:02Z</time>
      </trkpt>
      <trkpt lat="59.111466407775879" lon="30.487296581268311">
        <time>2026-08-20T06:55:04Z</time>
      </trkpt>
      <trkpt lat="59.111466407775879" lon="30.487296581268311">
        <time>2026-08-20T06:55:07Z</time>
      </trkpt>
      <trkpt lat="59.11144495010376" lon="30.487275123596191">
        <time>2026-08-20T06:55:09Z</time>
      </trkpt>
      <trkpt lat="59.11144495010376" lon="30.487275123596191">
        <time>2026-08-20T06:55:12Z</time>
      </trkpt>
      <trkpt lat="59.111466407775879" lon="30.487232208251953">
        <time>2026-08-20T06:55:14Z</time>
      </trkpt>
      <trkpt lat="59.111466407775879" lon="30.487189292907715">
        <time>2026-08-20T06:55:17Z</time>
      </trkpt>
      <trkpt lat="59.11144495010376" lon="30.487146377563477">
        <time>2026-08-20T06:55:19Z</time>
      </trkpt>
      <trkpt lat="59.111423492431641" lon="30.487124919891357">
        <time>2026-08-20T06:55:22Z</time>
      </trkpt>
      <trkpt lat="59.111423492431641" lon="30.487082004547119">
        <time>2026-08-20T06:55:24Z</time>
      </trkpt>
      <trkpt lat="59.111423492431641" lon="30.487103462219238">
        <time>2026-08-20T06:55:27Z</time>
      </trkpt>
      <trkpt lat="59.111402034759521" lon="30.487082004547119">
        <time>2026-08-20T06:55:29Z</time>
      </trkpt>
      <trkpt lat="59.111402034759521" lon="30.487039089202881">
        <time>2026-08-20T06:55:32Z</time>
      </trkpt>
      <trkpt lat="59.111380577087402" lon="30.486974716186523">
        <time>2026-08-20T06:55:34Z</time>
      </trkpt>
      <trkpt lat="59.111402034759521" lon="30.486953258514404">
        <time>2026-08-20T06:55:37Z</time>
      </trkpt>
      <trkpt lat="59.111402034759521" lon="30.486931800842285">
        <time>2026-08-20T06:55:39Z</time>
      </trkpt>
      <trkpt lat="59.111380577087402" lon="30.486931800842285">
        <time>2026-08-20T06:55:42Z</time>
      </trkpt>
      <trkpt lat="59.111359119415283" lon="30.486910343170166">
        <time>2026-08-20T06:55:44Z</time>
      </trkpt>
      <trkpt lat="59.111337661743164" lon="30.486867427825928">
        <time>2026-08-20T06:55:47Z</time>
      </trkpt>
      <trkpt lat="59.111337661743164" lon="30.48680305480957">
        <time>2026-08-20T06:55:49Z</time>
      </trkpt>
      <trkpt lat="59.111316204071045" lon="30.486781597137451">
        <time>2026-08-20T06:55:52Z</time>
      </trkpt>
      <trkpt lat="59.111337661743164" lon="30.486760139465332">
        <time>2026-08-20T06:55:54Z</time>
      </trkpt>
      <trkpt lat="59.111337661743164" lon="30.486717224121094">
        <time>2026-08-20T06:55:57Z</time>
      </trkpt>
      <trkpt lat="59.111359119415283" lon="30.486652851104736">
        <time>2026-08-20T06:55:59Z</time>
      </trkpt>
      <trkpt lat="59.111359119415283" lon="30.486631393432617">
        <time>2026-08-20T06:56:02Z</time>
      </trkpt>
      <trkpt lat="59.111359119415283" lon="30.486609935760498">
        <time>2026-08-20T06:56:04Z</time>
      </trkpt>
      <trkpt lat="59.111359119415283" lon="30.486588478088379">
        <time>2026-08-20T06:56:07Z</time>
      </trkpt>
      <trkpt lat="59.111359119415283" lon="30.486588478088379">
        <time>2026-08-20T06:56:09Z</time>
      </trkpt>
      <trkpt lat="59.111359119415283" lon="30.48656702041626">
        <time>2026-08-20T06:56:12Z</time>
      </trkpt>
      <trkpt lat="59.111359119415283" lon="30.48656702041626">
        <time>2026-08-20T06:56:14Z</time>
      </trkpt>
      <trkpt lat="59.111380577087402" lon="30.486545562744141">
        <time>2026-08-20T06:56:17Z</time>
      </trkpt>
      <trkpt lat="59.111380577087402" lon="30.486545562744141">
        <time>2026-08-20T06:56:19Z</time>
      </trkpt>
      <trkpt lat="59.111380577087402" lon="30.486545562744141">
        <time>2026-08-20T06:56:22Z</time>
      </trkpt>
      <trkpt lat="59.111380577087402" lon="30.486502647399902">
        <time>2026-08-20T06:56:24Z</time>
      </trkpt>
      <trkpt lat="59.111380577087402" lon="30.486481189727783">
        <time>2026-08-20T06:56:27Z</time>
      </trkpt>
      <trkpt lat="59.111402034759521" lon="30.486459732055664">
        <time>2026-08-20T06:56:29Z</time>
      </trkpt>
      <trkpt lat="59.111402034759521" lon="30.486459732055664">
        <time>2026-08-20T06:56:32Z</time>
      </trkpt>
      <trkpt lat="59.111380577087402" lon="30.486459732055664">
        <time>2026-08-20T06:56:34Z</time>
      </trkpt>
      <trkpt lat="59.111380577087402" lon="30.486459732055664">
        <time>2026-08-20T06:56:37Z</time>
      </trkpt>
      <trkpt lat="59.111380577087402" lon="30.486416816711426">
        <time>2026-08-20T06:56:39Z</time>
      </trkpt>
      <trkpt lat="59.111380577087402" lon="30.486395359039307">
        <time>2026-08-20T06:56:42Z</time>
      </trkpt>
      <trkpt lat="59.111402034759521" lon="30.486352443695068">
        <time>2026-08-20T06:56:44Z</time>
      </trkpt>
      <trkpt lat="59.111402034759521" lon="30.486330986022949">
        <time>2026-08-20T06:56:47Z</time>
      </trkpt>
      <trkpt lat="59.111423492431641" lon="30.486330986022949">
        <time>2026-08-20T06:56:49Z</time>
      </trkpt>
      <trkpt lat="59.111423492431641" lon="30.486330986022949">
        <time>2026-08-20T06:56:52Z</time>
      </trkpt>
      <trkpt lat="59.111402034759521" lon="30.486288070678711">
        <time>2026-08-20T06:56:54Z</time>
      </trkpt>
      <trkpt lat="59.111380577087402" lon="30.486245155334473">
        <time>2026-08-20T06:56:57Z</time>
      </trkpt>
      <trkpt lat="59.111402034759521" lon="30.486223697662354">
        <time>2026-08-20T06:56:59Z</time>
      </trkpt>
      <trkpt lat="59.111402034759521" lon="30.486202239990234">
        <time>2026-08-20T06:57:02Z</time>
      </trkpt>
      <trkpt lat="59.111423492431641" lon="30.486137866973877">
        <time>2026-08-20T06:57:04Z</time>
      </trkpt>
      <trkpt lat="59.111423492431641" lon="30.486094951629639">
        <time>2026-08-20T06:57:07Z</time>
      </trkpt>
      <trkpt lat="59.11144495010376" lon="30.486030578613281">
        <time>2026-08-20T06:57:09Z</time>
      </trkpt>
      <trkpt lat="59.11144495010376" lon="30.486009120941162">
        <time>2026-08-20T06:57:12Z</time>
      </trkpt>
      <trkpt lat="59.111466407775879" lon="30.485987663269043">
        <time>2026-08-20T06:57:14Z</time>
      </trkpt>
      <trkpt lat="59.111466407775879" lon="30.485966205596924">
        <time>2026-08-20T06:57:17Z</time>
      </trkpt>
      <trkpt lat="59.111487865447998" lon="30.485901832580566">
        <time>2026-08-20T06:57:19Z</time>
      </trkpt>
      <trkpt lat="59.111487865447998" lon="30.485858917236328">
        <time>2026-08-20T06:57:22Z</time>
      </trkpt>
      <trkpt lat="59.111487865447998" lon="30.485858917236328">
        <time>2026-08-20T06:57:24Z</time>
      </trkpt>
      <trkpt lat="59.111509323120117" lon="30.485944747924805">
        <time>2026-08-20T06:57:27Z</time>
      </trkpt>
      <trkpt lat="59.111509323120117" lon="30.485987663269043">
        <time>2026-08-20T06:57:29Z</time>
      </trkpt>
      <trkpt lat="59.111509323120117" lon="30.485987663269043">
        <time>2026-08-20T06:57:32Z</time>
      </trkpt>
      <trkpt lat="59.111509323120117" lon="30.485987663269043">
        <time>2026-08-20T06:57:34Z</time>
      </trkpt>
      <trkpt lat="59.111509323120117" lon="30.485987663269043">
        <time>2026-08-20T06:57:37Z</time>
      </trkpt>
      <trkpt lat="59.111509323120117" lon="30.485987663269043">
        <time>2026-08-20T06:57:39Z</time>
      </trkpt>
      <trkpt lat="59.111509323120117" lon="30.485987663269043">
        <time>2026-08-20T06:57:42Z</time>
      </trkpt>
      <trkpt lat="59.111509323120117" lon="30.485987663269043">
        <time>2026-08-20T06:57:44Z</time>
      </trkpt>
      <trkpt lat="59.111509323120117" lon="30.485987663269043">
        <time>2026-08-20T06:57:47Z</time>
      </trkpt>
      <trkpt lat="59.111509323120117" lon="30.485966205596924">
        <time>2026-08-20T06:57:49Z</time>
      </trkpt>
      <trkpt lat="59.111509323120117" lon="30.485966205596924">
        <time>2026-08-20T06:57:52Z</time>
      </trkpt>
      <trkpt lat="59.111509323120117" lon="30.485966205596924">
        <time>2026-08-20T06:57:54Z</time>
      </trkpt>
      <trkpt lat="59.111509323120117" lon="30.485966205596924">
        <time>2026-08-20T06:57:57Z</time>
      </trkpt>
      <trkpt lat="59.111509323120117" lon="30.485966205596924">
        <time>2026-08-20T06:57:59Z</time>
      </trkpt>
      <trkpt lat="59.111509323120117" lon="30.485966205596924">
        <time>2026-08-20T06:58:02Z</time>
      </trkpt>
      <trkpt lat="59.111509323120117" lon="30.485966205596924">
        <time>2026-08-20T06:58:04Z</time>
      </trkpt>
      <trkpt lat="59.111509323120117" lon="30.485966205596924">
        <time>2026-08-20T06:58:07Z</time>
      </trkpt>
      <trkpt lat="59.111509323120117" lon="30.485966205596924">
        <time>2026-08-20T06:58:09Z</time>
      </trkpt>
      <trkpt lat="59.111509323120117" lon="30.485966205596924">
        <time>2026-08-20T06:58:12Z</time>
      </trkpt>
      <trkpt lat="59.111509323120117" lon="30.485966205596924">
        <time>2026-08-20T06:58:14Z</time>
      </trkpt>
      <trkpt lat="59.111509323120117" lon="30.485966205596924">
        <time>2026-08-20T06:58:17Z</time>
      </trkpt>
      <trkpt lat="59.111509323120117" lon="30.485966205596924">
        <time>2026-08-20T06:58:19Z</time>
      </trkpt>
      <trkpt lat="59.111509323120117" lon="30.485966205596924">
        <time>2026-08-20T06:58:22Z</time>
      </trkpt>
      <trkpt lat="59.111509323120117" lon="30.485966205596924">
        <time>2026-08-20T06:58:24Z</time>
      </trkpt>
      <trkpt lat="59.111509323120117" lon="30.485944747924805">
        <time>2026-08-20T06:58:27Z</time>
      </trkpt>
      <trkpt lat="59.111552238464355" lon="30.485923290252686">
        <time>2026-08-20T06:58:29Z</time>
      </trkpt>
      <trkpt lat="59.111552238464355" lon="30.485858917236328">
        <time>2026-08-20T06:58:32Z</time>
      </trkpt>
      <trkpt lat="59.111552238464355" lon="30.485858917236328">
        <time>2026-08-20T06:58:34Z</time>
      </trkpt>
      <trkpt lat="59.111552238464355" lon="30.485858917236328">
        <time>2026-08-20T06:58:37Z</time>
      </trkpt>
      <trkpt lat="59.111552238464355" lon="30.485837459564209">
        <time>2026-08-20T06:58:39Z</time>
      </trkpt>
      <trkpt lat="59.111573696136475" lon="30.48581600189209">
        <time>2026-08-20T06:58:42Z</time>
      </trkpt>
      <trkpt lat="59.111573696136475" lon="30.485751628875732">
        <time>2026-08-20T06:58:44Z</time>
      </trkpt>
      <trkpt lat="59.111552238464355" lon="30.485687255859375">
        <time>2026-08-20T06:58:47Z</time>
      </trkpt>
      <trkpt lat="59.111616611480713" lon="30.485665798187256">
        <time>2026-08-20T06:58:52Z</time>
      </trkpt>
      <trkpt lat="59.111616611480713" lon="30.485665798187256">
        <time>2026-08-20T06:58:54Z</time>
      </trkpt>
      <trkpt lat="59.111616611480713" lon="30.485622882843018">
        <time>2026-08-20T06:58:57Z</time>
      </trkpt>
      <trkpt lat="59.111616611480713" lon="30.48555850982666">
        <time>2026-08-20T06:58:59Z</time>
      </trkpt>
      <trkpt lat="59.111595153808594" lon="30.485494136810303">
        <time>2026-08-20T06:59:02Z</time>
      </trkpt>
      <trkpt lat="59.111595153808594" lon="30.485494136810303">
        <time>2026-08-20T06:59:04Z</time>
      </trkpt>
      <trkpt lat="59.111595153808594" lon="30.485451221466064">
        <time>2026-08-20T06:59:07Z</time>
      </trkpt>
      <trkpt lat="59.111595153808594" lon="30.485386848449707">
        <time>2026-08-20T06:59:09Z</time>
      </trkpt>
      <trkpt lat="59.111616611480713" lon="30.485279560089111">
        <time>2026-08-20T06:59:12Z</time>
      </trkpt>
      <trkpt lat="59.111638069152832" lon="30.485258102416992">
        <time>2026-08-20T06:59:14Z</time>
      </trkpt>
      <trkpt lat="59.111638069152832" lon="30.485193729400635">
        <time>2026-08-20T06:59:17Z</time>
      </trkpt>
      <trkpt lat="59.111638069152832" lon="30.485193729400635">
        <time>2026-08-20T06:59:19Z</time>
      </trkpt>
      <trkpt lat="59.111638069152832" lon="30.485193729400635">
        <time>2026-08-20T06:59:22Z</time>
      </trkpt>
      <trkpt lat="59.111638069152832" lon="30.485193729400635">
        <time>2026-08-20T06:59:24Z</time>
      </trkpt>
      <trkpt lat="59.111638069152832" lon="30.485107898712158">
        <time>2026-08-20T06:59:27Z</time>
      </trkpt>
      <trkpt lat="59.111638069152832" lon="30.485107898712158">
        <time>2026-08-20T06:59:29Z</time>
      </trkpt>
      <trkpt lat="59.111659526824951" lon="30.485107898712158">
        <time>2026-08-20T06:59:32Z</time>
      </trkpt>
      <trkpt lat="59.111659526824951" lon="30.485086441040039">
        <time>2026-08-20T06:59:34Z</time>
      </trkpt>
      <trkpt lat="59.111616611480713" lon="30.485000610351563">
        <time>2026-08-20T06:59:37Z</time>
      </trkpt>
      <trkpt lat="59.111573696136475" lon="30.485043525695801">
        <time>2026-08-20T06:59:39Z</time>
      </trkpt>
      <trkpt lat="59.111530780792236" lon="30.485107898712158">
        <time>2026-08-20T06:59:42Z</time>
      </trkpt>
      <trkpt lat="59.111509323120117" lon="30.485086441040039">
        <time>2026-08-20T06:59:44Z</time>
      </trkpt>
      <trkpt lat="59.111530780792236" lon="30.485086441040039">
        <time>2026-08-20T06:59:47Z</time>
      </trkpt>
      <trkpt lat="59.111530780792236" lon="30.485086441040039">
        <time>2026-08-20T06:59:49Z</time>
      </trkpt>
      <trkpt lat="59.111530780792236" lon="30.485086441040039">
        <time>2026-08-20T06:59:52Z</time>
      </trkpt>
      <trkpt lat="59.111530780792236" lon="30.485086441040039">
        <time>2026-08-20T06:59:54Z</time>
      </trkpt>
      <trkpt lat="59.111530780792236" lon="30.48506498336792">
        <time>2026-08-20T06:59:57Z</time>
      </trkpt>
      <trkpt lat="59.111530780792236" lon="30.48506498336792">
        <time>2026-08-20T06:59:59Z</time>
      </trkpt>
      <trkpt lat="59.111487865447998" lon="30.485022068023682">
        <time>2026-08-20T07:00:02Z</time>
      </trkpt>
      <trkpt lat="59.111487865447998" lon="30.484979152679443">
        <time>2026-08-20T07:00:04Z</time>
      </trkpt>
      <trkpt lat="59.111509323120117" lon="30.484914779663086">
        <time>2026-08-20T07:00:07Z</time>
      </trkpt>
      <trkpt lat="59.111509323120117" lon="30.484893321990967">
        <time>2026-08-20T07:00:09Z</time>
      </trkpt>
      <trkpt lat="59.111530780792236" lon="30.484850406646729">
        <time>2026-08-20T07:00:12Z</time>
      </trkpt>
      <trkpt lat="59.111530780792236" lon="30.484786033630371">
        <time>2026-08-20T07:00:14Z</time>
      </trkpt>
      <trkpt lat="59.111552238464355" lon="30.484743118286133">
        <time>2026-08-20T07:00:17Z</time>
      </trkpt>
      <trkpt lat="59.111573696136475" lon="30.484721660614014">
        <time>2026-08-20T07:00:19Z</time>
      </trkpt>
      <trkpt lat="59.111573696136475" lon="30.484678745269775">
        <time>2026-08-20T07:00:22Z</time>
      </trkpt>
      <trkpt lat="59.111573696136475" lon="30.484678745269775">
        <time>2026-08-20T07:00:24Z</time>
      </trkpt>
      <trkpt lat="59.111552238464355" lon="30.484657287597656">
        <time>2026-08-20T07:00:27Z</time>
      </trkpt>
      <trkpt lat="59.111552238464355" lon="30.484635829925537">
        <time>2026-08-20T07:00:29Z</time>
      </trkpt>
      <trkpt lat="59.111552238464355" lon="30.48457145690918">
        <time>2026-08-20T07:00:32Z</time>
      </trkpt>
      <trkpt lat="59.111530780792236" lon="30.484528541564941">
        <time>2026-08-20T07:00:34Z</time>
      </trkpt>
      <trkpt lat="59.111530780792236" lon="30.484507083892822">
        <time>2026-08-20T07:00:37Z</time>
      </trkpt>
      <trkpt lat="59.111530780792236" lon="30.484507083892822">
        <time>2026-08-20T07:00:39Z</time>
      </trkpt>
      <trkpt lat="59.111530780792236" lon="30.484485626220703">
        <time>2026-08-20T07:00:42Z</time>
      </trkpt>
      <trkpt lat="59.111530780792236" lon="30.484421253204346">
        <time>2026-08-20T07:00:44Z</time>
      </trkpt>
      <trkpt lat="59.111530780792236" lon="30.484399795532227">
        <time>2026-08-20T07:00:47Z</time>
      </trkpt>
      <trkpt lat="59.111530780792236" lon="30.484399795532227">
        <time>2026-08-20T07:00:49Z</time>
      </trkpt>
      <trkpt lat="59.111530780792236" lon="30.484399795532227">
        <time>2026-08-20T07:00:52Z</time>
      </trkpt>
      <trkpt lat="59.111530780792236" lon="30.484399795532227">
        <time>2026-08-20T07:00:54Z</time>
      </trkpt>
      <trkpt lat="59.111530780792236" lon="30.484399795532227">
        <time>2026-08-20T07:00:57Z</time>
      </trkpt>
      <trkpt lat="59.111530780792236" lon="30.484399795532227">
        <time>2026-08-20T07:00:59Z</time>
      </trkpt>
      <trkpt lat="59.111487865447998" lon="30.484399795532227">
        <time>2026-08-20T07:01:02Z</time>
      </trkpt>
      <trkpt lat="59.111487865447998" lon="30.484399795532227">
        <time>2026-08-20T07:01:04Z</time>
      </trkpt>
      <trkpt lat="59.111466407775879" lon="30.484378337860107">
        <time>2026-08-20T07:01:07Z</time>
      </trkpt>
      <trkpt lat="59.111423492431641" lon="30.484378337860107">
        <time>2026-08-20T07:01:09Z</time>
      </trkpt>
      <trkpt lat="59.111423492431641" lon="30.484356880187988">
        <time>2026-08-20T07:01:12Z</time>
      </trkpt>
      <trkpt lat="59.111402034759521" lon="30.484356880187988">
        <time>2026-08-20T07:01:14Z</time>
      </trkpt>
      <trkpt lat="59.111402034759521" lon="30.484335422515869">
        <time>2026-08-20T07:01:17Z</time>
      </trkpt>
      <trkpt lat="59.111402034759521" lon="30.48431396484375">
        <time>2026-08-20T07:01:19Z</time>
      </trkpt>
      <trkpt lat="59.111380577087402" lon="30.484292507171631">
        <time>2026-08-20T07:01:22Z</time>
      </trkpt>
      <trkpt lat="59.111359119415283" lon="30.484292507171631">
        <time>2026-08-20T07:01:24Z</time>
      </trkpt>
      <trkpt lat="59.111337661743164" lon="30.484249591827393">
        <time>2026-08-20T07:01:27Z</time>
      </trkpt>
      <trkpt lat="59.111337661743164" lon="30.484228134155273">
        <time>2026-08-20T07:01:29Z</time>
      </trkpt>
      <trkpt lat="59.111337661743164" lon="30.484185218811035">
        <time>2026-08-20T07:01:32Z</time>
      </trkpt>
      <trkpt lat="59.111316204071045" lon="30.484142303466797">
        <time>2026-08-20T07:01:34Z</time>
      </trkpt>
      <trkpt lat="59.111316204071045" lon="30.484120845794678">
        <time>2026-08-20T07:01:37Z</time>
      </trkpt>
      <trkpt lat="59.111316204071045" lon="30.484099388122559">
        <time>2026-08-20T07:01:39Z</time>
      </trkpt>
      <trkpt lat="59.111316204071045" lon="30.48405647277832">
        <time>2026-08-20T07:01:42Z</time>
      </trkpt>
      <trkpt lat="59.111294746398926" lon="30.484035015106201">
        <time>2026-08-20T07:01:44Z</time>
      </trkpt>
      <trkpt lat="59.111294746398926" lon="30.483992099761963">
        <time>2026-08-20T07:01:47Z</time>
      </trkpt>
      <trkpt lat="59.111294746398926" lon="30.483970642089844">
        <time>2026-08-20T07:01:49Z</time>
      </trkpt>
      <trkpt lat="59.111294746398926" lon="30.483949184417725">
        <time>2026-08-20T07:01:52Z</time>
      </trkpt>
      <trkpt lat="59.111273288726807" lon="30.483927726745605">
        <time>2026-08-20T07:01:54Z</time>
      </trkpt>
      <trkpt lat="59.111251831054688" lon="30.483884811401367">
        <time>2026-08-20T07:01:57Z</time>
      </trkpt>
      <trkpt lat="59.111251831054688" lon="30.483884811401367">
        <time>2026-08-20T07:01:59Z</time>
      </trkpt>
      <trkpt lat="59.111251831054688" lon="30.483841896057129">
        <time>2026-08-20T07:02:02Z</time>
      </trkpt>
      <trkpt lat="59.111230373382568" lon="30.483841896057129">
        <time>2026-08-20T07:02:04Z</time>
      </trkpt>
      <trkpt lat="59.111230373382568" lon="30.483841896057129">
        <time>2026-08-20T07:02:07Z</time>
      </trkpt>
      <trkpt lat="59.111230373382568" lon="30.483841896057129">
        <time>2026-08-20T07:02:09Z</time>
      </trkpt>
      <trkpt lat="59.111166000366211" lon="30.483841896057129">
        <time>2026-08-20T07:02:12Z</time>
      </trkpt>
      <trkpt lat="59.111144542694092" lon="30.483841896057129">
        <time>2026-08-20T07:02:14Z</time>
      </trkpt>
      <trkpt lat="59.111144542694092" lon="30.48382043838501">
        <time>2026-08-20T07:02:17Z</time>
      </trkpt>
      <trkpt lat="59.111144542694092" lon="30.483756065368652">
        <time>2026-08-20T07:02:19Z</time>
      </trkpt>
      <trkpt lat="59.111166000366211" lon="30.483734607696533">
        <time>2026-08-20T07:02:22Z</time>
      </trkpt>
      <trkpt lat="59.111166000366211" lon="30.483713150024414">
        <time>2026-08-20T07:02:24Z</time>
      </trkpt>
      <trkpt lat="59.111208915710449" lon="30.483670234680176">
        <time>2026-08-20T07:02:27Z</time>
      </trkpt>
      <trkpt lat="59.111208915710449" lon="30.483627319335938">
        <time>2026-08-20T07:02:29Z</time>
      </trkpt>
      <trkpt lat="59.111208915710449" lon="30.483584403991699">
        <time>2026-08-20T07:02:32Z</time>
      </trkpt>
      <trkpt lat="59.11118745803833" lon="30.48356294631958">
        <time>2026-08-20T07:02:34Z</time>
      </trkpt>
      <trkpt lat="59.11118745803833" lon="30.483520030975342">
        <time>2026-08-20T07:02:37Z</time>
      </trkpt>
      <trkpt lat="59.11118745803833" lon="30.483520030975342">
        <time>2026-08-20T07:02:39Z</time>
      </trkpt>
      <trkpt lat="59.111166000366211" lon="30.483477115631104">
        <time>2026-08-20T07:02:42Z</time>
      </trkpt>
      <trkpt lat="59.111166000366211" lon="30.483434200286865">
        <time>2026-08-20T07:02:44Z</time>
      </trkpt>
      <trkpt lat="59.111166000366211" lon="30.483391284942627">
        <time>2026-08-20T07:02:47Z</time>
      </trkpt>
      <trkpt lat="59.111144542694092" lon="30.483391284942627">
        <time>2026-08-20T07:02:49Z</time>
      </trkpt>
      <trkpt lat="59.111144542694092" lon="30.48330545425415">
        <time>2026-08-20T07:02:52Z</time>
      </trkpt>
      <trkpt lat="59.111123085021973" lon="30.483241081237793">
        <time>2026-08-20T07:02:54Z</time>
      </trkpt>
      <trkpt lat="59.111101627349854" lon="30.483198165893555">
        <time>2026-08-20T07:02:57Z</time>
      </trkpt>
      <trkpt lat="59.111080169677734" lon="30.483176708221436">
        <time>2026-08-20T07:02:59Z</time>
      </trkpt>
      <trkpt lat="59.111058712005615" lon="30.483155250549316">
        <time>2026-08-20T07:03:02Z</time>
      </trkpt>
      <trkpt lat="59.111058712005615" lon="30.483155250549316">
        <time>2026-08-20T07:03:04Z</time>
      </trkpt>
      <trkpt lat="59.111058712005615" lon="30.483155250549316">
        <time>2026-08-20T07:03:07Z</time>
      </trkpt>
      <trkpt lat="59.111058712005615" lon="30.483155250549316">
        <time>2026-08-20T07:03:09Z</time>
      </trkpt>
      <trkpt lat="59.111058712005615" lon="30.483155250549316">
        <time>2026-08-20T07:03:12Z</time>
      </trkpt>
      <trkpt lat="59.111058712005615" lon="30.483155250549316">
        <time>2026-08-20T07:03:14Z</time>
      </trkpt>
      <trkpt lat="59.111058712005615" lon="30.483155250549316">
        <time>2026-08-20T07:03:17Z</time>
      </trkpt>
      <trkpt lat="59.111058712005615" lon="30.483155250549316">
        <time>2026-08-20T07:03:19Z</time>
      </trkpt>
      <trkpt lat="59.111058712005615" lon="30.483155250549316">
        <time>2026-08-20T07:03:22Z</time>
      </trkpt>
      <trkpt lat="59.111058712005615" lon="30.483176708221436">
        <time>2026-08-20T07:03:24Z</time>
      </trkpt>
      <trkpt lat="59.111101627349854" lon="30.483198165893555">
        <time>2026-08-20T07:03:27Z</time>
      </trkpt>
      <trkpt lat="59.111101627349854" lon="30.48330545425415">
        <time>2026-08-20T07:03:29Z</time>
      </trkpt>
      <trkpt lat="59.111123085021973" lon="30.483369827270508">
        <time>2026-08-20T07:03:32Z</time>
      </trkpt>
      <trkpt lat="59.111123085021973" lon="30.483369827270508">
        <time>2026-08-20T07:03:34Z</time>
      </trkpt>
      <trkpt lat="59.111144542694092" lon="30.483369827270508">
        <time>2026-08-20T07:03:37Z</time>
      </trkpt>
      <trkpt lat="59.11118745803833" lon="30.483391284942627">
        <time>2026-08-20T07:03:39Z</time>
      </trkpt>
      <trkpt lat="59.111230373382568" lon="30.483412742614746">
        <time>2026-08-20T07:03:42Z</time>
      </trkpt>
      <trkpt lat="59.111230373382568" lon="30.483412742614746">
        <time>2026-08-20T07:03:47Z</time>
      </trkpt>
      <trkpt lat="59.111251831054688" lon="30.483434200286865">
        <time>2026-08-20T07:03:49Z</time>
      </trkpt>
      <trkpt lat="59.111251831054688" lon="30.483434200286865">
        <time>2026-08-20T07:03:52Z</time>
      </trkpt>
      <trkpt lat="59.111251831054688" lon="30.483434200286865">
        <time>2026-08-20T07:03:54Z</time>
      </trkpt>
      <trkpt lat="59.111251831054688" lon="30.483434200286865">
        <time>2026-08-20T07:03:57Z</time>
      </trkpt>
      <trkpt lat="59.111251831054688" lon="30.483434200286865">
        <time>2026-08-20T07:03:59Z</time>
      </trkpt>
      <trkpt lat="59.111251831054688" lon="30.483434200286865">
        <time>2026-08-20T07:04:02Z</time>
      </trkpt>
      <trkpt lat="59.111251831054688" lon="30.483434200286865">
        <time>2026-08-20T07:04:04Z</time>
      </trkpt>
      <trkpt lat="59.111251831054688" lon="30.483434200286865">
        <time>2026-08-20T07:04:07Z</time>
      </trkpt>
      <trkpt lat="59.111251831054688" lon="30.483434200286865">
        <time>2026-08-20T07:04:09Z</time>
      </trkpt>
      <trkpt lat="59.111251831054688" lon="30.483434200286865">
        <time>2026-08-20T07:04:12Z</time>
      </trkpt>
      <trkpt lat="59.111251831054688" lon="30.483434200286865">
        <time>2026-08-20T07:04:14Z</time>
      </trkpt>
      <trkpt lat="59.111251831054688" lon="30.483434200286865">
        <time>2026-08-20T07:04:17Z</time>
      </trkpt>
      <trkpt lat="59.111251831054688" lon="30.483434200286865">
        <time>2026-08-20T07:04:19Z</time>
      </trkpt>
      <trkpt lat="59.111230373382568" lon="30.483434200286865">
        <time>2026-08-20T07:04:22Z</time>
      </trkpt>
      <trkpt lat="59.111230373382568" lon="30.483434200286865">
        <time>2026-08-20T07:04:24Z</time>
      </trkpt>
      <trkpt lat="59.111230373382568" lon="30.483434200286865">
        <time>2026-08-20T07:04:27Z</time>
      </trkpt>
      <trkpt lat="59.111251831054688" lon="30.483412742614746">
        <time>2026-08-20T07:04:29Z</time>
      </trkpt>
      <trkpt lat="59.111251831054688" lon="30.483412742614746">
        <time>2026-08-20T07:04:32Z</time>
      </trkpt>
      <trkpt lat="59.111273288726807" lon="30.483455657958984">
        <time>2026-08-20T07:04:37Z</time>
      </trkpt>
      <trkpt lat="59.111273288726807" lon="30.483455657958984">
        <time>2026-08-20T07:04:39Z</time>
      </trkpt>
      <trkpt lat="59.111273288726807" lon="30.483477115631104">
        <time>2026-08-20T07:04:42Z</time>
      </trkpt>
      <trkpt lat="59.111273288726807" lon="30.483477115631104">
        <time>2026-08-20T07:04:44Z</time>
      </trkpt>
      <trkpt lat="59.111273288726807" lon="30.483477115631104">
        <time>2026-08-20T07:04:47Z</time>
      </trkpt>
      <trkpt lat="59.111294746398926" lon="30.483498573303223">
        <time>2026-08-20T07:04:49Z</time>
      </trkpt>
      <trkpt lat="59.111273288726807" lon="30.483477115631104">
        <time>2026-08-20T07:04:52Z</time>
      </trkpt>
      <trkpt lat="59.111273288726807" lon="30.483477115631104">
        <time>2026-08-20T07:04:54Z</time>
      </trkpt>
      <trkpt lat="59.111273288726807" lon="30.483455657958984">
        <time>2026-08-20T07:04:57Z</time>
      </trkpt>
      <trkpt lat="59.111273288726807" lon="30.483455657958984">
        <time>2026-08-20T07:04:59Z</time>
      </trkpt>
      <trkpt lat="59.111273288726807" lon="30.483434200286865">
        <time>2026-08-20T07:05:02Z</time>
      </trkpt>
      <trkpt lat="59.111273288726807" lon="30.483412742614746">
        <time>2026-08-20T07:05:04Z</time>
      </trkpt>
      <trkpt lat="59.111251831054688" lon="30.483412742614746">
        <time>2026-08-20T07:05:07Z</time>
      </trkpt>
      <trkpt lat="59.111251831054688" lon="30.483391284942627">
        <time>2026-08-20T07:05:09Z</time>
      </trkpt>
      <trkpt lat="59.111230373382568" lon="30.483391284942627">
        <time>2026-08-20T07:05:12Z</time>
      </trkpt>
      <trkpt lat="59.111208915710449" lon="30.483391284942627">
        <time>2026-08-20T07:05:14Z</time>
      </trkpt>
      <trkpt lat="59.111166000366211" lon="30.483391284942627">
        <time>2026-08-20T07:05:17Z</time>
      </trkpt>
      <trkpt lat="59.111166000366211" lon="30.483391284942627">
        <time>2026-08-20T07:05:19Z</time>
      </trkpt>
      <trkpt lat="59.111166000366211" lon="30.483412742614746">
        <time>2026-08-20T07:05:22Z</time>
      </trkpt>
      <trkpt lat="59.111166000366211" lon="30.483412742614746">
        <time>2026-08-20T07:05:24Z</time>
      </trkpt>
      <trkpt lat="59.111166000366211" lon="30.483412742614746">
        <time>2026-08-20T07:05:27Z</time>
      </trkpt>
      <trkpt lat="59.111166000366211" lon="30.483412742614746">
        <time>2026-08-20T07:05:29Z</time>
      </trkpt>
      <trkpt lat="59.111166000366211" lon="30.483412742614746">
        <time>2026-08-20T07:05:32Z</time>
      </trkpt>
      <trkpt lat="59.111144542694092" lon="30.483412742614746">
        <time>2026-08-20T07:05:34Z</time>
      </trkpt>
      <trkpt lat="59.111080169677734" lon="30.483434200286865">
        <time>2026-08-20T07:05:37Z</time>
      </trkpt>
      <trkpt lat="59.111058712005615" lon="30.483455657958984">
        <time>2026-08-20T07:05:39Z</time>
      </trkpt>
      <trkpt lat="59.111037254333496" lon="30.483455657958984">
        <time>2026-08-20T07:05:42Z</time>
      </trkpt>
      <trkpt lat="59.110994338989258" lon="30.483455657958984">
        <time>2026-08-20T07:05:44Z</time>
      </trkpt>
      <trkpt lat="59.1109299659729" lon="30.483455657958984">
        <time>2026-08-20T07:05:47Z</time>
      </trkpt>
      <trkpt lat="59.1109299659729" lon="30.483434200286865">
        <time>2026-08-20T07:05:49Z</time>
      </trkpt>
      <trkpt lat="59.1109299659729" lon="30.483369827270508">
        <time>2026-08-20T07:05:52Z</time>
      </trkpt>
      <trkpt lat="59.110908508300781" lon="30.483348369598389">
        <time>2026-08-20T07:05:54Z</time>
      </trkpt>
      <trkpt lat="59.110908508300781" lon="30.483369827270508">
        <time>2026-08-20T07:05:57Z</time>
      </trkpt>
      <trkpt lat="59.110908508300781" lon="30.483369827270508">
        <time>2026-08-20T07:05:59Z</time>
      </trkpt>
      <trkpt lat="59.110908508300781" lon="30.483369827270508">
        <time>2026-08-20T07:06:02Z</time>
      </trkpt>
      <trkpt lat="59.110887050628662" lon="30.483369827270508">
        <time>2026-08-20T07:06:04Z</time>
      </trkpt>
      <trkpt lat="59.110865592956543" lon="30.483369827270508">
        <time>2026-08-20T07:06:07Z</time>
      </trkpt>
      <trkpt lat="59.110865592956543" lon="30.483369827270508">
        <time>2026-08-20T07:06:09Z</time>
      </trkpt>
      <trkpt lat="59.110844135284424" lon="30.483369827270508">
        <time>2026-08-20T07:06:12Z</time>
      </trkpt>
      <trkpt lat="59.110844135284424" lon="30.48332691192627">
        <time>2026-08-20T07:06:14Z</time>
      </trkpt>
      <trkpt lat="59.110822677612305" lon="30.483283996582031">
        <time>2026-08-20T07:06:17Z</time>
      </trkpt>
      <trkpt lat="59.110822677612305" lon="30.483283996582031">
        <time>2026-08-20T07:06:19Z</time>
      </trkpt>
      <trkpt lat="59.110822677612305" lon="30.483412742614746">
        <time>2026-08-20T07:06:22Z</time>
      </trkpt>
      <trkpt lat="59.110822677612305" lon="30.483477115631104">
        <time>2026-08-20T07:06:24Z</time>
      </trkpt>
      <trkpt lat="59.110822677612305" lon="30.483498573303223">
        <time>2026-08-20T07:06:27Z</time>
      </trkpt>
      <trkpt lat="59.110801219940186" lon="30.483477115631104">
        <time>2026-08-20T07:06:29Z</time>
      </trkpt>
      <trkpt lat="59.110779762268066" lon="30.483477115631104">
        <time>2026-08-20T07:06:32Z</time>
      </trkpt>
      <trkpt lat="59.110758304595947" lon="30.483434200286865">
        <time>2026-08-20T07:06:34Z</time>
      </trkpt>
      <trkpt lat="59.110736846923828" lon="30.483434200286865">
        <time>2026-08-20T07:06:37Z</time>
      </trkpt>
      <trkpt lat="59.110715389251709" lon="30.483412742614746">
        <time>2026-08-20T07:06:39Z</time>
      </trkpt>
      <trkpt lat="59.11069393157959" lon="30.483369827270508">
        <time>2026-08-20T07:06:42Z</time>
      </trkpt>
      <trkpt lat="59.110672473907471" lon="30.483348369598389">
        <time>2026-08-20T07:06:44Z</time>
      </trkpt>
      <trkpt lat="59.110651016235352" lon="30.48332691192627">
        <time>2026-08-20T07:06:47Z</time>
      </trkpt>
      <trkpt lat="59.110651016235352" lon="30.48332691192627">
        <time>2026-08-20T07:06:49Z</time>
      </trkpt>
      <trkpt lat="59.110651016235352" lon="30.48332691192627">
        <time>2026-08-20T07:06:52Z</time>
      </trkpt>
      <trkpt lat="59.110651016235352" lon="30.48332691192627">
        <time>2026-08-20T07:06:54Z</time>
      </trkpt>
      <trkpt lat="59.110651016235352" lon="30.48332691192627">
        <time>2026-08-20T07:06:57Z</time>
      </trkpt>
      <trkpt lat="59.110651016235352" lon="30.48332691192627">
        <time>2026-08-20T07:06:59Z</time>
      </trkpt>
      <trkpt lat="59.110651016235352" lon="30.48332691192627">
        <time>2026-08-20T07:07:02Z</time>
      </trkpt>
      <trkpt lat="59.110651016235352" lon="30.48332691192627">
        <time>2026-08-20T07:07:04Z</time>
      </trkpt>
      <trkpt lat="59.110651016235352" lon="30.48332691192627">
        <time>2026-08-20T07:07:07Z</time>
      </trkpt>
      <trkpt lat="59.110651016235352" lon="30.48332691192627">
        <time>2026-08-20T07:07:09Z</time>
      </trkpt>
      <trkpt lat="59.110651016235352" lon="30.48332691192627">
        <time>2026-08-20T07:07:12Z</time>
      </trkpt>
      <trkpt lat="59.110651016235352" lon="30.48332691192627">
        <time>2026-08-20T07:07:14Z</time>
      </trkpt>
      <trkpt lat="59.110629558563232" lon="30.483348369598389">
        <time>2026-08-20T07:07:17Z</time>
      </trkpt>
      <trkpt lat="59.110629558563232" lon="30.483348369598389">
        <time>2026-08-20T07:07:19Z</time>
      </trkpt>
      <trkpt lat="59.110629558563232" lon="30.483348369598389">
        <time>2026-08-20T07:07:22Z</time>
      </trkpt>
      <trkpt lat="59.110608100891113" lon="30.483369827270508">
        <time>2026-08-20T07:07:24Z</time>
      </trkpt>
      <trkpt lat="59.110586643218994" lon="30.483391284942627">
        <time>2026-08-20T07:07:27Z</time>
      </trkpt>
      <trkpt lat="59.110586643218994" lon="30.483391284942627">
        <time>2026-08-20T07:07:29Z</time>
      </trkpt>
      <trkpt lat="59.110543727874756" lon="30.483369827270508">
        <time>2026-08-20T07:07:32Z</time>
      </trkpt>
      <trkpt lat="59.110543727874756" lon="30.483348369598389">
        <time>2026-08-20T07:07:34Z</time>
      </trkpt>
      <trkpt lat="59.110543727874756" lon="30.48332691192627">
        <time>2026-08-20T07:07:37Z</time>
      </trkpt>
      <trkpt lat="59.110543727874756" lon="30.483348369598389">
        <time>2026-08-20T07:07:39Z</time>
      </trkpt>
      <trkpt lat="59.110543727874756" lon="30.483348369598389">
        <time>2026-08-20T07:07:42Z</time>
      </trkpt>
      <trkpt lat="59.110543727874756" lon="30.483369827270508">
        <time>2026-08-20T07:07:44Z</time>
      </trkpt>
      <trkpt lat="59.110522270202637" lon="30.483391284942627">
        <time>2026-08-20T07:07:47Z</time>
      </trkpt>
      <trkpt lat="59.110522270202637" lon="30.483391284942627">
        <time>2026-08-20T07:07:49Z</time>
      </trkpt>
      <trkpt lat="59.110522270202637" lon="30.483369827270508">
        <time>2026-08-20T07:07:52Z</time>
      </trkpt>
      <trkpt lat="59.110522270202637" lon="30.483348369598389">
        <time>2026-08-20T07:07:54Z</time>
      </trkpt>
      <trkpt lat="59.110522270202637" lon="30.483348369598389">
        <time>2026-08-20T07:07:57Z</time>
      </trkpt>
      <trkpt lat="59.110522270202637" lon="30.483348369598389">
        <time>2026-08-20T07:07:59Z</time>
      </trkpt>
      <trkpt lat="59.110543727874756" lon="30.483369827270508">
        <time>2026-08-20T07:08:02Z</time>
      </trkpt>
      <trkpt lat="59.110543727874756" lon="30.483369827270508">
        <time>2026-08-20T07:08:04Z</time>
      </trkpt>
      <trkpt lat="59.110543727874756" lon="30.483391284942627">
        <time>2026-08-20T07:08:07Z</time>
      </trkpt>
      <trkpt lat="59.110543727874756" lon="30.483391284942627">
        <time>2026-08-20T07:08:09Z</time>
      </trkpt>
      <trkpt lat="59.110543727874756" lon="30.483391284942627">
        <time>2026-08-20T07:08:12Z</time>
      </trkpt>
      <trkpt lat="59.110543727874756" lon="30.483391284942627">
        <time>2026-08-20T07:08:14Z</time>
      </trkpt>
      <trkpt lat="59.110543727874756" lon="30.483391284942627">
        <time>2026-08-20T07:08:17Z</time>
      </trkpt>
      <trkpt lat="59.110543727874756" lon="30.483391284942627">
        <time>2026-08-20T07:08:19Z</time>
      </trkpt>
      <trkpt lat="59.110586643218994" lon="30.483391284942627">
        <time>2026-08-20T07:08:22Z</time>
      </trkpt>
      <trkpt lat="59.110586643218994" lon="30.483412742614746">
        <time>2026-08-20T07:08:24Z</time>
      </trkpt>
      <trkpt lat="59.110565185546875" lon="30.483477115631104">
        <time>2026-08-20T07:08:27Z</time>
      </trkpt>
      <trkpt lat="59.110543727874756" lon="30.483498573303223">
        <time>2026-08-20T07:08:29Z</time>
      </trkpt>
      <trkpt lat="59.110565185546875" lon="30.483541488647461">
        <time>2026-08-20T07:08:32Z</time>
      </trkpt>
      <trkpt lat="59.110565185546875" lon="30.48356294631958">
        <time>2026-08-20T07:08:34Z</time>
      </trkpt>
      <trkpt lat="59.110500812530518" lon="30.48356294631958">
        <time>2026-08-20T07:08:37Z</time>
      </trkpt>
      <trkpt lat="59.110457897186279" lon="30.48356294631958">
        <time>2026-08-20T07:08:39Z</time>
      </trkpt>
      <trkpt lat="59.11043643951416" lon="30.483498573303223">
        <time>2026-08-20T07:08:42Z</time>
      </trkpt>
      <trkpt lat="59.110457897186279" lon="30.483455657958984">
        <time>2026-08-20T07:08:44Z</time>
      </trkpt>
      <trkpt lat="59.110457897186279" lon="30.483455657958984">
        <time>2026-08-20T07:08:47Z</time>
      </trkpt>
      <trkpt lat="59.110479354858398" lon="30.483455657958984">
        <time>2026-08-20T07:08:49Z</time>
      </trkpt>
      <trkpt lat="59.110500812530518" lon="30.483434200286865">
        <time>2026-08-20T07:08:52Z</time>
      </trkpt>
      <trkpt lat="59.110522270202637" lon="30.483412742614746">
        <time>2026-08-20T07:08:54Z</time>
      </trkpt>
      <trkpt lat="59.110543727874756" lon="30.483391284942627">
        <time>2026-08-20T07:08:57Z</time>
      </trkpt>
      <trkpt lat="59.110543727874756" lon="30.483391284942627">
        <time>2026-08-20T07:08:59Z</time>
      </trkpt>
      <trkpt lat="59.110543727874756" lon="30.483391284942627">
        <time>2026-08-20T07:09:02Z</time>
      </trkpt>
      <trkpt lat="59.110543727874756" lon="30.483391284942627">
        <time>2026-08-20T07:09:04Z</time>
      </trkpt>
      <trkpt lat="59.110586643218994" lon="30.483369827270508">
        <time>2026-08-20T07:09:07Z</time>
      </trkpt>
      <trkpt lat="59.110629558563232" lon="30.483369827270508">
        <time>2026-08-20T07:09:09Z</time>
      </trkpt>
      <trkpt lat="59.110672473907471" lon="30.483369827270508">
        <time>2026-08-20T07:09:12Z</time>
      </trkpt>
      <trkpt lat="59.110672473907471" lon="30.483369827270508">
        <time>2026-08-20T07:09:14Z</time>
      </trkpt>
      <trkpt lat="59.110672473907471" lon="30.483369827270508">
        <time>2026-08-20T07:09:17Z</time>
      </trkpt>
      <trkpt lat="59.110672473907471" lon="30.483369827270508">
        <time>2026-08-20T07:09:19Z</time>
      </trkpt>
      <trkpt lat="59.110715389251709" lon="30.483369827270508">
        <time>2026-08-20T07:09:22Z</time>
      </trkpt>
      <trkpt lat="59.110736846923828" lon="30.483455657958984">
        <time>2026-08-20T07:09:24Z</time>
      </trkpt>
      <trkpt lat="59.110736846923828" lon="30.483498573303223">
        <time>2026-08-20T07:09:27Z</time>
      </trkpt>
      <trkpt lat="59.110736846923828" lon="30.483498573303223">
        <time>2026-08-20T07:09:29Z</time>
      </trkpt>
      <trkpt lat="59.110758304595947" lon="30.483498573303223">
        <time>2026-08-20T07:09:32Z</time>
      </trkpt>
      <trkpt lat="59.110758304595947" lon="30.483498573303223">
        <time>2026-08-20T07:09:34Z</time>
      </trkpt>
      <trkpt lat="59.110758304595947" lon="30.483498573303223">
        <time>2026-08-20T07:09:37Z</time>
      </trkpt>
      <trkpt lat="59.110758304595947" lon="30.483520030975342">
        <time>2026-08-20T07:09:39Z</time>
      </trkpt>
      <trkpt lat="59.110736846923828" lon="30.483498573303223">
        <time>2026-08-20T07:09:42Z</time>
      </trkpt>
      <trkpt lat="59.110715389251709" lon="30.483455657958984">
        <time>2026-08-20T07:09:44Z</time>
      </trkpt>
      <trkpt lat="59.110672473907471" lon="30.483455657958984">
        <time>2026-08-20T07:09:47Z</time>
      </trkpt>
      <trkpt lat="59.110672473907471" lon="30.483455657958984">
        <time>2026-08-20T07:09:49Z</time>
      </trkpt>
      <trkpt lat="59.110629558563232" lon="30.483434200286865">
        <time>2026-08-20T07:09:52Z</time>
      </trkpt>
      <trkpt lat="59.110608100891113" lon="30.483434200286865">
        <time>2026-08-20T07:09:54Z</time>
      </trkpt>
      <trkpt lat="59.110608100891113" lon="30.483391284942627">
        <time>2026-08-20T07:09:57Z</time>
      </trkpt>
      <trkpt lat="59.110608100891113" lon="30.483348369598389">
        <time>2026-08-20T07:09:59Z</time>
      </trkpt>
      <trkpt lat="59.110608100891113" lon="30.483348369598389">
        <time>2026-08-20T07:10:02Z</time>
      </trkpt>
      <trkpt lat="59.110608100891113" lon="30.48332691192627">
        <time>2026-08-20T07:10:04Z</time>
      </trkpt>
      <trkpt lat="59.110586643218994" lon="30.483283996582031">
        <time>2026-08-20T07:10:07Z</time>
      </trkpt>
      <trkpt lat="59.110608100891113" lon="30.483262538909912">
        <time>2026-08-20T07:10:09Z</time>
      </trkpt>
      <trkpt lat="59.110629558563232" lon="30.483262538909912">
        <time>2026-08-20T07:10:12Z</time>
      </trkpt>
      <trkpt lat="59.110629558563232" lon="30.483262538909912">
        <time>2026-08-20T07:10:14Z</time>
      </trkpt>
      <trkpt lat="59.110608100891113" lon="30.483262538909912">
        <time>2026-08-20T07:10:17Z</time>
      </trkpt>
      <trkpt lat="59.110608100891113" lon="30.483262538909912">
        <time>2026-08-20T07:10:19Z</time>
      </trkpt>
      <trkpt lat="59.110608100891113" lon="30.483262538909912">
        <time>2026-08-20T07:10:22Z</time>
      </trkpt>
      <trkpt lat="59.110586643218994" lon="30.483262538909912">
        <time>2026-08-20T07:10:24Z</time>
      </trkpt>
      <trkpt lat="59.110586643218994" lon="30.483262538909912">
        <time>2026-08-20T07:10:27Z</time>
      </trkpt>
      <trkpt lat="59.110586643218994" lon="30.483262538909912">
        <time>2026-08-20T07:10:29Z</time>
      </trkpt>
      <trkpt lat="59.110565185546875" lon="30.483283996582031">
        <time>2026-08-20T07:10:32Z</time>
      </trkpt>
      <trkpt lat="59.110543727874756" lon="30.483283996582031">
        <time>2026-08-20T07:10:34Z</time>
      </trkpt>
      <trkpt lat="59.110543727874756" lon="30.48330545425415">
        <time>2026-08-20T07:10:37Z</time>
      </trkpt>
      <trkpt lat="59.110522270202637" lon="30.483283996582031">
        <time>2026-08-20T07:10:39Z</time>
      </trkpt>
      <trkpt lat="59.110522270202637" lon="30.48330545425415">
        <time>2026-08-20T07:10:42Z</time>
      </trkpt>
      <trkpt lat="59.110522270202637" lon="30.48330545425415">
        <time>2026-08-20T07:10:44Z</time>
      </trkpt>
      <trkpt lat="59.110500812530518" lon="30.48330545425415">
        <time>2026-08-20T07:10:47Z</time>
      </trkpt>
      <trkpt lat="59.110479354858398" lon="30.48332691192627">
        <time>2026-08-20T07:10:49Z</time>
      </trkpt>
      <trkpt lat="59.110479354858398" lon="30.483369827270508">
        <time>2026-08-20T07:10:52Z</time>
      </trkpt>
      <trkpt lat="59.110457897186279" lon="30.483412742614746">
        <time>2026-08-20T07:10:54Z</time>
      </trkpt>
      <trkpt lat="59.110457897186279" lon="30.483412742614746">
        <time>2026-08-20T07:10:57Z</time>
      </trkpt>
      <trkpt lat="59.110479354858398" lon="30.483391284942627">
        <time>2026-08-20T07:10:59Z</time>
      </trkpt>
      <trkpt lat="59.110457897186279" lon="30.483391284942627">
        <time>2026-08-20T07:11:02Z</time>
      </trkpt>
      <trkpt lat="59.110457897186279" lon="30.483391284942627">
        <time>2026-08-20T07:11:04Z</time>
      </trkpt>
      <trkpt lat="59.11043643951416" lon="30.483369827270508">
        <time>2026-08-20T07:11:07Z</time>
      </trkpt>
      <trkpt lat="59.11043643951416" lon="30.483369827270508">
        <time>2026-08-20T07:11:09Z</time>
      </trkpt>
      <trkpt lat="59.11043643951416" lon="30.483391284942627">
        <time>2026-08-20T07:11:12Z</time>
      </trkpt>
      <trkpt lat="59.110414981842041" lon="30.483391284942627">
        <time>2026-08-20T07:11:14Z</time>
      </trkpt>
      <trkpt lat="59.110393524169922" lon="30.483369827270508">
        <time>2026-08-20T07:11:17Z</time>
      </trkpt>
      <trkpt lat="59.110372066497803" lon="30.483348369598389">
        <time>2026-08-20T07:11:19Z</time>
      </trkpt>
      <trkpt lat="59.110372066497803" lon="30.48330545425415">
        <time>2026-08-20T07:11:22Z</time>
      </trkpt>
      <trkpt lat="59.110372066497803" lon="30.48330545425415">
        <time>2026-08-20T07:11:24Z</time>
      </trkpt>
      <trkpt lat="59.110372066497803" lon="30.483219623565674">
        <time>2026-08-20T07:11:27Z</time>
      </trkpt>
      <trkpt lat="59.110372066497803" lon="30.483219623565674">
        <time>2026-08-20T07:11:29Z</time>
      </trkpt>
      <trkpt lat="59.110350608825684" lon="30.483176708221436">
        <time>2026-08-20T07:11:32Z</time>
      </trkpt>
      <trkpt lat="59.110372066497803" lon="30.483155250549316">
        <time>2026-08-20T07:11:34Z</time>
      </trkpt>
      <trkpt lat="59.110372066497803" lon="30.483090877532959">
        <time>2026-08-20T07:11:37Z</time>
      </trkpt>
      <trkpt lat="59.110350608825684" lon="30.48306941986084">
        <time>2026-08-20T07:11:39Z</time>
      </trkpt>
      <trkpt lat="59.110329151153564" lon="30.48306941986084">
        <time>2026-08-20T07:11:42Z</time>
      </trkpt>
      <trkpt lat="59.110329151153564" lon="30.483090877532959">
        <time>2026-08-20T07:11:44Z</time>
      </trkpt>
      <trkpt lat="59.110350608825684" lon="30.483090877532959">
        <time>2026-08-20T07:11:47Z</time>
      </trkpt>
      <trkpt lat="59.110393524169922" lon="30.483090877532959">
        <time>2026-08-20T07:11:49Z</time>
      </trkpt>
      <trkpt lat="59.110414981842041" lon="30.48306941986084">
        <time>2026-08-20T07:11:52Z</time>
      </trkpt>
      <trkpt lat="59.110479354858398" lon="30.48306941986084">
        <time>2026-08-20T07:11:54Z</time>
      </trkpt>
      <trkpt lat="59.110500812530518" lon="30.48306941986084">
        <time>2026-08-20T07:11:57Z</time>
      </trkpt>
      <trkpt lat="59.110500812530518" lon="30.48306941986084">
        <time>2026-08-20T07:11:59Z</time>
      </trkpt>
      <trkpt lat="59.110479354858398" lon="30.483005046844482">
        <time>2026-08-20T07:12:02Z</time>
      </trkpt>
      <trkpt lat="59.110457897186279" lon="30.482983589172363">
        <time>2026-08-20T07:12:04Z</time>
      </trkpt>
      <trkpt lat="59.110457897186279" lon="30.483026504516602">
        <time>2026-08-20T07:12:07Z</time>
      </trkpt>
      <trkpt lat="59.11043643951416" lon="30.483090877532959">
        <time>2026-08-20T07:12:09Z</time>
      </trkpt>
      <trkpt lat="59.11043643951416" lon="30.483112335205078">
        <time>2026-08-20T07:12:12Z</time>
      </trkpt>
      <trkpt lat="59.11043643951416" lon="30.483112335205078">
        <time>2026-08-20T07:12:14Z</time>
      </trkpt>
      <trkpt lat="59.11043643951416" lon="30.483112335205078">
        <time>2026-08-20T07:12:17Z</time>
      </trkpt>
      <trkpt lat="59.11043643951416" lon="30.483112335205078">
        <time>2026-08-20T07:12:19Z</time>
      </trkpt>
      <trkpt lat="59.11043643951416" lon="30.483155250549316">
        <time>2026-08-20T07:12:22Z</time>
      </trkpt>
      <trkpt lat="59.110393524169922" lon="30.483176708221436">
        <time>2026-08-20T07:12:24Z</time>
      </trkpt>
      <trkpt lat="59.110350608825684" lon="30.483198165893555">
        <time>2026-08-20T07:12:27Z</time>
      </trkpt>
      <trkpt lat="59.110329151153564" lon="30.483198165893555">
        <time>2026-08-20T07:12:29Z</time>
      </trkpt>
      <trkpt lat="59.110350608825684" lon="30.483198165893555">
        <time>2026-08-20T07:12:32Z</time>
      </trkpt>
      <trkpt lat="59.110350608825684" lon="30.483176708221436">
        <time>2026-08-20T07:12:34Z</time>
      </trkpt>
      <trkpt lat="59.110350608825684" lon="30.483155250549316">
        <time>2026-08-20T07:12:37Z</time>
      </trkpt>
      <trkpt lat="59.110329151153564" lon="30.483155250549316">
        <time>2026-08-20T07:12:39Z</time>
      </trkpt>
      <trkpt lat="59.110307693481445" lon="30.483133792877197">
        <time>2026-08-20T07:12:42Z</time>
      </trkpt>
      <trkpt lat="59.110329151153564" lon="30.483133792877197">
        <time>2026-08-20T07:12:44Z</time>
      </trkpt>
      <trkpt lat="59.110350608825684" lon="30.483133792877197">
        <time>2026-08-20T07:12:47Z</time>
      </trkpt>
      <trkpt lat="59.110350608825684" lon="30.483155250549316">
        <time>2026-08-20T07:12:49Z</time>
      </trkpt>
      <trkpt lat="59.110350608825684" lon="30.483133792877197">
        <time>2026-08-20T07:12:52Z</time>
      </trkpt>
      <trkpt lat="59.110350608825684" lon="30.483112335205078">
        <time>2026-08-20T07:12:54Z</time>
      </trkpt>
      <trkpt lat="59.110350608825684" lon="30.483090877532959">
        <time>2026-08-20T07:12:57Z</time>
      </trkpt>
      <trkpt lat="59.110350608825684" lon="30.483026504516602">
        <time>2026-08-20T07:12:59Z</time>
      </trkpt>
      <trkpt lat="59.110372066497803" lon="30.482983589172363">
        <time>2026-08-20T07:13:02Z</time>
      </trkpt>
      <trkpt lat="59.110372066497803" lon="30.482919216156006">
        <time>2026-08-20T07:13:04Z</time>
      </trkpt>
      <trkpt lat="59.110393524169922" lon="30.482940673828125">
        <time>2026-08-20T07:13:07Z</time>
      </trkpt>
      <trkpt lat="59.110414981842041" lon="30.482919216156006">
        <time>2026-08-20T07:13:09Z</time>
      </trkpt>
      <trkpt lat="59.110414981842041" lon="30.482876300811768">
        <time>2026-08-20T07:13:12Z</time>
      </trkpt>
      <trkpt lat="59.110414981842041" lon="30.482854843139648">
        <time>2026-08-20T07:13:14Z</time>
      </trkpt>
      <trkpt lat="59.11043643951416" lon="30.482854843139648">
        <time>2026-08-20T07:13:17Z</time>
      </trkpt>
      <trkpt lat="59.11043643951416" lon="30.482833385467529">
        <time>2026-08-20T07:13:19Z</time>
      </trkpt>
      <trkpt lat="59.110457897186279" lon="30.48281192779541">
        <time>2026-08-20T07:13:22Z</time>
      </trkpt>
      <trkpt lat="59.110457897186279" lon="30.482769012451172">
        <time>2026-08-20T07:13:24Z</time>
      </trkpt>
      <trkpt lat="59.110457897186279" lon="30.48281192779541">
        <time>2026-08-20T07:13:27Z</time>
      </trkpt>
      <trkpt lat="59.110457897186279" lon="30.482833385467529">
        <time>2026-08-20T07:13:29Z</time>
      </trkpt>
      <trkpt lat="59.110479354858398" lon="30.482876300811768">
        <time>2026-08-20T07:13:32Z</time>
      </trkpt>
      <trkpt lat="59.110500812530518" lon="30.482962131500244">
        <time>2026-08-20T07:13:34Z</time>
      </trkpt>
      <trkpt lat="59.110457897186279" lon="30.483005046844482">
        <time>2026-08-20T07:13:37Z</time>
      </trkpt>
      <trkpt lat="59.110393524169922" lon="30.483047962188721">
        <time>2026-08-20T07:13:39Z</time>
      </trkpt>
      <trkpt lat="59.110372066497803" lon="30.48306941986084">
        <time>2026-08-20T07:13:42Z</time>
      </trkpt>
      <trkpt lat="59.110372066497803" lon="30.483090877532959">
        <time>2026-08-20T07:13:44Z</time>
      </trkpt>
      <trkpt lat="59.110372066497803" lon="30.483090877532959">
        <time>2026-08-20T07:13:47Z</time>
      </trkpt>
      <trkpt lat="59.110329151153564" lon="30.483133792877197">
        <time>2026-08-20T07:13:49Z</time>
      </trkpt>
      <trkpt lat="59.110329151153564" lon="30.483133792877197">
        <time>2026-08-20T07:13:52Z</time>
      </trkpt>
      <trkpt lat="59.110329151153564" lon="30.483112335205078">
        <time>2026-08-20T07:13:54Z</time>
      </trkpt>
      <trkpt lat="59.110350608825684" lon="30.483133792877197">
        <time>2026-08-20T07:13:57Z</time>
      </trkpt>
      <trkpt lat="59.110372066497803" lon="30.483219623565674">
        <time>2026-08-20T07:13:59Z</time>
      </trkpt>
      <trkpt lat="59.110372066497803" lon="30.483219623565674">
        <time>2026-08-20T07:14:02Z</time>
      </trkpt>
      <trkpt lat="59.110372066497803" lon="30.483262538909912">
        <time>2026-08-20T07:14:04Z</time>
      </trkpt>
      <trkpt lat="59.110372066497803" lon="30.483262538909912">
        <time>2026-08-20T07:14:07Z</time>
      </trkpt>
      <trkpt lat="59.110393524169922" lon="30.483283996582031">
        <time>2026-08-20T07:14:09Z</time>
      </trkpt>
      <trkpt lat="59.110414981842041" lon="30.48332691192627">
        <time>2026-08-20T07:14:12Z</time>
      </trkpt>
      <trkpt lat="59.110414981842041" lon="30.483391284942627">
        <time>2026-08-20T07:14:14Z</time>
      </trkpt>
      <trkpt lat="59.110414981842041" lon="30.483412742614746">
        <time>2026-08-20T07:14:17Z</time>
      </trkpt>
      <trkpt lat="59.110414981842041" lon="30.483434200286865">
        <time>2026-08-20T07:14:19Z</time>
      </trkpt>
      <trkpt lat="59.110393524169922" lon="30.483455657958984">
        <time>2026-08-20T07:14:22Z</time>
      </trkpt>
      <trkpt lat="59.110393524169922" lon="30.483477115631104">
        <time>2026-08-20T07:14:24Z</time>
      </trkpt>
      <trkpt lat="59.110393524169922" lon="30.483541488647461">
        <time>2026-08-20T07:14:27Z</time>
      </trkpt>
      <trkpt lat="59.110414981842041" lon="30.483605861663818">
        <time>2026-08-20T07:14:29Z</time>
      </trkpt>
      <trkpt lat="59.11043643951416" lon="30.483605861663818">
        <time>2026-08-20T07:14:32Z</time>
      </trkpt>
      <trkpt lat="59.110457897186279" lon="30.483648777008057">
        <time>2026-08-20T07:14:34Z</time>
      </trkpt>
      <trkpt lat="59.110457897186279" lon="30.483648777008057">
        <time>2026-08-20T07:14:37Z</time>
      </trkpt>
      <trkpt lat="59.11043643951416" lon="30.483605861663818">
        <time>2026-08-20T07:14:39Z</time>
      </trkpt>
      <trkpt lat="59.11043643951416" lon="30.483605861663818">
        <time>2026-08-20T07:14:42Z</time>
      </trkpt>
      <trkpt lat="59.110457897186279" lon="30.483541488647461">
        <time>2026-08-20T07:14:44Z</time>
      </trkpt>
      <trkpt lat="59.110500812530518" lon="30.483455657958984">
        <time>2026-08-20T07:14:47Z</time>
      </trkpt>
      <trkpt lat="59.110522270202637" lon="30.483412742614746">
        <time>2026-08-20T07:14:49Z</time>
      </trkpt>
      <trkpt lat="59.110543727874756" lon="30.483369827270508">
        <time>2026-08-20T07:14:52Z</time>
      </trkpt>
      <trkpt lat="59.110565185546875" lon="30.48332691192627">
        <time>2026-08-20T07:14:54Z</time>
      </trkpt>
      <trkpt lat="59.110586643218994" lon="30.48332691192627">
        <time>2026-08-20T07:14:57Z</time>
      </trkpt>
      <trkpt lat="59.110608100891113" lon="30.483369827270508">
        <time>2026-08-20T07:14:59Z</time>
      </trkpt>
      <trkpt lat="59.110608100891113" lon="30.483348369598389">
        <time>2026-08-20T07:15:02Z</time>
      </trkpt>
      <trkpt lat="59.110672473907471" lon="30.48332691192627">
        <time>2026-08-20T07:15:04Z</time>
      </trkpt>
      <trkpt lat="59.11069393157959" lon="30.48330545425415">
        <time>2026-08-20T07:15:07Z</time>
      </trkpt>
      <trkpt lat="59.11069393157959" lon="30.48330545425415">
        <time>2026-08-20T07:15:09Z</time>
      </trkpt>
      <trkpt lat="59.110715389251709" lon="30.48332691192627">
        <time>2026-08-20T07:15:12Z</time>
      </trkpt>
      <trkpt lat="59.110736846923828" lon="30.483348369598389">
        <time>2026-08-20T07:15:14Z</time>
      </trkpt>
      <trkpt lat="59.110779762268066" lon="30.483391284942627">
        <time>2026-08-20T07:15:17Z</time>
      </trkpt>
      <trkpt lat="59.110779762268066" lon="30.483455657958984">
        <time>2026-08-20T07:15:19Z</time>
      </trkpt>
      <trkpt lat="59.110758304595947" lon="30.483477115631104">
        <time>2026-08-20T07:15:22Z</time>
      </trkpt>
      <trkpt lat="59.110758304595947" lon="30.483498573303223">
        <time>2026-08-20T07:15:24Z</time>
      </trkpt>
      <trkpt lat="59.110758304595947" lon="30.483541488647461">
        <time>2026-08-20T07:15:29Z</time>
      </trkpt>
      <trkpt lat="59.110736846923828" lon="30.48356294631958">
        <time>2026-08-20T07:15:32Z</time>
      </trkpt>
      <trkpt lat="59.110715389251709" lon="30.483605861663818">
        <time>2026-08-20T07:15:34Z</time>
      </trkpt>
      <trkpt lat="59.110715389251709" lon="30.483584403991699">
        <time>2026-08-20T07:15:37Z</time>
      </trkpt>
      <trkpt lat="59.11069393157959" lon="30.483584403991699">
        <time>2026-08-20T07:15:39Z</time>
      </trkpt>
      <trkpt lat="59.11069393157959" lon="30.483584403991699">
        <time>2026-08-20T07:15:42Z</time>
      </trkpt>
      <trkpt lat="59.11069393157959" lon="30.483541488647461">
        <time>2026-08-20T07:15:44Z</time>
      </trkpt>
      <trkpt lat="59.11069393157959" lon="30.483520030975342">
        <time>2026-08-20T07:15:47Z</time>
      </trkpt>
      <trkpt lat="59.11069393157959" lon="30.483498573303223">
        <time>2026-08-20T07:15:49Z</time>
      </trkpt>
      <trkpt lat="59.11069393157959" lon="30.483477115631104">
        <time>2026-08-20T07:15:52Z</time>
      </trkpt>
      <trkpt lat="59.11069393157959" lon="30.483477115631104">
        <time>2026-08-20T07:15:54Z</time>
      </trkpt>
      <trkpt lat="59.11069393157959" lon="30.483477115631104">
        <time>2026-08-20T07:15:57Z</time>
      </trkpt>
      <trkpt lat="59.110715389251709" lon="30.483498573303223">
        <time>2026-08-20T07:15:59Z</time>
      </trkpt>
      <trkpt lat="59.110736846923828" lon="30.483541488647461">
        <time>2026-08-20T07:16:02Z</time>
      </trkpt>
      <trkpt lat="59.110779762268066" lon="30.483605861663818">
        <time>2026-08-20T07:16:04Z</time>
      </trkpt>
      <trkpt lat="59.110758304595947" lon="30.483670234680176">
        <time>2026-08-20T07:16:07Z</time>
      </trkpt>
      <trkpt lat="59.110758304595947" lon="30.483691692352295">
        <time>2026-08-20T07:16:09Z</time>
      </trkpt>
      <trkpt lat="59.110736846923828" lon="30.483691692352295">
        <time>2026-08-20T07:16:12Z</time>
      </trkpt>
      <trkpt lat="59.110715389251709" lon="30.483691692352295">
        <time>2026-08-20T07:16:14Z</time>
      </trkpt>
      <trkpt lat="59.110736846923828" lon="30.483691692352295">
        <time>2026-08-20T07:16:17Z</time>
      </trkpt>
      <trkpt lat="59.110736846923828" lon="30.483691692352295">
        <time>2026-08-20T07:16:19Z</time>
      </trkpt>
      <trkpt lat="59.110736846923828" lon="30.483691692352295">
        <time>2026-08-20T07:16:22Z</time>
      </trkpt>
      <trkpt lat="59.110736846923828" lon="30.483756065368652">
        <time>2026-08-20T07:16:24Z</time>
      </trkpt>
      <trkpt lat="59.110715389251709" lon="30.483777523040771">
        <time>2026-08-20T07:16:27Z</time>
      </trkpt>
      <trkpt lat="59.110715389251709" lon="30.483841896057129">
        <time>2026-08-20T07:16:29Z</time>
      </trkpt>
      <trkpt lat="59.110715389251709" lon="30.483863353729248">
        <time>2026-08-20T07:16:32Z</time>
      </trkpt>
      <trkpt lat="59.110715389251709" lon="30.483884811401367">
        <time>2026-08-20T07:16:34Z</time>
      </trkpt>
      <trkpt lat="59.110736846923828" lon="30.483906269073486">
        <time>2026-08-20T07:16:37Z</time>
      </trkpt>
      <trkpt lat="59.110779762268066" lon="30.483949184417725">
        <time>2026-08-20T07:16:39Z</time>
      </trkpt>
      <trkpt lat="59.110779762268066" lon="30.483949184417725">
        <time>2026-08-20T07:16:42Z</time>
      </trkpt>
      <trkpt lat="59.110758304595947" lon="30.483949184417725">
        <time>2026-08-20T07:16:44Z</time>
      </trkpt>
      <trkpt lat="59.110758304595947" lon="30.483970642089844">
        <time>2026-08-20T07:16:47Z</time>
      </trkpt>
      <trkpt lat="59.110736846923828" lon="30.483970642089844">
        <time>2026-08-20T07:16:49Z</time>
      </trkpt>
      <trkpt lat="59.110736846923828" lon="30.484013557434082">
        <time>2026-08-20T07:16:52Z</time>
      </trkpt>
      <trkpt lat="59.110736846923828" lon="30.484077930450439">
        <time>2026-08-20T07:16:54Z</time>
      </trkpt>
      <trkpt lat="59.110736846923828" lon="30.484142303466797">
        <time>2026-08-20T07:16:57Z</time>
      </trkpt>
      <trkpt lat="59.110736846923828" lon="30.484163761138916">
        <time>2026-08-20T07:16:59Z</time>
      </trkpt>
      <trkpt lat="59.110736846923828" lon="30.484206676483154">
        <time>2026-08-20T07:17:02Z</time>
      </trkpt>
      <trkpt lat="59.110758304595947" lon="30.484292507171631">
        <time>2026-08-20T07:17:04Z</time>
      </trkpt>
      <trkpt lat="59.110736846923828" lon="30.484335422515869">
        <time>2026-08-20T07:17:07Z</time>
      </trkpt>
      <trkpt lat="59.110736846923828" lon="30.484356880187988">
        <time>2026-08-20T07:17:09Z</time>
      </trkpt>
      <trkpt lat="59.110736846923828" lon="30.484356880187988">
        <time>2026-08-20T07:17:12Z</time>
      </trkpt>
      <trkpt lat="59.110736846923828" lon="30.484356880187988">
        <time>2026-08-20T07:17:14Z</time>
      </trkpt>
      <trkpt lat="59.110736846923828" lon="30.484356880187988">
        <time>2026-08-20T07:17:17Z</time>
      </trkpt>
      <trkpt lat="59.110715389251709" lon="30.484356880187988">
        <time>2026-08-20T07:17:19Z</time>
      </trkpt>
      <trkpt lat="59.11069393157959" lon="30.484378337860107">
        <time>2026-08-20T07:17:22Z</time>
      </trkpt>
      <trkpt lat="59.110672473907471" lon="30.484399795532227">
        <time>2026-08-20T07:17:24Z</time>
      </trkpt>
      <trkpt lat="59.110651016235352" lon="30.484378337860107">
        <time>2026-08-20T07:17:27Z</time>
      </trkpt>
      <trkpt lat="59.110629558563232" lon="30.484378337860107">
        <time>2026-08-20T07:17:29Z</time>
      </trkpt>
      <trkpt lat="59.110629558563232" lon="30.484378337860107">
        <time>2026-08-20T07:17:32Z</time>
      </trkpt>
      <trkpt lat="59.110629558563232" lon="30.484378337860107">
        <time>2026-08-20T07:17:34Z</time>
      </trkpt>
      <trkpt lat="59.110629558563232" lon="30.484378337860107">
        <time>2026-08-20T07:17:37Z</time>
      </trkpt>
      <trkpt lat="59.110629558563232" lon="30.484356880187988">
        <time>2026-08-20T07:17:39Z</time>
      </trkpt>
      <trkpt lat="59.110586643218994" lon="30.484356880187988">
        <time>2026-08-20T07:17:42Z</time>
      </trkpt>
      <trkpt lat="59.110586643218994" lon="30.484378337860107">
        <time>2026-08-20T07:17:44Z</time>
      </trkpt>
      <trkpt lat="59.110608100891113" lon="30.484421253204346">
        <time>2026-08-20T07:17:47Z</time>
      </trkpt>
      <trkpt lat="59.110672473907471" lon="30.484442710876465">
        <time>2026-08-20T07:17:49Z</time>
      </trkpt>
      <trkpt lat="59.11069393157959" lon="30.484485626220703">
        <time>2026-08-20T07:17:52Z</time>
      </trkpt>
      <trkpt lat="59.11069393157959" lon="30.484485626220703">
        <time>2026-08-20T07:17:54Z</time>
      </trkpt>
      <trkpt lat="59.11069393157959" lon="30.484507083892822">
        <time>2026-08-20T07:17:57Z</time>
      </trkpt>
      <trkpt lat="59.110672473907471" lon="30.484528541564941">
        <time>2026-08-20T07:17:59Z</time>
      </trkpt>
      <trkpt lat="59.11069393157959" lon="30.484528541564941">
        <time>2026-08-20T07:18:02Z</time>
      </trkpt>
      <trkpt lat="59.110715389251709" lon="30.484549999237061">
        <time>2026-08-20T07:18:04Z</time>
      </trkpt>
      <trkpt lat="59.110736846923828" lon="30.48457145690918">
        <time>2026-08-20T07:18:07Z</time>
      </trkpt>
      <trkpt lat="59.110779762268066" lon="30.484614372253418">
        <time>2026-08-20T07:18:09Z</time>
      </trkpt>
      <trkpt lat="59.110822677612305" lon="30.484635829925537">
        <time>2026-08-20T07:18:12Z</time>
      </trkpt>
      <trkpt lat="59.110844135284424" lon="30.484678745269775">
        <time>2026-08-20T07:18:14Z</time>
      </trkpt>
      <trkpt lat="59.110844135284424" lon="30.484700202941895">
        <time>2026-08-20T07:18:17Z</time>
      </trkpt>
      <trkpt lat="59.110865592956543" lon="30.484764575958252">
        <time>2026-08-20T07:18:19Z</time>
      </trkpt>
      <trkpt lat="59.110887050628662" lon="30.484786033630371">
        <time>2026-08-20T07:18:22Z</time>
      </trkpt>
      <trkpt lat="59.110887050628662" lon="30.484850406646729">
        <time>2026-08-20T07:18:24Z</time>
      </trkpt>
      <trkpt lat="59.110887050628662" lon="30.484893321990967">
        <time>2026-08-20T07:18:27Z</time>
      </trkpt>
      <trkpt lat="59.110887050628662" lon="30.484936237335205">
        <time>2026-08-20T07:18:29Z</time>
      </trkpt>
      <trkpt lat="59.110887050628662" lon="30.485000610351563">
        <time>2026-08-20T07:18:32Z</time>
      </trkpt>
      <trkpt lat="59.110908508300781" lon="30.485086441040039">
        <time>2026-08-20T07:18:34Z</time>
      </trkpt>
      <trkpt lat="59.110908508300781" lon="30.485107898712158">
        <time>2026-08-20T07:18:37Z</time>
      </trkpt>
      <trkpt lat="59.110908508300781" lon="30.485172271728516">
        <time>2026-08-20T07:18:39Z</time>
      </trkpt>
      <trkpt lat="59.110908508300781" lon="30.485215187072754">
        <time>2026-08-20T07:18:42Z</time>
      </trkpt>
      <trkpt lat="59.110908508300781" lon="30.485215187072754">
        <time>2026-08-20T07:18:44Z</time>
      </trkpt>
      <trkpt lat="59.110908508300781" lon="30.485215187072754">
        <time>2026-08-20T07:18:47Z</time>
      </trkpt>
      <trkpt lat="59.110908508300781" lon="30.485215187072754">
        <time>2026-08-20T07:18:49Z</time>
      </trkpt>
      <trkpt lat="59.110908508300781" lon="30.485279560089111">
        <time>2026-08-20T07:18:52Z</time>
      </trkpt>
      <trkpt lat="59.1109299659729" lon="30.485365390777588">
        <time>2026-08-20T07:18:54Z</time>
      </trkpt>
      <trkpt lat="59.1109299659729" lon="30.485386848449707">
        <time>2026-08-20T07:18:57Z</time>
      </trkpt>
      <trkpt lat="59.1109299659729" lon="30.485429763793945">
        <time>2026-08-20T07:18:59Z</time>
      </trkpt>
      <trkpt lat="59.110908508300781" lon="30.485429763793945">
        <time>2026-08-20T07:19:02Z</time>
      </trkpt>
      <trkpt lat="59.110908508300781" lon="30.485429763793945">
        <time>2026-08-20T07:19:04Z</time>
      </trkpt>
      <trkpt lat="59.110887050628662" lon="30.485429763793945">
        <time>2026-08-20T07:19:07Z</time>
      </trkpt>
      <trkpt lat="59.110844135284424" lon="30.485429763793945">
        <time>2026-08-20T07:19:09Z</time>
      </trkpt>
      <trkpt lat="59.110844135284424" lon="30.485451221466064">
        <time>2026-08-20T07:19:12Z</time>
      </trkpt>
      <trkpt lat="59.110822677612305" lon="30.485515594482422">
        <time>2026-08-20T07:19:14Z</time>
      </trkpt>
      <trkpt lat="59.110822677612305" lon="30.48555850982666">
        <time>2026-08-20T07:19:17Z</time>
      </trkpt>
      <trkpt lat="59.110801219940186" lon="30.485601425170898">
        <time>2026-08-20T07:19:19Z</time>
      </trkpt>
      <trkpt lat="59.110801219940186" lon="30.485601425170898">
        <time>2026-08-20T07:19:22Z</time>
      </trkpt>
      <trkpt lat="59.110801219940186" lon="30.485601425170898">
        <time>2026-08-20T07:19:24Z</time>
      </trkpt>
      <trkpt lat="59.110801219940186" lon="30.485579967498779">
        <time>2026-08-20T07:19:27Z</time>
      </trkpt>
      <trkpt lat="59.110865592956543" lon="30.485515594482422">
        <time>2026-08-20T07:19:29Z</time>
      </trkpt>
      <trkpt lat="59.110908508300781" lon="30.485472679138184">
        <time>2026-08-20T07:19:32Z</time>
      </trkpt>
      <trkpt lat="59.11095142364502" lon="30.485451221466064">
        <time>2026-08-20T07:19:34Z</time>
      </trkpt>
      <trkpt lat="59.11095142364502" lon="30.485451221466064">
        <time>2026-08-20T07:19:37Z</time>
      </trkpt>
      <trkpt lat="59.11095142364502" lon="30.485451221466064">
        <time>2026-08-20T07:19:39Z</time>
      </trkpt>
      <trkpt lat="59.11095142364502" lon="30.485451221466064">
        <time>2026-08-20T07:19:42Z</time>
      </trkpt>
      <trkpt lat="59.11095142364502" lon="30.485451221466064">
        <time>2026-08-20T07:19:44Z</time>
      </trkpt>
      <trkpt lat="59.11095142364502" lon="30.485451221466064">
        <time>2026-08-20T07:19:47Z</time>
      </trkpt>
      <trkpt lat="59.11095142364502" lon="30.485451221466064">
        <time>2026-08-20T07:19:49Z</time>
      </trkpt>
      <trkpt lat="59.11095142364502" lon="30.485451221466064">
        <time>2026-08-20T07:19:52Z</time>
      </trkpt>
      <trkpt lat="59.11095142364502" lon="30.485472679138184">
        <time>2026-08-20T07:19:54Z</time>
      </trkpt>
      <trkpt lat="59.110972881317139" lon="30.485515594482422">
        <time>2026-08-20T07:19:57Z</time>
      </trkpt>
      <trkpt lat="59.11095142364502" lon="30.485537052154541">
        <time>2026-08-20T07:19:59Z</time>
      </trkpt>
      <trkpt lat="59.110972881317139" lon="30.48555850982666">
        <time>2026-08-20T07:20:02Z</time>
      </trkpt>
      <trkpt lat="59.110972881317139" lon="30.48555850982666">
        <time>2026-08-20T07:20:04Z</time>
      </trkpt>
      <trkpt lat="59.110972881317139" lon="30.485601425170898">
        <time>2026-08-20T07:20:07Z</time>
      </trkpt>
      <trkpt lat="59.110994338989258" lon="30.485644340515137">
        <time>2026-08-20T07:20:09Z</time>
      </trkpt>
      <trkpt lat="59.110994338989258" lon="30.485687255859375">
        <time>2026-08-20T07:20:12Z</time>
      </trkpt>
      <trkpt lat="59.111015796661377" lon="30.485751628875732">
        <time>2026-08-20T07:20:14Z</time>
      </trkpt>
      <trkpt lat="59.111015796661377" lon="30.485751628875732">
        <time>2026-08-20T07:20:17Z</time>
      </trkpt>
      <trkpt lat="59.111015796661377" lon="30.485751628875732">
        <time>2026-08-20T07:20:19Z</time>
      </trkpt>
      <trkpt lat="59.111015796661377" lon="30.485751628875732">
        <time>2026-08-20T07:20:22Z</time>
      </trkpt>
      <trkpt lat="59.111015796661377" lon="30.485751628875732">
        <time>2026-08-20T07:20:24Z</time>
      </trkpt>
      <trkpt lat="59.111015796661377" lon="30.485751628875732">
        <time>2026-08-20T07:20:27Z</time>
      </trkpt>
      <trkpt lat="59.110994338989258" lon="30.485773086547852">
        <time>2026-08-20T07:20:29Z</time>
      </trkpt>
      <trkpt lat="59.110994338989258" lon="30.485773086547852">
        <time>2026-08-20T07:20:32Z</time>
      </trkpt>
      <trkpt lat="59.110972881317139" lon="30.485751628875732">
        <time>2026-08-20T07:20:34Z</time>
      </trkpt>
      <trkpt lat="59.110972881317139" lon="30.485730171203613">
        <time>2026-08-20T07:20:37Z</time>
      </trkpt>
      <trkpt lat="59.110972881317139" lon="30.485730171203613">
        <time>2026-08-20T07:20:39Z</time>
      </trkpt>
      <trkpt lat="59.110972881317139" lon="30.485730171203613">
        <time>2026-08-20T07:20:42Z</time>
      </trkpt>
      <trkpt lat="59.110972881317139" lon="30.485708713531494">
        <time>2026-08-20T07:20:44Z</time>
      </trkpt>
      <trkpt lat="59.110972881317139" lon="30.485708713531494">
        <time>2026-08-20T07:20:47Z</time>
      </trkpt>
      <trkpt lat="59.110972881317139" lon="30.485708713531494">
        <time>2026-08-20T07:20:49Z</time>
      </trkpt>
      <trkpt lat="59.110972881317139" lon="30.485708713531494">
        <time>2026-08-20T07:20:52Z</time>
      </trkpt>
      <trkpt lat="59.110972881317139" lon="30.485708713531494">
        <time>2026-08-20T07:20:54Z</time>
      </trkpt>
      <trkpt lat="59.110972881317139" lon="30.485708713531494">
        <time>2026-08-20T07:20:57Z</time>
      </trkpt>
      <trkpt lat="59.110972881317139" lon="30.485708713531494">
        <time>2026-08-20T07:20:59Z</time>
      </trkpt>
      <trkpt lat="59.110972881317139" lon="30.485708713531494">
        <time>2026-08-20T07:21:02Z</time>
      </trkpt>
      <trkpt lat="59.1109299659729" lon="30.485730171203613">
        <time>2026-08-20T07:21:04Z</time>
      </trkpt>
      <trkpt lat="59.110908508300781" lon="30.485708713531494">
        <time>2026-08-20T07:21:07Z</time>
      </trkpt>
      <trkpt lat="59.110887050628662" lon="30.485751628875732">
        <time>2026-08-20T07:21:09Z</time>
      </trkpt>
      <trkpt lat="59.110887050628662" lon="30.485730171203613">
        <time>2026-08-20T07:21:12Z</time>
      </trkpt>
      <trkpt lat="59.110887050628662" lon="30.485730171203613">
        <time>2026-08-20T07:21:14Z</time>
      </trkpt>
      <trkpt lat="59.110887050628662" lon="30.485730171203613">
        <time>2026-08-20T07:21:17Z</time>
      </trkpt>
      <trkpt lat="59.110887050628662" lon="30.485730171203613">
        <time>2026-08-20T07:21:19Z</time>
      </trkpt>
      <trkpt lat="59.110865592956543" lon="30.485730171203613">
        <time>2026-08-20T07:21:22Z</time>
      </trkpt>
      <trkpt lat="59.110865592956543" lon="30.485730171203613">
        <time>2026-08-20T07:21:24Z</time>
      </trkpt>
      <trkpt lat="59.110865592956543" lon="30.485751628875732">
        <time>2026-08-20T07:21:27Z</time>
      </trkpt>
      <trkpt lat="59.110865592956543" lon="30.485751628875732">
        <time>2026-08-20T07:21:29Z</time>
      </trkpt>
      <trkpt lat="59.110844135284424" lon="30.485794544219971">
        <time>2026-08-20T07:21:32Z</time>
      </trkpt>
      <trkpt lat="59.110822677612305" lon="30.485837459564209">
        <time>2026-08-20T07:21:34Z</time>
      </trkpt>
      <trkpt lat="59.110822677612305" lon="30.485901832580566">
        <time>2026-08-20T07:21:37Z</time>
      </trkpt>
      <trkpt lat="59.110822677612305" lon="30.485944747924805">
        <time>2026-08-20T07:21:39Z</time>
      </trkpt>
      <trkpt lat="59.110822677612305" lon="30.485944747924805">
        <time>2026-08-20T07:21:42Z</time>
      </trkpt>
      <trkpt lat="59.110822677612305" lon="30.485966205596924">
        <time>2026-08-20T07:21:44Z</time>
      </trkpt>
      <trkpt lat="59.110822677612305" lon="30.485966205596924">
        <time>2026-08-20T07:21:47Z</time>
      </trkpt>
      <trkpt lat="59.110822677612305" lon="30.486009120941162">
        <time>2026-08-20T07:21:49Z</time>
      </trkpt>
      <trkpt lat="59.110844135284424" lon="30.486030578613281">
        <time>2026-08-20T07:21:52Z</time>
      </trkpt>
      <trkpt lat="59.110844135284424" lon="30.48607349395752">
        <time>2026-08-20T07:21:54Z</time>
      </trkpt>
      <trkpt lat="59.110844135284424" lon="30.486116409301758">
        <time>2026-08-20T07:21:57Z</time>
      </trkpt>
      <trkpt lat="59.110801219940186" lon="30.486116409301758">
        <time>2026-08-20T07:21:59Z</time>
      </trkpt>
      <trkpt lat="59.110801219940186" lon="30.486094951629639">
        <time>2026-08-20T07:22:02Z</time>
      </trkpt>
      <trkpt lat="59.110801219940186" lon="30.486094951629639">
        <time>2026-08-20T07:22:04Z</time>
      </trkpt>
      <trkpt lat="59.110801219940186" lon="30.486094951629639">
        <time>2026-08-20T07:22:07Z</time>
      </trkpt>
      <trkpt lat="59.110758304595947" lon="30.486094951629639">
        <time>2026-08-20T07:22:09Z</time>
      </trkpt>
      <trkpt lat="59.110758304595947" lon="30.486094951629639">
        <time>2026-08-20T07:22:12Z</time>
      </trkpt>
      <trkpt lat="59.110715389251709" lon="30.486116409301758">
        <time>2026-08-20T07:22:14Z</time>
      </trkpt>
      <trkpt lat="59.110715389251709" lon="30.486116409301758">
        <time>2026-08-20T07:22:17Z</time>
      </trkpt>
      <trkpt lat="59.11069393157959" lon="30.486116409301758">
        <time>2026-08-20T07:22:19Z</time>
      </trkpt>
      <trkpt lat="59.110672473907471" lon="30.486094951629639">
        <time>2026-08-20T07:22:22Z</time>
      </trkpt>
      <trkpt lat="59.110651016235352" lon="30.486116409301758">
        <time>2026-08-20T07:22:24Z</time>
      </trkpt>
      <trkpt lat="59.110651016235352" lon="30.486116409301758">
        <time>2026-08-20T07:22:27Z</time>
      </trkpt>
      <trkpt lat="59.110629558563232" lon="30.486116409301758">
        <time>2026-08-20T07:22:29Z</time>
      </trkpt>
      <trkpt lat="59.110608100891113" lon="30.486137866973877">
        <time>2026-08-20T07:22:32Z</time>
      </trkpt>
      <trkpt lat="59.110608100891113" lon="30.486137866973877">
        <time>2026-08-20T07:22:34Z</time>
      </trkpt>
      <trkpt lat="59.110586643218994" lon="30.486159324645996">
        <time>2026-08-20T07:22:37Z</time>
      </trkpt>
      <trkpt lat="59.110586643218994" lon="30.486137866973877">
        <time>2026-08-20T07:22:39Z</time>
      </trkpt>
      <trkpt lat="59.110586643218994" lon="30.486137866973877">
        <time>2026-08-20T07:22:42Z</time>
      </trkpt>
      <trkpt lat="59.110565185546875" lon="30.486159324645996">
        <time>2026-08-20T07:22:44Z</time>
      </trkpt>
      <trkpt lat="59.110565185546875" lon="30.486180782318115">
        <time>2026-08-20T07:22:47Z</time>
      </trkpt>
      <trkpt lat="59.110565185546875" lon="30.486223697662354">
        <time>2026-08-20T07:22:49Z</time>
      </trkpt>
      <trkpt lat="59.110565185546875" lon="30.486266613006592">
        <time>2026-08-20T07:22:52Z</time>
      </trkpt>
      <trkpt lat="59.110522270202637" lon="30.48630952835083">
        <time>2026-08-20T07:22:54Z</time>
      </trkpt>
      <trkpt lat="59.110522270202637" lon="30.486330986022949">
        <time>2026-08-20T07:22:57Z</time>
      </trkpt>
      <trkpt lat="59.110522270202637" lon="30.486352443695068">
        <time>2026-08-20T07:22:59Z</time>
      </trkpt>
      <trkpt lat="59.110522270202637" lon="30.486352443695068">
        <time>2026-08-20T07:23:02Z</time>
      </trkpt>
      <trkpt lat="59.110522270202637" lon="30.486352443695068">
        <time>2026-08-20T07:23:04Z</time>
      </trkpt>
      <trkpt lat="59.110522270202637" lon="30.486395359039307">
        <time>2026-08-20T07:23:07Z</time>
      </trkpt>
      <trkpt lat="59.110543727874756" lon="30.486416816711426">
        <time>2026-08-20T07:23:09Z</time>
      </trkpt>
      <trkpt lat="59.110543727874756" lon="30.486438274383545">
        <time>2026-08-20T07:23:12Z</time>
      </trkpt>
      <trkpt lat="59.110565185546875" lon="30.486481189727783">
        <time>2026-08-20T07:23:14Z</time>
      </trkpt>
      <trkpt lat="59.110565185546875" lon="30.486481189727783">
        <time>2026-08-20T07:23:17Z</time>
      </trkpt>
      <trkpt lat="59.110586643218994" lon="30.486459732055664">
        <time>2026-08-20T07:23:19Z</time>
      </trkpt>
      <trkpt lat="59.110608100891113" lon="30.486416816711426">
        <time>2026-08-20T07:23:22Z</time>
      </trkpt>
      <trkpt lat="59.110586643218994" lon="30.486459732055664">
        <time>2026-08-20T07:23:24Z</time>
      </trkpt>
      <trkpt lat="59.110586643218994" lon="30.486459732055664">
        <time>2026-08-20T07:23:27Z</time>
      </trkpt>
      <trkpt lat="59.110586643218994" lon="30.486459732055664">
        <time>2026-08-20T07:23:29Z</time>
      </trkpt>
      <trkpt lat="59.110586643218994" lon="30.486459732055664">
        <time>2026-08-20T07:23:32Z</time>
      </trkpt>
      <trkpt lat="59.110586643218994" lon="30.486459732055664">
        <time>2026-08-20T07:23:34Z</time>
      </trkpt>
      <trkpt lat="59.110586643218994" lon="30.486459732055664">
        <time>2026-08-20T07:23:37Z</time>
      </trkpt>
      <trkpt lat="59.110586643218994" lon="30.486459732055664">
        <time>2026-08-20T07:23:39Z</time>
      </trkpt>
      <trkpt lat="59.110586643218994" lon="30.486459732055664">
        <time>2026-08-20T07:23:42Z</time>
      </trkpt>
      <trkpt lat="59.110586643218994" lon="30.486459732055664">
        <time>2026-08-20T07:23:44Z</time>
      </trkpt>
      <trkpt lat="59.110586643218994" lon="30.486459732055664">
        <time>2026-08-20T07:23:47Z</time>
      </trkpt>
      <trkpt lat="59.110586643218994" lon="30.486459732055664">
        <time>2026-08-20T07:23:49Z</time>
      </trkpt>
      <trkpt lat="59.110586643218994" lon="30.486459732055664">
        <time>2026-08-20T07:23:52Z</time>
      </trkpt>
      <trkpt lat="59.110586643218994" lon="30.486459732055664">
        <time>2026-08-20T07:23:54Z</time>
      </trkpt>
      <trkpt lat="59.110586643218994" lon="30.486459732055664">
        <time>2026-08-20T07:23:57Z</time>
      </trkpt>
      <trkpt lat="59.110586643218994" lon="30.486459732055664">
        <time>2026-08-20T07:23:59Z</time>
      </trkpt>
      <trkpt lat="59.110586643218994" lon="30.486459732055664">
        <time>2026-08-20T07:24:02Z</time>
      </trkpt>
      <trkpt lat="59.110586643218994" lon="30.486459732055664">
        <time>2026-08-20T07:24:04Z</time>
      </trkpt>
      <trkpt lat="59.110586643218994" lon="30.486459732055664">
        <time>2026-08-20T07:24:07Z</time>
      </trkpt>
      <trkpt lat="59.110586643218994" lon="30.486481189727783">
        <time>2026-08-20T07:24:09Z</time>
      </trkpt>
      <trkpt lat="59.110586643218994" lon="30.486481189727783">
        <time>2026-08-20T07:24:12Z</time>
      </trkpt>
      <trkpt lat="59.110586643218994" lon="30.486481189727783">
        <time>2026-08-20T07:24:14Z</time>
      </trkpt>
      <trkpt lat="59.110586643218994" lon="30.486481189727783">
        <time>2026-08-20T07:24:17Z</time>
      </trkpt>
      <trkpt lat="59.110586643218994" lon="30.486438274383545">
        <time>2026-08-20T07:24:19Z</time>
      </trkpt>
      <trkpt lat="59.110586643218994" lon="30.486416816711426">
        <time>2026-08-20T07:24:22Z</time>
      </trkpt>
      <trkpt lat="59.110608100891113" lon="30.486395359039307">
        <time>2026-08-20T07:24:24Z</time>
      </trkpt>
      <trkpt lat="59.110608100891113" lon="30.486395359039307">
        <time>2026-08-20T07:24:27Z</time>
      </trkpt>
      <trkpt lat="59.110608100891113" lon="30.486395359039307">
        <time>2026-08-20T07:24:29Z</time>
      </trkpt>
      <trkpt lat="59.110608100891113" lon="30.486416816711426">
        <time>2026-08-20T07:24:32Z</time>
      </trkpt>
      <trkpt lat="59.110608100891113" lon="30.486438274383545">
        <time>2026-08-20T07:24:34Z</time>
      </trkpt>
      <trkpt lat="59.110629558563232" lon="30.486481189727783">
        <time>2026-08-20T07:24:37Z</time>
      </trkpt>
      <trkpt lat="59.110629558563232" lon="30.486502647399902">
        <time>2026-08-20T07:24:39Z</time>
      </trkpt>
      <trkpt lat="59.110629558563232" lon="30.486502647399902">
        <time>2026-08-20T07:24:42Z</time>
      </trkpt>
      <trkpt lat="59.110629558563232" lon="30.486524105072021">
        <time>2026-08-20T07:24:44Z</time>
      </trkpt>
      <trkpt lat="59.110608100891113" lon="30.486545562744141">
        <time>2026-08-20T07:24:47Z</time>
      </trkpt>
      <trkpt lat="59.110629558563232" lon="30.486545562744141">
        <time>2026-08-20T07:24:49Z</time>
      </trkpt>
      <trkpt lat="59.110629558563232" lon="30.48656702041626">
        <time>2026-08-20T07:24:52Z</time>
      </trkpt>
      <trkpt lat="59.110629558563232" lon="30.486652851104736">
        <time>2026-08-20T07:24:54Z</time>
      </trkpt>
      <trkpt lat="59.110629558563232" lon="30.486674308776855">
        <time>2026-08-20T07:24:57Z</time>
      </trkpt>
      <trkpt lat="59.110651016235352" lon="30.486652851104736">
        <time>2026-08-20T07:24:59Z</time>
      </trkpt>
      <trkpt lat="59.110651016235352" lon="30.486695766448975">
        <time>2026-08-20T07:25:02Z</time>
      </trkpt>
      <trkpt lat="59.110651016235352" lon="30.486717224121094">
        <time>2026-08-20T07:25:04Z</time>
      </trkpt>
      <trkpt lat="59.110651016235352" lon="30.486717224121094">
        <time>2026-08-20T07:25:07Z</time>
      </trkpt>
      <trkpt lat="59.11069393157959" lon="30.486695766448975">
        <time>2026-08-20T07:25:09Z</time>
      </trkpt>
      <trkpt lat="59.110715389251709" lon="30.486695766448975">
        <time>2026-08-20T07:25:12Z</time>
      </trkpt>
      <trkpt lat="59.110736846923828" lon="30.486695766448975">
        <time>2026-08-20T07:25:14Z</time>
      </trkpt>
      <trkpt lat="59.110736846923828" lon="30.486717224121094">
        <time>2026-08-20T07:25:17Z</time>
      </trkpt>
      <trkpt lat="59.110736846923828" lon="30.486695766448975">
        <time>2026-08-20T07:25:19Z</time>
      </trkpt>
      <trkpt lat="59.110736846923828" lon="30.486695766448975">
        <time>2026-08-20T07:25:22Z</time>
      </trkpt>
      <trkpt lat="59.110758304595947" lon="30.486717224121094">
        <time>2026-08-20T07:25:24Z</time>
      </trkpt>
      <trkpt lat="59.110758304595947" lon="30.486717224121094">
        <time>2026-08-20T07:25:27Z</time>
      </trkpt>
      <trkpt lat="59.110779762268066" lon="30.486695766448975">
        <time>2026-08-20T07:25:29Z</time>
      </trkpt>
      <trkpt lat="59.110779762268066" lon="30.486695766448975">
        <time>2026-08-20T07:25:32Z</time>
      </trkpt>
      <trkpt lat="59.110801219940186" lon="30.486695766448975">
        <time>2026-08-20T07:25:34Z</time>
      </trkpt>
      <trkpt lat="59.110822677612305" lon="30.486717224121094">
        <time>2026-08-20T07:25:37Z</time>
      </trkpt>
      <trkpt lat="59.110865592956543" lon="30.486717224121094">
        <time>2026-08-20T07:25:39Z</time>
      </trkpt>
      <trkpt lat="59.110865592956543" lon="30.486717224121094">
        <time>2026-08-20T07:25:42Z</time>
      </trkpt>
      <trkpt lat="59.110887050628662" lon="30.486738681793213">
        <time>2026-08-20T07:25:44Z</time>
      </trkpt>
      <trkpt lat="59.110887050628662" lon="30.486781597137451">
        <time>2026-08-20T07:25:47Z</time>
      </trkpt>
      <trkpt lat="59.110887050628662" lon="30.48680305480957">
        <time>2026-08-20T07:25:49Z</time>
      </trkpt>
      <trkpt lat="59.110887050628662" lon="30.486824512481689">
        <time>2026-08-20T07:25:52Z</time>
      </trkpt>
      <trkpt lat="59.110887050628662" lon="30.486824512481689">
        <time>2026-08-20T07:25:54Z</time>
      </trkpt>
      <trkpt lat="59.110887050628662" lon="30.486824512481689">
        <time>2026-08-20T07:25:57Z</time>
      </trkpt>
      <trkpt lat="59.110887050628662" lon="30.486824512481689">
        <time>2026-08-20T07:25:59Z</time>
      </trkpt>
      <trkpt lat="59.110887050628662" lon="30.486824512481689">
        <time>2026-08-20T07:26:02Z</time>
      </trkpt>
      <trkpt lat="59.110908508300781" lon="30.486867427825928">
        <time>2026-08-20T07:26:04Z</time>
      </trkpt>
      <trkpt lat="59.1109299659729" lon="30.486888885498047">
        <time>2026-08-20T07:26:07Z</time>
      </trkpt>
      <trkpt lat="59.1109299659729" lon="30.486953258514404">
        <time>2026-08-20T07:26:09Z</time>
      </trkpt>
      <trkpt lat="59.1109299659729" lon="30.486974716186523">
        <time>2026-08-20T07:26:12Z</time>
      </trkpt>
      <trkpt lat="59.11095142364502" lon="30.487039089202881">
        <time>2026-08-20T07:26:14Z</time>
      </trkpt>
      <trkpt lat="59.11095142364502" lon="30.487082004547119">
        <time>2026-08-20T07:26:17Z</time>
      </trkpt>
      <trkpt lat="59.110972881317139" lon="30.487146377563477">
        <time>2026-08-20T07:26:19Z</time>
      </trkpt>
      <trkpt lat="59.110994338989258" lon="30.487167835235596">
        <time>2026-08-20T07:26:22Z</time>
      </trkpt>
      <trkpt lat="59.110972881317139" lon="30.487189292907715">
        <time>2026-08-20T07:26:24Z</time>
      </trkpt>
      <trkpt lat="59.11095142364502" lon="30.487232208251953">
        <time>2026-08-20T07:26:27Z</time>
      </trkpt>
      <trkpt lat="59.1109299659729" lon="30.487253665924072">
        <time>2026-08-20T07:26:29Z</time>
      </trkpt>
      <trkpt lat="59.110908508300781" lon="30.487253665924072">
        <time>2026-08-20T07:26:32Z</time>
      </trkpt>
      <trkpt lat="59.1109299659729" lon="30.487296581268311">
        <time>2026-08-20T07:26:34Z</time>
      </trkpt>
      <trkpt lat="59.1109299659729" lon="30.487339496612549">
        <time>2026-08-20T07:26:37Z</time>
      </trkpt>
      <trkpt lat="59.1109299659729" lon="30.487339496612549">
        <time>2026-08-20T07:26:39Z</time>
      </trkpt>
      <trkpt lat="59.1109299659729" lon="30.487382411956787">
        <time>2026-08-20T07:26:42Z</time>
      </trkpt>
      <trkpt lat="59.1109299659729" lon="30.487382411956787">
        <time>2026-08-20T07:26:44Z</time>
      </trkpt>
      <trkpt lat="59.1109299659729" lon="30.487403869628906">
        <time>2026-08-20T07:26:47Z</time>
      </trkpt>
      <trkpt lat="59.1109299659729" lon="30.487446784973145">
        <time>2026-08-20T07:26:49Z</time>
      </trkpt>
      <trkpt lat="59.1109299659729" lon="30.487468242645264">
        <time>2026-08-20T07:26:52Z</time>
      </trkpt>
      <trkpt lat="59.1109299659729" lon="30.487468242645264">
        <time>2026-08-20T07:26:54Z</time>
      </trkpt>
      <trkpt lat="59.1109299659729" lon="30.487468242645264">
        <time>2026-08-20T07:26:57Z</time>
      </trkpt>
      <trkpt lat="59.1109299659729" lon="30.487468242645264">
        <time>2026-08-20T07:26:59Z</time>
      </trkpt>
      <trkpt lat="59.1109299659729" lon="30.487468242645264">
        <time>2026-08-20T07:27:02Z</time>
      </trkpt>
      <trkpt lat="59.1109299659729" lon="30.487468242645264">
        <time>2026-08-20T07:27:04Z</time>
      </trkpt>
      <trkpt lat="59.1109299659729" lon="30.487468242645264">
        <time>2026-08-20T07:27:07Z</time>
      </trkpt>
      <trkpt lat="59.1109299659729" lon="30.487468242645264">
        <time>2026-08-20T07:27:09Z</time>
      </trkpt>
      <trkpt lat="59.1109299659729" lon="30.487489700317383">
        <time>2026-08-20T07:27:12Z</time>
      </trkpt>
      <trkpt lat="59.110908508300781" lon="30.48755407333374">
        <time>2026-08-20T07:27:14Z</time>
      </trkpt>
      <trkpt lat="59.110908508300781" lon="30.48755407333374">
        <time>2026-08-20T07:27:17Z</time>
      </trkpt>
      <trkpt lat="59.110908508300781" lon="30.48755407333374">
        <time>2026-08-20T07:27:19Z</time>
      </trkpt>
      <trkpt lat="59.110908508300781" lon="30.487575531005859">
        <time>2026-08-20T07:27:22Z</time>
      </trkpt>
      <trkpt lat="59.110887050628662" lon="30.487618446350098">
        <time>2026-08-20T07:27:24Z</time>
      </trkpt>
      <trkpt lat="59.110887050628662" lon="30.487639904022217">
        <time>2026-08-20T07:27:27Z</time>
      </trkpt>
      <trkpt lat="59.110865592956543" lon="30.487661361694336">
        <time>2026-08-20T07:27:29Z</time>
      </trkpt>
      <trkpt lat="59.110865592956543" lon="30.487618446350098">
        <time>2026-08-20T07:27:32Z</time>
      </trkpt>
      <trkpt lat="59.110844135284424" lon="30.487618446350098">
        <time>2026-08-20T07:27:34Z</time>
      </trkpt>
      <trkpt lat="59.110844135284424" lon="30.487618446350098">
        <time>2026-08-20T07:27:37Z</time>
      </trkpt>
      <trkpt lat="59.110844135284424" lon="30.487618446350098">
        <time>2026-08-20T07:27:39Z</time>
      </trkpt>
      <trkpt lat="59.110822677612305" lon="30.487575531005859">
        <time>2026-08-20T07:27:42Z</time>
      </trkpt>
      <trkpt lat="59.110801219940186" lon="30.48755407333374">
        <time>2026-08-20T07:27:44Z</time>
      </trkpt>
      <trkpt lat="59.110801219940186" lon="30.48755407333374">
        <time>2026-08-20T07:27:47Z</time>
      </trkpt>
      <trkpt lat="59.110801219940186" lon="30.48755407333374">
        <time>2026-08-20T07:27:49Z</time>
      </trkpt>
      <trkpt lat="59.110801219940186" lon="30.48755407333374">
        <time>2026-08-20T07:27:52Z</time>
      </trkpt>
      <trkpt lat="59.110758304595947" lon="30.48755407333374">
        <time>2026-08-20T07:27:54Z</time>
      </trkpt>
      <trkpt lat="59.110736846923828" lon="30.487511157989502">
        <time>2026-08-20T07:27:57Z</time>
      </trkpt>
      <trkpt lat="59.11069393157959" lon="30.487446784973145">
        <time>2026-08-20T07:27:59Z</time>
      </trkpt>
      <trkpt lat="59.11069393157959" lon="30.487425327301025">
        <time>2026-08-20T07:28:02Z</time>
      </trkpt>
      <trkpt lat="59.110758304595947" lon="30.487425327301025">
        <time>2026-08-20T07:28:04Z</time>
      </trkpt>
      <trkpt lat="59.110801219940186" lon="30.487403869628906">
        <time>2026-08-20T07:28:07Z</time>
      </trkpt>
      <trkpt lat="59.110822677612305" lon="30.487446784973145">
        <time>2026-08-20T07:28:09Z</time>
      </trkpt>
      <trkpt lat="59.110844135284424" lon="30.487468242645264">
        <time>2026-08-20T07:28:12Z</time>
      </trkpt>
      <trkpt lat="59.110865592956543" lon="30.487511157989502">
        <time>2026-08-20T07:28:14Z</time>
      </trkpt>
      <trkpt lat="59.110865592956543" lon="30.487532615661621">
        <time>2026-08-20T07:28:17Z</time>
      </trkpt>
      <trkpt lat="59.110865592956543" lon="30.48755407333374">
        <time>2026-08-20T07:28:19Z</time>
      </trkpt>
      <trkpt lat="59.110865592956543" lon="30.48755407333374">
        <time>2026-08-20T07:28:22Z</time>
      </trkpt>
      <trkpt lat="59.110865592956543" lon="30.48755407333374">
        <time>2026-08-20T07:28:24Z</time>
      </trkpt>
      <trkpt lat="59.110865592956543" lon="30.487575531005859">
        <time>2026-08-20T07:28:27Z</time>
      </trkpt>
      <trkpt lat="59.110887050628662" lon="30.487596988677979">
        <time>2026-08-20T07:28:29Z</time>
      </trkpt>
      <trkpt lat="59.110887050628662" lon="30.487618446350098">
        <time>2026-08-20T07:28:32Z</time>
      </trkpt>
      <trkpt lat="59.110887050628662" lon="30.487639904022217">
        <time>2026-08-20T07:28:34Z</time>
      </trkpt>
      <trkpt lat="59.110887050628662" lon="30.487639904022217">
        <time>2026-08-20T07:28:37Z</time>
      </trkpt>
      <trkpt lat="59.110887050628662" lon="30.487704277038574">
        <time>2026-08-20T07:28:39Z</time>
      </trkpt>
      <trkpt lat="59.110887050628662" lon="30.487704277038574">
        <time>2026-08-20T07:28:42Z</time>
      </trkpt>
      <trkpt lat="59.110887050628662" lon="30.487768650054932">
        <time>2026-08-20T07:28:44Z</time>
      </trkpt>
      <trkpt lat="59.110865592956543" lon="30.487768650054932">
        <time>2026-08-20T07:28:47Z</time>
      </trkpt>
      <trkpt lat="59.110865592956543" lon="30.487790107727051">
        <time>2026-08-20T07:28:49Z</time>
      </trkpt>
      <trkpt lat="59.110865592956543" lon="30.487790107727051">
        <time>2026-08-20T07:28:52Z</time>
      </trkpt>
      <trkpt lat="59.110865592956543" lon="30.48781156539917">
        <time>2026-08-20T07:28:54Z</time>
      </trkpt>
      <trkpt lat="59.110887050628662" lon="30.487854480743408">
        <time>2026-08-20T07:28:57Z</time>
      </trkpt>
      <trkpt lat="59.110887050628662" lon="30.487854480743408">
        <time>2026-08-20T07:28:59Z</time>
      </trkpt>
      <trkpt lat="59.110865592956543" lon="30.487897396087646">
        <time>2026-08-20T07:29:02Z</time>
      </trkpt>
      <trkpt lat="59.110865592956543" lon="30.487918853759766">
        <time>2026-08-20T07:29:04Z</time>
      </trkpt>
      <trkpt lat="59.110844135284424" lon="30.487940311431885">
        <time>2026-08-20T07:29:07Z</time>
      </trkpt>
      <trkpt lat="59.110801219940186" lon="30.487961769104004">
        <time>2026-08-20T07:29:09Z</time>
      </trkpt>
      <trkpt lat="59.110801219940186" lon="30.487983226776123">
        <time>2026-08-20T07:29:12Z</time>
      </trkpt>
      <trkpt lat="59.110801219940186" lon="30.487983226776123">
        <time>2026-08-20T07:29:14Z</time>
      </trkpt>
      <trkpt lat="59.110801219940186" lon="30.487983226776123">
        <time>2026-08-20T07:29:17Z</time>
      </trkpt>
      <trkpt lat="59.110801219940186" lon="30.487983226776123">
        <time>2026-08-20T07:29:19Z</time>
      </trkpt>
      <trkpt lat="59.110779762268066" lon="30.488004684448242">
        <time>2026-08-20T07:29:22Z</time>
      </trkpt>
      <trkpt lat="59.110779762268066" lon="30.488026142120361">
        <time>2026-08-20T07:29:24Z</time>
      </trkpt>
      <trkpt lat="59.110758304595947" lon="30.48804759979248">
        <time>2026-08-20T07:29:27Z</time>
      </trkpt>
      <trkpt lat="59.110715389251709" lon="30.48804759979248">
        <time>2026-08-20T07:29:29Z</time>
      </trkpt>
      <trkpt lat="59.110715389251709" lon="30.48804759979248">
        <time>2026-08-20T07:29:32Z</time>
      </trkpt>
      <trkpt lat="59.110715389251709" lon="30.48804759979248">
        <time>2026-08-20T07:29:34Z</time>
      </trkpt>
      <trkpt lat="59.110715389251709" lon="30.48804759979248">
        <time>2026-08-20T07:29:37Z</time>
      </trkpt>
      <trkpt lat="59.110715389251709" lon="30.48804759979248">
        <time>2026-08-20T07:29:39Z</time>
      </trkpt>
      <trkpt lat="59.110715389251709" lon="30.48804759979248">
        <time>2026-08-20T07:29:42Z</time>
      </trkpt>
      <trkpt lat="59.110715389251709" lon="30.48804759979248">
        <time>2026-08-20T07:29:44Z</time>
      </trkpt>
      <trkpt lat="59.110715389251709" lon="30.48804759979248">
        <time>2026-08-20T07:29:47Z</time>
      </trkpt>
      <trkpt lat="59.110736846923828" lon="30.4880690574646">
        <time>2026-08-20T07:29:49Z</time>
      </trkpt>
      <trkpt lat="59.110779762268066" lon="30.48804759979248">
        <time>2026-08-20T07:29:52Z</time>
      </trkpt>
      <trkpt lat="59.110801219940186" lon="30.4880690574646">
        <time>2026-08-20T07:29:54Z</time>
      </trkpt>
      <trkpt lat="59.110779762268066" lon="30.4880690574646">
        <time>2026-08-20T07:29:57Z</time>
      </trkpt>
      <trkpt lat="59.110779762268066" lon="30.488111972808838">
        <time>2026-08-20T07:29:59Z</time>
      </trkpt>
      <trkpt lat="59.110779762268066" lon="30.488133430480957">
        <time>2026-08-20T07:30:02Z</time>
      </trkpt>
      <trkpt lat="59.110779762268066" lon="30.488176345825195">
        <time>2026-08-20T07:30:04Z</time>
      </trkpt>
      <trkpt lat="59.110779762268066" lon="30.488197803497314">
        <time>2026-08-20T07:30:07Z</time>
      </trkpt>
      <trkpt lat="59.110758304595947" lon="30.488219261169434">
        <time>2026-08-20T07:30:09Z</time>
      </trkpt>
      <trkpt lat="59.110758304595947" lon="30.488197803497314">
        <time>2026-08-20T07:30:12Z</time>
      </trkpt>
      <trkpt lat="59.110736846923828" lon="30.488176345825195">
        <time>2026-08-20T07:30:14Z</time>
      </trkpt>
      <trkpt lat="59.110715389251709" lon="30.488154888153076">
        <time>2026-08-20T07:30:17Z</time>
      </trkpt>
      <trkpt lat="59.110715389251709" lon="30.488133430480957">
        <time>2026-08-20T07:30:19Z</time>
      </trkpt>
      <trkpt lat="59.110715389251709" lon="30.488133430480957">
        <time>2026-08-20T07:30:22Z</time>
      </trkpt>
      <trkpt lat="59.110715389251709" lon="30.488133430480957">
        <time>2026-08-20T07:30:24Z</time>
      </trkpt>
      <trkpt lat="59.110715389251709" lon="30.488133430480957">
        <time>2026-08-20T07:30:27Z</time>
      </trkpt>
      <trkpt lat="59.110715389251709" lon="30.488133430480957">
        <time>2026-08-20T07:30:29Z</time>
      </trkpt>
      <trkpt lat="59.110672473907471" lon="30.488154888153076">
        <time>2026-08-20T07:30:32Z</time>
      </trkpt>
      <trkpt lat="59.110672473907471" lon="30.488133430480957">
        <time>2026-08-20T07:30:34Z</time>
      </trkpt>
      <trkpt lat="59.110651016235352" lon="30.488111972808838">
        <time>2026-08-20T07:30:37Z</time>
      </trkpt>
      <trkpt lat="59.110651016235352" lon="30.4880690574646">
        <time>2026-08-20T07:30:39Z</time>
      </trkpt>
      <trkpt lat="59.110651016235352" lon="30.488004684448242">
        <time>2026-08-20T07:30:42Z</time>
      </trkpt>
      <trkpt lat="59.110651016235352" lon="30.488004684448242">
        <time>2026-08-20T07:30:44Z</time>
      </trkpt>
      <trkpt lat="59.11069393157959" lon="30.488004684448242">
        <time>2026-08-20T07:30:47Z</time>
      </trkpt>
      <trkpt lat="59.110736846923828" lon="30.488090515136719">
        <time>2026-08-20T07:30:49Z</time>
      </trkpt>
      <trkpt lat="59.110736846923828" lon="30.488111972808838">
        <time>2026-08-20T07:30:52Z</time>
      </trkpt>
      <trkpt lat="59.110736846923828" lon="30.488111972808838">
        <time>2026-08-20T07:30:54Z</time>
      </trkpt>
      <trkpt lat="59.110758304595947" lon="30.488154888153076">
        <time>2026-08-20T07:30:57Z</time>
      </trkpt>
      <trkpt lat="59.110801219940186" lon="30.488154888153076">
        <time>2026-08-20T07:30:59Z</time>
      </trkpt>
      <trkpt lat="59.110801219940186" lon="30.488154888153076">
        <time>2026-08-20T07:31:02Z</time>
      </trkpt>
      <trkpt lat="59.110801219940186" lon="30.488154888153076">
        <time>2026-08-20T07:31:04Z</time>
      </trkpt>
      <trkpt lat="59.110822677612305" lon="30.488176345825195">
        <time>2026-08-20T07:31:07Z</time>
      </trkpt>
      <trkpt lat="59.110844135284424" lon="30.488219261169434">
        <time>2026-08-20T07:31:09Z</time>
      </trkpt>
      <trkpt lat="59.110844135284424" lon="30.488219261169434">
        <time>2026-08-20T07:31:12Z</time>
      </trkpt>
      <trkpt lat="59.110844135284424" lon="30.488219261169434">
        <time>2026-08-20T07:31:14Z</time>
      </trkpt>
      <trkpt lat="59.110844135284424" lon="30.488219261169434">
        <time>2026-08-20T07:31:17Z</time>
      </trkpt>
      <trkpt lat="59.110844135284424" lon="30.488219261169434">
        <time>2026-08-20T07:31:19Z</time>
      </trkpt>
      <trkpt lat="59.110844135284424" lon="30.488219261169434">
        <time>2026-08-20T07:31:22Z</time>
      </trkpt>
      <trkpt lat="59.110844135284424" lon="30.488219261169434">
        <time>2026-08-20T07:31:24Z</time>
      </trkpt>
      <trkpt lat="59.110865592956543" lon="30.488262176513672">
        <time>2026-08-20T07:31:27Z</time>
      </trkpt>
      <trkpt lat="59.110887050628662" lon="30.488262176513672">
        <time>2026-08-20T07:31:29Z</time>
      </trkpt>
      <trkpt lat="59.110887050628662" lon="30.488262176513672">
        <time>2026-08-20T07:31:32Z</time>
      </trkpt>
      <trkpt lat="59.110887050628662" lon="30.488262176513672">
        <time>2026-08-20T07:31:34Z</time>
      </trkpt>
      <trkpt lat="59.110887050628662" lon="30.488262176513672">
        <time>2026-08-20T07:31:37Z</time>
      </trkpt>
      <trkpt lat="59.110887050628662" lon="30.488262176513672">
        <time>2026-08-20T07:31:39Z</time>
      </trkpt>
      <trkpt lat="59.110887050628662" lon="30.488262176513672">
        <time>2026-08-20T07:31:42Z</time>
      </trkpt>
      <trkpt lat="59.110865592956543" lon="30.48830509185791">
        <time>2026-08-20T07:31:44Z</time>
      </trkpt>
      <trkpt lat="59.110865592956543" lon="30.488326549530029">
        <time>2026-08-20T07:31:47Z</time>
      </trkpt>
      <trkpt lat="59.110844135284424" lon="30.488369464874268">
        <time>2026-08-20T07:31:49Z</time>
      </trkpt>
      <trkpt lat="59.110822677612305" lon="30.488390922546387">
        <time>2026-08-20T07:31:52Z</time>
      </trkpt>
      <trkpt lat="59.110822677612305" lon="30.488412380218506">
        <time>2026-08-20T07:31:54Z</time>
      </trkpt>
      <trkpt lat="59.110801219940186" lon="30.488433837890625">
        <time>2026-08-20T07:31:57Z</time>
      </trkpt>
      <trkpt lat="59.110801219940186" lon="30.488455295562744">
        <time>2026-08-20T07:31:59Z</time>
      </trkpt>
      <trkpt lat="59.110801219940186" lon="30.488455295562744">
        <time>2026-08-20T07:32:02Z</time>
      </trkpt>
      <trkpt lat="59.110801219940186" lon="30.488455295562744">
        <time>2026-08-20T07:32:04Z</time>
      </trkpt>
      <trkpt lat="59.110801219940186" lon="30.488455295562744">
        <time>2026-08-20T07:32:07Z</time>
      </trkpt>
      <trkpt lat="59.110844135284424" lon="30.488476753234863">
        <time>2026-08-20T07:32:09Z</time>
      </trkpt>
      <trkpt lat="59.110865592956543" lon="30.488541126251221">
        <time>2026-08-20T07:32:12Z</time>
      </trkpt>
      <trkpt lat="59.110908508300781" lon="30.488626956939697">
        <time>2026-08-20T07:32:14Z</time>
      </trkpt>
      <trkpt lat="59.1109299659729" lon="30.488691329956055">
        <time>2026-08-20T07:32:17Z</time>
      </trkpt>
      <trkpt lat="59.11095142364502" lon="30.488777160644531">
        <time>2026-08-20T07:32:19Z</time>
      </trkpt>
      <trkpt lat="59.11095142364502" lon="30.488841533660889">
        <time>2026-08-20T07:32:22Z</time>
      </trkpt>
      <trkpt lat="59.11095142364502" lon="30.488862991333008">
        <time>2026-08-20T07:32:24Z</time>
      </trkpt>
      <trkpt lat="59.11095142364502" lon="30.488905906677246">
        <time>2026-08-20T07:32:27Z</time>
      </trkpt>
      <trkpt lat="59.11095142364502" lon="30.488948822021484">
        <time>2026-08-20T07:32:29Z</time>
      </trkpt>
      <trkpt lat="59.11095142364502" lon="30.488948822021484">
        <time>2026-08-20T07:32:32Z</time>
      </trkpt>
      <trkpt lat="59.1109299659729" lon="30.489034652709961">
        <time>2026-08-20T07:32:34Z</time>
      </trkpt>
      <trkpt lat="59.1109299659729" lon="30.48905611038208">
        <time>2026-08-20T07:32:37Z</time>
      </trkpt>
      <trkpt lat="59.1109299659729" lon="30.48905611038208">
        <time>2026-08-20T07:32:39Z</time>
      </trkpt>
      <trkpt lat="59.1109299659729" lon="30.48905611038208">
        <time>2026-08-20T07:32:42Z</time>
      </trkpt>
      <trkpt lat="59.1109299659729" lon="30.48905611038208">
        <time>2026-08-20T07:32:44Z</time>
      </trkpt>
      <trkpt lat="59.1109299659729" lon="30.48905611038208">
        <time>2026-08-20T07:32:47Z</time>
      </trkpt>
      <trkpt lat="59.1109299659729" lon="30.48905611038208">
        <time>2026-08-20T07:32:49Z</time>
      </trkpt>
      <trkpt lat="59.1109299659729" lon="30.489099025726318">
        <time>2026-08-20T07:32:52Z</time>
      </trkpt>
      <trkpt lat="59.110908508300781" lon="30.489120483398437">
        <time>2026-08-20T07:32:54Z</time>
      </trkpt>
      <trkpt lat="59.110908508300781" lon="30.489120483398437">
        <time>2026-08-20T07:32:57Z</time>
      </trkpt>
      <trkpt lat="59.110908508300781" lon="30.489120483398437">
        <time>2026-08-20T07:32:59Z</time>
      </trkpt>
      <trkpt lat="59.110908508300781" lon="30.489141941070557">
        <time>2026-08-20T07:33:02Z</time>
      </trkpt>
      <trkpt lat="59.110908508300781" lon="30.489141941070557">
        <time>2026-08-20T07:33:04Z</time>
      </trkpt>
      <trkpt lat="59.110908508300781" lon="30.489141941070557">
        <time>2026-08-20T07:33:07Z</time>
      </trkpt>
      <trkpt lat="59.110908508300781" lon="30.489141941070557">
        <time>2026-08-20T07:33:09Z</time>
      </trkpt>
      <trkpt lat="59.110908508300781" lon="30.489141941070557">
        <time>2026-08-20T07:33:12Z</time>
      </trkpt>
      <trkpt lat="59.110887050628662" lon="30.489206314086914">
        <time>2026-08-20T07:33:14Z</time>
      </trkpt>
      <trkpt lat="59.110887050628662" lon="30.489206314086914">
        <time>2026-08-20T07:33:17Z</time>
      </trkpt>
      <trkpt lat="59.110887050628662" lon="30.489206314086914">
        <time>2026-08-20T07:33:19Z</time>
      </trkpt>
      <trkpt lat="59.110887050628662" lon="30.489206314086914">
        <time>2026-08-20T07:33:22Z</time>
      </trkpt>
      <trkpt lat="59.110887050628662" lon="30.489206314086914">
        <time>2026-08-20T07:33:24Z</time>
      </trkpt>
      <trkpt lat="59.110887050628662" lon="30.489227771759033">
        <time>2026-08-20T07:33:27Z</time>
      </trkpt>
      <trkpt lat="59.110887050628662" lon="30.489227771759033">
        <time>2026-08-20T07:33:29Z</time>
      </trkpt>
      <trkpt lat="59.110887050628662" lon="30.489227771759033">
        <time>2026-08-20T07:33:32Z</time>
      </trkpt>
      <trkpt lat="59.110887050628662" lon="30.489227771759033">
        <time>2026-08-20T07:33:34Z</time>
      </trkpt>
      <trkpt lat="59.110887050628662" lon="30.489227771759033">
        <time>2026-08-20T07:33:37Z</time>
      </trkpt>
      <trkpt lat="59.110887050628662" lon="30.489227771759033">
        <time>2026-08-20T07:33:39Z</time>
      </trkpt>
      <trkpt lat="59.110887050628662" lon="30.489227771759033">
        <time>2026-08-20T07:33:42Z</time>
      </trkpt>
      <trkpt lat="59.110887050628662" lon="30.489227771759033">
        <time>2026-08-20T07:33:44Z</time>
      </trkpt>
      <trkpt lat="59.110887050628662" lon="30.489227771759033">
        <time>2026-08-20T07:33:47Z</time>
      </trkpt>
      <trkpt lat="59.110887050628662" lon="30.489227771759033">
        <time>2026-08-20T07:33:49Z</time>
      </trkpt>
      <trkpt lat="59.110887050628662" lon="30.489292144775391">
        <time>2026-08-20T07:33:52Z</time>
      </trkpt>
      <trkpt lat="59.110887050628662" lon="30.489377975463867">
        <time>2026-08-20T07:33:54Z</time>
      </trkpt>
      <trkpt lat="59.110887050628662" lon="30.489377975463867">
        <time>2026-08-20T07:33:57Z</time>
      </trkpt>
      <trkpt lat="59.110887050628662" lon="30.489377975463867">
        <time>2026-08-20T07:33:59Z</time>
      </trkpt>
      <trkpt lat="59.110887050628662" lon="30.489377975463867">
        <time>2026-08-20T07:34:02Z</time>
      </trkpt>
      <trkpt lat="59.110887050628662" lon="30.489377975463867">
        <time>2026-08-20T07:34:04Z</time>
      </trkpt>
      <trkpt lat="59.110887050628662" lon="30.489377975463867">
        <time>2026-08-20T07:34:07Z</time>
      </trkpt>
      <trkpt lat="59.110887050628662" lon="30.489377975463867">
        <time>2026-08-20T07:34:09Z</time>
      </trkpt>
      <trkpt lat="59.110887050628662" lon="30.489377975463867">
        <time>2026-08-20T07:34:12Z</time>
      </trkpt>
      <trkpt lat="59.110887050628662" lon="30.489377975463867">
        <time>2026-08-20T07:34:14Z</time>
      </trkpt>
      <trkpt lat="59.110887050628662" lon="30.489377975463867">
        <time>2026-08-20T07:34:17Z</time>
      </trkpt>
      <trkpt lat="59.110887050628662" lon="30.489377975463867">
        <time>2026-08-20T07:34:19Z</time>
      </trkpt>
      <trkpt lat="59.110887050628662" lon="30.489377975463867">
        <time>2026-08-20T07:34:22Z</time>
      </trkpt>
      <trkpt lat="59.110887050628662" lon="30.489377975463867">
        <time>2026-08-20T07:34:24Z</time>
      </trkpt>
      <trkpt lat="59.110887050628662" lon="30.489377975463867">
        <time>2026-08-20T07:34:27Z</time>
      </trkpt>
      <trkpt lat="59.110887050628662" lon="30.489377975463867">
        <time>2026-08-20T07:34:29Z</time>
      </trkpt>
      <trkpt lat="59.110887050628662" lon="30.489377975463867">
        <time>2026-08-20T07:34:32Z</time>
      </trkpt>
      <trkpt lat="59.110887050628662" lon="30.489377975463867">
        <time>2026-08-20T07:34:34Z</time>
      </trkpt>
      <trkpt lat="59.110887050628662" lon="30.489399433135986">
        <time>2026-08-20T07:34:37Z</time>
      </trkpt>
      <trkpt lat="59.110887050628662" lon="30.489399433135986">
        <time>2026-08-20T07:34:39Z</time>
      </trkpt>
      <trkpt lat="59.110887050628662" lon="30.489399433135986">
        <time>2026-08-20T07:34:42Z</time>
      </trkpt>
      <trkpt lat="59.110887050628662" lon="30.489399433135986">
        <time>2026-08-20T07:34:44Z</time>
      </trkpt>
      <trkpt lat="59.110887050628662" lon="30.489399433135986">
        <time>2026-08-20T07:34:47Z</time>
      </trkpt>
      <trkpt lat="59.110887050628662" lon="30.489399433135986">
        <time>2026-08-20T07:34:49Z</time>
      </trkpt>
      <trkpt lat="59.110887050628662" lon="30.489399433135986">
        <time>2026-08-20T07:34:52Z</time>
      </trkpt>
      <trkpt lat="59.110887050628662" lon="30.489399433135986">
        <time>2026-08-20T07:34:54Z</time>
      </trkpt>
      <trkpt lat="59.110887050628662" lon="30.489399433135986">
        <time>2026-08-20T07:34:57Z</time>
      </trkpt>
      <trkpt lat="59.110887050628662" lon="30.489399433135986">
        <time>2026-08-20T07:34:59Z</time>
      </trkpt>
      <trkpt lat="59.110887050628662" lon="30.489399433135986">
        <time>2026-08-20T07:35:02Z</time>
      </trkpt>
      <trkpt lat="59.110887050628662" lon="30.489399433135986">
        <time>2026-08-20T07:35:04Z</time>
      </trkpt>
      <trkpt lat="59.110887050628662" lon="30.489399433135986">
        <time>2026-08-20T07:35:07Z</time>
      </trkpt>
      <trkpt lat="59.110887050628662" lon="30.489399433135986">
        <time>2026-08-20T07:35:09Z</time>
      </trkpt>
      <trkpt lat="59.110887050628662" lon="30.489399433135986">
        <time>2026-08-20T07:35:12Z</time>
      </trkpt>
      <trkpt lat="59.110887050628662" lon="30.489399433135986">
        <time>2026-08-20T07:35:14Z</time>
      </trkpt>
      <trkpt lat="59.110887050628662" lon="30.489420890808105">
        <time>2026-08-20T07:35:17Z</time>
      </trkpt>
      <trkpt lat="59.110887050628662" lon="30.489420890808105">
        <time>2026-08-20T07:35:19Z</time>
      </trkpt>
      <trkpt lat="59.110887050628662" lon="30.489420890808105">
        <time>2026-08-20T07:35:22Z</time>
      </trkpt>
      <trkpt lat="59.110887050628662" lon="30.489420890808105">
        <time>2026-08-20T07:35:24Z</time>
      </trkpt>
      <trkpt lat="59.110887050628662" lon="30.489420890808105">
        <time>2026-08-20T07:35:27Z</time>
      </trkpt>
      <trkpt lat="59.110865592956543" lon="30.489420890808105">
        <time>2026-08-20T07:35:29Z</time>
      </trkpt>
      <trkpt lat="59.110865592956543" lon="30.489420890808105">
        <time>2026-08-20T07:35:32Z</time>
      </trkpt>
      <trkpt lat="59.110865592956543" lon="30.489420890808105">
        <time>2026-08-20T07:35:34Z</time>
      </trkpt>
      <trkpt lat="59.110865592956543" lon="30.489420890808105">
        <time>2026-08-20T07:35:37Z</time>
      </trkpt>
      <trkpt lat="59.110887050628662" lon="30.489528179168701">
        <time>2026-08-20T07:35:39Z</time>
      </trkpt>
      <trkpt lat="59.110908508300781" lon="30.489571094512939">
        <time>2026-08-20T07:35:42Z</time>
      </trkpt>
      <trkpt lat="59.110887050628662" lon="30.489699840545654">
        <time>2026-08-20T07:35:44Z</time>
      </trkpt>
      <trkpt lat="59.110887050628662" lon="30.489742755889893">
        <time>2026-08-20T07:35:47Z</time>
      </trkpt>
      <trkpt lat="59.110887050628662" lon="30.489764213562012">
        <time>2026-08-20T07:35:49Z</time>
      </trkpt>
      <trkpt lat="59.110887050628662" lon="30.489764213562012">
        <time>2026-08-20T07:35:52Z</time>
      </trkpt>
      <trkpt lat="59.110887050628662" lon="30.489764213562012">
        <time>2026-08-20T07:35:54Z</time>
      </trkpt>
      <trkpt lat="59.110887050628662" lon="30.489764213562012">
        <time>2026-08-20T07:35:57Z</time>
      </trkpt>
      <trkpt lat="59.110887050628662" lon="30.489764213562012">
        <time>2026-08-20T07:35:59Z</time>
      </trkpt>
      <trkpt lat="59.110887050628662" lon="30.489764213562012">
        <time>2026-08-20T07:36:02Z</time>
      </trkpt>
      <trkpt lat="59.110887050628662" lon="30.489764213562012">
        <time>2026-08-20T07:36:04Z</time>
      </trkpt>
      <trkpt lat="59.110887050628662" lon="30.489764213562012">
        <time>2026-08-20T07:36:07Z</time>
      </trkpt>
      <trkpt lat="59.110887050628662" lon="30.489785671234131">
        <time>2026-08-20T07:36:09Z</time>
      </trkpt>
      <trkpt lat="59.110887050628662" lon="30.489785671234131">
        <time>2026-08-20T07:36:12Z</time>
      </trkpt>
      <trkpt lat="59.110887050628662" lon="30.489785671234131">
        <time>2026-08-20T07:36:14Z</time>
      </trkpt>
      <trkpt lat="59.110887050628662" lon="30.489785671234131">
        <time>2026-08-20T07:36:17Z</time>
      </trkpt>
      <trkpt lat="59.110865592956543" lon="30.489850044250488">
        <time>2026-08-20T07:36:19Z</time>
      </trkpt>
      <trkpt lat="59.110865592956543" lon="30.489850044250488">
        <time>2026-08-20T07:36:22Z</time>
      </trkpt>
      <trkpt lat="59.110865592956543" lon="30.489850044250488">
        <time>2026-08-20T07:36:24Z</time>
      </trkpt>
      <trkpt lat="59.110887050628662" lon="30.489850044250488">
        <time>2026-08-20T07:36:27Z</time>
      </trkpt>
      <trkpt lat="59.110908508300781" lon="30.489850044250488">
        <time>2026-08-20T07:36:29Z</time>
      </trkpt>
      <trkpt lat="59.110908508300781" lon="30.48980712890625">
        <time>2026-08-20T07:36:32Z</time>
      </trkpt>
      <trkpt lat="59.110908508300781" lon="30.48980712890625">
        <time>2026-08-20T07:36:34Z</time>
      </trkpt>
      <trkpt lat="59.1109299659729" lon="30.489871501922607">
        <time>2026-08-20T07:36:37Z</time>
      </trkpt>
      <trkpt lat="59.110908508300781" lon="30.489978790283203">
        <time>2026-08-20T07:36:42Z</time>
      </trkpt>
      <trkpt lat="59.110887050628662" lon="30.490021705627441">
        <time>2026-08-20T07:36:44Z</time>
      </trkpt>
      <trkpt lat="59.110887050628662" lon="30.490043163299561">
        <time>2026-08-20T07:36:47Z</time>
      </trkpt>
      <trkpt lat="59.110865592956543" lon="30.49006462097168">
        <time>2026-08-20T07:36:49Z</time>
      </trkpt>
      <trkpt lat="59.110865592956543" lon="30.49006462097168">
        <time>2026-08-20T07:36:52Z</time>
      </trkpt>
      <trkpt lat="59.110887050628662" lon="30.490128993988037">
        <time>2026-08-20T07:36:54Z</time>
      </trkpt>
      <trkpt lat="59.110887050628662" lon="30.490128993988037">
        <time>2026-08-20T07:36:57Z</time>
      </trkpt>
      <trkpt lat="59.110887050628662" lon="30.490128993988037">
        <time>2026-08-20T07:36:59Z</time>
      </trkpt>
      <trkpt lat="59.110887050628662" lon="30.490193367004395">
        <time>2026-08-20T07:37:02Z</time>
      </trkpt>
      <trkpt lat="59.110887050628662" lon="30.490236282348633">
        <time>2026-08-20T07:37:04Z</time>
      </trkpt>
      <trkpt lat="59.110887050628662" lon="30.490257740020752">
        <time>2026-08-20T07:37:07Z</time>
      </trkpt>
      <trkpt lat="59.110887050628662" lon="30.490343570709229">
        <time>2026-08-20T07:37:09Z</time>
      </trkpt>
      <trkpt lat="59.110865592956543" lon="30.490365028381348">
        <time>2026-08-20T07:37:12Z</time>
      </trkpt>
      <trkpt lat="59.110865592956543" lon="30.490429401397705">
        <time>2026-08-20T07:37:14Z</time>
      </trkpt>
      <trkpt lat="59.110844135284424" lon="30.490493774414063">
        <time>2026-08-20T07:37:17Z</time>
      </trkpt>
      <trkpt lat="59.110865592956543" lon="30.490601062774658">
        <time>2026-08-20T07:37:19Z</time>
      </trkpt>
      <trkpt lat="59.110887050628662" lon="30.490643978118896">
        <time>2026-08-20T07:37:22Z</time>
      </trkpt>
      <trkpt lat="59.110887050628662" lon="30.490729808807373">
        <time>2026-08-20T07:37:24Z</time>
      </trkpt>
      <trkpt lat="59.110908508300781" lon="30.49081563949585">
        <time>2026-08-20T07:37:27Z</time>
      </trkpt>
      <trkpt lat="59.110908508300781" lon="30.490880012512207">
        <time>2026-08-20T07:37:29Z</time>
      </trkpt>
      <trkpt lat="59.110908508300781" lon="30.490901470184326">
        <time>2026-08-20T07:37:32Z</time>
      </trkpt>
      <trkpt lat="59.110908508300781" lon="30.490922927856445">
        <time>2026-08-20T07:37:34Z</time>
      </trkpt>
      <trkpt lat="59.110865592956543" lon="30.490944385528564">
        <time>2026-08-20T07:37:37Z</time>
      </trkpt>
      <trkpt lat="59.110844135284424" lon="30.491008758544922">
        <time>2026-08-20T07:37:39Z</time>
      </trkpt>
      <trkpt lat="59.110822677612305" lon="30.491030216217041">
        <time>2026-08-20T07:37:42Z</time>
      </trkpt>
      <trkpt lat="59.110822677612305" lon="30.491030216217041">
        <time>2026-08-20T07:37:44Z</time>
      </trkpt>
      <trkpt lat="59.110822677612305" lon="30.491030216217041">
        <time>2026-08-20T07:37:47Z</time>
      </trkpt>
      <trkpt lat="59.110865592956543" lon="30.491073131561279">
        <time>2026-08-20T07:37:49Z</time>
      </trkpt>
      <trkpt lat="59.110887050628662" lon="30.491116046905518">
        <time>2026-08-20T07:37:52Z</time>
      </trkpt>
      <trkpt lat="59.110887050628662" lon="30.491116046905518">
        <time>2026-08-20T07:37:54Z</time>
      </trkpt>
      <trkpt lat="59.110887050628662" lon="30.491158962249756">
        <time>2026-08-20T07:37:57Z</time>
      </trkpt>
      <trkpt lat="59.1109299659729" lon="30.491223335266113">
        <time>2026-08-20T07:37:59Z</time>
      </trkpt>
      <trkpt lat="59.1109299659729" lon="30.491287708282471">
        <time>2026-08-20T07:38:02Z</time>
      </trkpt>
      <trkpt lat="59.1109299659729" lon="30.491287708282471">
        <time>2026-08-20T07:38:04Z</time>
      </trkpt>
      <trkpt lat="59.1109299659729" lon="30.491287708282471">
        <time>2026-08-20T07:38:07Z</time>
      </trkpt>
      <trkpt lat="59.1109299659729" lon="30.49130916595459">
        <time>2026-08-20T07:38:09Z</time>
      </trkpt>
      <trkpt lat="59.110908508300781" lon="30.49130916595459">
        <time>2026-08-20T07:38:12Z</time>
      </trkpt>
      <trkpt lat="59.110865592956543" lon="30.491266250610352">
        <time>2026-08-20T07:38:14Z</time>
      </trkpt>
      <trkpt lat="59.110865592956543" lon="30.491287708282471">
        <time>2026-08-20T07:38:17Z</time>
      </trkpt>
      <trkpt lat="59.110887050628662" lon="30.49130916595459">
        <time>2026-08-20T07:38:19Z</time>
      </trkpt>
      <trkpt lat="59.1109299659729" lon="30.491330623626709">
        <time>2026-08-20T07:38:22Z</time>
      </trkpt>
      <trkpt lat="59.110972881317139" lon="30.491373538970947">
        <time>2026-08-20T07:38:24Z</time>
      </trkpt>
      <trkpt lat="59.110994338989258" lon="30.491394996643066">
        <time>2026-08-20T07:38:27Z</time>
      </trkpt>
      <trkpt lat="59.111037254333496" lon="30.491437911987305">
        <time>2026-08-20T07:38:29Z</time>
      </trkpt>
      <trkpt lat="59.111058712005615" lon="30.491480827331543">
        <time>2026-08-20T07:38:32Z</time>
      </trkpt>
      <trkpt lat="59.111080169677734" lon="30.491502285003662">
        <time>2026-08-20T07:38:34Z</time>
      </trkpt>
      <trkpt lat="59.111080169677734" lon="30.491502285003662">
        <time>2026-08-20T07:38:37Z</time>
      </trkpt>
      <trkpt lat="59.111058712005615" lon="30.4915452003479">
        <time>2026-08-20T07:38:39Z</time>
      </trkpt>
      <trkpt lat="59.111080169677734" lon="30.491609573364258">
        <time>2026-08-20T07:38:42Z</time>
      </trkpt>
      <trkpt lat="59.111080169677734" lon="30.491609573364258">
        <time>2026-08-20T07:38:44Z</time>
      </trkpt>
      <trkpt lat="59.111080169677734" lon="30.491609573364258">
        <time>2026-08-20T07:38:47Z</time>
      </trkpt>
      <trkpt lat="59.111101627349854" lon="30.491652488708496">
        <time>2026-08-20T07:38:49Z</time>
      </trkpt>
      <trkpt lat="59.111144542694092" lon="30.491695404052734">
        <time>2026-08-20T07:38:52Z</time>
      </trkpt>
      <trkpt lat="59.111144542694092" lon="30.491695404052734">
        <time>2026-08-20T07:38:54Z</time>
      </trkpt>
      <trkpt lat="59.111144542694092" lon="30.491759777069092">
        <time>2026-08-20T07:38:57Z</time>
      </trkpt>
      <trkpt lat="59.111166000366211" lon="30.491824150085449">
        <time>2026-08-20T07:38:59Z</time>
      </trkpt>
      <trkpt lat="59.111166000366211" lon="30.491867065429688">
        <time>2026-08-20T07:39:02Z</time>
      </trkpt>
      <trkpt lat="59.111166000366211" lon="30.491867065429688">
        <time>2026-08-20T07:39:04Z</time>
      </trkpt>
      <trkpt lat="59.111166000366211" lon="30.491867065429688">
        <time>2026-08-20T07:39:07Z</time>
      </trkpt>
      <trkpt lat="59.111166000366211" lon="30.491909980773926">
        <time>2026-08-20T07:39:09Z</time>
      </trkpt>
      <trkpt lat="59.111144542694092" lon="30.491931438446045">
        <time>2026-08-20T07:39:12Z</time>
      </trkpt>
      <trkpt lat="59.111144542694092" lon="30.491931438446045">
        <time>2026-08-20T07:39:14Z</time>
      </trkpt>
      <trkpt lat="59.111123085021973" lon="30.491952896118164">
        <time>2026-08-20T07:39:17Z</time>
      </trkpt>
      <trkpt lat="59.111080169677734" lon="30.492017269134521">
        <time>2026-08-20T07:39:19Z</time>
      </trkpt>
      <trkpt lat="59.111080169677734" lon="30.49206018447876">
        <time>2026-08-20T07:39:22Z</time>
      </trkpt>
      <trkpt lat="59.111080169677734" lon="30.49206018447876">
        <time>2026-08-20T07:39:24Z</time>
      </trkpt>
      <trkpt lat="59.111080169677734" lon="30.49206018447876">
        <time>2026-08-20T07:39:27Z</time>
      </trkpt>
      <trkpt lat="59.111080169677734" lon="30.49206018447876">
        <time>2026-08-20T07:39:29Z</time>
      </trkpt>
      <trkpt lat="59.111080169677734" lon="30.492081642150879">
        <time>2026-08-20T07:39:32Z</time>
      </trkpt>
      <trkpt lat="59.111080169677734" lon="30.492081642150879">
        <time>2026-08-20T07:39:34Z</time>
      </trkpt>
      <trkpt lat="59.111058712005615" lon="30.492081642150879">
        <time>2026-08-20T07:39:37Z</time>
      </trkpt>
      <trkpt lat="59.111037254333496" lon="30.492103099822998">
        <time>2026-08-20T07:39:39Z</time>
      </trkpt>
      <trkpt lat="59.111015796661377" lon="30.492124557495117">
        <time>2026-08-20T07:39:42Z</time>
      </trkpt>
      <trkpt lat="59.110994338989258" lon="30.492124557495117">
        <time>2026-08-20T07:39:44Z</time>
      </trkpt>
      <trkpt lat="59.110994338989258" lon="30.492124557495117">
        <time>2026-08-20T07:39:47Z</time>
      </trkpt>
      <trkpt lat="59.110994338989258" lon="30.492124557495117">
        <time>2026-08-20T07:39:49Z</time>
      </trkpt>
      <trkpt lat="59.110994338989258" lon="30.492124557495117">
        <time>2026-08-20T07:39:52Z</time>
      </trkpt>
      <trkpt lat="59.110994338989258" lon="30.492124557495117">
        <time>2026-08-20T07:39:54Z</time>
      </trkpt>
      <trkpt lat="59.110994338989258" lon="30.492124557495117">
        <time>2026-08-20T07:39:57Z</time>
      </trkpt>
      <trkpt lat="59.111037254333496" lon="30.492210388183594">
        <time>2026-08-20T07:39:59Z</time>
      </trkpt>
      <trkpt lat="59.111058712005615" lon="30.492231845855713">
        <time>2026-08-20T07:40:02Z</time>
      </trkpt>
      <trkpt lat="59.111058712005615" lon="30.492231845855713">
        <time>2026-08-20T07:40:04Z</time>
      </trkpt>
      <trkpt lat="59.111058712005615" lon="30.492231845855713">
        <time>2026-08-20T07:40:07Z</time>
      </trkpt>
      <trkpt lat="59.111058712005615" lon="30.492231845855713">
        <time>2026-08-20T07:40:09Z</time>
      </trkpt>
      <trkpt lat="59.111058712005615" lon="30.492231845855713">
        <time>2026-08-20T07:40:12Z</time>
      </trkpt>
      <trkpt lat="59.111058712005615" lon="30.492231845855713">
        <time>2026-08-20T07:40:14Z</time>
      </trkpt>
      <trkpt lat="59.111058712005615" lon="30.492231845855713">
        <time>2026-08-20T07:40:17Z</time>
      </trkpt>
      <trkpt lat="59.111058712005615" lon="30.492231845855713">
        <time>2026-08-20T07:40:19Z</time>
      </trkpt>
      <trkpt lat="59.111058712005615" lon="30.492231845855713">
        <time>2026-08-20T07:40:22Z</time>
      </trkpt>
      <trkpt lat="59.111058712005615" lon="30.492231845855713">
        <time>2026-08-20T07:40:24Z</time>
      </trkpt>
      <trkpt lat="59.111058712005615" lon="30.492231845855713">
        <time>2026-08-20T07:40:27Z</time>
      </trkpt>
      <trkpt lat="59.111037254333496" lon="30.492274761199951">
        <time>2026-08-20T07:40:34Z</time>
      </trkpt>
      <trkpt lat="59.111037254333496" lon="30.492274761199951">
        <time>2026-08-20T07:40:37Z</time>
      </trkpt>
      <trkpt lat="59.111037254333496" lon="30.492274761199951">
        <time>2026-08-20T07:40:39Z</time>
      </trkpt>
      <trkpt lat="59.111037254333496" lon="30.492274761199951">
        <time>2026-08-20T07:40:42Z</time>
      </trkpt>
      <trkpt lat="59.111037254333496" lon="30.492274761199951">
        <time>2026-08-20T07:40:44Z</time>
      </trkpt>
      <trkpt lat="59.111037254333496" lon="30.492274761199951">
        <time>2026-08-20T07:40:47Z</time>
      </trkpt>
      <trkpt lat="59.111037254333496" lon="30.492274761199951">
        <time>2026-08-20T07:40:49Z</time>
      </trkpt>
      <trkpt lat="59.111037254333496" lon="30.492274761199951">
        <time>2026-08-20T07:40:52Z</time>
      </trkpt>
      <trkpt lat="59.111037254333496" lon="30.492317676544189">
        <time>2026-08-20T07:40:54Z</time>
      </trkpt>
      <trkpt lat="59.111037254333496" lon="30.492317676544189">
        <time>2026-08-20T07:40:57Z</time>
      </trkpt>
      <trkpt lat="59.111037254333496" lon="30.492317676544189">
        <time>2026-08-20T07:40:59Z</time>
      </trkpt>
      <trkpt lat="59.111037254333496" lon="30.492317676544189">
        <time>2026-08-20T07:41:02Z</time>
      </trkpt>
      <trkpt lat="59.111037254333496" lon="30.492317676544189">
        <time>2026-08-20T07:41:04Z</time>
      </trkpt>
      <trkpt lat="59.111037254333496" lon="30.492382049560547">
        <time>2026-08-20T07:41:07Z</time>
      </trkpt>
      <trkpt lat="59.111037254333496" lon="30.492382049560547">
        <time>2026-08-20T07:41:09Z</time>
      </trkpt>
      <trkpt lat="59.111015796661377" lon="30.492446422576904">
        <time>2026-08-20T07:41:12Z</time>
      </trkpt>
      <trkpt lat="59.110994338989258" lon="30.492446422576904">
        <time>2026-08-20T07:41:14Z</time>
      </trkpt>
      <trkpt lat="59.110994338989258" lon="30.492467880249023">
        <time>2026-08-20T07:41:17Z</time>
      </trkpt>
      <trkpt lat="59.110994338989258" lon="30.492467880249023">
        <time>2026-08-20T07:41:19Z</time>
      </trkpt>
      <trkpt lat="59.110994338989258" lon="30.492467880249023">
        <time>2026-08-20T07:41:22Z</time>
      </trkpt>
      <trkpt lat="59.110994338989258" lon="30.492467880249023">
        <time>2026-08-20T07:41:24Z</time>
      </trkpt>
      <trkpt lat="59.110994338989258" lon="30.492467880249023">
        <time>2026-08-20T07:41:27Z</time>
      </trkpt>
      <trkpt lat="59.11095142364502" lon="30.492489337921143">
        <time>2026-08-20T07:41:29Z</time>
      </trkpt>
      <trkpt lat="59.1109299659729" lon="30.492489337921143">
        <time>2026-08-20T07:41:32Z</time>
      </trkpt>
      <trkpt lat="59.110887050628662" lon="30.492489337921143">
        <time>2026-08-20T07:41:34Z</time>
      </trkpt>
      <trkpt lat="59.110865592956543" lon="30.492489337921143">
        <time>2026-08-20T07:41:37Z</time>
      </trkpt>
      <trkpt lat="59.110865592956543" lon="30.492489337921143">
        <time>2026-08-20T07:41:39Z</time>
      </trkpt>
      <trkpt lat="59.110822677612305" lon="30.492489337921143">
        <time>2026-08-20T07:41:42Z</time>
      </trkpt>
      <trkpt lat="59.110779762268066" lon="30.492489337921143">
        <time>2026-08-20T07:41:44Z</time>
      </trkpt>
      <trkpt lat="59.110779762268066" lon="30.492489337921143">
        <time>2026-08-20T07:41:47Z</time>
      </trkpt>
      <trkpt lat="59.110736846923828" lon="30.492489337921143">
        <time>2026-08-20T07:41:49Z</time>
      </trkpt>
      <trkpt lat="59.110715389251709" lon="30.492489337921143">
        <time>2026-08-20T07:41:52Z</time>
      </trkpt>
      <trkpt lat="59.110672473907471" lon="30.492489337921143">
        <time>2026-08-20T07:41:54Z</time>
      </trkpt>
      <trkpt lat="59.110672473907471" lon="30.492489337921143">
        <time>2026-08-20T07:41:57Z</time>
      </trkpt>
      <trkpt lat="59.110651016235352" lon="30.492489337921143">
        <time>2026-08-20T07:41:59Z</time>
      </trkpt>
      <trkpt lat="59.110608100891113" lon="30.492489337921143">
        <time>2026-08-20T07:42:02Z</time>
      </trkpt>
      <trkpt lat="59.110586643218994" lon="30.492489337921143">
        <time>2026-08-20T07:42:04Z</time>
      </trkpt>
      <trkpt lat="59.110586643218994" lon="30.492489337921143">
        <time>2026-08-20T07:42:07Z</time>
      </trkpt>
      <trkpt lat="59.110586643218994" lon="30.492489337921143">
        <time>2026-08-20T07:42:09Z</time>
      </trkpt>
      <trkpt lat="59.110586643218994" lon="30.492489337921143">
        <time>2026-08-20T07:42:12Z</time>
      </trkpt>
      <trkpt lat="59.110586643218994" lon="30.492489337921143">
        <time>2026-08-20T07:42:14Z</time>
      </trkpt>
      <trkpt lat="59.110586643218994" lon="30.492489337921143">
        <time>2026-08-20T07:42:17Z</time>
      </trkpt>
      <trkpt lat="59.110586643218994" lon="30.492489337921143">
        <time>2026-08-20T07:42:19Z</time>
      </trkpt>
      <trkpt lat="59.110565185546875" lon="30.492467880249023">
        <time>2026-08-20T07:42:22Z</time>
      </trkpt>
      <trkpt lat="59.110565185546875" lon="30.492467880249023">
        <time>2026-08-20T07:42:24Z</time>
      </trkpt>
      <trkpt lat="59.110565185546875" lon="30.492467880249023">
        <time>2026-08-20T07:42:27Z</time>
      </trkpt>
      <trkpt lat="59.110543727874756" lon="30.492467880249023">
        <time>2026-08-20T07:42:29Z</time>
      </trkpt>
      <trkpt lat="59.110522270202637" lon="30.492489337921143">
        <time>2026-08-20T07:42:32Z</time>
      </trkpt>
      <trkpt lat="59.110500812530518" lon="30.492489337921143">
        <time>2026-08-20T07:42:34Z</time>
      </trkpt>
      <trkpt lat="59.110479354858398" lon="30.492489337921143">
        <time>2026-08-20T07:42:37Z</time>
      </trkpt>
      <trkpt lat="59.110479354858398" lon="30.492510795593262">
        <time>2026-08-20T07:42:42Z</time>
      </trkpt>
      <trkpt lat="59.11043643951416" lon="30.492575168609619">
        <time>2026-08-20T07:42:44Z</time>
      </trkpt>
      <trkpt lat="59.11043643951416" lon="30.492618083953857">
        <time>2026-08-20T07:42:47Z</time>
      </trkpt>
      <trkpt lat="59.11043643951416" lon="30.492618083953857">
        <time>2026-08-20T07:42:49Z</time>
      </trkpt>
      <trkpt lat="59.11043643951416" lon="30.492618083953857">
        <time>2026-08-20T07:42:52Z</time>
      </trkpt>
      <trkpt lat="59.11043643951416" lon="30.492618083953857">
        <time>2026-08-20T07:42:54Z</time>
      </trkpt>
      <trkpt lat="59.11043643951416" lon="30.492639541625977">
        <time>2026-08-20T07:42:57Z</time>
      </trkpt>
      <trkpt lat="59.11043643951416" lon="30.492639541625977">
        <time>2026-08-20T07:42:59Z</time>
      </trkpt>
      <trkpt lat="59.11043643951416" lon="30.492639541625977">
        <time>2026-08-20T07:43:02Z</time>
      </trkpt>
      <trkpt lat="59.11043643951416" lon="30.492639541625977">
        <time>2026-08-20T07:43:04Z</time>
      </trkpt>
      <trkpt lat="59.110414981842041" lon="30.492660999298096">
        <time>2026-08-20T07:43:07Z</time>
      </trkpt>
      <trkpt lat="59.110393524169922" lon="30.492682456970215">
        <time>2026-08-20T07:43:09Z</time>
      </trkpt>
      <trkpt lat="59.110414981842041" lon="30.492682456970215">
        <time>2026-08-20T07:43:12Z</time>
      </trkpt>
      <trkpt lat="59.11043643951416" lon="30.492660999298096">
        <time>2026-08-20T07:43:14Z</time>
      </trkpt>
      <trkpt lat="59.11043643951416" lon="30.492660999298096">
        <time>2026-08-20T07:43:17Z</time>
      </trkpt>
      <trkpt lat="59.11043643951416" lon="30.492660999298096">
        <time>2026-08-20T07:43:19Z</time>
      </trkpt>
      <trkpt lat="59.11043643951416" lon="30.492660999298096">
        <time>2026-08-20T07:43:22Z</time>
      </trkpt>
      <trkpt lat="59.110393524169922" lon="30.492660999298096">
        <time>2026-08-20T07:43:24Z</time>
      </trkpt>
      <trkpt lat="59.110393524169922" lon="30.492682456970215">
        <time>2026-08-20T07:43:27Z</time>
      </trkpt>
      <trkpt lat="59.110350608825684" lon="30.492618083953857">
        <time>2026-08-20T07:43:32Z</time>
      </trkpt>
      <trkpt lat="59.110350608825684" lon="30.492618083953857">
        <time>2026-08-20T07:43:34Z</time>
      </trkpt>
      <trkpt lat="59.110350608825684" lon="30.492618083953857">
        <time>2026-08-20T07:43:37Z</time>
      </trkpt>
      <trkpt lat="59.110350608825684" lon="30.492618083953857">
        <time>2026-08-20T07:43:39Z</time>
      </trkpt>
      <trkpt lat="59.110350608825684" lon="30.492618083953857">
        <time>2026-08-20T07:43:42Z</time>
      </trkpt>
      <trkpt lat="59.110350608825684" lon="30.492618083953857">
        <time>2026-08-20T07:43:44Z</time>
      </trkpt>
      <trkpt lat="59.110329151153564" lon="30.492618083953857">
        <time>2026-08-20T07:43:47Z</time>
      </trkpt>
      <trkpt lat="59.110307693481445" lon="30.492639541625977">
        <time>2026-08-20T07:43:49Z</time>
      </trkpt>
      <trkpt lat="59.110307693481445" lon="30.492639541625977">
        <time>2026-08-20T07:43:52Z</time>
      </trkpt>
      <trkpt lat="59.110286235809326" lon="30.492639541625977">
        <time>2026-08-20T07:43:54Z</time>
      </trkpt>
      <trkpt lat="59.110264778137207" lon="30.492682456970215">
        <time>2026-08-20T07:43:57Z</time>
      </trkpt>
      <trkpt lat="59.110243320465088" lon="30.492703914642334">
        <time>2026-08-20T07:43:59Z</time>
      </trkpt>
      <trkpt lat="59.110221862792969" lon="30.492703914642334">
        <time>2026-08-20T07:44:02Z</time>
      </trkpt>
      <trkpt lat="59.11020040512085" lon="30.492703914642334">
        <time>2026-08-20T07:44:04Z</time>
      </trkpt>
      <trkpt lat="59.11020040512085" lon="30.492703914642334">
        <time>2026-08-20T07:44:07Z</time>
      </trkpt>
      <trkpt lat="59.110221862792969" lon="30.492725372314453">
        <time>2026-08-20T07:44:09Z</time>
      </trkpt>
      <trkpt lat="59.110221862792969" lon="30.492725372314453">
        <time>2026-08-20T07:44:12Z</time>
      </trkpt>
      <trkpt lat="59.110221862792969" lon="30.492725372314453">
        <time>2026-08-20T07:44:14Z</time>
      </trkpt>
      <trkpt lat="59.110221862792969" lon="30.492725372314453">
        <time>2026-08-20T07:44:17Z</time>
      </trkpt>
      <trkpt lat="59.110243320465088" lon="30.492789745330811">
        <time>2026-08-20T07:44:19Z</time>
      </trkpt>
      <trkpt lat="59.110221862792969" lon="30.49281120300293">
        <time>2026-08-20T07:44:22Z</time>
      </trkpt>
      <trkpt lat="59.11020040512085" lon="30.49281120300293">
        <time>2026-08-20T07:44:24Z</time>
      </trkpt>
      <trkpt lat="59.110221862792969" lon="30.492832660675049">
        <time>2026-08-20T07:44:27Z</time>
      </trkpt>
      <trkpt lat="59.110243320465088" lon="30.492875576019287">
        <time>2026-08-20T07:44:29Z</time>
      </trkpt>
      <trkpt lat="59.110264778137207" lon="30.492854118347168">
        <time>2026-08-20T07:44:32Z</time>
      </trkpt>
      <trkpt lat="59.110264778137207" lon="30.492789745330811">
        <time>2026-08-20T07:44:34Z</time>
      </trkpt>
      <trkpt lat="59.110286235809326" lon="30.492746829986572">
        <time>2026-08-20T07:44:37Z</time>
      </trkpt>
      <trkpt lat="59.110286235809326" lon="30.492746829986572">
        <time>2026-08-20T07:44:39Z</time>
      </trkpt>
      <trkpt lat="59.110286235809326" lon="30.492746829986572">
        <time>2026-08-20T07:44:42Z</time>
      </trkpt>
      <trkpt lat="59.110286235809326" lon="30.492746829986572">
        <time>2026-08-20T07:44:44Z</time>
      </trkpt>
      <trkpt lat="59.110286235809326" lon="30.492746829986572">
        <time>2026-08-20T07:44:47Z</time>
      </trkpt>
      <trkpt lat="59.110286235809326" lon="30.492746829986572">
        <time>2026-08-20T07:44:49Z</time>
      </trkpt>
      <trkpt lat="59.110286235809326" lon="30.492746829986572">
        <time>2026-08-20T07:44:52Z</time>
      </trkpt>
      <trkpt lat="59.110286235809326" lon="30.492746829986572">
        <time>2026-08-20T07:44:54Z</time>
      </trkpt>
      <trkpt lat="59.110286235809326" lon="30.492746829986572">
        <time>2026-08-20T07:44:57Z</time>
      </trkpt>
      <trkpt lat="59.110286235809326" lon="30.492746829986572">
        <time>2026-08-20T07:44:59Z</time>
      </trkpt>
      <trkpt lat="59.110286235809326" lon="30.492746829986572">
        <time>2026-08-20T07:45:02Z</time>
      </trkpt>
      <trkpt lat="59.110286235809326" lon="30.492746829986572">
        <time>2026-08-20T07:45:04Z</time>
      </trkpt>
      <trkpt lat="59.110307693481445" lon="30.492746829986572">
        <time>2026-08-20T07:45:07Z</time>
      </trkpt>
      <trkpt lat="59.110350608825684" lon="30.492639541625977">
        <time>2026-08-20T07:45:09Z</time>
      </trkpt>
      <trkpt lat="59.110393524169922" lon="30.492575168609619">
        <time>2026-08-20T07:45:12Z</time>
      </trkpt>
      <trkpt lat="59.110393524169922" lon="30.4925537109375">
        <time>2026-08-20T07:45:14Z</time>
      </trkpt>
      <trkpt lat="59.110393524169922" lon="30.4925537109375">
        <time>2026-08-20T07:45:17Z</time>
      </trkpt>
      <trkpt lat="59.110393524169922" lon="30.4925537109375">
        <time>2026-08-20T07:45:19Z</time>
      </trkpt>
      <trkpt lat="59.110393524169922" lon="30.4925537109375">
        <time>2026-08-20T07:45:22Z</time>
      </trkpt>
      <trkpt lat="59.110393524169922" lon="30.4925537109375">
        <time>2026-08-20T07:45:24Z</time>
      </trkpt>
      <trkpt lat="59.110393524169922" lon="30.4925537109375">
        <time>2026-08-20T07:45:27Z</time>
      </trkpt>
      <trkpt lat="59.110393524169922" lon="30.4925537109375">
        <time>2026-08-20T07:45:29Z</time>
      </trkpt>
      <trkpt lat="59.110393524169922" lon="30.4925537109375">
        <time>2026-08-20T07:45:32Z</time>
      </trkpt>
      <trkpt lat="59.110393524169922" lon="30.4925537109375">
        <time>2026-08-20T07:45:34Z</time>
      </trkpt>
      <trkpt lat="59.110393524169922" lon="30.4925537109375">
        <time>2026-08-20T07:45:37Z</time>
      </trkpt>
      <trkpt lat="59.110393524169922" lon="30.4925537109375">
        <time>2026-08-20T07:45:39Z</time>
      </trkpt>
      <trkpt lat="59.110393524169922" lon="30.4925537109375">
        <time>2026-08-20T07:45:42Z</time>
      </trkpt>
      <trkpt lat="59.110393524169922" lon="30.4925537109375">
        <time>2026-08-20T07:45:44Z</time>
      </trkpt>
      <trkpt lat="59.110393524169922" lon="30.4925537109375">
        <time>2026-08-20T07:45:47Z</time>
      </trkpt>
      <trkpt lat="59.110393524169922" lon="30.4925537109375">
        <time>2026-08-20T07:45:49Z</time>
      </trkpt>
      <trkpt lat="59.110393524169922" lon="30.4925537109375">
        <time>2026-08-20T07:45:52Z</time>
      </trkpt>
      <trkpt lat="59.110393524169922" lon="30.4925537109375">
        <time>2026-08-20T07:45:54Z</time>
      </trkpt>
      <trkpt lat="59.110393524169922" lon="30.4925537109375">
        <time>2026-08-20T07:45:57Z</time>
      </trkpt>
      <trkpt lat="59.110393524169922" lon="30.4925537109375">
        <time>2026-08-20T07:45:59Z</time>
      </trkpt>
      <trkpt lat="59.110393524169922" lon="30.4925537109375">
        <time>2026-08-20T07:46:02Z</time>
      </trkpt>
      <trkpt lat="59.110372066497803" lon="30.492446422576904">
        <time>2026-08-20T07:46:04Z</time>
      </trkpt>
      <trkpt lat="59.110372066497803" lon="30.492403507232666">
        <time>2026-08-20T07:46:07Z</time>
      </trkpt>
      <trkpt lat="59.110372066497803" lon="30.492403507232666">
        <time>2026-08-20T07:46:09Z</time>
      </trkpt>
      <trkpt lat="59.110372066497803" lon="30.492403507232666">
        <time>2026-08-20T07:46:12Z</time>
      </trkpt>
      <trkpt lat="59.110372066497803" lon="30.492403507232666">
        <time>2026-08-20T07:46:14Z</time>
      </trkpt>
      <trkpt lat="59.110372066497803" lon="30.492403507232666">
        <time>2026-08-20T07:46:17Z</time>
      </trkpt>
      <trkpt lat="59.110372066497803" lon="30.492403507232666">
        <time>2026-08-20T07:46:19Z</time>
      </trkpt>
      <trkpt lat="59.110372066497803" lon="30.492339134216309">
        <time>2026-08-20T07:46:22Z</time>
      </trkpt>
      <trkpt lat="59.110372066497803" lon="30.492210388183594">
        <time>2026-08-20T07:46:24Z</time>
      </trkpt>
      <trkpt lat="59.110372066497803" lon="30.492124557495117">
        <time>2026-08-20T07:46:27Z</time>
      </trkpt>
      <trkpt lat="59.110372066497803" lon="30.492081642150879">
        <time>2026-08-20T07:46:29Z</time>
      </trkpt>
      <trkpt lat="59.110372066497803" lon="30.492081642150879">
        <time>2026-08-20T07:46:32Z</time>
      </trkpt>
      <trkpt lat="59.110372066497803" lon="30.492081642150879">
        <time>2026-08-20T07:46:34Z</time>
      </trkpt>
      <trkpt lat="59.110372066497803" lon="30.492081642150879">
        <time>2026-08-20T07:46:37Z</time>
      </trkpt>
      <trkpt lat="59.110372066497803" lon="30.492081642150879">
        <time>2026-08-20T07:46:39Z</time>
      </trkpt>
      <trkpt lat="59.110372066497803" lon="30.492081642150879">
        <time>2026-08-20T07:46:42Z</time>
      </trkpt>
      <trkpt lat="59.110372066497803" lon="30.492081642150879">
        <time>2026-08-20T07:46:44Z</time>
      </trkpt>
      <trkpt lat="59.110372066497803" lon="30.492081642150879">
        <time>2026-08-20T07:46:47Z</time>
      </trkpt>
      <trkpt lat="59.110372066497803" lon="30.492081642150879">
        <time>2026-08-20T07:46:49Z</time>
      </trkpt>
      <trkpt lat="59.110372066497803" lon="30.492081642150879">
        <time>2026-08-20T07:46:52Z</time>
      </trkpt>
      <trkpt lat="59.110350608825684" lon="30.49206018447876">
        <time>2026-08-20T07:46:54Z</time>
      </trkpt>
      <trkpt lat="59.110329151153564" lon="30.491974353790283">
        <time>2026-08-20T07:46:57Z</time>
      </trkpt>
      <trkpt lat="59.110307693481445" lon="30.491824150085449">
        <time>2026-08-20T07:46:59Z</time>
      </trkpt>
      <trkpt lat="59.110307693481445" lon="30.491716861724854">
        <time>2026-08-20T07:47:02Z</time>
      </trkpt>
      <trkpt lat="59.110307693481445" lon="30.491631031036377">
        <time>2026-08-20T07:47:04Z</time>
      </trkpt>
      <trkpt lat="59.110307693481445" lon="30.491631031036377">
        <time>2026-08-20T07:47:07Z</time>
      </trkpt>
      <trkpt lat="59.110307693481445" lon="30.491588115692139">
        <time>2026-08-20T07:47:09Z</time>
      </trkpt>
      <trkpt lat="59.110329151153564" lon="30.491523742675781">
        <time>2026-08-20T07:47:12Z</time>
      </trkpt>
      <trkpt lat="59.110329151153564" lon="30.491502285003662">
        <time>2026-08-20T07:47:14Z</time>
      </trkpt>
      <trkpt lat="59.110329151153564" lon="30.491502285003662">
        <time>2026-08-20T07:47:17Z</time>
      </trkpt>
      <trkpt lat="59.110329151153564" lon="30.491502285003662">
        <time>2026-08-20T07:47:19Z</time>
      </trkpt>
      <trkpt lat="59.110350608825684" lon="30.491416454315186">
        <time>2026-08-20T07:47:22Z</time>
      </trkpt>
      <trkpt lat="59.110350608825684" lon="30.491352081298828">
        <time>2026-08-20T07:47:24Z</time>
      </trkpt>
      <trkpt lat="59.110350608825684" lon="30.491352081298828">
        <time>2026-08-20T07:47:27Z</time>
      </trkpt>
      <trkpt lat="59.110350608825684" lon="30.491352081298828">
        <time>2026-08-20T07:47:29Z</time>
      </trkpt>
      <trkpt lat="59.110350608825684" lon="30.491352081298828">
        <time>2026-08-20T07:47:32Z</time>
      </trkpt>
      <trkpt lat="59.110350608825684" lon="30.491352081298828">
        <time>2026-08-20T07:47:34Z</time>
      </trkpt>
      <trkpt lat="59.110350608825684" lon="30.491352081298828">
        <time>2026-08-20T07:47:37Z</time>
      </trkpt>
      <trkpt lat="59.110350608825684" lon="30.491352081298828">
        <time>2026-08-20T07:47:39Z</time>
      </trkpt>
      <trkpt lat="59.110350608825684" lon="30.491352081298828">
        <time>2026-08-20T07:47:42Z</time>
      </trkpt>
      <trkpt lat="59.110350608825684" lon="30.491352081298828">
        <time>2026-08-20T07:47:44Z</time>
      </trkpt>
      <trkpt lat="59.110350608825684" lon="30.491352081298828">
        <time>2026-08-20T07:47:47Z</time>
      </trkpt>
      <trkpt lat="59.110350608825684" lon="30.491352081298828">
        <time>2026-08-20T07:47:49Z</time>
      </trkpt>
      <trkpt lat="59.110350608825684" lon="30.491352081298828">
        <time>2026-08-20T07:47:52Z</time>
      </trkpt>
      <trkpt lat="59.110350608825684" lon="30.491287708282471">
        <time>2026-08-20T07:47:54Z</time>
      </trkpt>
      <trkpt lat="59.110329151153564" lon="30.491223335266113">
        <time>2026-08-20T07:47:57Z</time>
      </trkpt>
      <trkpt lat="59.110329151153564" lon="30.491223335266113">
        <time>2026-08-20T07:47:59Z</time>
      </trkpt>
      <trkpt lat="59.110329151153564" lon="30.491223335266113">
        <time>2026-08-20T07:48:02Z</time>
      </trkpt>
      <trkpt lat="59.110329151153564" lon="30.491223335266113">
        <time>2026-08-20T07:48:04Z</time>
      </trkpt>
      <trkpt lat="59.110350608825684" lon="30.491180419921875">
        <time>2026-08-20T07:48:07Z</time>
      </trkpt>
      <trkpt lat="59.110350608825684" lon="30.491116046905518">
        <time>2026-08-20T07:48:09Z</time>
      </trkpt>
      <trkpt lat="59.110350608825684" lon="30.491116046905518">
        <time>2026-08-20T07:48:12Z</time>
      </trkpt>
      <trkpt lat="59.110350608825684" lon="30.491116046905518">
        <time>2026-08-20T07:48:14Z</time>
      </trkpt>
      <trkpt lat="59.110350608825684" lon="30.491116046905518">
        <time>2026-08-20T07:48:17Z</time>
      </trkpt>
      <trkpt lat="59.110329151153564" lon="30.490965843200684">
        <time>2026-08-20T07:48:19Z</time>
      </trkpt>
      <trkpt lat="59.110307693481445" lon="30.490858554840088">
        <time>2026-08-20T07:48:22Z</time>
      </trkpt>
      <trkpt lat="59.110264778137207" lon="30.490708351135254">
        <time>2026-08-20T07:48:24Z</time>
      </trkpt>
      <trkpt lat="59.110264778137207" lon="30.490708351135254">
        <time>2026-08-20T07:48:27Z</time>
      </trkpt>
      <trkpt lat="59.110264778137207" lon="30.490536689758301">
        <time>2026-08-20T07:48:29Z</time>
      </trkpt>
      <trkpt lat="59.110286235809326" lon="30.490472316741943">
        <time>2026-08-20T07:48:32Z</time>
      </trkpt>
      <trkpt lat="59.110307693481445" lon="30.490450859069824">
        <time>2026-08-20T07:48:34Z</time>
      </trkpt>
      <trkpt lat="59.110329151153564" lon="30.490429401397705">
        <time>2026-08-20T07:48:37Z</time>
      </trkpt>
      <trkpt lat="59.110350608825684" lon="30.490407943725586">
        <time>2026-08-20T07:48:39Z</time>
      </trkpt>
      <trkpt lat="59.110350608825684" lon="30.490407943725586">
        <time>2026-08-20T07:48:42Z</time>
      </trkpt>
      <trkpt lat="59.110372066497803" lon="30.490365028381348">
        <time>2026-08-20T07:48:44Z</time>
      </trkpt>
      <trkpt lat="59.110372066497803" lon="30.490365028381348">
        <time>2026-08-20T07:48:47Z</time>
      </trkpt>
      <trkpt lat="59.110350608825684" lon="30.490343570709229">
        <time>2026-08-20T07:48:49Z</time>
      </trkpt>
      <trkpt lat="59.110350608825684" lon="30.490343570709229">
        <time>2026-08-20T07:48:52Z</time>
      </trkpt>
      <trkpt lat="59.110350608825684" lon="30.490343570709229">
        <time>2026-08-20T07:48:54Z</time>
      </trkpt>
      <trkpt lat="59.110350608825684" lon="30.490343570709229">
        <time>2026-08-20T07:48:57Z</time>
      </trkpt>
      <trkpt lat="59.110372066497803" lon="30.49030065536499">
        <time>2026-08-20T07:48:59Z</time>
      </trkpt>
      <trkpt lat="59.110393524169922" lon="30.490236282348633">
        <time>2026-08-20T07:49:02Z</time>
      </trkpt>
      <trkpt lat="59.110393524169922" lon="30.490171909332275">
        <time>2026-08-20T07:49:04Z</time>
      </trkpt>
      <trkpt lat="59.110393524169922" lon="30.490150451660156">
        <time>2026-08-20T07:49:07Z</time>
      </trkpt>
      <trkpt lat="59.110350608825684" lon="30.490107536315918">
        <time>2026-08-20T07:49:09Z</time>
      </trkpt>
      <trkpt lat="59.110329151153564" lon="30.490086078643799">
        <time>2026-08-20T07:49:12Z</time>
      </trkpt>
      <trkpt lat="59.110350608825684" lon="30.490021705627441">
        <time>2026-08-20T07:49:14Z</time>
      </trkpt>
      <trkpt lat="59.110350608825684" lon="30.490021705627441">
        <time>2026-08-20T07:49:17Z</time>
      </trkpt>
      <trkpt lat="59.110329151153564" lon="30.490000247955322">
        <time>2026-08-20T07:49:19Z</time>
      </trkpt>
      <trkpt lat="59.110329151153564" lon="30.490000247955322">
        <time>2026-08-20T07:49:22Z</time>
      </trkpt>
      <trkpt lat="59.110329151153564" lon="30.490000247955322">
        <time>2026-08-20T07:49:24Z</time>
      </trkpt>
      <trkpt lat="59.110329151153564" lon="30.490000247955322">
        <time>2026-08-20T07:49:27Z</time>
      </trkpt>
      <trkpt lat="59.110329151153564" lon="30.490000247955322">
        <time>2026-08-20T07:49:29Z</time>
      </trkpt>
      <trkpt lat="59.110329151153564" lon="30.490000247955322">
        <time>2026-08-20T07:49:32Z</time>
      </trkpt>
      <trkpt lat="59.110329151153564" lon="30.489978790283203">
        <time>2026-08-20T07:49:34Z</time>
      </trkpt>
      <trkpt lat="59.110329151153564" lon="30.489957332611084">
        <time>2026-08-20T07:49:37Z</time>
      </trkpt>
      <trkpt lat="59.110329151153564" lon="30.489914417266846">
        <time>2026-08-20T07:49:39Z</time>
      </trkpt>
      <trkpt lat="59.110329151153564" lon="30.489892959594727">
        <time>2026-08-20T07:49:42Z</time>
      </trkpt>
      <trkpt lat="59.110329151153564" lon="30.489871501922607">
        <time>2026-08-20T07:49:44Z</time>
      </trkpt>
      <trkpt lat="59.110329151153564" lon="30.489871501922607">
        <time>2026-08-20T07:49:47Z</time>
      </trkpt>
      <trkpt lat="59.110329151153564" lon="30.489871501922607">
        <time>2026-08-20T07:49:49Z</time>
      </trkpt>
      <trkpt lat="59.110329151153564" lon="30.489871501922607">
        <time>2026-08-20T07:49:52Z</time>
      </trkpt>
      <trkpt lat="59.110329151153564" lon="30.489871501922607">
        <time>2026-08-20T07:49:54Z</time>
      </trkpt>
      <trkpt lat="59.110329151153564" lon="30.489871501922607">
        <time>2026-08-20T07:49:57Z</time>
      </trkpt>
      <trkpt lat="59.110350608825684" lon="30.489828586578369">
        <time>2026-08-20T07:49:59Z</time>
      </trkpt>
      <trkpt lat="59.110372066497803" lon="30.48980712890625">
        <time>2026-08-20T07:50:02Z</time>
      </trkpt>
      <trkpt lat="59.110372066497803" lon="30.48980712890625">
        <time>2026-08-20T07:50:04Z</time>
      </trkpt>
      <trkpt lat="59.110393524169922" lon="30.489764213562012">
        <time>2026-08-20T07:50:07Z</time>
      </trkpt>
      <trkpt lat="59.110393524169922" lon="30.489764213562012">
        <time>2026-08-20T07:50:09Z</time>
      </trkpt>
      <trkpt lat="59.110393524169922" lon="30.489764213562012">
        <time>2026-08-20T07:50:12Z</time>
      </trkpt>
      <trkpt lat="59.110457897186279" lon="30.489721298217773">
        <time>2026-08-20T07:50:14Z</time>
      </trkpt>
      <trkpt lat="59.110457897186279" lon="30.489721298217773">
        <time>2026-08-20T07:50:17Z</time>
      </trkpt>
      <trkpt lat="59.110457897186279" lon="30.489721298217773">
        <time>2026-08-20T07:50:19Z</time>
      </trkpt>
      <trkpt lat="59.110457897186279" lon="30.489721298217773">
        <time>2026-08-20T07:50:22Z</time>
      </trkpt>
      <trkpt lat="59.110393524169922" lon="30.489721298217773">
        <time>2026-08-20T07:50:24Z</time>
      </trkpt>
      <trkpt lat="59.110329151153564" lon="30.489721298217773">
        <time>2026-08-20T07:50:27Z</time>
      </trkpt>
      <trkpt lat="59.110286235809326" lon="30.489656925201416">
        <time>2026-08-20T07:50:29Z</time>
      </trkpt>
      <trkpt lat="59.110286235809326" lon="30.489656925201416">
        <time>2026-08-20T07:50:32Z</time>
      </trkpt>
      <trkpt lat="59.110286235809326" lon="30.489656925201416">
        <time>2026-08-20T07:50:34Z</time>
      </trkpt>
      <trkpt lat="59.110286235809326" lon="30.489635467529297">
        <time>2026-08-20T07:50:37Z</time>
      </trkpt>
      <trkpt lat="59.110243320465088" lon="30.489592552185059">
        <time>2026-08-20T07:50:39Z</time>
      </trkpt>
      <trkpt lat="59.110221862792969" lon="30.489571094512939">
        <time>2026-08-20T07:50:42Z</time>
      </trkpt>
      <trkpt lat="59.11020040512085" lon="30.48954963684082">
        <time>2026-08-20T07:50:44Z</time>
      </trkpt>
      <trkpt lat="59.11017894744873" lon="30.489528179168701">
        <time>2026-08-20T07:50:47Z</time>
      </trkpt>
      <trkpt lat="59.11017894744873" lon="30.489506721496582">
        <time>2026-08-20T07:50:49Z</time>
      </trkpt>
      <trkpt lat="59.11017894744873" lon="30.489506721496582">
        <time>2026-08-20T07:50:52Z</time>
      </trkpt>
      <trkpt lat="59.110157489776611" lon="30.48954963684082">
        <time>2026-08-20T07:50:54Z</time>
      </trkpt>
      <trkpt lat="59.110157489776611" lon="30.48954963684082">
        <time>2026-08-20T07:50:57Z</time>
      </trkpt>
      <trkpt lat="59.110157489776611" lon="30.48954963684082">
        <time>2026-08-20T07:50:59Z</time>
      </trkpt>
      <trkpt lat="59.11017894744873" lon="30.48954963684082">
        <time>2026-08-20T07:51:02Z</time>
      </trkpt>
      <trkpt lat="59.11020040512085" lon="30.48954963684082">
        <time>2026-08-20T07:51:04Z</time>
      </trkpt>
      <trkpt lat="59.110221862792969" lon="30.489528179168701">
        <time>2026-08-20T07:51:07Z</time>
      </trkpt>
      <trkpt lat="59.110221862792969" lon="30.48954963684082">
        <time>2026-08-20T07:51:09Z</time>
      </trkpt>
      <trkpt lat="59.110221862792969" lon="30.48954963684082">
        <time>2026-08-20T07:51:12Z</time>
      </trkpt>
      <trkpt lat="59.110221862792969" lon="30.48954963684082">
        <time>2026-08-20T07:51:14Z</time>
      </trkpt>
      <trkpt lat="59.110221862792969" lon="30.48954963684082">
        <time>2026-08-20T07:51:17Z</time>
      </trkpt>
      <trkpt lat="59.110221862792969" lon="30.48954963684082">
        <time>2026-08-20T07:51:19Z</time>
      </trkpt>
      <trkpt lat="59.110221862792969" lon="30.48954963684082">
        <time>2026-08-20T07:51:22Z</time>
      </trkpt>
      <trkpt lat="59.110221862792969" lon="30.48954963684082">
        <time>2026-08-20T07:51:24Z</time>
      </trkpt>
      <trkpt lat="59.110221862792969" lon="30.48954963684082">
        <time>2026-08-20T07:51:27Z</time>
      </trkpt>
      <trkpt lat="59.110221862792969" lon="30.48954963684082">
        <time>2026-08-20T07:51:29Z</time>
      </trkpt>
      <trkpt lat="59.110221862792969" lon="30.48954963684082">
        <time>2026-08-20T07:51:32Z</time>
      </trkpt>
      <trkpt lat="59.110221862792969" lon="30.48954963684082">
        <time>2026-08-20T07:51:34Z</time>
      </trkpt>
      <trkpt lat="59.110221862792969" lon="30.48954963684082">
        <time>2026-08-20T07:51:37Z</time>
      </trkpt>
      <trkpt lat="59.110221862792969" lon="30.48954963684082">
        <time>2026-08-20T07:51:39Z</time>
      </trkpt>
      <trkpt lat="59.110221862792969" lon="30.48954963684082">
        <time>2026-08-20T07:51:42Z</time>
      </trkpt>
      <trkpt lat="59.110221862792969" lon="30.48954963684082">
        <time>2026-08-20T07:51:44Z</time>
      </trkpt>
      <trkpt lat="59.110221862792969" lon="30.48954963684082">
        <time>2026-08-20T07:51:47Z</time>
      </trkpt>
      <trkpt lat="59.110243320465088" lon="30.48954963684082">
        <time>2026-08-20T07:51:49Z</time>
      </trkpt>
      <trkpt lat="59.110243320465088" lon="30.48954963684082">
        <time>2026-08-20T07:51:52Z</time>
      </trkpt>
      <trkpt lat="59.110243320465088" lon="30.48954963684082">
        <time>2026-08-20T07:51:54Z</time>
      </trkpt>
      <trkpt lat="59.110243320465088" lon="30.48954963684082">
        <time>2026-08-20T07:51:57Z</time>
      </trkpt>
      <trkpt lat="59.110243320465088" lon="30.48954963684082">
        <time>2026-08-20T07:51:59Z</time>
      </trkpt>
      <trkpt lat="59.110243320465088" lon="30.48954963684082">
        <time>2026-08-20T07:52:02Z</time>
      </trkpt>
      <trkpt lat="59.110243320465088" lon="30.48954963684082">
        <time>2026-08-20T07:52:04Z</time>
      </trkpt>
      <trkpt lat="59.110243320465088" lon="30.48954963684082">
        <time>2026-08-20T07:52:07Z</time>
      </trkpt>
      <trkpt lat="59.110243320465088" lon="30.48954963684082">
        <time>2026-08-20T07:52:09Z</time>
      </trkpt>
      <trkpt lat="59.110243320465088" lon="30.48954963684082">
        <time>2026-08-20T07:52:12Z</time>
      </trkpt>
      <trkpt lat="59.110243320465088" lon="30.48954963684082">
        <time>2026-08-20T07:52:14Z</time>
      </trkpt>
      <trkpt lat="59.110243320465088" lon="30.48954963684082">
        <time>2026-08-20T07:52:17Z</time>
      </trkpt>
      <trkpt lat="59.110243320465088" lon="30.489528179168701">
        <time>2026-08-20T07:52:19Z</time>
      </trkpt>
      <trkpt lat="59.110243320465088" lon="30.489506721496582">
        <time>2026-08-20T07:52:22Z</time>
      </trkpt>
      <trkpt lat="59.110243320465088" lon="30.489506721496582">
        <time>2026-08-20T07:52:24Z</time>
      </trkpt>
      <trkpt lat="59.110221862792969" lon="30.489485263824463">
        <time>2026-08-20T07:52:27Z</time>
      </trkpt>
      <trkpt lat="59.110221862792969" lon="30.489463806152344">
        <time>2026-08-20T07:52:29Z</time>
      </trkpt>
      <trkpt lat="59.110221862792969" lon="30.489442348480225">
        <time>2026-08-20T07:52:32Z</time>
      </trkpt>
      <trkpt lat="59.110221862792969" lon="30.489442348480225">
        <time>2026-08-20T07:52:34Z</time>
      </trkpt>
      <trkpt lat="59.110221862792969" lon="30.489442348480225">
        <time>2026-08-20T07:52:37Z</time>
      </trkpt>
      <trkpt lat="59.110221862792969" lon="30.489442348480225">
        <time>2026-08-20T07:52:39Z</time>
      </trkpt>
      <trkpt lat="59.110221862792969" lon="30.489442348480225">
        <time>2026-08-20T07:52:42Z</time>
      </trkpt>
      <trkpt lat="59.110221862792969" lon="30.489442348480225">
        <time>2026-08-20T07:52:44Z</time>
      </trkpt>
      <trkpt lat="59.110221862792969" lon="30.489442348480225">
        <time>2026-08-20T07:52:47Z</time>
      </trkpt>
      <trkpt lat="59.110221862792969" lon="30.489442348480225">
        <time>2026-08-20T07:52:49Z</time>
      </trkpt>
      <trkpt lat="59.110221862792969" lon="30.489442348480225">
        <time>2026-08-20T07:52:52Z</time>
      </trkpt>
      <trkpt lat="59.110221862792969" lon="30.489442348480225">
        <time>2026-08-20T07:52:54Z</time>
      </trkpt>
      <trkpt lat="59.110243320465088" lon="30.489442348480225">
        <time>2026-08-20T07:52:57Z</time>
      </trkpt>
      <trkpt lat="59.110243320465088" lon="30.489442348480225">
        <time>2026-08-20T07:52:59Z</time>
      </trkpt>
      <trkpt lat="59.110264778137207" lon="30.489420890808105">
        <time>2026-08-20T07:53:02Z</time>
      </trkpt>
      <trkpt lat="59.110264778137207" lon="30.489420890808105">
        <time>2026-08-20T07:53:04Z</time>
      </trkpt>
      <trkpt lat="59.110264778137207" lon="30.489420890808105">
        <time>2026-08-20T07:53:07Z</time>
      </trkpt>
      <trkpt lat="59.110264778137207" lon="30.489420890808105">
        <time>2026-08-20T07:53:09Z</time>
      </trkpt>
      <trkpt lat="59.110264778137207" lon="30.489420890808105">
        <time>2026-08-20T07:53:12Z</time>
      </trkpt>
      <trkpt lat="59.110264778137207" lon="30.489420890808105">
        <time>2026-08-20T07:53:14Z</time>
      </trkpt>
      <trkpt lat="59.110264778137207" lon="30.489420890808105">
        <time>2026-08-20T07:53:17Z</time>
      </trkpt>
      <trkpt lat="59.110264778137207" lon="30.489377975463867">
        <time>2026-08-20T07:53:19Z</time>
      </trkpt>
      <trkpt lat="59.110264778137207" lon="30.489377975463867">
        <time>2026-08-20T07:53:22Z</time>
      </trkpt>
      <trkpt lat="59.110264778137207" lon="30.489377975463867">
        <time>2026-08-20T07:53:24Z</time>
      </trkpt>
      <trkpt lat="59.110264778137207" lon="30.489377975463867">
        <time>2026-08-20T07:53:27Z</time>
      </trkpt>
      <trkpt lat="59.110264778137207" lon="30.489377975463867">
        <time>2026-08-20T07:53:29Z</time>
      </trkpt>
      <trkpt lat="59.110264778137207" lon="30.489377975463867">
        <time>2026-08-20T07:53:32Z</time>
      </trkpt>
      <trkpt lat="59.110264778137207" lon="30.489377975463867">
        <time>2026-08-20T07:53:34Z</time>
      </trkpt>
      <trkpt lat="59.110264778137207" lon="30.489377975463867">
        <time>2026-08-20T07:53:37Z</time>
      </trkpt>
      <trkpt lat="59.110264778137207" lon="30.489377975463867">
        <time>2026-08-20T07:53:39Z</time>
      </trkpt>
      <trkpt lat="59.110264778137207" lon="30.489377975463867">
        <time>2026-08-20T07:53:42Z</time>
      </trkpt>
      <trkpt lat="59.110264778137207" lon="30.489377975463867">
        <time>2026-08-20T07:53:44Z</time>
      </trkpt>
      <trkpt lat="59.110264778137207" lon="30.489377975463867">
        <time>2026-08-20T07:53:47Z</time>
      </trkpt>
      <trkpt lat="59.110264778137207" lon="30.489377975463867">
        <time>2026-08-20T07:53:49Z</time>
      </trkpt>
      <trkpt lat="59.110264778137207" lon="30.489377975463867">
        <time>2026-08-20T07:53:52Z</time>
      </trkpt>
      <trkpt lat="59.110264778137207" lon="30.489377975463867">
        <time>2026-08-20T07:53:54Z</time>
      </trkpt>
      <trkpt lat="59.110264778137207" lon="30.489356517791748">
        <time>2026-08-20T07:53:57Z</time>
      </trkpt>
      <trkpt lat="59.110264778137207" lon="30.489270687103271">
        <time>2026-08-20T07:53:59Z</time>
      </trkpt>
      <trkpt lat="59.110264778137207" lon="30.489270687103271">
        <time>2026-08-20T07:54:02Z</time>
      </trkpt>
      <trkpt lat="59.110264778137207" lon="30.489270687103271">
        <time>2026-08-20T07:54:04Z</time>
      </trkpt>
      <trkpt lat="59.110264778137207" lon="30.489270687103271">
        <time>2026-08-20T07:54:07Z</time>
      </trkpt>
      <trkpt lat="59.110243320465088" lon="30.489227771759033">
        <time>2026-08-20T07:54:09Z</time>
      </trkpt>
      <trkpt lat="59.110221862792969" lon="30.48905611038208">
        <time>2026-08-20T07:54:14Z</time>
      </trkpt>
      <trkpt lat="59.110221862792969" lon="30.48905611038208">
        <time>2026-08-20T07:54:17Z</time>
      </trkpt>
      <trkpt lat="59.110221862792969" lon="30.488970279693604">
        <time>2026-08-20T07:54:19Z</time>
      </trkpt>
      <trkpt lat="59.110221862792969" lon="30.488927364349365">
        <time>2026-08-20T07:54:22Z</time>
      </trkpt>
      <trkpt lat="59.110221862792969" lon="30.488884449005127">
        <time>2026-08-20T07:54:24Z</time>
      </trkpt>
      <trkpt lat="59.110221862792969" lon="30.48882007598877">
        <time>2026-08-20T07:54:27Z</time>
      </trkpt>
      <trkpt lat="59.110243320465088" lon="30.488755702972412">
        <time>2026-08-20T07:54:29Z</time>
      </trkpt>
      <trkpt lat="59.110264778137207" lon="30.488712787628174">
        <time>2026-08-20T07:54:32Z</time>
      </trkpt>
      <trkpt lat="59.110264778137207" lon="30.488648414611816">
        <time>2026-08-20T07:54:34Z</time>
      </trkpt>
      <trkpt lat="59.110286235809326" lon="30.488626956939697">
        <time>2026-08-20T07:54:37Z</time>
      </trkpt>
      <trkpt lat="59.110329151153564" lon="30.48856258392334">
        <time>2026-08-20T07:54:42Z</time>
      </trkpt>
      <trkpt lat="59.110329151153564" lon="30.488519668579102">
        <time>2026-08-20T07:54:44Z</time>
      </trkpt>
      <trkpt lat="59.110329151153564" lon="30.488498210906982">
        <time>2026-08-20T07:54:47Z</time>
      </trkpt>
      <trkpt lat="59.110350608825684" lon="30.488455295562744">
        <time>2026-08-20T07:54:49Z</time>
      </trkpt>
      <trkpt lat="59.110350608825684" lon="30.488412380218506">
        <time>2026-08-20T07:54:52Z</time>
      </trkpt>
      <trkpt lat="59.110372066497803" lon="30.488369464874268">
        <time>2026-08-20T07:54:54Z</time>
      </trkpt>
      <trkpt lat="59.110350608825684" lon="30.488348007202148">
        <time>2026-08-20T07:54:57Z</time>
      </trkpt>
      <trkpt lat="59.110350608825684" lon="30.488326549530029">
        <time>2026-08-20T07:54:59Z</time>
      </trkpt>
      <trkpt lat="59.110329151153564" lon="30.48830509185791">
        <time>2026-08-20T07:55:02Z</time>
      </trkpt>
      <trkpt lat="59.110307693481445" lon="30.48830509185791">
        <time>2026-08-20T07:55:04Z</time>
      </trkpt>
      <trkpt lat="59.110307693481445" lon="30.488262176513672">
        <time>2026-08-20T07:55:07Z</time>
      </trkpt>
      <trkpt lat="59.110307693481445" lon="30.488262176513672">
        <time>2026-08-20T07:55:09Z</time>
      </trkpt>
      <trkpt lat="59.110307693481445" lon="30.488262176513672">
        <time>2026-08-20T07:55:12Z</time>
      </trkpt>
      <trkpt lat="59.110307693481445" lon="30.488219261169434">
        <time>2026-08-20T07:55:14Z</time>
      </trkpt>
      <trkpt lat="59.110307693481445" lon="30.488197803497314">
        <time>2026-08-20T07:55:17Z</time>
      </trkpt>
      <trkpt lat="59.110307693481445" lon="30.488154888153076">
        <time>2026-08-20T07:55:19Z</time>
      </trkpt>
      <trkpt lat="59.110286235809326" lon="30.488111972808838">
        <time>2026-08-20T07:55:22Z</time>
      </trkpt>
      <trkpt lat="59.110286235809326" lon="30.48804759979248">
        <time>2026-08-20T07:55:24Z</time>
      </trkpt>
      <trkpt lat="59.110307693481445" lon="30.48804759979248">
        <time>2026-08-20T07:55:27Z</time>
      </trkpt>
      <trkpt lat="59.110307693481445" lon="30.48804759979248">
        <time>2026-08-20T07:55:29Z</time>
      </trkpt>
      <trkpt lat="59.110307693481445" lon="30.488004684448242">
        <time>2026-08-20T07:55:32Z</time>
      </trkpt>
      <trkpt lat="59.110307693481445" lon="30.487983226776123">
        <time>2026-08-20T07:55:34Z</time>
      </trkpt>
      <trkpt lat="59.110307693481445" lon="30.487983226776123">
        <time>2026-08-20T07:55:37Z</time>
      </trkpt>
      <trkpt lat="59.110307693481445" lon="30.487918853759766">
        <time>2026-08-20T07:55:39Z</time>
      </trkpt>
      <trkpt lat="59.110329151153564" lon="30.487875938415527">
        <time>2026-08-20T07:55:42Z</time>
      </trkpt>
      <trkpt lat="59.110329151153564" lon="30.487790107727051">
        <time>2026-08-20T07:55:44Z</time>
      </trkpt>
      <trkpt lat="59.110329151153564" lon="30.487768650054932">
        <time>2026-08-20T07:55:47Z</time>
      </trkpt>
      <trkpt lat="59.110329151153564" lon="30.487768650054932">
        <time>2026-08-20T07:55:49Z</time>
      </trkpt>
      <trkpt lat="59.110350608825684" lon="30.487725734710693">
        <time>2026-08-20T07:55:52Z</time>
      </trkpt>
      <trkpt lat="59.110350608825684" lon="30.487704277038574">
        <time>2026-08-20T07:55:54Z</time>
      </trkpt>
      <trkpt lat="59.110350608825684" lon="30.487682819366455">
        <time>2026-08-20T07:55:57Z</time>
      </trkpt>
      <trkpt lat="59.110350608825684" lon="30.487618446350098">
        <time>2026-08-20T07:55:59Z</time>
      </trkpt>
      <trkpt lat="59.110350608825684" lon="30.487596988677979">
        <time>2026-08-20T07:56:02Z</time>
      </trkpt>
      <trkpt lat="59.110350608825684" lon="30.487596988677979">
        <time>2026-08-20T07:56:04Z</time>
      </trkpt>
      <trkpt lat="59.110350608825684" lon="30.487596988677979">
        <time>2026-08-20T07:56:07Z</time>
      </trkpt>
      <trkpt lat="59.110350608825684" lon="30.487596988677979">
        <time>2026-08-20T07:56:09Z</time>
      </trkpt>
      <trkpt lat="59.110350608825684" lon="30.487596988677979">
        <time>2026-08-20T07:56:12Z</time>
      </trkpt>
      <trkpt lat="59.110350608825684" lon="30.487596988677979">
        <time>2026-08-20T07:56:14Z</time>
      </trkpt>
      <trkpt lat="59.110350608825684" lon="30.487596988677979">
        <time>2026-08-20T07:56:17Z</time>
      </trkpt>
      <trkpt lat="59.110350608825684" lon="30.487596988677979">
        <time>2026-08-20T07:56:19Z</time>
      </trkpt>
      <trkpt lat="59.110350608825684" lon="30.487596988677979">
        <time>2026-08-20T07:56:22Z</time>
      </trkpt>
      <trkpt lat="59.110350608825684" lon="30.487596988677979">
        <time>2026-08-20T07:56:24Z</time>
      </trkpt>
      <trkpt lat="59.110372066497803" lon="30.48755407333374">
        <time>2026-08-20T07:56:27Z</time>
      </trkpt>
      <trkpt lat="59.110372066497803" lon="30.487511157989502">
        <time>2026-08-20T07:56:29Z</time>
      </trkpt>
      <trkpt lat="59.110372066497803" lon="30.487446784973145">
        <time>2026-08-20T07:56:32Z</time>
      </trkpt>
      <trkpt lat="59.110393524169922" lon="30.487425327301025">
        <time>2026-08-20T07:56:34Z</time>
      </trkpt>
      <trkpt lat="59.110393524169922" lon="30.487425327301025">
        <time>2026-08-20T07:56:37Z</time>
      </trkpt>
      <trkpt lat="59.110350608825684" lon="30.487382411956787">
        <time>2026-08-20T07:56:39Z</time>
      </trkpt>
      <trkpt lat="59.110329151153564" lon="30.487360954284668">
        <time>2026-08-20T07:56:42Z</time>
      </trkpt>
      <trkpt lat="59.110286235809326" lon="30.487296581268311">
        <time>2026-08-20T07:56:44Z</time>
      </trkpt>
      <trkpt lat="59.110264778137207" lon="30.487275123596191">
        <time>2026-08-20T07:56:47Z</time>
      </trkpt>
      <trkpt lat="59.110264778137207" lon="30.487275123596191">
        <time>2026-08-20T07:56:49Z</time>
      </trkpt>
      <trkpt lat="59.110286235809326" lon="30.487253665924072">
        <time>2026-08-20T07:56:52Z</time>
      </trkpt>
      <trkpt lat="59.110264778137207" lon="30.487189292907715">
        <time>2026-08-20T07:56:54Z</time>
      </trkpt>
      <trkpt lat="59.110243320465088" lon="30.487146377563477">
        <time>2026-08-20T07:56:57Z</time>
      </trkpt>
      <trkpt lat="59.110243320465088" lon="30.487124919891357">
        <time>2026-08-20T07:56:59Z</time>
      </trkpt>
      <trkpt lat="59.110221862792969" lon="30.487060546875">
        <time>2026-08-20T07:57:02Z</time>
      </trkpt>
      <trkpt lat="59.11020040512085" lon="30.487017631530762">
        <time>2026-08-20T07:57:04Z</time>
      </trkpt>
      <trkpt lat="59.11020040512085" lon="30.486974716186523">
        <time>2026-08-20T07:57:07Z</time>
      </trkpt>
      <trkpt lat="59.11017894744873" lon="30.486910343170166">
        <time>2026-08-20T07:57:09Z</time>
      </trkpt>
      <trkpt lat="59.11017894744873" lon="30.486888885498047">
        <time>2026-08-20T07:57:12Z</time>
      </trkpt>
      <trkpt lat="59.11020040512085" lon="30.486824512481689">
        <time>2026-08-20T07:57:14Z</time>
      </trkpt>
      <trkpt lat="59.110221862792969" lon="30.486781597137451">
        <time>2026-08-20T07:57:17Z</time>
      </trkpt>
      <trkpt lat="59.11020040512085" lon="30.486760139465332">
        <time>2026-08-20T07:57:19Z</time>
      </trkpt>
      <trkpt lat="59.11020040512085" lon="30.486738681793213">
        <time>2026-08-20T07:57:22Z</time>
      </trkpt>
      <trkpt lat="59.110221862792969" lon="30.486695766448975">
        <time>2026-08-20T07:57:24Z</time>
      </trkpt>
      <trkpt lat="59.110221862792969" lon="30.486652851104736">
        <time>2026-08-20T07:57:27Z</time>
      </trkpt>
      <trkpt lat="59.110221862792969" lon="30.486652851104736">
        <time>2026-08-20T07:57:29Z</time>
      </trkpt>
      <trkpt lat="59.11020040512085" lon="30.486695766448975">
        <time>2026-08-20T07:57:32Z</time>
      </trkpt>
      <trkpt lat="59.11017894744873" lon="30.486631393432617">
        <time>2026-08-20T07:57:34Z</time>
      </trkpt>
      <trkpt lat="59.11017894744873" lon="30.48656702041626">
        <time>2026-08-20T07:57:37Z</time>
      </trkpt>
      <trkpt lat="59.11017894744873" lon="30.486524105072021">
        <time>2026-08-20T07:57:39Z</time>
      </trkpt>
      <trkpt lat="59.11017894744873" lon="30.486502647399902">
        <time>2026-08-20T07:57:42Z</time>
      </trkpt>
      <trkpt lat="59.11017894744873" lon="30.486481189727783">
        <time>2026-08-20T07:57:44Z</time>
      </trkpt>
      <trkpt lat="59.11017894744873" lon="30.486481189727783">
        <time>2026-08-20T07:57:47Z</time>
      </trkpt>
      <trkpt lat="59.11017894744873" lon="30.486481189727783">
        <time>2026-08-20T07:57:49Z</time>
      </trkpt>
      <trkpt lat="59.11017894744873" lon="30.486416816711426">
        <time>2026-08-20T07:57:52Z</time>
      </trkpt>
      <trkpt lat="59.11017894744873" lon="30.486352443695068">
        <time>2026-08-20T07:57:54Z</time>
      </trkpt>
      <trkpt lat="59.11017894744873" lon="30.486330986022949">
        <time>2026-08-20T07:57:57Z</time>
      </trkpt>
      <trkpt lat="59.110157489776611" lon="30.486266613006592">
        <time>2026-08-20T07:57:59Z</time>
      </trkpt>
      <trkpt lat="59.110157489776611" lon="30.486266613006592">
        <time>2026-08-20T07:58:02Z</time>
      </trkpt>
      <trkpt lat="59.110157489776611" lon="30.486266613006592">
        <time>2026-08-20T07:58:04Z</time>
      </trkpt>
      <trkpt lat="59.110157489776611" lon="30.486266613006592">
        <time>2026-08-20T07:58:07Z</time>
      </trkpt>
      <trkpt lat="59.110157489776611" lon="30.486266613006592">
        <time>2026-08-20T07:58:09Z</time>
      </trkpt>
      <trkpt lat="59.110157489776611" lon="30.486266613006592">
        <time>2026-08-20T07:58:12Z</time>
      </trkpt>
      <trkpt lat="59.110157489776611" lon="30.486266613006592">
        <time>2026-08-20T07:58:14Z</time>
      </trkpt>
      <trkpt lat="59.110157489776611" lon="30.486266613006592">
        <time>2026-08-20T07:58:17Z</time>
      </trkpt>
      <trkpt lat="59.110157489776611" lon="30.486266613006592">
        <time>2026-08-20T07:58:19Z</time>
      </trkpt>
      <trkpt lat="59.110157489776611" lon="30.486266613006592">
        <time>2026-08-20T07:58:22Z</time>
      </trkpt>
      <trkpt lat="59.110157489776611" lon="30.486266613006592">
        <time>2026-08-20T07:58:24Z</time>
      </trkpt>
      <trkpt lat="59.110157489776611" lon="30.486266613006592">
        <time>2026-08-20T07:58:27Z</time>
      </trkpt>
      <trkpt lat="59.110157489776611" lon="30.486288070678711">
        <time>2026-08-20T07:58:29Z</time>
      </trkpt>
      <trkpt lat="59.110136032104492" lon="30.48630952835083">
        <time>2026-08-20T07:58:32Z</time>
      </trkpt>
      <trkpt lat="59.110136032104492" lon="30.486330986022949">
        <time>2026-08-20T07:58:34Z</time>
      </trkpt>
      <trkpt lat="59.110136032104492" lon="30.486330986022949">
        <time>2026-08-20T07:58:37Z</time>
      </trkpt>
      <trkpt lat="59.110136032104492" lon="30.486330986022949">
        <time>2026-08-20T07:58:39Z</time>
      </trkpt>
      <trkpt lat="59.110136032104492" lon="30.486330986022949">
        <time>2026-08-20T07:58:42Z</time>
      </trkpt>
      <trkpt lat="59.110136032104492" lon="30.486330986022949">
        <time>2026-08-20T07:58:44Z</time>
      </trkpt>
      <trkpt lat="59.110136032104492" lon="30.486330986022949">
        <time>2026-08-20T07:58:47Z</time>
      </trkpt>
      <trkpt lat="59.110136032104492" lon="30.486330986022949">
        <time>2026-08-20T07:58:49Z</time>
      </trkpt>
      <trkpt lat="59.110136032104492" lon="30.486330986022949">
        <time>2026-08-20T07:58:52Z</time>
      </trkpt>
      <trkpt lat="59.110136032104492" lon="30.486330986022949">
        <time>2026-08-20T07:58:54Z</time>
      </trkpt>
      <trkpt lat="59.110136032104492" lon="30.486330986022949">
        <time>2026-08-20T07:58:57Z</time>
      </trkpt>
      <trkpt lat="59.110136032104492" lon="30.486330986022949">
        <time>2026-08-20T07:58:59Z</time>
      </trkpt>
      <trkpt lat="59.110136032104492" lon="30.486330986022949">
        <time>2026-08-20T07:59:02Z</time>
      </trkpt>
      <trkpt lat="59.110136032104492" lon="30.48630952835083">
        <time>2026-08-20T07:59:04Z</time>
      </trkpt>
      <trkpt lat="59.110136032104492" lon="30.486245155334473">
        <time>2026-08-20T07:59:07Z</time>
      </trkpt>
      <trkpt lat="59.110157489776611" lon="30.486202239990234">
        <time>2026-08-20T07:59:09Z</time>
      </trkpt>
      <trkpt lat="59.11017894744873" lon="30.486159324645996">
        <time>2026-08-20T07:59:12Z</time>
      </trkpt>
      <trkpt lat="59.110221862792969" lon="30.486159324645996">
        <time>2026-08-20T07:59:14Z</time>
      </trkpt>
      <trkpt lat="59.110221862792969" lon="30.486159324645996">
        <time>2026-08-20T07:59:17Z</time>
      </trkpt>
      <trkpt lat="59.110243320465088" lon="30.486137866973877">
        <time>2026-08-20T07:59:19Z</time>
      </trkpt>
      <trkpt lat="59.110243320465088" lon="30.486137866973877">
        <time>2026-08-20T07:59:22Z</time>
      </trkpt>
      <trkpt lat="59.110243320465088" lon="30.486137866973877">
        <time>2026-08-20T07:59:24Z</time>
      </trkpt>
      <trkpt lat="59.110243320465088" lon="30.486137866973877">
        <time>2026-08-20T07:59:27Z</time>
      </trkpt>
      <trkpt lat="59.110243320465088" lon="30.486137866973877">
        <time>2026-08-20T07:59:29Z</time>
      </trkpt>
      <trkpt lat="59.110243320465088" lon="30.48607349395752">
        <time>2026-08-20T07:59:32Z</time>
      </trkpt>
      <trkpt lat="59.110243320465088" lon="30.4860520362854">
        <time>2026-08-20T07:59:34Z</time>
      </trkpt>
      <trkpt lat="59.110243320465088" lon="30.485987663269043">
        <time>2026-08-20T07:59:37Z</time>
      </trkpt>
      <trkpt lat="59.110243320465088" lon="30.485901832580566">
        <time>2026-08-20T07:59:39Z</time>
      </trkpt>
      <trkpt lat="59.110243320465088" lon="30.485858917236328">
        <time>2026-08-20T07:59:42Z</time>
      </trkpt>
      <trkpt lat="59.110243320465088" lon="30.485794544219971">
        <time>2026-08-20T07:59:44Z</time>
      </trkpt>
      <trkpt lat="59.110243320465088" lon="30.485751628875732">
        <time>2026-08-20T07:59:47Z</time>
      </trkpt>
      <trkpt lat="59.110264778137207" lon="30.485687255859375">
        <time>2026-08-20T07:59:49Z</time>
      </trkpt>
      <trkpt lat="59.110264778137207" lon="30.485644340515137">
        <time>2026-08-20T07:59:52Z</time>
      </trkpt>
      <trkpt lat="59.110286235809326" lon="30.485601425170898">
        <time>2026-08-20T07:59:54Z</time>
      </trkpt>
      <trkpt lat="59.110286235809326" lon="30.485601425170898">
        <time>2026-08-20T07:59:57Z</time>
      </trkpt>
      <trkpt lat="59.110286235809326" lon="30.485601425170898">
        <time>2026-08-20T07:59:59Z</time>
      </trkpt>
      <trkpt lat="59.110286235809326" lon="30.485579967498779">
        <time>2026-08-20T08:00:02Z</time>
      </trkpt>
      <trkpt lat="59.110264778137207" lon="30.485515594482422">
        <time>2026-08-20T08:00:04Z</time>
      </trkpt>
      <trkpt lat="59.110264778137207" lon="30.485451221466064">
        <time>2026-08-20T08:00:07Z</time>
      </trkpt>
      <trkpt lat="59.110286235809326" lon="30.485408306121826">
        <time>2026-08-20T08:00:09Z</time>
      </trkpt>
      <trkpt lat="59.110307693481445" lon="30.485408306121826">
        <time>2026-08-20T08:00:12Z</time>
      </trkpt>
      <trkpt lat="59.110329151153564" lon="30.485343933105469">
        <time>2026-08-20T08:00:14Z</time>
      </trkpt>
      <trkpt lat="59.110329151153564" lon="30.48532247543335">
        <time>2026-08-20T08:00:17Z</time>
      </trkpt>
      <trkpt lat="59.110329151153564" lon="30.485343933105469">
        <time>2026-08-20T08:00:19Z</time>
      </trkpt>
      <trkpt lat="59.110286235809326" lon="30.485343933105469">
        <time>2026-08-20T08:00:22Z</time>
      </trkpt>
      <trkpt lat="59.110264778137207" lon="30.48532247543335">
        <time>2026-08-20T08:00:24Z</time>
      </trkpt>
      <trkpt lat="59.110264778137207" lon="30.48530101776123">
        <time>2026-08-20T08:00:27Z</time>
      </trkpt>
      <trkpt lat="59.110243320465088" lon="30.485236644744873">
        <time>2026-08-20T08:00:29Z</time>
      </trkpt>
      <trkpt lat="59.110243320465088" lon="30.485215187072754">
        <time>2026-08-20T08:00:32Z</time>
      </trkpt>
      <trkpt lat="59.110243320465088" lon="30.485193729400635">
        <time>2026-08-20T08:00:34Z</time>
      </trkpt>
      <trkpt lat="59.110243320465088" lon="30.485193729400635">
        <time>2026-08-20T08:00:37Z</time>
      </trkpt>
      <trkpt lat="59.110221862792969" lon="30.485172271728516">
        <time>2026-08-20T08:00:39Z</time>
      </trkpt>
      <trkpt lat="59.110221862792969" lon="30.485129356384277">
        <time>2026-08-20T08:00:42Z</time>
      </trkpt>
      <trkpt lat="59.110221862792969" lon="30.485129356384277">
        <time>2026-08-20T08:00:44Z</time>
      </trkpt>
      <trkpt lat="59.110221862792969" lon="30.485129356384277">
        <time>2026-08-20T08:00:47Z</time>
      </trkpt>
      <trkpt lat="59.110221862792969" lon="30.485107898712158">
        <time>2026-08-20T08:00:49Z</time>
      </trkpt>
      <trkpt lat="59.110221862792969" lon="30.48506498336792">
        <time>2026-08-20T08:00:52Z</time>
      </trkpt>
      <trkpt lat="59.11020040512085" lon="30.485022068023682">
        <time>2026-08-20T08:00:54Z</time>
      </trkpt>
      <trkpt lat="59.11020040512085" lon="30.485022068023682">
        <time>2026-08-20T08:00:57Z</time>
      </trkpt>
      <trkpt lat="59.11020040512085" lon="30.485022068023682">
        <time>2026-08-20T08:00:59Z</time>
      </trkpt>
      <trkpt lat="59.11020040512085" lon="30.485000610351563">
        <time>2026-08-20T08:01:02Z</time>
      </trkpt>
      <trkpt lat="59.11020040512085" lon="30.484936237335205">
        <time>2026-08-20T08:01:04Z</time>
      </trkpt>
      <trkpt lat="59.11020040512085" lon="30.484893321990967">
        <time>2026-08-20T08:01:07Z</time>
      </trkpt>
      <trkpt lat="59.11020040512085" lon="30.484850406646729">
        <time>2026-08-20T08:01:09Z</time>
      </trkpt>
      <trkpt lat="59.11020040512085" lon="30.484850406646729">
        <time>2026-08-20T08:01:12Z</time>
      </trkpt>
      <trkpt lat="59.11020040512085" lon="30.484850406646729">
        <time>2026-08-20T08:01:14Z</time>
      </trkpt>
      <trkpt lat="59.11020040512085" lon="30.484828948974609">
        <time>2026-08-20T08:01:17Z</time>
      </trkpt>
      <trkpt lat="59.11020040512085" lon="30.48480749130249">
        <time>2026-08-20T08:01:19Z</time>
      </trkpt>
      <trkpt lat="59.11020040512085" lon="30.48480749130249">
        <time>2026-08-20T08:01:22Z</time>
      </trkpt>
      <trkpt lat="59.11020040512085" lon="30.48480749130249">
        <time>2026-08-20T08:01:24Z</time>
      </trkpt>
      <trkpt lat="59.11020040512085" lon="30.484743118286133">
        <time>2026-08-20T08:01:27Z</time>
      </trkpt>
      <trkpt lat="59.11020040512085" lon="30.484700202941895">
        <time>2026-08-20T08:01:29Z</time>
      </trkpt>
      <trkpt lat="59.11020040512085" lon="30.484700202941895">
        <time>2026-08-20T08:01:32Z</time>
      </trkpt>
      <trkpt lat="59.11020040512085" lon="30.484700202941895">
        <time>2026-08-20T08:01:34Z</time>
      </trkpt>
      <trkpt lat="59.11020040512085" lon="30.484678745269775">
        <time>2026-08-20T08:01:37Z</time>
      </trkpt>
      <trkpt lat="59.110157489776611" lon="30.484614372253418">
        <time>2026-08-20T08:01:39Z</time>
      </trkpt>
      <trkpt lat="59.110136032104492" lon="30.484614372253418">
        <time>2026-08-20T08:01:42Z</time>
      </trkpt>
      <trkpt lat="59.110114574432373" lon="30.484549999237061">
        <time>2026-08-20T08:01:44Z</time>
      </trkpt>
      <trkpt lat="59.110093116760254" lon="30.484549999237061">
        <time>2026-08-20T08:01:47Z</time>
      </trkpt>
      <trkpt lat="59.110093116760254" lon="30.484528541564941">
        <time>2026-08-20T08:01:49Z</time>
      </trkpt>
      <trkpt lat="59.110093116760254" lon="30.484528541564941">
        <time>2026-08-20T08:01:52Z</time>
      </trkpt>
      <trkpt lat="59.110093116760254" lon="30.484528541564941">
        <time>2026-08-20T08:01:54Z</time>
      </trkpt>
      <trkpt lat="59.110093116760254" lon="30.484528541564941">
        <time>2026-08-20T08:01:57Z</time>
      </trkpt>
      <trkpt lat="59.110093116760254" lon="30.484528541564941">
        <time>2026-08-20T08:01:59Z</time>
      </trkpt>
      <trkpt lat="59.110093116760254" lon="30.484528541564941">
        <time>2026-08-20T08:02:02Z</time>
      </trkpt>
      <trkpt lat="59.110093116760254" lon="30.484528541564941">
        <time>2026-08-20T08:02:04Z</time>
      </trkpt>
      <trkpt lat="59.110093116760254" lon="30.484507083892822">
        <time>2026-08-20T08:02:07Z</time>
      </trkpt>
      <trkpt lat="59.110093116760254" lon="30.484507083892822">
        <time>2026-08-20T08:02:09Z</time>
      </trkpt>
      <trkpt lat="59.110093116760254" lon="30.484507083892822">
        <time>2026-08-20T08:02:12Z</time>
      </trkpt>
      <trkpt lat="59.110093116760254" lon="30.484507083892822">
        <time>2026-08-20T08:02:14Z</time>
      </trkpt>
      <trkpt lat="59.110114574432373" lon="30.484464168548584">
        <time>2026-08-20T08:02:17Z</time>
      </trkpt>
      <trkpt lat="59.110136032104492" lon="30.484378337860107">
        <time>2026-08-20T08:02:19Z</time>
      </trkpt>
      <trkpt lat="59.110157489776611" lon="30.484378337860107">
        <time>2026-08-20T08:02:22Z</time>
      </trkpt>
      <trkpt lat="59.11017894744873" lon="30.484378337860107">
        <time>2026-08-20T08:02:24Z</time>
      </trkpt>
      <trkpt lat="59.11017894744873" lon="30.484356880187988">
        <time>2026-08-20T08:02:27Z</time>
      </trkpt>
      <trkpt lat="59.11020040512085" lon="30.484335422515869">
        <time>2026-08-20T08:02:29Z</time>
      </trkpt>
      <trkpt lat="59.110221862792969" lon="30.48431396484375">
        <time>2026-08-20T08:02:32Z</time>
      </trkpt>
      <trkpt lat="59.110221862792969" lon="30.48431396484375">
        <time>2026-08-20T08:02:34Z</time>
      </trkpt>
      <trkpt lat="59.110221862792969" lon="30.48431396484375">
        <time>2026-08-20T08:02:37Z</time>
      </trkpt>
      <trkpt lat="59.110221862792969" lon="30.484292507171631">
        <time>2026-08-20T08:02:39Z</time>
      </trkpt>
      <trkpt lat="59.110221862792969" lon="30.484228134155273">
        <time>2026-08-20T08:02:42Z</time>
      </trkpt>
      <trkpt lat="59.110221862792969" lon="30.484163761138916">
        <time>2026-08-20T08:02:44Z</time>
      </trkpt>
      <trkpt lat="59.110221862792969" lon="30.484142303466797">
        <time>2026-08-20T08:02:47Z</time>
      </trkpt>
      <trkpt lat="59.11020040512085" lon="30.484099388122559">
        <time>2026-08-20T08:02:49Z</time>
      </trkpt>
      <trkpt lat="59.11020040512085" lon="30.484099388122559">
        <time>2026-08-20T08:02:52Z</time>
      </trkpt>
      <trkpt lat="59.110243320465088" lon="30.484120845794678">
        <time>2026-08-20T08:02:54Z</time>
      </trkpt>
      <trkpt lat="59.110243320465088" lon="30.484120845794678">
        <time>2026-08-20T08:02:57Z</time>
      </trkpt>
      <trkpt lat="59.110286235809326" lon="30.484099388122559">
        <time>2026-08-20T08:02:59Z</time>
      </trkpt>
      <trkpt lat="59.110307693481445" lon="30.484099388122559">
        <time>2026-08-20T08:03:02Z</time>
      </trkpt>
      <trkpt lat="59.110329151153564" lon="30.484142303466797">
        <time>2026-08-20T08:03:04Z</time>
      </trkpt>
      <trkpt lat="59.110350608825684" lon="30.484142303466797">
        <time>2026-08-20T08:03:07Z</time>
      </trkpt>
      <trkpt lat="59.110372066497803" lon="30.484163761138916">
        <time>2026-08-20T08:03:09Z</time>
      </trkpt>
      <trkpt lat="59.110372066497803" lon="30.484163761138916">
        <time>2026-08-20T08:03:12Z</time>
      </trkpt>
      <trkpt lat="59.110393524169922" lon="30.484185218811035">
        <time>2026-08-20T08:03:14Z</time>
      </trkpt>
      <trkpt lat="59.110414981842041" lon="30.484206676483154">
        <time>2026-08-20T08:03:17Z</time>
      </trkpt>
      <trkpt lat="59.11043643951416" lon="30.484228134155273">
        <time>2026-08-20T08:03:19Z</time>
      </trkpt>
      <trkpt lat="59.11043643951416" lon="30.484249591827393">
        <time>2026-08-20T08:03:22Z</time>
      </trkpt>
      <trkpt lat="59.110457897186279" lon="30.484271049499512">
        <time>2026-08-20T08:03:24Z</time>
      </trkpt>
      <trkpt lat="59.110457897186279" lon="30.484271049499512">
        <time>2026-08-20T08:03:27Z</time>
      </trkpt>
      <trkpt lat="59.110457897186279" lon="30.484271049499512">
        <time>2026-08-20T08:03:29Z</time>
      </trkpt>
      <trkpt lat="59.110457897186279" lon="30.484271049499512">
        <time>2026-08-20T08:03:32Z</time>
      </trkpt>
      <trkpt lat="59.110457897186279" lon="30.484271049499512">
        <time>2026-08-20T08:03:34Z</time>
      </trkpt>
      <trkpt lat="59.110457897186279" lon="30.484271049499512">
        <time>2026-08-20T08:03:37Z</time>
      </trkpt>
      <trkpt lat="59.110457897186279" lon="30.484271049499512">
        <time>2026-08-20T08:03:39Z</time>
      </trkpt>
      <trkpt lat="59.110457897186279" lon="30.484271049499512">
        <time>2026-08-20T08:03:42Z</time>
      </trkpt>
      <trkpt lat="59.110457897186279" lon="30.484271049499512">
        <time>2026-08-20T08:03:44Z</time>
      </trkpt>
      <trkpt lat="59.110457897186279" lon="30.484271049499512">
        <time>2026-08-20T08:03:47Z</time>
      </trkpt>
      <trkpt lat="59.11043643951416" lon="30.484249591827393">
        <time>2026-08-20T08:03:49Z</time>
      </trkpt>
      <trkpt lat="59.110414981842041" lon="30.484249591827393">
        <time>2026-08-20T08:03:52Z</time>
      </trkpt>
      <trkpt lat="59.110414981842041" lon="30.484271049499512">
        <time>2026-08-20T08:03:54Z</time>
      </trkpt>
      <trkpt lat="59.110414981842041" lon="30.484271049499512">
        <time>2026-08-20T08:03:57Z</time>
      </trkpt>
      <trkpt lat="59.110414981842041" lon="30.484271049499512">
        <time>2026-08-20T08:03:59Z</time>
      </trkpt>
      <trkpt lat="59.110414981842041" lon="30.484271049499512">
        <time>2026-08-20T08:04:02Z</time>
      </trkpt>
      <trkpt lat="59.110414981842041" lon="30.484271049499512">
        <time>2026-08-20T08:04:04Z</time>
      </trkpt>
      <trkpt lat="59.11043643951416" lon="30.484292507171631">
        <time>2026-08-20T08:04:07Z</time>
      </trkpt>
      <trkpt lat="59.11043643951416" lon="30.484292507171631">
        <time>2026-08-20T08:04:09Z</time>
      </trkpt>
      <trkpt lat="59.11043643951416" lon="30.484292507171631">
        <time>2026-08-20T08:04:12Z</time>
      </trkpt>
      <trkpt lat="59.11043643951416" lon="30.484292507171631">
        <time>2026-08-20T08:04:14Z</time>
      </trkpt>
      <trkpt lat="59.110457897186279" lon="30.48431396484375">
        <time>2026-08-20T08:04:17Z</time>
      </trkpt>
      <trkpt lat="59.110500812530518" lon="30.484356880187988">
        <time>2026-08-20T08:04:19Z</time>
      </trkpt>
      <trkpt lat="59.110543727874756" lon="30.484378337860107">
        <time>2026-08-20T08:04:22Z</time>
      </trkpt>
      <trkpt lat="59.110565185546875" lon="30.484442710876465">
        <time>2026-08-20T08:04:24Z</time>
      </trkpt>
      <trkpt lat="59.110586643218994" lon="30.484464168548584">
        <time>2026-08-20T08:04:27Z</time>
      </trkpt>
      <trkpt lat="59.110586643218994" lon="30.484485626220703">
        <time>2026-08-20T08:04:29Z</time>
      </trkpt>
      <trkpt lat="59.110586643218994" lon="30.484507083892822">
        <time>2026-08-20T08:04:32Z</time>
      </trkpt>
      <trkpt lat="59.110586643218994" lon="30.484507083892822">
        <time>2026-08-20T08:04:34Z</time>
      </trkpt>
      <trkpt lat="59.110586643218994" lon="30.484507083892822">
        <time>2026-08-20T08:04:37Z</time>
      </trkpt>
      <trkpt lat="59.110565185546875" lon="30.484464168548584">
        <time>2026-08-20T08:04:39Z</time>
      </trkpt>
      <trkpt lat="59.110565185546875" lon="30.484464168548584">
        <time>2026-08-20T08:04:42Z</time>
      </trkpt>
      <trkpt lat="59.110586643218994" lon="30.484464168548584">
        <time>2026-08-20T08:04:44Z</time>
      </trkpt>
      <trkpt lat="59.110586643218994" lon="30.484464168548584">
        <time>2026-08-20T08:04:47Z</time>
      </trkpt>
      <trkpt lat="59.110586643218994" lon="30.484464168548584">
        <time>2026-08-20T08:04:49Z</time>
      </trkpt>
      <trkpt lat="59.110608100891113" lon="30.484442710876465">
        <time>2026-08-20T08:04:52Z</time>
      </trkpt>
      <trkpt lat="59.110651016235352" lon="30.484442710876465">
        <time>2026-08-20T08:04:54Z</time>
      </trkpt>
      <trkpt lat="59.110672473907471" lon="30.484442710876465">
        <time>2026-08-20T08:04:57Z</time>
      </trkpt>
      <trkpt lat="59.110672473907471" lon="30.484442710876465">
        <time>2026-08-20T08:04:59Z</time>
      </trkpt>
      <trkpt lat="59.110672473907471" lon="30.484442710876465">
        <time>2026-08-20T08:05:02Z</time>
      </trkpt>
      <trkpt lat="59.110672473907471" lon="30.484442710876465">
        <time>2026-08-20T08:05:04Z</time>
      </trkpt>
      <trkpt lat="59.110672473907471" lon="30.484442710876465">
        <time>2026-08-20T08:05:07Z</time>
      </trkpt>
      <trkpt lat="59.110672473907471" lon="30.484442710876465">
        <time>2026-08-20T08:05:09Z</time>
      </trkpt>
      <trkpt lat="59.110672473907471" lon="30.484442710876465">
        <time>2026-08-20T08:05:12Z</time>
      </trkpt>
      <trkpt lat="59.110672473907471" lon="30.484442710876465">
        <time>2026-08-20T08:05:14Z</time>
      </trkpt>
      <trkpt lat="59.110672473907471" lon="30.484442710876465">
        <time>2026-08-20T08:05:17Z</time>
      </trkpt>
      <trkpt lat="59.110672473907471" lon="30.484442710876465">
        <time>2026-08-20T08:05:19Z</time>
      </trkpt>
      <trkpt lat="59.11069393157959" lon="30.484399795532227">
        <time>2026-08-20T08:05:22Z</time>
      </trkpt>
      <trkpt lat="59.11069393157959" lon="30.484399795532227">
        <time>2026-08-20T08:05:24Z</time>
      </trkpt>
      <trkpt lat="59.11069393157959" lon="30.484399795532227">
        <time>2026-08-20T08:05:27Z</time>
      </trkpt>
      <trkpt lat="59.11069393157959" lon="30.484399795532227">
        <time>2026-08-20T08:05:29Z</time>
      </trkpt>
      <trkpt lat="59.11069393157959" lon="30.484399795532227">
        <time>2026-08-20T08:05:32Z</time>
      </trkpt>
      <trkpt lat="59.11069393157959" lon="30.484399795532227">
        <time>2026-08-20T08:05:34Z</time>
      </trkpt>
      <trkpt lat="59.110715389251709" lon="30.484335422515869">
        <time>2026-08-20T08:05:37Z</time>
      </trkpt>
      <trkpt lat="59.110715389251709" lon="30.484249591827393">
        <time>2026-08-20T08:05:39Z</time>
      </trkpt>
      <trkpt lat="59.110736846923828" lon="30.484185218811035">
        <time>2026-08-20T08:05:42Z</time>
      </trkpt>
      <trkpt lat="59.110736846923828" lon="30.484099388122559">
        <time>2026-08-20T08:05:44Z</time>
      </trkpt>
      <trkpt lat="59.110758304595947" lon="30.484035015106201">
        <time>2026-08-20T08:05:47Z</time>
      </trkpt>
      <trkpt lat="59.110758304595947" lon="30.483949184417725">
        <time>2026-08-20T08:05:49Z</time>
      </trkpt>
      <trkpt lat="59.110758304595947" lon="30.483906269073486">
        <time>2026-08-20T08:05:52Z</time>
      </trkpt>
      <trkpt lat="59.110758304595947" lon="30.483863353729248">
        <time>2026-08-20T08:05:54Z</time>
      </trkpt>
      <trkpt lat="59.110779762268066" lon="30.483798980712891">
        <time>2026-08-20T08:05:57Z</time>
      </trkpt>
      <trkpt lat="59.110779762268066" lon="30.483798980712891">
        <time>2026-08-20T08:05:59Z</time>
      </trkpt>
      <trkpt lat="59.110758304595947" lon="30.483777523040771">
        <time>2026-08-20T08:06:02Z</time>
      </trkpt>
      <trkpt lat="59.110736846923828" lon="30.483756065368652">
        <time>2026-08-20T08:06:04Z</time>
      </trkpt>
      <trkpt lat="59.110736846923828" lon="30.483756065368652">
        <time>2026-08-20T08:06:07Z</time>
      </trkpt>
      <trkpt lat="59.110715389251709" lon="30.483777523040771">
        <time>2026-08-20T08:06:09Z</time>
      </trkpt>
      <trkpt lat="59.110715389251709" lon="30.483798980712891">
        <time>2026-08-20T08:06:12Z</time>
      </trkpt>
      <trkpt lat="59.110715389251709" lon="30.483798980712891">
        <time>2026-08-20T08:06:14Z</time>
      </trkpt>
      <trkpt lat="59.110715389251709" lon="30.483798980712891">
        <time>2026-08-20T08:06:17Z</time>
      </trkpt>
      <trkpt lat="59.110715389251709" lon="30.483713150024414">
        <time>2026-08-20T08:06:19Z</time>
      </trkpt>
      <trkpt lat="59.110715389251709" lon="30.483670234680176">
        <time>2026-08-20T08:06:22Z</time>
      </trkpt>
      <trkpt lat="59.11069393157959" lon="30.483584403991699">
        <time>2026-08-20T08:06:24Z</time>
      </trkpt>
      <trkpt lat="59.110672473907471" lon="30.483520030975342">
        <time>2026-08-20T08:06:27Z</time>
      </trkpt>
      <trkpt lat="59.110672473907471" lon="30.483477115631104">
        <time>2026-08-20T08:06:29Z</time>
      </trkpt>
      <trkpt lat="59.110672473907471" lon="30.483455657958984">
        <time>2026-08-20T08:06:32Z</time>
      </trkpt>
      <trkpt lat="59.110672473907471" lon="30.483455657958984">
        <time>2026-08-20T08:06:34Z</time>
      </trkpt>
      <trkpt lat="59.110672473907471" lon="30.483455657958984">
        <time>2026-08-20T08:06:37Z</time>
      </trkpt>
      <trkpt lat="59.110672473907471" lon="30.483455657958984">
        <time>2026-08-20T08:06:39Z</time>
      </trkpt>
      <trkpt lat="59.110672473907471" lon="30.483455657958984">
        <time>2026-08-20T08:06:42Z</time>
      </trkpt>
      <trkpt lat="59.110651016235352" lon="30.483434200286865">
        <time>2026-08-20T08:06:44Z</time>
      </trkpt>
      <trkpt lat="59.110629558563232" lon="30.483412742614746">
        <time>2026-08-20T08:06:47Z</time>
      </trkpt>
      <trkpt lat="59.110629558563232" lon="30.483412742614746">
        <time>2026-08-20T08:06:49Z</time>
      </trkpt>
      <trkpt lat="59.110629558563232" lon="30.483412742614746">
        <time>2026-08-20T08:06:52Z</time>
      </trkpt>
      <trkpt lat="59.110608100891113" lon="30.483412742614746">
        <time>2026-08-20T08:06:54Z</time>
      </trkpt>
      <trkpt lat="59.110608100891113" lon="30.483412742614746">
        <time>2026-08-20T08:06:57Z</time>
      </trkpt>
      <trkpt lat="59.110565185546875" lon="30.483391284942627">
        <time>2026-08-20T08:06:59Z</time>
      </trkpt>
      <trkpt lat="59.110543727874756" lon="30.483391284942627">
        <time>2026-08-20T08:07:02Z</time>
      </trkpt>
      <trkpt lat="59.110522270202637" lon="30.483412742614746">
        <time>2026-08-20T08:07:04Z</time>
      </trkpt>
      <trkpt lat="59.110500812530518" lon="30.483412742614746">
        <time>2026-08-20T08:07:07Z</time>
      </trkpt>
      <trkpt lat="59.110457897186279" lon="30.483412742614746">
        <time>2026-08-20T08:07:09Z</time>
      </trkpt>
      <trkpt lat="59.11043643951416" lon="30.483434200286865">
        <time>2026-08-20T08:07:12Z</time>
      </trkpt>
      <trkpt lat="59.11043643951416" lon="30.483434200286865">
        <time>2026-08-20T08:07:14Z</time>
      </trkpt>
      <trkpt lat="59.11043643951416" lon="30.483434200286865">
        <time>2026-08-20T08:07:17Z</time>
      </trkpt>
      <trkpt lat="59.11043643951416" lon="30.483434200286865">
        <time>2026-08-20T08:07:19Z</time>
      </trkpt>
      <trkpt lat="59.110414981842041" lon="30.483434200286865">
        <time>2026-08-20T08:07:22Z</time>
      </trkpt>
      <trkpt lat="59.110414981842041" lon="30.483434200286865">
        <time>2026-08-20T08:07:24Z</time>
      </trkpt>
      <trkpt lat="59.110414981842041" lon="30.483434200286865">
        <time>2026-08-20T08:07:27Z</time>
      </trkpt>
      <trkpt lat="59.110414981842041" lon="30.483412742614746">
        <time>2026-08-20T08:07:29Z</time>
      </trkpt>
      <trkpt lat="59.110393524169922" lon="30.483391284942627">
        <time>2026-08-20T08:07:32Z</time>
      </trkpt>
      <trkpt lat="59.110393524169922" lon="30.483391284942627">
        <time>2026-08-20T08:07:34Z</time>
      </trkpt>
      <trkpt lat="59.110393524169922" lon="30.483391284942627">
        <time>2026-08-20T08:07:37Z</time>
      </trkpt>
      <trkpt lat="59.110393524169922" lon="30.483391284942627">
        <time>2026-08-20T08:07:39Z</time>
      </trkpt>
      <trkpt lat="59.110393524169922" lon="30.483391284942627">
        <time>2026-08-20T08:07:42Z</time>
      </trkpt>
      <trkpt lat="59.110393524169922" lon="30.483391284942627">
        <time>2026-08-20T08:07:44Z</time>
      </trkpt>
      <trkpt lat="59.110393524169922" lon="30.483391284942627">
        <time>2026-08-20T08:07:47Z</time>
      </trkpt>
      <trkpt lat="59.110393524169922" lon="30.483391284942627">
        <time>2026-08-20T08:07:49Z</time>
      </trkpt>
      <trkpt lat="59.110393524169922" lon="30.483391284942627">
        <time>2026-08-20T08:07:52Z</time>
      </trkpt>
      <trkpt lat="59.110393524169922" lon="30.483391284942627">
        <time>2026-08-20T08:07:54Z</time>
      </trkpt>
      <trkpt lat="59.110393524169922" lon="30.483391284942627">
        <time>2026-08-20T08:07:57Z</time>
      </trkpt>
      <trkpt lat="59.110393524169922" lon="30.483391284942627">
        <time>2026-08-20T08:07:59Z</time>
      </trkpt>
      <trkpt lat="59.110393524169922" lon="30.483391284942627">
        <time>2026-08-20T08:08:02Z</time>
      </trkpt>
      <trkpt lat="59.110393524169922" lon="30.483391284942627">
        <time>2026-08-20T08:08:04Z</time>
      </trkpt>
      <trkpt lat="59.110393524169922" lon="30.483391284942627">
        <time>2026-08-20T08:08:07Z</time>
      </trkpt>
      <trkpt lat="59.110393524169922" lon="30.483369827270508">
        <time>2026-08-20T08:08:09Z</time>
      </trkpt>
      <trkpt lat="59.110393524169922" lon="30.483369827270508">
        <time>2026-08-20T08:08:12Z</time>
      </trkpt>
      <trkpt lat="59.110393524169922" lon="30.48330545425415">
        <time>2026-08-20T08:08:14Z</time>
      </trkpt>
      <trkpt lat="59.110393524169922" lon="30.483219623565674">
        <time>2026-08-20T08:08:17Z</time>
      </trkpt>
      <trkpt lat="59.110393524169922" lon="30.483155250549316">
        <time>2026-08-20T08:08:19Z</time>
      </trkpt>
      <trkpt lat="59.110393524169922" lon="30.483133792877197">
        <time>2026-08-20T08:08:22Z</time>
      </trkpt>
      <trkpt lat="59.110393524169922" lon="30.483112335205078">
        <time>2026-08-20T08:08:24Z</time>
      </trkpt>
      <trkpt lat="59.110393524169922" lon="30.483112335205078">
        <time>2026-08-20T08:08:27Z</time>
      </trkpt>
      <trkpt lat="59.110393524169922" lon="30.483112335205078">
        <time>2026-08-20T08:08:29Z</time>
      </trkpt>
      <trkpt lat="59.110393524169922" lon="30.483112335205078">
        <time>2026-08-20T08:08:32Z</time>
      </trkpt>
      <trkpt lat="59.110372066497803" lon="30.483090877532959">
        <time>2026-08-20T08:08:34Z</time>
      </trkpt>
      <trkpt lat="59.110350608825684" lon="30.483090877532959">
        <time>2026-08-20T08:08:37Z</time>
      </trkpt>
      <trkpt lat="59.110307693481445" lon="30.483090877532959">
        <time>2026-08-20T08:08:39Z</time>
      </trkpt>
      <trkpt lat="59.110286235809326" lon="30.483090877532959">
        <time>2026-08-20T08:08:42Z</time>
      </trkpt>
      <trkpt lat="59.110264778137207" lon="30.48306941986084">
        <time>2026-08-20T08:08:44Z</time>
      </trkpt>
      <trkpt lat="59.110264778137207" lon="30.48306941986084">
        <time>2026-08-20T08:08:47Z</time>
      </trkpt>
      <trkpt lat="59.110264778137207" lon="30.483005046844482">
        <time>2026-08-20T08:08:49Z</time>
      </trkpt>
      <trkpt lat="59.110264778137207" lon="30.482962131500244">
        <time>2026-08-20T08:08:52Z</time>
      </trkpt>
      <trkpt lat="59.110264778137207" lon="30.482962131500244">
        <time>2026-08-20T08:08:54Z</time>
      </trkpt>
      <trkpt lat="59.110264778137207" lon="30.482962131500244">
        <time>2026-08-20T08:08:57Z</time>
      </trkpt>
      <trkpt lat="59.110307693481445" lon="30.482983589172363">
        <time>2026-08-20T08:08:59Z</time>
      </trkpt>
      <trkpt lat="59.110372066497803" lon="30.483005046844482">
        <time>2026-08-20T08:09:04Z</time>
      </trkpt>
      <trkpt lat="59.110372066497803" lon="30.483005046844482">
        <time>2026-08-20T08:09:07Z</time>
      </trkpt>
      <trkpt lat="59.110393524169922" lon="30.482983589172363">
        <time>2026-08-20T08:09:09Z</time>
      </trkpt>
      <trkpt lat="59.110393524169922" lon="30.482983589172363">
        <time>2026-08-20T08:09:12Z</time>
      </trkpt>
      <trkpt lat="59.110393524169922" lon="30.482983589172363">
        <time>2026-08-20T08:09:14Z</time>
      </trkpt>
      <trkpt lat="59.110393524169922" lon="30.482962131500244">
        <time>2026-08-20T08:09:17Z</time>
      </trkpt>
      <trkpt lat="59.110393524169922" lon="30.482962131500244">
        <time>2026-08-20T08:09:19Z</time>
      </trkpt>
      <trkpt lat="59.110393524169922" lon="30.482962131500244">
        <time>2026-08-20T08:09:22Z</time>
      </trkpt>
      <trkpt lat="59.110393524169922" lon="30.482962131500244">
        <time>2026-08-20T08:09:24Z</time>
      </trkpt>
      <trkpt lat="59.110393524169922" lon="30.482962131500244">
        <time>2026-08-20T08:09:27Z</time>
      </trkpt>
      <trkpt lat="59.110393524169922" lon="30.482962131500244">
        <time>2026-08-20T08:09:29Z</time>
      </trkpt>
      <trkpt lat="59.110393524169922" lon="30.482962131500244">
        <time>2026-08-20T08:09:32Z</time>
      </trkpt>
      <trkpt lat="59.110414981842041" lon="30.482962131500244">
        <time>2026-08-20T08:09:34Z</time>
      </trkpt>
      <trkpt lat="59.11043643951416" lon="30.482962131500244">
        <time>2026-08-20T08:09:37Z</time>
      </trkpt>
      <trkpt lat="59.110457897186279" lon="30.482983589172363">
        <time>2026-08-20T08:09:39Z</time>
      </trkpt>
      <trkpt lat="59.110457897186279" lon="30.482983589172363">
        <time>2026-08-20T08:09:42Z</time>
      </trkpt>
      <trkpt lat="59.110479354858398" lon="30.483005046844482">
        <time>2026-08-20T08:09:44Z</time>
      </trkpt>
      <trkpt lat="59.110479354858398" lon="30.483005046844482">
        <time>2026-08-20T08:09:47Z</time>
      </trkpt>
      <trkpt lat="59.110500812530518" lon="30.482983589172363">
        <time>2026-08-20T08:09:49Z</time>
      </trkpt>
      <trkpt lat="59.110500812530518" lon="30.482983589172363">
        <time>2026-08-20T08:09:52Z</time>
      </trkpt>
      <trkpt lat="59.110522270202637" lon="30.482962131500244">
        <time>2026-08-20T08:09:54Z</time>
      </trkpt>
      <trkpt lat="59.110543727874756" lon="30.482962131500244">
        <time>2026-08-20T08:09:57Z</time>
      </trkpt>
      <trkpt lat="59.110586643218994" lon="30.482940673828125">
        <time>2026-08-20T08:09:59Z</time>
      </trkpt>
      <trkpt lat="59.110608100891113" lon="30.482919216156006">
        <time>2026-08-20T08:10:02Z</time>
      </trkpt>
      <trkpt lat="59.110608100891113" lon="30.482919216156006">
        <time>2026-08-20T08:10:04Z</time>
      </trkpt>
      <trkpt lat="59.110608100891113" lon="30.482919216156006">
        <time>2026-08-20T08:10:07Z</time>
      </trkpt>
      <trkpt lat="59.110586643218994" lon="30.482897758483887">
        <time>2026-08-20T08:10:09Z</time>
      </trkpt>
      <trkpt lat="59.110565185546875" lon="30.482940673828125">
        <time>2026-08-20T08:10:12Z</time>
      </trkpt>
      <trkpt lat="59.110543727874756" lon="30.482940673828125">
        <time>2026-08-20T08:10:14Z</time>
      </trkpt>
      <trkpt lat="59.110543727874756" lon="30.482962131500244">
        <time>2026-08-20T08:10:17Z</time>
      </trkpt>
      <trkpt lat="59.110543727874756" lon="30.482983589172363">
        <time>2026-08-20T08:10:19Z</time>
      </trkpt>
      <trkpt lat="59.110543727874756" lon="30.482983589172363">
        <time>2026-08-20T08:10:22Z</time>
      </trkpt>
      <trkpt lat="59.110543727874756" lon="30.482983589172363">
        <time>2026-08-20T08:10:24Z</time>
      </trkpt>
      <trkpt lat="59.110543727874756" lon="30.482983589172363">
        <time>2026-08-20T08:10:27Z</time>
      </trkpt>
      <trkpt lat="59.110543727874756" lon="30.482983589172363">
        <time>2026-08-20T08:10:29Z</time>
      </trkpt>
      <trkpt lat="59.110543727874756" lon="30.482983589172363">
        <time>2026-08-20T08:10:32Z</time>
      </trkpt>
      <trkpt lat="59.110543727874756" lon="30.482983589172363">
        <time>2026-08-20T08:10:34Z</time>
      </trkpt>
      <trkpt lat="59.110522270202637" lon="30.483005046844482">
        <time>2026-08-20T08:10:37Z</time>
      </trkpt>
      <trkpt lat="59.110500812530518" lon="30.483026504516602">
        <time>2026-08-20T08:10:39Z</time>
      </trkpt>
      <trkpt lat="59.110500812530518" lon="30.483026504516602">
        <time>2026-08-20T08:10:42Z</time>
      </trkpt>
      <trkpt lat="59.110479354858398" lon="30.483047962188721">
        <time>2026-08-20T08:10:44Z</time>
      </trkpt>
      <trkpt lat="59.110457897186279" lon="30.48306941986084">
        <time>2026-08-20T08:10:47Z</time>
      </trkpt>
      <trkpt lat="59.11043643951416" lon="30.483090877532959">
        <time>2026-08-20T08:10:49Z</time>
      </trkpt>
      <trkpt lat="59.11043643951416" lon="30.483112335205078">
        <time>2026-08-20T08:10:52Z</time>
      </trkpt>
      <trkpt lat="59.110457897186279" lon="30.483090877532959">
        <time>2026-08-20T08:10:54Z</time>
      </trkpt>
      <trkpt lat="59.110500812530518" lon="30.483090877532959">
        <time>2026-08-20T08:10:57Z</time>
      </trkpt>
      <trkpt lat="59.110500812530518" lon="30.483090877532959">
        <time>2026-08-20T08:10:59Z</time>
      </trkpt>
      <trkpt lat="59.110500812530518" lon="30.483090877532959">
        <time>2026-08-20T08:11:02Z</time>
      </trkpt>
      <trkpt lat="59.110479354858398" lon="30.483112335205078">
        <time>2026-08-20T08:11:04Z</time>
      </trkpt>
      <trkpt lat="59.110479354858398" lon="30.483133792877197">
        <time>2026-08-20T08:11:07Z</time>
      </trkpt>
      <trkpt lat="59.110457897186279" lon="30.483133792877197">
        <time>2026-08-20T08:11:09Z</time>
      </trkpt>
      <trkpt lat="59.110457897186279" lon="30.483133792877197">
        <time>2026-08-20T08:11:12Z</time>
      </trkpt>
      <trkpt lat="59.110457897186279" lon="30.483133792877197">
        <time>2026-08-20T08:11:14Z</time>
      </trkpt>
      <trkpt lat="59.110457897186279" lon="30.483133792877197">
        <time>2026-08-20T08:11:17Z</time>
      </trkpt>
      <trkpt lat="59.110457897186279" lon="30.483133792877197">
        <time>2026-08-20T08:11:19Z</time>
      </trkpt>
      <trkpt lat="59.110457897186279" lon="30.483133792877197">
        <time>2026-08-20T08:11:22Z</time>
      </trkpt>
      <trkpt lat="59.110414981842041" lon="30.483155250549316">
        <time>2026-08-20T08:11:24Z</time>
      </trkpt>
      <trkpt lat="59.110414981842041" lon="30.483155250549316">
        <time>2026-08-20T08:11:27Z</time>
      </trkpt>
      <trkpt lat="59.110393524169922" lon="30.483155250549316">
        <time>2026-08-20T08:11:29Z</time>
      </trkpt>
      <trkpt lat="59.110414981842041" lon="30.483155250549316">
        <time>2026-08-20T08:11:32Z</time>
      </trkpt>
      <trkpt lat="59.110393524169922" lon="30.483176708221436">
        <time>2026-08-20T08:11:34Z</time>
      </trkpt>
      <trkpt lat="59.110393524169922" lon="30.483176708221436">
        <time>2026-08-20T08:11:37Z</time>
      </trkpt>
      <trkpt lat="59.110372066497803" lon="30.483198165893555">
        <time>2026-08-20T08:11:39Z</time>
      </trkpt>
      <trkpt lat="59.110350608825684" lon="30.483176708221436">
        <time>2026-08-20T08:11:42Z</time>
      </trkpt>
      <trkpt lat="59.110350608825684" lon="30.483176708221436">
        <time>2026-08-20T08:11:44Z</time>
      </trkpt>
      <trkpt lat="59.110350608825684" lon="30.483176708221436">
        <time>2026-08-20T08:11:47Z</time>
      </trkpt>
      <trkpt lat="59.110350608825684" lon="30.483176708221436">
        <time>2026-08-20T08:11:49Z</time>
      </trkpt>
      <trkpt lat="59.110350608825684" lon="30.483176708221436">
        <time>2026-08-20T08:11:52Z</time>
      </trkpt>
      <trkpt lat="59.110329151153564" lon="30.483176708221436">
        <time>2026-08-20T08:11:54Z</time>
      </trkpt>
      <trkpt lat="59.110329151153564" lon="30.483198165893555">
        <time>2026-08-20T08:11:57Z</time>
      </trkpt>
      <trkpt lat="59.110329151153564" lon="30.483198165893555">
        <time>2026-08-20T08:11:59Z</time>
      </trkpt>
      <trkpt lat="59.110329151153564" lon="30.483198165893555">
        <time>2026-08-20T08:12:02Z</time>
      </trkpt>
      <trkpt lat="59.110329151153564" lon="30.483198165893555">
        <time>2026-08-20T08:12:04Z</time>
      </trkpt>
      <trkpt lat="59.110329151153564" lon="30.483198165893555">
        <time>2026-08-20T08:12:07Z</time>
      </trkpt>
      <trkpt lat="59.110329151153564" lon="30.483198165893555">
        <time>2026-08-20T08:12:09Z</time>
      </trkpt>
      <trkpt lat="59.110329151153564" lon="30.483198165893555">
        <time>2026-08-20T08:12:12Z</time>
      </trkpt>
      <trkpt lat="59.110329151153564" lon="30.483198165893555">
        <time>2026-08-20T08:12:14Z</time>
      </trkpt>
      <trkpt lat="59.110329151153564" lon="30.483198165893555">
        <time>2026-08-20T08:12:17Z</time>
      </trkpt>
      <trkpt lat="59.110329151153564" lon="30.483198165893555">
        <time>2026-08-20T08:12:19Z</time>
      </trkpt>
      <trkpt lat="59.110329151153564" lon="30.483198165893555">
        <time>2026-08-20T08:12:22Z</time>
      </trkpt>
      <trkpt lat="59.110307693481445" lon="30.483198165893555">
        <time>2026-08-20T08:12:24Z</time>
      </trkpt>
      <trkpt lat="59.110307693481445" lon="30.483176708221436">
        <time>2026-08-20T08:12:27Z</time>
      </trkpt>
      <trkpt lat="59.110307693481445" lon="30.483176708221436">
        <time>2026-08-20T08:12:29Z</time>
      </trkpt>
      <trkpt lat="59.110307693481445" lon="30.483176708221436">
        <time>2026-08-20T08:12:32Z</time>
      </trkpt>
      <trkpt lat="59.110307693481445" lon="30.483176708221436">
        <time>2026-08-20T08:12:34Z</time>
      </trkpt>
      <trkpt lat="59.110307693481445" lon="30.483176708221436">
        <time>2026-08-20T08:12:37Z</time>
      </trkpt>
      <trkpt lat="59.110307693481445" lon="30.483155250549316">
        <time>2026-08-20T08:12:39Z</time>
      </trkpt>
      <trkpt lat="59.110307693481445" lon="30.483155250549316">
        <time>2026-08-20T08:12:42Z</time>
      </trkpt>
      <trkpt lat="59.110307693481445" lon="30.483155250549316">
        <time>2026-08-20T08:12:44Z</time>
      </trkpt>
      <trkpt lat="59.110307693481445" lon="30.483155250549316">
        <time>2026-08-20T08:12:47Z</time>
      </trkpt>
      <trkpt lat="59.110307693481445" lon="30.483155250549316">
        <time>2026-08-20T08:12:49Z</time>
      </trkpt>
      <trkpt lat="59.110307693481445" lon="30.483155250549316">
        <time>2026-08-20T08:12:52Z</time>
      </trkpt>
      <trkpt lat="59.110307693481445" lon="30.483133792877197">
        <time>2026-08-20T08:12:54Z</time>
      </trkpt>
      <trkpt lat="59.110307693481445" lon="30.483133792877197">
        <time>2026-08-20T08:12:57Z</time>
      </trkpt>
      <trkpt lat="59.110307693481445" lon="30.483133792877197">
        <time>2026-08-20T08:12:59Z</time>
      </trkpt>
      <trkpt lat="59.110329151153564" lon="30.483133792877197">
        <time>2026-08-20T08:13:02Z</time>
      </trkpt>
      <trkpt lat="59.110329151153564" lon="30.483133792877197">
        <time>2026-08-20T08:13:04Z</time>
      </trkpt>
      <trkpt lat="59.110350608825684" lon="30.483133792877197">
        <time>2026-08-20T08:13:07Z</time>
      </trkpt>
      <trkpt lat="59.110350608825684" lon="30.483155250549316">
        <time>2026-08-20T08:13:09Z</time>
      </trkpt>
      <trkpt lat="59.110329151153564" lon="30.483176708221436">
        <time>2026-08-20T08:13:12Z</time>
      </trkpt>
      <trkpt lat="59.110329151153564" lon="30.483198165893555">
        <time>2026-08-20T08:13:14Z</time>
      </trkpt>
      <trkpt lat="59.110329151153564" lon="30.483198165893555">
        <time>2026-08-20T08:13:17Z</time>
      </trkpt>
      <trkpt lat="59.110307693481445" lon="30.483198165893555">
        <time>2026-08-20T08:13:19Z</time>
      </trkpt>
      <trkpt lat="59.110286235809326" lon="30.483198165893555">
        <time>2026-08-20T08:13:22Z</time>
      </trkpt>
      <trkpt lat="59.110286235809326" lon="30.483198165893555">
        <time>2026-08-20T08:13:24Z</time>
      </trkpt>
      <trkpt lat="59.110286235809326" lon="30.483198165893555">
        <time>2026-08-20T08:13:27Z</time>
      </trkpt>
      <trkpt lat="59.110329151153564" lon="30.483198165893555">
        <time>2026-08-20T08:13:29Z</time>
      </trkpt>
      <trkpt lat="59.110350608825684" lon="30.483176708221436">
        <time>2026-08-20T08:13:32Z</time>
      </trkpt>
      <trkpt lat="59.110350608825684" lon="30.483176708221436">
        <time>2026-08-20T08:13:34Z</time>
      </trkpt>
      <trkpt lat="59.110350608825684" lon="30.483176708221436">
        <time>2026-08-20T08:13:37Z</time>
      </trkpt>
      <trkpt lat="59.110350608825684" lon="30.483198165893555">
        <time>2026-08-20T08:13:39Z</time>
      </trkpt>
      <trkpt lat="59.110350608825684" lon="30.483198165893555">
        <time>2026-08-20T08:13:42Z</time>
      </trkpt>
      <trkpt lat="59.110350608825684" lon="30.483219623565674">
        <time>2026-08-20T08:13:44Z</time>
      </trkpt>
      <trkpt lat="59.110350608825684" lon="30.483219623565674">
        <time>2026-08-20T08:13:47Z</time>
      </trkpt>
      <trkpt lat="59.110329151153564" lon="30.483262538909912">
        <time>2026-08-20T08:13:49Z</time>
      </trkpt>
      <trkpt lat="59.110350608825684" lon="30.483241081237793">
        <time>2026-08-20T08:13:52Z</time>
      </trkpt>
      <trkpt lat="59.110329151153564" lon="30.483241081237793">
        <time>2026-08-20T08:13:54Z</time>
      </trkpt>
      <trkpt lat="59.110329151153564" lon="30.483241081237793">
        <time>2026-08-20T08:13:57Z</time>
      </trkpt>
      <trkpt lat="59.110329151153564" lon="30.483241081237793">
        <time>2026-08-20T08:13:59Z</time>
      </trkpt>
      <trkpt lat="59.110329151153564" lon="30.483241081237793">
        <time>2026-08-20T08:14:02Z</time>
      </trkpt>
      <trkpt lat="59.110329151153564" lon="30.483241081237793">
        <time>2026-08-20T08:14:04Z</time>
      </trkpt>
      <trkpt lat="59.110307693481445" lon="30.483241081237793">
        <time>2026-08-20T08:14:07Z</time>
      </trkpt>
      <trkpt lat="59.110286235809326" lon="30.483219623565674">
        <time>2026-08-20T08:14:09Z</time>
      </trkpt>
      <trkpt lat="59.110307693481445" lon="30.483219623565674">
        <time>2026-08-20T08:14:12Z</time>
      </trkpt>
      <trkpt lat="59.110307693481445" lon="30.483262538909912">
        <time>2026-08-20T08:14:14Z</time>
      </trkpt>
      <trkpt lat="59.110329151153564" lon="30.483283996582031">
        <time>2026-08-20T08:14:17Z</time>
      </trkpt>
      <trkpt lat="59.110329151153564" lon="30.48330545425415">
        <time>2026-08-20T08:14:19Z</time>
      </trkpt>
      <trkpt lat="59.110329151153564" lon="30.48330545425415">
        <time>2026-08-20T08:14:22Z</time>
      </trkpt>
      <trkpt lat="59.110329151153564" lon="30.48330545425415">
        <time>2026-08-20T08:14:24Z</time>
      </trkpt>
      <trkpt lat="59.110329151153564" lon="30.48330545425415">
        <time>2026-08-20T08:14:27Z</time>
      </trkpt>
      <trkpt lat="59.110329151153564" lon="30.48332691192627">
        <time>2026-08-20T08:14:29Z</time>
      </trkpt>
      <trkpt lat="59.110350608825684" lon="30.483348369598389">
        <time>2026-08-20T08:14:32Z</time>
      </trkpt>
      <trkpt lat="59.110350608825684" lon="30.483391284942627">
        <time>2026-08-20T08:14:34Z</time>
      </trkpt>
      <trkpt lat="59.110372066497803" lon="30.483412742614746">
        <time>2026-08-20T08:14:37Z</time>
      </trkpt>
      <trkpt lat="59.110350608825684" lon="30.483434200286865">
        <time>2026-08-20T08:14:39Z</time>
      </trkpt>
      <trkpt lat="59.110350608825684" lon="30.483455657958984">
        <time>2026-08-20T08:14:42Z</time>
      </trkpt>
      <trkpt lat="59.110329151153564" lon="30.483455657958984">
        <time>2026-08-20T08:14:44Z</time>
      </trkpt>
      <trkpt lat="59.110307693481445" lon="30.483455657958984">
        <time>2026-08-20T08:14:47Z</time>
      </trkpt>
      <trkpt lat="59.110286235809326" lon="30.483434200286865">
        <time>2026-08-20T08:14:49Z</time>
      </trkpt>
      <trkpt lat="59.110286235809326" lon="30.483434200286865">
        <time>2026-08-20T08:14:52Z</time>
      </trkpt>
      <trkpt lat="59.110286235809326" lon="30.483434200286865">
        <time>2026-08-20T08:14:54Z</time>
      </trkpt>
      <trkpt lat="59.110264778137207" lon="30.483412742614746">
        <time>2026-08-20T08:14:57Z</time>
      </trkpt>
      <trkpt lat="59.110264778137207" lon="30.483434200286865">
        <time>2026-08-20T08:14:59Z</time>
      </trkpt>
      <trkpt lat="59.110264778137207" lon="30.483434200286865">
        <time>2026-08-20T08:15:02Z</time>
      </trkpt>
      <trkpt lat="59.110243320465088" lon="30.483455657958984">
        <time>2026-08-20T08:15:04Z</time>
      </trkpt>
      <trkpt lat="59.110243320465088" lon="30.483455657958984">
        <time>2026-08-20T08:15:07Z</time>
      </trkpt>
      <trkpt lat="59.110243320465088" lon="30.483412742614746">
        <time>2026-08-20T08:15:09Z</time>
      </trkpt>
      <trkpt lat="59.110264778137207" lon="30.483391284942627">
        <time>2026-08-20T08:15:12Z</time>
      </trkpt>
      <trkpt lat="59.110264778137207" lon="30.483369827270508">
        <time>2026-08-20T08:15:14Z</time>
      </trkpt>
      <trkpt lat="59.110264778137207" lon="30.483369827270508">
        <time>2026-08-20T08:15:17Z</time>
      </trkpt>
      <trkpt lat="59.110264778137207" lon="30.483369827270508">
        <time>2026-08-20T08:15:19Z</time>
      </trkpt>
      <trkpt lat="59.110264778137207" lon="30.483369827270508">
        <time>2026-08-20T08:15:22Z</time>
      </trkpt>
      <trkpt lat="59.110264778137207" lon="30.483369827270508">
        <time>2026-08-20T08:15:24Z</time>
      </trkpt>
      <trkpt lat="59.110264778137207" lon="30.483369827270508">
        <time>2026-08-20T08:15:27Z</time>
      </trkpt>
      <trkpt lat="59.110243320465088" lon="30.483369827270508">
        <time>2026-08-20T08:15:29Z</time>
      </trkpt>
      <trkpt lat="59.110221862792969" lon="30.483369827270508">
        <time>2026-08-20T08:15:32Z</time>
      </trkpt>
      <trkpt lat="59.11017894744873" lon="30.483391284942627">
        <time>2026-08-20T08:15:34Z</time>
      </trkpt>
      <trkpt lat="59.11017894744873" lon="30.483434200286865">
        <time>2026-08-20T08:15:37Z</time>
      </trkpt>
      <trkpt lat="59.11017894744873" lon="30.483498573303223">
        <time>2026-08-20T08:15:39Z</time>
      </trkpt>
      <trkpt lat="59.110157489776611" lon="30.483520030975342">
        <time>2026-08-20T08:15:42Z</time>
      </trkpt>
      <trkpt lat="59.110136032104492" lon="30.483541488647461">
        <time>2026-08-20T08:15:44Z</time>
      </trkpt>
      <trkpt lat="59.110114574432373" lon="30.483520030975342">
        <time>2026-08-20T08:15:47Z</time>
      </trkpt>
      <trkpt lat="59.110114574432373" lon="30.483520030975342">
        <time>2026-08-20T08:15:49Z</time>
      </trkpt>
      <trkpt lat="59.110114574432373" lon="30.483520030975342">
        <time>2026-08-20T08:15:52Z</time>
      </trkpt>
      <trkpt lat="59.110114574432373" lon="30.483520030975342">
        <time>2026-08-20T08:15:54Z</time>
      </trkpt>
      <trkpt lat="59.110136032104492" lon="30.483520030975342">
        <time>2026-08-20T08:15:57Z</time>
      </trkpt>
      <trkpt lat="59.110157489776611" lon="30.483520030975342">
        <time>2026-08-20T08:15:59Z</time>
      </trkpt>
      <trkpt lat="59.110157489776611" lon="30.483520030975342">
        <time>2026-08-20T08:16:02Z</time>
      </trkpt>
      <trkpt lat="59.110157489776611" lon="30.483520030975342">
        <time>2026-08-20T08:16:04Z</time>
      </trkpt>
      <trkpt lat="59.110157489776611" lon="30.483520030975342">
        <time>2026-08-20T08:16:07Z</time>
      </trkpt>
      <trkpt lat="59.110157489776611" lon="30.483520030975342">
        <time>2026-08-20T08:16:09Z</time>
      </trkpt>
      <trkpt lat="59.110157489776611" lon="30.483520030975342">
        <time>2026-08-20T08:16:12Z</time>
      </trkpt>
      <trkpt lat="59.110157489776611" lon="30.483520030975342">
        <time>2026-08-20T08:16:14Z</time>
      </trkpt>
      <trkpt lat="59.110157489776611" lon="30.483520030975342">
        <time>2026-08-20T08:16:17Z</time>
      </trkpt>
      <trkpt lat="59.110157489776611" lon="30.483520030975342">
        <time>2026-08-20T08:16:19Z</time>
      </trkpt>
      <trkpt lat="59.110157489776611" lon="30.483498573303223">
        <time>2026-08-20T08:16:22Z</time>
      </trkpt>
      <trkpt lat="59.110157489776611" lon="30.483498573303223">
        <time>2026-08-20T08:16:24Z</time>
      </trkpt>
      <trkpt lat="59.110157489776611" lon="30.483498573303223">
        <time>2026-08-20T08:16:27Z</time>
      </trkpt>
      <trkpt lat="59.110157489776611" lon="30.483498573303223">
        <time>2026-08-20T08:16:29Z</time>
      </trkpt>
      <trkpt lat="59.110157489776611" lon="30.483498573303223">
        <time>2026-08-20T08:16:32Z</time>
      </trkpt>
      <trkpt lat="59.110157489776611" lon="30.483498573303223">
        <time>2026-08-20T08:16:34Z</time>
      </trkpt>
      <trkpt lat="59.110157489776611" lon="30.483498573303223">
        <time>2026-08-20T08:16:37Z</time>
      </trkpt>
      <trkpt lat="59.110157489776611" lon="30.483498573303223">
        <time>2026-08-20T08:16:39Z</time>
      </trkpt>
      <trkpt lat="59.110157489776611" lon="30.483498573303223">
        <time>2026-08-20T08:16:42Z</time>
      </trkpt>
      <trkpt lat="59.110157489776611" lon="30.483498573303223">
        <time>2026-08-20T08:16:44Z</time>
      </trkpt>
      <trkpt lat="59.110157489776611" lon="30.483498573303223">
        <time>2026-08-20T08:16:47Z</time>
      </trkpt>
      <trkpt lat="59.110157489776611" lon="30.483498573303223">
        <time>2026-08-20T08:16:49Z</time>
      </trkpt>
      <trkpt lat="59.110157489776611" lon="30.483498573303223">
        <time>2026-08-20T08:16:52Z</time>
      </trkpt>
      <trkpt lat="59.110157489776611" lon="30.483498573303223">
        <time>2026-08-20T08:16:54Z</time>
      </trkpt>
      <trkpt lat="59.110157489776611" lon="30.483498573303223">
        <time>2026-08-20T08:16:57Z</time>
      </trkpt>
      <trkpt lat="59.110136032104492" lon="30.483498573303223">
        <time>2026-08-20T08:16:59Z</time>
      </trkpt>
      <trkpt lat="59.110093116760254" lon="30.483477115631104">
        <time>2026-08-20T08:17:02Z</time>
      </trkpt>
      <trkpt lat="59.110071659088135" lon="30.483498573303223">
        <time>2026-08-20T08:17:04Z</time>
      </trkpt>
      <trkpt lat="59.110028743743896" lon="30.483498573303223">
        <time>2026-08-20T08:17:07Z</time>
      </trkpt>
      <trkpt lat="59.110028743743896" lon="30.483477115631104">
        <time>2026-08-20T08:17:09Z</time>
      </trkpt>
      <trkpt lat="59.110028743743896" lon="30.483477115631104">
        <time>2026-08-20T08:17:12Z</time>
      </trkpt>
      <trkpt lat="59.110028743743896" lon="30.483477115631104">
        <time>2026-08-20T08:17:14Z</time>
      </trkpt>
      <trkpt lat="59.110028743743896" lon="30.483477115631104">
        <time>2026-08-20T08:17:17Z</time>
      </trkpt>
      <trkpt lat="59.110007286071777" lon="30.483520030975342">
        <time>2026-08-20T08:17:19Z</time>
      </trkpt>
      <trkpt lat="59.110007286071777" lon="30.483520030975342">
        <time>2026-08-20T08:17:22Z</time>
      </trkpt>
      <trkpt lat="59.109964370727539" lon="30.483498573303223">
        <time>2026-08-20T08:17:24Z</time>
      </trkpt>
      <trkpt lat="59.109964370727539" lon="30.483498573303223">
        <time>2026-08-20T08:17:27Z</time>
      </trkpt>
      <trkpt lat="59.109964370727539" lon="30.483498573303223">
        <time>2026-08-20T08:17:29Z</time>
      </trkpt>
      <trkpt lat="59.109964370727539" lon="30.483455657958984">
        <time>2026-08-20T08:17:32Z</time>
      </trkpt>
      <trkpt lat="59.10994291305542" lon="30.483455657958984">
        <time>2026-08-20T08:17:34Z</time>
      </trkpt>
      <trkpt lat="59.109899997711182" lon="30.483455657958984">
        <time>2026-08-20T08:17:37Z</time>
      </trkpt>
      <trkpt lat="59.109878540039063" lon="30.483434200286865">
        <time>2026-08-20T08:17:39Z</time>
      </trkpt>
      <trkpt lat="59.109857082366943" lon="30.483434200286865">
        <time>2026-08-20T08:17:42Z</time>
      </trkpt>
      <trkpt lat="59.109857082366943" lon="30.483434200286865">
        <time>2026-08-20T08:17:44Z</time>
      </trkpt>
      <trkpt lat="59.109857082366943" lon="30.483455657958984">
        <time>2026-08-20T08:17:47Z</time>
      </trkpt>
      <trkpt lat="59.109792709350586" lon="30.483455657958984">
        <time>2026-08-20T08:17:49Z</time>
      </trkpt>
      <trkpt lat="59.109771251678467" lon="30.483434200286865">
        <time>2026-08-20T08:17:52Z</time>
      </trkpt>
      <trkpt lat="59.109749794006348" lon="30.483434200286865">
        <time>2026-08-20T08:17:54Z</time>
      </trkpt>
      <trkpt lat="59.109749794006348" lon="30.483434200286865">
        <time>2026-08-20T08:17:57Z</time>
      </trkpt>
      <trkpt lat="59.109771251678467" lon="30.483434200286865">
        <time>2026-08-20T08:17:59Z</time>
      </trkpt>
      <trkpt lat="59.109771251678467" lon="30.483455657958984">
        <time>2026-08-20T08:18:02Z</time>
      </trkpt>
      <trkpt lat="59.109771251678467" lon="30.483455657958984">
        <time>2026-08-20T08:18:04Z</time>
      </trkpt>
      <trkpt lat="59.109771251678467" lon="30.483455657958984">
        <time>2026-08-20T08:18:07Z</time>
      </trkpt>
      <trkpt lat="59.109749794006348" lon="30.483477115631104">
        <time>2026-08-20T08:18:09Z</time>
      </trkpt>
      <trkpt lat="59.109749794006348" lon="30.483477115631104">
        <time>2026-08-20T08:18:12Z</time>
      </trkpt>
      <trkpt lat="59.109728336334229" lon="30.483455657958984">
        <time>2026-08-20T08:18:14Z</time>
      </trkpt>
      <trkpt lat="59.109728336334229" lon="30.483455657958984">
        <time>2026-08-20T08:18:17Z</time>
      </trkpt>
      <trkpt lat="59.109728336334229" lon="30.483455657958984">
        <time>2026-08-20T08:18:19Z</time>
      </trkpt>
      <trkpt lat="59.109706878662109" lon="30.483477115631104">
        <time>2026-08-20T08:18:22Z</time>
      </trkpt>
      <trkpt lat="59.10968542098999" lon="30.483477115631104">
        <time>2026-08-20T08:18:24Z</time>
      </trkpt>
      <trkpt lat="59.10968542098999" lon="30.483477115631104">
        <time>2026-08-20T08:18:27Z</time>
      </trkpt>
      <trkpt lat="59.109663963317871" lon="30.483520030975342">
        <time>2026-08-20T08:18:29Z</time>
      </trkpt>
      <trkpt lat="59.109621047973633" lon="30.483520030975342">
        <time>2026-08-20T08:18:32Z</time>
      </trkpt>
      <trkpt lat="59.109578132629395" lon="30.483541488647461">
        <time>2026-08-20T08:18:34Z</time>
      </trkpt>
      <trkpt lat="59.109556674957275" lon="30.48356294631958">
        <time>2026-08-20T08:18:37Z</time>
      </trkpt>
      <trkpt lat="59.109535217285156" lon="30.483541488647461">
        <time>2026-08-20T08:18:39Z</time>
      </trkpt>
      <trkpt lat="59.109513759613037" lon="30.483541488647461">
        <time>2026-08-20T08:18:42Z</time>
      </trkpt>
      <trkpt lat="59.109513759613037" lon="30.483520030975342">
        <time>2026-08-20T08:18:44Z</time>
      </trkpt>
      <trkpt lat="59.109513759613037" lon="30.483520030975342">
        <time>2026-08-20T08:18:47Z</time>
      </trkpt>
      <trkpt lat="59.109513759613037" lon="30.483520030975342">
        <time>2026-08-20T08:18:49Z</time>
      </trkpt>
      <trkpt lat="59.109513759613037" lon="30.483520030975342">
        <time>2026-08-20T08:18:52Z</time>
      </trkpt>
      <trkpt lat="59.109513759613037" lon="30.483520030975342">
        <time>2026-08-20T08:18:54Z</time>
      </trkpt>
      <trkpt lat="59.109535217285156" lon="30.483520030975342">
        <time>2026-08-20T08:18:57Z</time>
      </trkpt>
      <trkpt lat="59.109556674957275" lon="30.483498573303223">
        <time>2026-08-20T08:18:59Z</time>
      </trkpt>
      <trkpt lat="59.109556674957275" lon="30.483498573303223">
        <time>2026-08-20T08:19:02Z</time>
      </trkpt>
      <trkpt lat="59.109556674957275" lon="30.483498573303223">
        <time>2026-08-20T08:19:04Z</time>
      </trkpt>
      <trkpt lat="59.109578132629395" lon="30.483477115631104">
        <time>2026-08-20T08:19:07Z</time>
      </trkpt>
      <trkpt lat="59.109599590301514" lon="30.483477115631104">
        <time>2026-08-20T08:19:09Z</time>
      </trkpt>
      <trkpt lat="59.109621047973633" lon="30.483498573303223">
        <time>2026-08-20T08:19:12Z</time>
      </trkpt>
      <trkpt lat="59.109621047973633" lon="30.483498573303223">
        <time>2026-08-20T08:19:14Z</time>
      </trkpt>
      <trkpt lat="59.109642505645752" lon="30.483498573303223">
        <time>2026-08-20T08:19:17Z</time>
      </trkpt>
      <trkpt lat="59.10968542098999" lon="30.483541488647461">
        <time>2026-08-20T08:19:19Z</time>
      </trkpt>
      <trkpt lat="59.10968542098999" lon="30.48356294631958">
        <time>2026-08-20T08:19:22Z</time>
      </trkpt>
      <trkpt lat="59.10968542098999" lon="30.48356294631958">
        <time>2026-08-20T08:19:24Z</time>
      </trkpt>
      <trkpt lat="59.10968542098999" lon="30.48356294631958">
        <time>2026-08-20T08:19:27Z</time>
      </trkpt>
      <trkpt lat="59.10968542098999" lon="30.483648777008057">
        <time>2026-08-20T08:19:29Z</time>
      </trkpt>
      <trkpt lat="59.10968542098999" lon="30.483713150024414">
        <time>2026-08-20T08:19:32Z</time>
      </trkpt>
      <trkpt lat="59.10968542098999" lon="30.483734607696533">
        <time>2026-08-20T08:19:34Z</time>
      </trkpt>
      <trkpt lat="59.109706878662109" lon="30.483798980712891">
        <time>2026-08-20T08:19:37Z</time>
      </trkpt>
      <trkpt lat="59.109706878662109" lon="30.483884811401367">
        <time>2026-08-20T08:19:39Z</time>
      </trkpt>
      <trkpt lat="59.10968542098999" lon="30.483906269073486">
        <time>2026-08-20T08:19:42Z</time>
      </trkpt>
      <trkpt lat="59.10968542098999" lon="30.483927726745605">
        <time>2026-08-20T08:19:44Z</time>
      </trkpt>
      <trkpt lat="59.10968542098999" lon="30.483927726745605">
        <time>2026-08-20T08:19:47Z</time>
      </trkpt>
      <trkpt lat="59.109706878662109" lon="30.483927726745605">
        <time>2026-08-20T08:19:49Z</time>
      </trkpt>
      <trkpt lat="59.109706878662109" lon="30.483927726745605">
        <time>2026-08-20T08:19:52Z</time>
      </trkpt>
      <trkpt lat="59.109706878662109" lon="30.483949184417725">
        <time>2026-08-20T08:19:54Z</time>
      </trkpt>
      <trkpt lat="59.109706878662109" lon="30.483949184417725">
        <time>2026-08-20T08:19:57Z</time>
      </trkpt>
      <trkpt lat="59.109706878662109" lon="30.483949184417725">
        <time>2026-08-20T08:19:59Z</time>
      </trkpt>
      <trkpt lat="59.109728336334229" lon="30.483970642089844">
        <time>2026-08-20T08:20:02Z</time>
      </trkpt>
      <trkpt lat="59.109728336334229" lon="30.483992099761963">
        <time>2026-08-20T08:20:04Z</time>
      </trkpt>
      <trkpt lat="59.109728336334229" lon="30.484013557434082">
        <time>2026-08-20T08:20:07Z</time>
      </trkpt>
      <trkpt lat="59.109749794006348" lon="30.48405647277832">
        <time>2026-08-20T08:20:09Z</time>
      </trkpt>
      <trkpt lat="59.109749794006348" lon="30.484120845794678">
        <time>2026-08-20T08:20:12Z</time>
      </trkpt>
      <trkpt lat="59.109771251678467" lon="30.484185218811035">
        <time>2026-08-20T08:20:14Z</time>
      </trkpt>
      <trkpt lat="59.109771251678467" lon="30.484206676483154">
        <time>2026-08-20T08:20:17Z</time>
      </trkpt>
      <trkpt lat="59.109792709350586" lon="30.484228134155273">
        <time>2026-08-20T08:20:19Z</time>
      </trkpt>
      <trkpt lat="59.109792709350586" lon="30.484228134155273">
        <time>2026-08-20T08:20:22Z</time>
      </trkpt>
      <trkpt lat="59.109792709350586" lon="30.484271049499512">
        <time>2026-08-20T08:20:24Z</time>
      </trkpt>
      <trkpt lat="59.109792709350586" lon="30.484292507171631">
        <time>2026-08-20T08:20:27Z</time>
      </trkpt>
      <trkpt lat="59.109792709350586" lon="30.48431396484375">
        <time>2026-08-20T08:20:29Z</time>
      </trkpt>
      <trkpt lat="59.109792709350586" lon="30.484356880187988">
        <time>2026-08-20T08:20:32Z</time>
      </trkpt>
      <trkpt lat="59.109814167022705" lon="30.484442710876465">
        <time>2026-08-20T08:20:34Z</time>
      </trkpt>
      <trkpt lat="59.109792709350586" lon="30.484485626220703">
        <time>2026-08-20T08:20:37Z</time>
      </trkpt>
      <trkpt lat="59.109792709350586" lon="30.484549999237061">
        <time>2026-08-20T08:20:39Z</time>
      </trkpt>
      <trkpt lat="59.109792709350586" lon="30.484549999237061">
        <time>2026-08-20T08:20:42Z</time>
      </trkpt>
      <trkpt lat="59.109792709350586" lon="30.48457145690918">
        <time>2026-08-20T08:20:44Z</time>
      </trkpt>
      <trkpt lat="59.109792709350586" lon="30.48457145690918">
        <time>2026-08-20T08:20:47Z</time>
      </trkpt>
      <trkpt lat="59.109771251678467" lon="30.48457145690918">
        <time>2026-08-20T08:20:49Z</time>
      </trkpt>
      <trkpt lat="59.109749794006348" lon="30.484635829925537">
        <time>2026-08-20T08:20:52Z</time>
      </trkpt>
      <trkpt lat="59.109749794006348" lon="30.484657287597656">
        <time>2026-08-20T08:20:54Z</time>
      </trkpt>
      <trkpt lat="59.109749794006348" lon="30.484700202941895">
        <time>2026-08-20T08:20:57Z</time>
      </trkpt>
      <trkpt lat="59.109749794006348" lon="30.484721660614014">
        <time>2026-08-20T08:20:59Z</time>
      </trkpt>
      <trkpt lat="59.109749794006348" lon="30.484721660614014">
        <time>2026-08-20T08:21:02Z</time>
      </trkpt>
      <trkpt lat="59.109749794006348" lon="30.484721660614014">
        <time>2026-08-20T08:21:04Z</time>
      </trkpt>
      <trkpt lat="59.109749794006348" lon="30.484721660614014">
        <time>2026-08-20T08:21:07Z</time>
      </trkpt>
      <trkpt lat="59.109749794006348" lon="30.484743118286133">
        <time>2026-08-20T08:21:09Z</time>
      </trkpt>
      <trkpt lat="59.109749794006348" lon="30.484764575958252">
        <time>2026-08-20T08:21:12Z</time>
      </trkpt>
      <trkpt lat="59.109749794006348" lon="30.484871864318848">
        <time>2026-08-20T08:21:14Z</time>
      </trkpt>
      <trkpt lat="59.109749794006348" lon="30.484936237335205">
        <time>2026-08-20T08:21:17Z</time>
      </trkpt>
      <trkpt lat="59.109749794006348" lon="30.484957695007324">
        <time>2026-08-20T08:21:19Z</time>
      </trkpt>
      <trkpt lat="59.109749794006348" lon="30.484957695007324">
        <time>2026-08-20T08:21:22Z</time>
      </trkpt>
      <trkpt lat="59.109728336334229" lon="30.485000610351563">
        <time>2026-08-20T08:21:24Z</time>
      </trkpt>
      <trkpt lat="59.109706878662109" lon="30.485000610351563">
        <time>2026-08-20T08:21:27Z</time>
      </trkpt>
      <trkpt lat="59.109706878662109" lon="30.485022068023682">
        <time>2026-08-20T08:21:29Z</time>
      </trkpt>
      <trkpt lat="59.109706878662109" lon="30.48506498336792">
        <time>2026-08-20T08:21:32Z</time>
      </trkpt>
      <trkpt lat="59.10968542098999" lon="30.485107898712158">
        <time>2026-08-20T08:21:34Z</time>
      </trkpt>
      <trkpt lat="59.109706878662109" lon="30.485193729400635">
        <time>2026-08-20T08:21:37Z</time>
      </trkpt>
      <trkpt lat="59.109706878662109" lon="30.485258102416992">
        <time>2026-08-20T08:21:39Z</time>
      </trkpt>
      <trkpt lat="59.109706878662109" lon="30.485279560089111">
        <time>2026-08-20T08:21:42Z</time>
      </trkpt>
      <trkpt lat="59.10968542098999" lon="30.485343933105469">
        <time>2026-08-20T08:21:44Z</time>
      </trkpt>
      <trkpt lat="59.109663963317871" lon="30.485343933105469">
        <time>2026-08-20T08:21:47Z</time>
      </trkpt>
      <trkpt lat="59.109642505645752" lon="30.485343933105469">
        <time>2026-08-20T08:21:49Z</time>
      </trkpt>
      <trkpt lat="59.109642505645752" lon="30.485386848449707">
        <time>2026-08-20T08:21:52Z</time>
      </trkpt>
      <trkpt lat="59.109642505645752" lon="30.485429763793945">
        <time>2026-08-20T08:21:54Z</time>
      </trkpt>
      <trkpt lat="59.109663963317871" lon="30.485451221466064">
        <time>2026-08-20T08:21:57Z</time>
      </trkpt>
      <trkpt lat="59.10968542098999" lon="30.485472679138184">
        <time>2026-08-20T08:21:59Z</time>
      </trkpt>
      <trkpt lat="59.109663963317871" lon="30.485494136810303">
        <time>2026-08-20T08:22:02Z</time>
      </trkpt>
      <trkpt lat="59.10968542098999" lon="30.48555850982666">
        <time>2026-08-20T08:22:04Z</time>
      </trkpt>
      <trkpt lat="59.109663963317871" lon="30.485579967498779">
        <time>2026-08-20T08:22:07Z</time>
      </trkpt>
      <trkpt lat="59.10968542098999" lon="30.485665798187256">
        <time>2026-08-20T08:22:09Z</time>
      </trkpt>
      <trkpt lat="59.10968542098999" lon="30.485687255859375">
        <time>2026-08-20T08:22:12Z</time>
      </trkpt>
      <trkpt lat="59.109706878662109" lon="30.485708713531494">
        <time>2026-08-20T08:22:14Z</time>
      </trkpt>
      <trkpt lat="59.109706878662109" lon="30.485730171203613">
        <time>2026-08-20T08:22:17Z</time>
      </trkpt>
      <trkpt lat="59.10968542098999" lon="30.485773086547852">
        <time>2026-08-20T08:22:19Z</time>
      </trkpt>
      <trkpt lat="59.10968542098999" lon="30.485794544219971">
        <time>2026-08-20T08:22:22Z</time>
      </trkpt>
      <trkpt lat="59.10968542098999" lon="30.485794544219971">
        <time>2026-08-20T08:22:24Z</time>
      </trkpt>
      <trkpt lat="59.109663963317871" lon="30.48581600189209">
        <time>2026-08-20T08:22:27Z</time>
      </trkpt>
      <trkpt lat="59.109642505645752" lon="30.48581600189209">
        <time>2026-08-20T08:22:29Z</time>
      </trkpt>
      <trkpt lat="59.109621047973633" lon="30.48581600189209">
        <time>2026-08-20T08:22:32Z</time>
      </trkpt>
      <trkpt lat="59.109599590301514" lon="30.485880374908447">
        <time>2026-08-20T08:22:37Z</time>
      </trkpt>
      <trkpt lat="59.109621047973633" lon="30.485944747924805">
        <time>2026-08-20T08:22:42Z</time>
      </trkpt>
      <trkpt lat="59.109621047973633" lon="30.485944747924805">
        <time>2026-08-20T08:22:44Z</time>
      </trkpt>
      <trkpt lat="59.109621047973633" lon="30.485987663269043">
        <time>2026-08-20T08:22:47Z</time>
      </trkpt>
      <trkpt lat="59.109621047973633" lon="30.486009120941162">
        <time>2026-08-20T08:22:49Z</time>
      </trkpt>
      <trkpt lat="59.109621047973633" lon="30.4860520362854">
        <time>2026-08-20T08:22:52Z</time>
      </trkpt>
      <trkpt lat="59.109621047973633" lon="30.486116409301758">
        <time>2026-08-20T08:22:54Z</time>
      </trkpt>
      <trkpt lat="59.109642505645752" lon="30.486180782318115">
        <time>2026-08-20T08:22:57Z</time>
      </trkpt>
      <trkpt lat="59.109642505645752" lon="30.486266613006592">
        <time>2026-08-20T08:22:59Z</time>
      </trkpt>
      <trkpt lat="59.109642505645752" lon="30.486373901367188">
        <time>2026-08-20T08:23:02Z</time>
      </trkpt>
      <trkpt lat="59.109642505645752" lon="30.486459732055664">
        <time>2026-08-20T08:23:04Z</time>
      </trkpt>
      <trkpt lat="59.109642505645752" lon="30.486481189727783">
        <time>2026-08-20T08:23:07Z</time>
      </trkpt>
      <trkpt lat="59.109642505645752" lon="30.486524105072021">
        <time>2026-08-20T08:23:09Z</time>
      </trkpt>
      <trkpt lat="59.109642505645752" lon="30.486524105072021">
        <time>2026-08-20T08:23:12Z</time>
      </trkpt>
      <trkpt lat="59.109642505645752" lon="30.486545562744141">
        <time>2026-08-20T08:23:14Z</time>
      </trkpt>
      <trkpt lat="59.109642505645752" lon="30.486631393432617">
        <time>2026-08-20T08:23:17Z</time>
      </trkpt>
      <trkpt lat="59.109663963317871" lon="30.486695766448975">
        <time>2026-08-20T08:23:19Z</time>
      </trkpt>
      <trkpt lat="59.109663963317871" lon="30.486695766448975">
        <time>2026-08-20T08:23:22Z</time>
      </trkpt>
      <trkpt lat="59.109663963317871" lon="30.486717224121094">
        <time>2026-08-20T08:23:24Z</time>
      </trkpt>
      <trkpt lat="59.109642505645752" lon="30.486674308776855">
        <time>2026-08-20T08:23:27Z</time>
      </trkpt>
      <trkpt lat="59.109621047973633" lon="30.486609935760498">
        <time>2026-08-20T08:23:29Z</time>
      </trkpt>
      <trkpt lat="59.109621047973633" lon="30.486609935760498">
        <time>2026-08-20T08:23:32Z</time>
      </trkpt>
      <trkpt lat="59.109642505645752" lon="30.486588478088379">
        <time>2026-08-20T08:23:34Z</time>
      </trkpt>
      <trkpt lat="59.109642505645752" lon="30.486588478088379">
        <time>2026-08-20T08:23:37Z</time>
      </trkpt>
      <trkpt lat="59.109642505645752" lon="30.486588478088379">
        <time>2026-08-20T08:23:39Z</time>
      </trkpt>
      <trkpt lat="59.109642505645752" lon="30.486588478088379">
        <time>2026-08-20T08:23:42Z</time>
      </trkpt>
      <trkpt lat="59.109621047973633" lon="30.486545562744141">
        <time>2026-08-20T08:23:44Z</time>
      </trkpt>
      <trkpt lat="59.109642505645752" lon="30.486524105072021">
        <time>2026-08-20T08:23:47Z</time>
      </trkpt>
      <trkpt lat="59.109642505645752" lon="30.486524105072021">
        <time>2026-08-20T08:23:49Z</time>
      </trkpt>
      <trkpt lat="59.109642505645752" lon="30.486524105072021">
        <time>2026-08-20T08:23:52Z</time>
      </trkpt>
      <trkpt lat="59.109642505645752" lon="30.486524105072021">
        <time>2026-08-20T08:23:54Z</time>
      </trkpt>
      <trkpt lat="59.109642505645752" lon="30.486524105072021">
        <time>2026-08-20T08:23:57Z</time>
      </trkpt>
      <trkpt lat="59.109642505645752" lon="30.486524105072021">
        <time>2026-08-20T08:23:59Z</time>
      </trkpt>
      <trkpt lat="59.109642505645752" lon="30.486524105072021">
        <time>2026-08-20T08:24:02Z</time>
      </trkpt>
      <trkpt lat="59.109642505645752" lon="30.486524105072021">
        <time>2026-08-20T08:24:04Z</time>
      </trkpt>
      <trkpt lat="59.109642505645752" lon="30.486524105072021">
        <time>2026-08-20T08:24:07Z</time>
      </trkpt>
      <trkpt lat="59.109642505645752" lon="30.486524105072021">
        <time>2026-08-20T08:24:09Z</time>
      </trkpt>
      <trkpt lat="59.109642505645752" lon="30.486524105072021">
        <time>2026-08-20T08:24:12Z</time>
      </trkpt>
      <trkpt lat="59.109642505645752" lon="30.486524105072021">
        <time>2026-08-20T08:24:14Z</time>
      </trkpt>
      <trkpt lat="59.109642505645752" lon="30.486524105072021">
        <time>2026-08-20T08:24:17Z</time>
      </trkpt>
      <trkpt lat="59.109642505645752" lon="30.486524105072021">
        <time>2026-08-20T08:24:19Z</time>
      </trkpt>
      <trkpt lat="59.109642505645752" lon="30.486524105072021">
        <time>2026-08-20T08:24:22Z</time>
      </trkpt>
      <trkpt lat="59.109642505645752" lon="30.486524105072021">
        <time>2026-08-20T08:24:24Z</time>
      </trkpt>
      <trkpt lat="59.109621047973633" lon="30.486545562744141">
        <time>2026-08-20T08:24:27Z</time>
      </trkpt>
      <trkpt lat="59.109621047973633" lon="30.486545562744141">
        <time>2026-08-20T08:24:29Z</time>
      </trkpt>
      <trkpt lat="59.109621047973633" lon="30.48656702041626">
        <time>2026-08-20T08:24:32Z</time>
      </trkpt>
      <trkpt lat="59.109599590301514" lon="30.486588478088379">
        <time>2026-08-20T08:24:34Z</time>
      </trkpt>
      <trkpt lat="59.109578132629395" lon="30.486631393432617">
        <time>2026-08-20T08:24:37Z</time>
      </trkpt>
      <trkpt lat="59.109578132629395" lon="30.486652851104736">
        <time>2026-08-20T08:24:39Z</time>
      </trkpt>
      <trkpt lat="59.109578132629395" lon="30.486652851104736">
        <time>2026-08-20T08:24:42Z</time>
      </trkpt>
      <trkpt lat="59.109578132629395" lon="30.486652851104736">
        <time>2026-08-20T08:24:44Z</time>
      </trkpt>
      <trkpt lat="59.109578132629395" lon="30.486652851104736">
        <time>2026-08-20T08:24:47Z</time>
      </trkpt>
      <trkpt lat="59.109599590301514" lon="30.486695766448975">
        <time>2026-08-20T08:24:49Z</time>
      </trkpt>
      <trkpt lat="59.109621047973633" lon="30.486738681793213">
        <time>2026-08-20T08:24:52Z</time>
      </trkpt>
      <trkpt lat="59.109621047973633" lon="30.486760139465332">
        <time>2026-08-20T08:24:54Z</time>
      </trkpt>
      <trkpt lat="59.109621047973633" lon="30.486781597137451">
        <time>2026-08-20T08:24:57Z</time>
      </trkpt>
      <trkpt lat="59.109621047973633" lon="30.48680305480957">
        <time>2026-08-20T08:24:59Z</time>
      </trkpt>
      <trkpt lat="59.109621047973633" lon="30.486845970153809">
        <time>2026-08-20T08:25:02Z</time>
      </trkpt>
      <trkpt lat="59.109642505645752" lon="30.486910343170166">
        <time>2026-08-20T08:25:04Z</time>
      </trkpt>
      <trkpt lat="59.109642505645752" lon="30.486974716186523">
        <time>2026-08-20T08:25:07Z</time>
      </trkpt>
      <trkpt lat="59.109642505645752" lon="30.486974716186523">
        <time>2026-08-20T08:25:09Z</time>
      </trkpt>
      <trkpt lat="59.109642505645752" lon="30.487017631530762">
        <time>2026-08-20T08:25:12Z</time>
      </trkpt>
      <trkpt lat="59.109642505645752" lon="30.487060546875">
        <time>2026-08-20T08:25:14Z</time>
      </trkpt>
      <trkpt lat="59.109621047973633" lon="30.487082004547119">
        <time>2026-08-20T08:25:17Z</time>
      </trkpt>
      <trkpt lat="59.109621047973633" lon="30.487060546875">
        <time>2026-08-20T08:25:19Z</time>
      </trkpt>
      <trkpt lat="59.109599590301514" lon="30.487103462219238">
        <time>2026-08-20T08:25:22Z</time>
      </trkpt>
      <trkpt lat="59.109578132629395" lon="30.487167835235596">
        <time>2026-08-20T08:25:24Z</time>
      </trkpt>
      <trkpt lat="59.109578132629395" lon="30.487167835235596">
        <time>2026-08-20T08:25:27Z</time>
      </trkpt>
      <trkpt lat="59.109578132629395" lon="30.487167835235596">
        <time>2026-08-20T08:25:29Z</time>
      </trkpt>
      <trkpt lat="59.109535217285156" lon="30.487124919891357">
        <time>2026-08-20T08:25:32Z</time>
      </trkpt>
      <trkpt lat="59.109492301940918" lon="30.487103462219238">
        <time>2026-08-20T08:25:34Z</time>
      </trkpt>
      <trkpt lat="59.109470844268799" lon="30.487124919891357">
        <time>2026-08-20T08:25:37Z</time>
      </trkpt>
      <trkpt lat="59.109427928924561" lon="30.487146377563477">
        <time>2026-08-20T08:25:39Z</time>
      </trkpt>
      <trkpt lat="59.109385013580322" lon="30.487189292907715">
        <time>2026-08-20T08:25:42Z</time>
      </trkpt>
      <trkpt lat="59.109363555908203" lon="30.487210750579834">
        <time>2026-08-20T08:25:44Z</time>
      </trkpt>
      <trkpt lat="59.109363555908203" lon="30.487210750579834">
        <time>2026-08-20T08:25:47Z</time>
      </trkpt>
      <trkpt lat="59.109363555908203" lon="30.487253665924072">
        <time>2026-08-20T08:25:49Z</time>
      </trkpt>
      <trkpt lat="59.109363555908203" lon="30.487275123596191">
        <time>2026-08-20T08:25:52Z</time>
      </trkpt>
      <trkpt lat="59.109363555908203" lon="30.48731803894043">
        <time>2026-08-20T08:25:54Z</time>
      </trkpt>
      <trkpt lat="59.109385013580322" lon="30.48731803894043">
        <time>2026-08-20T08:25:57Z</time>
      </trkpt>
      <trkpt lat="59.109406471252441" lon="30.487339496612549">
        <time>2026-08-20T08:25:59Z</time>
      </trkpt>
      <trkpt lat="59.10944938659668" lon="30.487360954284668">
        <time>2026-08-20T08:26:02Z</time>
      </trkpt>
      <trkpt lat="59.109492301940918" lon="30.487403869628906">
        <time>2026-08-20T08:26:04Z</time>
      </trkpt>
      <trkpt lat="59.109492301940918" lon="30.487425327301025">
        <time>2026-08-20T08:26:07Z</time>
      </trkpt>
      <trkpt lat="59.109513759613037" lon="30.487425327301025">
        <time>2026-08-20T08:26:09Z</time>
      </trkpt>
      <trkpt lat="59.109535217285156" lon="30.487446784973145">
        <time>2026-08-20T08:26:12Z</time>
      </trkpt>
      <trkpt lat="59.109599590301514" lon="30.487489700317383">
        <time>2026-08-20T08:26:14Z</time>
      </trkpt>
      <trkpt lat="59.109599590301514" lon="30.487489700317383">
        <time>2026-08-20T08:26:17Z</time>
      </trkpt>
      <trkpt lat="59.109642505645752" lon="30.487532615661621">
        <time>2026-08-20T08:26:19Z</time>
      </trkpt>
      <trkpt lat="59.109642505645752" lon="30.48755407333374">
        <time>2026-08-20T08:26:22Z</time>
      </trkpt>
      <trkpt lat="59.109642505645752" lon="30.487639904022217">
        <time>2026-08-20T08:26:24Z</time>
      </trkpt>
      <trkpt lat="59.109621047973633" lon="30.487682819366455">
        <time>2026-08-20T08:26:27Z</time>
      </trkpt>
      <trkpt lat="59.109621047973633" lon="30.487682819366455">
        <time>2026-08-20T08:26:29Z</time>
      </trkpt>
      <trkpt lat="59.109621047973633" lon="30.487682819366455">
        <time>2026-08-20T08:26:32Z</time>
      </trkpt>
      <trkpt lat="59.109621047973633" lon="30.487682819366455">
        <time>2026-08-20T08:26:34Z</time>
      </trkpt>
      <trkpt lat="59.109663963317871" lon="30.487704277038574">
        <time>2026-08-20T08:26:37Z</time>
      </trkpt>
      <trkpt lat="59.109663963317871" lon="30.487747192382813">
        <time>2026-08-20T08:26:39Z</time>
      </trkpt>
      <trkpt lat="59.109663963317871" lon="30.487790107727051">
        <time>2026-08-20T08:26:42Z</time>
      </trkpt>
      <trkpt lat="59.109663963317871" lon="30.487854480743408">
        <time>2026-08-20T08:26:44Z</time>
      </trkpt>
      <trkpt lat="59.109663963317871" lon="30.487875938415527">
        <time>2026-08-20T08:26:47Z</time>
      </trkpt>
      <trkpt lat="59.10968542098999" lon="30.487897396087646">
        <time>2026-08-20T08:26:49Z</time>
      </trkpt>
      <trkpt lat="59.109663963317871" lon="30.487918853759766">
        <time>2026-08-20T08:26:52Z</time>
      </trkpt>
      <trkpt lat="59.109663963317871" lon="30.487940311431885">
        <time>2026-08-20T08:26:54Z</time>
      </trkpt>
      <trkpt lat="59.109663963317871" lon="30.487940311431885">
        <time>2026-08-20T08:26:57Z</time>
      </trkpt>
      <trkpt lat="59.109663963317871" lon="30.487961769104004">
        <time>2026-08-20T08:26:59Z</time>
      </trkpt>
      <trkpt lat="59.10968542098999" lon="30.488026142120361">
        <time>2026-08-20T08:27:02Z</time>
      </trkpt>
      <trkpt lat="59.109706878662109" lon="30.4880690574646">
        <time>2026-08-20T08:27:04Z</time>
      </trkpt>
      <trkpt lat="59.109728336334229" lon="30.4880690574646">
        <time>2026-08-20T08:27:07Z</time>
      </trkpt>
      <trkpt lat="59.109728336334229" lon="30.488090515136719">
        <time>2026-08-20T08:27:09Z</time>
      </trkpt>
      <trkpt lat="59.109728336334229" lon="30.488111972808838">
        <time>2026-08-20T08:27:12Z</time>
      </trkpt>
      <trkpt lat="59.109728336334229" lon="30.488111972808838">
        <time>2026-08-20T08:27:14Z</time>
      </trkpt>
      <trkpt lat="59.109728336334229" lon="30.488154888153076">
        <time>2026-08-20T08:27:17Z</time>
      </trkpt>
      <trkpt lat="59.109728336334229" lon="30.488219261169434">
        <time>2026-08-20T08:27:19Z</time>
      </trkpt>
      <trkpt lat="59.109728336334229" lon="30.488283634185791">
        <time>2026-08-20T08:27:22Z</time>
      </trkpt>
      <trkpt lat="59.109728336334229" lon="30.488326549530029">
        <time>2026-08-20T08:27:24Z</time>
      </trkpt>
      <trkpt lat="59.109728336334229" lon="30.488326549530029">
        <time>2026-08-20T08:27:27Z</time>
      </trkpt>
      <trkpt lat="59.109728336334229" lon="30.488369464874268">
        <time>2026-08-20T08:27:29Z</time>
      </trkpt>
      <trkpt lat="59.109728336334229" lon="30.488412380218506">
        <time>2026-08-20T08:27:32Z</time>
      </trkpt>
      <trkpt lat="59.109728336334229" lon="30.488412380218506">
        <time>2026-08-20T08:27:34Z</time>
      </trkpt>
      <trkpt lat="59.109728336334229" lon="30.488412380218506">
        <time>2026-08-20T08:27:37Z</time>
      </trkpt>
      <trkpt lat="59.109749794006348" lon="30.488455295562744">
        <time>2026-08-20T08:27:39Z</time>
      </trkpt>
      <trkpt lat="59.109728336334229" lon="30.488476753234863">
        <time>2026-08-20T08:27:42Z</time>
      </trkpt>
      <trkpt lat="59.109728336334229" lon="30.488498210906982">
        <time>2026-08-20T08:27:44Z</time>
      </trkpt>
      <trkpt lat="59.109728336334229" lon="30.488498210906982">
        <time>2026-08-20T08:27:47Z</time>
      </trkpt>
      <trkpt lat="59.109706878662109" lon="30.488498210906982">
        <time>2026-08-20T08:27:49Z</time>
      </trkpt>
      <trkpt lat="59.109706878662109" lon="30.488498210906982">
        <time>2026-08-20T08:27:52Z</time>
      </trkpt>
      <trkpt lat="59.109706878662109" lon="30.488498210906982">
        <time>2026-08-20T08:27:54Z</time>
      </trkpt>
      <trkpt lat="59.109706878662109" lon="30.488498210906982">
        <time>2026-08-20T08:27:57Z</time>
      </trkpt>
      <trkpt lat="59.109749794006348" lon="30.488476753234863">
        <time>2026-08-20T08:27:59Z</time>
      </trkpt>
      <trkpt lat="59.109749794006348" lon="30.488476753234863">
        <time>2026-08-20T08:28:02Z</time>
      </trkpt>
      <trkpt lat="59.109771251678467" lon="30.488519668579102">
        <time>2026-08-20T08:28:04Z</time>
      </trkpt>
      <trkpt lat="59.109792709350586" lon="30.488541126251221">
        <time>2026-08-20T08:28:07Z</time>
      </trkpt>
      <trkpt lat="59.109814167022705" lon="30.488584041595459">
        <time>2026-08-20T08:28:09Z</time>
      </trkpt>
      <trkpt lat="59.109814167022705" lon="30.488584041595459">
        <time>2026-08-20T08:28:12Z</time>
      </trkpt>
      <trkpt lat="59.109814167022705" lon="30.488648414611816">
        <time>2026-08-20T08:28:14Z</time>
      </trkpt>
      <trkpt lat="59.109814167022705" lon="30.488669872283936">
        <time>2026-08-20T08:28:17Z</time>
      </trkpt>
      <trkpt lat="59.109814167022705" lon="30.488648414611816">
        <time>2026-08-20T08:28:19Z</time>
      </trkpt>
      <trkpt lat="59.109835624694824" lon="30.488648414611816">
        <time>2026-08-20T08:28:22Z</time>
      </trkpt>
      <trkpt lat="59.109835624694824" lon="30.488691329956055">
        <time>2026-08-20T08:28:24Z</time>
      </trkpt>
      <trkpt lat="59.109857082366943" lon="30.488734245300293">
        <time>2026-08-20T08:28:27Z</time>
      </trkpt>
      <trkpt lat="59.109857082366943" lon="30.488755702972412">
        <time>2026-08-20T08:28:29Z</time>
      </trkpt>
      <trkpt lat="59.109857082366943" lon="30.488777160644531">
        <time>2026-08-20T08:28:32Z</time>
      </trkpt>
      <trkpt lat="59.109835624694824" lon="30.48879861831665">
        <time>2026-08-20T08:28:34Z</time>
      </trkpt>
      <trkpt lat="59.109857082366943" lon="30.48882007598877">
        <time>2026-08-20T08:28:37Z</time>
      </trkpt>
      <trkpt lat="59.109835624694824" lon="30.488862991333008">
        <time>2026-08-20T08:28:39Z</time>
      </trkpt>
      <trkpt lat="59.109835624694824" lon="30.488884449005127">
        <time>2026-08-20T08:28:42Z</time>
      </trkpt>
      <trkpt lat="59.109835624694824" lon="30.488927364349365">
        <time>2026-08-20T08:28:44Z</time>
      </trkpt>
      <trkpt lat="59.109835624694824" lon="30.488948822021484">
        <time>2026-08-20T08:28:47Z</time>
      </trkpt>
      <trkpt lat="59.109835624694824" lon="30.488948822021484">
        <time>2026-08-20T08:28:49Z</time>
      </trkpt>
      <trkpt lat="59.109814167022705" lon="30.488948822021484">
        <time>2026-08-20T08:28:52Z</time>
      </trkpt>
      <trkpt lat="59.109792709350586" lon="30.488970279693604">
        <time>2026-08-20T08:28:54Z</time>
      </trkpt>
      <trkpt lat="59.109792709350586" lon="30.488970279693604">
        <time>2026-08-20T08:28:57Z</time>
      </trkpt>
      <trkpt lat="59.109792709350586" lon="30.488970279693604">
        <time>2026-08-20T08:28:59Z</time>
      </trkpt>
      <trkpt lat="59.109792709350586" lon="30.488970279693604">
        <time>2026-08-20T08:29:02Z</time>
      </trkpt>
      <trkpt lat="59.109771251678467" lon="30.489034652709961">
        <time>2026-08-20T08:29:04Z</time>
      </trkpt>
      <trkpt lat="59.109771251678467" lon="30.48905611038208">
        <time>2026-08-20T08:29:07Z</time>
      </trkpt>
      <trkpt lat="59.109771251678467" lon="30.48905611038208">
        <time>2026-08-20T08:29:09Z</time>
      </trkpt>
      <trkpt lat="59.109771251678467" lon="30.48905611038208">
        <time>2026-08-20T08:29:12Z</time>
      </trkpt>
      <trkpt lat="59.109771251678467" lon="30.48905611038208">
        <time>2026-08-20T08:29:14Z</time>
      </trkpt>
      <trkpt lat="59.109771251678467" lon="30.48905611038208">
        <time>2026-08-20T08:29:17Z</time>
      </trkpt>
      <trkpt lat="59.109771251678467" lon="30.48905611038208">
        <time>2026-08-20T08:29:19Z</time>
      </trkpt>
      <trkpt lat="59.109771251678467" lon="30.48905611038208">
        <time>2026-08-20T08:29:22Z</time>
      </trkpt>
      <trkpt lat="59.109792709350586" lon="30.489099025726318">
        <time>2026-08-20T08:29:24Z</time>
      </trkpt>
      <trkpt lat="59.109792709350586" lon="30.489099025726318">
        <time>2026-08-20T08:29:27Z</time>
      </trkpt>
      <trkpt lat="59.109771251678467" lon="30.489077568054199">
        <time>2026-08-20T08:29:29Z</time>
      </trkpt>
      <trkpt lat="59.109771251678467" lon="30.489077568054199">
        <time>2026-08-20T08:29:32Z</time>
      </trkpt>
      <trkpt lat="59.109771251678467" lon="30.489077568054199">
        <time>2026-08-20T08:29:34Z</time>
      </trkpt>
      <trkpt lat="59.109792709350586" lon="30.489077568054199">
        <time>2026-08-20T08:29:37Z</time>
      </trkpt>
      <trkpt lat="59.109814167022705" lon="30.489141941070557">
        <time>2026-08-20T08:29:39Z</time>
      </trkpt>
      <trkpt lat="59.109835624694824" lon="30.489270687103271">
        <time>2026-08-20T08:29:42Z</time>
      </trkpt>
      <trkpt lat="59.109857082366943" lon="30.489292144775391">
        <time>2026-08-20T08:29:44Z</time>
      </trkpt>
      <trkpt lat="59.109835624694824" lon="30.489335060119629">
        <time>2026-08-20T08:29:47Z</time>
      </trkpt>
      <trkpt lat="59.109835624694824" lon="30.48931360244751">
        <time>2026-08-20T08:29:49Z</time>
      </trkpt>
      <trkpt lat="59.109835624694824" lon="30.489335060119629">
        <time>2026-08-20T08:29:52Z</time>
      </trkpt>
      <trkpt lat="59.109814167022705" lon="30.489335060119629">
        <time>2026-08-20T08:29:54Z</time>
      </trkpt>
      <trkpt lat="59.109814167022705" lon="30.489377975463867">
        <time>2026-08-20T08:29:57Z</time>
      </trkpt>
      <trkpt lat="59.109792709350586" lon="30.489399433135986">
        <time>2026-08-20T08:29:59Z</time>
      </trkpt>
      <trkpt lat="59.109792709350586" lon="30.489420890808105">
        <time>2026-08-20T08:30:02Z</time>
      </trkpt>
      <trkpt lat="59.109771251678467" lon="30.489463806152344">
        <time>2026-08-20T08:30:04Z</time>
      </trkpt>
      <trkpt lat="59.109771251678467" lon="30.489463806152344">
        <time>2026-08-20T08:30:07Z</time>
      </trkpt>
      <trkpt lat="59.109771251678467" lon="30.489485263824463">
        <time>2026-08-20T08:30:09Z</time>
      </trkpt>
      <trkpt lat="59.109771251678467" lon="30.489485263824463">
        <time>2026-08-20T08:30:12Z</time>
      </trkpt>
      <trkpt lat="59.109749794006348" lon="30.489485263824463">
        <time>2026-08-20T08:30:14Z</time>
      </trkpt>
      <trkpt lat="59.109749794006348" lon="30.489506721496582">
        <time>2026-08-20T08:30:17Z</time>
      </trkpt>
      <trkpt lat="59.109749794006348" lon="30.489506721496582">
        <time>2026-08-20T08:30:19Z</time>
      </trkpt>
      <trkpt lat="59.109749794006348" lon="30.489528179168701">
        <time>2026-08-20T08:30:22Z</time>
      </trkpt>
      <trkpt lat="59.109749794006348" lon="30.489528179168701">
        <time>2026-08-20T08:30:24Z</time>
      </trkpt>
      <trkpt lat="59.109749794006348" lon="30.489528179168701">
        <time>2026-08-20T08:30:27Z</time>
      </trkpt>
      <trkpt lat="59.109728336334229" lon="30.48954963684082">
        <time>2026-08-20T08:30:29Z</time>
      </trkpt>
      <trkpt lat="59.109728336334229" lon="30.489571094512939">
        <time>2026-08-20T08:30:32Z</time>
      </trkpt>
      <trkpt lat="59.109706878662109" lon="30.489614009857178">
        <time>2026-08-20T08:30:34Z</time>
      </trkpt>
      <trkpt lat="59.109706878662109" lon="30.489635467529297">
        <time>2026-08-20T08:30:37Z</time>
      </trkpt>
      <trkpt lat="59.10968542098999" lon="30.489656925201416">
        <time>2026-08-20T08:30:39Z</time>
      </trkpt>
      <trkpt lat="59.10968542098999" lon="30.489678382873535">
        <time>2026-08-20T08:30:42Z</time>
      </trkpt>
      <trkpt lat="59.10968542098999" lon="30.489699840545654">
        <time>2026-08-20T08:30:44Z</time>
      </trkpt>
      <trkpt lat="59.10968542098999" lon="30.489721298217773">
        <time>2026-08-20T08:30:47Z</time>
      </trkpt>
      <trkpt lat="59.10968542098999" lon="30.489721298217773">
        <time>2026-08-20T08:30:49Z</time>
      </trkpt>
      <trkpt lat="59.109706878662109" lon="30.489764213562012">
        <time>2026-08-20T08:30:52Z</time>
      </trkpt>
      <trkpt lat="59.109706878662109" lon="30.48980712890625">
        <time>2026-08-20T08:30:54Z</time>
      </trkpt>
      <trkpt lat="59.109706878662109" lon="30.489828586578369">
        <time>2026-08-20T08:30:57Z</time>
      </trkpt>
      <trkpt lat="59.109706878662109" lon="30.489828586578369">
        <time>2026-08-20T08:30:59Z</time>
      </trkpt>
      <trkpt lat="59.109706878662109" lon="30.489828586578369">
        <time>2026-08-20T08:31:02Z</time>
      </trkpt>
      <trkpt lat="59.109706878662109" lon="30.489850044250488">
        <time>2026-08-20T08:31:04Z</time>
      </trkpt>
      <trkpt lat="59.109706878662109" lon="30.489850044250488">
        <time>2026-08-20T08:31:07Z</time>
      </trkpt>
      <trkpt lat="59.109706878662109" lon="30.489892959594727">
        <time>2026-08-20T08:31:09Z</time>
      </trkpt>
      <trkpt lat="59.109706878662109" lon="30.489892959594727">
        <time>2026-08-20T08:31:12Z</time>
      </trkpt>
      <trkpt lat="59.109706878662109" lon="30.489892959594727">
        <time>2026-08-20T08:31:14Z</time>
      </trkpt>
      <trkpt lat="59.109728336334229" lon="30.489914417266846">
        <time>2026-08-20T08:31:17Z</time>
      </trkpt>
      <trkpt lat="59.109728336334229" lon="30.489935874938965">
        <time>2026-08-20T08:31:19Z</time>
      </trkpt>
      <trkpt lat="59.109728336334229" lon="30.489978790283203">
        <time>2026-08-20T08:31:22Z</time>
      </trkpt>
      <trkpt lat="59.109728336334229" lon="30.490021705627441">
        <time>2026-08-20T08:31:24Z</time>
      </trkpt>
      <trkpt lat="59.109749794006348" lon="30.490043163299561">
        <time>2026-08-20T08:31:27Z</time>
      </trkpt>
      <trkpt lat="59.109749794006348" lon="30.490086078643799">
        <time>2026-08-20T08:31:29Z</time>
      </trkpt>
      <trkpt lat="59.109749794006348" lon="30.490086078643799">
        <time>2026-08-20T08:31:32Z</time>
      </trkpt>
      <trkpt lat="59.109749794006348" lon="30.490086078643799">
        <time>2026-08-20T08:31:34Z</time>
      </trkpt>
      <trkpt lat="59.109749794006348" lon="30.490086078643799">
        <time>2026-08-20T08:31:37Z</time>
      </trkpt>
      <trkpt lat="59.109749794006348" lon="30.490086078643799">
        <time>2026-08-20T08:31:39Z</time>
      </trkpt>
      <trkpt lat="59.109749794006348" lon="30.490086078643799">
        <time>2026-08-20T08:31:42Z</time>
      </trkpt>
      <trkpt lat="59.109749794006348" lon="30.490086078643799">
        <time>2026-08-20T08:31:44Z</time>
      </trkpt>
      <trkpt lat="59.109749794006348" lon="30.490086078643799">
        <time>2026-08-20T08:31:47Z</time>
      </trkpt>
      <trkpt lat="59.109749794006348" lon="30.490086078643799">
        <time>2026-08-20T08:31:49Z</time>
      </trkpt>
      <trkpt lat="59.109749794006348" lon="30.490086078643799">
        <time>2026-08-20T08:31:52Z</time>
      </trkpt>
      <trkpt lat="59.109749794006348" lon="30.490086078643799">
        <time>2026-08-20T08:31:54Z</time>
      </trkpt>
      <trkpt lat="59.109749794006348" lon="30.490086078643799">
        <time>2026-08-20T08:31:57Z</time>
      </trkpt>
      <trkpt lat="59.109749794006348" lon="30.490086078643799">
        <time>2026-08-20T08:31:59Z</time>
      </trkpt>
      <trkpt lat="59.109749794006348" lon="30.490086078643799">
        <time>2026-08-20T08:32:02Z</time>
      </trkpt>
      <trkpt lat="59.109771251678467" lon="30.490086078643799">
        <time>2026-08-20T08:32:04Z</time>
      </trkpt>
      <trkpt lat="59.109771251678467" lon="30.490128993988037">
        <time>2026-08-20T08:32:07Z</time>
      </trkpt>
      <trkpt lat="59.109792709350586" lon="30.490193367004395">
        <time>2026-08-20T08:32:09Z</time>
      </trkpt>
      <trkpt lat="59.109814167022705" lon="30.490236282348633">
        <time>2026-08-20T08:32:12Z</time>
      </trkpt>
      <trkpt lat="59.109814167022705" lon="30.490279197692871">
        <time>2026-08-20T08:32:14Z</time>
      </trkpt>
      <trkpt lat="59.109814167022705" lon="30.490279197692871">
        <time>2026-08-20T08:32:17Z</time>
      </trkpt>
      <trkpt lat="59.109814167022705" lon="30.49030065536499">
        <time>2026-08-20T08:32:19Z</time>
      </trkpt>
      <trkpt lat="59.109814167022705" lon="30.490322113037109">
        <time>2026-08-20T08:32:22Z</time>
      </trkpt>
      <trkpt lat="59.109792709350586" lon="30.490429401397705">
        <time>2026-08-20T08:32:24Z</time>
      </trkpt>
      <trkpt lat="59.109792709350586" lon="30.490429401397705">
        <time>2026-08-20T08:32:27Z</time>
      </trkpt>
      <trkpt lat="59.109792709350586" lon="30.490450859069824">
        <time>2026-08-20T08:32:29Z</time>
      </trkpt>
      <trkpt lat="59.109792709350586" lon="30.490450859069824">
        <time>2026-08-20T08:32:32Z</time>
      </trkpt>
      <trkpt lat="59.109792709350586" lon="30.490450859069824">
        <time>2026-08-20T08:32:34Z</time>
      </trkpt>
      <trkpt lat="59.109814167022705" lon="30.490515232086182">
        <time>2026-08-20T08:32:37Z</time>
      </trkpt>
      <trkpt lat="59.109814167022705" lon="30.49055814743042">
        <time>2026-08-20T08:32:39Z</time>
      </trkpt>
      <trkpt lat="59.109814167022705" lon="30.490622520446777">
        <time>2026-08-20T08:32:42Z</time>
      </trkpt>
      <trkpt lat="59.109814167022705" lon="30.490686893463135">
        <time>2026-08-20T08:32:44Z</time>
      </trkpt>
      <trkpt lat="59.109835624694824" lon="30.490729808807373">
        <time>2026-08-20T08:32:47Z</time>
      </trkpt>
      <trkpt lat="59.109857082366943" lon="30.490772724151611">
        <time>2026-08-20T08:32:49Z</time>
      </trkpt>
      <trkpt lat="59.109857082366943" lon="30.490772724151611">
        <time>2026-08-20T08:32:52Z</time>
      </trkpt>
      <trkpt lat="59.109835624694824" lon="30.49079418182373">
        <time>2026-08-20T08:32:54Z</time>
      </trkpt>
      <trkpt lat="59.109835624694824" lon="30.490837097167969">
        <time>2026-08-20T08:32:57Z</time>
      </trkpt>
      <trkpt lat="59.109814167022705" lon="30.490922927856445">
        <time>2026-08-20T08:32:59Z</time>
      </trkpt>
      <trkpt lat="59.109814167022705" lon="30.490922927856445">
        <time>2026-08-20T08:33:02Z</time>
      </trkpt>
      <trkpt lat="59.109814167022705" lon="30.490987300872803">
        <time>2026-08-20T08:33:04Z</time>
      </trkpt>
      <trkpt lat="59.109814167022705" lon="30.491030216217041">
        <time>2026-08-20T08:33:07Z</time>
      </trkpt>
      <trkpt lat="59.109814167022705" lon="30.491094589233398">
        <time>2026-08-20T08:33:09Z</time>
      </trkpt>
      <trkpt lat="59.109814167022705" lon="30.491116046905518">
        <time>2026-08-20T08:33:12Z</time>
      </trkpt>
      <trkpt lat="59.109814167022705" lon="30.491201877593994">
        <time>2026-08-20T08:33:14Z</time>
      </trkpt>
      <trkpt lat="59.109814167022705" lon="30.491266250610352">
        <time>2026-08-20T08:33:17Z</time>
      </trkpt>
      <trkpt lat="59.109814167022705" lon="30.491330623626709">
        <time>2026-08-20T08:33:19Z</time>
      </trkpt>
      <trkpt lat="59.109814167022705" lon="30.491330623626709">
        <time>2026-08-20T08:33:22Z</time>
      </trkpt>
      <trkpt lat="59.109814167022705" lon="30.491330623626709">
        <time>2026-08-20T08:33:24Z</time>
      </trkpt>
      <trkpt lat="59.109814167022705" lon="30.491352081298828">
        <time>2026-08-20T08:33:27Z</time>
      </trkpt>
      <trkpt lat="59.109814167022705" lon="30.491352081298828">
        <time>2026-08-20T08:33:29Z</time>
      </trkpt>
      <trkpt lat="59.109814167022705" lon="30.491352081298828">
        <time>2026-08-20T08:33:32Z</time>
      </trkpt>
      <trkpt lat="59.109814167022705" lon="30.491416454315186">
        <time>2026-08-20T08:33:34Z</time>
      </trkpt>
      <trkpt lat="59.109835624694824" lon="30.491437911987305">
        <time>2026-08-20T08:33:37Z</time>
      </trkpt>
      <trkpt lat="59.109835624694824" lon="30.491459369659424">
        <time>2026-08-20T08:33:39Z</time>
      </trkpt>
      <trkpt lat="59.109835624694824" lon="30.491459369659424">
        <time>2026-08-20T08:33:42Z</time>
      </trkpt>
      <trkpt lat="59.109835624694824" lon="30.491502285003662">
        <time>2026-08-20T08:33:44Z</time>
      </trkpt>
      <trkpt lat="59.109792709350586" lon="30.491523742675781">
        <time>2026-08-20T08:33:47Z</time>
      </trkpt>
      <trkpt lat="59.109749794006348" lon="30.491523742675781">
        <time>2026-08-20T08:33:49Z</time>
      </trkpt>
      <trkpt lat="59.109728336334229" lon="30.4915452003479">
        <time>2026-08-20T08:33:52Z</time>
      </trkpt>
      <trkpt lat="59.10968542098999" lon="30.49156665802002">
        <time>2026-08-20T08:33:54Z</time>
      </trkpt>
      <trkpt lat="59.10968542098999" lon="30.49156665802002">
        <time>2026-08-20T08:33:57Z</time>
      </trkpt>
      <trkpt lat="59.109663963317871" lon="30.49156665802002">
        <time>2026-08-20T08:33:59Z</time>
      </trkpt>
      <trkpt lat="59.109663963317871" lon="30.491588115692139">
        <time>2026-08-20T08:34:02Z</time>
      </trkpt>
      <trkpt lat="59.109663963317871" lon="30.491609573364258">
        <time>2026-08-20T08:34:04Z</time>
      </trkpt>
      <trkpt lat="59.10968542098999" lon="30.491631031036377">
        <time>2026-08-20T08:34:07Z</time>
      </trkpt>
      <trkpt lat="59.109706878662109" lon="30.491695404052734">
        <time>2026-08-20T08:34:09Z</time>
      </trkpt>
      <trkpt lat="59.109706878662109" lon="30.491738319396973">
        <time>2026-08-20T08:34:12Z</time>
      </trkpt>
      <trkpt lat="59.109706878662109" lon="30.491738319396973">
        <time>2026-08-20T08:34:14Z</time>
      </trkpt>
      <trkpt lat="59.109728336334229" lon="30.491759777069092">
        <time>2026-08-20T08:34:17Z</time>
      </trkpt>
      <trkpt lat="59.109728336334229" lon="30.491781234741211">
        <time>2026-08-20T08:34:19Z</time>
      </trkpt>
      <trkpt lat="59.109728336334229" lon="30.491781234741211">
        <time>2026-08-20T08:34:22Z</time>
      </trkpt>
      <trkpt lat="59.109728336334229" lon="30.49180269241333">
        <time>2026-08-20T08:34:24Z</time>
      </trkpt>
      <trkpt lat="59.109771251678467" lon="30.491867065429688">
        <time>2026-08-20T08:34:27Z</time>
      </trkpt>
      <trkpt lat="59.109771251678467" lon="30.491888523101807">
        <time>2026-08-20T08:34:29Z</time>
      </trkpt>
      <trkpt lat="59.109749794006348" lon="30.491952896118164">
        <time>2026-08-20T08:34:32Z</time>
      </trkpt>
      <trkpt lat="59.109771251678467" lon="30.492038726806641">
        <time>2026-08-20T08:34:34Z</time>
      </trkpt>
      <trkpt lat="59.109792709350586" lon="30.49206018447876">
        <time>2026-08-20T08:34:37Z</time>
      </trkpt>
      <trkpt lat="59.109771251678467" lon="30.492124557495117">
        <time>2026-08-20T08:34:39Z</time>
      </trkpt>
      <trkpt lat="59.109771251678467" lon="30.492167472839355">
        <time>2026-08-20T08:34:42Z</time>
      </trkpt>
      <trkpt lat="59.109771251678467" lon="30.492231845855713">
        <time>2026-08-20T08:34:44Z</time>
      </trkpt>
      <trkpt lat="59.109792709350586" lon="30.492253303527832">
        <time>2026-08-20T08:34:47Z</time>
      </trkpt>
      <trkpt lat="59.109792709350586" lon="30.492253303527832">
        <time>2026-08-20T08:34:49Z</time>
      </trkpt>
      <trkpt lat="59.109792709350586" lon="30.492253303527832">
        <time>2026-08-20T08:34:52Z</time>
      </trkpt>
      <trkpt lat="59.109792709350586" lon="30.492274761199951">
        <time>2026-08-20T08:34:54Z</time>
      </trkpt>
      <trkpt lat="59.109792709350586" lon="30.492317676544189">
        <time>2026-08-20T08:34:57Z</time>
      </trkpt>
      <trkpt lat="59.109792709350586" lon="30.492339134216309">
        <time>2026-08-20T08:34:59Z</time>
      </trkpt>
      <trkpt lat="59.109792709350586" lon="30.492403507232666">
        <time>2026-08-20T08:35:02Z</time>
      </trkpt>
      <trkpt lat="59.109792709350586" lon="30.492467880249023">
        <time>2026-08-20T08:35:04Z</time>
      </trkpt>
      <trkpt lat="59.109792709350586" lon="30.492510795593262">
        <time>2026-08-20T08:35:07Z</time>
      </trkpt>
      <trkpt lat="59.109792709350586" lon="30.4925537109375">
        <time>2026-08-20T08:35:09Z</time>
      </trkpt>
      <trkpt lat="59.109771251678467" lon="30.492575168609619">
        <time>2026-08-20T08:35:12Z</time>
      </trkpt>
      <trkpt lat="59.109771251678467" lon="30.492575168609619">
        <time>2026-08-20T08:35:14Z</time>
      </trkpt>
      <trkpt lat="59.109771251678467" lon="30.492575168609619">
        <time>2026-08-20T08:35:17Z</time>
      </trkpt>
      <trkpt lat="59.109771251678467" lon="30.492575168609619">
        <time>2026-08-20T08:35:19Z</time>
      </trkpt>
      <trkpt lat="59.109771251678467" lon="30.492575168609619">
        <time>2026-08-20T08:35:22Z</time>
      </trkpt>
      <trkpt lat="59.109728336334229" lon="30.492639541625977">
        <time>2026-08-20T08:35:24Z</time>
      </trkpt>
      <trkpt lat="59.109706878662109" lon="30.492639541625977">
        <time>2026-08-20T08:35:27Z</time>
      </trkpt>
      <trkpt lat="59.10968542098999" lon="30.492682456970215">
        <time>2026-08-20T08:35:29Z</time>
      </trkpt>
      <trkpt lat="59.10968542098999" lon="30.492682456970215">
        <time>2026-08-20T08:35:32Z</time>
      </trkpt>
      <trkpt lat="59.10968542098999" lon="30.492682456970215">
        <time>2026-08-20T08:35:34Z</time>
      </trkpt>
      <trkpt lat="59.10968542098999" lon="30.492682456970215">
        <time>2026-08-20T08:35:37Z</time>
      </trkpt>
      <trkpt lat="59.10968542098999" lon="30.492682456970215">
        <time>2026-08-20T08:35:39Z</time>
      </trkpt>
      <trkpt lat="59.10968542098999" lon="30.492682456970215">
        <time>2026-08-20T08:35:42Z</time>
      </trkpt>
      <trkpt lat="59.10968542098999" lon="30.492682456970215">
        <time>2026-08-20T08:35:44Z</time>
      </trkpt>
      <trkpt lat="59.10968542098999" lon="30.492682456970215">
        <time>2026-08-20T08:35:47Z</time>
      </trkpt>
      <trkpt lat="59.10968542098999" lon="30.492682456970215">
        <time>2026-08-20T08:35:49Z</time>
      </trkpt>
      <trkpt lat="59.10968542098999" lon="30.492682456970215">
        <time>2026-08-20T08:35:52Z</time>
      </trkpt>
      <trkpt lat="59.10968542098999" lon="30.492682456970215">
        <time>2026-08-20T08:35:54Z</time>
      </trkpt>
      <trkpt lat="59.10968542098999" lon="30.492682456970215">
        <time>2026-08-20T08:35:57Z</time>
      </trkpt>
      <trkpt lat="59.10968542098999" lon="30.492682456970215">
        <time>2026-08-20T08:35:59Z</time>
      </trkpt>
      <trkpt lat="59.10968542098999" lon="30.492682456970215">
        <time>2026-08-20T08:36:02Z</time>
      </trkpt>
      <trkpt lat="59.10968542098999" lon="30.492682456970215">
        <time>2026-08-20T08:36:04Z</time>
      </trkpt>
      <trkpt lat="59.10968542098999" lon="30.492682456970215">
        <time>2026-08-20T08:36:07Z</time>
      </trkpt>
      <trkpt lat="59.10968542098999" lon="30.492682456970215">
        <time>2026-08-20T08:36:09Z</time>
      </trkpt>
      <trkpt lat="59.10968542098999" lon="30.492682456970215">
        <time>2026-08-20T08:36:12Z</time>
      </trkpt>
      <trkpt lat="59.10968542098999" lon="30.492682456970215">
        <time>2026-08-20T08:36:14Z</time>
      </trkpt>
      <trkpt lat="59.10968542098999" lon="30.492682456970215">
        <time>2026-08-20T08:36:17Z</time>
      </trkpt>
      <trkpt lat="59.10968542098999" lon="30.492682456970215">
        <time>2026-08-20T08:36:19Z</time>
      </trkpt>
      <trkpt lat="59.10968542098999" lon="30.492682456970215">
        <time>2026-08-20T08:36:22Z</time>
      </trkpt>
      <trkpt lat="59.10968542098999" lon="30.492682456970215">
        <time>2026-08-20T08:36:24Z</time>
      </trkpt>
      <trkpt lat="59.10968542098999" lon="30.492682456970215">
        <time>2026-08-20T08:36:27Z</time>
      </trkpt>
      <trkpt lat="59.10968542098999" lon="30.492682456970215">
        <time>2026-08-20T08:36:29Z</time>
      </trkpt>
      <trkpt lat="59.10968542098999" lon="30.492682456970215">
        <time>2026-08-20T08:36:32Z</time>
      </trkpt>
      <trkpt lat="59.10968542098999" lon="30.492682456970215">
        <time>2026-08-20T08:36:34Z</time>
      </trkpt>
      <trkpt lat="59.10968542098999" lon="30.492682456970215">
        <time>2026-08-20T08:36:37Z</time>
      </trkpt>
      <trkpt lat="59.10968542098999" lon="30.492682456970215">
        <time>2026-08-20T08:36:39Z</time>
      </trkpt>
      <trkpt lat="59.10968542098999" lon="30.492682456970215">
        <time>2026-08-20T08:36:42Z</time>
      </trkpt>
      <trkpt lat="59.10968542098999" lon="30.492682456970215">
        <time>2026-08-20T08:36:44Z</time>
      </trkpt>
      <trkpt lat="59.10968542098999" lon="30.492682456970215">
        <time>2026-08-20T08:36:47Z</time>
      </trkpt>
      <trkpt lat="59.10968542098999" lon="30.492682456970215">
        <time>2026-08-20T08:36:49Z</time>
      </trkpt>
      <trkpt lat="59.10968542098999" lon="30.492682456970215">
        <time>2026-08-20T08:36:52Z</time>
      </trkpt>
      <trkpt lat="59.10968542098999" lon="30.492682456970215">
        <time>2026-08-20T08:36:54Z</time>
      </trkpt>
      <trkpt lat="59.10968542098999" lon="30.492682456970215">
        <time>2026-08-20T08:36:57Z</time>
      </trkpt>
      <trkpt lat="59.109642505645752" lon="30.492682456970215">
        <time>2026-08-20T08:36:59Z</time>
      </trkpt>
      <trkpt lat="59.109642505645752" lon="30.492682456970215">
        <time>2026-08-20T08:37:02Z</time>
      </trkpt>
      <trkpt lat="59.109642505645752" lon="30.492682456970215">
        <time>2026-08-20T08:37:04Z</time>
      </trkpt>
      <trkpt lat="59.109642505645752" lon="30.492703914642334">
        <time>2026-08-20T08:37:07Z</time>
      </trkpt>
      <trkpt lat="59.109642505645752" lon="30.492703914642334">
        <time>2026-08-20T08:37:09Z</time>
      </trkpt>
      <trkpt lat="59.109642505645752" lon="30.492703914642334">
        <time>2026-08-20T08:37:12Z</time>
      </trkpt>
      <trkpt lat="59.109642505645752" lon="30.492703914642334">
        <time>2026-08-20T08:37:14Z</time>
      </trkpt>
      <trkpt lat="59.109642505645752" lon="30.492703914642334">
        <time>2026-08-20T08:37:17Z</time>
      </trkpt>
      <trkpt lat="59.109642505645752" lon="30.492703914642334">
        <time>2026-08-20T08:37:19Z</time>
      </trkpt>
      <trkpt lat="59.109642505645752" lon="30.492703914642334">
        <time>2026-08-20T08:37:22Z</time>
      </trkpt>
      <trkpt lat="59.109642505645752" lon="30.492703914642334">
        <time>2026-08-20T08:37:24Z</time>
      </trkpt>
      <trkpt lat="59.109642505645752" lon="30.492703914642334">
        <time>2026-08-20T08:37:27Z</time>
      </trkpt>
      <trkpt lat="59.109642505645752" lon="30.492703914642334">
        <time>2026-08-20T08:37:29Z</time>
      </trkpt>
      <trkpt lat="59.109642505645752" lon="30.492703914642334">
        <time>2026-08-20T08:37:32Z</time>
      </trkpt>
      <trkpt lat="59.109642505645752" lon="30.492703914642334">
        <time>2026-08-20T08:37:34Z</time>
      </trkpt>
      <trkpt lat="59.109642505645752" lon="30.492703914642334">
        <time>2026-08-20T08:37:37Z</time>
      </trkpt>
      <trkpt lat="59.109642505645752" lon="30.492703914642334">
        <time>2026-08-20T08:37:39Z</time>
      </trkpt>
      <trkpt lat="59.109642505645752" lon="30.492703914642334">
        <time>2026-08-20T08:37:42Z</time>
      </trkpt>
      <trkpt lat="59.109642505645752" lon="30.492703914642334">
        <time>2026-08-20T08:37:44Z</time>
      </trkpt>
      <trkpt lat="59.109642505645752" lon="30.492703914642334">
        <time>2026-08-20T08:37:47Z</time>
      </trkpt>
      <trkpt lat="59.109642505645752" lon="30.492703914642334">
        <time>2026-08-20T08:37:49Z</time>
      </trkpt>
      <trkpt lat="59.109642505645752" lon="30.492703914642334">
        <time>2026-08-20T08:37:52Z</time>
      </trkpt>
      <trkpt lat="59.109642505645752" lon="30.492703914642334">
        <time>2026-08-20T08:37:54Z</time>
      </trkpt>
      <trkpt lat="59.109642505645752" lon="30.492703914642334">
        <time>2026-08-20T08:37:57Z</time>
      </trkpt>
      <trkpt lat="59.109642505645752" lon="30.492703914642334">
        <time>2026-08-20T08:37:59Z</time>
      </trkpt>
      <trkpt lat="59.109642505645752" lon="30.492703914642334">
        <time>2026-08-20T08:38:02Z</time>
      </trkpt>
      <trkpt lat="59.109642505645752" lon="30.492703914642334">
        <time>2026-08-20T08:38:04Z</time>
      </trkpt>
      <trkpt lat="59.109642505645752" lon="30.492703914642334">
        <time>2026-08-20T08:38:07Z</time>
      </trkpt>
      <trkpt lat="59.109642505645752" lon="30.492703914642334">
        <time>2026-08-20T08:38:09Z</time>
      </trkpt>
      <trkpt lat="59.109642505645752" lon="30.492703914642334">
        <time>2026-08-20T08:38:12Z</time>
      </trkpt>
      <trkpt lat="59.109642505645752" lon="30.492703914642334">
        <time>2026-08-20T08:38:14Z</time>
      </trkpt>
      <trkpt lat="59.109642505645752" lon="30.492703914642334">
        <time>2026-08-20T08:38:17Z</time>
      </trkpt>
      <trkpt lat="59.109642505645752" lon="30.492703914642334">
        <time>2026-08-20T08:38:19Z</time>
      </trkpt>
      <trkpt lat="59.109642505645752" lon="30.492703914642334">
        <time>2026-08-20T08:38:22Z</time>
      </trkpt>
      <trkpt lat="59.109642505645752" lon="30.492703914642334">
        <time>2026-08-20T08:38:24Z</time>
      </trkpt>
      <trkpt lat="59.109642505645752" lon="30.492725372314453">
        <time>2026-08-20T08:38:27Z</time>
      </trkpt>
      <trkpt lat="59.109642505645752" lon="30.492725372314453">
        <time>2026-08-20T08:38:29Z</time>
      </trkpt>
      <trkpt lat="59.109642505645752" lon="30.492725372314453">
        <time>2026-08-20T08:38:32Z</time>
      </trkpt>
      <trkpt lat="59.109642505645752" lon="30.492725372314453">
        <time>2026-08-20T08:38:34Z</time>
      </trkpt>
      <trkpt lat="59.109642505645752" lon="30.492725372314453">
        <time>2026-08-20T08:38:37Z</time>
      </trkpt>
      <trkpt lat="59.109642505645752" lon="30.492725372314453">
        <time>2026-08-20T08:38:39Z</time>
      </trkpt>
      <trkpt lat="59.109642505645752" lon="30.492725372314453">
        <time>2026-08-20T08:38:42Z</time>
      </trkpt>
      <trkpt lat="59.109642505645752" lon="30.492725372314453">
        <time>2026-08-20T08:38:44Z</time>
      </trkpt>
      <trkpt lat="59.109642505645752" lon="30.492725372314453">
        <time>2026-08-20T08:38:47Z</time>
      </trkpt>
      <trkpt lat="59.109642505645752" lon="30.492725372314453">
        <time>2026-08-20T08:38:49Z</time>
      </trkpt>
      <trkpt lat="59.109642505645752" lon="30.492725372314453">
        <time>2026-08-20T08:38:52Z</time>
      </trkpt>
      <trkpt lat="59.109621047973633" lon="30.492725372314453">
        <time>2026-08-20T08:38:54Z</time>
      </trkpt>
      <trkpt lat="59.109621047973633" lon="30.492703914642334">
        <time>2026-08-20T08:38:57Z</time>
      </trkpt>
      <trkpt lat="59.109621047973633" lon="30.492703914642334">
        <time>2026-08-20T08:38:59Z</time>
      </trkpt>
      <trkpt lat="59.109621047973633" lon="30.492703914642334">
        <time>2026-08-20T08:39:02Z</time>
      </trkpt>
      <trkpt lat="59.109621047973633" lon="30.492703914642334">
        <time>2026-08-20T08:39:04Z</time>
      </trkpt>
      <trkpt lat="59.109621047973633" lon="30.492703914642334">
        <time>2026-08-20T08:39:07Z</time>
      </trkpt>
      <trkpt lat="59.109599590301514" lon="30.492725372314453">
        <time>2026-08-20T08:39:09Z</time>
      </trkpt>
      <trkpt lat="59.109578132629395" lon="30.492746829986572">
        <time>2026-08-20T08:39:12Z</time>
      </trkpt>
      <trkpt lat="59.109556674957275" lon="30.492725372314453">
        <time>2026-08-20T08:39:14Z</time>
      </trkpt>
      <trkpt lat="59.109535217285156" lon="30.492725372314453">
        <time>2026-08-20T08:39:17Z</time>
      </trkpt>
      <trkpt lat="59.109492301940918" lon="30.492746829986572">
        <time>2026-08-20T08:39:19Z</time>
      </trkpt>
      <trkpt lat="59.109492301940918" lon="30.492768287658691">
        <time>2026-08-20T08:39:22Z</time>
      </trkpt>
      <trkpt lat="59.109492301940918" lon="30.492746829986572">
        <time>2026-08-20T08:39:24Z</time>
      </trkpt>
      <trkpt lat="59.109492301940918" lon="30.492746829986572">
        <time>2026-08-20T08:39:27Z</time>
      </trkpt>
      <trkpt lat="59.109470844268799" lon="30.492768287658691">
        <time>2026-08-20T08:39:29Z</time>
      </trkpt>
      <trkpt lat="59.10944938659668" lon="30.492789745330811">
        <time>2026-08-20T08:39:32Z</time>
      </trkpt>
      <trkpt lat="59.109427928924561" lon="30.492789745330811">
        <time>2026-08-20T08:39:34Z</time>
      </trkpt>
      <trkpt lat="59.109406471252441" lon="30.492789745330811">
        <time>2026-08-20T08:39:37Z</time>
      </trkpt>
      <trkpt lat="59.109385013580322" lon="30.492768287658691">
        <time>2026-08-20T08:39:39Z</time>
      </trkpt>
      <trkpt lat="59.109385013580322" lon="30.492768287658691">
        <time>2026-08-20T08:39:42Z</time>
      </trkpt>
      <trkpt lat="59.109363555908203" lon="30.492768287658691">
        <time>2026-08-20T08:39:44Z</time>
      </trkpt>
      <trkpt lat="59.109363555908203" lon="30.492768287658691">
        <time>2026-08-20T08:39:47Z</time>
      </trkpt>
      <trkpt lat="59.109342098236084" lon="30.492746829986572">
        <time>2026-08-20T08:39:49Z</time>
      </trkpt>
      <trkpt lat="59.109320640563965" lon="30.492746829986572">
        <time>2026-08-20T08:39:52Z</time>
      </trkpt>
      <trkpt lat="59.109299182891846" lon="30.492703914642334">
        <time>2026-08-20T08:39:54Z</time>
      </trkpt>
      <trkpt lat="59.109299182891846" lon="30.492703914642334">
        <time>2026-08-20T08:39:57Z</time>
      </trkpt>
      <trkpt lat="59.109277725219727" lon="30.492703914642334">
        <time>2026-08-20T08:39:59Z</time>
      </trkpt>
      <trkpt lat="59.109256267547607" lon="30.492703914642334">
        <time>2026-08-20T08:40:02Z</time>
      </trkpt>
      <trkpt lat="59.109234809875488" lon="30.492725372314453">
        <time>2026-08-20T08:40:04Z</time>
      </trkpt>
      <trkpt lat="59.109213352203369" lon="30.492725372314453">
        <time>2026-08-20T08:40:07Z</time>
      </trkpt>
      <trkpt lat="59.109213352203369" lon="30.492725372314453">
        <time>2026-08-20T08:40:09Z</time>
      </trkpt>
      <trkpt lat="59.109213352203369" lon="30.492725372314453">
        <time>2026-08-20T08:40:12Z</time>
      </trkpt>
      <trkpt lat="59.109213352203369" lon="30.492725372314453">
        <time>2026-08-20T08:40:14Z</time>
      </trkpt>
      <trkpt lat="59.109213352203369" lon="30.492725372314453">
        <time>2026-08-20T08:40:17Z</time>
      </trkpt>
      <trkpt lat="59.109170436859131" lon="30.492725372314453">
        <time>2026-08-20T08:40:19Z</time>
      </trkpt>
      <trkpt lat="59.109170436859131" lon="30.492725372314453">
        <time>2026-08-20T08:40:22Z</time>
      </trkpt>
      <trkpt lat="59.109170436859131" lon="30.492725372314453">
        <time>2026-08-20T08:40:24Z</time>
      </trkpt>
      <trkpt lat="59.109170436859131" lon="30.492725372314453">
        <time>2026-08-20T08:40:27Z</time>
      </trkpt>
      <trkpt lat="59.109170436859131" lon="30.492725372314453">
        <time>2026-08-20T08:40:29Z</time>
      </trkpt>
      <trkpt lat="59.109170436859131" lon="30.492725372314453">
        <time>2026-08-20T08:40:32Z</time>
      </trkpt>
      <trkpt lat="59.109170436859131" lon="30.492725372314453">
        <time>2026-08-20T08:40:34Z</time>
      </trkpt>
      <trkpt lat="59.109170436859131" lon="30.492725372314453">
        <time>2026-08-20T08:40:37Z</time>
      </trkpt>
      <trkpt lat="59.109170436859131" lon="30.492725372314453">
        <time>2026-08-20T08:40:39Z</time>
      </trkpt>
      <trkpt lat="59.109170436859131" lon="30.492725372314453">
        <time>2026-08-20T08:40:42Z</time>
      </trkpt>
      <trkpt lat="59.109170436859131" lon="30.492725372314453">
        <time>2026-08-20T08:40:44Z</time>
      </trkpt>
      <trkpt lat="59.109170436859131" lon="30.492725372314453">
        <time>2026-08-20T08:40:47Z</time>
      </trkpt>
      <trkpt lat="59.109170436859131" lon="30.492725372314453">
        <time>2026-08-20T08:40:49Z</time>
      </trkpt>
      <trkpt lat="59.109170436859131" lon="30.492725372314453">
        <time>2026-08-20T08:40:52Z</time>
      </trkpt>
      <trkpt lat="59.109170436859131" lon="30.492725372314453">
        <time>2026-08-20T08:40:54Z</time>
      </trkpt>
      <trkpt lat="59.109170436859131" lon="30.492725372314453">
        <time>2026-08-20T08:40:57Z</time>
      </trkpt>
      <trkpt lat="59.109170436859131" lon="30.492725372314453">
        <time>2026-08-20T08:40:59Z</time>
      </trkpt>
      <trkpt lat="59.109170436859131" lon="30.492725372314453">
        <time>2026-08-20T08:41:02Z</time>
      </trkpt>
      <trkpt lat="59.109170436859131" lon="30.492725372314453">
        <time>2026-08-20T08:41:04Z</time>
      </trkpt>
      <trkpt lat="59.109170436859131" lon="30.492725372314453">
        <time>2026-08-20T08:41:07Z</time>
      </trkpt>
      <trkpt lat="59.109170436859131" lon="30.492725372314453">
        <time>2026-08-20T08:41:09Z</time>
      </trkpt>
      <trkpt lat="59.109170436859131" lon="30.492725372314453">
        <time>2026-08-20T08:41:12Z</time>
      </trkpt>
      <trkpt lat="59.109170436859131" lon="30.492725372314453">
        <time>2026-08-20T08:41:14Z</time>
      </trkpt>
      <trkpt lat="59.109170436859131" lon="30.492725372314453">
        <time>2026-08-20T08:41:17Z</time>
      </trkpt>
      <trkpt lat="59.109170436859131" lon="30.492746829986572">
        <time>2026-08-20T08:41:19Z</time>
      </trkpt>
      <trkpt lat="59.109170436859131" lon="30.492746829986572">
        <time>2026-08-20T08:41:22Z</time>
      </trkpt>
      <trkpt lat="59.109170436859131" lon="30.492746829986572">
        <time>2026-08-20T08:41:24Z</time>
      </trkpt>
      <trkpt lat="59.109170436859131" lon="30.492746829986572">
        <time>2026-08-20T08:41:27Z</time>
      </trkpt>
      <trkpt lat="59.109170436859131" lon="30.492746829986572">
        <time>2026-08-20T08:41:29Z</time>
      </trkpt>
      <trkpt lat="59.109170436859131" lon="30.492746829986572">
        <time>2026-08-20T08:41:32Z</time>
      </trkpt>
      <trkpt lat="59.109170436859131" lon="30.492746829986572">
        <time>2026-08-20T08:41:34Z</time>
      </trkpt>
      <trkpt lat="59.109170436859131" lon="30.492746829986572">
        <time>2026-08-20T08:41:37Z</time>
      </trkpt>
      <trkpt lat="59.109170436859131" lon="30.492746829986572">
        <time>2026-08-20T08:41:39Z</time>
      </trkpt>
      <trkpt lat="59.109170436859131" lon="30.492746829986572">
        <time>2026-08-20T08:41:42Z</time>
      </trkpt>
      <trkpt lat="59.109170436859131" lon="30.492746829986572">
        <time>2026-08-20T08:41:44Z</time>
      </trkpt>
      <trkpt lat="59.109170436859131" lon="30.492746829986572">
        <time>2026-08-20T08:41:47Z</time>
      </trkpt>
      <trkpt lat="59.109170436859131" lon="30.492746829986572">
        <time>2026-08-20T08:41:49Z</time>
      </trkpt>
      <trkpt lat="59.109170436859131" lon="30.492746829986572">
        <time>2026-08-20T08:41:52Z</time>
      </trkpt>
      <trkpt lat="59.109170436859131" lon="30.492746829986572">
        <time>2026-08-20T08:41:54Z</time>
      </trkpt>
      <trkpt lat="59.109170436859131" lon="30.492746829986572">
        <time>2026-08-20T08:41:57Z</time>
      </trkpt>
      <trkpt lat="59.109170436859131" lon="30.492746829986572">
        <time>2026-08-20T08:41:59Z</time>
      </trkpt>
      <trkpt lat="59.109170436859131" lon="30.492746829986572">
        <time>2026-08-20T08:42:02Z</time>
      </trkpt>
      <trkpt lat="59.109170436859131" lon="30.492746829986572">
        <time>2026-08-20T08:42:04Z</time>
      </trkpt>
      <trkpt lat="59.109170436859131" lon="30.492746829986572">
        <time>2026-08-20T08:42:07Z</time>
      </trkpt>
      <trkpt lat="59.109170436859131" lon="30.492746829986572">
        <time>2026-08-20T08:42:09Z</time>
      </trkpt>
      <trkpt lat="59.109170436859131" lon="30.492746829986572">
        <time>2026-08-20T08:42:12Z</time>
      </trkpt>
      <trkpt lat="59.109170436859131" lon="30.492746829986572">
        <time>2026-08-20T08:42:14Z</time>
      </trkpt>
      <trkpt lat="59.109170436859131" lon="30.492725372314453">
        <time>2026-08-20T08:42:17Z</time>
      </trkpt>
      <trkpt lat="59.109170436859131" lon="30.492703914642334">
        <time>2026-08-20T08:42:19Z</time>
      </trkpt>
      <trkpt lat="59.109170436859131" lon="30.492703914642334">
        <time>2026-08-20T08:42:22Z</time>
      </trkpt>
      <trkpt lat="59.109170436859131" lon="30.492725372314453">
        <time>2026-08-20T08:42:24Z</time>
      </trkpt>
      <trkpt lat="59.109170436859131" lon="30.492725372314453">
        <time>2026-08-20T08:42:27Z</time>
      </trkpt>
      <trkpt lat="59.109170436859131" lon="30.492725372314453">
        <time>2026-08-20T08:42:29Z</time>
      </trkpt>
      <trkpt lat="59.109170436859131" lon="30.492725372314453">
        <time>2026-08-20T08:42:32Z</time>
      </trkpt>
      <trkpt lat="59.109170436859131" lon="30.492725372314453">
        <time>2026-08-20T08:42:34Z</time>
      </trkpt>
      <trkpt lat="59.109170436859131" lon="30.492725372314453">
        <time>2026-08-20T08:42:37Z</time>
      </trkpt>
      <trkpt lat="59.109170436859131" lon="30.492725372314453">
        <time>2026-08-20T08:42:39Z</time>
      </trkpt>
      <trkpt lat="59.109148979187012" lon="30.492725372314453">
        <time>2026-08-20T08:42:42Z</time>
      </trkpt>
      <trkpt lat="59.109148979187012" lon="30.492725372314453">
        <time>2026-08-20T08:42:44Z</time>
      </trkpt>
      <trkpt lat="59.109148979187012" lon="30.492703914642334">
        <time>2026-08-20T08:42:47Z</time>
      </trkpt>
      <trkpt lat="59.109148979187012" lon="30.492682456970215">
        <time>2026-08-20T08:42:49Z</time>
      </trkpt>
      <trkpt lat="59.109148979187012" lon="30.492660999298096">
        <time>2026-08-20T08:42:52Z</time>
      </trkpt>
      <trkpt lat="59.109148979187012" lon="30.492618083953857">
        <time>2026-08-20T08:42:54Z</time>
      </trkpt>
      <trkpt lat="59.109148979187012" lon="30.492575168609619">
        <time>2026-08-20T08:42:57Z</time>
      </trkpt>
      <trkpt lat="59.109148979187012" lon="30.4925537109375">
        <time>2026-08-20T08:42:59Z</time>
      </trkpt>
      <trkpt lat="59.109148979187012" lon="30.492489337921143">
        <time>2026-08-20T08:43:02Z</time>
      </trkpt>
      <trkpt lat="59.109170436859131" lon="30.492403507232666">
        <time>2026-08-20T08:43:04Z</time>
      </trkpt>
      <trkpt lat="59.109170436859131" lon="30.492382049560547">
        <time>2026-08-20T08:43:07Z</time>
      </trkpt>
      <trkpt lat="59.109170436859131" lon="30.492339134216309">
        <time>2026-08-20T08:43:09Z</time>
      </trkpt>
      <trkpt lat="59.109170436859131" lon="30.49229621887207">
        <time>2026-08-20T08:43:12Z</time>
      </trkpt>
      <trkpt lat="59.109170436859131" lon="30.492210388183594">
        <time>2026-08-20T08:43:14Z</time>
      </trkpt>
      <trkpt lat="59.109170436859131" lon="30.492188930511475">
        <time>2026-08-20T08:43:17Z</time>
      </trkpt>
      <trkpt lat="59.109170436859131" lon="30.492146015167236">
        <time>2026-08-20T08:43:19Z</time>
      </trkpt>
      <trkpt lat="59.109148979187012" lon="30.492146015167236">
        <time>2026-08-20T08:43:24Z</time>
      </trkpt>
      <trkpt lat="59.109170436859131" lon="30.492103099822998">
        <time>2026-08-20T08:43:27Z</time>
      </trkpt>
      <trkpt lat="59.109148979187012" lon="30.49206018447876">
        <time>2026-08-20T08:43:29Z</time>
      </trkpt>
      <trkpt lat="59.109148979187012" lon="30.492017269134521">
        <time>2026-08-20T08:43:32Z</time>
      </trkpt>
      <trkpt lat="59.109148979187012" lon="30.491995811462402">
        <time>2026-08-20T08:43:34Z</time>
      </trkpt>
      <trkpt lat="59.109148979187012" lon="30.491974353790283">
        <time>2026-08-20T08:43:37Z</time>
      </trkpt>
      <trkpt lat="59.109148979187012" lon="30.491952896118164">
        <time>2026-08-20T08:43:39Z</time>
      </trkpt>
      <trkpt lat="59.109127521514893" lon="30.491888523101807">
        <time>2026-08-20T08:43:42Z</time>
      </trkpt>
      <trkpt lat="59.109127521514893" lon="30.491845607757568">
        <time>2026-08-20T08:43:44Z</time>
      </trkpt>
      <trkpt lat="59.109148979187012" lon="30.491845607757568">
        <time>2026-08-20T08:43:47Z</time>
      </trkpt>
      <trkpt lat="59.109127521514893" lon="30.491845607757568">
        <time>2026-08-20T08:43:49Z</time>
      </trkpt>
      <trkpt lat="59.109148979187012" lon="30.491845607757568">
        <time>2026-08-20T08:43:52Z</time>
      </trkpt>
      <trkpt lat="59.109127521514893" lon="30.491759777069092">
        <time>2026-08-20T08:43:54Z</time>
      </trkpt>
      <trkpt lat="59.109106063842773" lon="30.491716861724854">
        <time>2026-08-20T08:43:57Z</time>
      </trkpt>
      <trkpt lat="59.109106063842773" lon="30.491652488708496">
        <time>2026-08-20T08:43:59Z</time>
      </trkpt>
      <trkpt lat="59.109106063842773" lon="30.491631031036377">
        <time>2026-08-20T08:44:02Z</time>
      </trkpt>
      <trkpt lat="59.109084606170654" lon="30.49156665802002">
        <time>2026-08-20T08:44:04Z</time>
      </trkpt>
      <trkpt lat="59.109084606170654" lon="30.491502285003662">
        <time>2026-08-20T08:44:07Z</time>
      </trkpt>
      <trkpt lat="59.109084606170654" lon="30.491480827331543">
        <time>2026-08-20T08:44:09Z</time>
      </trkpt>
      <trkpt lat="59.109084606170654" lon="30.491480827331543">
        <time>2026-08-20T08:44:12Z</time>
      </trkpt>
      <trkpt lat="59.109084606170654" lon="30.491480827331543">
        <time>2026-08-20T08:44:14Z</time>
      </trkpt>
      <trkpt lat="59.109084606170654" lon="30.491480827331543">
        <time>2026-08-20T08:44:17Z</time>
      </trkpt>
      <trkpt lat="59.109063148498535" lon="30.491437911987305">
        <time>2026-08-20T08:44:19Z</time>
      </trkpt>
      <trkpt lat="59.109063148498535" lon="30.491437911987305">
        <time>2026-08-20T08:44:22Z</time>
      </trkpt>
      <trkpt lat="59.109063148498535" lon="30.491373538970947">
        <time>2026-08-20T08:44:24Z</time>
      </trkpt>
      <trkpt lat="59.109063148498535" lon="30.491373538970947">
        <time>2026-08-20T08:44:27Z</time>
      </trkpt>
      <trkpt lat="59.109084606170654" lon="30.491352081298828">
        <time>2026-08-20T08:44:29Z</time>
      </trkpt>
      <trkpt lat="59.109084606170654" lon="30.491352081298828">
        <time>2026-08-20T08:44:32Z</time>
      </trkpt>
      <trkpt lat="59.109084606170654" lon="30.491287708282471">
        <time>2026-08-20T08:44:34Z</time>
      </trkpt>
      <trkpt lat="59.109063148498535" lon="30.491244792938232">
        <time>2026-08-20T08:44:37Z</time>
      </trkpt>
      <trkpt lat="59.109084606170654" lon="30.491201877593994">
        <time>2026-08-20T08:44:39Z</time>
      </trkpt>
      <trkpt lat="59.109084606170654" lon="30.491180419921875">
        <time>2026-08-20T08:44:42Z</time>
      </trkpt>
      <trkpt lat="59.109106063842773" lon="30.491180419921875">
        <time>2026-08-20T08:44:44Z</time>
      </trkpt>
      <trkpt lat="59.109127521514893" lon="30.491158962249756">
        <time>2026-08-20T08:44:47Z</time>
      </trkpt>
      <trkpt lat="59.109127521514893" lon="30.491094589233398">
        <time>2026-08-20T08:44:49Z</time>
      </trkpt>
      <trkpt lat="59.109127521514893" lon="30.49105167388916">
        <time>2026-08-20T08:44:52Z</time>
      </trkpt>
      <trkpt lat="59.109127521514893" lon="30.49105167388916">
        <time>2026-08-20T08:44:54Z</time>
      </trkpt>
      <trkpt lat="59.109127521514893" lon="30.49105167388916">
        <time>2026-08-20T08:44:57Z</time>
      </trkpt>
      <trkpt lat="59.109127521514893" lon="30.49105167388916">
        <time>2026-08-20T08:44:59Z</time>
      </trkpt>
      <trkpt lat="59.109127521514893" lon="30.49105167388916">
        <time>2026-08-20T08:45:02Z</time>
      </trkpt>
      <trkpt lat="59.109148979187012" lon="30.491030216217041">
        <time>2026-08-20T08:45:04Z</time>
      </trkpt>
      <trkpt lat="59.109148979187012" lon="30.491030216217041">
        <time>2026-08-20T08:45:07Z</time>
      </trkpt>
      <trkpt lat="59.109148979187012" lon="30.491030216217041">
        <time>2026-08-20T08:45:09Z</time>
      </trkpt>
      <trkpt lat="59.109170436859131" lon="30.490965843200684">
        <time>2026-08-20T08:45:12Z</time>
      </trkpt>
      <trkpt lat="59.10919189453125" lon="30.490944385528564">
        <time>2026-08-20T08:45:14Z</time>
      </trkpt>
      <trkpt lat="59.10919189453125" lon="30.490901470184326">
        <time>2026-08-20T08:45:17Z</time>
      </trkpt>
      <trkpt lat="59.109213352203369" lon="30.490858554840088">
        <time>2026-08-20T08:45:19Z</time>
      </trkpt>
      <trkpt lat="59.109213352203369" lon="30.490858554840088">
        <time>2026-08-20T08:45:22Z</time>
      </trkpt>
      <trkpt lat="59.10919189453125" lon="30.49081563949585">
        <time>2026-08-20T08:45:24Z</time>
      </trkpt>
      <trkpt lat="59.10919189453125" lon="30.490772724151611">
        <time>2026-08-20T08:45:27Z</time>
      </trkpt>
      <trkpt lat="59.10919189453125" lon="30.490751266479492">
        <time>2026-08-20T08:45:29Z</time>
      </trkpt>
      <trkpt lat="59.109170436859131" lon="30.490729808807373">
        <time>2026-08-20T08:45:32Z</time>
      </trkpt>
      <trkpt lat="59.109170436859131" lon="30.490729808807373">
        <time>2026-08-20T08:45:34Z</time>
      </trkpt>
      <trkpt lat="59.109170436859131" lon="30.490708351135254">
        <time>2026-08-20T08:45:37Z</time>
      </trkpt>
      <trkpt lat="59.109170436859131" lon="30.490708351135254">
        <time>2026-08-20T08:45:39Z</time>
      </trkpt>
      <trkpt lat="59.10919189453125" lon="30.490643978118896">
        <time>2026-08-20T08:45:42Z</time>
      </trkpt>
      <trkpt lat="59.10919189453125" lon="30.490601062774658">
        <time>2026-08-20T08:45:44Z</time>
      </trkpt>
      <trkpt lat="59.10919189453125" lon="30.49055814743042">
        <time>2026-08-20T08:45:47Z</time>
      </trkpt>
      <trkpt lat="59.10919189453125" lon="30.490515232086182">
        <time>2026-08-20T08:45:49Z</time>
      </trkpt>
      <trkpt lat="59.109213352203369" lon="30.490472316741943">
        <time>2026-08-20T08:45:52Z</time>
      </trkpt>
      <trkpt lat="59.109213352203369" lon="30.490450859069824">
        <time>2026-08-20T08:45:54Z</time>
      </trkpt>
      <trkpt lat="59.109213352203369" lon="30.490386486053467">
        <time>2026-08-20T08:45:57Z</time>
      </trkpt>
      <trkpt lat="59.109213352203369" lon="30.490322113037109">
        <time>2026-08-20T08:45:59Z</time>
      </trkpt>
      <trkpt lat="59.109213352203369" lon="30.490279197692871">
        <time>2026-08-20T08:46:02Z</time>
      </trkpt>
      <trkpt lat="59.109213352203369" lon="30.490279197692871">
        <time>2026-08-20T08:46:04Z</time>
      </trkpt>
      <trkpt lat="59.109213352203369" lon="30.490279197692871">
        <time>2026-08-20T08:46:07Z</time>
      </trkpt>
      <trkpt lat="59.109213352203369" lon="30.490279197692871">
        <time>2026-08-20T08:46:09Z</time>
      </trkpt>
      <trkpt lat="59.109213352203369" lon="30.490257740020752">
        <time>2026-08-20T08:46:12Z</time>
      </trkpt>
      <trkpt lat="59.109213352203369" lon="30.490236282348633">
        <time>2026-08-20T08:46:14Z</time>
      </trkpt>
      <trkpt lat="59.109170436859131" lon="30.490214824676514">
        <time>2026-08-20T08:46:17Z</time>
      </trkpt>
      <trkpt lat="59.109170436859131" lon="30.490193367004395">
        <time>2026-08-20T08:46:19Z</time>
      </trkpt>
      <trkpt lat="59.109148979187012" lon="30.490193367004395">
        <time>2026-08-20T08:46:22Z</time>
      </trkpt>
      <trkpt lat="59.109148979187012" lon="30.490171909332275">
        <time>2026-08-20T08:46:24Z</time>
      </trkpt>
      <trkpt lat="59.109127521514893" lon="30.490171909332275">
        <time>2026-08-20T08:46:27Z</time>
      </trkpt>
      <trkpt lat="59.109127521514893" lon="30.490150451660156">
        <time>2026-08-20T08:46:29Z</time>
      </trkpt>
      <trkpt lat="59.109127521514893" lon="30.490150451660156">
        <time>2026-08-20T08:46:32Z</time>
      </trkpt>
      <trkpt lat="59.109127521514893" lon="30.490150451660156">
        <time>2026-08-20T08:46:34Z</time>
      </trkpt>
      <trkpt lat="59.109127521514893" lon="30.490128993988037">
        <time>2026-08-20T08:46:37Z</time>
      </trkpt>
      <trkpt lat="59.109106063842773" lon="30.490086078643799">
        <time>2026-08-20T08:46:39Z</time>
      </trkpt>
      <trkpt lat="59.109106063842773" lon="30.49006462097168">
        <time>2026-08-20T08:46:42Z</time>
      </trkpt>
      <trkpt lat="59.109106063842773" lon="30.490043163299561">
        <time>2026-08-20T08:46:44Z</time>
      </trkpt>
      <trkpt lat="59.109106063842773" lon="30.490021705627441">
        <time>2026-08-20T08:46:47Z</time>
      </trkpt>
      <trkpt lat="59.109084606170654" lon="30.489978790283203">
        <time>2026-08-20T08:46:49Z</time>
      </trkpt>
      <trkpt lat="59.109084606170654" lon="30.489957332611084">
        <time>2026-08-20T08:46:52Z</time>
      </trkpt>
      <trkpt lat="59.109063148498535" lon="30.489935874938965">
        <time>2026-08-20T08:46:54Z</time>
      </trkpt>
      <trkpt lat="59.109063148498535" lon="30.489935874938965">
        <time>2026-08-20T08:46:57Z</time>
      </trkpt>
      <trkpt lat="59.109063148498535" lon="30.489914417266846">
        <time>2026-08-20T08:46:59Z</time>
      </trkpt>
      <trkpt lat="59.109063148498535" lon="30.489914417266846">
        <time>2026-08-20T08:47:02Z</time>
      </trkpt>
      <trkpt lat="59.109063148498535" lon="30.489892959594727">
        <time>2026-08-20T08:47:04Z</time>
      </trkpt>
      <trkpt lat="59.109063148498535" lon="30.489892959594727">
        <time>2026-08-20T08:47:07Z</time>
      </trkpt>
      <trkpt lat="59.109063148498535" lon="30.489871501922607">
        <time>2026-08-20T08:47:09Z</time>
      </trkpt>
      <trkpt lat="59.109063148498535" lon="30.489850044250488">
        <time>2026-08-20T08:47:12Z</time>
      </trkpt>
      <trkpt lat="59.109084606170654" lon="30.48980712890625">
        <time>2026-08-20T08:47:14Z</time>
      </trkpt>
      <trkpt lat="59.109063148498535" lon="30.489785671234131">
        <time>2026-08-20T08:47:18Z</time>
      </trkpt>
      <trkpt lat="59.109063148498535" lon="30.489742755889893">
        <time>2026-08-20T08:47:19Z</time>
      </trkpt>
      <trkpt lat="59.109063148498535" lon="30.489742755889893">
        <time>2026-08-20T08:47:22Z</time>
      </trkpt>
      <trkpt lat="59.109063148498535" lon="30.489742755889893">
        <time>2026-08-20T08:47:24Z</time>
      </trkpt>
      <trkpt lat="59.109063148498535" lon="30.489699840545654">
        <time>2026-08-20T08:47:27Z</time>
      </trkpt>
      <trkpt lat="59.109041690826416" lon="30.489678382873535">
        <time>2026-08-20T08:47:29Z</time>
      </trkpt>
      <trkpt lat="59.109063148498535" lon="30.489592552185059">
        <time>2026-08-20T08:47:34Z</time>
      </trkpt>
      <trkpt lat="59.109063148498535" lon="30.489592552185059">
        <time>2026-08-20T08:47:37Z</time>
      </trkpt>
      <trkpt lat="59.109063148498535" lon="30.489571094512939">
        <time>2026-08-20T08:47:42Z</time>
      </trkpt>
      <trkpt lat="59.109063148498535" lon="30.489571094512939">
        <time>2026-08-20T08:47:44Z</time>
      </trkpt>
      <trkpt lat="59.109063148498535" lon="30.489571094512939">
        <time>2026-08-20T08:47:47Z</time>
      </trkpt>
      <trkpt lat="59.109063148498535" lon="30.489571094512939">
        <time>2026-08-20T08:47:49Z</time>
      </trkpt>
      <trkpt lat="59.109063148498535" lon="30.489571094512939">
        <time>2026-08-20T08:47:57Z</time>
      </trkpt>
      <trkpt lat="59.109063148498535" lon="30.489571094512939">
        <time>2026-08-20T08:47:59Z</time>
      </trkpt>
      <trkpt lat="59.109063148498535" lon="30.489571094512939">
        <time>2026-08-20T08:48:02Z</time>
      </trkpt>
      <trkpt lat="59.109063148498535" lon="30.489571094512939">
        <time>2026-08-20T08:48:04Z</time>
      </trkpt>
      <trkpt lat="59.109063148498535" lon="30.489571094512939">
        <time>2026-08-20T08:48:07Z</time>
      </trkpt>
      <trkpt lat="59.109063148498535" lon="30.489571094512939">
        <time>2026-08-20T08:48:09Z</time>
      </trkpt>
      <trkpt lat="59.109063148498535" lon="30.489571094512939">
        <time>2026-08-20T08:48:12Z</time>
      </trkpt>
      <trkpt lat="59.109063148498535" lon="30.489571094512939">
        <time>2026-08-20T08:48:14Z</time>
      </trkpt>
      <trkpt lat="59.109063148498535" lon="30.489571094512939">
        <time>2026-08-20T08:48:17Z</time>
      </trkpt>
      <trkpt lat="59.109063148498535" lon="30.489571094512939">
        <time>2026-08-20T08:48:19Z</time>
      </trkpt>
      <trkpt lat="59.109063148498535" lon="30.489571094512939">
        <time>2026-08-20T08:48:22Z</time>
      </trkpt>
      <trkpt lat="59.109063148498535" lon="30.489571094512939">
        <time>2026-08-20T08:48:24Z</time>
      </trkpt>
      <trkpt lat="59.109063148498535" lon="30.48954963684082">
        <time>2026-08-20T08:48:27Z</time>
      </trkpt>
      <trkpt lat="59.109084606170654" lon="30.489506721496582">
        <time>2026-08-20T08:48:29Z</time>
      </trkpt>
      <trkpt lat="59.109084606170654" lon="30.489485263824463">
        <time>2026-08-20T08:48:32Z</time>
      </trkpt>
      <trkpt lat="59.109084606170654" lon="30.489463806152344">
        <time>2026-08-20T08:48:34Z</time>
      </trkpt>
      <trkpt lat="59.109084606170654" lon="30.489463806152344">
        <time>2026-08-20T08:48:37Z</time>
      </trkpt>
      <trkpt lat="59.109084606170654" lon="30.489420890808105">
        <time>2026-08-20T08:48:39Z</time>
      </trkpt>
      <trkpt lat="59.109084606170654" lon="30.489377975463867">
        <time>2026-08-20T08:48:42Z</time>
      </trkpt>
      <trkpt lat="59.109084606170654" lon="30.48931360244751">
        <time>2026-08-20T08:48:44Z</time>
      </trkpt>
      <trkpt lat="59.109084606170654" lon="30.489270687103271">
        <time>2026-08-20T08:48:47Z</time>
      </trkpt>
      <trkpt lat="59.109084606170654" lon="30.489227771759033">
        <time>2026-08-20T08:48:49Z</time>
      </trkpt>
      <trkpt lat="59.109063148498535" lon="30.489206314086914">
        <time>2026-08-20T08:48:52Z</time>
      </trkpt>
      <trkpt lat="59.109063148498535" lon="30.489163398742676">
        <time>2026-08-20T08:48:54Z</time>
      </trkpt>
      <trkpt lat="59.109063148498535" lon="30.489163398742676">
        <time>2026-08-20T08:48:57Z</time>
      </trkpt>
      <trkpt lat="59.109063148498535" lon="30.489141941070557">
        <time>2026-08-20T08:48:59Z</time>
      </trkpt>
      <trkpt lat="59.109063148498535" lon="30.489120483398437">
        <time>2026-08-20T08:49:02Z</time>
      </trkpt>
      <trkpt lat="59.109063148498535" lon="30.489077568054199">
        <time>2026-08-20T08:49:04Z</time>
      </trkpt>
      <trkpt lat="59.109063148498535" lon="30.48905611038208">
        <time>2026-08-20T08:49:07Z</time>
      </trkpt>
      <trkpt lat="59.109063148498535" lon="30.488991737365723">
        <time>2026-08-20T08:49:09Z</time>
      </trkpt>
      <trkpt lat="59.109063148498535" lon="30.488948822021484">
        <time>2026-08-20T08:49:12Z</time>
      </trkpt>
      <trkpt lat="59.109063148498535" lon="30.488905906677246">
        <time>2026-08-20T08:49:14Z</time>
      </trkpt>
      <trkpt lat="59.109063148498535" lon="30.488862991333008">
        <time>2026-08-20T08:49:17Z</time>
      </trkpt>
      <trkpt lat="59.109041690826416" lon="30.48879861831665">
        <time>2026-08-20T08:49:19Z</time>
      </trkpt>
      <trkpt lat="59.109041690826416" lon="30.488755702972412">
        <time>2026-08-20T08:49:22Z</time>
      </trkpt>
      <trkpt lat="59.109041690826416" lon="30.488712787628174">
        <time>2026-08-20T08:49:24Z</time>
      </trkpt>
      <trkpt lat="59.109020233154297" lon="30.488669872283936">
        <time>2026-08-20T08:49:27Z</time>
      </trkpt>
      <trkpt lat="59.109020233154297" lon="30.488648414611816">
        <time>2026-08-20T08:49:29Z</time>
      </trkpt>
      <trkpt lat="59.109020233154297" lon="30.488626956939697">
        <time>2026-08-20T08:49:32Z</time>
      </trkpt>
      <trkpt lat="59.109041690826416" lon="30.488584041595459">
        <time>2026-08-20T08:49:34Z</time>
      </trkpt>
      <trkpt lat="59.109041690826416" lon="30.48856258392334">
        <time>2026-08-20T08:49:37Z</time>
      </trkpt>
      <trkpt lat="59.109063148498535" lon="30.488519668579102">
        <time>2026-08-20T08:49:39Z</time>
      </trkpt>
      <trkpt lat="59.109063148498535" lon="30.488476753234863">
        <time>2026-08-20T08:49:42Z</time>
      </trkpt>
      <trkpt lat="59.109084606170654" lon="30.488433837890625">
        <time>2026-08-20T08:49:44Z</time>
      </trkpt>
      <trkpt lat="59.109084606170654" lon="30.488412380218506">
        <time>2026-08-20T08:49:47Z</time>
      </trkpt>
      <trkpt lat="59.109084606170654" lon="30.488369464874268">
        <time>2026-08-20T08:49:49Z</time>
      </trkpt>
      <trkpt lat="59.109063148498535" lon="30.488326549530029">
        <time>2026-08-20T08:49:52Z</time>
      </trkpt>
      <trkpt lat="59.109063148498535" lon="30.48830509185791">
        <time>2026-08-20T08:49:54Z</time>
      </trkpt>
      <trkpt lat="59.109063148498535" lon="30.488283634185791">
        <time>2026-08-20T08:49:57Z</time>
      </trkpt>
      <trkpt lat="59.109084606170654" lon="30.488262176513672">
        <time>2026-08-20T08:49:59Z</time>
      </trkpt>
      <trkpt lat="59.109084606170654" lon="30.488240718841553">
        <time>2026-08-20T08:50:02Z</time>
      </trkpt>
      <trkpt lat="59.109106063842773" lon="30.488219261169434">
        <time>2026-08-20T08:50:04Z</time>
      </trkpt>
      <trkpt lat="59.109106063842773" lon="30.488176345825195">
        <time>2026-08-20T08:50:07Z</time>
      </trkpt>
      <trkpt lat="59.109127521514893" lon="30.488154888153076">
        <time>2026-08-20T08:50:09Z</time>
      </trkpt>
      <trkpt lat="59.109127521514893" lon="30.488133430480957">
        <time>2026-08-20T08:50:12Z</time>
      </trkpt>
      <trkpt lat="59.109148979187012" lon="30.488090515136719">
        <time>2026-08-20T08:50:14Z</time>
      </trkpt>
      <trkpt lat="59.109148979187012" lon="30.48804759979248">
        <time>2026-08-20T08:50:17Z</time>
      </trkpt>
      <trkpt lat="59.109170436859131" lon="30.488004684448242">
        <time>2026-08-20T08:50:19Z</time>
      </trkpt>
      <trkpt lat="59.109170436859131" lon="30.488004684448242">
        <time>2026-08-20T08:50:22Z</time>
      </trkpt>
      <trkpt lat="59.109170436859131" lon="30.487983226776123">
        <time>2026-08-20T08:50:24Z</time>
      </trkpt>
      <trkpt lat="59.109170436859131" lon="30.487983226776123">
        <time>2026-08-20T08:50:27Z</time>
      </trkpt>
      <trkpt lat="59.109170436859131" lon="30.487961769104004">
        <time>2026-08-20T08:50:29Z</time>
      </trkpt>
      <trkpt lat="59.10919189453125" lon="30.487918853759766">
        <time>2026-08-20T08:50:32Z</time>
      </trkpt>
      <trkpt lat="59.109170436859131" lon="30.487875938415527">
        <time>2026-08-20T08:50:34Z</time>
      </trkpt>
      <trkpt lat="59.109170436859131" lon="30.487833023071289">
        <time>2026-08-20T08:50:37Z</time>
      </trkpt>
      <trkpt lat="59.109170436859131" lon="30.487790107727051">
        <time>2026-08-20T08:50:39Z</time>
      </trkpt>
      <trkpt lat="59.10919189453125" lon="30.487747192382813">
        <time>2026-08-20T08:50:42Z</time>
      </trkpt>
      <trkpt lat="59.109170436859131" lon="30.487704277038574">
        <time>2026-08-20T08:50:44Z</time>
      </trkpt>
      <trkpt lat="59.109170436859131" lon="30.487682819366455">
        <time>2026-08-20T08:50:47Z</time>
      </trkpt>
      <trkpt lat="59.109170436859131" lon="30.487682819366455">
        <time>2026-08-20T08:50:49Z</time>
      </trkpt>
      <trkpt lat="59.109170436859131" lon="30.487682819366455">
        <time>2026-08-20T08:50:52Z</time>
      </trkpt>
      <trkpt lat="59.109170436859131" lon="30.487596988677979">
        <time>2026-08-20T08:50:54Z</time>
      </trkpt>
      <trkpt lat="59.109170436859131" lon="30.487532615661621">
        <time>2026-08-20T08:50:57Z</time>
      </trkpt>
      <trkpt lat="59.109127521514893" lon="30.487468242645264">
        <time>2026-08-20T08:50:59Z</time>
      </trkpt>
      <trkpt lat="59.109127521514893" lon="30.487446784973145">
        <time>2026-08-20T08:51:02Z</time>
      </trkpt>
      <trkpt lat="59.109127521514893" lon="30.487403869628906">
        <time>2026-08-20T08:51:04Z</time>
      </trkpt>
      <trkpt lat="59.109127521514893" lon="30.487382411956787">
        <time>2026-08-20T08:51:07Z</time>
      </trkpt>
      <trkpt lat="59.109127521514893" lon="30.487339496612549">
        <time>2026-08-20T08:51:09Z</time>
      </trkpt>
      <trkpt lat="59.109127521514893" lon="30.48731803894043">
        <time>2026-08-20T08:51:12Z</time>
      </trkpt>
      <trkpt lat="59.109127521514893" lon="30.48731803894043">
        <time>2026-08-20T08:51:14Z</time>
      </trkpt>
      <trkpt lat="59.109127521514893" lon="30.48731803894043">
        <time>2026-08-20T08:51:17Z</time>
      </trkpt>
      <trkpt lat="59.109127521514893" lon="30.48731803894043">
        <time>2026-08-20T08:51:19Z</time>
      </trkpt>
      <trkpt lat="59.109127521514893" lon="30.487296581268311">
        <time>2026-08-20T08:51:22Z</time>
      </trkpt>
      <trkpt lat="59.109170436859131" lon="30.487275123596191">
        <time>2026-08-20T08:51:24Z</time>
      </trkpt>
      <trkpt lat="59.109170436859131" lon="30.487275123596191">
        <time>2026-08-20T08:51:27Z</time>
      </trkpt>
      <trkpt lat="59.10919189453125" lon="30.487275123596191">
        <time>2026-08-20T08:51:29Z</time>
      </trkpt>
      <trkpt lat="59.10919189453125" lon="30.487275123596191">
        <time>2026-08-20T08:51:32Z</time>
      </trkpt>
      <trkpt lat="59.10919189453125" lon="30.487275123596191">
        <time>2026-08-20T08:51:34Z</time>
      </trkpt>
      <trkpt lat="59.10919189453125" lon="30.487275123596191">
        <time>2026-08-20T08:51:37Z</time>
      </trkpt>
      <trkpt lat="59.10919189453125" lon="30.487275123596191">
        <time>2026-08-20T08:51:39Z</time>
      </trkpt>
      <trkpt lat="59.10919189453125" lon="30.487275123596191">
        <time>2026-08-20T08:51:42Z</time>
      </trkpt>
      <trkpt lat="59.10919189453125" lon="30.487232208251953">
        <time>2026-08-20T08:51:44Z</time>
      </trkpt>
      <trkpt lat="59.109170436859131" lon="30.487189292907715">
        <time>2026-08-20T08:51:47Z</time>
      </trkpt>
      <trkpt lat="59.10919189453125" lon="30.487103462219238">
        <time>2026-08-20T08:51:49Z</time>
      </trkpt>
      <trkpt lat="59.10919189453125" lon="30.487103462219238">
        <time>2026-08-20T08:51:52Z</time>
      </trkpt>
      <trkpt lat="59.10919189453125" lon="30.487103462219238">
        <time>2026-08-20T08:51:54Z</time>
      </trkpt>
      <trkpt lat="59.10919189453125" lon="30.487103462219238">
        <time>2026-08-20T08:51:57Z</time>
      </trkpt>
      <trkpt lat="59.10919189453125" lon="30.487103462219238">
        <time>2026-08-20T08:51:59Z</time>
      </trkpt>
      <trkpt lat="59.109170436859131" lon="30.487103462219238">
        <time>2026-08-20T08:52:02Z</time>
      </trkpt>
      <trkpt lat="59.109170436859131" lon="30.487082004547119">
        <time>2026-08-20T08:52:04Z</time>
      </trkpt>
      <trkpt lat="59.109170436859131" lon="30.487039089202881">
        <time>2026-08-20T08:52:07Z</time>
      </trkpt>
      <trkpt lat="59.10919189453125" lon="30.486974716186523">
        <time>2026-08-20T08:52:09Z</time>
      </trkpt>
      <trkpt lat="59.10919189453125" lon="30.486931800842285">
        <time>2026-08-20T08:52:12Z</time>
      </trkpt>
      <trkpt lat="59.10919189453125" lon="30.486845970153809">
        <time>2026-08-20T08:52:14Z</time>
      </trkpt>
      <trkpt lat="59.10919189453125" lon="30.486824512481689">
        <time>2026-08-20T08:52:17Z</time>
      </trkpt>
      <trkpt lat="59.10919189453125" lon="30.48680305480957">
        <time>2026-08-20T08:52:19Z</time>
      </trkpt>
      <trkpt lat="59.10919189453125" lon="30.48680305480957">
        <time>2026-08-20T08:52:22Z</time>
      </trkpt>
      <trkpt lat="59.10919189453125" lon="30.48680305480957">
        <time>2026-08-20T08:52:24Z</time>
      </trkpt>
      <trkpt lat="59.109213352203369" lon="30.486824512481689">
        <time>2026-08-20T08:52:27Z</time>
      </trkpt>
      <trkpt lat="59.109213352203369" lon="30.48680305480957">
        <time>2026-08-20T08:52:29Z</time>
      </trkpt>
      <trkpt lat="59.109213352203369" lon="30.48680305480957">
        <time>2026-08-20T08:52:32Z</time>
      </trkpt>
      <trkpt lat="59.109234809875488" lon="30.486760139465332">
        <time>2026-08-20T08:52:34Z</time>
      </trkpt>
      <trkpt lat="59.109234809875488" lon="30.486760139465332">
        <time>2026-08-20T08:52:37Z</time>
      </trkpt>
      <trkpt lat="59.109234809875488" lon="30.486760139465332">
        <time>2026-08-20T08:52:39Z</time>
      </trkpt>
      <trkpt lat="59.109213352203369" lon="30.486695766448975">
        <time>2026-08-20T08:52:42Z</time>
      </trkpt>
      <trkpt lat="59.109234809875488" lon="30.486609935760498">
        <time>2026-08-20T08:52:44Z</time>
      </trkpt>
      <trkpt lat="59.109234809875488" lon="30.486588478088379">
        <time>2026-08-20T08:52:47Z</time>
      </trkpt>
      <trkpt lat="59.109234809875488" lon="30.486524105072021">
        <time>2026-08-20T08:52:49Z</time>
      </trkpt>
      <trkpt lat="59.109213352203369" lon="30.486481189727783">
        <time>2026-08-20T08:52:52Z</time>
      </trkpt>
      <trkpt lat="59.109213352203369" lon="30.486481189727783">
        <time>2026-08-20T08:52:54Z</time>
      </trkpt>
      <trkpt lat="59.109213352203369" lon="30.486481189727783">
        <time>2026-08-20T08:52:57Z</time>
      </trkpt>
      <trkpt lat="59.109213352203369" lon="30.486481189727783">
        <time>2026-08-20T08:52:59Z</time>
      </trkpt>
      <trkpt lat="59.109213352203369" lon="30.486481189727783">
        <time>2026-08-20T08:53:02Z</time>
      </trkpt>
      <trkpt lat="59.109213352203369" lon="30.486481189727783">
        <time>2026-08-20T08:53:04Z</time>
      </trkpt>
      <trkpt lat="59.109213352203369" lon="30.486481189727783">
        <time>2026-08-20T08:53:07Z</time>
      </trkpt>
      <trkpt lat="59.109213352203369" lon="30.486481189727783">
        <time>2026-08-20T08:53:09Z</time>
      </trkpt>
      <trkpt lat="59.109213352203369" lon="30.486481189727783">
        <time>2026-08-20T08:53:12Z</time>
      </trkpt>
      <trkpt lat="59.109213352203369" lon="30.486481189727783">
        <time>2026-08-20T08:53:14Z</time>
      </trkpt>
      <trkpt lat="59.109213352203369" lon="30.486481189727783">
        <time>2026-08-20T08:53:17Z</time>
      </trkpt>
      <trkpt lat="59.10919189453125" lon="30.486524105072021">
        <time>2026-08-20T08:53:19Z</time>
      </trkpt>
      <trkpt lat="59.10919189453125" lon="30.486524105072021">
        <time>2026-08-20T08:53:22Z</time>
      </trkpt>
      <trkpt lat="59.10919189453125" lon="30.486524105072021">
        <time>2026-08-20T08:53:24Z</time>
      </trkpt>
      <trkpt lat="59.10919189453125" lon="30.486524105072021">
        <time>2026-08-20T08:53:27Z</time>
      </trkpt>
      <trkpt lat="59.10919189453125" lon="30.486524105072021">
        <time>2026-08-20T08:53:29Z</time>
      </trkpt>
      <trkpt lat="59.10919189453125" lon="30.486524105072021">
        <time>2026-08-20T08:53:32Z</time>
      </trkpt>
      <trkpt lat="59.10919189453125" lon="30.486524105072021">
        <time>2026-08-20T08:53:34Z</time>
      </trkpt>
      <trkpt lat="59.10919189453125" lon="30.486524105072021">
        <time>2026-08-20T08:53:37Z</time>
      </trkpt>
      <trkpt lat="59.10919189453125" lon="30.486524105072021">
        <time>2026-08-20T08:53:39Z</time>
      </trkpt>
      <trkpt lat="59.10919189453125" lon="30.486524105072021">
        <time>2026-08-20T08:53:44Z</time>
      </trkpt>
      <trkpt lat="59.10919189453125" lon="30.486524105072021">
        <time>2026-08-20T08:53:47Z</time>
      </trkpt>
      <trkpt lat="59.10919189453125" lon="30.486524105072021">
        <time>2026-08-20T08:53:49Z</time>
      </trkpt>
      <trkpt lat="59.10919189453125" lon="30.486524105072021">
        <time>2026-08-20T08:53:52Z</time>
      </trkpt>
      <trkpt lat="59.10919189453125" lon="30.486524105072021">
        <time>2026-08-20T08:53:54Z</time>
      </trkpt>
      <trkpt lat="59.10919189453125" lon="30.486524105072021">
        <time>2026-08-20T08:53:57Z</time>
      </trkpt>
      <trkpt lat="59.10919189453125" lon="30.486524105072021">
        <time>2026-08-20T08:53:59Z</time>
      </trkpt>
      <trkpt lat="59.10919189453125" lon="30.486481189727783">
        <time>2026-08-20T08:54:02Z</time>
      </trkpt>
      <trkpt lat="59.10919189453125" lon="30.486502647399902">
        <time>2026-08-20T08:54:04Z</time>
      </trkpt>
      <trkpt lat="59.10919189453125" lon="30.486481189727783">
        <time>2026-08-20T08:54:07Z</time>
      </trkpt>
      <trkpt lat="59.109213352203369" lon="30.486459732055664">
        <time>2026-08-20T08:54:09Z</time>
      </trkpt>
      <trkpt lat="59.109213352203369" lon="30.486459732055664">
        <time>2026-08-20T08:54:12Z</time>
      </trkpt>
      <trkpt lat="59.109213352203369" lon="30.486416816711426">
        <time>2026-08-20T08:54:14Z</time>
      </trkpt>
      <trkpt lat="59.109213352203369" lon="30.486395359039307">
        <time>2026-08-20T08:54:17Z</time>
      </trkpt>
      <trkpt lat="59.10919189453125" lon="30.486395359039307">
        <time>2026-08-20T08:54:19Z</time>
      </trkpt>
      <trkpt lat="59.109170436859131" lon="30.486330986022949">
        <time>2026-08-20T08:54:22Z</time>
      </trkpt>
      <trkpt lat="59.109148979187012" lon="30.486266613006592">
        <time>2026-08-20T08:54:24Z</time>
      </trkpt>
      <trkpt lat="59.109170436859131" lon="30.486223697662354">
        <time>2026-08-20T08:54:27Z</time>
      </trkpt>
      <trkpt lat="59.109170436859131" lon="30.486159324645996">
        <time>2026-08-20T08:54:29Z</time>
      </trkpt>
      <trkpt lat="59.109170436859131" lon="30.486159324645996">
        <time>2026-08-20T08:54:32Z</time>
      </trkpt>
      <trkpt lat="59.109170436859131" lon="30.486116409301758">
        <time>2026-08-20T08:54:34Z</time>
      </trkpt>
      <trkpt lat="59.109170436859131" lon="30.48607349395752">
        <time>2026-08-20T08:54:37Z</time>
      </trkpt>
      <trkpt lat="59.109170436859131" lon="30.48607349395752">
        <time>2026-08-20T08:54:39Z</time>
      </trkpt>
      <trkpt lat="59.109170436859131" lon="30.48607349395752">
        <time>2026-08-20T08:54:42Z</time>
      </trkpt>
      <trkpt lat="59.109170436859131" lon="30.48607349395752">
        <time>2026-08-20T08:54:44Z</time>
      </trkpt>
      <trkpt lat="59.109148979187012" lon="30.4860520362854">
        <time>2026-08-20T08:54:47Z</time>
      </trkpt>
      <trkpt lat="59.109127521514893" lon="30.485987663269043">
        <time>2026-08-20T08:54:49Z</time>
      </trkpt>
      <trkpt lat="59.109127521514893" lon="30.485966205596924">
        <time>2026-08-20T08:54:52Z</time>
      </trkpt>
      <trkpt lat="59.109127521514893" lon="30.485944747924805">
        <time>2026-08-20T08:54:54Z</time>
      </trkpt>
      <trkpt lat="59.109127521514893" lon="30.485923290252686">
        <time>2026-08-20T08:54:57Z</time>
      </trkpt>
      <trkpt lat="59.109127521514893" lon="30.485880374908447">
        <time>2026-08-20T08:54:59Z</time>
      </trkpt>
      <trkpt lat="59.109127521514893" lon="30.485858917236328">
        <time>2026-08-20T08:55:02Z</time>
      </trkpt>
      <trkpt lat="59.109106063842773" lon="30.48581600189209">
        <time>2026-08-20T08:55:04Z</time>
      </trkpt>
      <trkpt lat="59.109127521514893" lon="30.485773086547852">
        <time>2026-08-20T08:55:07Z</time>
      </trkpt>
      <trkpt lat="59.109127521514893" lon="30.485730171203613">
        <time>2026-08-20T08:55:09Z</time>
      </trkpt>
      <trkpt lat="59.109148979187012" lon="30.485708713531494">
        <time>2026-08-20T08:55:12Z</time>
      </trkpt>
      <trkpt lat="59.109148979187012" lon="30.485665798187256">
        <time>2026-08-20T08:55:14Z</time>
      </trkpt>
      <trkpt lat="59.109148979187012" lon="30.485665798187256">
        <time>2026-08-20T08:55:17Z</time>
      </trkpt>
      <trkpt lat="59.109127521514893" lon="30.485622882843018">
        <time>2026-08-20T08:55:19Z</time>
      </trkpt>
      <trkpt lat="59.109127521514893" lon="30.485601425170898">
        <time>2026-08-20T08:55:22Z</time>
      </trkpt>
      <trkpt lat="59.109106063842773" lon="30.48555850982666">
        <time>2026-08-20T08:55:24Z</time>
      </trkpt>
      <trkpt lat="59.109106063842773" lon="30.485537052154541">
        <time>2026-08-20T08:55:27Z</time>
      </trkpt>
      <trkpt lat="59.109106063842773" lon="30.485472679138184">
        <time>2026-08-20T08:55:29Z</time>
      </trkpt>
      <trkpt lat="59.109084606170654" lon="30.485451221466064">
        <time>2026-08-20T08:55:32Z</time>
      </trkpt>
      <trkpt lat="59.109106063842773" lon="30.485386848449707">
        <time>2026-08-20T08:55:34Z</time>
      </trkpt>
      <trkpt lat="59.109106063842773" lon="30.485365390777588">
        <time>2026-08-20T08:55:37Z</time>
      </trkpt>
      <trkpt lat="59.109106063842773" lon="30.485365390777588">
        <time>2026-08-20T08:55:39Z</time>
      </trkpt>
      <trkpt lat="59.109106063842773" lon="30.485365390777588">
        <time>2026-08-20T08:55:42Z</time>
      </trkpt>
      <trkpt lat="59.109106063842773" lon="30.485343933105469">
        <time>2026-08-20T08:55:44Z</time>
      </trkpt>
      <trkpt lat="59.109106063842773" lon="30.48532247543335">
        <time>2026-08-20T08:55:47Z</time>
      </trkpt>
      <trkpt lat="59.109127521514893" lon="30.485258102416992">
        <time>2026-08-20T08:55:49Z</time>
      </trkpt>
      <trkpt lat="59.109127521514893" lon="30.485193729400635">
        <time>2026-08-20T08:55:52Z</time>
      </trkpt>
      <trkpt lat="59.109127521514893" lon="30.485107898712158">
        <time>2026-08-20T08:55:54Z</time>
      </trkpt>
      <trkpt lat="59.109106063842773" lon="30.485086441040039">
        <time>2026-08-20T08:55:57Z</time>
      </trkpt>
      <trkpt lat="59.109084606170654" lon="30.484979152679443">
        <time>2026-08-20T08:55:59Z</time>
      </trkpt>
      <trkpt lat="59.109084606170654" lon="30.484957695007324">
        <time>2026-08-20T08:56:02Z</time>
      </trkpt>
      <trkpt lat="59.109106063842773" lon="30.484914779663086">
        <time>2026-08-20T08:56:04Z</time>
      </trkpt>
      <trkpt lat="59.109106063842773" lon="30.484914779663086">
        <time>2026-08-20T08:56:07Z</time>
      </trkpt>
      <trkpt lat="59.109127521514893" lon="30.484914779663086">
        <time>2026-08-20T08:56:12Z</time>
      </trkpt>
      <trkpt lat="59.109127521514893" lon="30.484871864318848">
        <time>2026-08-20T08:56:14Z</time>
      </trkpt>
      <trkpt lat="59.109127521514893" lon="30.484871864318848">
        <time>2026-08-20T08:56:17Z</time>
      </trkpt>
      <trkpt lat="59.109106063842773" lon="30.48480749130249">
        <time>2026-08-20T08:56:19Z</time>
      </trkpt>
      <trkpt lat="59.109106063842773" lon="30.484764575958252">
        <time>2026-08-20T08:56:22Z</time>
      </trkpt>
      <trkpt lat="59.109106063842773" lon="30.484721660614014">
        <time>2026-08-20T08:56:24Z</time>
      </trkpt>
      <trkpt lat="59.109127521514893" lon="30.484678745269775">
        <time>2026-08-20T08:56:27Z</time>
      </trkpt>
      <trkpt lat="59.109127521514893" lon="30.484614372253418">
        <time>2026-08-20T08:56:29Z</time>
      </trkpt>
      <trkpt lat="59.109127521514893" lon="30.484549999237061">
        <time>2026-08-20T08:56:32Z</time>
      </trkpt>
      <trkpt lat="59.109127521514893" lon="30.484507083892822">
        <time>2026-08-20T08:56:34Z</time>
      </trkpt>
      <trkpt lat="59.109127521514893" lon="30.484485626220703">
        <time>2026-08-20T08:56:37Z</time>
      </trkpt>
      <trkpt lat="59.109127521514893" lon="30.484464168548584">
        <time>2026-08-20T08:56:39Z</time>
      </trkpt>
      <trkpt lat="59.109127521514893" lon="30.484464168548584">
        <time>2026-08-20T08:56:42Z</time>
      </trkpt>
      <trkpt lat="59.109127521514893" lon="30.484464168548584">
        <time>2026-08-20T08:56:44Z</time>
      </trkpt>
      <trkpt lat="59.109127521514893" lon="30.484464168548584">
        <time>2026-08-20T08:56:47Z</time>
      </trkpt>
      <trkpt lat="59.109148979187012" lon="30.484442710876465">
        <time>2026-08-20T08:56:49Z</time>
      </trkpt>
      <trkpt lat="59.109170436859131" lon="30.484399795532227">
        <time>2026-08-20T08:56:52Z</time>
      </trkpt>
      <trkpt lat="59.10919189453125" lon="30.484335422515869">
        <time>2026-08-20T08:56:54Z</time>
      </trkpt>
      <trkpt lat="59.109170436859131" lon="30.484292507171631">
        <time>2026-08-20T08:56:57Z</time>
      </trkpt>
      <trkpt lat="59.10919189453125" lon="30.484228134155273">
        <time>2026-08-20T08:56:59Z</time>
      </trkpt>
      <trkpt lat="59.109170436859131" lon="30.484206676483154">
        <time>2026-08-20T08:57:02Z</time>
      </trkpt>
      <trkpt lat="59.109170436859131" lon="30.484206676483154">
        <time>2026-08-20T08:57:04Z</time>
      </trkpt>
      <trkpt lat="59.109170436859131" lon="30.484163761138916">
        <time>2026-08-20T08:57:07Z</time>
      </trkpt>
      <trkpt lat="59.109170436859131" lon="30.484099388122559">
        <time>2026-08-20T08:57:09Z</time>
      </trkpt>
      <trkpt lat="59.109170436859131" lon="30.484099388122559">
        <time>2026-08-20T08:57:12Z</time>
      </trkpt>
      <trkpt lat="59.109148979187012" lon="30.484077930450439">
        <time>2026-08-20T08:57:14Z</time>
      </trkpt>
      <trkpt lat="59.109148979187012" lon="30.48405647277832">
        <time>2026-08-20T08:57:17Z</time>
      </trkpt>
      <trkpt lat="59.109148979187012" lon="30.483992099761963">
        <time>2026-08-20T08:57:19Z</time>
      </trkpt>
      <trkpt lat="59.109148979187012" lon="30.483949184417725">
        <time>2026-08-20T08:57:22Z</time>
      </trkpt>
      <trkpt lat="59.109148979187012" lon="30.483863353729248">
        <time>2026-08-20T08:57:24Z</time>
      </trkpt>
      <trkpt lat="59.109127521514893" lon="30.48382043838501">
        <time>2026-08-20T08:57:27Z</time>
      </trkpt>
      <trkpt lat="59.109148979187012" lon="30.48382043838501">
        <time>2026-08-20T08:57:29Z</time>
      </trkpt>
      <trkpt lat="59.109127521514893" lon="30.483798980712891">
        <time>2026-08-20T08:57:32Z</time>
      </trkpt>
      <trkpt lat="59.109127521514893" lon="30.483798980712891">
        <time>2026-08-20T08:57:34Z</time>
      </trkpt>
      <trkpt lat="59.109127521514893" lon="30.483798980712891">
        <time>2026-08-20T08:57:37Z</time>
      </trkpt>
      <trkpt lat="59.109127521514893" lon="30.48382043838501">
        <time>2026-08-20T08:57:39Z</time>
      </trkpt>
      <trkpt lat="59.109106063842773" lon="30.483798980712891">
        <time>2026-08-20T08:57:42Z</time>
      </trkpt>
      <trkpt lat="59.109106063842773" lon="30.483777523040771">
        <time>2026-08-20T08:57:44Z</time>
      </trkpt>
      <trkpt lat="59.109106063842773" lon="30.483777523040771">
        <time>2026-08-20T08:57:47Z</time>
      </trkpt>
      <trkpt lat="59.109106063842773" lon="30.483734607696533">
        <time>2026-08-20T08:57:49Z</time>
      </trkpt>
      <trkpt lat="59.109106063842773" lon="30.483734607696533">
        <time>2026-08-20T08:57:52Z</time>
      </trkpt>
      <trkpt lat="59.109084606170654" lon="30.483713150024414">
        <time>2026-08-20T08:57:54Z</time>
      </trkpt>
      <trkpt lat="59.109084606170654" lon="30.483691692352295">
        <time>2026-08-20T08:57:57Z</time>
      </trkpt>
      <trkpt lat="59.109063148498535" lon="30.483670234680176">
        <time>2026-08-20T08:57:59Z</time>
      </trkpt>
      <trkpt lat="59.109063148498535" lon="30.483670234680176">
        <time>2026-08-20T08:58:02Z</time>
      </trkpt>
      <trkpt lat="59.109063148498535" lon="30.483670234680176">
        <time>2026-08-20T08:58:04Z</time>
      </trkpt>
      <trkpt lat="59.109063148498535" lon="30.483670234680176">
        <time>2026-08-20T08:58:07Z</time>
      </trkpt>
      <trkpt lat="59.109063148498535" lon="30.483670234680176">
        <time>2026-08-20T08:58:09Z</time>
      </trkpt>
      <trkpt lat="59.109063148498535" lon="30.483670234680176">
        <time>2026-08-20T08:58:12Z</time>
      </trkpt>
      <trkpt lat="59.109084606170654" lon="30.483691692352295">
        <time>2026-08-20T08:58:14Z</time>
      </trkpt>
      <trkpt lat="59.109084606170654" lon="30.483670234680176">
        <time>2026-08-20T08:58:17Z</time>
      </trkpt>
      <trkpt lat="59.109063148498535" lon="30.483627319335938">
        <time>2026-08-20T08:58:19Z</time>
      </trkpt>
      <trkpt lat="59.109041690826416" lon="30.483605861663818">
        <time>2026-08-20T08:58:22Z</time>
      </trkpt>
      <trkpt lat="59.109020233154297" lon="30.48356294631958">
        <time>2026-08-20T08:58:24Z</time>
      </trkpt>
      <trkpt lat="59.109020233154297" lon="30.483520030975342">
        <time>2026-08-20T08:58:27Z</time>
      </trkpt>
      <trkpt lat="59.109020233154297" lon="30.483520030975342">
        <time>2026-08-20T08:58:29Z</time>
      </trkpt>
      <trkpt lat="59.109020233154297" lon="30.483520030975342">
        <time>2026-08-20T08:58:32Z</time>
      </trkpt>
      <trkpt lat="59.109020233154297" lon="30.483520030975342">
        <time>2026-08-20T08:58:34Z</time>
      </trkpt>
      <trkpt lat="59.109020233154297" lon="30.483520030975342">
        <time>2026-08-20T08:58:37Z</time>
      </trkpt>
      <trkpt lat="59.109020233154297" lon="30.483520030975342">
        <time>2026-08-20T08:58:39Z</time>
      </trkpt>
      <trkpt lat="59.109020233154297" lon="30.483520030975342">
        <time>2026-08-20T08:58:42Z</time>
      </trkpt>
      <trkpt lat="59.108998775482178" lon="30.483520030975342">
        <time>2026-08-20T08:58:44Z</time>
      </trkpt>
      <trkpt lat="59.108998775482178" lon="30.483520030975342">
        <time>2026-08-20T08:58:47Z</time>
      </trkpt>
      <trkpt lat="59.108977317810059" lon="30.48356294631958">
        <time>2026-08-20T08:58:49Z</time>
      </trkpt>
      <trkpt lat="59.108977317810059" lon="30.48356294631958">
        <time>2026-08-20T08:58:52Z</time>
      </trkpt>
      <trkpt lat="59.108977317810059" lon="30.48356294631958">
        <time>2026-08-20T08:58:54Z</time>
      </trkpt>
      <trkpt lat="59.108977317810059" lon="30.48356294631958">
        <time>2026-08-20T08:58:57Z</time>
      </trkpt>
      <trkpt lat="59.108977317810059" lon="30.48356294631958">
        <time>2026-08-20T08:58:59Z</time>
      </trkpt>
      <trkpt lat="59.108977317810059" lon="30.48356294631958">
        <time>2026-08-20T08:59:02Z</time>
      </trkpt>
      <trkpt lat="59.108977317810059" lon="30.48356294631958">
        <time>2026-08-20T08:59:04Z</time>
      </trkpt>
      <trkpt lat="59.108977317810059" lon="30.48356294631958">
        <time>2026-08-20T08:59:07Z</time>
      </trkpt>
      <trkpt lat="59.108977317810059" lon="30.483541488647461">
        <time>2026-08-20T08:59:09Z</time>
      </trkpt>
      <trkpt lat="59.108955860137939" lon="30.48356294631958">
        <time>2026-08-20T08:59:12Z</time>
      </trkpt>
      <trkpt lat="59.108955860137939" lon="30.48356294631958">
        <time>2026-08-20T08:59:14Z</time>
      </trkpt>
      <trkpt lat="59.108955860137939" lon="30.48356294631958">
        <time>2026-08-20T08:59:17Z</time>
      </trkpt>
      <trkpt lat="59.108955860137939" lon="30.48356294631958">
        <time>2026-08-20T08:59:19Z</time>
      </trkpt>
      <trkpt lat="59.108955860137939" lon="30.48356294631958">
        <time>2026-08-20T08:59:22Z</time>
      </trkpt>
      <trkpt lat="59.10893440246582" lon="30.48356294631958">
        <time>2026-08-20T08:59:24Z</time>
      </trkpt>
      <trkpt lat="59.108912944793701" lon="30.48356294631958">
        <time>2026-08-20T08:59:27Z</time>
      </trkpt>
      <trkpt lat="59.108912944793701" lon="30.48356294631958">
        <time>2026-08-20T08:59:29Z</time>
      </trkpt>
      <trkpt lat="59.108870029449463" lon="30.483584403991699">
        <time>2026-08-20T08:59:32Z</time>
      </trkpt>
      <trkpt lat="59.108870029449463" lon="30.483627319335938">
        <time>2026-08-20T08:59:34Z</time>
      </trkpt>
      <trkpt lat="59.108870029449463" lon="30.483627319335938">
        <time>2026-08-20T08:59:37Z</time>
      </trkpt>
      <trkpt lat="59.108848571777344" lon="30.483648777008057">
        <time>2026-08-20T08:59:39Z</time>
      </trkpt>
      <trkpt lat="59.108805656433105" lon="30.483648777008057">
        <time>2026-08-20T08:59:42Z</time>
      </trkpt>
      <trkpt lat="59.108784198760986" lon="30.483648777008057">
        <time>2026-08-20T08:59:44Z</time>
      </trkpt>
      <trkpt lat="59.108762741088867" lon="30.483670234680176">
        <time>2026-08-20T08:59:47Z</time>
      </trkpt>
      <trkpt lat="59.108719825744629" lon="30.483670234680176">
        <time>2026-08-20T08:59:49Z</time>
      </trkpt>
      <trkpt lat="59.108676910400391" lon="30.483670234680176">
        <time>2026-08-20T08:59:52Z</time>
      </trkpt>
      <trkpt lat="59.108655452728271" lon="30.483670234680176">
        <time>2026-08-20T08:59:54Z</time>
      </trkpt>
      <trkpt lat="59.108633995056152" lon="30.483691692352295">
        <time>2026-08-20T08:59:57Z</time>
      </trkpt>
      <trkpt lat="59.108612537384033" lon="30.483691692352295">
        <time>2026-08-20T08:59:59Z</time>
      </trkpt>
      <trkpt lat="59.108612537384033" lon="30.483691692352295">
        <time>2026-08-20T09:00:02Z</time>
      </trkpt>
      <trkpt lat="59.108569622039795" lon="30.483691692352295">
        <time>2026-08-20T09:00:04Z</time>
      </trkpt>
      <trkpt lat="59.108569622039795" lon="30.483691692352295">
        <time>2026-08-20T09:00:07Z</time>
      </trkpt>
      <trkpt lat="59.108569622039795" lon="30.483691692352295">
        <time>2026-08-20T09:00:09Z</time>
      </trkpt>
      <trkpt lat="59.108591079711914" lon="30.483691692352295">
        <time>2026-08-20T09:00:12Z</time>
      </trkpt>
      <trkpt lat="59.108569622039795" lon="30.483691692352295">
        <time>2026-08-20T09:00:14Z</time>
      </trkpt>
      <trkpt lat="59.108591079711914" lon="30.483691692352295">
        <time>2026-08-20T09:00:17Z</time>
      </trkpt>
      <trkpt lat="59.108591079711914" lon="30.483691692352295">
        <time>2026-08-20T09:00:19Z</time>
      </trkpt>
      <trkpt lat="59.108569622039795" lon="30.483691692352295">
        <time>2026-08-20T09:00:22Z</time>
      </trkpt>
      <trkpt lat="59.108548164367676" lon="30.483713150024414">
        <time>2026-08-20T09:00:24Z</time>
      </trkpt>
      <trkpt lat="59.108526706695557" lon="30.483691692352295">
        <time>2026-08-20T09:00:27Z</time>
      </trkpt>
      <trkpt lat="59.108505249023438" lon="30.483670234680176">
        <time>2026-08-20T09:00:29Z</time>
      </trkpt>
      <trkpt lat="59.108505249023438" lon="30.483691692352295">
        <time>2026-08-20T09:00:32Z</time>
      </trkpt>
      <trkpt lat="59.108483791351318" lon="30.483691692352295">
        <time>2026-08-20T09:00:34Z</time>
      </trkpt>
      <trkpt lat="59.108462333679199" lon="30.483691692352295">
        <time>2026-08-20T09:00:37Z</time>
      </trkpt>
      <trkpt lat="59.10844087600708" lon="30.483713150024414">
        <time>2026-08-20T09:00:39Z</time>
      </trkpt>
      <trkpt lat="59.108419418334961" lon="30.483713150024414">
        <time>2026-08-20T09:00:42Z</time>
      </trkpt>
      <trkpt lat="59.108397960662842" lon="30.483713150024414">
        <time>2026-08-20T09:00:44Z</time>
      </trkpt>
      <trkpt lat="59.108397960662842" lon="30.483713150024414">
        <time>2026-08-20T09:00:47Z</time>
      </trkpt>
      <trkpt lat="59.108376502990723" lon="30.483713150024414">
        <time>2026-08-20T09:00:49Z</time>
      </trkpt>
      <trkpt lat="59.108355045318604" lon="30.483713150024414">
        <time>2026-08-20T09:00:52Z</time>
      </trkpt>
      <trkpt lat="59.108355045318604" lon="30.483713150024414">
        <time>2026-08-20T09:00:54Z</time>
      </trkpt>
      <trkpt lat="59.108355045318604" lon="30.483713150024414">
        <time>2026-08-20T09:00:57Z</time>
      </trkpt>
      <trkpt lat="59.108333587646484" lon="30.483713150024414">
        <time>2026-08-20T09:00:59Z</time>
      </trkpt>
      <trkpt lat="59.108290672302246" lon="30.483713150024414">
        <time>2026-08-20T09:01:02Z</time>
      </trkpt>
      <trkpt lat="59.108290672302246" lon="30.483734607696533">
        <time>2026-08-20T09:01:04Z</time>
      </trkpt>
      <trkpt lat="59.108290672302246" lon="30.483734607696533">
        <time>2026-08-20T09:01:07Z</time>
      </trkpt>
      <trkpt lat="59.108290672302246" lon="30.483734607696533">
        <time>2026-08-20T09:01:09Z</time>
      </trkpt>
      <trkpt lat="59.108290672302246" lon="30.483734607696533">
        <time>2026-08-20T09:01:12Z</time>
      </trkpt>
      <trkpt lat="59.108290672302246" lon="30.483734607696533">
        <time>2026-08-20T09:01:14Z</time>
      </trkpt>
      <trkpt lat="59.108269214630127" lon="30.483734607696533">
        <time>2026-08-20T09:01:17Z</time>
      </trkpt>
      <trkpt lat="59.108247756958008" lon="30.483756065368652">
        <time>2026-08-20T09:01:19Z</time>
      </trkpt>
      <trkpt lat="59.10820484161377" lon="30.483798980712891">
        <time>2026-08-20T09:01:22Z</time>
      </trkpt>
      <trkpt lat="59.10820484161377" lon="30.48382043838501">
        <time>2026-08-20T09:01:24Z</time>
      </trkpt>
      <trkpt lat="59.108290672302246" lon="30.483777523040771">
        <time>2026-08-20T09:01:27Z</time>
      </trkpt>
      <trkpt lat="59.108290672302246" lon="30.483798980712891">
        <time>2026-08-20T09:01:29Z</time>
      </trkpt>
      <trkpt lat="59.108290672302246" lon="30.483798980712891">
        <time>2026-08-20T09:01:32Z</time>
      </trkpt>
      <trkpt lat="59.108290672302246" lon="30.483798980712891">
        <time>2026-08-20T09:01:34Z</time>
      </trkpt>
      <trkpt lat="59.108290672302246" lon="30.483798980712891">
        <time>2026-08-20T09:01:37Z</time>
      </trkpt>
      <trkpt lat="59.108290672302246" lon="30.483798980712891">
        <time>2026-08-20T09:01:39Z</time>
      </trkpt>
      <trkpt lat="59.108290672302246" lon="30.483798980712891">
        <time>2026-08-20T09:01:42Z</time>
      </trkpt>
      <trkpt lat="59.108290672302246" lon="30.483798980712891">
        <time>2026-08-20T09:01:44Z</time>
      </trkpt>
      <trkpt lat="59.108290672302246" lon="30.483777523040771">
        <time>2026-08-20T09:01:47Z</time>
      </trkpt>
      <trkpt lat="59.108290672302246" lon="30.483756065368652">
        <time>2026-08-20T09:01:49Z</time>
      </trkpt>
      <trkpt lat="59.108290672302246" lon="30.483756065368652">
        <time>2026-08-20T09:01:52Z</time>
      </trkpt>
      <trkpt lat="59.108290672302246" lon="30.483756065368652">
        <time>2026-08-20T09:01:54Z</time>
      </trkpt>
      <trkpt lat="59.108290672302246" lon="30.483756065368652">
        <time>2026-08-20T09:01:57Z</time>
      </trkpt>
      <trkpt lat="59.108290672302246" lon="30.483756065368652">
        <time>2026-08-20T09:01:59Z</time>
      </trkpt>
      <trkpt lat="59.108290672302246" lon="30.483756065368652">
        <time>2026-08-20T09:02:02Z</time>
      </trkpt>
      <trkpt lat="59.108290672302246" lon="30.483756065368652">
        <time>2026-08-20T09:02:04Z</time>
      </trkpt>
      <trkpt lat="59.108290672302246" lon="30.483756065368652">
        <time>2026-08-20T09:02:07Z</time>
      </trkpt>
      <trkpt lat="59.108290672302246" lon="30.483756065368652">
        <time>2026-08-20T09:02:09Z</time>
      </trkpt>
      <trkpt lat="59.108290672302246" lon="30.483756065368652">
        <time>2026-08-20T09:02:12Z</time>
      </trkpt>
      <trkpt lat="59.108290672302246" lon="30.483756065368652">
        <time>2026-08-20T09:02:14Z</time>
      </trkpt>
      <trkpt lat="59.108290672302246" lon="30.483734607696533">
        <time>2026-08-20T09:02:17Z</time>
      </trkpt>
      <trkpt lat="59.108312129974365" lon="30.483713150024414">
        <time>2026-08-20T09:02:19Z</time>
      </trkpt>
      <trkpt lat="59.108333587646484" lon="30.483713150024414">
        <time>2026-08-20T09:02:22Z</time>
      </trkpt>
      <trkpt lat="59.108333587646484" lon="30.483691692352295">
        <time>2026-08-20T09:02:24Z</time>
      </trkpt>
      <trkpt lat="59.108333587646484" lon="30.483691692352295">
        <time>2026-08-20T09:02:27Z</time>
      </trkpt>
      <trkpt lat="59.108333587646484" lon="30.483691692352295">
        <time>2026-08-20T09:02:29Z</time>
      </trkpt>
      <trkpt lat="59.108333587646484" lon="30.483734607696533">
        <time>2026-08-20T09:02:32Z</time>
      </trkpt>
      <trkpt lat="59.108355045318604" lon="30.483777523040771">
        <time>2026-08-20T09:02:34Z</time>
      </trkpt>
      <trkpt lat="59.108376502990723" lon="30.483777523040771">
        <time>2026-08-20T09:02:37Z</time>
      </trkpt>
      <trkpt lat="59.108376502990723" lon="30.483798980712891">
        <time>2026-08-20T09:02:39Z</time>
      </trkpt>
      <trkpt lat="59.108397960662842" lon="30.483841896057129">
        <time>2026-08-20T09:02:42Z</time>
      </trkpt>
      <trkpt lat="59.108397960662842" lon="30.483841896057129">
        <time>2026-08-20T09:02:44Z</time>
      </trkpt>
      <trkpt lat="59.108397960662842" lon="30.483841896057129">
        <time>2026-08-20T09:02:47Z</time>
      </trkpt>
      <trkpt lat="59.108397960662842" lon="30.483841896057129">
        <time>2026-08-20T09:02:49Z</time>
      </trkpt>
      <trkpt lat="59.108397960662842" lon="30.483841896057129">
        <time>2026-08-20T09:02:52Z</time>
      </trkpt>
      <trkpt lat="59.108397960662842" lon="30.483841896057129">
        <time>2026-08-20T09:02:54Z</time>
      </trkpt>
      <trkpt lat="59.108397960662842" lon="30.483841896057129">
        <time>2026-08-20T09:02:57Z</time>
      </trkpt>
      <trkpt lat="59.108397960662842" lon="30.483841896057129">
        <time>2026-08-20T09:02:59Z</time>
      </trkpt>
      <trkpt lat="59.108397960662842" lon="30.483841896057129">
        <time>2026-08-20T09:03:02Z</time>
      </trkpt>
      <trkpt lat="59.108397960662842" lon="30.483841896057129">
        <time>2026-08-20T09:03:04Z</time>
      </trkpt>
      <trkpt lat="59.108397960662842" lon="30.483841896057129">
        <time>2026-08-20T09:03:07Z</time>
      </trkpt>
      <trkpt lat="59.108397960662842" lon="30.483841896057129">
        <time>2026-08-20T09:03:09Z</time>
      </trkpt>
      <trkpt lat="59.108397960662842" lon="30.483841896057129">
        <time>2026-08-20T09:03:12Z</time>
      </trkpt>
      <trkpt lat="59.108397960662842" lon="30.483841896057129">
        <time>2026-08-20T09:03:14Z</time>
      </trkpt>
      <trkpt lat="59.108397960662842" lon="30.483863353729248">
        <time>2026-08-20T09:03:17Z</time>
      </trkpt>
      <trkpt lat="59.108397960662842" lon="30.483841896057129">
        <time>2026-08-20T09:03:19Z</time>
      </trkpt>
      <trkpt lat="59.108397960662842" lon="30.483841896057129">
        <time>2026-08-20T09:03:22Z</time>
      </trkpt>
      <trkpt lat="59.108397960662842" lon="30.483841896057129">
        <time>2026-08-20T09:03:24Z</time>
      </trkpt>
      <trkpt lat="59.108397960662842" lon="30.483841896057129">
        <time>2026-08-20T09:03:27Z</time>
      </trkpt>
      <trkpt lat="59.108397960662842" lon="30.483841896057129">
        <time>2026-08-20T09:03:29Z</time>
      </trkpt>
      <trkpt lat="59.108397960662842" lon="30.483841896057129">
        <time>2026-08-20T09:03:32Z</time>
      </trkpt>
      <trkpt lat="59.108397960662842" lon="30.483841896057129">
        <time>2026-08-20T09:03:34Z</time>
      </trkpt>
      <trkpt lat="59.108397960662842" lon="30.483841896057129">
        <time>2026-08-20T09:03:37Z</time>
      </trkpt>
      <trkpt lat="59.108419418334961" lon="30.483841896057129">
        <time>2026-08-20T09:03:39Z</time>
      </trkpt>
      <trkpt lat="59.108419418334961" lon="30.483841896057129">
        <time>2026-08-20T09:03:42Z</time>
      </trkpt>
      <trkpt lat="59.108419418334961" lon="30.483841896057129">
        <time>2026-08-20T09:03:44Z</time>
      </trkpt>
      <trkpt lat="59.108419418334961" lon="30.483841896057129">
        <time>2026-08-20T09:03:47Z</time>
      </trkpt>
      <trkpt lat="59.108419418334961" lon="30.483841896057129">
        <time>2026-08-20T09:03:49Z</time>
      </trkpt>
      <trkpt lat="59.108419418334961" lon="30.483841896057129">
        <time>2026-08-20T09:03:52Z</time>
      </trkpt>
      <trkpt lat="59.108419418334961" lon="30.483841896057129">
        <time>2026-08-20T09:03:54Z</time>
      </trkpt>
      <trkpt lat="59.108419418334961" lon="30.483841896057129">
        <time>2026-08-20T09:03:57Z</time>
      </trkpt>
      <trkpt lat="59.108419418334961" lon="30.483841896057129">
        <time>2026-08-20T09:03:59Z</time>
      </trkpt>
      <trkpt lat="59.108419418334961" lon="30.483841896057129">
        <time>2026-08-20T09:04:02Z</time>
      </trkpt>
      <trkpt lat="59.108419418334961" lon="30.483841896057129">
        <time>2026-08-20T09:04:04Z</time>
      </trkpt>
      <trkpt lat="59.108419418334961" lon="30.483841896057129">
        <time>2026-08-20T09:04:07Z</time>
      </trkpt>
      <trkpt lat="59.108419418334961" lon="30.483841896057129">
        <time>2026-08-20T09:04:09Z</time>
      </trkpt>
      <trkpt lat="59.108419418334961" lon="30.483841896057129">
        <time>2026-08-20T09:04:12Z</time>
      </trkpt>
      <trkpt lat="59.108419418334961" lon="30.483841896057129">
        <time>2026-08-20T09:04:14Z</time>
      </trkpt>
      <trkpt lat="59.108419418334961" lon="30.483841896057129">
        <time>2026-08-20T09:04:17Z</time>
      </trkpt>
      <trkpt lat="59.108419418334961" lon="30.483841896057129">
        <time>2026-08-20T09:04:19Z</time>
      </trkpt>
      <trkpt lat="59.108419418334961" lon="30.483841896057129">
        <time>2026-08-20T09:04:22Z</time>
      </trkpt>
      <trkpt lat="59.108419418334961" lon="30.483841896057129">
        <time>2026-08-20T09:04:24Z</time>
      </trkpt>
      <trkpt lat="59.108419418334961" lon="30.483841896057129">
        <time>2026-08-20T09:04:27Z</time>
      </trkpt>
      <trkpt lat="59.108419418334961" lon="30.483841896057129">
        <time>2026-08-20T09:04:29Z</time>
      </trkpt>
      <trkpt lat="59.108419418334961" lon="30.483841896057129">
        <time>2026-08-20T09:04:32Z</time>
      </trkpt>
      <trkpt lat="59.108419418334961" lon="30.483841896057129">
        <time>2026-08-20T09:04:34Z</time>
      </trkpt>
      <trkpt lat="59.108419418334961" lon="30.483841896057129">
        <time>2026-08-20T09:04:37Z</time>
      </trkpt>
      <trkpt lat="59.108419418334961" lon="30.483841896057129">
        <time>2026-08-20T09:04:39Z</time>
      </trkpt>
      <trkpt lat="59.108419418334961" lon="30.483841896057129">
        <time>2026-08-20T09:04:42Z</time>
      </trkpt>
      <trkpt lat="59.108419418334961" lon="30.483841896057129">
        <time>2026-08-20T09:04:44Z</time>
      </trkpt>
      <trkpt lat="59.108419418334961" lon="30.483841896057129">
        <time>2026-08-20T09:04:47Z</time>
      </trkpt>
      <trkpt lat="59.108419418334961" lon="30.483841896057129">
        <time>2026-08-20T09:04:49Z</time>
      </trkpt>
      <trkpt lat="59.108419418334961" lon="30.483841896057129">
        <time>2026-08-20T09:04:52Z</time>
      </trkpt>
      <trkpt lat="59.108419418334961" lon="30.483841896057129">
        <time>2026-08-20T09:04:54Z</time>
      </trkpt>
      <trkpt lat="59.108419418334961" lon="30.483841896057129">
        <time>2026-08-20T09:04:57Z</time>
      </trkpt>
      <trkpt lat="59.108419418334961" lon="30.483841896057129">
        <time>2026-08-20T09:04:59Z</time>
      </trkpt>
      <trkpt lat="59.108419418334961" lon="30.483841896057129">
        <time>2026-08-20T09:05:02Z</time>
      </trkpt>
      <trkpt lat="59.108419418334961" lon="30.483841896057129">
        <time>2026-08-20T09:05:04Z</time>
      </trkpt>
      <trkpt lat="59.108419418334961" lon="30.483841896057129">
        <time>2026-08-20T09:05:07Z</time>
      </trkpt>
      <trkpt lat="59.108419418334961" lon="30.483841896057129">
        <time>2026-08-20T09:05:09Z</time>
      </trkpt>
      <trkpt lat="59.108419418334961" lon="30.483841896057129">
        <time>2026-08-20T09:05:12Z</time>
      </trkpt>
      <trkpt lat="59.108419418334961" lon="30.483841896057129">
        <time>2026-08-20T09:05:14Z</time>
      </trkpt>
      <trkpt lat="59.108419418334961" lon="30.483841896057129">
        <time>2026-08-20T09:05:17Z</time>
      </trkpt>
      <trkpt lat="59.108419418334961" lon="30.483841896057129">
        <time>2026-08-20T09:05:19Z</time>
      </trkpt>
      <trkpt lat="59.108419418334961" lon="30.483841896057129">
        <time>2026-08-20T09:05:22Z</time>
      </trkpt>
      <trkpt lat="59.108419418334961" lon="30.483841896057129">
        <time>2026-08-20T09:05:24Z</time>
      </trkpt>
      <trkpt lat="59.108419418334961" lon="30.483841896057129">
        <time>2026-08-20T09:05:27Z</time>
      </trkpt>
      <trkpt lat="59.10844087600708" lon="30.483863353729248">
        <time>2026-08-20T09:05:29Z</time>
      </trkpt>
      <trkpt lat="59.10844087600708" lon="30.483863353729248">
        <time>2026-08-20T09:05:32Z</time>
      </trkpt>
      <trkpt lat="59.10844087600708" lon="30.483863353729248">
        <time>2026-08-20T09:05:34Z</time>
      </trkpt>
      <trkpt lat="59.10844087600708" lon="30.483884811401367">
        <time>2026-08-20T09:05:37Z</time>
      </trkpt>
      <trkpt lat="59.10844087600708" lon="30.483884811401367">
        <time>2026-08-20T09:05:39Z</time>
      </trkpt>
      <trkpt lat="59.10844087600708" lon="30.483884811401367">
        <time>2026-08-20T09:05:42Z</time>
      </trkpt>
      <trkpt lat="59.10844087600708" lon="30.483884811401367">
        <time>2026-08-20T09:05:44Z</time>
      </trkpt>
      <trkpt lat="59.10844087600708" lon="30.483884811401367">
        <time>2026-08-20T09:05:47Z</time>
      </trkpt>
      <trkpt lat="59.10844087600708" lon="30.483884811401367">
        <time>2026-08-20T09:05:49Z</time>
      </trkpt>
      <trkpt lat="59.10844087600708" lon="30.483884811401367">
        <time>2026-08-20T09:05:52Z</time>
      </trkpt>
      <trkpt lat="59.10844087600708" lon="30.483884811401367">
        <time>2026-08-20T09:05:54Z</time>
      </trkpt>
      <trkpt lat="59.10844087600708" lon="30.483884811401367">
        <time>2026-08-20T09:05:57Z</time>
      </trkpt>
      <trkpt lat="59.10844087600708" lon="30.483884811401367">
        <time>2026-08-20T09:05:59Z</time>
      </trkpt>
      <trkpt lat="59.10844087600708" lon="30.483884811401367">
        <time>2026-08-20T09:06:02Z</time>
      </trkpt>
      <trkpt lat="59.10844087600708" lon="30.483884811401367">
        <time>2026-08-20T09:06:04Z</time>
      </trkpt>
      <trkpt lat="59.10844087600708" lon="30.483884811401367">
        <time>2026-08-20T09:06:07Z</time>
      </trkpt>
      <trkpt lat="59.10844087600708" lon="30.483884811401367">
        <time>2026-08-20T09:06:09Z</time>
      </trkpt>
      <trkpt lat="59.10844087600708" lon="30.483884811401367">
        <time>2026-08-20T09:06:12Z</time>
      </trkpt>
      <trkpt lat="59.10844087600708" lon="30.483884811401367">
        <time>2026-08-20T09:06:14Z</time>
      </trkpt>
      <trkpt lat="59.10844087600708" lon="30.483884811401367">
        <time>2026-08-20T09:06:17Z</time>
      </trkpt>
      <trkpt lat="59.10844087600708" lon="30.483884811401367">
        <time>2026-08-20T09:06:19Z</time>
      </trkpt>
      <trkpt lat="59.10844087600708" lon="30.483884811401367">
        <time>2026-08-20T09:06:22Z</time>
      </trkpt>
      <trkpt lat="59.10844087600708" lon="30.483884811401367">
        <time>2026-08-20T09:06:24Z</time>
      </trkpt>
      <trkpt lat="59.10844087600708" lon="30.483884811401367">
        <time>2026-08-20T09:06:27Z</time>
      </trkpt>
      <trkpt lat="59.10844087600708" lon="30.483884811401367">
        <time>2026-08-20T09:06:29Z</time>
      </trkpt>
      <trkpt lat="59.10844087600708" lon="30.483884811401367">
        <time>2026-08-20T09:06:32Z</time>
      </trkpt>
      <trkpt lat="59.10844087600708" lon="30.483884811401367">
        <time>2026-08-20T09:06:34Z</time>
      </trkpt>
      <trkpt lat="59.10844087600708" lon="30.483884811401367">
        <time>2026-08-20T09:06:37Z</time>
      </trkpt>
      <trkpt lat="59.10844087600708" lon="30.483884811401367">
        <time>2026-08-20T09:06:39Z</time>
      </trkpt>
      <trkpt lat="59.10844087600708" lon="30.483884811401367">
        <time>2026-08-20T09:06:42Z</time>
      </trkpt>
      <trkpt lat="59.10844087600708" lon="30.483884811401367">
        <time>2026-08-20T09:06:44Z</time>
      </trkpt>
      <trkpt lat="59.10844087600708" lon="30.483884811401367">
        <time>2026-08-20T09:06:47Z</time>
      </trkpt>
      <trkpt lat="59.10844087600708" lon="30.483884811401367">
        <time>2026-08-20T09:06:49Z</time>
      </trkpt>
      <trkpt lat="59.10844087600708" lon="30.483884811401367">
        <time>2026-08-20T09:06:52Z</time>
      </trkpt>
      <trkpt lat="59.10844087600708" lon="30.483884811401367">
        <time>2026-08-20T09:06:54Z</time>
      </trkpt>
      <trkpt lat="59.10844087600708" lon="30.483884811401367">
        <time>2026-08-20T09:06:57Z</time>
      </trkpt>
      <trkpt lat="59.10844087600708" lon="30.483884811401367">
        <time>2026-08-20T09:06:59Z</time>
      </trkpt>
      <trkpt lat="59.10844087600708" lon="30.483884811401367">
        <time>2026-08-20T09:07:02Z</time>
      </trkpt>
      <trkpt lat="59.108419418334961" lon="30.483863353729248">
        <time>2026-08-20T09:07:04Z</time>
      </trkpt>
      <trkpt lat="59.108419418334961" lon="30.483841896057129">
        <time>2026-08-20T09:07:07Z</time>
      </trkpt>
      <trkpt lat="59.108419418334961" lon="30.483841896057129">
        <time>2026-08-20T09:07:09Z</time>
      </trkpt>
      <trkpt lat="59.108419418334961" lon="30.483841896057129">
        <time>2026-08-20T09:07:12Z</time>
      </trkpt>
      <trkpt lat="59.10844087600708" lon="30.483863353729248">
        <time>2026-08-20T09:07:14Z</time>
      </trkpt>
      <trkpt lat="59.10844087600708" lon="30.483884811401367">
        <time>2026-08-20T09:07:17Z</time>
      </trkpt>
      <trkpt lat="59.10844087600708" lon="30.483884811401367">
        <time>2026-08-20T09:07:19Z</time>
      </trkpt>
      <trkpt lat="59.10844087600708" lon="30.483884811401367">
        <time>2026-08-20T09:07:22Z</time>
      </trkpt>
      <trkpt lat="59.10844087600708" lon="30.483884811401367">
        <time>2026-08-20T09:07:24Z</time>
      </trkpt>
      <trkpt lat="59.10844087600708" lon="30.483884811401367">
        <time>2026-08-20T09:07:27Z</time>
      </trkpt>
      <trkpt lat="59.10844087600708" lon="30.483884811401367">
        <time>2026-08-20T09:07:29Z</time>
      </trkpt>
      <trkpt lat="59.10844087600708" lon="30.483884811401367">
        <time>2026-08-20T09:07:32Z</time>
      </trkpt>
      <trkpt lat="59.10844087600708" lon="30.483884811401367">
        <time>2026-08-20T09:07:34Z</time>
      </trkpt>
      <trkpt lat="59.10844087600708" lon="30.483884811401367">
        <time>2026-08-20T09:07:37Z</time>
      </trkpt>
      <trkpt lat="59.10844087600708" lon="30.483906269073486">
        <time>2026-08-20T09:07:39Z</time>
      </trkpt>
      <trkpt lat="59.10844087600708" lon="30.483906269073486">
        <time>2026-08-20T09:07:42Z</time>
      </trkpt>
      <trkpt lat="59.10844087600708" lon="30.483906269073486">
        <time>2026-08-20T09:07:44Z</time>
      </trkpt>
      <trkpt lat="59.10844087600708" lon="30.483906269073486">
        <time>2026-08-20T09:07:47Z</time>
      </trkpt>
      <trkpt lat="59.10844087600708" lon="30.483927726745605">
        <time>2026-08-20T09:07:49Z</time>
      </trkpt>
      <trkpt lat="59.10844087600708" lon="30.483949184417725">
        <time>2026-08-20T09:07:52Z</time>
      </trkpt>
      <trkpt lat="59.10844087600708" lon="30.483949184417725">
        <time>2026-08-20T09:07:54Z</time>
      </trkpt>
      <trkpt lat="59.10844087600708" lon="30.483949184417725">
        <time>2026-08-20T09:07:57Z</time>
      </trkpt>
      <trkpt lat="59.10844087600708" lon="30.483949184417725">
        <time>2026-08-20T09:07:59Z</time>
      </trkpt>
      <trkpt lat="59.10844087600708" lon="30.483949184417725">
        <time>2026-08-20T09:08:02Z</time>
      </trkpt>
      <trkpt lat="59.10844087600708" lon="30.483949184417725">
        <time>2026-08-20T09:08:04Z</time>
      </trkpt>
      <trkpt lat="59.10844087600708" lon="30.483970642089844">
        <time>2026-08-20T09:08:07Z</time>
      </trkpt>
      <trkpt lat="59.108419418334961" lon="30.484013557434082">
        <time>2026-08-20T09:08:09Z</time>
      </trkpt>
      <trkpt lat="59.108419418334961" lon="30.484035015106201">
        <time>2026-08-20T09:08:12Z</time>
      </trkpt>
      <trkpt lat="59.108419418334961" lon="30.484035015106201">
        <time>2026-08-20T09:08:14Z</time>
      </trkpt>
      <trkpt lat="59.108419418334961" lon="30.48405647277832">
        <time>2026-08-20T09:08:17Z</time>
      </trkpt>
      <trkpt lat="59.10844087600708" lon="30.484077930450439">
        <time>2026-08-20T09:08:19Z</time>
      </trkpt>
      <trkpt lat="59.10844087600708" lon="30.484120845794678">
        <time>2026-08-20T09:08:22Z</time>
      </trkpt>
      <trkpt lat="59.10844087600708" lon="30.484120845794678">
        <time>2026-08-20T09:08:24Z</time>
      </trkpt>
      <trkpt lat="59.10844087600708" lon="30.484120845794678">
        <time>2026-08-20T09:08:27Z</time>
      </trkpt>
      <trkpt lat="59.10844087600708" lon="30.484120845794678">
        <time>2026-08-20T09:08:29Z</time>
      </trkpt>
      <trkpt lat="59.10844087600708" lon="30.484163761138916">
        <time>2026-08-20T09:08:32Z</time>
      </trkpt>
      <trkpt lat="59.10844087600708" lon="30.484163761138916">
        <time>2026-08-20T09:08:34Z</time>
      </trkpt>
      <trkpt lat="59.10844087600708" lon="30.484163761138916">
        <time>2026-08-20T09:08:37Z</time>
      </trkpt>
      <trkpt lat="59.10844087600708" lon="30.484163761138916">
        <time>2026-08-20T09:08:39Z</time>
      </trkpt>
      <trkpt lat="59.10844087600708" lon="30.484206676483154">
        <time>2026-08-20T09:08:42Z</time>
      </trkpt>
      <trkpt lat="59.108419418334961" lon="30.484228134155273">
        <time>2026-08-20T09:08:44Z</time>
      </trkpt>
      <trkpt lat="59.108419418334961" lon="30.484271049499512">
        <time>2026-08-20T09:08:47Z</time>
      </trkpt>
      <trkpt lat="59.108419418334961" lon="30.48431396484375">
        <time>2026-08-20T09:08:49Z</time>
      </trkpt>
      <trkpt lat="59.108419418334961" lon="30.48431396484375">
        <time>2026-08-20T09:08:52Z</time>
      </trkpt>
      <trkpt lat="59.108419418334961" lon="30.484335422515869">
        <time>2026-08-20T09:08:54Z</time>
      </trkpt>
      <trkpt lat="59.108419418334961" lon="30.484356880187988">
        <time>2026-08-20T09:08:57Z</time>
      </trkpt>
      <trkpt lat="59.108397960662842" lon="30.484399795532227">
        <time>2026-08-20T09:08:59Z</time>
      </trkpt>
      <trkpt lat="59.108376502990723" lon="30.484442710876465">
        <time>2026-08-20T09:09:02Z</time>
      </trkpt>
      <trkpt lat="59.108355045318604" lon="30.484549999237061">
        <time>2026-08-20T09:09:04Z</time>
      </trkpt>
      <trkpt lat="59.108333587646484" lon="30.48457145690918">
        <time>2026-08-20T09:09:07Z</time>
      </trkpt>
      <trkpt lat="59.108312129974365" lon="30.484657287597656">
        <time>2026-08-20T09:09:09Z</time>
      </trkpt>
      <trkpt lat="59.108312129974365" lon="30.484657287597656">
        <time>2026-08-20T09:09:12Z</time>
      </trkpt>
      <trkpt lat="59.108333587646484" lon="30.484721660614014">
        <time>2026-08-20T09:09:14Z</time>
      </trkpt>
      <trkpt lat="59.108333587646484" lon="30.484786033630371">
        <time>2026-08-20T09:09:17Z</time>
      </trkpt>
      <trkpt lat="59.108333587646484" lon="30.484828948974609">
        <time>2026-08-20T09:09:19Z</time>
      </trkpt>
      <trkpt lat="59.108333587646484" lon="30.484828948974609">
        <time>2026-08-20T09:09:22Z</time>
      </trkpt>
      <trkpt lat="59.108333587646484" lon="30.484914779663086">
        <time>2026-08-20T09:09:24Z</time>
      </trkpt>
      <trkpt lat="59.108333587646484" lon="30.484979152679443">
        <time>2026-08-20T09:09:27Z</time>
      </trkpt>
      <trkpt lat="59.108355045318604" lon="30.485000610351563">
        <time>2026-08-20T09:09:29Z</time>
      </trkpt>
      <trkpt lat="59.108355045318604" lon="30.485000610351563">
        <time>2026-08-20T09:09:32Z</time>
      </trkpt>
      <trkpt lat="59.108355045318604" lon="30.485086441040039">
        <time>2026-08-20T09:09:34Z</time>
      </trkpt>
      <trkpt lat="59.108355045318604" lon="30.485107898712158">
        <time>2026-08-20T09:09:37Z</time>
      </trkpt>
      <trkpt lat="59.108355045318604" lon="30.485107898712158">
        <time>2026-08-20T09:09:39Z</time>
      </trkpt>
      <trkpt lat="59.108355045318604" lon="30.485107898712158">
        <time>2026-08-20T09:09:42Z</time>
      </trkpt>
      <trkpt lat="59.108355045318604" lon="30.485107898712158">
        <time>2026-08-20T09:09:44Z</time>
      </trkpt>
      <trkpt lat="59.108355045318604" lon="30.485172271728516">
        <time>2026-08-20T09:09:47Z</time>
      </trkpt>
      <trkpt lat="59.108355045318604" lon="30.485258102416992">
        <time>2026-08-20T09:09:49Z</time>
      </trkpt>
      <trkpt lat="59.108355045318604" lon="30.485258102416992">
        <time>2026-08-20T09:09:52Z</time>
      </trkpt>
      <trkpt lat="59.108355045318604" lon="30.485386848449707">
        <time>2026-08-20T09:09:57Z</time>
      </trkpt>
      <trkpt lat="59.108376502990723" lon="30.485429763793945">
        <time>2026-08-20T09:09:59Z</time>
      </trkpt>
      <trkpt lat="59.108376502990723" lon="30.485429763793945">
        <time>2026-08-20T09:10:02Z</time>
      </trkpt>
      <trkpt lat="59.108376502990723" lon="30.485472679138184">
        <time>2026-08-20T09:10:04Z</time>
      </trkpt>
      <trkpt lat="59.108397960662842" lon="30.485515594482422">
        <time>2026-08-20T09:10:07Z</time>
      </trkpt>
      <trkpt lat="59.108419418334961" lon="30.485601425170898">
        <time>2026-08-20T09:10:09Z</time>
      </trkpt>
      <trkpt lat="59.108419418334961" lon="30.485601425170898">
        <time>2026-08-20T09:10:12Z</time>
      </trkpt>
      <trkpt lat="59.108419418334961" lon="30.485665798187256">
        <time>2026-08-20T09:10:14Z</time>
      </trkpt>
      <trkpt lat="59.10844087600708" lon="30.485708713531494">
        <time>2026-08-20T09:10:17Z</time>
      </trkpt>
      <trkpt lat="59.10844087600708" lon="30.485751628875732">
        <time>2026-08-20T09:10:19Z</time>
      </trkpt>
      <trkpt lat="59.10844087600708" lon="30.485794544219971">
        <time>2026-08-20T09:10:22Z</time>
      </trkpt>
      <trkpt lat="59.10844087600708" lon="30.485794544219971">
        <time>2026-08-20T09:10:24Z</time>
      </trkpt>
      <trkpt lat="59.10844087600708" lon="30.485794544219971">
        <time>2026-08-20T09:10:27Z</time>
      </trkpt>
      <trkpt lat="59.10844087600708" lon="30.48581600189209">
        <time>2026-08-20T09:10:29Z</time>
      </trkpt>
      <trkpt lat="59.10844087600708" lon="30.485880374908447">
        <time>2026-08-20T09:10:32Z</time>
      </trkpt>
      <trkpt lat="59.10844087600708" lon="30.485901832580566">
        <time>2026-08-20T09:10:34Z</time>
      </trkpt>
      <trkpt lat="59.10844087600708" lon="30.485944747924805">
        <time>2026-08-20T09:10:37Z</time>
      </trkpt>
      <trkpt lat="59.108462333679199" lon="30.485987663269043">
        <time>2026-08-20T09:10:39Z</time>
      </trkpt>
      <trkpt lat="59.108462333679199" lon="30.486009120941162">
        <time>2026-08-20T09:10:42Z</time>
      </trkpt>
      <trkpt lat="59.108483791351318" lon="30.486030578613281">
        <time>2026-08-20T09:10:44Z</time>
      </trkpt>
      <trkpt lat="59.108483791351318" lon="30.4860520362854">
        <time>2026-08-20T09:10:47Z</time>
      </trkpt>
      <trkpt lat="59.108483791351318" lon="30.4860520362854">
        <time>2026-08-20T09:10:49Z</time>
      </trkpt>
      <trkpt lat="59.108483791351318" lon="30.4860520362854">
        <time>2026-08-20T09:10:52Z</time>
      </trkpt>
      <trkpt lat="59.108483791351318" lon="30.4860520362854">
        <time>2026-08-20T09:10:54Z</time>
      </trkpt>
      <trkpt lat="59.108483791351318" lon="30.4860520362854">
        <time>2026-08-20T09:10:57Z</time>
      </trkpt>
      <trkpt lat="59.108483791351318" lon="30.48607349395752">
        <time>2026-08-20T09:10:59Z</time>
      </trkpt>
      <trkpt lat="59.108483791351318" lon="30.48607349395752">
        <time>2026-08-20T09:11:02Z</time>
      </trkpt>
      <trkpt lat="59.108483791351318" lon="30.48607349395752">
        <time>2026-08-20T09:11:04Z</time>
      </trkpt>
      <trkpt lat="59.108483791351318" lon="30.486094951629639">
        <time>2026-08-20T09:11:07Z</time>
      </trkpt>
      <trkpt lat="59.108483791351318" lon="30.486116409301758">
        <time>2026-08-20T09:11:09Z</time>
      </trkpt>
      <trkpt lat="59.108505249023438" lon="30.486180782318115">
        <time>2026-08-20T09:11:12Z</time>
      </trkpt>
      <trkpt lat="59.108505249023438" lon="30.486245155334473">
        <time>2026-08-20T09:11:14Z</time>
      </trkpt>
      <trkpt lat="59.108505249023438" lon="30.486245155334473">
        <time>2026-08-20T09:11:17Z</time>
      </trkpt>
      <trkpt lat="59.108505249023438" lon="30.486266613006592">
        <time>2026-08-20T09:11:19Z</time>
      </trkpt>
      <trkpt lat="59.108505249023438" lon="30.486288070678711">
        <time>2026-08-20T09:11:22Z</time>
      </trkpt>
      <trkpt lat="59.108526706695557" lon="30.486330986022949">
        <time>2026-08-20T09:11:24Z</time>
      </trkpt>
      <trkpt lat="59.108505249023438" lon="30.486352443695068">
        <time>2026-08-20T09:11:27Z</time>
      </trkpt>
      <trkpt lat="59.108526706695557" lon="30.486395359039307">
        <time>2026-08-20T09:11:29Z</time>
      </trkpt>
      <trkpt lat="59.108526706695557" lon="30.486481189727783">
        <time>2026-08-20T09:11:32Z</time>
      </trkpt>
      <trkpt lat="59.108526706695557" lon="30.486502647399902">
        <time>2026-08-20T09:11:34Z</time>
      </trkpt>
      <trkpt lat="59.108526706695557" lon="30.486524105072021">
        <time>2026-08-20T09:11:37Z</time>
      </trkpt>
      <trkpt lat="59.108526706695557" lon="30.486545562744141">
        <time>2026-08-20T09:11:39Z</time>
      </trkpt>
      <trkpt lat="59.108526706695557" lon="30.48656702041626">
        <time>2026-08-20T09:11:42Z</time>
      </trkpt>
      <trkpt lat="59.108526706695557" lon="30.486631393432617">
        <time>2026-08-20T09:11:44Z</time>
      </trkpt>
      <trkpt lat="59.108526706695557" lon="30.486674308776855">
        <time>2026-08-20T09:11:47Z</time>
      </trkpt>
      <trkpt lat="59.108526706695557" lon="30.486674308776855">
        <time>2026-08-20T09:11:49Z</time>
      </trkpt>
      <trkpt lat="59.108548164367676" lon="30.486717224121094">
        <time>2026-08-20T09:11:52Z</time>
      </trkpt>
      <trkpt lat="59.108569622039795" lon="30.486824512481689">
        <time>2026-08-20T09:11:54Z</time>
      </trkpt>
      <trkpt lat="59.108569622039795" lon="30.486845970153809">
        <time>2026-08-20T09:11:57Z</time>
      </trkpt>
      <trkpt lat="59.108569622039795" lon="30.486845970153809">
        <time>2026-08-20T09:11:59Z</time>
      </trkpt>
      <trkpt lat="59.108569622039795" lon="30.486845970153809">
        <time>2026-08-20T09:12:02Z</time>
      </trkpt>
      <trkpt lat="59.108569622039795" lon="30.486845970153809">
        <time>2026-08-20T09:12:04Z</time>
      </trkpt>
      <trkpt lat="59.108569622039795" lon="30.486845970153809">
        <time>2026-08-20T09:12:07Z</time>
      </trkpt>
      <trkpt lat="59.108569622039795" lon="30.486845970153809">
        <time>2026-08-20T09:12:09Z</time>
      </trkpt>
      <trkpt lat="59.108569622039795" lon="30.486845970153809">
        <time>2026-08-20T09:12:12Z</time>
      </trkpt>
      <trkpt lat="59.108569622039795" lon="30.486845970153809">
        <time>2026-08-20T09:12:14Z</time>
      </trkpt>
      <trkpt lat="59.108569622039795" lon="30.486845970153809">
        <time>2026-08-20T09:12:17Z</time>
      </trkpt>
      <trkpt lat="59.108569622039795" lon="30.486845970153809">
        <time>2026-08-20T09:12:19Z</time>
      </trkpt>
      <trkpt lat="59.108569622039795" lon="30.486845970153809">
        <time>2026-08-20T09:12:22Z</time>
      </trkpt>
      <trkpt lat="59.108569622039795" lon="30.486845970153809">
        <time>2026-08-20T09:12:24Z</time>
      </trkpt>
      <trkpt lat="59.108569622039795" lon="30.486845970153809">
        <time>2026-08-20T09:12:27Z</time>
      </trkpt>
      <trkpt lat="59.108569622039795" lon="30.486845970153809">
        <time>2026-08-20T09:12:29Z</time>
      </trkpt>
      <trkpt lat="59.108569622039795" lon="30.486845970153809">
        <time>2026-08-20T09:12:32Z</time>
      </trkpt>
      <trkpt lat="59.108569622039795" lon="30.486845970153809">
        <time>2026-08-20T09:12:34Z</time>
      </trkpt>
      <trkpt lat="59.108569622039795" lon="30.486845970153809">
        <time>2026-08-20T09:12:37Z</time>
      </trkpt>
      <trkpt lat="59.108569622039795" lon="30.486845970153809">
        <time>2026-08-20T09:12:39Z</time>
      </trkpt>
      <trkpt lat="59.108569622039795" lon="30.486845970153809">
        <time>2026-08-20T09:12:42Z</time>
      </trkpt>
      <trkpt lat="59.108569622039795" lon="30.486845970153809">
        <time>2026-08-20T09:12:44Z</time>
      </trkpt>
      <trkpt lat="59.108569622039795" lon="30.486845970153809">
        <time>2026-08-20T09:12:47Z</time>
      </trkpt>
      <trkpt lat="59.108569622039795" lon="30.486845970153809">
        <time>2026-08-20T09:12:49Z</time>
      </trkpt>
      <trkpt lat="59.108569622039795" lon="30.486845970153809">
        <time>2026-08-20T09:12:52Z</time>
      </trkpt>
      <trkpt lat="59.108569622039795" lon="30.486845970153809">
        <time>2026-08-20T09:12:54Z</time>
      </trkpt>
      <trkpt lat="59.108569622039795" lon="30.486845970153809">
        <time>2026-08-20T09:12:57Z</time>
      </trkpt>
      <trkpt lat="59.108569622039795" lon="30.486867427825928">
        <time>2026-08-20T09:12:59Z</time>
      </trkpt>
      <trkpt lat="59.108591079711914" lon="30.486910343170166">
        <time>2026-08-20T09:13:02Z</time>
      </trkpt>
      <trkpt lat="59.108612537384033" lon="30.486996173858643">
        <time>2026-08-20T09:13:04Z</time>
      </trkpt>
      <trkpt lat="59.108612537384033" lon="30.487060546875">
        <time>2026-08-20T09:13:07Z</time>
      </trkpt>
      <trkpt lat="59.108612537384033" lon="30.487082004547119">
        <time>2026-08-20T09:13:09Z</time>
      </trkpt>
      <trkpt lat="59.108612537384033" lon="30.487082004547119">
        <time>2026-08-20T09:13:12Z</time>
      </trkpt>
      <trkpt lat="59.108612537384033" lon="30.487124919891357">
        <time>2026-08-20T09:13:14Z</time>
      </trkpt>
      <trkpt lat="59.108612537384033" lon="30.487189292907715">
        <time>2026-08-20T09:13:17Z</time>
      </trkpt>
      <trkpt lat="59.108633995056152" lon="30.487275123596191">
        <time>2026-08-20T09:13:19Z</time>
      </trkpt>
      <trkpt lat="59.108633995056152" lon="30.48731803894043">
        <time>2026-08-20T09:13:22Z</time>
      </trkpt>
      <trkpt lat="59.108633995056152" lon="30.48731803894043">
        <time>2026-08-20T09:13:24Z</time>
      </trkpt>
      <trkpt lat="59.108633995056152" lon="30.487339496612549">
        <time>2026-08-20T09:13:27Z</time>
      </trkpt>
      <trkpt lat="59.108655452728271" lon="30.487425327301025">
        <time>2026-08-20T09:13:29Z</time>
      </trkpt>
      <trkpt lat="59.108633995056152" lon="30.487425327301025">
        <time>2026-08-20T09:13:32Z</time>
      </trkpt>
      <trkpt lat="59.108591079711914" lon="30.487468242645264">
        <time>2026-08-20T09:13:34Z</time>
      </trkpt>
      <trkpt lat="59.108591079711914" lon="30.487489700317383">
        <time>2026-08-20T09:13:37Z</time>
      </trkpt>
      <trkpt lat="59.108569622039795" lon="30.487511157989502">
        <time>2026-08-20T09:13:39Z</time>
      </trkpt>
      <trkpt lat="59.108569622039795" lon="30.487511157989502">
        <time>2026-08-20T09:13:42Z</time>
      </trkpt>
      <trkpt lat="59.108569622039795" lon="30.487511157989502">
        <time>2026-08-20T09:13:44Z</time>
      </trkpt>
      <trkpt lat="59.108569622039795" lon="30.487511157989502">
        <time>2026-08-20T09:13:47Z</time>
      </trkpt>
      <trkpt lat="59.108569622039795" lon="30.487532615661621">
        <time>2026-08-20T09:13:49Z</time>
      </trkpt>
      <trkpt lat="59.108569622039795" lon="30.487532615661621">
        <time>2026-08-20T09:13:52Z</time>
      </trkpt>
      <trkpt lat="59.108569622039795" lon="30.487532615661621">
        <time>2026-08-20T09:13:54Z</time>
      </trkpt>
      <trkpt lat="59.108548164367676" lon="30.487575531005859">
        <time>2026-08-20T09:13:57Z</time>
      </trkpt>
      <trkpt lat="59.108526706695557" lon="30.487747192382813">
        <time>2026-08-20T09:13:59Z</time>
      </trkpt>
      <trkpt lat="59.108483791351318" lon="30.48781156539917">
        <time>2026-08-20T09:14:02Z</time>
      </trkpt>
      <trkpt lat="59.108462333679199" lon="30.487875938415527">
        <time>2026-08-20T09:14:04Z</time>
      </trkpt>
      <trkpt lat="59.108462333679199" lon="30.487875938415527">
        <time>2026-08-20T09:14:07Z</time>
      </trkpt>
      <trkpt lat="59.108462333679199" lon="30.487875938415527">
        <time>2026-08-20T09:14:09Z</time>
      </trkpt>
      <trkpt lat="59.108462333679199" lon="30.487875938415527">
        <time>2026-08-20T09:14:12Z</time>
      </trkpt>
      <trkpt lat="59.10844087600708" lon="30.487940311431885">
        <time>2026-08-20T09:14:14Z</time>
      </trkpt>
      <trkpt lat="59.108419418334961" lon="30.488004684448242">
        <time>2026-08-20T09:14:17Z</time>
      </trkpt>
      <trkpt lat="59.108397960662842" lon="30.488090515136719">
        <time>2026-08-20T09:14:19Z</time>
      </trkpt>
      <trkpt lat="59.108376502990723" lon="30.488133430480957">
        <time>2026-08-20T09:14:22Z</time>
      </trkpt>
      <trkpt lat="59.108376502990723" lon="30.488197803497314">
        <time>2026-08-20T09:14:24Z</time>
      </trkpt>
      <trkpt lat="59.108376502990723" lon="30.488262176513672">
        <time>2026-08-20T09:14:27Z</time>
      </trkpt>
      <trkpt lat="59.108355045318604" lon="30.488348007202148">
        <time>2026-08-20T09:14:29Z</time>
      </trkpt>
      <trkpt lat="59.108355045318604" lon="30.488369464874268">
        <time>2026-08-20T09:14:32Z</time>
      </trkpt>
      <trkpt lat="59.108355045318604" lon="30.488412380218506">
        <time>2026-08-20T09:14:34Z</time>
      </trkpt>
      <trkpt lat="59.108355045318604" lon="30.488455295562744">
        <time>2026-08-20T09:14:37Z</time>
      </trkpt>
      <trkpt lat="59.108376502990723" lon="30.488455295562744">
        <time>2026-08-20T09:14:39Z</time>
      </trkpt>
      <trkpt lat="59.108376502990723" lon="30.488498210906982">
        <time>2026-08-20T09:14:42Z</time>
      </trkpt>
      <trkpt lat="59.108376502990723" lon="30.488541126251221">
        <time>2026-08-20T09:14:44Z</time>
      </trkpt>
      <trkpt lat="59.108376502990723" lon="30.48856258392334">
        <time>2026-08-20T09:14:47Z</time>
      </trkpt>
      <trkpt lat="59.108376502990723" lon="30.48856258392334">
        <time>2026-08-20T09:14:49Z</time>
      </trkpt>
      <trkpt lat="59.108376502990723" lon="30.488584041595459">
        <time>2026-08-20T09:14:52Z</time>
      </trkpt>
      <trkpt lat="59.108376502990723" lon="30.488605499267578">
        <time>2026-08-20T09:14:54Z</time>
      </trkpt>
      <trkpt lat="59.108376502990723" lon="30.488605499267578">
        <time>2026-08-20T09:14:57Z</time>
      </trkpt>
      <trkpt lat="59.108376502990723" lon="30.488605499267578">
        <time>2026-08-20T09:14:59Z</time>
      </trkpt>
      <trkpt lat="59.108376502990723" lon="30.488605499267578">
        <time>2026-08-20T09:15:02Z</time>
      </trkpt>
      <trkpt lat="59.108376502990723" lon="30.488605499267578">
        <time>2026-08-20T09:15:04Z</time>
      </trkpt>
      <trkpt lat="59.108376502990723" lon="30.488605499267578">
        <time>2026-08-20T09:15:07Z</time>
      </trkpt>
      <trkpt lat="59.108376502990723" lon="30.488605499267578">
        <time>2026-08-20T09:15:09Z</time>
      </trkpt>
      <trkpt lat="59.108376502990723" lon="30.488605499267578">
        <time>2026-08-20T09:15:12Z</time>
      </trkpt>
      <trkpt lat="59.108376502990723" lon="30.488605499267578">
        <time>2026-08-20T09:15:14Z</time>
      </trkpt>
      <trkpt lat="59.108376502990723" lon="30.488626956939697">
        <time>2026-08-20T09:15:17Z</time>
      </trkpt>
      <trkpt lat="59.108376502990723" lon="30.488626956939697">
        <time>2026-08-20T09:15:19Z</time>
      </trkpt>
      <trkpt lat="59.108376502990723" lon="30.488626956939697">
        <time>2026-08-20T09:15:22Z</time>
      </trkpt>
      <trkpt lat="59.108376502990723" lon="30.488626956939697">
        <time>2026-08-20T09:15:24Z</time>
      </trkpt>
      <trkpt lat="59.108376502990723" lon="30.488626956939697">
        <time>2026-08-20T09:15:27Z</time>
      </trkpt>
      <trkpt lat="59.108376502990723" lon="30.488626956939697">
        <time>2026-08-20T09:15:29Z</time>
      </trkpt>
      <trkpt lat="59.108376502990723" lon="30.488691329956055">
        <time>2026-08-20T09:15:32Z</time>
      </trkpt>
      <trkpt lat="59.108376502990723" lon="30.488734245300293">
        <time>2026-08-20T09:15:34Z</time>
      </trkpt>
      <trkpt lat="59.108376502990723" lon="30.488734245300293">
        <time>2026-08-20T09:15:37Z</time>
      </trkpt>
      <trkpt lat="59.108376502990723" lon="30.488755702972412">
        <time>2026-08-20T09:15:39Z</time>
      </trkpt>
      <trkpt lat="59.108376502990723" lon="30.488755702972412">
        <time>2026-08-20T09:15:42Z</time>
      </trkpt>
      <trkpt lat="59.108355045318604" lon="30.48882007598877">
        <time>2026-08-20T09:15:44Z</time>
      </trkpt>
      <trkpt lat="59.108355045318604" lon="30.48882007598877">
        <time>2026-08-20T09:15:47Z</time>
      </trkpt>
      <trkpt lat="59.108355045318604" lon="30.48882007598877">
        <time>2026-08-20T09:15:49Z</time>
      </trkpt>
      <trkpt lat="59.108355045318604" lon="30.48882007598877">
        <time>2026-08-20T09:15:52Z</time>
      </trkpt>
      <trkpt lat="59.108355045318604" lon="30.48882007598877">
        <time>2026-08-20T09:15:54Z</time>
      </trkpt>
      <trkpt lat="59.108355045318604" lon="30.48882007598877">
        <time>2026-08-20T09:15:57Z</time>
      </trkpt>
      <trkpt lat="59.108355045318604" lon="30.488862991333008">
        <time>2026-08-20T09:15:59Z</time>
      </trkpt>
      <trkpt lat="59.108355045318604" lon="30.488905906677246">
        <time>2026-08-20T09:16:02Z</time>
      </trkpt>
      <trkpt lat="59.108376502990723" lon="30.488991737365723">
        <time>2026-08-20T09:16:04Z</time>
      </trkpt>
      <trkpt lat="59.108376502990723" lon="30.489034652709961">
        <time>2026-08-20T09:16:07Z</time>
      </trkpt>
      <trkpt lat="59.108376502990723" lon="30.489077568054199">
        <time>2026-08-20T09:16:09Z</time>
      </trkpt>
      <trkpt lat="59.108397960662842" lon="30.489077568054199">
        <time>2026-08-20T09:16:12Z</time>
      </trkpt>
      <trkpt lat="59.108397960662842" lon="30.489099025726318">
        <time>2026-08-20T09:16:14Z</time>
      </trkpt>
      <trkpt lat="59.108397960662842" lon="30.489099025726318">
        <time>2026-08-20T09:16:17Z</time>
      </trkpt>
      <trkpt lat="59.108397960662842" lon="30.489120483398437">
        <time>2026-08-20T09:16:19Z</time>
      </trkpt>
      <trkpt lat="59.108397960662842" lon="30.489141941070557">
        <time>2026-08-20T09:16:22Z</time>
      </trkpt>
      <trkpt lat="59.108397960662842" lon="30.489141941070557">
        <time>2026-08-20T09:16:24Z</time>
      </trkpt>
      <trkpt lat="59.108376502990723" lon="30.489163398742676">
        <time>2026-08-20T09:16:27Z</time>
      </trkpt>
      <trkpt lat="59.108376502990723" lon="30.489249229431152">
        <time>2026-08-20T09:16:29Z</time>
      </trkpt>
      <trkpt lat="59.108376502990723" lon="30.489292144775391">
        <time>2026-08-20T09:16:32Z</time>
      </trkpt>
      <trkpt lat="59.108376502990723" lon="30.489292144775391">
        <time>2026-08-20T09:16:34Z</time>
      </trkpt>
      <trkpt lat="59.108376502990723" lon="30.489292144775391">
        <time>2026-08-20T09:16:37Z</time>
      </trkpt>
      <trkpt lat="59.108376502990723" lon="30.489335060119629">
        <time>2026-08-20T09:16:39Z</time>
      </trkpt>
      <trkpt lat="59.108376502990723" lon="30.489356517791748">
        <time>2026-08-20T09:16:42Z</time>
      </trkpt>
      <trkpt lat="59.108376502990723" lon="30.489399433135986">
        <time>2026-08-20T09:16:44Z</time>
      </trkpt>
      <trkpt lat="59.108397960662842" lon="30.489420890808105">
        <time>2026-08-20T09:16:47Z</time>
      </trkpt>
      <trkpt lat="59.108397960662842" lon="30.489420890808105">
        <time>2026-08-20T09:16:49Z</time>
      </trkpt>
      <trkpt lat="59.108376502990723" lon="30.489485263824463">
        <time>2026-08-20T09:16:52Z</time>
      </trkpt>
      <trkpt lat="59.108376502990723" lon="30.489485263824463">
        <time>2026-08-20T09:16:54Z</time>
      </trkpt>
      <trkpt lat="59.108376502990723" lon="30.489485263824463">
        <time>2026-08-20T09:16:57Z</time>
      </trkpt>
      <trkpt lat="59.108376502990723" lon="30.489485263824463">
        <time>2026-08-20T09:16:59Z</time>
      </trkpt>
      <trkpt lat="59.108376502990723" lon="30.489485263824463">
        <time>2026-08-20T09:17:02Z</time>
      </trkpt>
      <trkpt lat="59.108376502990723" lon="30.489485263824463">
        <time>2026-08-20T09:17:04Z</time>
      </trkpt>
      <trkpt lat="59.108376502990723" lon="30.489485263824463">
        <time>2026-08-20T09:17:07Z</time>
      </trkpt>
      <trkpt lat="59.108376502990723" lon="30.489485263824463">
        <time>2026-08-20T09:17:09Z</time>
      </trkpt>
      <trkpt lat="59.108376502990723" lon="30.489485263824463">
        <time>2026-08-20T09:17:12Z</time>
      </trkpt>
      <trkpt lat="59.108376502990723" lon="30.489485263824463">
        <time>2026-08-20T09:17:14Z</time>
      </trkpt>
      <trkpt lat="59.108376502990723" lon="30.489485263824463">
        <time>2026-08-20T09:17:17Z</time>
      </trkpt>
      <trkpt lat="59.108397960662842" lon="30.48954963684082">
        <time>2026-08-20T09:17:19Z</time>
      </trkpt>
      <trkpt lat="59.10844087600708" lon="30.489614009857178">
        <time>2026-08-20T09:17:22Z</time>
      </trkpt>
      <trkpt lat="59.108462333679199" lon="30.489635467529297">
        <time>2026-08-20T09:17:24Z</time>
      </trkpt>
      <trkpt lat="59.108462333679199" lon="30.489635467529297">
        <time>2026-08-20T09:17:27Z</time>
      </trkpt>
      <trkpt lat="59.108462333679199" lon="30.489635467529297">
        <time>2026-08-20T09:17:29Z</time>
      </trkpt>
      <trkpt lat="59.108462333679199" lon="30.489635467529297">
        <time>2026-08-20T09:17:32Z</time>
      </trkpt>
      <trkpt lat="59.108462333679199" lon="30.489635467529297">
        <time>2026-08-20T09:17:34Z</time>
      </trkpt>
      <trkpt lat="59.108483791351318" lon="30.489656925201416">
        <time>2026-08-20T09:17:37Z</time>
      </trkpt>
      <trkpt lat="59.108483791351318" lon="30.489699840545654">
        <time>2026-08-20T09:17:39Z</time>
      </trkpt>
      <trkpt lat="59.108505249023438" lon="30.489721298217773">
        <time>2026-08-20T09:17:42Z</time>
      </trkpt>
      <trkpt lat="59.108526706695557" lon="30.489721298217773">
        <time>2026-08-20T09:17:44Z</time>
      </trkpt>
      <trkpt lat="59.108548164367676" lon="30.489742755889893">
        <time>2026-08-20T09:17:47Z</time>
      </trkpt>
      <trkpt lat="59.108548164367676" lon="30.489764213562012">
        <time>2026-08-20T09:17:49Z</time>
      </trkpt>
      <trkpt lat="59.108548164367676" lon="30.489764213562012">
        <time>2026-08-20T09:17:52Z</time>
      </trkpt>
      <trkpt lat="59.108548164367676" lon="30.489785671234131">
        <time>2026-08-20T09:17:54Z</time>
      </trkpt>
      <trkpt lat="59.108569622039795" lon="30.489828586578369">
        <time>2026-08-20T09:17:57Z</time>
      </trkpt>
      <trkpt lat="59.108569622039795" lon="30.489892959594727">
        <time>2026-08-20T09:17:59Z</time>
      </trkpt>
      <trkpt lat="59.108569622039795" lon="30.489935874938965">
        <time>2026-08-20T09:18:02Z</time>
      </trkpt>
      <trkpt lat="59.108591079711914" lon="30.489978790283203">
        <time>2026-08-20T09:18:04Z</time>
      </trkpt>
      <trkpt lat="59.108591079711914" lon="30.490000247955322">
        <time>2026-08-20T09:18:07Z</time>
      </trkpt>
      <trkpt lat="59.108591079711914" lon="30.490000247955322">
        <time>2026-08-20T09:18:09Z</time>
      </trkpt>
      <trkpt lat="59.108591079711914" lon="30.490000247955322">
        <time>2026-08-20T09:18:12Z</time>
      </trkpt>
      <trkpt lat="59.108591079711914" lon="30.490021705627441">
        <time>2026-08-20T09:18:14Z</time>
      </trkpt>
      <trkpt lat="59.108591079711914" lon="30.490021705627441">
        <time>2026-08-20T09:18:17Z</time>
      </trkpt>
      <trkpt lat="59.108591079711914" lon="30.490021705627441">
        <time>2026-08-20T09:18:19Z</time>
      </trkpt>
      <trkpt lat="59.108591079711914" lon="30.490021705627441">
        <time>2026-08-20T09:18:22Z</time>
      </trkpt>
      <trkpt lat="59.108591079711914" lon="30.490021705627441">
        <time>2026-08-20T09:18:24Z</time>
      </trkpt>
      <trkpt lat="59.108591079711914" lon="30.490021705627441">
        <time>2026-08-20T09:18:27Z</time>
      </trkpt>
      <trkpt lat="59.108591079711914" lon="30.490021705627441">
        <time>2026-08-20T09:18:29Z</time>
      </trkpt>
      <trkpt lat="59.108591079711914" lon="30.490021705627441">
        <time>2026-08-20T09:18:32Z</time>
      </trkpt>
      <trkpt lat="59.108591079711914" lon="30.490021705627441">
        <time>2026-08-20T09:18:34Z</time>
      </trkpt>
      <trkpt lat="59.108591079711914" lon="30.490021705627441">
        <time>2026-08-20T09:18:37Z</time>
      </trkpt>
      <trkpt lat="59.108591079711914" lon="30.490021705627441">
        <time>2026-08-20T09:18:39Z</time>
      </trkpt>
      <trkpt lat="59.108591079711914" lon="30.490021705627441">
        <time>2026-08-20T09:18:42Z</time>
      </trkpt>
      <trkpt lat="59.108591079711914" lon="30.490021705627441">
        <time>2026-08-20T09:18:44Z</time>
      </trkpt>
      <trkpt lat="59.108591079711914" lon="30.490021705627441">
        <time>2026-08-20T09:18:47Z</time>
      </trkpt>
      <trkpt lat="59.108591079711914" lon="30.490021705627441">
        <time>2026-08-20T09:18:49Z</time>
      </trkpt>
      <trkpt lat="59.108591079711914" lon="30.490021705627441">
        <time>2026-08-20T09:18:52Z</time>
      </trkpt>
      <trkpt lat="59.108591079711914" lon="30.490021705627441">
        <time>2026-08-20T09:18:54Z</time>
      </trkpt>
      <trkpt lat="59.108591079711914" lon="30.490021705627441">
        <time>2026-08-20T09:18:57Z</time>
      </trkpt>
      <trkpt lat="59.108591079711914" lon="30.490021705627441">
        <time>2026-08-20T09:18:59Z</time>
      </trkpt>
      <trkpt lat="59.108591079711914" lon="30.490021705627441">
        <time>2026-08-20T09:19:02Z</time>
      </trkpt>
      <trkpt lat="59.108591079711914" lon="30.490021705627441">
        <time>2026-08-20T09:19:04Z</time>
      </trkpt>
      <trkpt lat="59.108591079711914" lon="30.490021705627441">
        <time>2026-08-20T09:19:07Z</time>
      </trkpt>
      <trkpt lat="59.108591079711914" lon="30.490021705627441">
        <time>2026-08-20T09:19:09Z</time>
      </trkpt>
      <trkpt lat="59.108591079711914" lon="30.490043163299561">
        <time>2026-08-20T09:19:12Z</time>
      </trkpt>
      <trkpt lat="59.108591079711914" lon="30.490086078643799">
        <time>2026-08-20T09:19:14Z</time>
      </trkpt>
      <trkpt lat="59.108591079711914" lon="30.490107536315918">
        <time>2026-08-20T09:19:17Z</time>
      </trkpt>
      <trkpt lat="59.108591079711914" lon="30.490171909332275">
        <time>2026-08-20T09:19:19Z</time>
      </trkpt>
      <trkpt lat="59.108591079711914" lon="30.490236282348633">
        <time>2026-08-20T09:19:22Z</time>
      </trkpt>
      <trkpt lat="59.108591079711914" lon="30.490429401397705">
        <time>2026-08-20T09:19:24Z</time>
      </trkpt>
      <trkpt lat="59.108591079711914" lon="30.490515232086182">
        <time>2026-08-20T09:19:27Z</time>
      </trkpt>
      <trkpt lat="59.108591079711914" lon="30.490601062774658">
        <time>2026-08-20T09:19:29Z</time>
      </trkpt>
      <trkpt lat="59.108591079711914" lon="30.490643978118896">
        <time>2026-08-20T09:19:32Z</time>
      </trkpt>
      <trkpt lat="59.108591079711914" lon="30.490708351135254">
        <time>2026-08-20T09:19:34Z</time>
      </trkpt>
      <trkpt lat="59.108591079711914" lon="30.490708351135254">
        <time>2026-08-20T09:19:37Z</time>
      </trkpt>
      <trkpt lat="59.108591079711914" lon="30.490729808807373">
        <time>2026-08-20T09:19:39Z</time>
      </trkpt>
      <trkpt lat="59.108591079711914" lon="30.490751266479492">
        <time>2026-08-20T09:19:42Z</time>
      </trkpt>
      <trkpt lat="59.108591079711914" lon="30.49079418182373">
        <time>2026-08-20T09:19:44Z</time>
      </trkpt>
      <trkpt lat="59.108591079711914" lon="30.490837097167969">
        <time>2026-08-20T09:19:47Z</time>
      </trkpt>
      <trkpt lat="59.108569622039795" lon="30.490901470184326">
        <time>2026-08-20T09:19:49Z</time>
      </trkpt>
      <trkpt lat="59.108591079711914" lon="30.490922927856445">
        <time>2026-08-20T09:19:52Z</time>
      </trkpt>
      <trkpt lat="59.108591079711914" lon="30.490922927856445">
        <time>2026-08-20T09:19:54Z</time>
      </trkpt>
      <trkpt lat="59.108591079711914" lon="30.490922927856445">
        <time>2026-08-20T09:19:57Z</time>
      </trkpt>
      <trkpt lat="59.108569622039795" lon="30.490944385528564">
        <time>2026-08-20T09:19:59Z</time>
      </trkpt>
      <trkpt lat="59.108569622039795" lon="30.490987300872803">
        <time>2026-08-20T09:20:02Z</time>
      </trkpt>
      <trkpt lat="59.108569622039795" lon="30.490987300872803">
        <time>2026-08-20T09:20:04Z</time>
      </trkpt>
      <trkpt lat="59.108569622039795" lon="30.490987300872803">
        <time>2026-08-20T09:20:07Z</time>
      </trkpt>
      <trkpt lat="59.108548164367676" lon="30.491030216217041">
        <time>2026-08-20T09:20:09Z</time>
      </trkpt>
      <trkpt lat="59.108548164367676" lon="30.49105167388916">
        <time>2026-08-20T09:20:12Z</time>
      </trkpt>
      <trkpt lat="59.108548164367676" lon="30.49105167388916">
        <time>2026-08-20T09:20:14Z</time>
      </trkpt>
      <trkpt lat="59.108548164367676" lon="30.49105167388916">
        <time>2026-08-20T09:20:17Z</time>
      </trkpt>
      <trkpt lat="59.108548164367676" lon="30.49105167388916">
        <time>2026-08-20T09:20:19Z</time>
      </trkpt>
      <trkpt lat="59.108548164367676" lon="30.491030216217041">
        <time>2026-08-20T09:20:22Z</time>
      </trkpt>
      <trkpt lat="59.108526706695557" lon="30.491073131561279">
        <time>2026-08-20T09:20:24Z</time>
      </trkpt>
      <trkpt lat="59.108526706695557" lon="30.491094589233398">
        <time>2026-08-20T09:20:27Z</time>
      </trkpt>
      <trkpt lat="59.108526706695557" lon="30.491158962249756">
        <time>2026-08-20T09:20:29Z</time>
      </trkpt>
      <trkpt lat="59.108505249023438" lon="30.491158962249756">
        <time>2026-08-20T09:20:32Z</time>
      </trkpt>
      <trkpt lat="59.108526706695557" lon="30.491244792938232">
        <time>2026-08-20T09:20:34Z</time>
      </trkpt>
      <trkpt lat="59.108526706695557" lon="30.491266250610352">
        <time>2026-08-20T09:20:37Z</time>
      </trkpt>
      <trkpt lat="59.108526706695557" lon="30.491266250610352">
        <time>2026-08-20T09:20:39Z</time>
      </trkpt>
      <trkpt lat="59.108526706695557" lon="30.491266250610352">
        <time>2026-08-20T09:20:42Z</time>
      </trkpt>
      <trkpt lat="59.108526706695557" lon="30.491330623626709">
        <time>2026-08-20T09:20:44Z</time>
      </trkpt>
      <trkpt lat="59.108526706695557" lon="30.491352081298828">
        <time>2026-08-20T09:20:47Z</time>
      </trkpt>
      <trkpt lat="59.108526706695557" lon="30.491437911987305">
        <time>2026-08-20T09:20:49Z</time>
      </trkpt>
      <trkpt lat="59.108526706695557" lon="30.491437911987305">
        <time>2026-08-20T09:20:52Z</time>
      </trkpt>
      <trkpt lat="59.108526706695557" lon="30.491437911987305">
        <time>2026-08-20T09:20:54Z</time>
      </trkpt>
      <trkpt lat="59.108526706695557" lon="30.491459369659424">
        <time>2026-08-20T09:20:57Z</time>
      </trkpt>
      <trkpt lat="59.108526706695557" lon="30.491459369659424">
        <time>2026-08-20T09:20:59Z</time>
      </trkpt>
      <trkpt lat="59.108505249023438" lon="30.491480827331543">
        <time>2026-08-20T09:21:02Z</time>
      </trkpt>
      <trkpt lat="59.108505249023438" lon="30.491480827331543">
        <time>2026-08-20T09:21:04Z</time>
      </trkpt>
      <trkpt lat="59.108505249023438" lon="30.491480827331543">
        <time>2026-08-20T09:21:07Z</time>
      </trkpt>
      <trkpt lat="59.108505249023438" lon="30.491523742675781">
        <time>2026-08-20T09:21:09Z</time>
      </trkpt>
      <trkpt lat="59.108505249023438" lon="30.49156665802002">
        <time>2026-08-20T09:21:12Z</time>
      </trkpt>
      <trkpt lat="59.108505249023438" lon="30.49156665802002">
        <time>2026-08-20T09:21:14Z</time>
      </trkpt>
      <trkpt lat="59.108505249023438" lon="30.491588115692139">
        <time>2026-08-20T09:21:17Z</time>
      </trkpt>
      <trkpt lat="59.108505249023438" lon="30.491588115692139">
        <time>2026-08-20T09:21:19Z</time>
      </trkpt>
      <trkpt lat="59.108505249023438" lon="30.491588115692139">
        <time>2026-08-20T09:21:22Z</time>
      </trkpt>
      <trkpt lat="59.108505249023438" lon="30.491631031036377">
        <time>2026-08-20T09:21:24Z</time>
      </trkpt>
      <trkpt lat="59.108505249023438" lon="30.491652488708496">
        <time>2026-08-20T09:21:27Z</time>
      </trkpt>
      <trkpt lat="59.108505249023438" lon="30.491652488708496">
        <time>2026-08-20T09:21:29Z</time>
      </trkpt>
      <trkpt lat="59.108505249023438" lon="30.491652488708496">
        <time>2026-08-20T09:21:32Z</time>
      </trkpt>
      <trkpt lat="59.108505249023438" lon="30.491673946380615">
        <time>2026-08-20T09:21:34Z</time>
      </trkpt>
      <trkpt lat="59.108483791351318" lon="30.491738319396973">
        <time>2026-08-20T09:21:37Z</time>
      </trkpt>
      <trkpt lat="59.108483791351318" lon="30.491759777069092">
        <time>2026-08-20T09:21:39Z</time>
      </trkpt>
      <trkpt lat="59.108483791351318" lon="30.49180269241333">
        <time>2026-08-20T09:21:42Z</time>
      </trkpt>
      <trkpt lat="59.108483791351318" lon="30.491845607757568">
        <time>2026-08-20T09:21:44Z</time>
      </trkpt>
      <trkpt lat="59.108483791351318" lon="30.491909980773926">
        <time>2026-08-20T09:21:47Z</time>
      </trkpt>
      <trkpt lat="59.108462333679199" lon="30.491952896118164">
        <time>2026-08-20T09:21:49Z</time>
      </trkpt>
      <trkpt lat="59.108462333679199" lon="30.491995811462402">
        <time>2026-08-20T09:21:52Z</time>
      </trkpt>
      <trkpt lat="59.108462333679199" lon="30.491995811462402">
        <time>2026-08-20T09:21:54Z</time>
      </trkpt>
      <trkpt lat="59.108462333679199" lon="30.491995811462402">
        <time>2026-08-20T09:21:57Z</time>
      </trkpt>
      <trkpt lat="59.108462333679199" lon="30.491995811462402">
        <time>2026-08-20T09:21:59Z</time>
      </trkpt>
      <trkpt lat="59.108462333679199" lon="30.491995811462402">
        <time>2026-08-20T09:22:02Z</time>
      </trkpt>
      <trkpt lat="59.108462333679199" lon="30.491995811462402">
        <time>2026-08-20T09:22:04Z</time>
      </trkpt>
      <trkpt lat="59.108462333679199" lon="30.491995811462402">
        <time>2026-08-20T09:22:07Z</time>
      </trkpt>
      <trkpt lat="59.108462333679199" lon="30.491995811462402">
        <time>2026-08-20T09:22:09Z</time>
      </trkpt>
      <trkpt lat="59.108462333679199" lon="30.491995811462402">
        <time>2026-08-20T09:22:12Z</time>
      </trkpt>
      <trkpt lat="59.108483791351318" lon="30.492017269134521">
        <time>2026-08-20T09:22:14Z</time>
      </trkpt>
      <trkpt lat="59.108483791351318" lon="30.492017269134521">
        <time>2026-08-20T09:22:17Z</time>
      </trkpt>
      <trkpt lat="59.108505249023438" lon="30.49206018447876">
        <time>2026-08-20T09:22:19Z</time>
      </trkpt>
      <trkpt lat="59.108526706695557" lon="30.492103099822998">
        <time>2026-08-20T09:22:22Z</time>
      </trkpt>
      <trkpt lat="59.108526706695557" lon="30.492103099822998">
        <time>2026-08-20T09:22:24Z</time>
      </trkpt>
      <trkpt lat="59.108526706695557" lon="30.492167472839355">
        <time>2026-08-20T09:22:27Z</time>
      </trkpt>
      <trkpt lat="59.108505249023438" lon="30.492231845855713">
        <time>2026-08-20T09:22:29Z</time>
      </trkpt>
      <trkpt lat="59.108505249023438" lon="30.492274761199951">
        <time>2026-08-20T09:22:32Z</time>
      </trkpt>
      <trkpt lat="59.108505249023438" lon="30.49229621887207">
        <time>2026-08-20T09:22:34Z</time>
      </trkpt>
      <trkpt lat="59.108526706695557" lon="30.492274761199951">
        <time>2026-08-20T09:22:37Z</time>
      </trkpt>
      <trkpt lat="59.108548164367676" lon="30.492253303527832">
        <time>2026-08-20T09:22:39Z</time>
      </trkpt>
      <trkpt lat="59.108548164367676" lon="30.492253303527832">
        <time>2026-08-20T09:22:42Z</time>
      </trkpt>
      <trkpt lat="59.108548164367676" lon="30.492253303527832">
        <time>2026-08-20T09:22:44Z</time>
      </trkpt>
      <trkpt lat="59.108548164367676" lon="30.492253303527832">
        <time>2026-08-20T09:22:47Z</time>
      </trkpt>
      <trkpt lat="59.108569622039795" lon="30.492253303527832">
        <time>2026-08-20T09:22:49Z</time>
      </trkpt>
      <trkpt lat="59.108591079711914" lon="30.492253303527832">
        <time>2026-08-20T09:22:52Z</time>
      </trkpt>
      <trkpt lat="59.108591079711914" lon="30.492253303527832">
        <time>2026-08-20T09:22:54Z</time>
      </trkpt>
      <trkpt lat="59.108591079711914" lon="30.492253303527832">
        <time>2026-08-20T09:22:57Z</time>
      </trkpt>
      <trkpt lat="59.108591079711914" lon="30.492253303527832">
        <time>2026-08-20T09:22:59Z</time>
      </trkpt>
      <trkpt lat="59.108591079711914" lon="30.492253303527832">
        <time>2026-08-20T09:23:02Z</time>
      </trkpt>
      <trkpt lat="59.108591079711914" lon="30.492274761199951">
        <time>2026-08-20T09:23:04Z</time>
      </trkpt>
      <trkpt lat="59.108591079711914" lon="30.49229621887207">
        <time>2026-08-20T09:23:07Z</time>
      </trkpt>
      <trkpt lat="59.108612537384033" lon="30.492339134216309">
        <time>2026-08-20T09:23:09Z</time>
      </trkpt>
      <trkpt lat="59.108591079711914" lon="30.492339134216309">
        <time>2026-08-20T09:23:12Z</time>
      </trkpt>
      <trkpt lat="59.108591079711914" lon="30.492360591888428">
        <time>2026-08-20T09:23:14Z</time>
      </trkpt>
      <trkpt lat="59.108591079711914" lon="30.492360591888428">
        <time>2026-08-20T09:23:17Z</time>
      </trkpt>
      <trkpt lat="59.108591079711914" lon="30.492360591888428">
        <time>2026-08-20T09:23:19Z</time>
      </trkpt>
      <trkpt lat="59.108591079711914" lon="30.492360591888428">
        <time>2026-08-20T09:23:22Z</time>
      </trkpt>
      <trkpt lat="59.108591079711914" lon="30.492360591888428">
        <time>2026-08-20T09:23:24Z</time>
      </trkpt>
      <trkpt lat="59.108591079711914" lon="30.492382049560547">
        <time>2026-08-20T09:23:27Z</time>
      </trkpt>
      <trkpt lat="59.108591079711914" lon="30.492382049560547">
        <time>2026-08-20T09:23:29Z</time>
      </trkpt>
      <trkpt lat="59.108591079711914" lon="30.492382049560547">
        <time>2026-08-20T09:23:32Z</time>
      </trkpt>
      <trkpt lat="59.108591079711914" lon="30.492403507232666">
        <time>2026-08-20T09:23:34Z</time>
      </trkpt>
      <trkpt lat="59.108591079711914" lon="30.492403507232666">
        <time>2026-08-20T09:23:37Z</time>
      </trkpt>
      <trkpt lat="59.108591079711914" lon="30.492403507232666">
        <time>2026-08-20T09:23:39Z</time>
      </trkpt>
      <trkpt lat="59.108591079711914" lon="30.492403507232666">
        <time>2026-08-20T09:23:42Z</time>
      </trkpt>
      <trkpt lat="59.108591079711914" lon="30.492424964904785">
        <time>2026-08-20T09:23:44Z</time>
      </trkpt>
      <trkpt lat="59.108591079711914" lon="30.492424964904785">
        <time>2026-08-20T09:23:47Z</time>
      </trkpt>
      <trkpt lat="59.108591079711914" lon="30.492446422576904">
        <time>2026-08-20T09:23:49Z</time>
      </trkpt>
      <trkpt lat="59.108591079711914" lon="30.492489337921143">
        <time>2026-08-20T09:23:52Z</time>
      </trkpt>
      <trkpt lat="59.108591079711914" lon="30.492489337921143">
        <time>2026-08-20T09:23:54Z</time>
      </trkpt>
      <trkpt lat="59.108591079711914" lon="30.492532253265381">
        <time>2026-08-20T09:23:57Z</time>
      </trkpt>
      <trkpt lat="59.108591079711914" lon="30.492532253265381">
        <time>2026-08-20T09:23:59Z</time>
      </trkpt>
      <trkpt lat="59.108591079711914" lon="30.492532253265381">
        <time>2026-08-20T09:24:02Z</time>
      </trkpt>
      <trkpt lat="59.108591079711914" lon="30.492575168609619">
        <time>2026-08-20T09:24:04Z</time>
      </trkpt>
      <trkpt lat="59.108569622039795" lon="30.492618083953857">
        <time>2026-08-20T09:24:07Z</time>
      </trkpt>
      <trkpt lat="59.108569622039795" lon="30.492618083953857">
        <time>2026-08-20T09:24:09Z</time>
      </trkpt>
      <trkpt lat="59.108569622039795" lon="30.492618083953857">
        <time>2026-08-20T09:24:12Z</time>
      </trkpt>
      <trkpt lat="59.108569622039795" lon="30.492660999298096">
        <time>2026-08-20T09:24:14Z</time>
      </trkpt>
      <trkpt lat="59.108569622039795" lon="30.492682456970215">
        <time>2026-08-20T09:24:17Z</time>
      </trkpt>
      <trkpt lat="59.108569622039795" lon="30.492682456970215">
        <time>2026-08-20T09:24:19Z</time>
      </trkpt>
      <trkpt lat="59.108548164367676" lon="30.492703914642334">
        <time>2026-08-20T09:24:22Z</time>
      </trkpt>
      <trkpt lat="59.108548164367676" lon="30.492768287658691">
        <time>2026-08-20T09:24:24Z</time>
      </trkpt>
      <trkpt lat="59.108526706695557" lon="30.492789745330811">
        <time>2026-08-20T09:24:27Z</time>
      </trkpt>
      <trkpt lat="59.108526706695557" lon="30.492789745330811">
        <time>2026-08-20T09:24:29Z</time>
      </trkpt>
      <trkpt lat="59.108526706695557" lon="30.492789745330811">
        <time>2026-08-20T09:24:32Z</time>
      </trkpt>
      <trkpt lat="59.108526706695557" lon="30.492789745330811">
        <time>2026-08-20T09:24:34Z</time>
      </trkpt>
      <trkpt lat="59.108526706695557" lon="30.492789745330811">
        <time>2026-08-20T09:24:37Z</time>
      </trkpt>
      <trkpt lat="59.108526706695557" lon="30.492789745330811">
        <time>2026-08-20T09:24:39Z</time>
      </trkpt>
      <trkpt lat="59.108526706695557" lon="30.492789745330811">
        <time>2026-08-20T09:24:42Z</time>
      </trkpt>
      <trkpt lat="59.108569622039795" lon="30.492789745330811">
        <time>2026-08-20T09:24:44Z</time>
      </trkpt>
      <trkpt lat="59.108569622039795" lon="30.492875576019287">
        <time>2026-08-20T09:24:47Z</time>
      </trkpt>
      <trkpt lat="59.108569622039795" lon="30.492939949035645">
        <time>2026-08-20T09:24:49Z</time>
      </trkpt>
      <trkpt lat="59.108569622039795" lon="30.492961406707764">
        <time>2026-08-20T09:24:52Z</time>
      </trkpt>
      <trkpt lat="59.108548164367676" lon="30.492982864379883">
        <time>2026-08-20T09:24:54Z</time>
      </trkpt>
      <trkpt lat="59.108548164367676" lon="30.492982864379883">
        <time>2026-08-20T09:24:57Z</time>
      </trkpt>
      <trkpt lat="59.108548164367676" lon="30.492982864379883">
        <time>2026-08-20T09:24:59Z</time>
      </trkpt>
      <trkpt lat="59.108548164367676" lon="30.492982864379883">
        <time>2026-08-20T09:25:02Z</time>
      </trkpt>
      <trkpt lat="59.108548164367676" lon="30.492982864379883">
        <time>2026-08-20T09:25:04Z</time>
      </trkpt>
      <trkpt lat="59.108548164367676" lon="30.492982864379883">
        <time>2026-08-20T09:25:07Z</time>
      </trkpt>
      <trkpt lat="59.108548164367676" lon="30.492982864379883">
        <time>2026-08-20T09:25:09Z</time>
      </trkpt>
      <trkpt lat="59.108548164367676" lon="30.492982864379883">
        <time>2026-08-20T09:25:12Z</time>
      </trkpt>
      <trkpt lat="59.108548164367676" lon="30.492982864379883">
        <time>2026-08-20T09:25:14Z</time>
      </trkpt>
      <trkpt lat="59.108548164367676" lon="30.492982864379883">
        <time>2026-08-20T09:25:17Z</time>
      </trkpt>
      <trkpt lat="59.108548164367676" lon="30.492982864379883">
        <time>2026-08-20T09:25:19Z</time>
      </trkpt>
      <trkpt lat="59.108548164367676" lon="30.492982864379883">
        <time>2026-08-20T09:25:22Z</time>
      </trkpt>
      <trkpt lat="59.108548164367676" lon="30.492982864379883">
        <time>2026-08-20T09:25:24Z</time>
      </trkpt>
      <trkpt lat="59.108548164367676" lon="30.492982864379883">
        <time>2026-08-20T09:25:27Z</time>
      </trkpt>
      <trkpt lat="59.108548164367676" lon="30.492982864379883">
        <time>2026-08-20T09:25:29Z</time>
      </trkpt>
      <trkpt lat="59.108548164367676" lon="30.492982864379883">
        <time>2026-08-20T09:25:32Z</time>
      </trkpt>
      <trkpt lat="59.108548164367676" lon="30.492982864379883">
        <time>2026-08-20T09:25:34Z</time>
      </trkpt>
      <trkpt lat="59.108548164367676" lon="30.493004322052002">
        <time>2026-08-20T09:25:37Z</time>
      </trkpt>
      <trkpt lat="59.108548164367676" lon="30.493004322052002">
        <time>2026-08-20T09:25:39Z</time>
      </trkpt>
      <trkpt lat="59.108548164367676" lon="30.493004322052002">
        <time>2026-08-20T09:25:42Z</time>
      </trkpt>
      <trkpt lat="59.108548164367676" lon="30.493004322052002">
        <time>2026-08-20T09:25:44Z</time>
      </trkpt>
      <trkpt lat="59.108548164367676" lon="30.493004322052002">
        <time>2026-08-20T09:25:47Z</time>
      </trkpt>
      <trkpt lat="59.108548164367676" lon="30.493004322052002">
        <time>2026-08-20T09:25:49Z</time>
      </trkpt>
      <trkpt lat="59.108548164367676" lon="30.493004322052002">
        <time>2026-08-20T09:25:52Z</time>
      </trkpt>
      <trkpt lat="59.108548164367676" lon="30.493004322052002">
        <time>2026-08-20T09:25:54Z</time>
      </trkpt>
      <trkpt lat="59.108548164367676" lon="30.493004322052002">
        <time>2026-08-20T09:25:57Z</time>
      </trkpt>
      <trkpt lat="59.108548164367676" lon="30.493004322052002">
        <time>2026-08-20T09:25:59Z</time>
      </trkpt>
      <trkpt lat="59.108526706695557" lon="30.493025779724121">
        <time>2026-08-20T09:26:02Z</time>
      </trkpt>
      <trkpt lat="59.108483791351318" lon="30.49304723739624">
        <time>2026-08-20T09:26:04Z</time>
      </trkpt>
      <trkpt lat="59.108483791351318" lon="30.49304723739624">
        <time>2026-08-20T09:26:07Z</time>
      </trkpt>
      <trkpt lat="59.108483791351318" lon="30.49304723739624">
        <time>2026-08-20T09:26:09Z</time>
      </trkpt>
      <trkpt lat="59.108483791351318" lon="30.493068695068359">
        <time>2026-08-20T09:26:12Z</time>
      </trkpt>
      <trkpt lat="59.108483791351318" lon="30.493068695068359">
        <time>2026-08-20T09:26:14Z</time>
      </trkpt>
      <trkpt lat="59.108483791351318" lon="30.493068695068359">
        <time>2026-08-20T09:26:17Z</time>
      </trkpt>
      <trkpt lat="59.108483791351318" lon="30.493068695068359">
        <time>2026-08-20T09:26:19Z</time>
      </trkpt>
      <trkpt lat="59.108483791351318" lon="30.493068695068359">
        <time>2026-08-20T09:26:22Z</time>
      </trkpt>
      <trkpt lat="59.108483791351318" lon="30.493068695068359">
        <time>2026-08-20T09:26:24Z</time>
      </trkpt>
      <trkpt lat="59.108483791351318" lon="30.493068695068359">
        <time>2026-08-20T09:26:27Z</time>
      </trkpt>
      <trkpt lat="59.108462333679199" lon="30.493068695068359">
        <time>2026-08-20T09:26:29Z</time>
      </trkpt>
      <trkpt lat="59.108462333679199" lon="30.493090152740479">
        <time>2026-08-20T09:26:32Z</time>
      </trkpt>
      <trkpt lat="59.10844087600708" lon="30.493111610412598">
        <time>2026-08-20T09:26:34Z</time>
      </trkpt>
      <trkpt lat="59.108419418334961" lon="30.493111610412598">
        <time>2026-08-20T09:26:37Z</time>
      </trkpt>
      <trkpt lat="59.108419418334961" lon="30.493111610412598">
        <time>2026-08-20T09:26:39Z</time>
      </trkpt>
      <trkpt lat="59.108419418334961" lon="30.493111610412598">
        <time>2026-08-20T09:26:42Z</time>
      </trkpt>
      <trkpt lat="59.108397960662842" lon="30.493111610412598">
        <time>2026-08-20T09:26:44Z</time>
      </trkpt>
      <trkpt lat="59.108397960662842" lon="30.493133068084717">
        <time>2026-08-20T09:26:47Z</time>
      </trkpt>
      <trkpt lat="59.108397960662842" lon="30.493111610412598">
        <time>2026-08-20T09:26:49Z</time>
      </trkpt>
      <trkpt lat="59.108376502990723" lon="30.493133068084717">
        <time>2026-08-20T09:26:52Z</time>
      </trkpt>
      <trkpt lat="59.108376502990723" lon="30.493111610412598">
        <time>2026-08-20T09:26:54Z</time>
      </trkpt>
      <trkpt lat="59.108376502990723" lon="30.493111610412598">
        <time>2026-08-20T09:26:57Z</time>
      </trkpt>
      <trkpt lat="59.108376502990723" lon="30.493111610412598">
        <time>2026-08-20T09:26:59Z</time>
      </trkpt>
      <trkpt lat="59.108376502990723" lon="30.493111610412598">
        <time>2026-08-20T09:27:02Z</time>
      </trkpt>
      <trkpt lat="59.108355045318604" lon="30.493111610412598">
        <time>2026-08-20T09:27:04Z</time>
      </trkpt>
      <trkpt lat="59.108355045318604" lon="30.493111610412598">
        <time>2026-08-20T09:27:07Z</time>
      </trkpt>
      <trkpt lat="59.108355045318604" lon="30.493111610412598">
        <time>2026-08-20T09:27:09Z</time>
      </trkpt>
      <trkpt lat="59.108355045318604" lon="30.493111610412598">
        <time>2026-08-20T09:27:12Z</time>
      </trkpt>
      <trkpt lat="59.108355045318604" lon="30.493111610412598">
        <time>2026-08-20T09:27:14Z</time>
      </trkpt>
      <trkpt lat="59.108355045318604" lon="30.493111610412598">
        <time>2026-08-20T09:27:17Z</time>
      </trkpt>
      <trkpt lat="59.108355045318604" lon="30.493090152740479">
        <time>2026-08-20T09:27:19Z</time>
      </trkpt>
      <trkpt lat="59.108333587646484" lon="30.493090152740479">
        <time>2026-08-20T09:27:22Z</time>
      </trkpt>
      <trkpt lat="59.108333587646484" lon="30.49304723739624">
        <time>2026-08-20T09:27:24Z</time>
      </trkpt>
      <trkpt lat="59.108333587646484" lon="30.493025779724121">
        <time>2026-08-20T09:27:27Z</time>
      </trkpt>
      <trkpt lat="59.108333587646484" lon="30.493004322052002">
        <time>2026-08-20T09:27:29Z</time>
      </trkpt>
      <trkpt lat="59.108333587646484" lon="30.493004322052002">
        <time>2026-08-20T09:27:32Z</time>
      </trkpt>
      <trkpt lat="59.108333587646484" lon="30.493004322052002">
        <time>2026-08-20T09:27:34Z</time>
      </trkpt>
      <trkpt lat="59.108333587646484" lon="30.493004322052002">
        <time>2026-08-20T09:27:37Z</time>
      </trkpt>
      <trkpt lat="59.108312129974365" lon="30.492961406707764">
        <time>2026-08-20T09:27:39Z</time>
      </trkpt>
      <trkpt lat="59.108312129974365" lon="30.492939949035645">
        <time>2026-08-20T09:27:42Z</time>
      </trkpt>
      <trkpt lat="59.108312129974365" lon="30.492939949035645">
        <time>2026-08-20T09:27:44Z</time>
      </trkpt>
      <trkpt lat="59.108312129974365" lon="30.492939949035645">
        <time>2026-08-20T09:27:47Z</time>
      </trkpt>
      <trkpt lat="59.108312129974365" lon="30.492939949035645">
        <time>2026-08-20T09:27:49Z</time>
      </trkpt>
      <trkpt lat="59.108312129974365" lon="30.492939949035645">
        <time>2026-08-20T09:27:52Z</time>
      </trkpt>
      <trkpt lat="59.108312129974365" lon="30.492939949035645">
        <time>2026-08-20T09:27:54Z</time>
      </trkpt>
      <trkpt lat="59.108312129974365" lon="30.492939949035645">
        <time>2026-08-20T09:27:57Z</time>
      </trkpt>
      <trkpt lat="59.108312129974365" lon="30.492939949035645">
        <time>2026-08-20T09:27:59Z</time>
      </trkpt>
      <trkpt lat="59.108312129974365" lon="30.492939949035645">
        <time>2026-08-20T09:28:02Z</time>
      </trkpt>
      <trkpt lat="59.108312129974365" lon="30.492939949035645">
        <time>2026-08-20T09:28:04Z</time>
      </trkpt>
      <trkpt lat="59.108312129974365" lon="30.492939949035645">
        <time>2026-08-20T09:28:07Z</time>
      </trkpt>
      <trkpt lat="59.108312129974365" lon="30.492939949035645">
        <time>2026-08-20T09:28:09Z</time>
      </trkpt>
      <trkpt lat="59.108312129974365" lon="30.492939949035645">
        <time>2026-08-20T09:28:12Z</time>
      </trkpt>
      <trkpt lat="59.108312129974365" lon="30.492939949035645">
        <time>2026-08-20T09:28:14Z</time>
      </trkpt>
      <trkpt lat="59.108312129974365" lon="30.492918491363525">
        <time>2026-08-20T09:28:17Z</time>
      </trkpt>
      <trkpt lat="59.108312129974365" lon="30.492854118347168">
        <time>2026-08-20T09:28:19Z</time>
      </trkpt>
      <trkpt lat="59.108312129974365" lon="30.49281120300293">
        <time>2026-08-20T09:28:22Z</time>
      </trkpt>
      <trkpt lat="59.108312129974365" lon="30.492746829986572">
        <time>2026-08-20T09:28:24Z</time>
      </trkpt>
      <trkpt lat="59.108312129974365" lon="30.492725372314453">
        <time>2026-08-20T09:28:27Z</time>
      </trkpt>
      <trkpt lat="59.108312129974365" lon="30.492725372314453">
        <time>2026-08-20T09:28:29Z</time>
      </trkpt>
      <trkpt lat="59.108312129974365" lon="30.492660999298096">
        <time>2026-08-20T09:28:32Z</time>
      </trkpt>
      <trkpt lat="59.108290672302246" lon="30.492596626281738">
        <time>2026-08-20T09:28:34Z</time>
      </trkpt>
      <trkpt lat="59.108290672302246" lon="30.4925537109375">
        <time>2026-08-20T09:28:37Z</time>
      </trkpt>
      <trkpt lat="59.108290672302246" lon="30.492510795593262">
        <time>2026-08-20T09:28:39Z</time>
      </trkpt>
      <trkpt lat="59.108269214630127" lon="30.492489337921143">
        <time>2026-08-20T09:28:42Z</time>
      </trkpt>
      <trkpt lat="59.108269214630127" lon="30.492446422576904">
        <time>2026-08-20T09:28:44Z</time>
      </trkpt>
      <trkpt lat="59.108269214630127" lon="30.492424964904785">
        <time>2026-08-20T09:28:47Z</time>
      </trkpt>
      <trkpt lat="59.108269214630127" lon="30.492424964904785">
        <time>2026-08-20T09:28:49Z</time>
      </trkpt>
      <trkpt lat="59.108269214630127" lon="30.492424964904785">
        <time>2026-08-20T09:28:52Z</time>
      </trkpt>
      <trkpt lat="59.108269214630127" lon="30.492424964904785">
        <time>2026-08-20T09:28:54Z</time>
      </trkpt>
      <trkpt lat="59.108269214630127" lon="30.492424964904785">
        <time>2026-08-20T09:28:57Z</time>
      </trkpt>
      <trkpt lat="59.108247756958008" lon="30.492424964904785">
        <time>2026-08-20T09:28:59Z</time>
      </trkpt>
      <trkpt lat="59.108247756958008" lon="30.492424964904785">
        <time>2026-08-20T09:29:02Z</time>
      </trkpt>
      <trkpt lat="59.108269214630127" lon="30.492360591888428">
        <time>2026-08-20T09:29:04Z</time>
      </trkpt>
      <trkpt lat="59.108247756958008" lon="30.492317676544189">
        <time>2026-08-20T09:29:07Z</time>
      </trkpt>
      <trkpt lat="59.108247756958008" lon="30.492253303527832">
        <time>2026-08-20T09:29:09Z</time>
      </trkpt>
      <trkpt lat="59.108247756958008" lon="30.492188930511475">
        <time>2026-08-20T09:29:12Z</time>
      </trkpt>
      <trkpt lat="59.108247756958008" lon="30.492124557495117">
        <time>2026-08-20T09:29:14Z</time>
      </trkpt>
      <trkpt lat="59.108247756958008" lon="30.492081642150879">
        <time>2026-08-20T09:29:17Z</time>
      </trkpt>
      <trkpt lat="59.108247756958008" lon="30.492017269134521">
        <time>2026-08-20T09:29:19Z</time>
      </trkpt>
      <trkpt lat="59.108247756958008" lon="30.492017269134521">
        <time>2026-08-20T09:29:22Z</time>
      </trkpt>
      <trkpt lat="59.108247756958008" lon="30.491995811462402">
        <time>2026-08-20T09:29:24Z</time>
      </trkpt>
      <trkpt lat="59.108226299285889" lon="30.491952896118164">
        <time>2026-08-20T09:29:27Z</time>
      </trkpt>
      <trkpt lat="59.108226299285889" lon="30.491888523101807">
        <time>2026-08-20T09:29:29Z</time>
      </trkpt>
      <trkpt lat="59.108226299285889" lon="30.491888523101807">
        <time>2026-08-20T09:29:32Z</time>
      </trkpt>
      <trkpt lat="59.108226299285889" lon="30.49180269241333">
        <time>2026-08-20T09:29:34Z</time>
      </trkpt>
      <trkpt lat="59.108226299285889" lon="30.491759777069092">
        <time>2026-08-20T09:29:37Z</time>
      </trkpt>
      <trkpt lat="59.108226299285889" lon="30.491716861724854">
        <time>2026-08-20T09:29:39Z</time>
      </trkpt>
      <trkpt lat="59.108226299285889" lon="30.491673946380615">
        <time>2026-08-20T09:29:42Z</time>
      </trkpt>
      <trkpt lat="59.10820484161377" lon="30.491609573364258">
        <time>2026-08-20T09:29:44Z</time>
      </trkpt>
      <trkpt lat="59.10820484161377" lon="30.491588115692139">
        <time>2026-08-20T09:29:47Z</time>
      </trkpt>
      <trkpt lat="59.108226299285889" lon="30.491523742675781">
        <time>2026-08-20T09:29:49Z</time>
      </trkpt>
      <trkpt lat="59.108226299285889" lon="30.491502285003662">
        <time>2026-08-20T09:29:52Z</time>
      </trkpt>
      <trkpt lat="59.10820484161377" lon="30.491459369659424">
        <time>2026-08-20T09:29:54Z</time>
      </trkpt>
      <trkpt lat="59.108226299285889" lon="30.491416454315186">
        <time>2026-08-20T09:29:57Z</time>
      </trkpt>
      <trkpt lat="59.108226299285889" lon="30.491373538970947">
        <time>2026-08-20T09:29:59Z</time>
      </trkpt>
      <trkpt lat="59.108226299285889" lon="30.491352081298828">
        <time>2026-08-20T09:30:02Z</time>
      </trkpt>
      <trkpt lat="59.108226299285889" lon="30.49130916595459">
        <time>2026-08-20T09:30:04Z</time>
      </trkpt>
      <trkpt lat="59.108226299285889" lon="30.491266250610352">
        <time>2026-08-20T09:30:07Z</time>
      </trkpt>
      <trkpt lat="59.108247756958008" lon="30.491180419921875">
        <time>2026-08-20T09:30:09Z</time>
      </trkpt>
      <trkpt lat="59.108226299285889" lon="30.491137504577637">
        <time>2026-08-20T09:30:12Z</time>
      </trkpt>
      <trkpt lat="59.108247756958008" lon="30.491073131561279">
        <time>2026-08-20T09:30:14Z</time>
      </trkpt>
      <trkpt lat="59.108226299285889" lon="30.491030216217041">
        <time>2026-08-20T09:30:17Z</time>
      </trkpt>
      <trkpt lat="59.10820484161377" lon="30.490965843200684">
        <time>2026-08-20T09:30:19Z</time>
      </trkpt>
      <trkpt lat="59.10820484161377" lon="30.490922927856445">
        <time>2026-08-20T09:30:22Z</time>
      </trkpt>
      <trkpt lat="59.10820484161377" lon="30.490901470184326">
        <time>2026-08-20T09:30:24Z</time>
      </trkpt>
      <trkpt lat="59.10820484161377" lon="30.490880012512207">
        <time>2026-08-20T09:30:27Z</time>
      </trkpt>
      <trkpt lat="59.10820484161377" lon="30.490837097167969">
        <time>2026-08-20T09:30:29Z</time>
      </trkpt>
      <trkpt lat="59.10820484161377" lon="30.49079418182373">
        <time>2026-08-20T09:30:32Z</time>
      </trkpt>
      <trkpt lat="59.10820484161377" lon="30.490729808807373">
        <time>2026-08-20T09:30:34Z</time>
      </trkpt>
      <trkpt lat="59.108226299285889" lon="30.490686893463135">
        <time>2026-08-20T09:30:37Z</time>
      </trkpt>
      <trkpt lat="59.108226299285889" lon="30.490622520446777">
        <time>2026-08-20T09:30:39Z</time>
      </trkpt>
      <trkpt lat="59.108226299285889" lon="30.490601062774658">
        <time>2026-08-20T09:30:42Z</time>
      </trkpt>
      <trkpt lat="59.108226299285889" lon="30.49055814743042">
        <time>2026-08-20T09:30:47Z</time>
      </trkpt>
      <trkpt lat="59.108226299285889" lon="30.490515232086182">
        <time>2026-08-20T09:30:49Z</time>
      </trkpt>
      <trkpt lat="59.108226299285889" lon="30.490515232086182">
        <time>2026-08-20T09:30:52Z</time>
      </trkpt>
      <trkpt lat="59.108226299285889" lon="30.490515232086182">
        <time>2026-08-20T09:30:54Z</time>
      </trkpt>
      <trkpt lat="59.108226299285889" lon="30.490515232086182">
        <time>2026-08-20T09:30:57Z</time>
      </trkpt>
      <trkpt lat="59.108226299285889" lon="30.490515232086182">
        <time>2026-08-20T09:30:59Z</time>
      </trkpt>
      <trkpt lat="59.108226299285889" lon="30.490515232086182">
        <time>2026-08-20T09:31:02Z</time>
      </trkpt>
      <trkpt lat="59.108226299285889" lon="30.490515232086182">
        <time>2026-08-20T09:31:04Z</time>
      </trkpt>
      <trkpt lat="59.108226299285889" lon="30.490515232086182">
        <time>2026-08-20T09:31:07Z</time>
      </trkpt>
      <trkpt lat="59.108226299285889" lon="30.490515232086182">
        <time>2026-08-20T09:31:09Z</time>
      </trkpt>
      <trkpt lat="59.108226299285889" lon="30.490515232086182">
        <time>2026-08-20T09:31:12Z</time>
      </trkpt>
      <trkpt lat="59.108226299285889" lon="30.490515232086182">
        <time>2026-08-20T09:31:14Z</time>
      </trkpt>
      <trkpt lat="59.108226299285889" lon="30.490515232086182">
        <time>2026-08-20T09:31:17Z</time>
      </trkpt>
      <trkpt lat="59.108226299285889" lon="30.490515232086182">
        <time>2026-08-20T09:31:19Z</time>
      </trkpt>
      <trkpt lat="59.108226299285889" lon="30.490515232086182">
        <time>2026-08-20T09:31:22Z</time>
      </trkpt>
      <trkpt lat="59.108226299285889" lon="30.490515232086182">
        <time>2026-08-20T09:31:24Z</time>
      </trkpt>
      <trkpt lat="59.108226299285889" lon="30.490515232086182">
        <time>2026-08-20T09:31:27Z</time>
      </trkpt>
      <trkpt lat="59.108226299285889" lon="30.490515232086182">
        <time>2026-08-20T09:31:29Z</time>
      </trkpt>
      <trkpt lat="59.108226299285889" lon="30.490450859069824">
        <time>2026-08-20T09:31:32Z</time>
      </trkpt>
      <trkpt lat="59.10820484161377" lon="30.490407943725586">
        <time>2026-08-20T09:31:34Z</time>
      </trkpt>
      <trkpt lat="59.10820484161377" lon="30.490343570709229">
        <time>2026-08-20T09:31:37Z</time>
      </trkpt>
      <trkpt lat="59.10820484161377" lon="30.490322113037109">
        <time>2026-08-20T09:31:39Z</time>
      </trkpt>
      <trkpt lat="59.10818338394165" lon="30.490322113037109">
        <time>2026-08-20T09:31:42Z</time>
      </trkpt>
      <trkpt lat="59.10818338394165" lon="30.49030065536499">
        <time>2026-08-20T09:31:44Z</time>
      </trkpt>
      <trkpt lat="59.108161926269531" lon="30.49030065536499">
        <time>2026-08-20T09:31:47Z</time>
      </trkpt>
      <trkpt lat="59.108161926269531" lon="30.49030065536499">
        <time>2026-08-20T09:31:49Z</time>
      </trkpt>
      <trkpt lat="59.108161926269531" lon="30.49030065536499">
        <time>2026-08-20T09:31:52Z</time>
      </trkpt>
      <trkpt lat="59.108161926269531" lon="30.49030065536499">
        <time>2026-08-20T09:31:54Z</time>
      </trkpt>
      <trkpt lat="59.108161926269531" lon="30.49030065536499">
        <time>2026-08-20T09:31:59Z</time>
      </trkpt>
      <trkpt lat="59.108161926269531" lon="30.49030065536499">
        <time>2026-08-20T09:32:02Z</time>
      </trkpt>
      <trkpt lat="59.108161926269531" lon="30.490279197692871">
        <time>2026-08-20T09:32:04Z</time>
      </trkpt>
      <trkpt lat="59.108161926269531" lon="30.490279197692871">
        <time>2026-08-20T09:32:07Z</time>
      </trkpt>
      <trkpt lat="59.108161926269531" lon="30.490279197692871">
        <time>2026-08-20T09:32:09Z</time>
      </trkpt>
      <trkpt lat="59.108161926269531" lon="30.490257740020752">
        <time>2026-08-20T09:32:12Z</time>
      </trkpt>
      <trkpt lat="59.108161926269531" lon="30.490257740020752">
        <time>2026-08-20T09:32:14Z</time>
      </trkpt>
      <trkpt lat="59.108161926269531" lon="30.490236282348633">
        <time>2026-08-20T09:32:17Z</time>
      </trkpt>
      <trkpt lat="59.108161926269531" lon="30.490193367004395">
        <time>2026-08-20T09:32:19Z</time>
      </trkpt>
      <trkpt lat="59.108161926269531" lon="30.490193367004395">
        <time>2026-08-20T09:32:22Z</time>
      </trkpt>
      <trkpt lat="59.108161926269531" lon="30.490128993988037">
        <time>2026-08-20T09:32:24Z</time>
      </trkpt>
      <trkpt lat="59.108161926269531" lon="30.49006462097168">
        <time>2026-08-20T09:32:27Z</time>
      </trkpt>
      <trkpt lat="59.10818338394165" lon="30.490021705627441">
        <time>2026-08-20T09:32:29Z</time>
      </trkpt>
      <trkpt lat="59.10818338394165" lon="30.489978790283203">
        <time>2026-08-20T09:32:32Z</time>
      </trkpt>
      <trkpt lat="59.10818338394165" lon="30.489935874938965">
        <time>2026-08-20T09:32:34Z</time>
      </trkpt>
      <trkpt lat="59.10818338394165" lon="30.489892959594727">
        <time>2026-08-20T09:32:37Z</time>
      </trkpt>
      <trkpt lat="59.10818338394165" lon="30.489850044250488">
        <time>2026-08-20T09:32:39Z</time>
      </trkpt>
      <trkpt lat="59.108161926269531" lon="30.489828586578369">
        <time>2026-08-20T09:32:42Z</time>
      </trkpt>
      <trkpt lat="59.108161926269531" lon="30.48980712890625">
        <time>2026-08-20T09:32:44Z</time>
      </trkpt>
      <trkpt lat="59.108161926269531" lon="30.489764213562012">
        <time>2026-08-20T09:32:47Z</time>
      </trkpt>
      <trkpt lat="59.108161926269531" lon="30.489721298217773">
        <time>2026-08-20T09:32:49Z</time>
      </trkpt>
      <trkpt lat="59.108161926269531" lon="30.489721298217773">
        <time>2026-08-20T09:32:52Z</time>
      </trkpt>
      <trkpt lat="59.108161926269531" lon="30.489699840545654">
        <time>2026-08-20T09:32:54Z</time>
      </trkpt>
      <trkpt lat="59.108161926269531" lon="30.489699840545654">
        <time>2026-08-20T09:32:57Z</time>
      </trkpt>
      <trkpt lat="59.108161926269531" lon="30.489678382873535">
        <time>2026-08-20T09:32:59Z</time>
      </trkpt>
      <trkpt lat="59.108161926269531" lon="30.489678382873535">
        <time>2026-08-20T09:33:02Z</time>
      </trkpt>
      <trkpt lat="59.108140468597412" lon="30.489656925201416">
        <time>2026-08-20T09:33:04Z</time>
      </trkpt>
      <trkpt lat="59.108140468597412" lon="30.489656925201416">
        <time>2026-08-20T09:33:07Z</time>
      </trkpt>
      <trkpt lat="59.108140468597412" lon="30.489656925201416">
        <time>2026-08-20T09:33:09Z</time>
      </trkpt>
      <trkpt lat="59.108140468597412" lon="30.489656925201416">
        <time>2026-08-20T09:33:12Z</time>
      </trkpt>
      <trkpt lat="59.108140468597412" lon="30.489656925201416">
        <time>2026-08-20T09:33:14Z</time>
      </trkpt>
      <trkpt lat="59.108140468597412" lon="30.489656925201416">
        <time>2026-08-20T09:33:17Z</time>
      </trkpt>
      <trkpt lat="59.108140468597412" lon="30.489656925201416">
        <time>2026-08-20T09:33:19Z</time>
      </trkpt>
      <trkpt lat="59.108140468597412" lon="30.489656925201416">
        <time>2026-08-20T09:33:22Z</time>
      </trkpt>
      <trkpt lat="59.108140468597412" lon="30.489656925201416">
        <time>2026-08-20T09:33:24Z</time>
      </trkpt>
      <trkpt lat="59.108140468597412" lon="30.489656925201416">
        <time>2026-08-20T09:33:27Z</time>
      </trkpt>
      <trkpt lat="59.108140468597412" lon="30.489656925201416">
        <time>2026-08-20T09:33:29Z</time>
      </trkpt>
      <trkpt lat="59.108140468597412" lon="30.489635467529297">
        <time>2026-08-20T09:33:32Z</time>
      </trkpt>
      <trkpt lat="59.108140468597412" lon="30.489635467529297">
        <time>2026-08-20T09:33:34Z</time>
      </trkpt>
      <trkpt lat="59.108140468597412" lon="30.489635467529297">
        <time>2026-08-20T09:33:37Z</time>
      </trkpt>
      <trkpt lat="59.108140468597412" lon="30.489635467529297">
        <time>2026-08-20T09:33:39Z</time>
      </trkpt>
      <trkpt lat="59.108140468597412" lon="30.489635467529297">
        <time>2026-08-20T09:33:42Z</time>
      </trkpt>
      <trkpt lat="59.108140468597412" lon="30.489635467529297">
        <time>2026-08-20T09:33:44Z</time>
      </trkpt>
      <trkpt lat="59.108140468597412" lon="30.489635467529297">
        <time>2026-08-20T09:33:47Z</time>
      </trkpt>
      <trkpt lat="59.108140468597412" lon="30.489635467529297">
        <time>2026-08-20T09:33:49Z</time>
      </trkpt>
      <trkpt lat="59.108140468597412" lon="30.489635467529297">
        <time>2026-08-20T09:33:52Z</time>
      </trkpt>
      <trkpt lat="59.108140468597412" lon="30.489635467529297">
        <time>2026-08-20T09:33:54Z</time>
      </trkpt>
      <trkpt lat="59.108140468597412" lon="30.489635467529297">
        <time>2026-08-20T09:33:57Z</time>
      </trkpt>
      <trkpt lat="59.108140468597412" lon="30.489635467529297">
        <time>2026-08-20T09:33:59Z</time>
      </trkpt>
      <trkpt lat="59.108140468597412" lon="30.489635467529297">
        <time>2026-08-20T09:34:02Z</time>
      </trkpt>
      <trkpt lat="59.108140468597412" lon="30.489635467529297">
        <time>2026-08-20T09:34:04Z</time>
      </trkpt>
      <trkpt lat="59.108140468597412" lon="30.489635467529297">
        <time>2026-08-20T09:34:07Z</time>
      </trkpt>
      <trkpt lat="59.108140468597412" lon="30.489635467529297">
        <time>2026-08-20T09:34:09Z</time>
      </trkpt>
      <trkpt lat="59.108140468597412" lon="30.489635467529297">
        <time>2026-08-20T09:34:12Z</time>
      </trkpt>
      <trkpt lat="59.108140468597412" lon="30.489635467529297">
        <time>2026-08-20T09:34:14Z</time>
      </trkpt>
      <trkpt lat="59.108140468597412" lon="30.489614009857178">
        <time>2026-08-20T09:34:17Z</time>
      </trkpt>
      <trkpt lat="59.108140468597412" lon="30.489614009857178">
        <time>2026-08-20T09:34:19Z</time>
      </trkpt>
      <trkpt lat="59.108161926269531" lon="30.489614009857178">
        <time>2026-08-20T09:34:22Z</time>
      </trkpt>
      <trkpt lat="59.108161926269531" lon="30.489614009857178">
        <time>2026-08-20T09:34:24Z</time>
      </trkpt>
      <trkpt lat="59.108161926269531" lon="30.489571094512939">
        <time>2026-08-20T09:34:27Z</time>
      </trkpt>
      <trkpt lat="59.108161926269531" lon="30.489528179168701">
        <time>2026-08-20T09:34:29Z</time>
      </trkpt>
      <trkpt lat="59.10818338394165" lon="30.489485263824463">
        <time>2026-08-20T09:34:32Z</time>
      </trkpt>
      <trkpt lat="59.108161926269531" lon="30.489442348480225">
        <time>2026-08-20T09:34:34Z</time>
      </trkpt>
      <trkpt lat="59.108161926269531" lon="30.489399433135986">
        <time>2026-08-20T09:34:37Z</time>
      </trkpt>
      <trkpt lat="59.10818338394165" lon="30.489335060119629">
        <time>2026-08-20T09:34:39Z</time>
      </trkpt>
      <trkpt lat="59.10818338394165" lon="30.489292144775391">
        <time>2026-08-20T09:34:42Z</time>
      </trkpt>
      <trkpt lat="59.10820484161377" lon="30.489270687103271">
        <time>2026-08-20T09:34:44Z</time>
      </trkpt>
      <trkpt lat="59.10820484161377" lon="30.489227771759033">
        <time>2026-08-20T09:34:47Z</time>
      </trkpt>
      <trkpt lat="59.10820484161377" lon="30.489227771759033">
        <time>2026-08-20T09:34:49Z</time>
      </trkpt>
      <trkpt lat="59.108226299285889" lon="30.489184856414795">
        <time>2026-08-20T09:34:52Z</time>
      </trkpt>
      <trkpt lat="59.108247756958008" lon="30.489141941070557">
        <time>2026-08-20T09:34:54Z</time>
      </trkpt>
      <trkpt lat="59.108247756958008" lon="30.489120483398437">
        <time>2026-08-20T09:34:57Z</time>
      </trkpt>
      <trkpt lat="59.108226299285889" lon="30.489099025726318">
        <time>2026-08-20T09:34:59Z</time>
      </trkpt>
      <trkpt lat="59.108226299285889" lon="30.489077568054199">
        <time>2026-08-20T09:35:02Z</time>
      </trkpt>
      <trkpt lat="59.10820484161377" lon="30.48905611038208">
        <time>2026-08-20T09:35:04Z</time>
      </trkpt>
      <trkpt lat="59.10818338394165" lon="30.489034652709961">
        <time>2026-08-20T09:35:07Z</time>
      </trkpt>
      <trkpt lat="59.10818338394165" lon="30.489013195037842">
        <time>2026-08-20T09:35:09Z</time>
      </trkpt>
      <trkpt lat="59.10818338394165" lon="30.488970279693604">
        <time>2026-08-20T09:35:12Z</time>
      </trkpt>
      <trkpt lat="59.108161926269531" lon="30.488970279693604">
        <time>2026-08-20T09:35:14Z</time>
      </trkpt>
      <trkpt lat="59.108161926269531" lon="30.488970279693604">
        <time>2026-08-20T09:35:17Z</time>
      </trkpt>
      <trkpt lat="59.108140468597412" lon="30.488927364349365">
        <time>2026-08-20T09:35:19Z</time>
      </trkpt>
      <trkpt lat="59.108140468597412" lon="30.488862991333008">
        <time>2026-08-20T09:35:22Z</time>
      </trkpt>
      <trkpt lat="59.108140468597412" lon="30.48879861831665">
        <time>2026-08-20T09:35:24Z</time>
      </trkpt>
      <trkpt lat="59.108140468597412" lon="30.48879861831665">
        <time>2026-08-20T09:35:27Z</time>
      </trkpt>
      <trkpt lat="59.108119010925293" lon="30.488755702972412">
        <time>2026-08-20T09:35:29Z</time>
      </trkpt>
      <trkpt lat="59.108119010925293" lon="30.488712787628174">
        <time>2026-08-20T09:35:32Z</time>
      </trkpt>
      <trkpt lat="59.108097553253174" lon="30.488669872283936">
        <time>2026-08-20T09:35:34Z</time>
      </trkpt>
      <trkpt lat="59.108097553253174" lon="30.488669872283936">
        <time>2026-08-20T09:35:37Z</time>
      </trkpt>
      <trkpt lat="59.108097553253174" lon="30.488669872283936">
        <time>2026-08-20T09:35:39Z</time>
      </trkpt>
      <trkpt lat="59.108097553253174" lon="30.488669872283936">
        <time>2026-08-20T09:35:42Z</time>
      </trkpt>
      <trkpt lat="59.108097553253174" lon="30.488669872283936">
        <time>2026-08-20T09:35:44Z</time>
      </trkpt>
      <trkpt lat="59.108097553253174" lon="30.488626956939697">
        <time>2026-08-20T09:35:47Z</time>
      </trkpt>
      <trkpt lat="59.108097553253174" lon="30.488605499267578">
        <time>2026-08-20T09:35:49Z</time>
      </trkpt>
      <trkpt lat="59.108097553253174" lon="30.488605499267578">
        <time>2026-08-20T09:35:52Z</time>
      </trkpt>
      <trkpt lat="59.108097553253174" lon="30.488605499267578">
        <time>2026-08-20T09:35:54Z</time>
      </trkpt>
      <trkpt lat="59.108097553253174" lon="30.488584041595459">
        <time>2026-08-20T09:35:57Z</time>
      </trkpt>
      <trkpt lat="59.108076095581055" lon="30.488498210906982">
        <time>2026-08-20T09:35:59Z</time>
      </trkpt>
      <trkpt lat="59.108076095581055" lon="30.488455295562744">
        <time>2026-08-20T09:36:02Z</time>
      </trkpt>
      <trkpt lat="59.108054637908936" lon="30.488390922546387">
        <time>2026-08-20T09:36:04Z</time>
      </trkpt>
      <trkpt lat="59.108076095581055" lon="30.488348007202148">
        <time>2026-08-20T09:36:07Z</time>
      </trkpt>
      <trkpt lat="59.108054637908936" lon="30.48830509185791">
        <time>2026-08-20T09:36:09Z</time>
      </trkpt>
      <trkpt lat="59.108054637908936" lon="30.488262176513672">
        <time>2026-08-20T09:36:12Z</time>
      </trkpt>
      <trkpt lat="59.108054637908936" lon="30.488240718841553">
        <time>2026-08-20T09:36:14Z</time>
      </trkpt>
      <trkpt lat="59.108054637908936" lon="30.488240718841553">
        <time>2026-08-20T09:36:17Z</time>
      </trkpt>
      <trkpt lat="59.108054637908936" lon="30.488197803497314">
        <time>2026-08-20T09:36:19Z</time>
      </trkpt>
      <trkpt lat="59.108054637908936" lon="30.488154888153076">
        <time>2026-08-20T09:36:22Z</time>
      </trkpt>
      <trkpt lat="59.108054637908936" lon="30.488090515136719">
        <time>2026-08-20T09:36:24Z</time>
      </trkpt>
      <trkpt lat="59.108054637908936" lon="30.4880690574646">
        <time>2026-08-20T09:36:27Z</time>
      </trkpt>
      <trkpt lat="59.108054637908936" lon="30.487983226776123">
        <time>2026-08-20T09:36:29Z</time>
      </trkpt>
      <trkpt lat="59.108054637908936" lon="30.487940311431885">
        <time>2026-08-20T09:36:32Z</time>
      </trkpt>
      <trkpt lat="59.108033180236816" lon="30.487897396087646">
        <time>2026-08-20T09:36:34Z</time>
      </trkpt>
      <trkpt lat="59.108033180236816" lon="30.487875938415527">
        <time>2026-08-20T09:36:37Z</time>
      </trkpt>
      <trkpt lat="59.108011722564697" lon="30.487833023071289">
        <time>2026-08-20T09:36:39Z</time>
      </trkpt>
      <trkpt lat="59.108011722564697" lon="30.487790107727051">
        <time>2026-08-20T09:36:42Z</time>
      </trkpt>
      <trkpt lat="59.108011722564697" lon="30.487768650054932">
        <time>2026-08-20T09:36:44Z</time>
      </trkpt>
      <trkpt lat="59.108011722564697" lon="30.487725734710693">
        <time>2026-08-20T09:36:47Z</time>
      </trkpt>
      <trkpt lat="59.107990264892578" lon="30.487704277038574">
        <time>2026-08-20T09:36:49Z</time>
      </trkpt>
      <trkpt lat="59.107990264892578" lon="30.487682819366455">
        <time>2026-08-20T09:36:52Z</time>
      </trkpt>
      <trkpt lat="59.107990264892578" lon="30.487618446350098">
        <time>2026-08-20T09:36:54Z</time>
      </trkpt>
      <trkpt lat="59.107990264892578" lon="30.487575531005859">
        <time>2026-08-20T09:36:57Z</time>
      </trkpt>
      <trkpt lat="59.107990264892578" lon="30.487511157989502">
        <time>2026-08-20T09:36:59Z</time>
      </trkpt>
      <trkpt lat="59.107990264892578" lon="30.487446784973145">
        <time>2026-08-20T09:37:02Z</time>
      </trkpt>
      <trkpt lat="59.107990264892578" lon="30.487403869628906">
        <time>2026-08-20T09:37:04Z</time>
      </trkpt>
      <trkpt lat="59.107990264892578" lon="30.487360954284668">
        <time>2026-08-20T09:37:07Z</time>
      </trkpt>
      <trkpt lat="59.107990264892578" lon="30.48731803894043">
        <time>2026-08-20T09:37:09Z</time>
      </trkpt>
      <trkpt lat="59.107990264892578" lon="30.487275123596191">
        <time>2026-08-20T09:37:12Z</time>
      </trkpt>
      <trkpt lat="59.107990264892578" lon="30.487232208251953">
        <time>2026-08-20T09:37:14Z</time>
      </trkpt>
      <trkpt lat="59.107968807220459" lon="30.487189292907715">
        <time>2026-08-20T09:37:17Z</time>
      </trkpt>
      <trkpt lat="59.107968807220459" lon="30.487146377563477">
        <time>2026-08-20T09:37:19Z</time>
      </trkpt>
      <trkpt lat="59.107968807220459" lon="30.487103462219238">
        <time>2026-08-20T09:37:22Z</time>
      </trkpt>
      <trkpt lat="59.107968807220459" lon="30.487039089202881">
        <time>2026-08-20T09:37:24Z</time>
      </trkpt>
      <trkpt lat="59.107968807220459" lon="30.486996173858643">
        <time>2026-08-20T09:37:27Z</time>
      </trkpt>
      <trkpt lat="59.107968807220459" lon="30.486953258514404">
        <time>2026-08-20T09:37:29Z</time>
      </trkpt>
      <trkpt lat="59.107968807220459" lon="30.486953258514404">
        <time>2026-08-20T09:37:32Z</time>
      </trkpt>
      <trkpt lat="59.107968807220459" lon="30.486931800842285">
        <time>2026-08-20T09:37:34Z</time>
      </trkpt>
      <trkpt lat="59.107968807220459" lon="30.486931800842285">
        <time>2026-08-20T09:37:37Z</time>
      </trkpt>
      <trkpt lat="59.107968807220459" lon="30.486931800842285">
        <time>2026-08-20T09:37:39Z</time>
      </trkpt>
      <trkpt lat="59.107968807220459" lon="30.486931800842285">
        <time>2026-08-20T09:37:42Z</time>
      </trkpt>
      <trkpt lat="59.107968807220459" lon="30.486931800842285">
        <time>2026-08-20T09:37:44Z</time>
      </trkpt>
      <trkpt lat="59.107968807220459" lon="30.486931800842285">
        <time>2026-08-20T09:37:47Z</time>
      </trkpt>
      <trkpt lat="59.107968807220459" lon="30.486931800842285">
        <time>2026-08-20T09:37:49Z</time>
      </trkpt>
      <trkpt lat="59.107968807220459" lon="30.486931800842285">
        <time>2026-08-20T09:37:52Z</time>
      </trkpt>
      <trkpt lat="59.107968807220459" lon="30.486888885498047">
        <time>2026-08-20T09:37:54Z</time>
      </trkpt>
      <trkpt lat="59.107968807220459" lon="30.486845970153809">
        <time>2026-08-20T09:37:57Z</time>
      </trkpt>
      <trkpt lat="59.107968807220459" lon="30.486824512481689">
        <time>2026-08-20T09:37:59Z</time>
      </trkpt>
      <trkpt lat="59.107968807220459" lon="30.486781597137451">
        <time>2026-08-20T09:38:02Z</time>
      </trkpt>
      <trkpt lat="59.10794734954834" lon="30.486738681793213">
        <time>2026-08-20T09:38:04Z</time>
      </trkpt>
      <trkpt lat="59.10794734954834" lon="30.486674308776855">
        <time>2026-08-20T09:38:07Z</time>
      </trkpt>
      <trkpt lat="59.107968807220459" lon="30.486652851104736">
        <time>2026-08-20T09:38:09Z</time>
      </trkpt>
      <trkpt lat="59.107968807220459" lon="30.486609935760498">
        <time>2026-08-20T09:38:12Z</time>
      </trkpt>
      <trkpt lat="59.107990264892578" lon="30.486524105072021">
        <time>2026-08-20T09:38:14Z</time>
      </trkpt>
      <trkpt lat="59.107968807220459" lon="30.486481189727783">
        <time>2026-08-20T09:38:17Z</time>
      </trkpt>
      <trkpt lat="59.107968807220459" lon="30.486438274383545">
        <time>2026-08-20T09:38:19Z</time>
      </trkpt>
      <trkpt lat="59.107968807220459" lon="30.486416816711426">
        <time>2026-08-20T09:38:22Z</time>
      </trkpt>
      <trkpt lat="59.107968807220459" lon="30.486373901367188">
        <time>2026-08-20T09:38:24Z</time>
      </trkpt>
      <trkpt lat="59.107968807220459" lon="30.486352443695068">
        <time>2026-08-20T09:38:27Z</time>
      </trkpt>
      <trkpt lat="59.107968807220459" lon="30.48630952835083">
        <time>2026-08-20T09:38:29Z</time>
      </trkpt>
      <trkpt lat="59.107968807220459" lon="30.486266613006592">
        <time>2026-08-20T09:38:32Z</time>
      </trkpt>
      <trkpt lat="59.107968807220459" lon="30.486223697662354">
        <time>2026-08-20T09:38:34Z</time>
      </trkpt>
      <trkpt lat="59.107968807220459" lon="30.486180782318115">
        <time>2026-08-20T09:38:37Z</time>
      </trkpt>
      <trkpt lat="59.107968807220459" lon="30.486137866973877">
        <time>2026-08-20T09:38:39Z</time>
      </trkpt>
      <trkpt lat="59.10794734954834" lon="30.486116409301758">
        <time>2026-08-20T09:38:42Z</time>
      </trkpt>
      <trkpt lat="59.10794734954834" lon="30.48607349395752">
        <time>2026-08-20T09:38:44Z</time>
      </trkpt>
      <trkpt lat="59.107925891876221" lon="30.486030578613281">
        <time>2026-08-20T09:38:47Z</time>
      </trkpt>
      <trkpt lat="59.107925891876221" lon="30.486009120941162">
        <time>2026-08-20T09:38:49Z</time>
      </trkpt>
      <trkpt lat="59.107925891876221" lon="30.486009120941162">
        <time>2026-08-20T09:38:52Z</time>
      </trkpt>
      <trkpt lat="59.107925891876221" lon="30.485966205596924">
        <time>2026-08-20T09:38:54Z</time>
      </trkpt>
      <trkpt lat="59.107904434204102" lon="30.485923290252686">
        <time>2026-08-20T09:38:57Z</time>
      </trkpt>
      <trkpt lat="59.107904434204102" lon="30.485858917236328">
        <time>2026-08-20T09:38:59Z</time>
      </trkpt>
      <trkpt lat="59.107882976531982" lon="30.48581600189209">
        <time>2026-08-20T09:39:02Z</time>
      </trkpt>
      <trkpt lat="59.107882976531982" lon="30.485751628875732">
        <time>2026-08-20T09:39:04Z</time>
      </trkpt>
      <trkpt lat="59.107904434204102" lon="30.485730171203613">
        <time>2026-08-20T09:39:07Z</time>
      </trkpt>
      <trkpt lat="59.107882976531982" lon="30.485687255859375">
        <time>2026-08-20T09:39:09Z</time>
      </trkpt>
      <trkpt lat="59.107882976531982" lon="30.485644340515137">
        <time>2026-08-20T09:39:12Z</time>
      </trkpt>
      <trkpt lat="59.107882976531982" lon="30.485579967498779">
        <time>2026-08-20T09:39:14Z</time>
      </trkpt>
      <trkpt lat="59.107882976531982" lon="30.485537052154541">
        <time>2026-08-20T09:39:17Z</time>
      </trkpt>
      <trkpt lat="59.107882976531982" lon="30.485472679138184">
        <time>2026-08-20T09:39:19Z</time>
      </trkpt>
      <trkpt lat="59.107882976531982" lon="30.485429763793945">
        <time>2026-08-20T09:39:22Z</time>
      </trkpt>
      <trkpt lat="59.107882976531982" lon="30.485386848449707">
        <time>2026-08-20T09:39:24Z</time>
      </trkpt>
      <trkpt lat="59.107882976531982" lon="30.485343933105469">
        <time>2026-08-20T09:39:27Z</time>
      </trkpt>
      <trkpt lat="59.107882976531982" lon="30.48530101776123">
        <time>2026-08-20T09:39:29Z</time>
      </trkpt>
      <trkpt lat="59.107882976531982" lon="30.485236644744873">
        <time>2026-08-20T09:39:32Z</time>
      </trkpt>
      <trkpt lat="59.107882976531982" lon="30.485172271728516">
        <time>2026-08-20T09:39:34Z</time>
      </trkpt>
      <trkpt lat="59.107882976531982" lon="30.485150814056396">
        <time>2026-08-20T09:39:37Z</time>
      </trkpt>
      <trkpt lat="59.107882976531982" lon="30.485129356384277">
        <time>2026-08-20T09:39:39Z</time>
      </trkpt>
      <trkpt lat="59.107882976531982" lon="30.485129356384277">
        <time>2026-08-20T09:39:42Z</time>
      </trkpt>
      <trkpt lat="59.107904434204102" lon="30.48506498336792">
        <time>2026-08-20T09:39:44Z</time>
      </trkpt>
      <trkpt lat="59.107904434204102" lon="30.485022068023682">
        <time>2026-08-20T09:39:47Z</time>
      </trkpt>
      <trkpt lat="59.107904434204102" lon="30.484957695007324">
        <time>2026-08-20T09:39:49Z</time>
      </trkpt>
      <trkpt lat="59.107904434204102" lon="30.484914779663086">
        <time>2026-08-20T09:39:52Z</time>
      </trkpt>
      <trkpt lat="59.107904434204102" lon="30.484871864318848">
        <time>2026-08-20T09:39:54Z</time>
      </trkpt>
      <trkpt lat="59.107904434204102" lon="30.484850406646729">
        <time>2026-08-20T09:39:57Z</time>
      </trkpt>
      <trkpt lat="59.107882976531982" lon="30.484764575958252">
        <time>2026-08-20T09:39:59Z</time>
      </trkpt>
      <trkpt lat="59.107882976531982" lon="30.484721660614014">
        <time>2026-08-20T09:40:02Z</time>
      </trkpt>
      <trkpt lat="59.107904434204102" lon="30.484657287597656">
        <time>2026-08-20T09:40:04Z</time>
      </trkpt>
      <trkpt lat="59.107904434204102" lon="30.484614372253418">
        <time>2026-08-20T09:40:07Z</time>
      </trkpt>
      <trkpt lat="59.107904434204102" lon="30.484549999237061">
        <time>2026-08-20T09:40:09Z</time>
      </trkpt>
      <trkpt lat="59.107882976531982" lon="30.484528541564941">
        <time>2026-08-20T09:40:12Z</time>
      </trkpt>
      <trkpt lat="59.107882976531982" lon="30.484507083892822">
        <time>2026-08-20T09:40:14Z</time>
      </trkpt>
      <trkpt lat="59.107882976531982" lon="30.484507083892822">
        <time>2026-08-20T09:40:17Z</time>
      </trkpt>
      <trkpt lat="59.107882976531982" lon="30.484464168548584">
        <time>2026-08-20T09:40:19Z</time>
      </trkpt>
      <trkpt lat="59.107882976531982" lon="30.484421253204346">
        <time>2026-08-20T09:40:22Z</time>
      </trkpt>
      <trkpt lat="59.107861518859863" lon="30.484399795532227">
        <time>2026-08-20T09:40:24Z</time>
      </trkpt>
      <trkpt lat="59.107840061187744" lon="30.484356880187988">
        <time>2026-08-20T09:40:27Z</time>
      </trkpt>
      <trkpt lat="59.107861518859863" lon="30.484356880187988">
        <time>2026-08-20T09:40:29Z</time>
      </trkpt>
      <trkpt lat="59.107840061187744" lon="30.484335422515869">
        <time>2026-08-20T09:40:32Z</time>
      </trkpt>
      <trkpt lat="59.107818603515625" lon="30.48431396484375">
        <time>2026-08-20T09:40:34Z</time>
      </trkpt>
      <trkpt lat="59.107818603515625" lon="30.484271049499512">
        <time>2026-08-20T09:40:37Z</time>
      </trkpt>
      <trkpt lat="59.107818603515625" lon="30.484249591827393">
        <time>2026-08-20T09:40:39Z</time>
      </trkpt>
      <trkpt lat="59.107797145843506" lon="30.484206676483154">
        <time>2026-08-20T09:40:42Z</time>
      </trkpt>
      <trkpt lat="59.107797145843506" lon="30.484185218811035">
        <time>2026-08-20T09:40:44Z</time>
      </trkpt>
      <trkpt lat="59.107797145843506" lon="30.484142303466797">
        <time>2026-08-20T09:40:47Z</time>
      </trkpt>
      <trkpt lat="59.107797145843506" lon="30.484099388122559">
        <time>2026-08-20T09:40:49Z</time>
      </trkpt>
      <trkpt lat="59.107797145843506" lon="30.484099388122559">
        <time>2026-08-20T09:40:52Z</time>
      </trkpt>
      <trkpt lat="59.107797145843506" lon="30.484077930450439">
        <time>2026-08-20T09:40:54Z</time>
      </trkpt>
      <trkpt lat="59.107797145843506" lon="30.484035015106201">
        <time>2026-08-20T09:40:57Z</time>
      </trkpt>
      <trkpt lat="59.107818603515625" lon="30.483970642089844">
        <time>2026-08-20T09:40:59Z</time>
      </trkpt>
      <trkpt lat="59.107818603515625" lon="30.483949184417725">
        <time>2026-08-20T09:41:02Z</time>
      </trkpt>
      <trkpt lat="59.107797145843506" lon="30.483927726745605">
        <time>2026-08-20T09:41:04Z</time>
      </trkpt>
      <trkpt lat="59.107797145843506" lon="30.483927726745605">
        <time>2026-08-20T09:41:07Z</time>
      </trkpt>
      <trkpt lat="59.107797145843506" lon="30.483927726745605">
        <time>2026-08-20T09:41:09Z</time>
      </trkpt>
      <trkpt lat="59.107797145843506" lon="30.483927726745605">
        <time>2026-08-20T09:41:12Z</time>
      </trkpt>
      <trkpt lat="59.107797145843506" lon="30.483927726745605">
        <time>2026-08-20T09:41:14Z</time>
      </trkpt>
      <trkpt lat="59.107775688171387" lon="30.483927726745605">
        <time>2026-08-20T09:41:17Z</time>
      </trkpt>
      <trkpt lat="59.107754230499268" lon="30.483906269073486">
        <time>2026-08-20T09:41:19Z</time>
      </trkpt>
      <trkpt lat="59.107754230499268" lon="30.483906269073486">
        <time>2026-08-20T09:41:22Z</time>
      </trkpt>
      <trkpt lat="59.107754230499268" lon="30.483906269073486">
        <time>2026-08-20T09:41:24Z</time>
      </trkpt>
      <trkpt lat="59.107754230499268" lon="30.483906269073486">
        <time>2026-08-20T09:41:27Z</time>
      </trkpt>
      <trkpt lat="59.107754230499268" lon="30.483906269073486">
        <time>2026-08-20T09:41:29Z</time>
      </trkpt>
      <trkpt lat="59.107754230499268" lon="30.483906269073486">
        <time>2026-08-20T09:41:32Z</time>
      </trkpt>
      <trkpt lat="59.107754230499268" lon="30.483906269073486">
        <time>2026-08-20T09:41:34Z</time>
      </trkpt>
      <trkpt lat="59.107754230499268" lon="30.483906269073486">
        <time>2026-08-20T09:41:37Z</time>
      </trkpt>
      <trkpt lat="59.107754230499268" lon="30.483906269073486">
        <time>2026-08-20T09:41:39Z</time>
      </trkpt>
      <trkpt lat="59.107754230499268" lon="30.483906269073486">
        <time>2026-08-20T09:41:42Z</time>
      </trkpt>
      <trkpt lat="59.107754230499268" lon="30.483906269073486">
        <time>2026-08-20T09:41:44Z</time>
      </trkpt>
      <trkpt lat="59.107754230499268" lon="30.483906269073486">
        <time>2026-08-20T09:41:47Z</time>
      </trkpt>
      <trkpt lat="59.107754230499268" lon="30.483906269073486">
        <time>2026-08-20T09:41:49Z</time>
      </trkpt>
      <trkpt lat="59.107754230499268" lon="30.483906269073486">
        <time>2026-08-20T09:41:52Z</time>
      </trkpt>
      <trkpt lat="59.107754230499268" lon="30.483906269073486">
        <time>2026-08-20T09:41:54Z</time>
      </trkpt>
      <trkpt lat="59.107754230499268" lon="30.483906269073486">
        <time>2026-08-20T09:41:57Z</time>
      </trkpt>
      <trkpt lat="59.107754230499268" lon="30.483906269073486">
        <time>2026-08-20T09:41:59Z</time>
      </trkpt>
      <trkpt lat="59.107754230499268" lon="30.483906269073486">
        <time>2026-08-20T09:42:02Z</time>
      </trkpt>
      <trkpt lat="59.107754230499268" lon="30.483906269073486">
        <time>2026-08-20T09:42:04Z</time>
      </trkpt>
      <trkpt lat="59.107754230499268" lon="30.483906269073486">
        <time>2026-08-20T09:42:07Z</time>
      </trkpt>
      <trkpt lat="59.107754230499268" lon="30.483906269073486">
        <time>2026-08-20T09:42:09Z</time>
      </trkpt>
      <trkpt lat="59.107754230499268" lon="30.483906269073486">
        <time>2026-08-20T09:42:12Z</time>
      </trkpt>
      <trkpt lat="59.107754230499268" lon="30.483884811401367">
        <time>2026-08-20T09:42:14Z</time>
      </trkpt>
      <trkpt lat="59.107754230499268" lon="30.483884811401367">
        <time>2026-08-20T09:42:17Z</time>
      </trkpt>
      <trkpt lat="59.107754230499268" lon="30.483884811401367">
        <time>2026-08-20T09:42:19Z</time>
      </trkpt>
      <trkpt lat="59.107754230499268" lon="30.483884811401367">
        <time>2026-08-20T09:42:22Z</time>
      </trkpt>
      <trkpt lat="59.107754230499268" lon="30.483884811401367">
        <time>2026-08-20T09:42:24Z</time>
      </trkpt>
      <trkpt lat="59.107754230499268" lon="30.483884811401367">
        <time>2026-08-20T09:42:27Z</time>
      </trkpt>
      <trkpt lat="59.107797145843506" lon="30.483863353729248">
        <time>2026-08-20T09:42:29Z</time>
      </trkpt>
      <trkpt lat="59.107840061187744" lon="30.483863353729248">
        <time>2026-08-20T09:42:32Z</time>
      </trkpt>
      <trkpt lat="59.107861518859863" lon="30.483863353729248">
        <time>2026-08-20T09:42:37Z</time>
      </trkpt>
      <trkpt lat="59.107861518859863" lon="30.483863353729248">
        <time>2026-08-20T09:42:39Z</time>
      </trkpt>
      <trkpt lat="59.107882976531982" lon="30.483863353729248">
        <time>2026-08-20T09:42:42Z</time>
      </trkpt>
      <trkpt lat="59.107925891876221" lon="30.483841896057129">
        <time>2026-08-20T09:42:44Z</time>
      </trkpt>
      <trkpt lat="59.10794734954834" lon="30.483841896057129">
        <time>2026-08-20T09:42:47Z</time>
      </trkpt>
      <trkpt lat="59.107968807220459" lon="30.483841896057129">
        <time>2026-08-20T09:42:49Z</time>
      </trkpt>
      <trkpt lat="59.107968807220459" lon="30.483841896057129">
        <time>2026-08-20T09:42:52Z</time>
      </trkpt>
      <trkpt lat="59.107968807220459" lon="30.483841896057129">
        <time>2026-08-20T09:42:54Z</time>
      </trkpt>
      <trkpt lat="59.107968807220459" lon="30.483841896057129">
        <time>2026-08-20T09:42:57Z</time>
      </trkpt>
      <trkpt lat="59.107968807220459" lon="30.483841896057129">
        <time>2026-08-20T09:42:59Z</time>
      </trkpt>
      <trkpt lat="59.107968807220459" lon="30.483841896057129">
        <time>2026-08-20T09:43:02Z</time>
      </trkpt>
      <trkpt lat="59.107968807220459" lon="30.483841896057129">
        <time>2026-08-20T09:43:04Z</time>
      </trkpt>
      <trkpt lat="59.107968807220459" lon="30.483841896057129">
        <time>2026-08-20T09:43:07Z</time>
      </trkpt>
      <trkpt lat="59.107968807220459" lon="30.483841896057129">
        <time>2026-08-20T09:43:09Z</time>
      </trkpt>
      <trkpt lat="59.107968807220459" lon="30.483841896057129">
        <time>2026-08-20T09:43:12Z</time>
      </trkpt>
      <trkpt lat="59.108011722564697" lon="30.48382043838501">
        <time>2026-08-20T09:43:14Z</time>
      </trkpt>
      <trkpt lat="59.108011722564697" lon="30.48382043838501">
        <time>2026-08-20T09:43:17Z</time>
      </trkpt>
      <trkpt lat="59.108011722564697" lon="30.48382043838501">
        <time>2026-08-20T09:43:19Z</time>
      </trkpt>
      <trkpt lat="59.108011722564697" lon="30.48382043838501">
        <time>2026-08-20T09:43:22Z</time>
      </trkpt>
      <trkpt lat="59.108011722564697" lon="30.48382043838501">
        <time>2026-08-20T09:43:24Z</time>
      </trkpt>
      <trkpt lat="59.108054637908936" lon="30.48382043838501">
        <time>2026-08-20T09:43:27Z</time>
      </trkpt>
      <trkpt lat="59.108097553253174" lon="30.483798980712891">
        <time>2026-08-20T09:43:29Z</time>
      </trkpt>
      <trkpt lat="59.108161926269531" lon="30.483777523040771">
        <time>2026-08-20T09:43:32Z</time>
      </trkpt>
      <trkpt lat="59.10820484161377" lon="30.483756065368652">
        <time>2026-08-20T09:43:34Z</time>
      </trkpt>
      <trkpt lat="59.108226299285889" lon="30.483734607696533">
        <time>2026-08-20T09:43:37Z</time>
      </trkpt>
      <trkpt lat="59.108247756958008" lon="30.483734607696533">
        <time>2026-08-20T09:43:39Z</time>
      </trkpt>
      <trkpt lat="59.108247756958008" lon="30.483734607696533">
        <time>2026-08-20T09:43:42Z</time>
      </trkpt>
      <trkpt lat="59.108269214630127" lon="30.483734607696533">
        <time>2026-08-20T09:43:44Z</time>
      </trkpt>
      <trkpt lat="59.108312129974365" lon="30.483734607696533">
        <time>2026-08-20T09:43:47Z</time>
      </trkpt>
      <trkpt lat="59.108355045318604" lon="30.483713150024414">
        <time>2026-08-20T09:43:49Z</time>
      </trkpt>
      <trkpt lat="59.108397960662842" lon="30.483713150024414">
        <time>2026-08-20T09:43:52Z</time>
      </trkpt>
      <trkpt lat="59.108419418334961" lon="30.483713150024414">
        <time>2026-08-20T09:43:54Z</time>
      </trkpt>
      <trkpt lat="59.108462333679199" lon="30.483734607696533">
        <time>2026-08-20T09:43:57Z</time>
      </trkpt>
      <trkpt lat="59.108483791351318" lon="30.483713150024414">
        <time>2026-08-20T09:44:02Z</time>
      </trkpt>
      <trkpt lat="59.108526706695557" lon="30.483713150024414">
        <time>2026-08-20T09:44:04Z</time>
      </trkpt>
      <trkpt lat="59.108569622039795" lon="30.483713150024414">
        <time>2026-08-20T09:44:07Z</time>
      </trkpt>
      <trkpt lat="59.108612537384033" lon="30.483734607696533">
        <time>2026-08-20T09:44:09Z</time>
      </trkpt>
      <trkpt lat="59.108612537384033" lon="30.483734607696533">
        <time>2026-08-20T09:44:12Z</time>
      </trkpt>
      <trkpt lat="59.108633995056152" lon="30.483734607696533">
        <time>2026-08-20T09:44:14Z</time>
      </trkpt>
      <trkpt lat="59.108633995056152" lon="30.483734607696533">
        <time>2026-08-20T09:44:17Z</time>
      </trkpt>
      <trkpt lat="59.108655452728271" lon="30.483713150024414">
        <time>2026-08-20T09:44:19Z</time>
      </trkpt>
      <trkpt lat="59.108676910400391" lon="30.483713150024414">
        <time>2026-08-20T09:44:22Z</time>
      </trkpt>
      <trkpt lat="59.10869836807251" lon="30.483691692352295">
        <time>2026-08-20T09:44:24Z</time>
      </trkpt>
      <trkpt lat="59.108719825744629" lon="30.483670234680176">
        <time>2026-08-20T09:44:27Z</time>
      </trkpt>
      <trkpt lat="59.108741283416748" lon="30.483670234680176">
        <time>2026-08-20T09:44:29Z</time>
      </trkpt>
      <trkpt lat="59.108741283416748" lon="30.483670234680176">
        <time>2026-08-20T09:44:32Z</time>
      </trkpt>
      <trkpt lat="59.108784198760986" lon="30.483648777008057">
        <time>2026-08-20T09:44:34Z</time>
      </trkpt>
      <trkpt lat="59.108805656433105" lon="30.483648777008057">
        <time>2026-08-20T09:44:37Z</time>
      </trkpt>
      <trkpt lat="59.108827114105225" lon="30.483605861663818">
        <time>2026-08-20T09:44:39Z</time>
      </trkpt>
      <trkpt lat="59.108827114105225" lon="30.483605861663818">
        <time>2026-08-20T09:44:42Z</time>
      </trkpt>
      <trkpt lat="59.108827114105225" lon="30.483605861663818">
        <time>2026-08-20T09:44:44Z</time>
      </trkpt>
      <trkpt lat="59.108827114105225" lon="30.483605861663818">
        <time>2026-08-20T09:44:47Z</time>
      </trkpt>
      <trkpt lat="59.108848571777344" lon="30.483605861663818">
        <time>2026-08-20T09:44:49Z</time>
      </trkpt>
      <trkpt lat="59.108891487121582" lon="30.483584403991699">
        <time>2026-08-20T09:44:52Z</time>
      </trkpt>
      <trkpt lat="59.108955860137939" lon="30.483584403991699">
        <time>2026-08-20T09:44:54Z</time>
      </trkpt>
      <trkpt lat="59.108955860137939" lon="30.483541488647461">
        <time>2026-08-20T09:44:57Z</time>
      </trkpt>
      <trkpt lat="59.108977317810059" lon="30.483520030975342">
        <time>2026-08-20T09:44:59Z</time>
      </trkpt>
      <trkpt lat="59.108977317810059" lon="30.483520030975342">
        <time>2026-08-20T09:45:02Z</time>
      </trkpt>
      <trkpt lat="59.108998775482178" lon="30.483520030975342">
        <time>2026-08-20T09:45:04Z</time>
      </trkpt>
      <trkpt lat="59.108998775482178" lon="30.483520030975342">
        <time>2026-08-20T09:45:07Z</time>
      </trkpt>
      <trkpt lat="59.109041690826416" lon="30.483477115631104">
        <time>2026-08-20T09:45:09Z</time>
      </trkpt>
      <trkpt lat="59.109041690826416" lon="30.483477115631104">
        <time>2026-08-20T09:45:12Z</time>
      </trkpt>
      <trkpt lat="59.109063148498535" lon="30.483498573303223">
        <time>2026-08-20T09:45:14Z</time>
      </trkpt>
      <trkpt lat="59.109084606170654" lon="30.483498573303223">
        <time>2026-08-20T09:45:17Z</time>
      </trkpt>
      <trkpt lat="59.109127521514893" lon="30.483477115631104">
        <time>2026-08-20T09:45:19Z</time>
      </trkpt>
      <trkpt lat="59.109148979187012" lon="30.483455657958984">
        <time>2026-08-20T09:45:22Z</time>
      </trkpt>
      <trkpt lat="59.109170436859131" lon="30.483477115631104">
        <time>2026-08-20T09:45:24Z</time>
      </trkpt>
      <trkpt lat="59.109170436859131" lon="30.483477115631104">
        <time>2026-08-20T09:45:27Z</time>
      </trkpt>
      <trkpt lat="59.109170436859131" lon="30.483477115631104">
        <time>2026-08-20T09:45:29Z</time>
      </trkpt>
      <trkpt lat="59.10919189453125" lon="30.483477115631104">
        <time>2026-08-20T09:45:32Z</time>
      </trkpt>
      <trkpt lat="59.109234809875488" lon="30.483455657958984">
        <time>2026-08-20T09:45:34Z</time>
      </trkpt>
      <trkpt lat="59.109256267547607" lon="30.483455657958984">
        <time>2026-08-20T09:45:37Z</time>
      </trkpt>
      <trkpt lat="59.109256267547607" lon="30.483455657958984">
        <time>2026-08-20T09:45:39Z</time>
      </trkpt>
      <trkpt lat="59.109277725219727" lon="30.483455657958984">
        <time>2026-08-20T09:45:42Z</time>
      </trkpt>
      <trkpt lat="59.109277725219727" lon="30.483455657958984">
        <time>2026-08-20T09:45:44Z</time>
      </trkpt>
      <trkpt lat="59.109277725219727" lon="30.483455657958984">
        <time>2026-08-20T09:45:47Z</time>
      </trkpt>
      <trkpt lat="59.109299182891846" lon="30.483498573303223">
        <time>2026-08-20T09:45:49Z</time>
      </trkpt>
      <trkpt lat="59.109299182891846" lon="30.483498573303223">
        <time>2026-08-20T09:45:52Z</time>
      </trkpt>
      <trkpt lat="59.109299182891846" lon="30.483498573303223">
        <time>2026-08-20T09:45:54Z</time>
      </trkpt>
      <trkpt lat="59.109320640563965" lon="30.483477115631104">
        <time>2026-08-20T09:45:57Z</time>
      </trkpt>
      <trkpt lat="59.109342098236084" lon="30.483477115631104">
        <time>2026-08-20T09:45:59Z</time>
      </trkpt>
      <trkpt lat="59.109363555908203" lon="30.483455657958984">
        <time>2026-08-20T09:46:02Z</time>
      </trkpt>
      <trkpt lat="59.109363555908203" lon="30.483434200286865">
        <time>2026-08-20T09:46:04Z</time>
      </trkpt>
      <trkpt lat="59.109385013580322" lon="30.483391284942627">
        <time>2026-08-20T09:46:07Z</time>
      </trkpt>
      <trkpt lat="59.109385013580322" lon="30.483391284942627">
        <time>2026-08-20T09:46:09Z</time>
      </trkpt>
      <trkpt lat="59.109385013580322" lon="30.483412742614746">
        <time>2026-08-20T09:46:12Z</time>
      </trkpt>
      <trkpt lat="59.109385013580322" lon="30.483412742614746">
        <time>2026-08-20T09:46:14Z</time>
      </trkpt>
      <trkpt lat="59.109406471252441" lon="30.483412742614746">
        <time>2026-08-20T09:46:17Z</time>
      </trkpt>
      <trkpt lat="59.109427928924561" lon="30.483391284942627">
        <time>2026-08-20T09:46:19Z</time>
      </trkpt>
      <trkpt lat="59.10944938659668" lon="30.483412742614746">
        <time>2026-08-20T09:46:22Z</time>
      </trkpt>
      <trkpt lat="59.109470844268799" lon="30.483412742614746">
        <time>2026-08-20T09:46:24Z</time>
      </trkpt>
      <trkpt lat="59.109492301940918" lon="30.483412742614746">
        <time>2026-08-20T09:46:27Z</time>
      </trkpt>
      <trkpt lat="59.109492301940918" lon="30.483391284942627">
        <time>2026-08-20T09:46:29Z</time>
      </trkpt>
      <trkpt lat="59.109513759613037" lon="30.483412742614746">
        <time>2026-08-20T09:46:32Z</time>
      </trkpt>
      <trkpt lat="59.109535217285156" lon="30.483412742614746">
        <time>2026-08-20T09:46:34Z</time>
      </trkpt>
      <trkpt lat="59.109556674957275" lon="30.483391284942627">
        <time>2026-08-20T09:46:37Z</time>
      </trkpt>
      <trkpt lat="59.109578132629395" lon="30.483391284942627">
        <time>2026-08-20T09:46:39Z</time>
      </trkpt>
      <trkpt lat="59.109599590301514" lon="30.483391284942627">
        <time>2026-08-20T09:46:42Z</time>
      </trkpt>
      <trkpt lat="59.109621047973633" lon="30.483391284942627">
        <time>2026-08-20T09:46:44Z</time>
      </trkpt>
      <trkpt lat="59.109621047973633" lon="30.483391284942627">
        <time>2026-08-20T09:46:47Z</time>
      </trkpt>
      <trkpt lat="59.109642505645752" lon="30.483412742614746">
        <time>2026-08-20T09:46:49Z</time>
      </trkpt>
      <trkpt lat="59.109642505645752" lon="30.483391284942627">
        <time>2026-08-20T09:46:52Z</time>
      </trkpt>
      <trkpt lat="59.109663963317871" lon="30.483412742614746">
        <time>2026-08-20T09:46:54Z</time>
      </trkpt>
      <trkpt lat="59.10968542098999" lon="30.483391284942627">
        <time>2026-08-20T09:46:57Z</time>
      </trkpt>
      <trkpt lat="59.109706878662109" lon="30.483369827270508">
        <time>2026-08-20T09:46:59Z</time>
      </trkpt>
      <trkpt lat="59.109728336334229" lon="30.483348369598389">
        <time>2026-08-20T09:47:02Z</time>
      </trkpt>
      <trkpt lat="59.109728336334229" lon="30.483348369598389">
        <time>2026-08-20T09:47:04Z</time>
      </trkpt>
      <trkpt lat="59.109728336334229" lon="30.483348369598389">
        <time>2026-08-20T09:47:07Z</time>
      </trkpt>
      <trkpt lat="59.109749794006348" lon="30.48332691192627">
        <time>2026-08-20T09:47:09Z</time>
      </trkpt>
      <trkpt lat="59.109771251678467" lon="30.48330545425415">
        <time>2026-08-20T09:47:12Z</time>
      </trkpt>
      <trkpt lat="59.109771251678467" lon="30.48330545425415">
        <time>2026-08-20T09:47:14Z</time>
      </trkpt>
      <trkpt lat="59.109771251678467" lon="30.48330545425415">
        <time>2026-08-20T09:47:17Z</time>
      </trkpt>
      <trkpt lat="59.109771251678467" lon="30.48332691192627">
        <time>2026-08-20T09:47:19Z</time>
      </trkpt>
      <trkpt lat="59.109749794006348" lon="30.483348369598389">
        <time>2026-08-20T09:47:22Z</time>
      </trkpt>
      <trkpt lat="59.109749794006348" lon="30.483283996582031">
        <time>2026-08-20T09:47:24Z</time>
      </trkpt>
      <trkpt lat="59.109749794006348" lon="30.483283996582031">
        <time>2026-08-20T09:47:27Z</time>
      </trkpt>
      <trkpt lat="59.109771251678467" lon="30.483283996582031">
        <time>2026-08-20T09:47:29Z</time>
      </trkpt>
      <trkpt lat="59.109792709350586" lon="30.483283996582031">
        <time>2026-08-20T09:47:32Z</time>
      </trkpt>
      <trkpt lat="59.109792709350586" lon="30.483241081237793">
        <time>2026-08-20T09:47:34Z</time>
      </trkpt>
      <trkpt lat="59.109814167022705" lon="30.483219623565674">
        <time>2026-08-20T09:47:37Z</time>
      </trkpt>
      <trkpt lat="59.109814167022705" lon="30.483219623565674">
        <time>2026-08-20T09:47:39Z</time>
      </trkpt>
      <trkpt lat="59.109835624694824" lon="30.483241081237793">
        <time>2026-08-20T09:47:42Z</time>
      </trkpt>
      <trkpt lat="59.109857082366943" lon="30.483283996582031">
        <time>2026-08-20T09:47:44Z</time>
      </trkpt>
      <trkpt lat="59.109857082366943" lon="30.48330545425415">
        <time>2026-08-20T09:47:47Z</time>
      </trkpt>
      <trkpt lat="59.109835624694824" lon="30.48330545425415">
        <time>2026-08-20T09:47:49Z</time>
      </trkpt>
      <trkpt lat="59.109835624694824" lon="30.48330545425415">
        <time>2026-08-20T09:47:52Z</time>
      </trkpt>
      <trkpt lat="59.109835624694824" lon="30.48330545425415">
        <time>2026-08-20T09:47:54Z</time>
      </trkpt>
      <trkpt lat="59.109835624694824" lon="30.48330545425415">
        <time>2026-08-20T09:47:57Z</time>
      </trkpt>
      <trkpt lat="59.109878540039063" lon="30.48330545425415">
        <time>2026-08-20T09:47:59Z</time>
      </trkpt>
      <trkpt lat="59.109878540039063" lon="30.48330545425415">
        <time>2026-08-20T09:48:02Z</time>
      </trkpt>
      <trkpt lat="59.109921455383301" lon="30.48330545425415">
        <time>2026-08-20T09:48:04Z</time>
      </trkpt>
      <trkpt lat="59.109964370727539" lon="30.48332691192627">
        <time>2026-08-20T09:48:07Z</time>
      </trkpt>
      <trkpt lat="59.110007286071777" lon="30.48330545425415">
        <time>2026-08-20T09:48:09Z</time>
      </trkpt>
      <trkpt lat="59.110028743743896" lon="30.48330545425415">
        <time>2026-08-20T09:48:12Z</time>
      </trkpt>
      <trkpt lat="59.110050201416016" lon="30.48330545425415">
        <time>2026-08-20T09:48:14Z</time>
      </trkpt>
      <trkpt lat="59.110050201416016" lon="30.48330545425415">
        <time>2026-08-20T09:48:17Z</time>
      </trkpt>
      <trkpt lat="59.110071659088135" lon="30.483283996582031">
        <time>2026-08-20T09:48:19Z</time>
      </trkpt>
      <trkpt lat="59.110093116760254" lon="30.483283996582031">
        <time>2026-08-20T09:48:22Z</time>
      </trkpt>
      <trkpt lat="59.110114574432373" lon="30.483283996582031">
        <time>2026-08-20T09:48:24Z</time>
      </trkpt>
      <trkpt lat="59.110136032104492" lon="30.483262538909912">
        <time>2026-08-20T09:48:27Z</time>
      </trkpt>
      <trkpt lat="59.11017894744873" lon="30.483262538909912">
        <time>2026-08-20T09:48:29Z</time>
      </trkpt>
      <trkpt lat="59.11017894744873" lon="30.483262538909912">
        <time>2026-08-20T09:48:32Z</time>
      </trkpt>
      <trkpt lat="59.110221862792969" lon="30.483241081237793">
        <time>2026-08-20T09:48:34Z</time>
      </trkpt>
      <trkpt lat="59.110221862792969" lon="30.483262538909912">
        <time>2026-08-20T09:48:37Z</time>
      </trkpt>
      <trkpt lat="59.110243320465088" lon="30.483262538909912">
        <time>2026-08-20T09:48:39Z</time>
      </trkpt>
      <trkpt lat="59.110243320465088" lon="30.483262538909912">
        <time>2026-08-20T09:48:42Z</time>
      </trkpt>
      <trkpt lat="59.110264778137207" lon="30.483241081237793">
        <time>2026-08-20T09:48:44Z</time>
      </trkpt>
      <trkpt lat="59.110286235809326" lon="30.483241081237793">
        <time>2026-08-20T09:48:47Z</time>
      </trkpt>
      <trkpt lat="59.110286235809326" lon="30.483241081237793">
        <time>2026-08-20T09:48:49Z</time>
      </trkpt>
      <trkpt lat="59.110286235809326" lon="30.483241081237793">
        <time>2026-08-20T09:48:52Z</time>
      </trkpt>
      <trkpt lat="59.110286235809326" lon="30.483241081237793">
        <time>2026-08-20T09:48:54Z</time>
      </trkpt>
      <trkpt lat="59.110286235809326" lon="30.483241081237793">
        <time>2026-08-20T09:48:57Z</time>
      </trkpt>
      <trkpt lat="59.110307693481445" lon="30.483241081237793">
        <time>2026-08-20T09:48:59Z</time>
      </trkpt>
      <trkpt lat="59.110307693481445" lon="30.483262538909912">
        <time>2026-08-20T09:49:02Z</time>
      </trkpt>
      <trkpt lat="59.110329151153564" lon="30.483241081237793">
        <time>2026-08-20T09:49:04Z</time>
      </trkpt>
      <trkpt lat="59.110350608825684" lon="30.483219623565674">
        <time>2026-08-20T09:49:07Z</time>
      </trkpt>
      <trkpt lat="59.110393524169922" lon="30.483219623565674">
        <time>2026-08-20T09:49:09Z</time>
      </trkpt>
      <trkpt lat="59.110414981842041" lon="30.483198165893555">
        <time>2026-08-20T09:49:12Z</time>
      </trkpt>
      <trkpt lat="59.11043643951416" lon="30.483198165893555">
        <time>2026-08-20T09:49:14Z</time>
      </trkpt>
      <trkpt lat="59.110457897186279" lon="30.483198165893555">
        <time>2026-08-20T09:49:17Z</time>
      </trkpt>
      <trkpt lat="59.110457897186279" lon="30.483198165893555">
        <time>2026-08-20T09:49:19Z</time>
      </trkpt>
      <trkpt lat="59.110479354858398" lon="30.483198165893555">
        <time>2026-08-20T09:49:22Z</time>
      </trkpt>
      <trkpt lat="59.110479354858398" lon="30.483198165893555">
        <time>2026-08-20T09:49:24Z</time>
      </trkpt>
      <trkpt lat="59.110479354858398" lon="30.483198165893555">
        <time>2026-08-20T09:49:27Z</time>
      </trkpt>
      <trkpt lat="59.110500812530518" lon="30.483198165893555">
        <time>2026-08-20T09:49:29Z</time>
      </trkpt>
      <trkpt lat="59.110500812530518" lon="30.483198165893555">
        <time>2026-08-20T09:49:32Z</time>
      </trkpt>
      <trkpt lat="59.110522270202637" lon="30.483176708221436">
        <time>2026-08-20T09:49:34Z</time>
      </trkpt>
      <trkpt lat="59.110543727874756" lon="30.483155250549316">
        <time>2026-08-20T09:49:37Z</time>
      </trkpt>
      <trkpt lat="59.110608100891113" lon="30.483155250549316">
        <time>2026-08-20T09:49:39Z</time>
      </trkpt>
      <trkpt lat="59.110629558563232" lon="30.483155250549316">
        <time>2026-08-20T09:49:42Z</time>
      </trkpt>
      <trkpt lat="59.110629558563232" lon="30.483155250549316">
        <time>2026-08-20T09:49:44Z</time>
      </trkpt>
      <trkpt lat="59.110651016235352" lon="30.483133792877197">
        <time>2026-08-20T09:49:47Z</time>
      </trkpt>
      <trkpt lat="59.110651016235352" lon="30.483155250549316">
        <time>2026-08-20T09:49:49Z</time>
      </trkpt>
      <trkpt lat="59.110651016235352" lon="30.483155250549316">
        <time>2026-08-20T09:49:52Z</time>
      </trkpt>
      <trkpt lat="59.110715389251709" lon="30.483133792877197">
        <time>2026-08-20T09:49:54Z</time>
      </trkpt>
      <trkpt lat="59.110736846923828" lon="30.483112335205078">
        <time>2026-08-20T09:49:57Z</time>
      </trkpt>
      <trkpt lat="59.110779762268066" lon="30.483112335205078">
        <time>2026-08-20T09:49:59Z</time>
      </trkpt>
      <trkpt lat="59.110779762268066" lon="30.483112335205078">
        <time>2026-08-20T09:50:02Z</time>
      </trkpt>
      <trkpt lat="59.110801219940186" lon="30.483112335205078">
        <time>2026-08-20T09:50:04Z</time>
      </trkpt>
      <trkpt lat="59.110822677612305" lon="30.483133792877197">
        <time>2026-08-20T09:50:07Z</time>
      </trkpt>
      <trkpt lat="59.110865592956543" lon="30.483112335205078">
        <time>2026-08-20T09:50:09Z</time>
      </trkpt>
      <trkpt lat="59.110887050628662" lon="30.483090877532959">
        <time>2026-08-20T09:50:12Z</time>
      </trkpt>
      <trkpt lat="59.1109299659729" lon="30.48306941986084">
        <time>2026-08-20T09:50:14Z</time>
      </trkpt>
      <trkpt lat="59.11095142364502" lon="30.483090877532959">
        <time>2026-08-20T09:50:17Z</time>
      </trkpt>
      <trkpt lat="59.110994338989258" lon="30.48306941986084">
        <time>2026-08-20T09:50:19Z</time>
      </trkpt>
      <trkpt lat="59.111015796661377" lon="30.48306941986084">
        <time>2026-08-20T09:50:22Z</time>
      </trkpt>
      <trkpt lat="59.111037254333496" lon="30.483090877532959">
        <time>2026-08-20T09:50:24Z</time>
      </trkpt>
      <trkpt lat="59.111037254333496" lon="30.483090877532959">
        <time>2026-08-20T09:50:27Z</time>
      </trkpt>
      <trkpt lat="59.111058712005615" lon="30.48306941986084">
        <time>2026-08-20T09:50:29Z</time>
      </trkpt>
      <trkpt lat="59.111101627349854" lon="30.48306941986084">
        <time>2026-08-20T09:50:32Z</time>
      </trkpt>
      <trkpt lat="59.111144542694092" lon="30.483047962188721">
        <time>2026-08-20T09:50:34Z</time>
      </trkpt>
      <trkpt lat="59.111166000366211" lon="30.483005046844482">
        <time>2026-08-20T09:50:37Z</time>
      </trkpt>
      <trkpt lat="59.111166000366211" lon="30.483005046844482">
        <time>2026-08-20T09:50:39Z</time>
      </trkpt>
      <trkpt lat="59.111166000366211" lon="30.483005046844482">
        <time>2026-08-20T09:50:42Z</time>
      </trkpt>
      <trkpt lat="59.111208915710449" lon="30.483005046844482">
        <time>2026-08-20T09:50:44Z</time>
      </trkpt>
      <trkpt lat="59.111230373382568" lon="30.483005046844482">
        <time>2026-08-20T09:50:47Z</time>
      </trkpt>
      <trkpt lat="59.111230373382568" lon="30.483005046844482">
        <time>2026-08-20T09:50:49Z</time>
      </trkpt>
      <trkpt lat="59.111230373382568" lon="30.483005046844482">
        <time>2026-08-20T09:50:52Z</time>
      </trkpt>
      <trkpt lat="59.111251831054688" lon="30.483005046844482">
        <time>2026-08-20T09:50:54Z</time>
      </trkpt>
      <trkpt lat="59.111251831054688" lon="30.482983589172363">
        <time>2026-08-20T09:50:57Z</time>
      </trkpt>
      <trkpt lat="59.111230373382568" lon="30.482940673828125">
        <time>2026-08-20T09:50:59Z</time>
      </trkpt>
      <trkpt lat="59.111230373382568" lon="30.482940673828125">
        <time>2026-08-20T09:51:02Z</time>
      </trkpt>
      <trkpt lat="59.111230373382568" lon="30.482940673828125">
        <time>2026-08-20T09:51:04Z</time>
      </trkpt>
      <trkpt lat="59.111230373382568" lon="30.482940673828125">
        <time>2026-08-20T09:51:07Z</time>
      </trkpt>
      <trkpt lat="59.111230373382568" lon="30.482940673828125">
        <time>2026-08-20T09:51:09Z</time>
      </trkpt>
      <trkpt lat="59.111230373382568" lon="30.482940673828125">
        <time>2026-08-20T09:51:12Z</time>
      </trkpt>
      <trkpt lat="59.111230373382568" lon="30.482940673828125">
        <time>2026-08-20T09:51:14Z</time>
      </trkpt>
      <trkpt lat="59.111230373382568" lon="30.482940673828125">
        <time>2026-08-20T09:51:17Z</time>
      </trkpt>
      <trkpt lat="59.111230373382568" lon="30.482940673828125">
        <time>2026-08-20T09:51:19Z</time>
      </trkpt>
      <trkpt lat="59.111230373382568" lon="30.482940673828125">
        <time>2026-08-20T09:51:22Z</time>
      </trkpt>
      <trkpt lat="59.111230373382568" lon="30.482940673828125">
        <time>2026-08-20T09:51:24Z</time>
      </trkpt>
      <trkpt lat="59.111230373382568" lon="30.482940673828125">
        <time>2026-08-20T09:51:27Z</time>
      </trkpt>
      <trkpt lat="59.111230373382568" lon="30.482940673828125">
        <time>2026-08-20T09:51:29Z</time>
      </trkpt>
      <trkpt lat="59.111251831054688" lon="30.482940673828125">
        <time>2026-08-20T09:51:32Z</time>
      </trkpt>
      <trkpt lat="59.111251831054688" lon="30.482919216156006">
        <time>2026-08-20T09:51:34Z</time>
      </trkpt>
      <trkpt lat="59.111251831054688" lon="30.482919216156006">
        <time>2026-08-20T09:51:37Z</time>
      </trkpt>
      <trkpt lat="59.111251831054688" lon="30.482919216156006">
        <time>2026-08-20T09:51:39Z</time>
      </trkpt>
      <trkpt lat="59.111251831054688" lon="30.482919216156006">
        <time>2026-08-20T09:51:42Z</time>
      </trkpt>
      <trkpt lat="59.111251831054688" lon="30.482919216156006">
        <time>2026-08-20T09:51:44Z</time>
      </trkpt>
      <trkpt lat="59.111251831054688" lon="30.482919216156006">
        <time>2026-08-20T09:51:47Z</time>
      </trkpt>
      <trkpt lat="59.111251831054688" lon="30.482919216156006">
        <time>2026-08-20T09:51:49Z</time>
      </trkpt>
      <trkpt lat="59.111251831054688" lon="30.482919216156006">
        <time>2026-08-20T09:51:52Z</time>
      </trkpt>
      <trkpt lat="59.111251831054688" lon="30.482919216156006">
        <time>2026-08-20T09:51:54Z</time>
      </trkpt>
      <trkpt lat="59.111251831054688" lon="30.482919216156006">
        <time>2026-08-20T09:51:57Z</time>
      </trkpt>
      <trkpt lat="59.111251831054688" lon="30.482919216156006">
        <time>2026-08-20T09:51:59Z</time>
      </trkpt>
      <trkpt lat="59.111251831054688" lon="30.482919216156006">
        <time>2026-08-20T09:52:02Z</time>
      </trkpt>
      <trkpt lat="59.111251831054688" lon="30.482919216156006">
        <time>2026-08-20T09:52:04Z</time>
      </trkpt>
      <trkpt lat="59.111251831054688" lon="30.482919216156006">
        <time>2026-08-20T09:52:07Z</time>
      </trkpt>
      <trkpt lat="59.111251831054688" lon="30.482919216156006">
        <time>2026-08-20T09:52:09Z</time>
      </trkpt>
      <trkpt lat="59.111251831054688" lon="30.482919216156006">
        <time>2026-08-20T09:52:12Z</time>
      </trkpt>
      <trkpt lat="59.111251831054688" lon="30.482919216156006">
        <time>2026-08-20T09:52:14Z</time>
      </trkpt>
      <trkpt lat="59.111251831054688" lon="30.482919216156006">
        <time>2026-08-20T09:52:17Z</time>
      </trkpt>
      <trkpt lat="59.111251831054688" lon="30.482919216156006">
        <time>2026-08-20T09:52:19Z</time>
      </trkpt>
      <trkpt lat="59.111251831054688" lon="30.482919216156006">
        <time>2026-08-20T09:52:22Z</time>
      </trkpt>
      <trkpt lat="59.111251831054688" lon="30.482919216156006">
        <time>2026-08-20T09:52:24Z</time>
      </trkpt>
      <trkpt lat="59.111251831054688" lon="30.482919216156006">
        <time>2026-08-20T09:52:27Z</time>
      </trkpt>
      <trkpt lat="59.111230373382568" lon="30.482919216156006">
        <time>2026-08-20T09:52:29Z</time>
      </trkpt>
      <trkpt lat="59.111230373382568" lon="30.482919216156006">
        <time>2026-08-20T09:52:32Z</time>
      </trkpt>
      <trkpt lat="59.111230373382568" lon="30.482919216156006">
        <time>2026-08-20T09:52:34Z</time>
      </trkpt>
      <trkpt lat="59.111230373382568" lon="30.482919216156006">
        <time>2026-08-20T09:52:37Z</time>
      </trkpt>
      <trkpt lat="59.111230373382568" lon="30.482919216156006">
        <time>2026-08-20T09:52:39Z</time>
      </trkpt>
      <trkpt lat="59.111230373382568" lon="30.482919216156006">
        <time>2026-08-20T09:52:42Z</time>
      </trkpt>
      <trkpt lat="59.111230373382568" lon="30.482919216156006">
        <time>2026-08-20T09:52:44Z</time>
      </trkpt>
      <trkpt lat="59.111230373382568" lon="30.482919216156006">
        <time>2026-08-20T09:52:47Z</time>
      </trkpt>
      <trkpt lat="59.111230373382568" lon="30.482919216156006">
        <time>2026-08-20T09:52:49Z</time>
      </trkpt>
      <trkpt lat="59.111230373382568" lon="30.482919216156006">
        <time>2026-08-20T09:52:52Z</time>
      </trkpt>
      <trkpt lat="59.111230373382568" lon="30.482919216156006">
        <time>2026-08-20T09:52:54Z</time>
      </trkpt>
      <trkpt lat="59.111230373382568" lon="30.482919216156006">
        <time>2026-08-20T09:52:57Z</time>
      </trkpt>
      <trkpt lat="59.111230373382568" lon="30.482919216156006">
        <time>2026-08-20T09:52:59Z</time>
      </trkpt>
      <trkpt lat="59.111230373382568" lon="30.482919216156006">
        <time>2026-08-20T09:53:02Z</time>
      </trkpt>
      <trkpt lat="59.111251831054688" lon="30.482919216156006">
        <time>2026-08-20T09:53:04Z</time>
      </trkpt>
      <trkpt lat="59.111251831054688" lon="30.482919216156006">
        <time>2026-08-20T09:53:07Z</time>
      </trkpt>
      <trkpt lat="59.111251831054688" lon="30.482919216156006">
        <time>2026-08-20T09:53:12Z</time>
      </trkpt>
      <trkpt lat="59.111230373382568" lon="30.482897758483887">
        <time>2026-08-20T09:53:14Z</time>
      </trkpt>
      <trkpt lat="59.111230373382568" lon="30.482876300811768">
        <time>2026-08-20T09:53:17Z</time>
      </trkpt>
      <trkpt lat="59.111230373382568" lon="30.482876300811768">
        <time>2026-08-20T09:53:19Z</time>
      </trkpt>
      <trkpt lat="59.111230373382568" lon="30.482876300811768">
        <time>2026-08-20T09:53:22Z</time>
      </trkpt>
      <trkpt lat="59.111230373382568" lon="30.482854843139648">
        <time>2026-08-20T09:53:24Z</time>
      </trkpt>
      <trkpt lat="59.11118745803833" lon="30.48281192779541">
        <time>2026-08-20T09:53:27Z</time>
      </trkpt>
      <trkpt lat="59.111166000366211" lon="30.482790470123291">
        <time>2026-08-20T09:53:29Z</time>
      </trkpt>
      <trkpt lat="59.111208915710449" lon="30.482769012451172">
        <time>2026-08-20T09:53:32Z</time>
      </trkpt>
      <trkpt lat="59.111251831054688" lon="30.48281192779541">
        <time>2026-08-20T09:53:34Z</time>
      </trkpt>
      <trkpt lat="59.111273288726807" lon="30.482876300811768">
        <time>2026-08-20T09:53:37Z</time>
      </trkpt>
      <trkpt lat="59.111273288726807" lon="30.482876300811768">
        <time>2026-08-20T09:53:42Z</time>
      </trkpt>
      <trkpt lat="59.111273288726807" lon="30.482897758483887">
        <time>2026-08-20T09:53:44Z</time>
      </trkpt>
      <trkpt lat="59.111273288726807" lon="30.482897758483887">
        <time>2026-08-20T09:53:47Z</time>
      </trkpt>
      <trkpt lat="59.111273288726807" lon="30.482897758483887">
        <time>2026-08-20T09:53:49Z</time>
      </trkpt>
      <trkpt lat="59.111273288726807" lon="30.482897758483887">
        <time>2026-08-20T09:53:52Z</time>
      </trkpt>
      <trkpt lat="59.111273288726807" lon="30.482897758483887">
        <time>2026-08-20T09:53:54Z</time>
      </trkpt>
      <trkpt lat="59.111273288726807" lon="30.482940673828125">
        <time>2026-08-20T09:53:57Z</time>
      </trkpt>
      <trkpt lat="59.111273288726807" lon="30.482962131500244">
        <time>2026-08-20T09:53:59Z</time>
      </trkpt>
      <trkpt lat="59.111273288726807" lon="30.482962131500244">
        <time>2026-08-20T09:54:02Z</time>
      </trkpt>
      <trkpt lat="59.111273288726807" lon="30.482962131500244">
        <time>2026-08-20T09:54:04Z</time>
      </trkpt>
      <trkpt lat="59.111273288726807" lon="30.482962131500244">
        <time>2026-08-20T09:54:07Z</time>
      </trkpt>
      <trkpt lat="59.111273288726807" lon="30.482962131500244">
        <time>2026-08-20T09:54:09Z</time>
      </trkpt>
      <trkpt lat="59.111273288726807" lon="30.482962131500244">
        <time>2026-08-20T09:54:12Z</time>
      </trkpt>
      <trkpt lat="59.111294746398926" lon="30.482983589172363">
        <time>2026-08-20T09:54:14Z</time>
      </trkpt>
      <trkpt lat="59.111294746398926" lon="30.482962131500244">
        <time>2026-08-20T09:54:17Z</time>
      </trkpt>
      <trkpt lat="59.111316204071045" lon="30.482962131500244">
        <time>2026-08-20T09:54:19Z</time>
      </trkpt>
      <trkpt lat="59.111316204071045" lon="30.482962131500244">
        <time>2026-08-20T09:54:22Z</time>
      </trkpt>
      <trkpt lat="59.111316204071045" lon="30.482962131500244">
        <time>2026-08-20T09:54:24Z</time>
      </trkpt>
      <trkpt lat="59.111316204071045" lon="30.482962131500244">
        <time>2026-08-20T09:54:27Z</time>
      </trkpt>
      <trkpt lat="59.111316204071045" lon="30.482962131500244">
        <time>2026-08-20T09:54:29Z</time>
      </trkpt>
      <trkpt lat="59.111337661743164" lon="30.482962131500244">
        <time>2026-08-20T09:54:32Z</time>
      </trkpt>
      <trkpt lat="59.111337661743164" lon="30.482962131500244">
        <time>2026-08-20T09:54:34Z</time>
      </trkpt>
      <trkpt lat="59.111337661743164" lon="30.482962131500244">
        <time>2026-08-20T09:54:37Z</time>
      </trkpt>
      <trkpt lat="59.111316204071045" lon="30.482983589172363">
        <time>2026-08-20T09:54:39Z</time>
      </trkpt>
      <trkpt lat="59.111316204071045" lon="30.482983589172363">
        <time>2026-08-20T09:54:42Z</time>
      </trkpt>
      <trkpt lat="59.111316204071045" lon="30.482983589172363">
        <time>2026-08-20T09:54:44Z</time>
      </trkpt>
      <trkpt lat="59.111316204071045" lon="30.482983589172363">
        <time>2026-08-20T09:54:47Z</time>
      </trkpt>
      <trkpt lat="59.111337661743164" lon="30.483005046844482">
        <time>2026-08-20T09:54:49Z</time>
      </trkpt>
      <trkpt lat="59.111337661743164" lon="30.483005046844482">
        <time>2026-08-20T09:54:52Z</time>
      </trkpt>
      <trkpt lat="59.111337661743164" lon="30.483005046844482">
        <time>2026-08-20T09:54:54Z</time>
      </trkpt>
      <trkpt lat="59.111337661743164" lon="30.483005046844482">
        <time>2026-08-20T09:54:57Z</time>
      </trkpt>
      <trkpt lat="59.111359119415283" lon="30.483026504516602">
        <time>2026-08-20T09:54:59Z</time>
      </trkpt>
      <trkpt lat="59.111380577087402" lon="30.483026504516602">
        <time>2026-08-20T09:55:02Z</time>
      </trkpt>
      <trkpt lat="59.111380577087402" lon="30.483026504516602">
        <time>2026-08-20T09:55:04Z</time>
      </trkpt>
      <trkpt lat="59.111380577087402" lon="30.483026504516602">
        <time>2026-08-20T09:55:07Z</time>
      </trkpt>
      <trkpt lat="59.111402034759521" lon="30.483026504516602">
        <time>2026-08-20T09:55:09Z</time>
      </trkpt>
      <trkpt lat="59.111423492431641" lon="30.483026504516602">
        <time>2026-08-20T09:55:12Z</time>
      </trkpt>
      <trkpt lat="59.111466407775879" lon="30.483005046844482">
        <time>2026-08-20T09:55:14Z</time>
      </trkpt>
      <trkpt lat="59.111487865447998" lon="30.483005046844482">
        <time>2026-08-20T09:55:17Z</time>
      </trkpt>
      <trkpt lat="59.111530780792236" lon="30.482983589172363">
        <time>2026-08-20T09:55:19Z</time>
      </trkpt>
      <trkpt lat="59.111552238464355" lon="30.482962131500244">
        <time>2026-08-20T09:55:22Z</time>
      </trkpt>
      <trkpt lat="59.111573696136475" lon="30.482940673828125">
        <time>2026-08-20T09:55:24Z</time>
      </trkpt>
      <trkpt lat="59.111595153808594" lon="30.482940673828125">
        <time>2026-08-20T09:55:27Z</time>
      </trkpt>
      <trkpt lat="59.111595153808594" lon="30.482940673828125">
        <time>2026-08-20T09:55:29Z</time>
      </trkpt>
      <trkpt lat="59.111595153808594" lon="30.482940673828125">
        <time>2026-08-20T09:55:32Z</time>
      </trkpt>
      <trkpt lat="59.111616611480713" lon="30.482940673828125">
        <time>2026-08-20T09:55:34Z</time>
      </trkpt>
      <trkpt lat="59.111638069152832" lon="30.482940673828125">
        <time>2026-08-20T09:55:37Z</time>
      </trkpt>
      <trkpt lat="59.111659526824951" lon="30.482940673828125">
        <time>2026-08-20T09:55:39Z</time>
      </trkpt>
      <trkpt lat="59.11168098449707" lon="30.482940673828125">
        <time>2026-08-20T09:55:42Z</time>
      </trkpt>
      <trkpt lat="59.111723899841309" lon="30.482919216156006">
        <time>2026-08-20T09:55:44Z</time>
      </trkpt>
      <trkpt lat="59.111745357513428" lon="30.482897758483887">
        <time>2026-08-20T09:55:47Z</time>
      </trkpt>
      <trkpt lat="59.111788272857666" lon="30.482919216156006">
        <time>2026-08-20T09:55:49Z</time>
      </trkpt>
      <trkpt lat="59.111809730529785" lon="30.482897758483887">
        <time>2026-08-20T09:55:52Z</time>
      </trkpt>
      <trkpt lat="59.111831188201904" lon="30.482897758483887">
        <time>2026-08-20T09:55:54Z</time>
      </trkpt>
      <trkpt lat="59.111831188201904" lon="30.482897758483887">
        <time>2026-08-20T09:55:57Z</time>
      </trkpt>
      <trkpt lat="59.111852645874023" lon="30.482897758483887">
        <time>2026-08-20T09:55:59Z</time>
      </trkpt>
      <trkpt lat="59.111852645874023" lon="30.482897758483887">
        <time>2026-08-20T09:56:02Z</time>
      </trkpt>
      <trkpt lat="59.111852645874023" lon="30.482897758483887">
        <time>2026-08-20T09:56:04Z</time>
      </trkpt>
      <trkpt lat="59.111852645874023" lon="30.482897758483887">
        <time>2026-08-20T09:56:07Z</time>
      </trkpt>
      <trkpt lat="59.111852645874023" lon="30.482897758483887">
        <time>2026-08-20T09:56:09Z</time>
      </trkpt>
      <trkpt lat="59.111852645874023" lon="30.482897758483887">
        <time>2026-08-20T09:56:12Z</time>
      </trkpt>
      <trkpt lat="59.111852645874023" lon="30.482876300811768">
        <time>2026-08-20T09:56:14Z</time>
      </trkpt>
      <trkpt lat="59.111874103546143" lon="30.482854843139648">
        <time>2026-08-20T09:56:17Z</time>
      </trkpt>
      <trkpt lat="59.111895561218262" lon="30.482854843139648">
        <time>2026-08-20T09:56:19Z</time>
      </trkpt>
      <trkpt lat="59.111895561218262" lon="30.482854843139648">
        <time>2026-08-20T09:56:22Z</time>
      </trkpt>
      <trkpt lat="59.111917018890381" lon="30.482854843139648">
        <time>2026-08-20T09:56:24Z</time>
      </trkpt>
      <trkpt lat="59.111917018890381" lon="30.482854843139648">
        <time>2026-08-20T09:56:27Z</time>
      </trkpt>
      <trkpt lat="59.1119384765625" lon="30.482854843139648">
        <time>2026-08-20T09:56:29Z</time>
      </trkpt>
      <trkpt lat="59.1119384765625" lon="30.482854843139648">
        <time>2026-08-20T09:56:32Z</time>
      </trkpt>
      <trkpt lat="59.111959934234619" lon="30.482854843139648">
        <time>2026-08-20T09:56:34Z</time>
      </trkpt>
      <trkpt lat="59.111959934234619" lon="30.482854843139648">
        <time>2026-08-20T09:56:37Z</time>
      </trkpt>
      <trkpt lat="59.111959934234619" lon="30.482854843139648">
        <time>2026-08-20T09:56:39Z</time>
      </trkpt>
      <trkpt lat="59.111981391906738" lon="30.482833385467529">
        <time>2026-08-20T09:56:42Z</time>
      </trkpt>
      <trkpt lat="59.112024307250977" lon="30.482854843139648">
        <time>2026-08-20T09:56:44Z</time>
      </trkpt>
      <trkpt lat="59.112045764923096" lon="30.482854843139648">
        <time>2026-08-20T09:56:47Z</time>
      </trkpt>
      <trkpt lat="59.112088680267334" lon="30.482854843139648">
        <time>2026-08-20T09:56:49Z</time>
      </trkpt>
      <trkpt lat="59.112110137939453" lon="30.482854843139648">
        <time>2026-08-20T09:56:52Z</time>
      </trkpt>
      <trkpt lat="59.112153053283691" lon="30.482833385467529">
        <time>2026-08-20T09:56:54Z</time>
      </trkpt>
      <trkpt lat="59.112153053283691" lon="30.482833385467529">
        <time>2026-08-20T09:56:57Z</time>
      </trkpt>
      <trkpt lat="59.112174510955811" lon="30.482833385467529">
        <time>2026-08-20T09:56:59Z</time>
      </trkpt>
      <trkpt lat="59.11219596862793" lon="30.48281192779541">
        <time>2026-08-20T09:57:02Z</time>
      </trkpt>
      <trkpt lat="59.11219596862793" lon="30.48281192779541">
        <time>2026-08-20T09:57:04Z</time>
      </trkpt>
      <trkpt lat="59.112217426300049" lon="30.48281192779541">
        <time>2026-08-20T09:57:07Z</time>
      </trkpt>
      <trkpt lat="59.112238883972168" lon="30.48281192779541">
        <time>2026-08-20T09:57:09Z</time>
      </trkpt>
      <trkpt lat="59.112260341644287" lon="30.482790470123291">
        <time>2026-08-20T09:57:12Z</time>
      </trkpt>
      <trkpt lat="59.112260341644287" lon="30.482790470123291">
        <time>2026-08-20T09:57:14Z</time>
      </trkpt>
      <trkpt lat="59.112260341644287" lon="30.482790470123291">
        <time>2026-08-20T09:57:17Z</time>
      </trkpt>
      <trkpt lat="59.112281799316406" lon="30.482769012451172">
        <time>2026-08-20T09:57:19Z</time>
      </trkpt>
      <trkpt lat="59.112281799316406" lon="30.482769012451172">
        <time>2026-08-20T09:57:22Z</time>
      </trkpt>
      <trkpt lat="59.112324714660645" lon="30.482769012451172">
        <time>2026-08-20T09:57:24Z</time>
      </trkpt>
      <trkpt lat="59.112346172332764" lon="30.482769012451172">
        <time>2026-08-20T09:57:27Z</time>
      </trkpt>
      <trkpt lat="59.112346172332764" lon="30.482769012451172">
        <time>2026-08-20T09:57:29Z</time>
      </trkpt>
      <trkpt lat="59.112346172332764" lon="30.482769012451172">
        <time>2026-08-20T09:57:32Z</time>
      </trkpt>
      <trkpt lat="59.112346172332764" lon="30.482769012451172">
        <time>2026-08-20T09:57:34Z</time>
      </trkpt>
      <trkpt lat="59.112367630004883" lon="30.482769012451172">
        <time>2026-08-20T09:57:37Z</time>
      </trkpt>
      <trkpt lat="59.112367630004883" lon="30.482769012451172">
        <time>2026-08-20T09:57:39Z</time>
      </trkpt>
      <trkpt lat="59.112367630004883" lon="30.482747554779053">
        <time>2026-08-20T09:57:42Z</time>
      </trkpt>
      <trkpt lat="59.112389087677002" lon="30.482769012451172">
        <time>2026-08-20T09:57:44Z</time>
      </trkpt>
      <trkpt lat="59.112410545349121" lon="30.482769012451172">
        <time>2026-08-20T09:57:47Z</time>
      </trkpt>
      <trkpt lat="59.112453460693359" lon="30.482747554779053">
        <time>2026-08-20T09:57:49Z</time>
      </trkpt>
      <trkpt lat="59.112474918365479" lon="30.482747554779053">
        <time>2026-08-20T09:57:52Z</time>
      </trkpt>
      <trkpt lat="59.112496376037598" lon="30.482726097106934">
        <time>2026-08-20T09:57:54Z</time>
      </trkpt>
      <trkpt lat="59.112517833709717" lon="30.482726097106934">
        <time>2026-08-20T09:57:57Z</time>
      </trkpt>
      <trkpt lat="59.112539291381836" lon="30.482726097106934">
        <time>2026-08-20T09:57:59Z</time>
      </trkpt>
      <trkpt lat="59.112560749053955" lon="30.482726097106934">
        <time>2026-08-20T09:58:02Z</time>
      </trkpt>
      <trkpt lat="59.112582206726074" lon="30.482726097106934">
        <time>2026-08-20T09:58:04Z</time>
      </trkpt>
      <trkpt lat="59.112603664398193" lon="30.482704639434814">
        <time>2026-08-20T09:58:07Z</time>
      </trkpt>
      <trkpt lat="59.112603664398193" lon="30.482704639434814">
        <time>2026-08-20T09:58:09Z</time>
      </trkpt>
      <trkpt lat="59.112625122070313" lon="30.482704639434814">
        <time>2026-08-20T09:58:12Z</time>
      </trkpt>
      <trkpt lat="59.112668037414551" lon="30.482683181762695">
        <time>2026-08-20T09:58:14Z</time>
      </trkpt>
      <trkpt lat="59.11268949508667" lon="30.482661724090576">
        <time>2026-08-20T09:58:17Z</time>
      </trkpt>
      <trkpt lat="59.112710952758789" lon="30.482661724090576">
        <time>2026-08-20T09:58:19Z</time>
      </trkpt>
      <trkpt lat="59.112710952758789" lon="30.482661724090576">
        <time>2026-08-20T09:58:22Z</time>
      </trkpt>
      <trkpt lat="59.112775325775146" lon="30.482640266418457">
        <time>2026-08-20T09:58:24Z</time>
      </trkpt>
      <trkpt lat="59.112796783447266" lon="30.482640266418457">
        <time>2026-08-20T09:58:27Z</time>
      </trkpt>
      <trkpt lat="59.112839698791504" lon="30.482618808746338">
        <time>2026-08-20T09:58:29Z</time>
      </trkpt>
      <trkpt lat="59.112861156463623" lon="30.482618808746338">
        <time>2026-08-20T09:58:32Z</time>
      </trkpt>
      <trkpt lat="59.112861156463623" lon="30.482618808746338">
        <time>2026-08-20T09:58:34Z</time>
      </trkpt>
      <trkpt lat="59.112861156463623" lon="30.482618808746338">
        <time>2026-08-20T09:58:37Z</time>
      </trkpt>
      <trkpt lat="59.112904071807861" lon="30.482597351074219">
        <time>2026-08-20T09:58:39Z</time>
      </trkpt>
      <trkpt lat="59.11292552947998" lon="30.4825758934021">
        <time>2026-08-20T09:58:42Z</time>
      </trkpt>
      <trkpt lat="59.11292552947998" lon="30.482532978057861">
        <time>2026-08-20T09:58:44Z</time>
      </trkpt>
      <trkpt lat="59.1129469871521" lon="30.482511520385742">
        <time>2026-08-20T09:58:47Z</time>
      </trkpt>
      <trkpt lat="59.11292552947998" lon="30.482468605041504">
        <time>2026-08-20T09:58:49Z</time>
      </trkpt>
      <trkpt lat="59.11292552947998" lon="30.482468605041504">
        <time>2026-08-20T09:58:52Z</time>
      </trkpt>
      <trkpt lat="59.11292552947998" lon="30.482490062713623">
        <time>2026-08-20T09:58:54Z</time>
      </trkpt>
      <trkpt lat="59.11292552947998" lon="30.482511520385742">
        <time>2026-08-20T09:58:57Z</time>
      </trkpt>
      <trkpt lat="59.11292552947998" lon="30.482511520385742">
        <time>2026-08-20T09:58:59Z</time>
      </trkpt>
      <trkpt lat="59.11292552947998" lon="30.482511520385742">
        <time>2026-08-20T09:59:02Z</time>
      </trkpt>
      <trkpt lat="59.11292552947998" lon="30.482468605041504">
        <time>2026-08-20T09:59:04Z</time>
      </trkpt>
      <trkpt lat="59.11292552947998" lon="30.48231840133667">
        <time>2026-08-20T09:59:09Z</time>
      </trkpt>
      <trkpt lat="59.11292552947998" lon="30.482275485992432">
        <time>2026-08-20T09:59:12Z</time>
      </trkpt>
      <trkpt lat="59.11292552947998" lon="30.482254028320312">
        <time>2026-08-20T09:59:14Z</time>
      </trkpt>
      <trkpt lat="59.11292552947998" lon="30.482232570648193">
        <time>2026-08-20T09:59:17Z</time>
      </trkpt>
      <trkpt lat="59.11292552947998" lon="30.482189655303955">
        <time>2026-08-20T09:59:19Z</time>
      </trkpt>
      <trkpt lat="59.11292552947998" lon="30.482189655303955">
        <time>2026-08-20T09:59:22Z</time>
      </trkpt>
      <trkpt lat="59.11292552947998" lon="30.482189655303955">
        <time>2026-08-20T09:59:24Z</time>
      </trkpt>
      <trkpt lat="59.11292552947998" lon="30.482189655303955">
        <time>2026-08-20T09:59:27Z</time>
      </trkpt>
      <trkpt lat="59.11292552947998" lon="30.482189655303955">
        <time>2026-08-20T09:59:29Z</time>
      </trkpt>
      <trkpt lat="59.11292552947998" lon="30.482189655303955">
        <time>2026-08-20T09:59:32Z</time>
      </trkpt>
      <trkpt lat="59.11292552947998" lon="30.482189655303955">
        <time>2026-08-20T09:59:34Z</time>
      </trkpt>
      <trkpt lat="59.11292552947998" lon="30.482189655303955">
        <time>2026-08-20T09:59:37Z</time>
      </trkpt>
      <trkpt lat="59.11292552947998" lon="30.482189655303955">
        <time>2026-08-20T09:59:39Z</time>
      </trkpt>
      <trkpt lat="59.11292552947998" lon="30.482189655303955">
        <time>2026-08-20T09:59:42Z</time>
      </trkpt>
      <trkpt lat="59.11292552947998" lon="30.482189655303955">
        <time>2026-08-20T09:59:44Z</time>
      </trkpt>
      <trkpt lat="59.11292552947998" lon="30.482189655303955">
        <time>2026-08-20T09:59:47Z</time>
      </trkpt>
      <trkpt lat="59.11292552947998" lon="30.482189655303955">
        <time>2026-08-20T09:59:49Z</time>
      </trkpt>
      <trkpt lat="59.11292552947998" lon="30.482189655303955">
        <time>2026-08-20T09:59:52Z</time>
      </trkpt>
      <trkpt lat="59.11292552947998" lon="30.482189655303955">
        <time>2026-08-20T09:59:54Z</time>
      </trkpt>
      <trkpt lat="59.11292552947998" lon="30.482189655303955">
        <time>2026-08-20T09:59:57Z</time>
      </trkpt>
      <trkpt lat="59.11292552947998" lon="30.482189655303955">
        <time>2026-08-20T09:59:59Z</time>
      </trkpt>
      <trkpt lat="59.11292552947998" lon="30.482189655303955">
        <time>2026-08-20T10:00:02Z</time>
      </trkpt>
      <trkpt lat="59.11292552947998" lon="30.482189655303955">
        <time>2026-08-20T10:00:04Z</time>
      </trkpt>
      <trkpt lat="59.11292552947998" lon="30.482189655303955">
        <time>2026-08-20T10:00:07Z</time>
      </trkpt>
      <trkpt lat="59.11292552947998" lon="30.482189655303955">
        <time>2026-08-20T10:00:09Z</time>
      </trkpt>
      <trkpt lat="59.11292552947998" lon="30.482189655303955">
        <time>2026-08-20T10:00:12Z</time>
      </trkpt>
      <trkpt lat="59.11292552947998" lon="30.482189655303955">
        <time>2026-08-20T10:00:14Z</time>
      </trkpt>
      <trkpt lat="59.11292552947998" lon="30.482189655303955">
        <time>2026-08-20T10:00:17Z</time>
      </trkpt>
      <trkpt lat="59.11292552947998" lon="30.482189655303955">
        <time>2026-08-20T10:00:19Z</time>
      </trkpt>
      <trkpt lat="59.11292552947998" lon="30.482189655303955">
        <time>2026-08-20T10:00:22Z</time>
      </trkpt>
      <trkpt lat="59.11292552947998" lon="30.482189655303955">
        <time>2026-08-20T10:00:24Z</time>
      </trkpt>
      <trkpt lat="59.11292552947998" lon="30.482189655303955">
        <time>2026-08-20T10:00:27Z</time>
      </trkpt>
      <trkpt lat="59.11292552947998" lon="30.482189655303955">
        <time>2026-08-20T10:00:29Z</time>
      </trkpt>
      <trkpt lat="59.11292552947998" lon="30.482189655303955">
        <time>2026-08-20T10:00:32Z</time>
      </trkpt>
      <trkpt lat="59.11292552947998" lon="30.482189655303955">
        <time>2026-08-20T10:00:34Z</time>
      </trkpt>
      <trkpt lat="59.11292552947998" lon="30.482189655303955">
        <time>2026-08-20T10:00:37Z</time>
      </trkpt>
      <trkpt lat="59.11292552947998" lon="30.482189655303955">
        <time>2026-08-20T10:00:39Z</time>
      </trkpt>
      <trkpt lat="59.11292552947998" lon="30.482189655303955">
        <time>2026-08-20T10:00:42Z</time>
      </trkpt>
      <trkpt lat="59.11292552947998" lon="30.482189655303955">
        <time>2026-08-20T10:00:44Z</time>
      </trkpt>
      <trkpt lat="59.11292552947998" lon="30.482189655303955">
        <time>2026-08-20T10:00:47Z</time>
      </trkpt>
      <trkpt lat="59.11292552947998" lon="30.482189655303955">
        <time>2026-08-20T10:00:49Z</time>
      </trkpt>
      <trkpt lat="59.11292552947998" lon="30.482189655303955">
        <time>2026-08-20T10:00:52Z</time>
      </trkpt>
      <trkpt lat="59.11292552947998" lon="30.482189655303955">
        <time>2026-08-20T10:00:54Z</time>
      </trkpt>
      <trkpt lat="59.11292552947998" lon="30.482189655303955">
        <time>2026-08-20T10:00:57Z</time>
      </trkpt>
      <trkpt lat="59.11292552947998" lon="30.482189655303955">
        <time>2026-08-20T10:00:59Z</time>
      </trkpt>
      <trkpt lat="59.11292552947998" lon="30.482189655303955">
        <time>2026-08-20T10:01:02Z</time>
      </trkpt>
      <trkpt lat="59.11292552947998" lon="30.482189655303955">
        <time>2026-08-20T10:01:04Z</time>
      </trkpt>
      <trkpt lat="59.11292552947998" lon="30.482189655303955">
        <time>2026-08-20T10:01:07Z</time>
      </trkpt>
      <trkpt lat="59.11292552947998" lon="30.482189655303955">
        <time>2026-08-20T10:01:09Z</time>
      </trkpt>
      <trkpt lat="59.11292552947998" lon="30.482189655303955">
        <time>2026-08-20T10:01:12Z</time>
      </trkpt>
      <trkpt lat="59.11292552947998" lon="30.482189655303955">
        <time>2026-08-20T10:01:14Z</time>
      </trkpt>
      <trkpt lat="59.11292552947998" lon="30.482189655303955">
        <time>2026-08-20T10:01:17Z</time>
      </trkpt>
      <trkpt lat="59.11292552947998" lon="30.482189655303955">
        <time>2026-08-20T10:01:19Z</time>
      </trkpt>
      <trkpt lat="59.11292552947998" lon="30.482189655303955">
        <time>2026-08-20T10:01:22Z</time>
      </trkpt>
      <trkpt lat="59.11292552947998" lon="30.482189655303955">
        <time>2026-08-20T10:01:24Z</time>
      </trkpt>
      <trkpt lat="59.11292552947998" lon="30.482189655303955">
        <time>2026-08-20T10:01:27Z</time>
      </trkpt>
      <trkpt lat="59.11292552947998" lon="30.482168197631836">
        <time>2026-08-20T10:01:29Z</time>
      </trkpt>
      <trkpt lat="59.11292552947998" lon="30.482168197631836">
        <time>2026-08-20T10:01:32Z</time>
      </trkpt>
      <trkpt lat="59.11292552947998" lon="30.482168197631836">
        <time>2026-08-20T10:01:34Z</time>
      </trkpt>
      <trkpt lat="59.11292552947998" lon="30.482168197631836">
        <time>2026-08-20T10:01:37Z</time>
      </trkpt>
      <trkpt lat="59.11292552947998" lon="30.482168197631836">
        <time>2026-08-20T10:01:39Z</time>
      </trkpt>
      <trkpt lat="59.11292552947998" lon="30.482168197631836">
        <time>2026-08-20T10:01:42Z</time>
      </trkpt>
      <trkpt lat="59.11292552947998" lon="30.482168197631836">
        <time>2026-08-20T10:01:44Z</time>
      </trkpt>
      <trkpt lat="59.11292552947998" lon="30.482168197631836">
        <time>2026-08-20T10:01:47Z</time>
      </trkpt>
      <trkpt lat="59.11292552947998" lon="30.482168197631836">
        <time>2026-08-20T10:01:49Z</time>
      </trkpt>
      <trkpt lat="59.11292552947998" lon="30.482168197631836">
        <time>2026-08-20T10:01:52Z</time>
      </trkpt>
      <trkpt lat="59.11292552947998" lon="30.482168197631836">
        <time>2026-08-20T10:01:54Z</time>
      </trkpt>
      <trkpt lat="59.11292552947998" lon="30.482168197631836">
        <time>2026-08-20T10:01:57Z</time>
      </trkpt>
      <trkpt lat="59.11292552947998" lon="30.482168197631836">
        <time>2026-08-20T10:01:59Z</time>
      </trkpt>
      <trkpt lat="59.11292552947998" lon="30.482168197631836">
        <time>2026-08-20T10:02:02Z</time>
      </trkpt>
      <trkpt lat="59.11292552947998" lon="30.482168197631836">
        <time>2026-08-20T10:02:04Z</time>
      </trkpt>
      <trkpt lat="59.11292552947998" lon="30.482168197631836">
        <time>2026-08-20T10:02:07Z</time>
      </trkpt>
      <trkpt lat="59.112904071807861" lon="30.482168197631836">
        <time>2026-08-20T10:02:09Z</time>
      </trkpt>
      <trkpt lat="59.112904071807861" lon="30.482168197631836">
        <time>2026-08-20T10:02:12Z</time>
      </trkpt>
      <trkpt lat="59.112904071807861" lon="30.482168197631836">
        <time>2026-08-20T10:02:14Z</time>
      </trkpt>
      <trkpt lat="59.112904071807861" lon="30.482168197631836">
        <time>2026-08-20T10:02:17Z</time>
      </trkpt>
      <trkpt lat="59.112904071807861" lon="30.482168197631836">
        <time>2026-08-20T10:02:19Z</time>
      </trkpt>
      <trkpt lat="59.112904071807861" lon="30.482168197631836">
        <time>2026-08-20T10:02:22Z</time>
      </trkpt>
      <trkpt lat="59.112904071807861" lon="30.482168197631836">
        <time>2026-08-20T10:02:24Z</time>
      </trkpt>
      <trkpt lat="59.112904071807861" lon="30.482168197631836">
        <time>2026-08-20T10:02:27Z</time>
      </trkpt>
      <trkpt lat="59.112904071807861" lon="30.482168197631836">
        <time>2026-08-20T10:02:29Z</time>
      </trkpt>
      <trkpt lat="59.112904071807861" lon="30.482168197631836">
        <time>2026-08-20T10:02:32Z</time>
      </trkpt>
      <trkpt lat="59.112904071807861" lon="30.482168197631836">
        <time>2026-08-20T10:02:34Z</time>
      </trkpt>
      <trkpt lat="59.112904071807861" lon="30.482168197631836">
        <time>2026-08-20T10:02:37Z</time>
      </trkpt>
      <trkpt lat="59.112904071807861" lon="30.482168197631836">
        <time>2026-08-20T10:02:39Z</time>
      </trkpt>
      <trkpt lat="59.112904071807861" lon="30.482168197631836">
        <time>2026-08-20T10:02:42Z</time>
      </trkpt>
      <trkpt lat="59.112904071807861" lon="30.482168197631836">
        <time>2026-08-20T10:02:44Z</time>
      </trkpt>
      <trkpt lat="59.112904071807861" lon="30.482168197631836">
        <time>2026-08-20T10:02:47Z</time>
      </trkpt>
      <trkpt lat="59.112904071807861" lon="30.482168197631836">
        <time>2026-08-20T10:02:49Z</time>
      </trkpt>
      <trkpt lat="59.112904071807861" lon="30.482168197631836">
        <time>2026-08-20T10:02:52Z</time>
      </trkpt>
      <trkpt lat="59.112904071807861" lon="30.482168197631836">
        <time>2026-08-20T10:02:54Z</time>
      </trkpt>
      <trkpt lat="59.112904071807861" lon="30.482168197631836">
        <time>2026-08-20T10:02:57Z</time>
      </trkpt>
      <trkpt lat="59.112904071807861" lon="30.482168197631836">
        <time>2026-08-20T10:02:59Z</time>
      </trkpt>
      <trkpt lat="59.112904071807861" lon="30.482168197631836">
        <time>2026-08-20T10:03:02Z</time>
      </trkpt>
      <trkpt lat="59.112904071807861" lon="30.482168197631836">
        <time>2026-08-20T10:03:04Z</time>
      </trkpt>
      <trkpt lat="59.112904071807861" lon="30.482168197631836">
        <time>2026-08-20T10:03:07Z</time>
      </trkpt>
      <trkpt lat="59.112904071807861" lon="30.482168197631836">
        <time>2026-08-20T10:03:09Z</time>
      </trkpt>
      <trkpt lat="59.112904071807861" lon="30.482168197631836">
        <time>2026-08-20T10:03:12Z</time>
      </trkpt>
      <trkpt lat="59.112904071807861" lon="30.482168197631836">
        <time>2026-08-20T10:03:14Z</time>
      </trkpt>
      <trkpt lat="59.112904071807861" lon="30.482168197631836">
        <time>2026-08-20T10:03:17Z</time>
      </trkpt>
      <trkpt lat="59.112904071807861" lon="30.482168197631836">
        <time>2026-08-20T10:03:19Z</time>
      </trkpt>
      <trkpt lat="59.112904071807861" lon="30.482168197631836">
        <time>2026-08-20T10:03:22Z</time>
      </trkpt>
      <trkpt lat="59.112904071807861" lon="30.482168197631836">
        <time>2026-08-20T10:03:24Z</time>
      </trkpt>
      <trkpt lat="59.112904071807861" lon="30.482168197631836">
        <time>2026-08-20T10:03:27Z</time>
      </trkpt>
      <trkpt lat="59.112904071807861" lon="30.482168197631836">
        <time>2026-08-20T10:03:29Z</time>
      </trkpt>
      <trkpt lat="59.112904071807861" lon="30.482168197631836">
        <time>2026-08-20T10:03:32Z</time>
      </trkpt>
      <trkpt lat="59.112904071807861" lon="30.482168197631836">
        <time>2026-08-20T10:03:34Z</time>
      </trkpt>
      <trkpt lat="59.112904071807861" lon="30.482168197631836">
        <time>2026-08-20T10:03:37Z</time>
      </trkpt>
      <trkpt lat="59.112904071807861" lon="30.482168197631836">
        <time>2026-08-20T10:03:39Z</time>
      </trkpt>
      <trkpt lat="59.112904071807861" lon="30.482168197631836">
        <time>2026-08-20T10:03:42Z</time>
      </trkpt>
      <trkpt lat="59.112904071807861" lon="30.482168197631836">
        <time>2026-08-20T10:03:44Z</time>
      </trkpt>
      <trkpt lat="59.112904071807861" lon="30.482168197631836">
        <time>2026-08-20T10:03:47Z</time>
      </trkpt>
      <trkpt lat="59.112904071807861" lon="30.482168197631836">
        <time>2026-08-20T10:03:49Z</time>
      </trkpt>
      <trkpt lat="59.112904071807861" lon="30.482168197631836">
        <time>2026-08-20T10:03:52Z</time>
      </trkpt>
      <trkpt lat="59.112904071807861" lon="30.482168197631836">
        <time>2026-08-20T10:03:54Z</time>
      </trkpt>
      <trkpt lat="59.112904071807861" lon="30.482168197631836">
        <time>2026-08-20T10:03:57Z</time>
      </trkpt>
      <trkpt lat="59.112904071807861" lon="30.482168197631836">
        <time>2026-08-20T10:03:59Z</time>
      </trkpt>
      <trkpt lat="59.112904071807861" lon="30.482168197631836">
        <time>2026-08-20T10:04:02Z</time>
      </trkpt>
      <trkpt lat="59.112904071807861" lon="30.482168197631836">
        <time>2026-08-20T10:04:04Z</time>
      </trkpt>
      <trkpt lat="59.112904071807861" lon="30.482168197631836">
        <time>2026-08-20T10:04:07Z</time>
      </trkpt>
      <trkpt lat="59.112904071807861" lon="30.482168197631836">
        <time>2026-08-20T10:04:09Z</time>
      </trkpt>
      <trkpt lat="59.112904071807861" lon="30.482168197631836">
        <time>2026-08-20T10:04:12Z</time>
      </trkpt>
      <trkpt lat="59.112904071807861" lon="30.482168197631836">
        <time>2026-08-20T10:04:14Z</time>
      </trkpt>
      <trkpt lat="59.112904071807861" lon="30.482168197631836">
        <time>2026-08-20T10:04:17Z</time>
      </trkpt>
      <trkpt lat="59.112904071807861" lon="30.482168197631836">
        <time>2026-08-20T10:04:19Z</time>
      </trkpt>
      <trkpt lat="59.112904071807861" lon="30.482168197631836">
        <time>2026-08-20T10:04:22Z</time>
      </trkpt>
      <trkpt lat="59.112904071807861" lon="30.482168197631836">
        <time>2026-08-20T10:04:24Z</time>
      </trkpt>
      <trkpt lat="59.112904071807861" lon="30.482168197631836">
        <time>2026-08-20T10:04:27Z</time>
      </trkpt>
      <trkpt lat="59.112904071807861" lon="30.482168197631836">
        <time>2026-08-20T10:04:29Z</time>
      </trkpt>
      <trkpt lat="59.112904071807861" lon="30.482168197631836">
        <time>2026-08-20T10:04:32Z</time>
      </trkpt>
      <trkpt lat="59.112904071807861" lon="30.482168197631836">
        <time>2026-08-20T10:04:34Z</time>
      </trkpt>
      <trkpt lat="59.112904071807861" lon="30.482168197631836">
        <time>2026-08-20T10:04:37Z</time>
      </trkpt>
      <trkpt lat="59.112904071807861" lon="30.482168197631836">
        <time>2026-08-20T10:04:39Z</time>
      </trkpt>
      <trkpt lat="59.112904071807861" lon="30.482168197631836">
        <time>2026-08-20T10:04:42Z</time>
      </trkpt>
      <trkpt lat="59.112904071807861" lon="30.482168197631836">
        <time>2026-08-20T10:04:44Z</time>
      </trkpt>
      <trkpt lat="59.112904071807861" lon="30.482168197631836">
        <time>2026-08-20T10:04:47Z</time>
      </trkpt>
      <trkpt lat="59.112904071807861" lon="30.482189655303955">
        <time>2026-08-20T10:04:49Z</time>
      </trkpt>
      <trkpt lat="59.112904071807861" lon="30.482189655303955">
        <time>2026-08-20T10:04:52Z</time>
      </trkpt>
      <trkpt lat="59.112904071807861" lon="30.482189655303955">
        <time>2026-08-20T10:04:54Z</time>
      </trkpt>
      <trkpt lat="59.112904071807861" lon="30.482189655303955">
        <time>2026-08-20T10:04:57Z</time>
      </trkpt>
      <trkpt lat="59.112904071807861" lon="30.482189655303955">
        <time>2026-08-20T10:04:59Z</time>
      </trkpt>
      <trkpt lat="59.112904071807861" lon="30.482189655303955">
        <time>2026-08-20T10:05:02Z</time>
      </trkpt>
      <trkpt lat="59.112904071807861" lon="30.482189655303955">
        <time>2026-08-20T10:05:04Z</time>
      </trkpt>
      <trkpt lat="59.112904071807861" lon="30.482189655303955">
        <time>2026-08-20T10:05:07Z</time>
      </trkpt>
      <trkpt lat="59.112904071807861" lon="30.482189655303955">
        <time>2026-08-20T10:05:09Z</time>
      </trkpt>
      <trkpt lat="59.112904071807861" lon="30.482189655303955">
        <time>2026-08-20T10:05:12Z</time>
      </trkpt>
      <trkpt lat="59.112904071807861" lon="30.482189655303955">
        <time>2026-08-20T10:05:14Z</time>
      </trkpt>
      <trkpt lat="59.112904071807861" lon="30.482189655303955">
        <time>2026-08-20T10:05:17Z</time>
      </trkpt>
      <trkpt lat="59.112904071807861" lon="30.482189655303955">
        <time>2026-08-20T10:05:19Z</time>
      </trkpt>
      <trkpt lat="59.112904071807861" lon="30.482189655303955">
        <time>2026-08-20T10:05:22Z</time>
      </trkpt>
      <trkpt lat="59.112904071807861" lon="30.482189655303955">
        <time>2026-08-20T10:05:24Z</time>
      </trkpt>
      <trkpt lat="59.112904071807861" lon="30.482189655303955">
        <time>2026-08-20T10:05:27Z</time>
      </trkpt>
      <trkpt lat="59.112904071807861" lon="30.482189655303955">
        <time>2026-08-20T10:05:29Z</time>
      </trkpt>
      <trkpt lat="59.112904071807861" lon="30.482189655303955">
        <time>2026-08-20T10:05:32Z</time>
      </trkpt>
      <trkpt lat="59.112904071807861" lon="30.482189655303955">
        <time>2026-08-20T10:05:34Z</time>
      </trkpt>
      <trkpt lat="59.112904071807861" lon="30.482189655303955">
        <time>2026-08-20T10:05:37Z</time>
      </trkpt>
      <trkpt lat="59.112904071807861" lon="30.482189655303955">
        <time>2026-08-20T10:05:39Z</time>
      </trkpt>
      <trkpt lat="59.112904071807861" lon="30.482189655303955">
        <time>2026-08-20T10:05:42Z</time>
      </trkpt>
      <trkpt lat="59.112904071807861" lon="30.482189655303955">
        <time>2026-08-20T10:05:44Z</time>
      </trkpt>
      <trkpt lat="59.112904071807861" lon="30.482189655303955">
        <time>2026-08-20T10:05:47Z</time>
      </trkpt>
      <trkpt lat="59.112904071807861" lon="30.482189655303955">
        <time>2026-08-20T10:05:49Z</time>
      </trkpt>
      <trkpt lat="59.112904071807861" lon="30.482189655303955">
        <time>2026-08-20T10:05:52Z</time>
      </trkpt>
      <trkpt lat="59.112904071807861" lon="30.482189655303955">
        <time>2026-08-20T10:05:54Z</time>
      </trkpt>
      <trkpt lat="59.112904071807861" lon="30.482189655303955">
        <time>2026-08-20T10:05:57Z</time>
      </trkpt>
      <trkpt lat="59.112904071807861" lon="30.482189655303955">
        <time>2026-08-20T10:05:59Z</time>
      </trkpt>
      <trkpt lat="59.112904071807861" lon="30.482189655303955">
        <time>2026-08-20T10:06:02Z</time>
      </trkpt>
      <trkpt lat="59.112904071807861" lon="30.482189655303955">
        <time>2026-08-20T10:06:04Z</time>
      </trkpt>
      <trkpt lat="59.112904071807861" lon="30.482189655303955">
        <time>2026-08-20T10:06:07Z</time>
      </trkpt>
      <trkpt lat="59.112904071807861" lon="30.482189655303955">
        <time>2026-08-20T10:06:09Z</time>
      </trkpt>
      <trkpt lat="59.112904071807861" lon="30.482189655303955">
        <time>2026-08-20T10:06:12Z</time>
      </trkpt>
      <trkpt lat="59.112904071807861" lon="30.482189655303955">
        <time>2026-08-20T10:06:14Z</time>
      </trkpt>
      <trkpt lat="59.112904071807861" lon="30.482189655303955">
        <time>2026-08-20T10:06:17Z</time>
      </trkpt>
      <trkpt lat="59.112904071807861" lon="30.482189655303955">
        <time>2026-08-20T10:06:19Z</time>
      </trkpt>
      <trkpt lat="59.112904071807861" lon="30.482189655303955">
        <time>2026-08-20T10:06:22Z</time>
      </trkpt>
      <trkpt lat="59.112904071807861" lon="30.482189655303955">
        <time>2026-08-20T10:06:24Z</time>
      </trkpt>
      <trkpt lat="59.112904071807861" lon="30.482189655303955">
        <time>2026-08-20T10:06:27Z</time>
      </trkpt>
      <trkpt lat="59.112904071807861" lon="30.482189655303955">
        <time>2026-08-20T10:06:29Z</time>
      </trkpt>
      <trkpt lat="59.112904071807861" lon="30.482189655303955">
        <time>2026-08-20T10:06:32Z</time>
      </trkpt>
      <trkpt lat="59.112904071807861" lon="30.482189655303955">
        <time>2026-08-20T10:06:34Z</time>
      </trkpt>
      <trkpt lat="59.112904071807861" lon="30.482189655303955">
        <time>2026-08-20T10:06:37Z</time>
      </trkpt>
      <trkpt lat="59.112904071807861" lon="30.482189655303955">
        <time>2026-08-20T10:06:39Z</time>
      </trkpt>
      <trkpt lat="59.112904071807861" lon="30.482189655303955">
        <time>2026-08-20T10:06:42Z</time>
      </trkpt>
      <trkpt lat="59.112904071807861" lon="30.482189655303955">
        <time>2026-08-20T10:06:44Z</time>
      </trkpt>
      <trkpt lat="59.112904071807861" lon="30.482189655303955">
        <time>2026-08-20T10:06:47Z</time>
      </trkpt>
      <trkpt lat="59.112904071807861" lon="30.482189655303955">
        <time>2026-08-20T10:06:49Z</time>
      </trkpt>
      <trkpt lat="59.112904071807861" lon="30.482189655303955">
        <time>2026-08-20T10:06:52Z</time>
      </trkpt>
      <trkpt lat="59.112904071807861" lon="30.482189655303955">
        <time>2026-08-20T10:06:54Z</time>
      </trkpt>
      <trkpt lat="59.112904071807861" lon="30.482189655303955">
        <time>2026-08-20T10:06:57Z</time>
      </trkpt>
      <trkpt lat="59.112904071807861" lon="30.482189655303955">
        <time>2026-08-20T10:06:59Z</time>
      </trkpt>
      <trkpt lat="59.112904071807861" lon="30.482189655303955">
        <time>2026-08-20T10:07:02Z</time>
      </trkpt>
      <trkpt lat="59.112904071807861" lon="30.482189655303955">
        <time>2026-08-20T10:07:04Z</time>
      </trkpt>
      <trkpt lat="59.112904071807861" lon="30.482189655303955">
        <time>2026-08-20T10:07:07Z</time>
      </trkpt>
      <trkpt lat="59.112904071807861" lon="30.482189655303955">
        <time>2026-08-20T10:07:09Z</time>
      </trkpt>
      <trkpt lat="59.112904071807861" lon="30.482189655303955">
        <time>2026-08-20T10:07:12Z</time>
      </trkpt>
      <trkpt lat="59.112904071807861" lon="30.482189655303955">
        <time>2026-08-20T10:07:14Z</time>
      </trkpt>
      <trkpt lat="59.112904071807861" lon="30.482189655303955">
        <time>2026-08-20T10:07:17Z</time>
      </trkpt>
      <trkpt lat="59.112904071807861" lon="30.482189655303955">
        <time>2026-08-20T10:07:19Z</time>
      </trkpt>
      <trkpt lat="59.112904071807861" lon="30.482189655303955">
        <time>2026-08-20T10:07:22Z</time>
      </trkpt>
      <trkpt lat="59.112904071807861" lon="30.482189655303955">
        <time>2026-08-20T10:07:24Z</time>
      </trkpt>
      <trkpt lat="59.112904071807861" lon="30.482189655303955">
        <time>2026-08-20T10:07:27Z</time>
      </trkpt>
      <trkpt lat="59.112904071807861" lon="30.482189655303955">
        <time>2026-08-20T10:07:29Z</time>
      </trkpt>
      <trkpt lat="59.112904071807861" lon="30.482189655303955">
        <time>2026-08-20T10:07:32Z</time>
      </trkpt>
      <trkpt lat="59.112904071807861" lon="30.482189655303955">
        <time>2026-08-20T10:07:34Z</time>
      </trkpt>
      <trkpt lat="59.112904071807861" lon="30.482189655303955">
        <time>2026-08-20T10:07:37Z</time>
      </trkpt>
      <trkpt lat="59.112904071807861" lon="30.482189655303955">
        <time>2026-08-20T10:07:39Z</time>
      </trkpt>
      <trkpt lat="59.112904071807861" lon="30.482189655303955">
        <time>2026-08-20T10:07:42Z</time>
      </trkpt>
      <trkpt lat="59.112904071807861" lon="30.482189655303955">
        <time>2026-08-20T10:07:44Z</time>
      </trkpt>
      <trkpt lat="59.112882614135742" lon="30.482211112976074">
        <time>2026-08-20T10:07:47Z</time>
      </trkpt>
      <trkpt lat="59.112882614135742" lon="30.482211112976074">
        <time>2026-08-20T10:07:49Z</time>
      </trkpt>
      <trkpt lat="59.112882614135742" lon="30.482211112976074">
        <time>2026-08-20T10:07:52Z</time>
      </trkpt>
      <trkpt lat="59.112904071807861" lon="30.482211112976074">
        <time>2026-08-20T10:07:54Z</time>
      </trkpt>
      <trkpt lat="59.112904071807861" lon="30.482211112976074">
        <time>2026-08-20T10:07:57Z</time>
      </trkpt>
      <trkpt lat="59.112904071807861" lon="30.482189655303955">
        <time>2026-08-20T10:07:59Z</time>
      </trkpt>
      <trkpt lat="59.112882614135742" lon="30.482189655303955">
        <time>2026-08-20T10:08:02Z</time>
      </trkpt>
      <trkpt lat="59.112904071807861" lon="30.482189655303955">
        <time>2026-08-20T10:08:04Z</time>
      </trkpt>
      <trkpt lat="59.112904071807861" lon="30.482232570648193">
        <time>2026-08-20T10:08:07Z</time>
      </trkpt>
      <trkpt lat="59.112904071807861" lon="30.482296943664551">
        <time>2026-08-20T10:08:09Z</time>
      </trkpt>
      <trkpt lat="59.11292552947998" lon="30.48231840133667">
        <time>2026-08-20T10:08:12Z</time>
      </trkpt>
      <trkpt lat="59.112904071807861" lon="30.482339859008789">
        <time>2026-08-20T10:08:14Z</time>
      </trkpt>
      <trkpt lat="59.112904071807861" lon="30.48231840133667">
        <time>2026-08-20T10:08:17Z</time>
      </trkpt>
      <trkpt lat="59.112904071807861" lon="30.48231840133667">
        <time>2026-08-20T10:08:19Z</time>
      </trkpt>
      <trkpt lat="59.112904071807861" lon="30.48231840133667">
        <time>2026-08-20T10:08:22Z</time>
      </trkpt>
      <trkpt lat="59.112904071807861" lon="30.482296943664551">
        <time>2026-08-20T10:08:24Z</time>
      </trkpt>
      <trkpt lat="59.112904071807861" lon="30.482339859008789">
        <time>2026-08-20T10:08:27Z</time>
      </trkpt>
      <trkpt lat="59.11292552947998" lon="30.482425689697266">
        <time>2026-08-20T10:08:29Z</time>
      </trkpt>
      <trkpt lat="59.1129469871521" lon="30.482468605041504">
        <time>2026-08-20T10:08:32Z</time>
      </trkpt>
      <trkpt lat="59.1129469871521" lon="30.482532978057861">
        <time>2026-08-20T10:08:34Z</time>
      </trkpt>
      <trkpt lat="59.112968444824219" lon="30.48255443572998">
        <time>2026-08-20T10:08:37Z</time>
      </trkpt>
      <trkpt lat="59.113011360168457" lon="30.482618808746338">
        <time>2026-08-20T10:08:39Z</time>
      </trkpt>
      <trkpt lat="59.113032817840576" lon="30.482661724090576">
        <time>2026-08-20T10:08:42Z</time>
      </trkpt>
      <trkpt lat="59.113054275512695" lon="30.482704639434814">
        <time>2026-08-20T10:08:44Z</time>
      </trkpt>
      <trkpt lat="59.113054275512695" lon="30.482726097106934">
        <time>2026-08-20T10:08:47Z</time>
      </trkpt>
      <trkpt lat="59.113075733184814" lon="30.482790470123291">
        <time>2026-08-20T10:08:49Z</time>
      </trkpt>
      <trkpt lat="59.113097190856934" lon="30.48281192779541">
        <time>2026-08-20T10:08:52Z</time>
      </trkpt>
      <trkpt lat="59.113118648529053" lon="30.482854843139648">
        <time>2026-08-20T10:08:54Z</time>
      </trkpt>
      <trkpt lat="59.11318302154541" lon="30.483047962188721">
        <time>2026-08-20T10:08:57Z</time>
      </trkpt>
      <trkpt lat="59.113204479217529" lon="30.483434200286865">
        <time>2026-08-20T10:08:59Z</time>
      </trkpt>
      <trkpt lat="59.113225936889648" lon="30.483713150024414">
        <time>2026-08-20T10:09:02Z</time>
      </trkpt>
      <trkpt lat="59.113225936889648" lon="30.484035015106201">
        <time>2026-08-20T10:09:04Z</time>
      </trkpt>
      <trkpt lat="59.113225936889648" lon="30.484185218811035">
        <time>2026-08-20T10:09:07Z</time>
      </trkpt>
      <trkpt lat="59.113225936889648" lon="30.484206676483154">
        <time>2026-08-20T10:09:09Z</time>
      </trkpt>
      <trkpt lat="59.113204479217529" lon="30.48431396484375">
        <time>2026-08-20T10:09:12Z</time>
      </trkpt>
      <trkpt lat="59.113204479217529" lon="30.484549999237061">
        <time>2026-08-20T10:09:14Z</time>
      </trkpt>
      <trkpt lat="59.113204479217529" lon="30.484678745269775">
        <time>2026-08-20T10:09:17Z</time>
      </trkpt>
      <trkpt lat="59.113204479217529" lon="30.48480749130249">
        <time>2026-08-20T10:09:19Z</time>
      </trkpt>
      <trkpt lat="59.113204479217529" lon="30.484914779663086">
        <time>2026-08-20T10:09:22Z</time>
      </trkpt>
      <trkpt lat="59.113225936889648" lon="30.485086441040039">
        <time>2026-08-20T10:09:24Z</time>
      </trkpt>
      <trkpt lat="59.113247394561768" lon="30.485107898712158">
        <time>2026-08-20T10:09:27Z</time>
      </trkpt>
      <trkpt lat="59.113225936889648" lon="30.485022068023682">
        <time>2026-08-20T10:09:29Z</time>
      </trkpt>
      <trkpt lat="59.113247394561768" lon="30.484957695007324">
        <time>2026-08-20T10:09:32Z</time>
      </trkpt>
      <trkpt lat="59.113268852233887" lon="30.485000610351563">
        <time>2026-08-20T10:09:34Z</time>
      </trkpt>
      <trkpt lat="59.113333225250244" lon="30.485000610351563">
        <time>2026-08-20T10:09:37Z</time>
      </trkpt>
      <trkpt lat="59.113354682922363" lon="30.484871864318848">
        <time>2026-08-20T10:09:39Z</time>
      </trkpt>
      <trkpt lat="59.113419055938721" lon="30.48480749130249">
        <time>2026-08-20T10:09:42Z</time>
      </trkpt>
      <trkpt lat="59.113483428955078" lon="30.484700202941895">
        <time>2026-08-20T10:09:44Z</time>
      </trkpt>
      <trkpt lat="59.113461971282959" lon="30.484592914581299">
        <time>2026-08-20T10:09:47Z</time>
      </trkpt>
      <trkpt lat="59.113419055938721" lon="30.484421253204346">
        <time>2026-08-20T10:09:49Z</time>
      </trkpt>
      <trkpt lat="59.113376140594482" lon="30.484378337860107">
        <time>2026-08-20T10:09:52Z</time>
      </trkpt>
      <trkpt lat="59.113333225250244" lon="30.484399795532227">
        <time>2026-08-20T10:09:54Z</time>
      </trkpt>
      <trkpt lat="59.113311767578125" lon="30.484442710876465">
        <time>2026-08-20T10:09:57Z</time>
      </trkpt>
      <trkpt lat="59.113333225250244" lon="30.484464168548584">
        <time>2026-08-20T10:09:59Z</time>
      </trkpt>
      <trkpt lat="59.113376140594482" lon="30.484464168548584">
        <time>2026-08-20T10:10:02Z</time>
      </trkpt>
      <trkpt lat="59.113376140594482" lon="30.484485626220703">
        <time>2026-08-20T10:10:04Z</time>
      </trkpt>
      <trkpt lat="59.113376140594482" lon="30.484485626220703">
        <time>2026-08-20T10:10:07Z</time>
      </trkpt>
      <trkpt lat="59.113376140594482" lon="30.484485626220703">
        <time>2026-08-20T10:10:09Z</time>
      </trkpt>
      <trkpt lat="59.113376140594482" lon="30.484485626220703">
        <time>2026-08-20T10:10:12Z</time>
      </trkpt>
      <trkpt lat="59.113376140594482" lon="30.484485626220703">
        <time>2026-08-20T10:10:14Z</time>
      </trkpt>
      <trkpt lat="59.113376140594482" lon="30.484485626220703">
        <time>2026-08-20T10:10:17Z</time>
      </trkpt>
      <trkpt lat="59.113376140594482" lon="30.484485626220703">
        <time>2026-08-20T10:10:19Z</time>
      </trkpt>
      <trkpt lat="59.113354682922363" lon="30.484507083892822">
        <time>2026-08-20T10:10:22Z</time>
      </trkpt>
      <trkpt lat="59.113268852233887" lon="30.484485626220703">
        <time>2026-08-20T10:10:24Z</time>
      </trkpt>
      <trkpt lat="59.113247394561768" lon="30.484464168548584">
        <time>2026-08-20T10:10:27Z</time>
      </trkpt>
      <trkpt lat="59.113225936889648" lon="30.484442710876465">
        <time>2026-08-20T10:10:29Z</time>
      </trkpt>
      <trkpt lat="59.113225936889648" lon="30.484464168548584">
        <time>2026-08-20T10:10:32Z</time>
      </trkpt>
      <trkpt lat="59.113247394561768" lon="30.484464168548584">
        <time>2026-08-20T10:10:34Z</time>
      </trkpt>
      <trkpt lat="59.113247394561768" lon="30.484485626220703">
        <time>2026-08-20T10:10:37Z</time>
      </trkpt>
      <trkpt lat="59.113247394561768" lon="30.484485626220703">
        <time>2026-08-20T10:10:39Z</time>
      </trkpt>
      <trkpt lat="59.113247394561768" lon="30.484485626220703">
        <time>2026-08-20T10:10:42Z</time>
      </trkpt>
      <trkpt lat="59.113247394561768" lon="30.484442710876465">
        <time>2026-08-20T10:10:44Z</time>
      </trkpt>
      <trkpt lat="59.113225936889648" lon="30.484464168548584">
        <time>2026-08-20T10:10:47Z</time>
      </trkpt>
      <trkpt lat="59.113225936889648" lon="30.484464168548584">
        <time>2026-08-20T10:10:49Z</time>
      </trkpt>
      <trkpt lat="59.113225936889648" lon="30.484464168548584">
        <time>2026-08-20T10:10:52Z</time>
      </trkpt>
      <trkpt lat="59.113225936889648" lon="30.484485626220703">
        <time>2026-08-20T10:10:54Z</time>
      </trkpt>
      <trkpt lat="59.113247394561768" lon="30.484528541564941">
        <time>2026-08-20T10:10:57Z</time>
      </trkpt>
      <trkpt lat="59.113247394561768" lon="30.484549999237061">
        <time>2026-08-20T10:10:59Z</time>
      </trkpt>
      <trkpt lat="59.113247394561768" lon="30.484507083892822">
        <time>2026-08-20T10:11:02Z</time>
      </trkpt>
      <trkpt lat="59.113247394561768" lon="30.484507083892822">
        <time>2026-08-20T10:11:04Z</time>
      </trkpt>
      <trkpt lat="59.113247394561768" lon="30.484507083892822">
        <time>2026-08-20T10:11:07Z</time>
      </trkpt>
      <trkpt lat="59.113247394561768" lon="30.484507083892822">
        <time>2026-08-20T10:11:09Z</time>
      </trkpt>
      <trkpt lat="59.113247394561768" lon="30.484507083892822">
        <time>2026-08-20T10:11:12Z</time>
      </trkpt>
      <trkpt lat="59.113247394561768" lon="30.484485626220703">
        <time>2026-08-20T10:11:14Z</time>
      </trkpt>
      <trkpt lat="59.113268852233887" lon="30.484464168548584">
        <time>2026-08-20T10:11:17Z</time>
      </trkpt>
      <trkpt lat="59.113268852233887" lon="30.484442710876465">
        <time>2026-08-20T10:11:19Z</time>
      </trkpt>
      <trkpt lat="59.113268852233887" lon="30.484442710876465">
        <time>2026-08-20T10:11:22Z</time>
      </trkpt>
      <trkpt lat="59.113268852233887" lon="30.484421253204346">
        <time>2026-08-20T10:11:24Z</time>
      </trkpt>
      <trkpt lat="59.113268852233887" lon="30.484421253204346">
        <time>2026-08-20T10:11:27Z</time>
      </trkpt>
      <trkpt lat="59.113268852233887" lon="30.484421253204346">
        <time>2026-08-20T10:11:29Z</time>
      </trkpt>
      <trkpt lat="59.113268852233887" lon="30.484421253204346">
        <time>2026-08-20T10:11:32Z</time>
      </trkpt>
      <trkpt lat="59.113247394561768" lon="30.484421253204346">
        <time>2026-08-20T10:11:34Z</time>
      </trkpt>
      <trkpt lat="59.113247394561768" lon="30.484421253204346">
        <time>2026-08-20T10:11:37Z</time>
      </trkpt>
      <trkpt lat="59.113247394561768" lon="30.484421253204346">
        <time>2026-08-20T10:11:39Z</time>
      </trkpt>
      <trkpt lat="59.113247394561768" lon="30.484421253204346">
        <time>2026-08-20T10:11:42Z</time>
      </trkpt>
      <trkpt lat="59.113247394561768" lon="30.484421253204346">
        <time>2026-08-20T10:11:44Z</time>
      </trkpt>
      <trkpt lat="59.113247394561768" lon="30.484421253204346">
        <time>2026-08-20T10:11:47Z</time>
      </trkpt>
      <trkpt lat="59.113247394561768" lon="30.484421253204346">
        <time>2026-08-20T10:11:49Z</time>
      </trkpt>
      <trkpt lat="59.113268852233887" lon="30.484485626220703">
        <time>2026-08-20T10:11:52Z</time>
      </trkpt>
      <trkpt lat="59.113247394561768" lon="30.484549999237061">
        <time>2026-08-20T10:11:54Z</time>
      </trkpt>
      <trkpt lat="59.113247394561768" lon="30.484592914581299">
        <time>2026-08-20T10:11:57Z</time>
      </trkpt>
      <trkpt lat="59.113247394561768" lon="30.48457145690918">
        <time>2026-08-20T10:11:59Z</time>
      </trkpt>
      <trkpt lat="59.113247394561768" lon="30.484549999237061">
        <time>2026-08-20T10:12:02Z</time>
      </trkpt>
      <trkpt lat="59.113247394561768" lon="30.484507083892822">
        <time>2026-08-20T10:12:04Z</time>
      </trkpt>
      <trkpt lat="59.113225936889648" lon="30.484442710876465">
        <time>2026-08-20T10:12:07Z</time>
      </trkpt>
      <trkpt lat="59.113225936889648" lon="30.484356880187988">
        <time>2026-08-20T10:12:09Z</time>
      </trkpt>
      <trkpt lat="59.113225936889648" lon="30.484335422515869">
        <time>2026-08-20T10:12:12Z</time>
      </trkpt>
      <trkpt lat="59.113225936889648" lon="30.484335422515869">
        <time>2026-08-20T10:12:14Z</time>
      </trkpt>
      <trkpt lat="59.113225936889648" lon="30.484335422515869">
        <time>2026-08-20T10:12:17Z</time>
      </trkpt>
      <trkpt lat="59.113204479217529" lon="30.484206676483154">
        <time>2026-08-20T10:12:19Z</time>
      </trkpt>
      <trkpt lat="59.113204479217529" lon="30.484120845794678">
        <time>2026-08-20T10:12:22Z</time>
      </trkpt>
      <trkpt lat="59.113204479217529" lon="30.48405647277832">
        <time>2026-08-20T10:12:24Z</time>
      </trkpt>
      <trkpt lat="59.11318302154541" lon="30.48405647277832">
        <time>2026-08-20T10:12:27Z</time>
      </trkpt>
      <trkpt lat="59.11318302154541" lon="30.48405647277832">
        <time>2026-08-20T10:12:29Z</time>
      </trkpt>
      <trkpt lat="59.11318302154541" lon="30.48405647277832">
        <time>2026-08-20T10:12:32Z</time>
      </trkpt>
      <trkpt lat="59.11318302154541" lon="30.483927726745605">
        <time>2026-08-20T10:12:34Z</time>
      </trkpt>
      <trkpt lat="59.11318302154541" lon="30.48382043838501">
        <time>2026-08-20T10:12:37Z</time>
      </trkpt>
      <trkpt lat="59.11318302154541" lon="30.483670234680176">
        <time>2026-08-20T10:12:39Z</time>
      </trkpt>
      <trkpt lat="59.11318302154541" lon="30.483584403991699">
        <time>2026-08-20T10:12:42Z</time>
      </trkpt>
      <trkpt lat="59.11318302154541" lon="30.483434200286865">
        <time>2026-08-20T10:12:44Z</time>
      </trkpt>
      <trkpt lat="59.11318302154541" lon="30.483348369598389">
        <time>2026-08-20T10:12:47Z</time>
      </trkpt>
      <trkpt lat="59.11318302154541" lon="30.483262538909912">
        <time>2026-08-20T10:12:49Z</time>
      </trkpt>
      <trkpt lat="59.11318302154541" lon="30.483283996582031">
        <time>2026-08-20T10:12:52Z</time>
      </trkpt>
      <trkpt lat="59.113161563873291" lon="30.483348369598389">
        <time>2026-08-20T10:12:54Z</time>
      </trkpt>
      <trkpt lat="59.113161563873291" lon="30.48332691192627">
        <time>2026-08-20T10:12:57Z</time>
      </trkpt>
      <trkpt lat="59.113161563873291" lon="30.48332691192627">
        <time>2026-08-20T10:12:59Z</time>
      </trkpt>
      <trkpt lat="59.113161563873291" lon="30.48330545425415">
        <time>2026-08-20T10:13:02Z</time>
      </trkpt>
      <trkpt lat="59.113161563873291" lon="30.483241081237793">
        <time>2026-08-20T10:13:04Z</time>
      </trkpt>
      <trkpt lat="59.113140106201172" lon="30.483198165893555">
        <time>2026-08-20T10:13:07Z</time>
      </trkpt>
      <trkpt lat="59.113140106201172" lon="30.483133792877197">
        <time>2026-08-20T10:13:09Z</time>
      </trkpt>
      <trkpt lat="59.113140106201172" lon="30.48306941986084">
        <time>2026-08-20T10:13:12Z</time>
      </trkpt>
      <trkpt lat="59.113140106201172" lon="30.483005046844482">
        <time>2026-08-20T10:13:14Z</time>
      </trkpt>
      <trkpt lat="59.113140106201172" lon="30.482983589172363">
        <time>2026-08-20T10:13:17Z</time>
      </trkpt>
      <trkpt lat="59.113118648529053" lon="30.482940673828125">
        <time>2026-08-20T10:13:19Z</time>
      </trkpt>
      <trkpt lat="59.113097190856934" lon="30.482876300811768">
        <time>2026-08-20T10:13:22Z</time>
      </trkpt>
      <trkpt lat="59.113097190856934" lon="30.482833385467529">
        <time>2026-08-20T10:13:24Z</time>
      </trkpt>
      <trkpt lat="59.113075733184814" lon="30.482790470123291">
        <time>2026-08-20T10:13:27Z</time>
      </trkpt>
      <trkpt lat="59.113054275512695" lon="30.482747554779053">
        <time>2026-08-20T10:13:29Z</time>
      </trkpt>
      <trkpt lat="59.113054275512695" lon="30.482683181762695">
        <time>2026-08-20T10:13:32Z</time>
      </trkpt>
      <trkpt lat="59.113011360168457" lon="30.482618808746338">
        <time>2026-08-20T10:13:34Z</time>
      </trkpt>
      <trkpt lat="59.112989902496338" lon="30.482597351074219">
        <time>2026-08-20T10:13:37Z</time>
      </trkpt>
      <trkpt lat="59.112968444824219" lon="30.482532978057861">
        <time>2026-08-20T10:13:39Z</time>
      </trkpt>
      <trkpt lat="59.112968444824219" lon="30.482511520385742">
        <time>2026-08-20T10:13:42Z</time>
      </trkpt>
      <trkpt lat="59.1129469871521" lon="30.482425689697266">
        <time>2026-08-20T10:13:44Z</time>
      </trkpt>
      <trkpt lat="59.11292552947998" lon="30.482382774353027">
        <time>2026-08-20T10:13:47Z</time>
      </trkpt>
      <trkpt lat="59.11292552947998" lon="30.482296943664551">
        <time>2026-08-20T10:13:49Z</time>
      </trkpt>
      <trkpt lat="59.11292552947998" lon="30.482254028320312">
        <time>2026-08-20T10:13:52Z</time>
      </trkpt>
      <trkpt lat="59.11292552947998" lon="30.482189655303955">
        <time>2026-08-20T10:13:54Z</time>
      </trkpt>
      <trkpt lat="59.112904071807861" lon="30.482189655303955">
        <time>2026-08-20T10:13:57Z</time>
      </trkpt>
      <trkpt lat="59.112904071807861" lon="30.482189655303955">
        <time>2026-08-20T10:13:59Z</time>
      </trkpt>
      <trkpt lat="59.112882614135742" lon="30.482189655303955">
        <time>2026-08-20T10:14:02Z</time>
      </trkpt>
      <trkpt lat="59.112882614135742" lon="30.482189655303955">
        <time>2026-08-20T10:14:04Z</time>
      </trkpt>
      <trkpt lat="59.112882614135742" lon="30.482189655303955">
        <time>2026-08-20T10:14:07Z</time>
      </trkpt>
      <trkpt lat="59.112882614135742" lon="30.482189655303955">
        <time>2026-08-20T10:14:09Z</time>
      </trkpt>
      <trkpt lat="59.112882614135742" lon="30.482189655303955">
        <time>2026-08-20T10:14:12Z</time>
      </trkpt>
      <trkpt lat="59.112882614135742" lon="30.482189655303955">
        <time>2026-08-20T10:14:14Z</time>
      </trkpt>
      <trkpt lat="59.112882614135742" lon="30.482189655303955">
        <time>2026-08-20T10:14:17Z</time>
      </trkpt>
      <trkpt lat="59.112882614135742" lon="30.482189655303955">
        <time>2026-08-20T10:14:19Z</time>
      </trkpt>
      <trkpt lat="59.112882614135742" lon="30.482189655303955">
        <time>2026-08-20T10:14:22Z</time>
      </trkpt>
      <trkpt lat="59.112882614135742" lon="30.482189655303955">
        <time>2026-08-20T10:14:24Z</time>
      </trkpt>
      <trkpt lat="59.112882614135742" lon="30.482189655303955">
        <time>2026-08-20T10:14:27Z</time>
      </trkpt>
    </trkseg>
  </trk>

</gpx>